<?xml version='1.0' encoding='UTF-8'?><gpx version="1.1" creator="JPX - https://github.com/jenetics/jpx" xmlns="http://www.topografix.com/GPX/1/1"><trk><trkseg><trkpt lat="38.4357917" lon="16.0548083"><ele>157.0</ele><time>2026-05-03T06:00:43.483Z</time></trkpt><trkpt lat="38.4358017" lon="16.0546467"><ele>157.0</ele><time>2026-05-03T06:00:45.482Z</time></trkpt><trkpt lat="38.43581" lon="16.0545183"><ele>157.0</ele><time>2026-05-03T06:00:46.483Z</time></trkpt><trkpt lat="38.4358083" lon="16.0543617"><ele>157.0</ele><time>2026-05-03T06:00:47.484Z</time></trkpt><trkpt lat="38.4358133" lon="16.0542133"><ele>156.75</ele><time>2026-05-03T06:00:48.481Z</time></trkpt><trkpt lat="38.4358217" lon="16.0540633"><ele>156.5</ele><time>2026-05-03T06:00:49.484Z</time></trkpt><trkpt lat="38.43583" lon="16.0539067"><ele>156.25</ele><time>2026-05-03T06:00:50.485Z</time></trkpt><trkpt lat="38.435835" lon="16.0537367"><ele>156.0</ele><time>2026-05-03T06:00:51.482Z</time></trkpt><trkpt lat="38.4358367" lon="16.0535583"><ele>156.0</ele><time>2026-05-03T06:00:52.483Z</time></trkpt><trkpt lat="38.4358383" lon="16.0533717"><ele>156.0</ele><time>2026-05-03T06:00:53.485Z</time></trkpt><trkpt lat="38.4358367" lon="16.0531817"><ele>156.0</ele><time>2026-05-03T06:00:54.483Z</time></trkpt><trkpt lat="38.4358283" lon="16.0529767"><ele>154.0</ele><time>2026-05-03T06:00:55.483Z</time></trkpt><trkpt lat="38.4358067" lon="16.0527683"><ele>152.0</ele><time>2026-05-03T06:00:56.482Z</time></trkpt><trkpt lat="38.4357717" lon="16.052565"><ele>150.0</ele><time>2026-05-03T06:00:57.483Z</time></trkpt><trkpt lat="38.4357267" lon="16.0523617"><ele>149.0</ele><time>2026-05-03T06:00:58.482Z</time></trkpt><trkpt lat="38.4356717" lon="16.05214"><ele>148.0</ele><time>2026-05-03T06:00:59.484Z</time></trkpt><trkpt lat="38.43563" lon="16.0519417"><ele>147.0</ele><time>2026-05-03T06:01:00.483Z</time></trkpt><trkpt lat="38.43559" lon="16.0517533"><ele>146.25</ele><time>2026-05-03T06:01:01.482Z</time></trkpt><trkpt lat="38.4355467" lon="16.0515783"><ele>145.5</ele><time>2026-05-03T06:01:02.483Z</time></trkpt><trkpt lat="38.4355033" lon="16.0514117"><ele>144.75</ele><time>2026-05-03T06:01:03.481Z</time></trkpt><trkpt lat="38.4354817" lon="16.051245"><ele>144.0</ele><time>2026-05-03T06:01:04.482Z</time></trkpt><trkpt lat="38.43549" lon="16.0510783"><ele>144.0</ele><time>2026-05-03T06:01:05.484Z</time></trkpt><trkpt lat="38.435515" lon="16.0509267"><ele>144.0</ele><time>2026-05-03T06:01:06.482Z</time></trkpt><trkpt lat="38.4355733" lon="16.0507883"><ele>144.0</ele><time>2026-05-03T06:01:07.483Z</time></trkpt><trkpt lat="38.4356683" lon="16.0506583"><ele>144.0</ele><time>2026-05-03T06:01:08.483Z</time></trkpt><trkpt lat="38.4357933" lon="16.050545"><ele>143.66666666666666</ele><time>2026-05-03T06:01:09.481Z</time></trkpt><trkpt lat="38.4359417" lon="16.0504233"><ele>143.33333333333331</ele><time>2026-05-03T06:01:10.482Z</time></trkpt><trkpt lat="38.43611" lon="16.0502983"><ele>143.0</ele><time>2026-05-03T06:01:11.484Z</time></trkpt><trkpt lat="38.436285" lon="16.0501717"><ele>143.0</ele><time>2026-05-03T06:01:12.483Z</time></trkpt><trkpt lat="38.4364683" lon="16.0500483"><ele>143.0</ele><time>2026-05-03T06:01:13.484Z</time></trkpt><trkpt lat="38.4366433" lon="16.049925"><ele>143.0</ele><time>2026-05-03T06:01:14.482Z</time></trkpt><trkpt lat="38.436805" lon="16.0498067"><ele>142.33333333333331</ele><time>2026-05-03T06:01:15.483Z</time></trkpt><trkpt lat="38.436965" lon="16.0497067"><ele>141.66666666666666</ele><time>2026-05-03T06:01:16.483Z</time></trkpt><trkpt lat="38.4371167" lon="16.0496183"><ele>141.0</ele><time>2026-05-03T06:01:17.484Z</time></trkpt><trkpt lat="38.4372517" lon="16.0495267"><ele>141.0</ele><time>2026-05-03T06:01:18.483Z</time></trkpt><trkpt lat="38.4373817" lon="16.04944"><ele>141.0</ele><time>2026-05-03T06:01:19.484Z</time></trkpt><trkpt lat="38.4375033" lon="16.0493533"><ele>141.0</ele><time>2026-05-03T06:01:20.485Z</time></trkpt><trkpt lat="38.4376217" lon="16.049245"><ele>141.0</ele><time>2026-05-03T06:01:21.484Z</time></trkpt><trkpt lat="38.4377467" lon="16.04912"><ele>140.66666666666666</ele><time>2026-05-03T06:01:22.482Z</time></trkpt><trkpt lat="38.43787" lon="16.0489833"><ele>140.33333333333331</ele><time>2026-05-03T06:01:23.483Z</time></trkpt><trkpt lat="38.4379967" lon="16.048845"><ele>140.0</ele><time>2026-05-03T06:01:24.484Z</time></trkpt><trkpt lat="38.4381217" lon="16.04872"><ele>140.0</ele><time>2026-05-03T06:01:25.484Z</time></trkpt><trkpt lat="38.4382433" lon="16.0486133"><ele>140.0</ele><time>2026-05-03T06:01:26.482Z</time></trkpt><trkpt lat="38.4383667" lon="16.04853"><ele>140.0</ele><time>2026-05-03T06:01:27.483Z</time></trkpt><trkpt lat="38.438485" lon="16.0484583"><ele>140.0</ele><time>2026-05-03T06:01:28.482Z</time></trkpt><trkpt lat="38.4386017" lon="16.04839"><ele>140.0</ele><time>2026-05-03T06:01:29.484Z</time></trkpt><trkpt lat="38.4387167" lon="16.0483283"><ele>140.0</ele><time>2026-05-03T06:01:30.484Z</time></trkpt><trkpt lat="38.4388317" lon="16.04827"><ele>140.0</ele><time>2026-05-03T06:01:31.484Z</time></trkpt><trkpt lat="38.4389467" lon="16.0482067"><ele>140.0</ele><time>2026-05-03T06:01:32.482Z</time></trkpt><trkpt lat="38.4390533" lon="16.048145"><ele>139.25</ele><time>2026-05-03T06:01:33.484Z</time></trkpt><trkpt lat="38.4391583" lon="16.0480883"><ele>138.5</ele><time>2026-05-03T06:01:34.484Z</time></trkpt><trkpt lat="38.4392717" lon="16.0480267"><ele>137.75</ele><time>2026-05-03T06:01:35.484Z</time></trkpt><trkpt lat="38.4393883" lon="16.0479567"><ele>137.0</ele><time>2026-05-03T06:01:36.484Z</time></trkpt><trkpt lat="38.4395" lon="16.0478783"><ele>137.0</ele><time>2026-05-03T06:01:37.484Z</time></trkpt><trkpt lat="38.4396067" lon="16.04779"><ele>137.0</ele><time>2026-05-03T06:01:38.483Z</time></trkpt><trkpt lat="38.4397017" lon="16.047695"><ele>137.0</ele><time>2026-05-03T06:01:39.483Z</time></trkpt><trkpt lat="38.439795" lon="16.0475967"><ele>137.0</ele><time>2026-05-03T06:01:40.483Z</time></trkpt><trkpt lat="38.4398867" lon="16.047495"><ele>136.0</ele><time>2026-05-03T06:01:41.486Z</time></trkpt><trkpt lat="38.4399767" lon="16.047385"><ele>135.0</ele><time>2026-05-03T06:01:42.482Z</time></trkpt><trkpt lat="38.4400717" lon="16.04726"><ele>134.0</ele><time>2026-05-03T06:01:43.483Z</time></trkpt><trkpt lat="38.4401667" lon="16.0471233"><ele>133.0</ele><time>2026-05-03T06:01:44.482Z</time></trkpt><trkpt lat="38.44026" lon="16.0469817"><ele>133.0</ele><time>2026-05-03T06:01:45.483Z</time></trkpt><trkpt lat="38.440345" lon="16.0468433"><ele>133.0</ele><time>2026-05-03T06:01:46.483Z</time></trkpt><trkpt lat="38.4404267" lon="16.0466933"><ele>133.0</ele><time>2026-05-03T06:01:47.483Z</time></trkpt><trkpt lat="38.4405183" lon="16.04654"><ele>133.0</ele><time>2026-05-03T06:01:48.482Z</time></trkpt><trkpt lat="38.44061" lon="16.0463833"><ele>132.0</ele><time>2026-05-03T06:01:49.483Z</time></trkpt><trkpt lat="38.4407083" lon="16.0462217"><ele>131.0</ele><time>2026-05-03T06:01:50.482Z</time></trkpt><trkpt lat="38.4408083" lon="16.0460317"><ele>130.0</ele><time>2026-05-03T06:01:51.481Z</time></trkpt><trkpt lat="38.44091" lon="16.0458183"><ele>130.33333333333334</ele><time>2026-05-03T06:01:52.483Z</time></trkpt><trkpt lat="38.4410133" lon="16.045585"><ele>130.66666666666666</ele><time>2026-05-03T06:01:53.484Z</time></trkpt><trkpt lat="38.4411083" lon="16.0453483"><ele>131.0</ele><time>2026-05-03T06:01:54.482Z</time></trkpt><trkpt lat="38.4412083" lon="16.04512"><ele>132.33333333333331</ele><time>2026-05-03T06:01:55.484Z</time></trkpt><trkpt lat="38.4413283" lon="16.044905"><ele>133.66666666666666</ele><time>2026-05-03T06:01:56.483Z</time></trkpt><trkpt lat="38.4414767" lon="16.0447183"><ele>135.0</ele><time>2026-05-03T06:01:57.484Z</time></trkpt><trkpt lat="38.4416533" lon="16.04456"><ele>135.0</ele><time>2026-05-03T06:01:58.484Z</time></trkpt><trkpt lat="38.4418533" lon="16.04441"><ele>135.0</ele><time>2026-05-03T06:01:59.483Z</time></trkpt><trkpt lat="38.4420517" lon="16.0442733"><ele>134.5</ele><time>2026-05-03T06:02:00.483Z</time></trkpt><trkpt lat="38.4422583" lon="16.0441583"><ele>134.0</ele><time>2026-05-03T06:02:01.482Z</time></trkpt><trkpt lat="38.442495" lon="16.0440883"><ele>127.5</ele><time>2026-05-03T06:02:02.483Z</time></trkpt><trkpt lat="38.4427367" lon="16.0440417"><ele>121.0</ele><time>2026-05-03T06:02:03.483Z</time></trkpt><trkpt lat="38.4429667" lon="16.0440033"><ele>121.0</ele><time>2026-05-03T06:02:04.483Z</time></trkpt><trkpt lat="38.4431817" lon="16.04397"><ele>121.0</ele><time>2026-05-03T06:02:05.485Z</time></trkpt><trkpt lat="38.44338" lon="16.043925"><ele>121.0</ele><time>2026-05-03T06:02:06.485Z</time></trkpt><trkpt lat="38.4435633" lon="16.0438633"><ele>121.0</ele><time>2026-05-03T06:02:07.484Z</time></trkpt><trkpt lat="38.4437333" lon="16.0437833"><ele>121.0</ele><time>2026-05-03T06:02:08.482Z</time></trkpt><trkpt lat="38.4438917" lon="16.0436733"><ele>121.0</ele><time>2026-05-03T06:02:09.483Z</time></trkpt><trkpt lat="38.4440317" lon="16.0435283"><ele>123.0</ele><time>2026-05-03T06:02:10.482Z</time></trkpt><trkpt lat="38.4441567" lon="16.0433433"><ele>125.0</ele><time>2026-05-03T06:02:11.483Z</time></trkpt><trkpt lat="38.4442817" lon="16.0431367"><ele>127.0</ele><time>2026-05-03T06:02:12.483Z</time></trkpt><trkpt lat="38.4444117" lon="16.0429167"><ele>125.5</ele><time>2026-05-03T06:02:13.485Z</time></trkpt><trkpt lat="38.4445633" lon="16.0426983"><ele>124.0</ele><time>2026-05-03T06:02:14.482Z</time></trkpt><trkpt lat="38.4447317" lon="16.0424833"><ele>120.0</ele><time>2026-05-03T06:02:15.482Z</time></trkpt><trkpt lat="38.444915" lon="16.042275"><ele>116.0</ele><time>2026-05-03T06:02:16.483Z</time></trkpt><trkpt lat="38.445105" lon="16.0420733"><ele>116.0</ele><time>2026-05-03T06:02:17.484Z</time></trkpt><trkpt lat="38.445305" lon="16.041875"><ele>116.0</ele><time>2026-05-03T06:02:18.483Z</time></trkpt><trkpt lat="38.4454867" lon="16.041685"><ele>114.33333333333333</ele><time>2026-05-03T06:02:19.484Z</time></trkpt><trkpt lat="38.4456583" lon="16.0415067"><ele>112.66666666666666</ele><time>2026-05-03T06:02:20.484Z</time></trkpt><trkpt lat="38.44582" lon="16.0413433"><ele>111.0</ele><time>2026-05-03T06:02:21.483Z</time></trkpt><trkpt lat="38.4459767" lon="16.0411867"><ele>111.0</ele><time>2026-05-03T06:02:22.484Z</time></trkpt><trkpt lat="38.4461283" lon="16.0410333"><ele>111.0</ele><time>2026-05-03T06:02:23.483Z</time></trkpt><trkpt lat="38.4462817" lon="16.0408883"><ele>111.0</ele><time>2026-05-03T06:02:24.483Z</time></trkpt><trkpt lat="38.4464383" lon="16.04075"><ele>109.66666666666666</ele><time>2026-05-03T06:02:25.485Z</time></trkpt><trkpt lat="38.4466067" lon="16.0406283"><ele>108.33333333333333</ele><time>2026-05-03T06:02:26.484Z</time></trkpt><trkpt lat="38.4467833" lon="16.0405333"><ele>107.0</ele><time>2026-05-03T06:02:27.482Z</time></trkpt><trkpt lat="38.446975" lon="16.0404617"><ele>109.0</ele><time>2026-05-03T06:02:28.482Z</time></trkpt><trkpt lat="38.4471833" lon="16.0404133"><ele>111.0</ele><time>2026-05-03T06:02:29.483Z</time></trkpt><trkpt lat="38.4473967" lon="16.0403717"><ele>113.0</ele><time>2026-05-03T06:02:30.482Z</time></trkpt><trkpt lat="38.4476183" lon="16.040335"><ele>113.0</ele><time>2026-05-03T06:02:31.482Z</time></trkpt><trkpt lat="38.4478433" lon="16.0403033"><ele>113.0</ele><time>2026-05-03T06:02:32.483Z</time></trkpt><trkpt lat="38.4480633" lon="16.040265"><ele>113.0</ele><time>2026-05-03T06:02:33.483Z</time></trkpt><trkpt lat="38.4482817" lon="16.0402267"><ele>113.66666666666666</ele><time>2026-05-03T06:02:34.482Z</time></trkpt><trkpt lat="38.4484983" lon="16.04018"><ele>114.33333333333334</ele><time>2026-05-03T06:02:35.484Z</time></trkpt><trkpt lat="38.44871" lon="16.0401133"><ele>115.0</ele><time>2026-05-03T06:02:36.484Z</time></trkpt><trkpt lat="38.4489183" lon="16.0400167"><ele>111.5</ele><time>2026-05-03T06:02:37.483Z</time></trkpt><trkpt lat="38.4491283" lon="16.0399017"><ele>108.0</ele><time>2026-05-03T06:02:38.483Z</time></trkpt><trkpt lat="38.449335" lon="16.0397783"><ele>108.0</ele><time>2026-05-03T06:02:39.483Z</time></trkpt><trkpt lat="38.4495417" lon="16.0396517"><ele>108.0</ele><time>2026-05-03T06:02:40.485Z</time></trkpt><trkpt lat="38.44975" lon="16.0395317"><ele>112.5</ele><time>2026-05-03T06:02:41.483Z</time></trkpt><trkpt lat="38.44996" lon="16.0394117"><ele>117.0</ele><time>2026-05-03T06:02:42.483Z</time></trkpt><trkpt lat="38.45017" lon="16.0392867"><ele>117.0</ele><time>2026-05-03T06:02:43.484Z</time></trkpt><trkpt lat="38.4503783" lon="16.0391617"><ele>117.0</ele><time>2026-05-03T06:02:44.484Z</time></trkpt><trkpt lat="38.4505883" lon="16.0390367"><ele>115.0</ele><time>2026-05-03T06:02:45.484Z</time></trkpt><trkpt lat="38.4507967" lon="16.03891"><ele>113.0</ele><time>2026-05-03T06:02:46.483Z</time></trkpt><trkpt lat="38.4509967" lon="16.0387883"><ele>113.0</ele><time>2026-05-03T06:02:47.482Z</time></trkpt><trkpt lat="38.4511883" lon="16.03867"><ele>113.0</ele><time>2026-05-03T06:02:48.483Z</time></trkpt><trkpt lat="38.4513717" lon="16.0385533"><ele>113.0</ele><time>2026-05-03T06:02:49.484Z</time></trkpt><trkpt lat="38.4515583" lon="16.0384383"><ele>112.0</ele><time>2026-05-03T06:02:50.484Z</time></trkpt><trkpt lat="38.4517433" lon="16.0383217"><ele>111.0</ele><time>2026-05-03T06:02:51.482Z</time></trkpt><trkpt lat="38.4519233" lon="16.0382017"><ele>110.0</ele><time>2026-05-03T06:02:52.483Z</time></trkpt><trkpt lat="38.452095" lon="16.038085"><ele>108.33333333333333</ele><time>2026-05-03T06:02:53.483Z</time></trkpt><trkpt lat="38.45226" lon="16.0379733"><ele>106.66666666666666</ele><time>2026-05-03T06:02:54.482Z</time></trkpt><trkpt lat="38.4524183" lon="16.0378683"><ele>105.0</ele><time>2026-05-03T06:02:55.484Z</time></trkpt><trkpt lat="38.452565" lon="16.0377683"><ele>105.0</ele><time>2026-05-03T06:02:56.483Z</time></trkpt><trkpt lat="38.4526867" lon="16.0376583"><ele>105.0</ele><time>2026-05-03T06:02:57.484Z</time></trkpt><trkpt lat="38.4527783" lon="16.03753"><ele>105.0</ele><time>2026-05-03T06:02:58.484Z</time></trkpt><trkpt lat="38.452845" lon="16.0373867"><ele>105.0</ele><time>2026-05-03T06:02:59.484Z</time></trkpt><trkpt lat="38.4528967" lon="16.0372383"><ele>105.0</ele><time>2026-05-03T06:03:00.483Z</time></trkpt><trkpt lat="38.4529483" lon="16.0370767"><ele>105.0</ele><time>2026-05-03T06:03:01.484Z</time></trkpt><trkpt lat="38.453" lon="16.0369033"><ele>105.0</ele><time>2026-05-03T06:03:02.484Z</time></trkpt><trkpt lat="38.4530617" lon="16.0367267"><ele>105.0</ele><time>2026-05-03T06:03:03.483Z</time></trkpt><trkpt lat="38.453145" lon="16.0365583"><ele>105.0</ele><time>2026-05-03T06:03:04.483Z</time></trkpt><trkpt lat="38.4532567" lon="16.0364"><ele>105.0</ele><time>2026-05-03T06:03:05.484Z</time></trkpt><trkpt lat="38.453385" lon="16.0362517"><ele>105.0</ele><time>2026-05-03T06:03:06.483Z</time></trkpt><trkpt lat="38.4535367" lon="16.036095"><ele>105.0</ele><time>2026-05-03T06:03:07.484Z</time></trkpt><trkpt lat="38.4536983" lon="16.0359283"><ele>105.0</ele><time>2026-05-03T06:03:08.483Z</time></trkpt><trkpt lat="38.4538517" lon="16.0357383"><ele>105.0</ele><time>2026-05-03T06:03:09.483Z</time></trkpt><trkpt lat="38.454" lon="16.0355383"><ele>105.0</ele><time>2026-05-03T06:03:10.482Z</time></trkpt><trkpt lat="38.4541417" lon="16.0353383"><ele>105.0</ele><time>2026-05-03T06:03:11.483Z</time></trkpt><trkpt lat="38.454275" lon="16.0351433"><ele>105.0</ele><time>2026-05-03T06:03:12.483Z</time></trkpt><trkpt lat="38.4544033" lon="16.0349483"><ele>104.66666666666666</ele><time>2026-05-03T06:03:13.483Z</time></trkpt><trkpt lat="38.4545267" lon="16.0347633"><ele>104.33333333333333</ele><time>2026-05-03T06:03:14.485Z</time></trkpt><trkpt lat="38.4546467" lon="16.03459"><ele>104.0</ele><time>2026-05-03T06:03:15.483Z</time></trkpt><trkpt lat="38.4547717" lon="16.034435"><ele>103.0</ele><time>2026-05-03T06:03:16.483Z</time></trkpt><trkpt lat="38.4548833" lon="16.0342817"><ele>102.0</ele><time>2026-05-03T06:03:17.483Z</time></trkpt><trkpt lat="38.4549767" lon="16.0341133"><ele>101.0</ele><time>2026-05-03T06:03:18.482Z</time></trkpt><trkpt lat="38.4550467" lon="16.033925"><ele>100.33333333333333</ele><time>2026-05-03T06:03:19.483Z</time></trkpt><trkpt lat="38.4551183" lon="16.0337267"><ele>99.66666666666666</ele><time>2026-05-03T06:03:20.484Z</time></trkpt><trkpt lat="38.4551867" lon="16.0335183"><ele>99.0</ele><time>2026-05-03T06:03:21.483Z</time></trkpt><trkpt lat="38.45526" lon="16.0333067"><ele>98.33333333333334</ele><time>2026-05-03T06:03:22.487Z</time></trkpt><trkpt lat="38.45533" lon="16.0330967"><ele>97.66666666666667</ele><time>2026-05-03T06:03:23.483Z</time></trkpt><trkpt lat="38.4553967" lon="16.0328933"><ele>97.0</ele><time>2026-05-03T06:03:24.484Z</time></trkpt><trkpt lat="38.4554583" lon="16.0326967"><ele>97.0</ele><time>2026-05-03T06:03:25.484Z</time></trkpt><trkpt lat="38.45552" lon="16.032505"><ele>97.0</ele><time>2026-05-03T06:03:26.484Z</time></trkpt><trkpt lat="38.455585" lon="16.032315"><ele>97.0</ele><time>2026-05-03T06:03:27.483Z</time></trkpt><trkpt lat="38.4556483" lon="16.0321317"><ele>96.75</ele><time>2026-05-03T06:03:28.483Z</time></trkpt><trkpt lat="38.4557083" lon="16.0319617"><ele>96.5</ele><time>2026-05-03T06:03:29.485Z</time></trkpt><trkpt lat="38.4557667" lon="16.031795"><ele>96.25</ele><time>2026-05-03T06:03:30.483Z</time></trkpt><trkpt lat="38.4558283" lon="16.0316317"><ele>96.0</ele><time>2026-05-03T06:03:31.484Z</time></trkpt><trkpt lat="38.4559067" lon="16.0314883"><ele>93.75</ele><time>2026-05-03T06:03:32.483Z</time></trkpt><trkpt lat="38.4559967" lon="16.0313633"><ele>91.5</ele><time>2026-05-03T06:03:33.483Z</time></trkpt><trkpt lat="38.456085" lon="16.03125"><ele>89.25</ele><time>2026-05-03T06:03:34.482Z</time></trkpt><trkpt lat="38.4561533" lon="16.0311417"><ele>87.0</ele><time>2026-05-03T06:03:35.484Z</time></trkpt><trkpt lat="38.456195" lon="16.0310333"><ele>87.0</ele><time>2026-05-03T06:03:36.483Z</time></trkpt><trkpt lat="38.4562117" lon="16.0309333"><ele>87.0</ele><time>2026-05-03T06:03:37.483Z</time></trkpt><trkpt lat="38.4561967" lon="16.03084"><ele>87.0</ele><time>2026-05-03T06:03:38.484Z</time></trkpt><trkpt lat="38.45615" lon="16.0307633"><ele>87.0</ele><time>2026-05-03T06:03:39.483Z</time></trkpt><trkpt lat="38.456075" lon="16.03073"><ele>87.0</ele><time>2026-05-03T06:03:40.483Z</time></trkpt><trkpt lat="38.4559817" lon="16.0307517"><ele>87.0</ele><time>2026-05-03T06:03:41.484Z</time></trkpt><trkpt lat="38.4558733" lon="16.030835"><ele>87.0</ele><time>2026-05-03T06:03:42.483Z</time></trkpt><trkpt lat="38.4557283" lon="16.0309683"><ele>87.0</ele><time>2026-05-03T06:03:43.484Z</time></trkpt><trkpt lat="38.4555667" lon="16.0310867"><ele>87.0</ele><time>2026-05-03T06:03:44.484Z</time></trkpt><trkpt lat="38.4553983" lon="16.0311933"><ele>84.33333333333333</ele><time>2026-05-03T06:03:45.483Z</time></trkpt><trkpt lat="38.4552283" lon="16.0312833"><ele>81.66666666666666</ele><time>2026-05-03T06:03:46.484Z</time></trkpt><trkpt lat="38.455065" lon="16.0313567"><ele>79.0</ele><time>2026-05-03T06:03:47.483Z</time></trkpt><trkpt lat="38.4549117" lon="16.0314133"><ele>79.0</ele><time>2026-05-03T06:03:48.483Z</time></trkpt><trkpt lat="38.4547783" lon="16.03145"><ele>79.0</ele><time>2026-05-03T06:03:49.483Z</time></trkpt><trkpt lat="38.454655" lon="16.03145"><ele>79.0</ele><time>2026-05-03T06:03:50.483Z</time></trkpt><trkpt lat="38.4545517" lon="16.031415"><ele>79.0</ele><time>2026-05-03T06:03:51.483Z</time></trkpt><trkpt lat="38.4544717" lon="16.0313483"><ele>78.25</ele><time>2026-05-03T06:03:52.483Z</time></trkpt><trkpt lat="38.4544133" lon="16.031245"><ele>77.5</ele><time>2026-05-03T06:03:53.488Z</time></trkpt><trkpt lat="38.4543717" lon="16.0311033"><ele>76.75</ele><time>2026-05-03T06:03:54.483Z</time></trkpt><trkpt lat="38.454345" lon="16.0309333"><ele>76.0</ele><time>2026-05-03T06:03:55.49Z</time></trkpt><trkpt lat="38.454315" lon="16.030745"><ele>75.0</ele><time>2026-05-03T06:03:56.483Z</time></trkpt><trkpt lat="38.4542767" lon="16.0305483"><ele>74.0</ele><time>2026-05-03T06:03:57.482Z</time></trkpt><trkpt lat="38.4542233" lon="16.0303583"><ele>73.0</ele><time>2026-05-03T06:03:58.483Z</time></trkpt><trkpt lat="38.4541383" lon="16.03019"><ele>73.0</ele><time>2026-05-03T06:03:59.482Z</time></trkpt><trkpt lat="38.45402" lon="16.0300317"><ele>73.0</ele><time>2026-05-03T06:04:00.481Z</time></trkpt><trkpt lat="38.4538783" lon="16.0298817"><ele>73.0</ele><time>2026-05-03T06:04:01.484Z</time></trkpt><trkpt lat="38.4537333" lon="16.0297383"><ele>73.75</ele><time>2026-05-03T06:04:02.482Z</time></trkpt><trkpt lat="38.4536017" lon="16.02961"><ele>74.5</ele><time>2026-05-03T06:04:03.483Z</time></trkpt><trkpt lat="38.4534833" lon="16.0294933"><ele>75.25</ele><time>2026-05-03T06:04:04.483Z</time></trkpt><trkpt lat="38.45338" lon="16.0293867"><ele>76.0</ele><time>2026-05-03T06:04:05.484Z</time></trkpt><trkpt lat="38.45329" lon="16.02929"><ele>76.0</ele><time>2026-05-03T06:04:06.483Z</time></trkpt><trkpt lat="38.4532133" lon="16.0291983"><ele>76.0</ele><time>2026-05-03T06:04:07.485Z</time></trkpt><trkpt lat="38.4531483" lon="16.029105"><ele>76.0</ele><time>2026-05-03T06:04:08.483Z</time></trkpt><trkpt lat="38.453095" lon="16.0290067"><ele>76.0</ele><time>2026-05-03T06:04:09.482Z</time></trkpt><trkpt lat="38.4530583" lon="16.0289"><ele>76.0</ele><time>2026-05-03T06:04:10.484Z</time></trkpt><trkpt lat="38.4530317" lon="16.0287733"><ele>76.0</ele><time>2026-05-03T06:04:11.484Z</time></trkpt><trkpt lat="38.4530167" lon="16.0286283"><ele>76.0</ele><time>2026-05-03T06:04:12.483Z</time></trkpt><trkpt lat="38.453025" lon="16.0284733"><ele>76.0</ele><time>2026-05-03T06:04:13.484Z</time></trkpt><trkpt lat="38.453065" lon="16.0283183"><ele>76.0</ele><time>2026-05-03T06:04:14.483Z</time></trkpt><trkpt lat="38.4531367" lon="16.0281717"><ele>75.66666666666666</ele><time>2026-05-03T06:04:15.484Z</time></trkpt><trkpt lat="38.453235" lon="16.0280233"><ele>75.33333333333333</ele><time>2026-05-03T06:04:16.482Z</time></trkpt><trkpt lat="38.4533433" lon="16.0278667"><ele>75.0</ele><time>2026-05-03T06:04:17.484Z</time></trkpt><trkpt lat="38.4534617" lon="16.0276933"><ele>75.0</ele><time>2026-05-03T06:04:18.483Z</time></trkpt><trkpt lat="38.4535883" lon="16.0275017"><ele>75.0</ele><time>2026-05-03T06:04:19.484Z</time></trkpt><trkpt lat="38.45372" lon="16.0272967"><ele>75.0</ele><time>2026-05-03T06:04:20.482Z</time></trkpt><trkpt lat="38.4538667" lon="16.0270833"><ele>75.0</ele><time>2026-05-03T06:04:21.482Z</time></trkpt><trkpt lat="38.454025" lon="16.0268583"><ele>75.0</ele><time>2026-05-03T06:04:22.483Z</time></trkpt><trkpt lat="38.454195" lon="16.026615"><ele>74.5</ele><time>2026-05-03T06:04:23.485Z</time></trkpt><trkpt lat="38.4543733" lon="16.02636"><ele>74.0</ele><time>2026-05-03T06:04:24.483Z</time></trkpt><trkpt lat="38.454555" lon="16.0261017"><ele>73.0</ele><time>2026-05-03T06:04:25.484Z</time></trkpt><trkpt lat="38.4547383" lon="16.0258383"><ele>72.0</ele><time>2026-05-03T06:04:26.483Z</time></trkpt><trkpt lat="38.4549233" lon="16.0255683"><ele>71.0</ele><time>2026-05-03T06:04:27.483Z</time></trkpt><trkpt lat="38.4551167" lon="16.0252967"><ele>70.0</ele><time>2026-05-03T06:04:28.483Z</time></trkpt><trkpt lat="38.455315" lon="16.0250217"><ele>69.5</ele><time>2026-05-03T06:04:29.484Z</time></trkpt><trkpt lat="38.45552" lon="16.0247417"><ele>69.0</ele><time>2026-05-03T06:04:30.483Z</time></trkpt><trkpt lat="38.4557283" lon="16.0244583"><ele>69.0</ele><time>2026-05-03T06:04:31.484Z</time></trkpt><trkpt lat="38.4559383" lon="16.0241717"><ele>69.0</ele><time>2026-05-03T06:04:32.482Z</time></trkpt><trkpt lat="38.4561533" lon="16.0238767"><ele>68.5</ele><time>2026-05-03T06:04:33.487Z</time></trkpt><trkpt lat="38.45637" lon="16.0235733"><ele>68.0</ele><time>2026-05-03T06:04:34.483Z</time></trkpt><trkpt lat="38.45659" lon="16.0232617"><ele>68.0</ele><time>2026-05-03T06:04:35.483Z</time></trkpt><trkpt lat="38.4568067" lon="16.0229517"><ele>68.0</ele><time>2026-05-03T06:04:36.483Z</time></trkpt><trkpt lat="38.45702" lon="16.0226483"><ele>67.0</ele><time>2026-05-03T06:04:37.486Z</time></trkpt><trkpt lat="38.457235" lon="16.0223467"><ele>66.0</ele><time>2026-05-03T06:04:38.483Z</time></trkpt><trkpt lat="38.4574467" lon="16.022045"><ele>66.0</ele><time>2026-05-03T06:04:39.481Z</time></trkpt><trkpt lat="38.4576533" lon="16.021745"><ele>66.0</ele><time>2026-05-03T06:04:40.481Z</time></trkpt><trkpt lat="38.4578583" lon="16.0214483"><ele>65.0</ele><time>2026-05-03T06:04:41.485Z</time></trkpt><trkpt lat="38.4580617" lon="16.0211533"><ele>64.0</ele><time>2026-05-03T06:04:42.482Z</time></trkpt><trkpt lat="38.4582683" lon="16.02086"><ele>63.0</ele><time>2026-05-03T06:04:43.484Z</time></trkpt><trkpt lat="38.4584767" lon="16.020575"><ele>62.0</ele><time>2026-05-03T06:04:44.484Z</time></trkpt><trkpt lat="38.4586867" lon="16.020295"><ele>62.0</ele><time>2026-05-03T06:04:45.482Z</time></trkpt><trkpt lat="38.458895" lon="16.0200133"><ele>62.0</ele><time>2026-05-03T06:04:46.485Z</time></trkpt><trkpt lat="38.4591017" lon="16.0197333"><ele>62.0</ele><time>2026-05-03T06:04:47.485Z</time></trkpt><trkpt lat="38.45931" lon="16.01945"><ele>62.0</ele><time>2026-05-03T06:04:48.481Z</time></trkpt><trkpt lat="38.4595167" lon="16.0191683"><ele>61.5</ele><time>2026-05-03T06:04:49.483Z</time></trkpt><trkpt lat="38.4597233" lon="16.0188833"><ele>61.0</ele><time>2026-05-03T06:04:50.483Z</time></trkpt><trkpt lat="38.4599317" lon="16.0185983"><ele>61.0</ele><time>2026-05-03T06:04:51.483Z</time></trkpt><trkpt lat="38.46014" lon="16.018315"><ele>61.0</ele><time>2026-05-03T06:04:52.482Z</time></trkpt><trkpt lat="38.4603467" lon="16.0180283"><ele>61.0</ele><time>2026-05-03T06:04:53.483Z</time></trkpt><trkpt lat="38.460555" lon="16.0177417"><ele>61.0</ele><time>2026-05-03T06:04:54.483Z</time></trkpt><trkpt lat="38.4607633" lon="16.0174533"><ele>61.0</ele><time>2026-05-03T06:04:55.484Z</time></trkpt><trkpt lat="38.4609733" lon="16.0171667"><ele>61.0</ele><time>2026-05-03T06:04:56.482Z</time></trkpt><trkpt lat="38.461185" lon="16.0168833"><ele>66.5</ele><time>2026-05-03T06:04:57.483Z</time></trkpt><trkpt lat="38.4614" lon="16.0166"><ele>72.0</ele><time>2026-05-03T06:04:58.482Z</time></trkpt><trkpt lat="38.4616183" lon="16.0163217"><ele>72.0</ele><time>2026-05-03T06:04:59.483Z</time></trkpt><trkpt lat="38.46184" lon="16.016045"><ele>72.0</ele><time>2026-05-03T06:05:00.483Z</time></trkpt><trkpt lat="38.4620633" lon="16.0157717"><ele>76.0</ele><time>2026-05-03T06:05:01.483Z</time></trkpt><trkpt lat="38.4622817" lon="16.0155033"><ele>80.0</ele><time>2026-05-03T06:05:02.482Z</time></trkpt><trkpt lat="38.4624917" lon="16.0152467"><ele>80.0</ele><time>2026-05-03T06:05:03.482Z</time></trkpt><trkpt lat="38.4626933" lon="16.0149983"><ele>80.0</ele><time>2026-05-03T06:05:04.482Z</time></trkpt><trkpt lat="38.46289" lon="16.014755"><ele>74.5</ele><time>2026-05-03T06:05:05.484Z</time></trkpt><trkpt lat="38.4630833" lon="16.014515"><ele>69.0</ele><time>2026-05-03T06:05:06.484Z</time></trkpt><trkpt lat="38.4632733" lon="16.0142783"><ele>71.0</ele><time>2026-05-03T06:05:07.483Z</time></trkpt><trkpt lat="38.4634617" lon="16.014045"><ele>73.0</ele><time>2026-05-03T06:05:08.483Z</time></trkpt><trkpt lat="38.4636483" lon="16.0138117"><ele>64.0</ele><time>2026-05-03T06:05:09.483Z</time></trkpt><trkpt lat="38.4638367" lon="16.0135783"><ele>55.0</ele><time>2026-05-03T06:05:10.483Z</time></trkpt><trkpt lat="38.4640233" lon="16.0133433"><ele>56.5</ele><time>2026-05-03T06:05:11.484Z</time></trkpt><trkpt lat="38.4642083" lon="16.013105"><ele>58.0</ele><time>2026-05-03T06:05:12.482Z</time></trkpt><trkpt lat="38.4643867" lon="16.0128617"><ele>58.0</ele><time>2026-05-03T06:05:13.483Z</time></trkpt><trkpt lat="38.4645583" lon="16.0126267"><ele>58.0</ele><time>2026-05-03T06:05:14.484Z</time></trkpt><trkpt lat="38.4647233" lon="16.0124033"><ele>55.33333333333333</ele><time>2026-05-03T06:05:15.482Z</time></trkpt><trkpt lat="38.4648733" lon="16.012195"><ele>52.66666666666667</ele><time>2026-05-03T06:05:16.484Z</time></trkpt><trkpt lat="38.4650167" lon="16.0120033"><ele>50.0</ele><time>2026-05-03T06:05:17.484Z</time></trkpt><trkpt lat="38.465155" lon="16.01182"><ele>50.0</ele><time>2026-05-03T06:05:18.485Z</time></trkpt><trkpt lat="38.4652867" lon="16.0116433"><ele>50.0</ele><time>2026-05-03T06:05:19.484Z</time></trkpt><trkpt lat="38.465415" lon="16.01147"><ele>50.0</ele><time>2026-05-03T06:05:20.483Z</time></trkpt><trkpt lat="38.4655417" lon="16.011295"><ele>50.0</ele><time>2026-05-03T06:05:21.483Z</time></trkpt><trkpt lat="38.4656617" lon="16.0111317"><ele>50.0</ele><time>2026-05-03T06:05:22.487Z</time></trkpt><trkpt lat="38.4657717" lon="16.0109833"><ele>50.0</ele><time>2026-05-03T06:05:23.485Z</time></trkpt><trkpt lat="38.4658667" lon="16.010855"><ele>50.25</ele><time>2026-05-03T06:05:24.485Z</time></trkpt><trkpt lat="38.4659533" lon="16.0107383"><ele>50.5</ele><time>2026-05-03T06:05:25.483Z</time></trkpt><trkpt lat="38.4660367" lon="16.0106367"><ele>50.75</ele><time>2026-05-03T06:05:26.484Z</time></trkpt><trkpt lat="38.4661283" lon="16.01056"><ele>51.0</ele><time>2026-05-03T06:05:27.482Z</time></trkpt><trkpt lat="38.4662217" lon="16.010515"><ele>50.5</ele><time>2026-05-03T06:05:28.483Z</time></trkpt><trkpt lat="38.4663133" lon="16.0104933"><ele>50.0</ele><time>2026-05-03T06:05:29.485Z</time></trkpt><trkpt lat="38.4664033" lon="16.0104717"><ele>49.5</ele><time>2026-05-03T06:05:30.483Z</time></trkpt><trkpt lat="38.4664833" lon="16.0104267"><ele>49.0</ele><time>2026-05-03T06:05:31.484Z</time></trkpt><trkpt lat="38.4665517" lon="16.0103583"><ele>48.5</ele><time>2026-05-03T06:05:32.483Z</time></trkpt><trkpt lat="38.4666017" lon="16.0102667"><ele>48.0</ele><time>2026-05-03T06:05:33.483Z</time></trkpt><trkpt lat="38.466625" lon="16.0101583"><ele>48.0</ele><time>2026-05-03T06:05:34.483Z</time></trkpt><trkpt lat="38.466635" lon="16.0100433"><ele>48.0</ele><time>2026-05-03T06:05:35.487Z</time></trkpt><trkpt lat="38.466645" lon="16.0099317"><ele>48.0</ele><time>2026-05-03T06:05:36.484Z</time></trkpt><trkpt lat="38.4666717" lon="16.00982"><ele>48.0</ele><time>2026-05-03T06:05:37.484Z</time></trkpt><trkpt lat="38.466725" lon="16.0096983"><ele>48.0</ele><time>2026-05-03T06:05:38.487Z</time></trkpt><trkpt lat="38.4668067" lon="16.0095633"><ele>48.33333333333333</ele><time>2026-05-03T06:05:39.484Z</time></trkpt><trkpt lat="38.4669183" lon="16.009405"><ele>48.666666666666664</ele><time>2026-05-03T06:05:40.484Z</time></trkpt><trkpt lat="38.4670533" lon="16.0092167"><ele>49.0</ele><time>2026-05-03T06:05:41.485Z</time></trkpt><trkpt lat="38.467205" lon="16.0090017"><ele>47.0</ele><time>2026-05-03T06:05:42.483Z</time></trkpt><trkpt lat="38.4673733" lon="16.0087667"><ele>45.0</ele><time>2026-05-03T06:05:43.485Z</time></trkpt><trkpt lat="38.4675617" lon="16.0085183"><ele>45.5</ele><time>2026-05-03T06:05:44.487Z</time></trkpt><trkpt lat="38.4677683" lon="16.0082583"><ele>46.0</ele><time>2026-05-03T06:05:45.482Z</time></trkpt><trkpt lat="38.4679783" lon="16.007985"><ele>46.0</ele><time>2026-05-03T06:05:46.483Z</time></trkpt><trkpt lat="38.46819" lon="16.007705"><ele>46.0</ele><time>2026-05-03T06:05:47.485Z</time></trkpt><trkpt lat="38.4684017" lon="16.0074183"><ele>46.5</ele><time>2026-05-03T06:05:48.483Z</time></trkpt><trkpt lat="38.468615" lon="16.0071267"><ele>47.0</ele><time>2026-05-03T06:05:49.485Z</time></trkpt><trkpt lat="38.4688367" lon="16.00683"><ele>45.0</ele><time>2026-05-03T06:05:50.485Z</time></trkpt><trkpt lat="38.4690567" lon="16.00653"><ele>43.0</ele><time>2026-05-03T06:05:51.484Z</time></trkpt><trkpt lat="38.4692767" lon="16.0062317"><ele>43.0</ele><time>2026-05-03T06:05:52.484Z</time></trkpt><trkpt lat="38.469495" lon="16.00594"><ele>43.0</ele><time>2026-05-03T06:05:53.485Z</time></trkpt><trkpt lat="38.46971" lon="16.0056517"><ele>42.5</ele><time>2026-05-03T06:05:54.483Z</time></trkpt><trkpt lat="38.4699217" lon="16.0053667"><ele>42.0</ele><time>2026-05-03T06:05:55.485Z</time></trkpt><trkpt lat="38.4701283" lon="16.0050867"><ele>42.0</ele><time>2026-05-03T06:05:56.482Z</time></trkpt><trkpt lat="38.470335" lon="16.00481"><ele>42.0</ele><time>2026-05-03T06:05:57.483Z</time></trkpt><trkpt lat="38.4705383" lon="16.0045367"><ele>41.5</ele><time>2026-05-03T06:05:58.485Z</time></trkpt><trkpt lat="38.470745" lon="16.0042633"><ele>41.0</ele><time>2026-05-03T06:05:59.49Z</time></trkpt><trkpt lat="38.4709483" lon="16.0039933"><ele>40.5</ele><time>2026-05-03T06:06:00.484Z</time></trkpt><trkpt lat="38.4711467" lon="16.00373"><ele>40.0</ele><time>2026-05-03T06:06:01.484Z</time></trkpt><trkpt lat="38.471335" lon="16.00348"><ele>40.0</ele><time>2026-05-03T06:06:02.484Z</time></trkpt><trkpt lat="38.4715167" lon="16.0032333"><ele>40.0</ele><time>2026-05-03T06:06:03.484Z</time></trkpt><trkpt lat="38.4716983" lon="16.0029817"><ele>40.0</ele><time>2026-05-03T06:06:04.483Z</time></trkpt><trkpt lat="38.47188" lon="16.0027233"><ele>40.0</ele><time>2026-05-03T06:06:05.483Z</time></trkpt><trkpt lat="38.4720617" lon="16.0024633"><ele>40.5</ele><time>2026-05-03T06:06:06.483Z</time></trkpt><trkpt lat="38.4722467" lon="16.0022"><ele>41.0</ele><time>2026-05-03T06:06:07.483Z</time></trkpt><trkpt lat="38.4724317" lon="16.001935"><ele>41.0</ele><time>2026-05-03T06:06:08.484Z</time></trkpt><trkpt lat="38.4726167" lon="16.00167"><ele>41.0</ele><time>2026-05-03T06:06:09.483Z</time></trkpt><trkpt lat="38.4727967" lon="16.0014017"><ele>39.5</ele><time>2026-05-03T06:06:10.483Z</time></trkpt><trkpt lat="38.472975" lon="16.0011283"><ele>38.0</ele><time>2026-05-03T06:06:11.485Z</time></trkpt><trkpt lat="38.4731583" lon="16.00085"><ele>38.0</ele><time>2026-05-03T06:06:12.483Z</time></trkpt><trkpt lat="38.4733417" lon="16.0005733"><ele>38.0</ele><time>2026-05-03T06:06:13.483Z</time></trkpt><trkpt lat="38.4735267" lon="16.0003067"><ele>38.0</ele><time>2026-05-03T06:06:14.483Z</time></trkpt><trkpt lat="38.4737033" lon="16.0000533"><ele>38.0</ele><time>2026-05-03T06:06:15.482Z</time></trkpt><trkpt lat="38.4738733" lon="15.9998117"><ele>36.5</ele><time>2026-05-03T06:06:16.483Z</time></trkpt><trkpt lat="38.4740383" lon="15.9995717"><ele>35.0</ele><time>2026-05-03T06:06:17.486Z</time></trkpt><trkpt lat="38.4742033" lon="15.9993283"><ele>35.5</ele><time>2026-05-03T06:06:18.482Z</time></trkpt><trkpt lat="38.4743683" lon="15.9990833"><ele>36.0</ele><time>2026-05-03T06:06:19.483Z</time></trkpt><trkpt lat="38.4745317" lon="15.9988367"><ele>35.5</ele><time>2026-05-03T06:06:20.482Z</time></trkpt><trkpt lat="38.47469" lon="15.9986"><ele>35.0</ele><time>2026-05-03T06:06:21.483Z</time></trkpt><trkpt lat="38.47484" lon="15.998385"><ele>35.33333333333333</ele><time>2026-05-03T06:06:22.484Z</time></trkpt><trkpt lat="38.47498" lon="15.9981883"><ele>35.666666666666664</ele><time>2026-05-03T06:06:23.483Z</time></trkpt><trkpt lat="38.475105" lon="15.99801"><ele>36.0</ele><time>2026-05-03T06:06:24.484Z</time></trkpt><trkpt lat="38.4752183" lon="15.9978483"><ele>36.0</ele><time>2026-05-03T06:06:25.484Z</time></trkpt><trkpt lat="38.47532" lon="15.9977067"><ele>36.0</ele><time>2026-05-03T06:06:26.484Z</time></trkpt><trkpt lat="38.4754167" lon="15.997585"><ele>36.0</ele><time>2026-05-03T06:06:27.484Z</time></trkpt><trkpt lat="38.4755117" lon="15.997495"><ele>36.0</ele><time>2026-05-03T06:06:28.481Z</time></trkpt><trkpt lat="38.4756067" lon="15.9974417"><ele>36.0</ele><time>2026-05-03T06:06:29.483Z</time></trkpt><trkpt lat="38.47571" lon="15.9974267"><ele>36.0</ele><time>2026-05-03T06:06:30.482Z</time></trkpt><trkpt lat="38.4758117" lon="15.9974517"><ele>36.0</ele><time>2026-05-03T06:06:31.485Z</time></trkpt><trkpt lat="38.4759117" lon="15.9975117"><ele>36.0</ele><time>2026-05-03T06:06:32.482Z</time></trkpt><trkpt lat="38.4760117" lon="15.9976033"><ele>36.0</ele><time>2026-05-03T06:06:33.482Z</time></trkpt><trkpt lat="38.4761117" lon="15.9977033"><ele>35.75</ele><time>2026-05-03T06:06:34.483Z</time></trkpt><trkpt lat="38.47621" lon="15.99781"><ele>35.5</ele><time>2026-05-03T06:06:35.483Z</time></trkpt><trkpt lat="38.4763083" lon="15.9978983"><ele>35.25</ele><time>2026-05-03T06:06:36.482Z</time></trkpt><trkpt lat="38.47641" lon="15.99797"><ele>35.0</ele><time>2026-05-03T06:06:37.485Z</time></trkpt><trkpt lat="38.4765167" lon="15.998015"><ele>35.0</ele><time>2026-05-03T06:06:38.483Z</time></trkpt><trkpt lat="38.4766283" lon="15.99803"><ele>35.0</ele><time>2026-05-03T06:06:39.483Z</time></trkpt><trkpt lat="38.476745" lon="15.9980017"><ele>35.0</ele><time>2026-05-03T06:06:40.483Z</time></trkpt><trkpt lat="38.4768583" lon="15.997925"><ele>35.0</ele><time>2026-05-03T06:06:41.484Z</time></trkpt><trkpt lat="38.4769617" lon="15.9978167"><ele>35.0</ele><time>2026-05-03T06:06:42.483Z</time></trkpt><trkpt lat="38.4770533" lon="15.9977033"><ele>35.0</ele><time>2026-05-03T06:06:43.485Z</time></trkpt><trkpt lat="38.4771367" lon="15.9975983"><ele>35.0</ele><time>2026-05-03T06:06:44.484Z</time></trkpt><trkpt lat="38.4772183" lon="15.99751"><ele>35.0</ele><time>2026-05-03T06:06:45.483Z</time></trkpt><trkpt lat="38.4773033" lon="15.9974467"><ele>34.8</ele><time>2026-05-03T06:06:46.484Z</time></trkpt><trkpt lat="38.4773967" lon="15.9974117"><ele>34.6</ele><time>2026-05-03T06:06:47.484Z</time></trkpt><trkpt lat="38.4774983" lon="15.9974083"><ele>34.4</ele><time>2026-05-03T06:06:48.483Z</time></trkpt><trkpt lat="38.4776017" lon="15.9974467"><ele>34.2</ele><time>2026-05-03T06:06:49.484Z</time></trkpt><trkpt lat="38.4777033" lon="15.9975183"><ele>34.0</ele><time>2026-05-03T06:06:50.484Z</time></trkpt><trkpt lat="38.4778067" lon="15.9976067"><ele>33.66666666666667</ele><time>2026-05-03T06:06:51.482Z</time></trkpt><trkpt lat="38.47792" lon="15.9977067"><ele>33.333333333333336</ele><time>2026-05-03T06:06:52.483Z</time></trkpt><trkpt lat="38.4780483" lon="15.9978167"><ele>33.0</ele><time>2026-05-03T06:06:53.484Z</time></trkpt><trkpt lat="38.478195" lon="15.9979383"><ele>33.0</ele><time>2026-05-03T06:06:54.482Z</time></trkpt><trkpt lat="38.4783567" lon="15.9980733"><ele>33.0</ele><time>2026-05-03T06:06:55.483Z</time></trkpt><trkpt lat="38.4785283" lon="15.9982317"><ele>33.0</ele><time>2026-05-03T06:06:56.484Z</time></trkpt><trkpt lat="38.4787067" lon="15.9984067"><ele>33.666666666666664</ele><time>2026-05-03T06:06:57.482Z</time></trkpt><trkpt lat="38.4788817" lon="15.998575"><ele>34.33333333333333</ele><time>2026-05-03T06:06:58.483Z</time></trkpt><trkpt lat="38.479045" lon="15.9987333"><ele>35.0</ele><time>2026-05-03T06:06:59.485Z</time></trkpt><trkpt lat="38.4792" lon="15.99889"><ele>35.0</ele><time>2026-05-03T06:07:00.484Z</time></trkpt><trkpt lat="38.4793433" lon="15.999055"><ele>35.0</ele><time>2026-05-03T06:07:01.484Z</time></trkpt><trkpt lat="38.47947" lon="15.9992367"><ele>35.0</ele><time>2026-05-03T06:07:02.484Z</time></trkpt><trkpt lat="38.479575" lon="15.9994333"><ele>35.33333333333333</ele><time>2026-05-03T06:07:03.482Z</time></trkpt><trkpt lat="38.47965" lon="15.9996417"><ele>35.666666666666664</ele><time>2026-05-03T06:07:04.483Z</time></trkpt><trkpt lat="38.4796917" lon="15.9998567"><ele>36.0</ele><time>2026-05-03T06:07:05.483Z</time></trkpt><trkpt lat="38.4796967" lon="16.0000767"><ele>36.0</ele><time>2026-05-03T06:07:06.485Z</time></trkpt><trkpt lat="38.4796683" lon="16.0003033"><ele>36.0</ele><time>2026-05-03T06:07:07.484Z</time></trkpt><trkpt lat="38.4796183" lon="16.0005417"><ele>36.0</ele><time>2026-05-03T06:07:08.484Z</time></trkpt><trkpt lat="38.479565" lon="16.0008"><ele>36.0</ele><time>2026-05-03T06:07:09.483Z</time></trkpt><trkpt lat="38.4795033" lon="16.0010667"><ele>36.0</ele><time>2026-05-03T06:07:10.486Z</time></trkpt><trkpt lat="38.4794433" lon="16.0013317"><ele>36.0</ele><time>2026-05-03T06:07:11.484Z</time></trkpt><trkpt lat="38.4793817" lon="16.00158"><ele>35.0</ele><time>2026-05-03T06:07:12.484Z</time></trkpt><trkpt lat="38.4793183" lon="16.001805"><ele>34.0</ele><time>2026-05-03T06:07:13.484Z</time></trkpt><trkpt lat="38.4792367" lon="16.001995"><ele>33.0</ele><time>2026-05-03T06:07:14.484Z</time></trkpt><trkpt lat="38.47913" lon="16.0021433"><ele>33.0</ele><time>2026-05-03T06:07:15.482Z</time></trkpt><trkpt lat="38.4790033" lon="16.00225"><ele>33.0</ele><time>2026-05-03T06:07:16.483Z</time></trkpt><trkpt lat="38.4788583" lon="16.0023067"><ele>33.0</ele><time>2026-05-03T06:07:17.483Z</time></trkpt><trkpt lat="38.4787017" lon="16.0023167"><ele>33.666666666666664</ele><time>2026-05-03T06:07:18.484Z</time></trkpt><trkpt lat="38.478545" lon="16.002275"><ele>34.33333333333333</ele><time>2026-05-03T06:07:19.482Z</time></trkpt><trkpt lat="38.4784033" lon="16.002175"><ele>35.0</ele><time>2026-05-03T06:07:20.483Z</time></trkpt><trkpt lat="38.478295" lon="16.0020283"><ele>35.0</ele><time>2026-05-03T06:07:21.483Z</time></trkpt><trkpt lat="38.47822" lon="16.001855"><ele>35.0</ele><time>2026-05-03T06:07:22.483Z</time></trkpt><trkpt lat="38.4781767" lon="16.0016667"><ele>35.0</ele><time>2026-05-03T06:07:23.485Z</time></trkpt><trkpt lat="38.478175" lon="16.0014717"><ele>35.33333333333333</ele><time>2026-05-03T06:07:24.483Z</time></trkpt><trkpt lat="38.4782183" lon="16.00129"><ele>35.666666666666664</ele><time>2026-05-03T06:07:25.485Z</time></trkpt><trkpt lat="38.4783" lon="16.001125"><ele>36.0</ele><time>2026-05-03T06:07:26.484Z</time></trkpt><trkpt lat="38.47841" lon="16.000985"><ele>36.0</ele><time>2026-05-03T06:07:27.482Z</time></trkpt><trkpt lat="38.4785383" lon="16.0008733"><ele>36.0</ele><time>2026-05-03T06:07:28.485Z</time></trkpt><trkpt lat="38.4786967" lon="16.0008117"><ele>36.0</ele><time>2026-05-03T06:07:29.482Z</time></trkpt><trkpt lat="38.4788667" lon="16.0007983"><ele>36.0</ele><time>2026-05-03T06:07:30.482Z</time></trkpt><trkpt lat="38.4790467" lon="16.0008283"><ele>36.0</ele><time>2026-05-03T06:07:31.482Z</time></trkpt><trkpt lat="38.47924" lon="16.0008933"><ele>36.0</ele><time>2026-05-03T06:07:32.484Z</time></trkpt><trkpt lat="38.4794567" lon="16.0009667"><ele>37.0</ele><time>2026-05-03T06:07:33.482Z</time></trkpt><trkpt lat="38.4796867" lon="16.001045"><ele>38.0</ele><time>2026-05-03T06:07:34.483Z</time></trkpt><trkpt lat="38.4799317" lon="16.0011283"><ele>38.0</ele><time>2026-05-03T06:07:35.482Z</time></trkpt><trkpt lat="38.4801883" lon="16.001215"><ele>38.0</ele><time>2026-05-03T06:07:36.484Z</time></trkpt><trkpt lat="38.4804617" lon="16.0012983"><ele>42.0</ele><time>2026-05-03T06:07:37.484Z</time></trkpt><trkpt lat="38.4807433" lon="16.0013833"><ele>46.0</ele><time>2026-05-03T06:07:38.485Z</time></trkpt><trkpt lat="38.4810317" lon="16.001465"><ele>49.5</ele><time>2026-05-03T06:07:39.483Z</time></trkpt><trkpt lat="38.4813267" lon="16.00155"><ele>53.0</ele><time>2026-05-03T06:07:40.487Z</time></trkpt><trkpt lat="38.481625" lon="16.0016383"><ele>52.0</ele><time>2026-05-03T06:07:41.483Z</time></trkpt><trkpt lat="38.4819283" lon="16.0017333"><ele>51.0</ele><time>2026-05-03T06:07:42.484Z</time></trkpt><trkpt lat="38.48223" lon="16.0018367"><ele>51.0</ele><time>2026-05-03T06:07:43.483Z</time></trkpt><trkpt lat="38.48253" lon="16.0019383"><ele>51.0</ele><time>2026-05-03T06:07:44.483Z</time></trkpt><trkpt lat="38.4828183" lon="16.0020433"><ele>50.0</ele><time>2026-05-03T06:07:45.483Z</time></trkpt><trkpt lat="38.4831183" lon="16.0021567"><ele>49.0</ele><time>2026-05-03T06:07:46.484Z</time></trkpt><trkpt lat="38.4834167" lon="16.0022733"><ele>49.0</ele><time>2026-05-03T06:07:47.483Z</time></trkpt><trkpt lat="38.4837133" lon="16.0023967"><ele>49.0</ele><time>2026-05-03T06:07:48.484Z</time></trkpt><trkpt lat="38.4840417" lon="16.0026167"><ele>43.0</ele><time>2026-05-03T06:07:49.482Z</time></trkpt><trkpt lat="38.4844217" lon="16.0029733"><ele>38.5</ele><time>2026-05-03T06:07:50.483Z</time></trkpt><trkpt lat="38.4847733" lon="16.003275"><ele>34.0</ele><time>2026-05-03T06:07:51.482Z</time></trkpt><trkpt lat="38.4851083" lon="16.0035867"><ele>32.5</ele><time>2026-05-03T06:07:52.483Z</time></trkpt><trkpt lat="38.4854317" lon="16.0039083"><ele>31.0</ele><time>2026-05-03T06:07:53.483Z</time></trkpt><trkpt lat="38.48574" lon="16.0042433"><ele>31.0</ele><time>2026-05-03T06:07:54.483Z</time></trkpt><trkpt lat="38.48603" lon="16.004585"><ele>31.0</ele><time>2026-05-03T06:07:55.482Z</time></trkpt><trkpt lat="38.4862983" lon="16.004925"><ele>31.0</ele><time>2026-05-03T06:07:56.483Z</time></trkpt><trkpt lat="38.48654" lon="16.0052567"><ele>31.0</ele><time>2026-05-03T06:07:57.481Z</time></trkpt><trkpt lat="38.4867683" lon="16.00558"><ele>31.0</ele><time>2026-05-03T06:07:58.482Z</time></trkpt><trkpt lat="38.4869833" lon="16.0058983"><ele>31.0</ele><time>2026-05-03T06:07:59.482Z</time></trkpt><trkpt lat="38.487195" lon="16.0062133"><ele>31.0</ele><time>2026-05-03T06:08:00.482Z</time></trkpt><trkpt lat="38.487405" lon="16.0065283"><ele>31.0</ele><time>2026-05-03T06:08:01.481Z</time></trkpt><trkpt lat="38.4876233" lon="16.0068433"><ele>30.5</ele><time>2026-05-03T06:08:02.483Z</time></trkpt><trkpt lat="38.4878517" lon="16.0071567"><ele>30.0</ele><time>2026-05-03T06:08:03.483Z</time></trkpt><trkpt lat="38.4880933" lon="16.0074667"><ele>29.5</ele><time>2026-05-03T06:08:04.483Z</time></trkpt><trkpt lat="38.4883433" lon="16.0077733"><ele>29.0</ele><time>2026-05-03T06:08:05.484Z</time></trkpt><trkpt lat="38.488605" lon="16.0080717"><ele>30.5</ele><time>2026-05-03T06:08:06.482Z</time></trkpt><trkpt lat="38.4888767" lon="16.00836"><ele>32.0</ele><time>2026-05-03T06:08:07.482Z</time></trkpt><trkpt lat="38.48916" lon="16.0086383"><ele>32.0</ele><time>2026-05-03T06:08:08.483Z</time></trkpt><trkpt lat="38.4894533" lon="16.0089017"><ele>32.0</ele><time>2026-05-03T06:08:09.483Z</time></trkpt><trkpt lat="38.4897567" lon="16.0091517"><ele>33.0</ele><time>2026-05-03T06:08:10.483Z</time></trkpt><trkpt lat="38.49007" lon="16.0093867"><ele>34.0</ele><time>2026-05-03T06:08:11.483Z</time></trkpt><trkpt lat="38.4903917" lon="16.0096067"><ele>33.0</ele><time>2026-05-03T06:08:12.483Z</time></trkpt><trkpt lat="38.4907183" lon="16.0098167"><ele>32.0</ele><time>2026-05-03T06:08:13.484Z</time></trkpt><trkpt lat="38.4910467" lon="16.01002"><ele>32.0</ele><time>2026-05-03T06:08:14.482Z</time></trkpt><trkpt lat="38.4913733" lon="16.0102183"><ele>32.0</ele><time>2026-05-03T06:08:15.483Z</time></trkpt><trkpt lat="38.4916883" lon="16.01041"><ele>32.0</ele><time>2026-05-03T06:08:16.481Z</time></trkpt><trkpt lat="38.4919967" lon="16.0105983"><ele>32.0</ele><time>2026-05-03T06:08:17.483Z</time></trkpt><trkpt lat="38.4922967" lon="16.010785"><ele>33.0</ele><time>2026-05-03T06:08:18.484Z</time></trkpt><trkpt lat="38.4925933" lon="16.0109717"><ele>34.0</ele><time>2026-05-03T06:08:19.483Z</time></trkpt><trkpt lat="38.4928867" lon="16.0111633"><ele>35.0</ele><time>2026-05-03T06:08:20.483Z</time></trkpt><trkpt lat="38.4931783" lon="16.0113567"><ele>36.0</ele><time>2026-05-03T06:08:21.483Z</time></trkpt><trkpt lat="38.49347" lon="16.01156"><ele>40.0</ele><time>2026-05-03T06:08:22.482Z</time></trkpt><trkpt lat="38.4937633" lon="16.0117717"><ele>44.0</ele><time>2026-05-03T06:08:23.482Z</time></trkpt><trkpt lat="38.4940517" lon="16.0119967"><ele>44.0</ele><time>2026-05-03T06:08:24.482Z</time></trkpt><trkpt lat="38.494335" lon="16.0122383"><ele>44.0</ele><time>2026-05-03T06:08:25.483Z</time></trkpt><trkpt lat="38.49461" lon="16.0124933"><ele>44.5</ele><time>2026-05-03T06:08:26.483Z</time></trkpt><trkpt lat="38.4948783" lon="16.012765"><ele>45.0</ele><time>2026-05-03T06:08:27.481Z</time></trkpt><trkpt lat="38.49514" lon="16.0130567"><ele>43.0</ele><time>2026-05-03T06:08:28.482Z</time></trkpt><trkpt lat="38.4953983" lon="16.0133567"><ele>41.0</ele><time>2026-05-03T06:08:29.482Z</time></trkpt><trkpt lat="38.4956483" lon="16.0136683"><ele>41.0</ele><time>2026-05-03T06:08:30.483Z</time></trkpt><trkpt lat="38.4958917" lon="16.0139917"><ele>41.0</ele><time>2026-05-03T06:08:31.485Z</time></trkpt><trkpt lat="38.496125" lon="16.0143283"><ele>41.5</ele><time>2026-05-03T06:08:32.485Z</time></trkpt><trkpt lat="38.4963467" lon="16.01467"><ele>42.0</ele><time>2026-05-03T06:08:33.481Z</time></trkpt><trkpt lat="38.49656" lon="16.0150133"><ele>42.0</ele><time>2026-05-03T06:08:34.483Z</time></trkpt><trkpt lat="38.4967617" lon="16.015365"><ele>42.0</ele><time>2026-05-03T06:08:35.482Z</time></trkpt><trkpt lat="38.4969567" lon="16.01572"><ele>37.5</ele><time>2026-05-03T06:08:36.483Z</time></trkpt><trkpt lat="38.497145" lon="16.0160783"><ele>33.0</ele><time>2026-05-03T06:08:37.483Z</time></trkpt><trkpt lat="38.4973267" lon="16.01644"><ele>33.5</ele><time>2026-05-03T06:08:38.482Z</time></trkpt><trkpt lat="38.4974983" lon="16.0168"><ele>34.0</ele><time>2026-05-03T06:08:39.482Z</time></trkpt><trkpt lat="38.49766" lon="16.01716"><ele>32.0</ele><time>2026-05-03T06:08:40.481Z</time></trkpt><trkpt lat="38.497815" lon="16.0175233"><ele>30.0</ele><time>2026-05-03T06:08:41.483Z</time></trkpt><trkpt lat="38.4979633" lon="16.0178883"><ele>30.0</ele><time>2026-05-03T06:08:42.482Z</time></trkpt><trkpt lat="38.4981083" lon="16.0182583"><ele>30.0</ele><time>2026-05-03T06:08:43.483Z</time></trkpt><trkpt lat="38.49825" lon="16.01863"><ele>30.5</ele><time>2026-05-03T06:08:44.482Z</time></trkpt><trkpt lat="38.4983867" lon="16.01901"><ele>31.0</ele><time>2026-05-03T06:08:45.483Z</time></trkpt><trkpt lat="38.4985183" lon="16.0193983"><ele>32.5</ele><time>2026-05-03T06:08:46.482Z</time></trkpt><trkpt lat="38.4986433" lon="16.0197933"><ele>34.0</ele><time>2026-05-03T06:08:47.483Z</time></trkpt><trkpt lat="38.4987633" lon="16.0201933"><ele>34.0</ele><time>2026-05-03T06:08:48.483Z</time></trkpt><trkpt lat="38.49888" lon="16.0205983"><ele>34.0</ele><time>2026-05-03T06:08:49.485Z</time></trkpt><trkpt lat="38.49899" lon="16.021005"><ele>34.0</ele><time>2026-05-03T06:08:50.483Z</time></trkpt><trkpt lat="38.499095" lon="16.0214117"><ele>34.0</ele><time>2026-05-03T06:08:51.482Z</time></trkpt><trkpt lat="38.499195" lon="16.021825"><ele>34.0</ele><time>2026-05-03T06:08:52.482Z</time></trkpt><trkpt lat="38.4992883" lon="16.0222383"><ele>34.0</ele><time>2026-05-03T06:08:53.482Z</time></trkpt><trkpt lat="38.499375" lon="16.022655"><ele>34.0</ele><time>2026-05-03T06:08:54.483Z</time></trkpt><trkpt lat="38.4994583" lon="16.023075"><ele>34.0</ele><time>2026-05-03T06:08:55.483Z</time></trkpt><trkpt lat="38.4995383" lon="16.0234967"><ele>34.5</ele><time>2026-05-03T06:08:56.482Z</time></trkpt><trkpt lat="38.4996183" lon="16.0239183"><ele>35.0</ele><time>2026-05-03T06:08:57.483Z</time></trkpt><trkpt lat="38.4996967" lon="16.0243417"><ele>35.0</ele><time>2026-05-03T06:08:58.482Z</time></trkpt><trkpt lat="38.4997733" lon="16.0247633"><ele>35.0</ele><time>2026-05-03T06:08:59.481Z</time></trkpt><trkpt lat="38.4998483" lon="16.025185"><ele>35.0</ele><time>2026-05-03T06:09:00.484Z</time></trkpt><trkpt lat="38.4999233" lon="16.0256067"><ele>35.0</ele><time>2026-05-03T06:09:01.482Z</time></trkpt><trkpt lat="38.4999983" lon="16.0260283"><ele>35.5</ele><time>2026-05-03T06:09:02.482Z</time></trkpt><trkpt lat="38.5000767" lon="16.02645"><ele>36.0</ele><time>2026-05-03T06:09:03.482Z</time></trkpt><trkpt lat="38.5001567" lon="16.02687"><ele>36.5</ele><time>2026-05-03T06:09:04.482Z</time></trkpt><trkpt lat="38.5002417" lon="16.0272867"><ele>37.0</ele><time>2026-05-03T06:09:05.483Z</time></trkpt><trkpt lat="38.5003283" lon="16.0276983"><ele>37.0</ele><time>2026-05-03T06:09:06.483Z</time></trkpt><trkpt lat="38.5004233" lon="16.02811"><ele>37.0</ele><time>2026-05-03T06:09:07.483Z</time></trkpt><trkpt lat="38.50053" lon="16.02852"><ele>37.5</ele><time>2026-05-03T06:09:08.482Z</time></trkpt><trkpt lat="38.500645" lon="16.0289217"><ele>38.0</ele><time>2026-05-03T06:09:09.483Z</time></trkpt><trkpt lat="38.5007683" lon="16.02932"><ele>38.0</ele><time>2026-05-03T06:09:10.482Z</time></trkpt><trkpt lat="38.5008967" lon="16.0297167"><ele>38.0</ele><time>2026-05-03T06:09:11.483Z</time></trkpt><trkpt lat="38.5010383" lon="16.03011"><ele>38.0</ele><time>2026-05-03T06:09:12.483Z</time></trkpt><trkpt lat="38.5011917" lon="16.0304933"><ele>38.0</ele><time>2026-05-03T06:09:13.483Z</time></trkpt><trkpt lat="38.5013517" lon="16.0308683"><ele>38.5</ele><time>2026-05-03T06:09:14.484Z</time></trkpt><trkpt lat="38.5015217" lon="16.0312367"><ele>39.0</ele><time>2026-05-03T06:09:15.484Z</time></trkpt><trkpt lat="38.5016967" lon="16.031605"><ele>39.0</ele><time>2026-05-03T06:09:16.481Z</time></trkpt><trkpt lat="38.50188" lon="16.03197"><ele>39.0</ele><time>2026-05-03T06:09:17.487Z</time></trkpt><trkpt lat="38.50207" lon="16.0323283"><ele>40.0</ele><time>2026-05-03T06:09:18.482Z</time></trkpt><trkpt lat="38.5022683" lon="16.032685"><ele>41.0</ele><time>2026-05-03T06:09:19.485Z</time></trkpt><trkpt lat="38.5024683" lon="16.03304"><ele>40.0</ele><time>2026-05-03T06:09:20.483Z</time></trkpt><trkpt lat="38.5026717" lon="16.0333917"><ele>39.0</ele><time>2026-05-03T06:09:21.483Z</time></trkpt><trkpt lat="38.5028783" lon="16.0337383"><ele>39.0</ele><time>2026-05-03T06:09:22.482Z</time></trkpt><trkpt lat="38.5030867" lon="16.034085"><ele>39.0</ele><time>2026-05-03T06:09:23.484Z</time></trkpt><trkpt lat="38.5032967" lon="16.0344317"><ele>39.0</ele><time>2026-05-03T06:09:24.482Z</time></trkpt><trkpt lat="38.503505" lon="16.0347767"><ele>39.0</ele><time>2026-05-03T06:09:25.481Z</time></trkpt><trkpt lat="38.503715" lon="16.03512"><ele>39.0</ele><time>2026-05-03T06:09:26.484Z</time></trkpt><trkpt lat="38.503925" lon="16.0354633"><ele>39.0</ele><time>2026-05-03T06:09:27.484Z</time></trkpt><trkpt lat="38.504135" lon="16.0358033"><ele>39.0</ele><time>2026-05-03T06:09:28.482Z</time></trkpt><trkpt lat="38.5043467" lon="16.0361417"><ele>39.0</ele><time>2026-05-03T06:09:29.482Z</time></trkpt><trkpt lat="38.5045517" lon="16.03648"><ele>39.5</ele><time>2026-05-03T06:09:30.481Z</time></trkpt><trkpt lat="38.504755" lon="16.0368233"><ele>40.0</ele><time>2026-05-03T06:09:31.482Z</time></trkpt><trkpt lat="38.5049583" lon="16.0371633"><ele>40.5</ele><time>2026-05-03T06:09:32.484Z</time></trkpt><trkpt lat="38.50516" lon="16.0375017"><ele>41.0</ele><time>2026-05-03T06:09:33.484Z</time></trkpt><trkpt lat="38.5053633" lon="16.0378433"><ele>41.0</ele><time>2026-05-03T06:09:34.483Z</time></trkpt><trkpt lat="38.505565" lon="16.0381817"><ele>41.0</ele><time>2026-05-03T06:09:35.483Z</time></trkpt><trkpt lat="38.5057667" lon="16.03852"><ele>41.0</ele><time>2026-05-03T06:09:36.484Z</time></trkpt><trkpt lat="38.50597" lon="16.0388583"><ele>41.0</ele><time>2026-05-03T06:09:37.483Z</time></trkpt><trkpt lat="38.50617" lon="16.0391933"><ele>40.5</ele><time>2026-05-03T06:09:38.483Z</time></trkpt><trkpt lat="38.5063733" lon="16.039525"><ele>40.0</ele><time>2026-05-03T06:09:39.484Z</time></trkpt><trkpt lat="38.5065783" lon="16.0398533"><ele>40.5</ele><time>2026-05-03T06:09:40.483Z</time></trkpt><trkpt lat="38.5067817" lon="16.0401833"><ele>41.0</ele><time>2026-05-03T06:09:41.483Z</time></trkpt><trkpt lat="38.506985" lon="16.0405133"><ele>41.5</ele><time>2026-05-03T06:09:42.482Z</time></trkpt><trkpt lat="38.5071883" lon="16.0408433"><ele>42.0</ele><time>2026-05-03T06:09:43.483Z</time></trkpt><trkpt lat="38.5073933" lon="16.0411717"><ele>42.0</ele><time>2026-05-03T06:09:44.484Z</time></trkpt><trkpt lat="38.5075983" lon="16.0414983"><ele>42.0</ele><time>2026-05-03T06:09:45.483Z</time></trkpt><trkpt lat="38.5078067" lon="16.0418233"><ele>42.5</ele><time>2026-05-03T06:09:46.484Z</time></trkpt><trkpt lat="38.5080167" lon="16.0421467"><ele>43.0</ele><time>2026-05-03T06:09:47.483Z</time></trkpt><trkpt lat="38.5082283" lon="16.04247"><ele>44.0</ele><time>2026-05-03T06:09:48.482Z</time></trkpt><trkpt lat="38.5084417" lon="16.04279"><ele>45.0</ele><time>2026-05-03T06:09:49.483Z</time></trkpt><trkpt lat="38.5086583" lon="16.04311"><ele>44.5</ele><time>2026-05-03T06:09:50.483Z</time></trkpt><trkpt lat="38.50888" lon="16.04343"><ele>44.0</ele><time>2026-05-03T06:09:51.482Z</time></trkpt><trkpt lat="38.509105" lon="16.0437483"><ele>44.0</ele><time>2026-05-03T06:09:52.482Z</time></trkpt><trkpt lat="38.509335" lon="16.0440633"><ele>44.0</ele><time>2026-05-03T06:09:53.482Z</time></trkpt><trkpt lat="38.50957" lon="16.04438"><ele>44.0</ele><time>2026-05-03T06:09:54.482Z</time></trkpt><trkpt lat="38.5098083" lon="16.0446967"><ele>44.0</ele><time>2026-05-03T06:09:55.483Z</time></trkpt><trkpt lat="38.5100467" lon="16.0450133"><ele>44.0</ele><time>2026-05-03T06:09:56.483Z</time></trkpt><trkpt lat="38.5102883" lon="16.0453283"><ele>44.0</ele><time>2026-05-03T06:09:57.483Z</time></trkpt><trkpt lat="38.5105333" lon="16.04564"><ele>44.0</ele><time>2026-05-03T06:09:58.483Z</time></trkpt><trkpt lat="38.51078" lon="16.0459417"><ele>44.0</ele><time>2026-05-03T06:09:59.482Z</time></trkpt><trkpt lat="38.51103" lon="16.0462383"><ele>44.5</ele><time>2026-05-03T06:10:00.483Z</time></trkpt><trkpt lat="38.51128" lon="16.046535"><ele>45.0</ele><time>2026-05-03T06:10:01.481Z</time></trkpt><trkpt lat="38.511535" lon="16.0468267"><ele>45.5</ele><time>2026-05-03T06:10:02.481Z</time></trkpt><trkpt lat="38.5117933" lon="16.0471167"><ele>46.0</ele><time>2026-05-03T06:10:03.482Z</time></trkpt><trkpt lat="38.51205" lon="16.0474"><ele>46.0</ele><time>2026-05-03T06:10:04.484Z</time></trkpt><trkpt lat="38.5123133" lon="16.0476733"><ele>46.0</ele><time>2026-05-03T06:10:05.484Z</time></trkpt><trkpt lat="38.51258" lon="16.0479383"><ele>46.0</ele><time>2026-05-03T06:10:06.483Z</time></trkpt><trkpt lat="38.51285" lon="16.0481967"><ele>46.0</ele><time>2026-05-03T06:10:07.483Z</time></trkpt><trkpt lat="38.5131233" lon="16.0484467"><ele>46.0</ele><time>2026-05-03T06:10:08.483Z</time></trkpt><trkpt lat="38.5134" lon="16.0486883"><ele>46.0</ele><time>2026-05-03T06:10:09.483Z</time></trkpt><trkpt lat="38.5136817" lon="16.0489217"><ele>47.0</ele><time>2026-05-03T06:10:10.481Z</time></trkpt><trkpt lat="38.51397" lon="16.0491417"><ele>48.0</ele><time>2026-05-03T06:10:11.483Z</time></trkpt><trkpt lat="38.5142617" lon="16.0493567"><ele>48.0</ele><time>2026-05-03T06:10:12.484Z</time></trkpt><trkpt lat="38.5145617" lon="16.04956"><ele>48.0</ele><time>2026-05-03T06:10:13.483Z</time></trkpt><trkpt lat="38.514865" lon="16.0497633"><ele>48.0</ele><time>2026-05-03T06:10:14.484Z</time></trkpt><trkpt lat="38.51517" lon="16.04996"><ele>48.0</ele><time>2026-05-03T06:10:15.483Z</time></trkpt><trkpt lat="38.5154767" lon="16.0501567"><ele>50.5</ele><time>2026-05-03T06:10:16.483Z</time></trkpt><trkpt lat="38.5157883" lon="16.0503533"><ele>53.0</ele><time>2026-05-03T06:10:17.483Z</time></trkpt><trkpt lat="38.5161017" lon="16.0505433"><ele>53.5</ele><time>2026-05-03T06:10:18.482Z</time></trkpt><trkpt lat="38.5164167" lon="16.0507283"><ele>54.0</ele><time>2026-05-03T06:10:19.482Z</time></trkpt><trkpt lat="38.5167333" lon="16.0509083"><ele>54.0</ele><time>2026-05-03T06:10:20.483Z</time></trkpt><trkpt lat="38.5170483" lon="16.0510833"><ele>54.0</ele><time>2026-05-03T06:10:21.482Z</time></trkpt><trkpt lat="38.5173633" lon="16.0512533"><ele>57.5</ele><time>2026-05-03T06:10:22.483Z</time></trkpt><trkpt lat="38.5176767" lon="16.0514183"><ele>61.0</ele><time>2026-05-03T06:10:23.482Z</time></trkpt><trkpt lat="38.51799" lon="16.05158"><ele>55.0</ele><time>2026-05-03T06:10:24.482Z</time></trkpt><trkpt lat="38.5183033" lon="16.0517383"><ele>49.0</ele><time>2026-05-03T06:10:25.486Z</time></trkpt><trkpt lat="38.5186167" lon="16.0518933"><ele>50.0</ele><time>2026-05-03T06:10:26.483Z</time></trkpt><trkpt lat="38.5189317" lon="16.0520383"><ele>51.0</ele><time>2026-05-03T06:10:27.483Z</time></trkpt><trkpt lat="38.51925" lon="16.05218"><ele>53.5</ele><time>2026-05-03T06:10:28.483Z</time></trkpt><trkpt lat="38.5195733" lon="16.0523117"><ele>56.0</ele><time>2026-05-03T06:10:29.483Z</time></trkpt><trkpt lat="38.5199" lon="16.0524383"><ele>53.5</ele><time>2026-05-03T06:10:30.482Z</time></trkpt><trkpt lat="38.520235" lon="16.052555"><ele>51.0</ele><time>2026-05-03T06:10:31.483Z</time></trkpt><trkpt lat="38.520575" lon="16.0526617"><ele>51.0</ele><time>2026-05-03T06:10:32.482Z</time></trkpt><trkpt lat="38.5209183" lon="16.0527533"><ele>51.0</ele><time>2026-05-03T06:10:33.48Z</time></trkpt><trkpt lat="38.52127" lon="16.0528417"><ele>54.0</ele><time>2026-05-03T06:10:34.483Z</time></trkpt><trkpt lat="38.5216267" lon="16.0529133"><ele>57.0</ele><time>2026-05-03T06:10:35.482Z</time></trkpt><trkpt lat="38.5219867" lon="16.052975"><ele>63.5</ele><time>2026-05-03T06:10:36.482Z</time></trkpt><trkpt lat="38.52235" lon="16.0530183"><ele>70.0</ele><time>2026-05-03T06:10:37.483Z</time></trkpt><trkpt lat="38.5227133" lon="16.0530433"><ele>67.0</ele><time>2026-05-03T06:10:38.483Z</time></trkpt><trkpt lat="38.5230783" lon="16.053055"><ele>64.0</ele><time>2026-05-03T06:10:39.481Z</time></trkpt><trkpt lat="38.5234417" lon="16.0530533"><ele>59.5</ele><time>2026-05-03T06:10:40.482Z</time></trkpt><trkpt lat="38.523805" lon="16.0530367"><ele>55.0</ele><time>2026-05-03T06:10:41.483Z</time></trkpt><trkpt lat="38.5241683" lon="16.0530067"><ele>55.0</ele><time>2026-05-03T06:10:42.481Z</time></trkpt><trkpt lat="38.5245283" lon="16.0529633"><ele>55.0</ele><time>2026-05-03T06:10:43.483Z</time></trkpt><trkpt lat="38.5248833" lon="16.0529133"><ele>54.0</ele><time>2026-05-03T06:10:44.484Z</time></trkpt><trkpt lat="38.525235" lon="16.05286"><ele>53.0</ele><time>2026-05-03T06:10:45.483Z</time></trkpt><trkpt lat="38.525585" lon="16.0527983"><ele>53.0</ele><time>2026-05-03T06:10:46.482Z</time></trkpt><trkpt lat="38.5259333" lon="16.0527333"><ele>53.0</ele><time>2026-05-03T06:10:47.484Z</time></trkpt><trkpt lat="38.52628" lon="16.0526667"><ele>53.5</ele><time>2026-05-03T06:10:48.484Z</time></trkpt><trkpt lat="38.5266217" lon="16.0526017"><ele>54.0</ele><time>2026-05-03T06:10:49.483Z</time></trkpt><trkpt lat="38.5269617" lon="16.0525433"><ele>54.0</ele><time>2026-05-03T06:10:50.482Z</time></trkpt><trkpt lat="38.5273017" lon="16.05249"><ele>54.0</ele><time>2026-05-03T06:10:51.483Z</time></trkpt><trkpt lat="38.5276417" lon="16.0524433"><ele>52.0</ele><time>2026-05-03T06:10:52.482Z</time></trkpt><trkpt lat="38.5279833" lon="16.0524067"><ele>50.0</ele><time>2026-05-03T06:10:53.482Z</time></trkpt><trkpt lat="38.528325" lon="16.0523817"><ele>50.0</ele><time>2026-05-03T06:10:54.483Z</time></trkpt><trkpt lat="38.5286683" lon="16.05237"><ele>50.0</ele><time>2026-05-03T06:10:55.481Z</time></trkpt><trkpt lat="38.52901" lon="16.052375"><ele>51.5</ele><time>2026-05-03T06:10:56.481Z</time></trkpt><trkpt lat="38.52935" lon="16.0523983"><ele>53.0</ele><time>2026-05-03T06:10:57.48Z</time></trkpt><trkpt lat="38.5296883" lon="16.0524417"><ele>52.5</ele><time>2026-05-03T06:10:58.482Z</time></trkpt><trkpt lat="38.5300233" lon="16.0525017"><ele>52.0</ele><time>2026-05-03T06:10:59.481Z</time></trkpt><trkpt lat="38.5303517" lon="16.05258"><ele>52.0</ele><time>2026-05-03T06:11:00.481Z</time></trkpt><trkpt lat="38.5306767" lon="16.05267"><ele>52.0</ele><time>2026-05-03T06:11:01.482Z</time></trkpt><trkpt lat="38.530995" lon="16.0527783"><ele>54.0</ele><time>2026-05-03T06:11:02.483Z</time></trkpt><trkpt lat="38.53131" lon="16.052905"><ele>56.0</ele><time>2026-05-03T06:11:03.481Z</time></trkpt><trkpt lat="38.5316233" lon="16.0530433"><ele>56.0</ele><time>2026-05-03T06:11:04.481Z</time></trkpt><trkpt lat="38.5319317" lon="16.053195"><ele>56.0</ele><time>2026-05-03T06:11:05.482Z</time></trkpt><trkpt lat="38.532235" lon="16.0533667"><ele>55.0</ele><time>2026-05-03T06:11:06.481Z</time></trkpt><trkpt lat="38.5325333" lon="16.053555"><ele>54.0</ele><time>2026-05-03T06:11:07.485Z</time></trkpt><trkpt lat="38.5328267" lon="16.053755"><ele>55.5</ele><time>2026-05-03T06:11:08.483Z</time></trkpt><trkpt lat="38.5331133" lon="16.05397"><ele>57.0</ele><time>2026-05-03T06:11:09.483Z</time></trkpt><trkpt lat="38.533395" lon="16.0542017"><ele>57.0</ele><time>2026-05-03T06:11:10.482Z</time></trkpt><trkpt lat="38.5336683" lon="16.0544483"><ele>57.0</ele><time>2026-05-03T06:11:11.481Z</time></trkpt><trkpt lat="38.533935" lon="16.054705"><ele>56.5</ele><time>2026-05-03T06:11:12.484Z</time></trkpt><trkpt lat="38.5342" lon="16.0549717"><ele>56.0</ele><time>2026-05-03T06:11:13.482Z</time></trkpt><trkpt lat="38.5344633" lon="16.0552383"><ele>57.0</ele><time>2026-05-03T06:11:14.483Z</time></trkpt><trkpt lat="38.5347217" lon="16.05551"><ele>58.0</ele><time>2026-05-03T06:11:15.481Z</time></trkpt><trkpt lat="38.5349767" lon="16.0557883"><ele>57.0</ele><time>2026-05-03T06:11:16.481Z</time></trkpt><trkpt lat="38.53523" lon="16.0560717"><ele>56.0</ele><time>2026-05-03T06:11:17.483Z</time></trkpt><trkpt lat="38.5354883" lon="16.0563517"><ele>56.0</ele><time>2026-05-03T06:11:18.482Z</time></trkpt><trkpt lat="38.5357467" lon="16.0566317"><ele>56.0</ele><time>2026-05-03T06:11:19.483Z</time></trkpt><trkpt lat="38.536005" lon="16.0569117"><ele>56.0</ele><time>2026-05-03T06:11:20.483Z</time></trkpt><trkpt lat="38.536265" lon="16.0571883"><ele>56.0</ele><time>2026-05-03T06:11:21.483Z</time></trkpt><trkpt lat="38.53653" lon="16.0574583"><ele>56.5</ele><time>2026-05-03T06:11:22.481Z</time></trkpt><trkpt lat="38.5367967" lon="16.0577217"><ele>57.0</ele><time>2026-05-03T06:11:23.483Z</time></trkpt><trkpt lat="38.5370633" lon="16.057985"><ele>57.0</ele><time>2026-05-03T06:11:24.483Z</time></trkpt><trkpt lat="38.53733" lon="16.05825"><ele>57.0</ele><time>2026-05-03T06:11:25.482Z</time></trkpt><trkpt lat="38.5375933" lon="16.0585133"><ele>58.0</ele><time>2026-05-03T06:11:26.483Z</time></trkpt><trkpt lat="38.5378583" lon="16.0587717"><ele>59.0</ele><time>2026-05-03T06:11:27.48Z</time></trkpt><trkpt lat="38.53812" lon="16.0590383"><ele>61.5</ele><time>2026-05-03T06:11:28.482Z</time></trkpt><trkpt lat="38.5383833" lon="16.0593"><ele>64.0</ele><time>2026-05-03T06:11:29.482Z</time></trkpt><trkpt lat="38.5386483" lon="16.0595583"><ele>63.0</ele><time>2026-05-03T06:11:30.481Z</time></trkpt><trkpt lat="38.5389133" lon="16.059815"><ele>62.0</ele><time>2026-05-03T06:11:31.481Z</time></trkpt><trkpt lat="38.5391767" lon="16.0600683"><ele>62.0</ele><time>2026-05-03T06:11:32.482Z</time></trkpt><trkpt lat="38.5394417" lon="16.060325"><ele>62.0</ele><time>2026-05-03T06:11:33.482Z</time></trkpt><trkpt lat="38.5397017" lon="16.0605917"><ele>64.0</ele><time>2026-05-03T06:11:34.482Z</time></trkpt><trkpt lat="38.5399617" lon="16.0608567"><ele>66.0</ele><time>2026-05-03T06:11:35.482Z</time></trkpt><trkpt lat="38.5402217" lon="16.06112"><ele>65.0</ele><time>2026-05-03T06:11:36.482Z</time></trkpt><trkpt lat="38.5404817" lon="16.06138"><ele>64.0</ele><time>2026-05-03T06:11:37.483Z</time></trkpt><trkpt lat="38.5407433" lon="16.0616383"><ele>64.0</ele><time>2026-05-03T06:11:38.483Z</time></trkpt><trkpt lat="38.5410033" lon="16.0618983"><ele>64.0</ele><time>2026-05-03T06:11:39.482Z</time></trkpt><trkpt lat="38.5412633" lon="16.06216"><ele>62.0</ele><time>2026-05-03T06:11:40.484Z</time></trkpt><trkpt lat="38.54152" lon="16.0624217"><ele>60.0</ele><time>2026-05-03T06:11:41.482Z</time></trkpt><trkpt lat="38.54178" lon="16.0626817"><ele>60.5</ele><time>2026-05-03T06:11:42.485Z</time></trkpt><trkpt lat="38.5420367" lon="16.062945"><ele>61.0</ele><time>2026-05-03T06:11:43.483Z</time></trkpt><trkpt lat="38.5422967" lon="16.063205"><ele>64.5</ele><time>2026-05-03T06:11:44.483Z</time></trkpt><trkpt lat="38.5425633" lon="16.0634567"><ele>68.0</ele><time>2026-05-03T06:11:45.487Z</time></trkpt><trkpt lat="38.542835" lon="16.0637033"><ele>67.0</ele><time>2026-05-03T06:11:46.483Z</time></trkpt><trkpt lat="38.5431083" lon="16.0639467"><ele>66.0</ele><time>2026-05-03T06:11:47.482Z</time></trkpt><trkpt lat="38.5433867" lon="16.06419"><ele>66.0</ele><time>2026-05-03T06:11:48.481Z</time></trkpt><trkpt lat="38.5436683" lon="16.06443"><ele>66.0</ele><time>2026-05-03T06:11:49.482Z</time></trkpt><trkpt lat="38.543955" lon="16.064665"><ele>64.0</ele><time>2026-05-03T06:11:50.482Z</time></trkpt><trkpt lat="38.544245" lon="16.0648967"><ele>62.0</ele><time>2026-05-03T06:11:51.481Z</time></trkpt><trkpt lat="38.5445383" lon="16.0651183"><ele>63.0</ele><time>2026-05-03T06:11:52.483Z</time></trkpt><trkpt lat="38.5448333" lon="16.06534"><ele>64.0</ele><time>2026-05-03T06:11:53.482Z</time></trkpt><trkpt lat="38.5451317" lon="16.0655583"><ele>63.0</ele><time>2026-05-03T06:11:54.481Z</time></trkpt><trkpt lat="38.5454317" lon="16.0657617"><ele>62.0</ele><time>2026-05-03T06:11:55.48Z</time></trkpt><trkpt lat="38.5457333" lon="16.0659633"><ele>64.0</ele><time>2026-05-03T06:11:56.482Z</time></trkpt><trkpt lat="38.5460383" lon="16.06616"><ele>66.0</ele><time>2026-05-03T06:11:57.481Z</time></trkpt><trkpt lat="38.546345" lon="16.0663517"><ele>67.5</ele><time>2026-05-03T06:11:58.481Z</time></trkpt><trkpt lat="38.5466533" lon="16.0665417"><ele>69.0</ele><time>2026-05-03T06:11:59.481Z</time></trkpt><trkpt lat="38.54696" lon="16.0667367"><ele>74.5</ele><time>2026-05-03T06:12:00.481Z</time></trkpt><trkpt lat="38.547265" lon="16.0669317"><ele>80.0</ele><time>2026-05-03T06:12:01.481Z</time></trkpt><trkpt lat="38.5475683" lon="16.06713"><ele>80.0</ele><time>2026-05-03T06:12:02.482Z</time></trkpt><trkpt lat="38.5478733" lon="16.06733"><ele>80.0</ele><time>2026-05-03T06:12:03.483Z</time></trkpt><trkpt lat="38.5481783" lon="16.0675283"><ele>77.5</ele><time>2026-05-03T06:12:04.482Z</time></trkpt><trkpt lat="38.5484867" lon="16.067725"><ele>75.0</ele><time>2026-05-03T06:12:05.482Z</time></trkpt><trkpt lat="38.548795" lon="16.0679167"><ele>74.0</ele><time>2026-05-03T06:12:06.482Z</time></trkpt><trkpt lat="38.5491017" lon="16.06811"><ele>73.0</ele><time>2026-05-03T06:12:07.482Z</time></trkpt><trkpt lat="38.5494067" lon="16.0683017"><ele>74.5</ele><time>2026-05-03T06:12:08.482Z</time></trkpt><trkpt lat="38.54971" lon="16.0684933"><ele>76.0</ele><time>2026-05-03T06:12:09.481Z</time></trkpt><trkpt lat="38.5500133" lon="16.0686833"><ele>76.0</ele><time>2026-05-03T06:12:10.481Z</time></trkpt><trkpt lat="38.5503167" lon="16.0688667"><ele>76.0</ele><time>2026-05-03T06:12:11.485Z</time></trkpt><trkpt lat="38.55062" lon="16.0690433"><ele>80.5</ele><time>2026-05-03T06:12:12.482Z</time></trkpt><trkpt lat="38.5509267" lon="16.06921"><ele>85.0</ele><time>2026-05-03T06:12:13.482Z</time></trkpt><trkpt lat="38.551235" lon="16.0693667"><ele>87.5</ele><time>2026-05-03T06:12:14.483Z</time></trkpt><trkpt lat="38.5515467" lon="16.06951"><ele>90.0</ele><time>2026-05-03T06:12:15.483Z</time></trkpt><trkpt lat="38.5518617" lon="16.0696417"><ele>93.0</ele><time>2026-05-03T06:12:16.482Z</time></trkpt><trkpt lat="38.55218" lon="16.0697533"><ele>96.0</ele><time>2026-05-03T06:12:17.483Z</time></trkpt><trkpt lat="38.5524983" lon="16.0698483"><ele>96.0</ele><time>2026-05-03T06:12:18.483Z</time></trkpt><trkpt lat="38.5528233" lon="16.0699267"><ele>96.0</ele><time>2026-05-03T06:12:19.482Z</time></trkpt><trkpt lat="38.55315" lon="16.06999"><ele>85.5</ele><time>2026-05-03T06:12:20.483Z</time></trkpt><trkpt lat="38.5534817" lon="16.0700417"><ele>75.0</ele><time>2026-05-03T06:12:21.482Z</time></trkpt><trkpt lat="38.553815" lon="16.070085"><ele>72.5</ele><time>2026-05-03T06:12:22.483Z</time></trkpt><trkpt lat="38.5541517" lon="16.0701233"><ele>70.0</ele><time>2026-05-03T06:12:23.482Z</time></trkpt><trkpt lat="38.5544917" lon="16.07016"><ele>70.0</ele><time>2026-05-03T06:12:24.484Z</time></trkpt><trkpt lat="38.5548333" lon="16.0702"><ele>70.0</ele><time>2026-05-03T06:12:25.482Z</time></trkpt><trkpt lat="38.55518" lon="16.0702417"><ele>69.5</ele><time>2026-05-03T06:12:26.483Z</time></trkpt><trkpt lat="38.5555233" lon="16.0702883"><ele>69.0</ele><time>2026-05-03T06:12:27.481Z</time></trkpt><trkpt lat="38.5558667" lon="16.0703417"><ele>68.5</ele><time>2026-05-03T06:12:28.481Z</time></trkpt><trkpt lat="38.5562117" lon="16.070405"><ele>68.0</ele><time>2026-05-03T06:12:29.482Z</time></trkpt><trkpt lat="38.5565533" lon="16.070475"><ele>68.0</ele><time>2026-05-03T06:12:30.482Z</time></trkpt><trkpt lat="38.5568933" lon="16.0705683"><ele>68.0</ele><time>2026-05-03T06:12:31.48Z</time></trkpt><trkpt lat="38.55723" lon="16.070675"><ele>68.0</ele><time>2026-05-03T06:12:32.481Z</time></trkpt><trkpt lat="38.5575633" lon="16.0707967"><ele>68.0</ele><time>2026-05-03T06:12:33.481Z</time></trkpt><trkpt lat="38.55789" lon="16.0709417"><ele>70.0</ele><time>2026-05-03T06:12:34.481Z</time></trkpt><trkpt lat="38.5582117" lon="16.0711"><ele>72.0</ele><time>2026-05-03T06:12:35.482Z</time></trkpt><trkpt lat="38.55853" lon="16.0712683"><ele>73.5</ele><time>2026-05-03T06:12:36.481Z</time></trkpt><trkpt lat="38.55884" lon="16.07145"><ele>75.0</ele><time>2026-05-03T06:12:37.481Z</time></trkpt><trkpt lat="38.5591417" lon="16.0716483"><ele>75.0</ele><time>2026-05-03T06:12:38.483Z</time></trkpt><trkpt lat="38.5594383" lon="16.0718633"><ele>75.0</ele><time>2026-05-03T06:12:39.479Z</time></trkpt><trkpt lat="38.5597267" lon="16.0720933"><ele>75.5</ele><time>2026-05-03T06:12:40.481Z</time></trkpt><trkpt lat="38.5600067" lon="16.0723367"><ele>76.0</ele><time>2026-05-03T06:12:41.48Z</time></trkpt><trkpt lat="38.56028" lon="16.07259"><ele>81.0</ele><time>2026-05-03T06:12:42.482Z</time></trkpt><trkpt lat="38.560545" lon="16.07286"><ele>86.0</ele><time>2026-05-03T06:12:43.481Z</time></trkpt><trkpt lat="38.5608017" lon="16.0731467"><ele>85.5</ele><time>2026-05-03T06:12:44.482Z</time></trkpt><trkpt lat="38.5610483" lon="16.0734467"><ele>85.0</ele><time>2026-05-03T06:12:45.481Z</time></trkpt><trkpt lat="38.561285" lon="16.0737633"><ele>85.0</ele><time>2026-05-03T06:12:46.485Z</time></trkpt><trkpt lat="38.561515" lon="16.0740883"><ele>85.0</ele><time>2026-05-03T06:12:47.481Z</time></trkpt><trkpt lat="38.5617317" lon="16.074425"><ele>83.5</ele><time>2026-05-03T06:12:48.482Z</time></trkpt><trkpt lat="38.5619383" lon="16.0747667"><ele>82.0</ele><time>2026-05-03T06:12:49.483Z</time></trkpt><trkpt lat="38.5621333" lon="16.0751167"><ele>82.0</ele><time>2026-05-03T06:12:50.483Z</time></trkpt><trkpt lat="38.5623183" lon="16.0754767"><ele>82.0</ele><time>2026-05-03T06:12:51.482Z</time></trkpt><trkpt lat="38.5624917" lon="16.0758433"><ele>79.0</ele><time>2026-05-03T06:12:52.482Z</time></trkpt><trkpt lat="38.562655" lon="16.076215"><ele>76.0</ele><time>2026-05-03T06:12:53.483Z</time></trkpt><trkpt lat="38.56281" lon="16.0765967"><ele>80.0</ele><time>2026-05-03T06:12:54.482Z</time></trkpt><trkpt lat="38.5629567" lon="16.0769883"><ele>84.0</ele><time>2026-05-03T06:12:55.482Z</time></trkpt><trkpt lat="38.5631" lon="16.077385"><ele>82.0</ele><time>2026-05-03T06:12:56.482Z</time></trkpt><trkpt lat="38.5632383" lon="16.0777867"><ele>80.0</ele><time>2026-05-03T06:12:57.483Z</time></trkpt><trkpt lat="38.563375" lon="16.0781883"><ele>76.5</ele><time>2026-05-03T06:12:58.481Z</time></trkpt><trkpt lat="38.56351" lon="16.07859"><ele>73.0</ele><time>2026-05-03T06:12:59.481Z</time></trkpt><trkpt lat="38.563645" lon="16.0789917"><ele>75.5</ele><time>2026-05-03T06:13:00.485Z</time></trkpt><trkpt lat="38.5637817" lon="16.0793883"><ele>78.0</ele><time>2026-05-03T06:13:01.481Z</time></trkpt><trkpt lat="38.5639233" lon="16.0797833"><ele>77.0</ele><time>2026-05-03T06:13:02.482Z</time></trkpt><trkpt lat="38.5640667" lon="16.0801717"><ele>76.0</ele><time>2026-05-03T06:13:03.481Z</time></trkpt><trkpt lat="38.5642183" lon="16.08055"><ele>76.0</ele><time>2026-05-03T06:13:04.481Z</time></trkpt><trkpt lat="38.564375" lon="16.0809217"><ele>76.0</ele><time>2026-05-03T06:13:05.482Z</time></trkpt><trkpt lat="38.5645317" lon="16.08129"><ele>78.5</ele><time>2026-05-03T06:13:06.482Z</time></trkpt><trkpt lat="38.5646917" lon="16.0816533"><ele>81.0</ele><time>2026-05-03T06:13:07.48Z</time></trkpt><trkpt lat="38.5648517" lon="16.0820167"><ele>81.0</ele><time>2026-05-03T06:13:08.483Z</time></trkpt><trkpt lat="38.5650117" lon="16.082385"><ele>81.0</ele><time>2026-05-03T06:13:09.481Z</time></trkpt><trkpt lat="38.5651717" lon="16.0827517"><ele>80.5</ele><time>2026-05-03T06:13:10.482Z</time></trkpt><trkpt lat="38.5653283" lon="16.083115"><ele>80.0</ele><time>2026-05-03T06:13:11.483Z</time></trkpt><trkpt lat="38.5654883" lon="16.0834767"><ele>80.0</ele><time>2026-05-03T06:13:12.481Z</time></trkpt><trkpt lat="38.5656517" lon="16.0838317"><ele>80.0</ele><time>2026-05-03T06:13:13.482Z</time></trkpt><trkpt lat="38.5658183" lon="16.0841833"><ele>78.5</ele><time>2026-05-03T06:13:14.483Z</time></trkpt><trkpt lat="38.565995" lon="16.0845317"><ele>77.0</ele><time>2026-05-03T06:13:15.48Z</time></trkpt><trkpt lat="38.56618" lon="16.0848717"><ele>80.5</ele><time>2026-05-03T06:13:16.483Z</time></trkpt><trkpt lat="38.5663767" lon="16.0852033"><ele>84.0</ele><time>2026-05-03T06:13:17.485Z</time></trkpt><trkpt lat="38.56658" lon="16.0855283"><ele>82.5</ele><time>2026-05-03T06:13:18.482Z</time></trkpt><trkpt lat="38.5667933" lon="16.085845"><ele>81.0</ele><time>2026-05-03T06:13:19.482Z</time></trkpt><trkpt lat="38.567015" lon="16.0861567"><ele>83.0</ele><time>2026-05-03T06:13:20.484Z</time></trkpt><trkpt lat="38.5672433" lon="16.0864617"><ele>85.0</ele><time>2026-05-03T06:13:21.481Z</time></trkpt><trkpt lat="38.5674833" lon="16.0867567"><ele>85.0</ele><time>2026-05-03T06:13:22.482Z</time></trkpt><trkpt lat="38.56773" lon="16.087045"><ele>85.0</ele><time>2026-05-03T06:13:23.484Z</time></trkpt><trkpt lat="38.567985" lon="16.0873217"><ele>83.0</ele><time>2026-05-03T06:13:24.482Z</time></trkpt><trkpt lat="38.5682433" lon="16.0875933"><ele>81.0</ele><time>2026-05-03T06:13:25.483Z</time></trkpt><trkpt lat="38.5685067" lon="16.0878583"><ele>80.0</ele><time>2026-05-03T06:13:26.483Z</time></trkpt><trkpt lat="38.5687717" lon="16.0881233"><ele>79.0</ele><time>2026-05-03T06:13:27.482Z</time></trkpt><trkpt lat="38.569035" lon="16.0883867"><ele>79.0</ele><time>2026-05-03T06:13:28.482Z</time></trkpt><trkpt lat="38.5692967" lon="16.088655"><ele>79.0</ele><time>2026-05-03T06:13:29.482Z</time></trkpt><trkpt lat="38.5695533" lon="16.08893"><ele>82.0</ele><time>2026-05-03T06:13:30.482Z</time></trkpt><trkpt lat="38.5698117" lon="16.0892083"><ele>85.0</ele><time>2026-05-03T06:13:31.482Z</time></trkpt><trkpt lat="38.570065" lon="16.0894933"><ele>85.0</ele><time>2026-05-03T06:13:32.483Z</time></trkpt><trkpt lat="38.570315" lon="16.0897867"><ele>85.0</ele><time>2026-05-03T06:13:33.481Z</time></trkpt><trkpt lat="38.5705633" lon="16.0900883"><ele>88.5</ele><time>2026-05-03T06:13:34.483Z</time></trkpt><trkpt lat="38.5708033" lon="16.0903983"><ele>92.0</ele><time>2026-05-03T06:13:35.482Z</time></trkpt><trkpt lat="38.5710367" lon="16.0907183"><ele>89.0</ele><time>2026-05-03T06:13:36.482Z</time></trkpt><trkpt lat="38.5712583" lon="16.0910517"><ele>86.0</ele><time>2026-05-03T06:13:37.482Z</time></trkpt><trkpt lat="38.57147" lon="16.0913967"><ele>91.5</ele><time>2026-05-03T06:13:38.485Z</time></trkpt><trkpt lat="38.5716767" lon="16.09175"><ele>97.0</ele><time>2026-05-03T06:13:39.483Z</time></trkpt><trkpt lat="38.5718783" lon="16.0921067"><ele>102.5</ele><time>2026-05-03T06:13:40.483Z</time></trkpt><trkpt lat="38.5720817" lon="16.0924733"><ele>108.0</ele><time>2026-05-03T06:13:41.484Z</time></trkpt><trkpt lat="38.5722883" lon="16.0928467"><ele>108.0</ele><time>2026-05-03T06:13:42.483Z</time></trkpt><trkpt lat="38.5725017" lon="16.09323"><ele>108.0</ele><time>2026-05-03T06:13:43.482Z</time></trkpt><trkpt lat="38.5727117" lon="16.0936167"><ele>97.0</ele><time>2026-05-03T06:13:44.485Z</time></trkpt><trkpt lat="38.5727317" lon="16.0941017"><ele>86.0</ele><time>2026-05-03T06:13:45.485Z</time></trkpt><trkpt lat="38.5728433" lon="16.0945233"><ele>91.0</ele><time>2026-05-03T06:13:46.483Z</time></trkpt><trkpt lat="38.57294" lon="16.0949467"><ele>96.0</ele><time>2026-05-03T06:13:47.485Z</time></trkpt><trkpt lat="38.5730333" lon="16.095365"><ele>93.0</ele><time>2026-05-03T06:13:48.485Z</time></trkpt><trkpt lat="38.57312" lon="16.095785"><ele>90.0</ele><time>2026-05-03T06:13:49.485Z</time></trkpt><trkpt lat="38.573195" lon="16.096205"><ele>88.5</ele><time>2026-05-03T06:13:50.484Z</time></trkpt><trkpt lat="38.5732583" lon="16.09663"><ele>87.0</ele><time>2026-05-03T06:13:51.484Z</time></trkpt><trkpt lat="38.5733133" lon="16.0970533"><ele>86.0</ele><time>2026-05-03T06:13:52.487Z</time></trkpt><trkpt lat="38.5733633" lon="16.0974733"><ele>85.0</ele><time>2026-05-03T06:13:53.483Z</time></trkpt><trkpt lat="38.5734083" lon="16.097895"><ele>83.5</ele><time>2026-05-03T06:13:54.483Z</time></trkpt><trkpt lat="38.5734467" lon="16.0983117"><ele>82.0</ele><time>2026-05-03T06:13:55.485Z</time></trkpt><trkpt lat="38.5734833" lon="16.09873"><ele>83.0</ele><time>2026-05-03T06:13:56.485Z</time></trkpt><trkpt lat="38.5735183" lon="16.0991467"><ele>84.0</ele><time>2026-05-03T06:13:57.483Z</time></trkpt><trkpt lat="38.5735517" lon="16.099565"><ele>85.0</ele><time>2026-05-03T06:13:58.482Z</time></trkpt><trkpt lat="38.57358" lon="16.0999817"><ele>86.0</ele><time>2026-05-03T06:13:59.483Z</time></trkpt><trkpt lat="38.573615" lon="16.100395"><ele>85.0</ele><time>2026-05-03T06:14:00.481Z</time></trkpt><trkpt lat="38.5736517" lon="16.10081"><ele>84.0</ele><time>2026-05-03T06:14:01.482Z</time></trkpt><trkpt lat="38.5736867" lon="16.101225"><ele>85.0</ele><time>2026-05-03T06:14:02.483Z</time></trkpt><trkpt lat="38.5737183" lon="16.1016433"><ele>86.0</ele><time>2026-05-03T06:14:03.485Z</time></trkpt><trkpt lat="38.5737483" lon="16.1020633"><ele>85.5</ele><time>2026-05-03T06:14:04.483Z</time></trkpt><trkpt lat="38.5737783" lon="16.1024833"><ele>85.0</ele><time>2026-05-03T06:14:05.482Z</time></trkpt><trkpt lat="38.5738083" lon="16.102905"><ele>86.0</ele><time>2026-05-03T06:14:06.482Z</time></trkpt><trkpt lat="38.57384" lon="16.103325"><ele>87.0</ele><time>2026-05-03T06:14:07.483Z</time></trkpt><trkpt lat="38.5738733" lon="16.1037467"><ele>88.0</ele><time>2026-05-03T06:14:08.483Z</time></trkpt><trkpt lat="38.57391" lon="16.10417"><ele>89.0</ele><time>2026-05-03T06:14:09.484Z</time></trkpt><trkpt lat="38.5739467" lon="16.104595"><ele>90.5</ele><time>2026-05-03T06:14:10.482Z</time></trkpt><trkpt lat="38.5739817" lon="16.10502"><ele>92.0</ele><time>2026-05-03T06:14:11.482Z</time></trkpt><trkpt lat="38.5740183" lon="16.1054483"><ele>93.5</ele><time>2026-05-03T06:14:12.481Z</time></trkpt><trkpt lat="38.5740517" lon="16.1058783"><ele>95.0</ele><time>2026-05-03T06:14:13.483Z</time></trkpt><trkpt lat="38.574085" lon="16.10631"><ele>92.0</ele><time>2026-05-03T06:14:14.482Z</time></trkpt><trkpt lat="38.57412" lon="16.1067417"><ele>89.0</ele><time>2026-05-03T06:14:15.482Z</time></trkpt><trkpt lat="38.5741567" lon="16.1071717"><ele>88.5</ele><time>2026-05-03T06:14:16.482Z</time></trkpt><trkpt lat="38.5741967" lon="16.107605"><ele>88.0</ele><time>2026-05-03T06:14:17.482Z</time></trkpt><trkpt lat="38.5742367" lon="16.1080367"><ele>91.0</ele><time>2026-05-03T06:14:18.483Z</time></trkpt><trkpt lat="38.57428" lon="16.1084667"><ele>94.0</ele><time>2026-05-03T06:14:19.483Z</time></trkpt><trkpt lat="38.5743233" lon="16.1088983"><ele>94.0</ele><time>2026-05-03T06:14:20.482Z</time></trkpt><trkpt lat="38.5743667" lon="16.10933"><ele>94.0</ele><time>2026-05-03T06:14:21.482Z</time></trkpt><trkpt lat="38.5744117" lon="16.1097617"><ele>91.5</ele><time>2026-05-03T06:14:22.484Z</time></trkpt><trkpt lat="38.5744583" lon="16.1101933"><ele>89.0</ele><time>2026-05-03T06:14:23.483Z</time></trkpt><trkpt lat="38.574505" lon="16.1106217"><ele>90.5</ele><time>2026-05-03T06:14:24.481Z</time></trkpt><trkpt lat="38.5745533" lon="16.11105"><ele>92.0</ele><time>2026-05-03T06:14:25.485Z</time></trkpt><trkpt lat="38.574605" lon="16.11148"><ele>97.5</ele><time>2026-05-03T06:14:26.483Z</time></trkpt><trkpt lat="38.57466" lon="16.1119067"><ele>103.0</ele><time>2026-05-03T06:14:27.483Z</time></trkpt><trkpt lat="38.5747267" lon="16.11233"><ele>110.5</ele><time>2026-05-03T06:14:28.482Z</time></trkpt><trkpt lat="38.574795" lon="16.1127567"><ele>118.0</ele><time>2026-05-03T06:14:29.484Z</time></trkpt><trkpt lat="38.574865" lon="16.1131867"><ele>124.0</ele><time>2026-05-03T06:14:30.484Z</time></trkpt><trkpt lat="38.57493" lon="16.1136217"><ele>130.0</ele><time>2026-05-03T06:14:31.483Z</time></trkpt><trkpt lat="38.5750067" lon="16.11406"><ele>105.0</ele><time>2026-05-03T06:14:32.484Z</time></trkpt><trkpt lat="38.5777117" lon="16.1226517"><ele>106.5</ele><time>2026-05-03T06:14:54.481Z</time></trkpt><trkpt lat="38.5778583" lon="16.1230233"><ele>108.0</ele><time>2026-05-03T06:14:55.483Z</time></trkpt><trkpt lat="38.5780117" lon="16.1233767"><ele>108.0</ele><time>2026-05-03T06:14:56.483Z</time></trkpt><trkpt lat="38.5781733" lon="16.12372"><ele>108.0</ele><time>2026-05-03T06:14:57.483Z</time></trkpt><trkpt lat="38.57833" lon="16.1240617"><ele>104.0</ele><time>2026-05-03T06:14:58.484Z</time></trkpt><trkpt lat="38.5784883" lon="16.124415"><ele>100.0</ele><time>2026-05-03T06:14:59.482Z</time></trkpt><trkpt lat="38.5786467" lon="16.1247683"><ele>101.0</ele><time>2026-05-03T06:15:00.482Z</time></trkpt><trkpt lat="38.5788067" lon="16.12512"><ele>102.0</ele><time>2026-05-03T06:15:01.484Z</time></trkpt><trkpt lat="38.5789683" lon="16.1254717"><ele>98.5</ele><time>2026-05-03T06:15:02.483Z</time></trkpt><trkpt lat="38.5791317" lon="16.12583"><ele>95.0</ele><time>2026-05-03T06:15:03.487Z</time></trkpt><trkpt lat="38.579295" lon="16.1261917"><ele>95.0</ele><time>2026-05-03T06:15:04.484Z</time></trkpt><trkpt lat="38.57946" lon="16.126555"><ele>95.0</ele><time>2026-05-03T06:15:05.482Z</time></trkpt><trkpt lat="38.5796267" lon="16.1269183"><ele>97.0</ele><time>2026-05-03T06:15:06.482Z</time></trkpt><trkpt lat="38.579795" lon="16.1272817"><ele>99.0</ele><time>2026-05-03T06:15:07.483Z</time></trkpt><trkpt lat="38.5799667" lon="16.1276483"><ele>99.0</ele><time>2026-05-03T06:15:08.483Z</time></trkpt><trkpt lat="38.5801417" lon="16.128015"><ele>99.0</ele><time>2026-05-03T06:15:09.483Z</time></trkpt><trkpt lat="38.5803183" lon="16.12838"><ele>101.5</ele><time>2026-05-03T06:15:10.482Z</time></trkpt><trkpt lat="38.5804983" lon="16.1287467"><ele>104.0</ele><time>2026-05-03T06:15:11.481Z</time></trkpt><trkpt lat="38.580685" lon="16.12911"><ele>104.0</ele><time>2026-05-03T06:15:12.484Z</time></trkpt><trkpt lat="38.5808733" lon="16.1294717"><ele>104.0</ele><time>2026-05-03T06:15:13.484Z</time></trkpt><trkpt lat="38.581065" lon="16.1298317"><ele>100.0</ele><time>2026-05-03T06:15:14.481Z</time></trkpt><trkpt lat="38.5812583" lon="16.1301883"><ele>96.0</ele><time>2026-05-03T06:15:15.482Z</time></trkpt><trkpt lat="38.58146" lon="16.1305367"><ele>95.5</ele><time>2026-05-03T06:15:16.482Z</time></trkpt><trkpt lat="38.5816683" lon="16.1308783"><ele>95.0</ele><time>2026-05-03T06:15:17.483Z</time></trkpt><trkpt lat="38.581885" lon="16.1312083"><ele>96.0</ele><time>2026-05-03T06:15:18.482Z</time></trkpt><trkpt lat="38.5821083" lon="16.1315283"><ele>97.0</ele><time>2026-05-03T06:15:19.484Z</time></trkpt><trkpt lat="38.5823383" lon="16.1318417"><ele>97.0</ele><time>2026-05-03T06:15:20.484Z</time></trkpt><trkpt lat="38.5825733" lon="16.132145"><ele>97.0</ele><time>2026-05-03T06:15:21.484Z</time></trkpt><trkpt lat="38.582815" lon="16.1324433"><ele>97.0</ele><time>2026-05-03T06:15:22.484Z</time></trkpt><trkpt lat="38.5830617" lon="16.1327317"><ele>97.0</ele><time>2026-05-03T06:15:23.485Z</time></trkpt><trkpt lat="38.5833167" lon="16.13301"><ele>95.5</ele><time>2026-05-03T06:15:24.485Z</time></trkpt><trkpt lat="38.58358" lon="16.1332783"><ele>94.0</ele><time>2026-05-03T06:15:25.486Z</time></trkpt><trkpt lat="38.5838483" lon="16.1335383"><ele>98.0</ele><time>2026-05-03T06:15:26.485Z</time></trkpt><trkpt lat="38.5841233" lon="16.1337933"><ele>102.0</ele><time>2026-05-03T06:15:27.484Z</time></trkpt><trkpt lat="38.5844033" lon="16.13404"><ele>103.0</ele><time>2026-05-03T06:15:28.484Z</time></trkpt><trkpt lat="38.5846917" lon="16.134275"><ele>104.0</ele><time>2026-05-03T06:15:29.486Z</time></trkpt><trkpt lat="38.5849883" lon="16.1344983"><ele>104.0</ele><time>2026-05-03T06:15:30.483Z</time></trkpt><trkpt lat="38.5852917" lon="16.1347183"><ele>104.0</ele><time>2026-05-03T06:15:31.486Z</time></trkpt><trkpt lat="38.5855983" lon="16.1349233"><ele>103.5</ele><time>2026-05-03T06:15:32.484Z</time></trkpt><trkpt lat="38.5859117" lon="16.1351117"><ele>103.0</ele><time>2026-05-03T06:15:33.485Z</time></trkpt><trkpt lat="38.58623" lon="16.1352917"><ele>107.0</ele><time>2026-05-03T06:15:34.486Z</time></trkpt><trkpt lat="38.5865517" lon="16.135465"><ele>111.0</ele><time>2026-05-03T06:15:35.486Z</time></trkpt><trkpt lat="38.5868767" lon="16.1356233"><ele>107.0</ele><time>2026-05-03T06:15:36.485Z</time></trkpt><trkpt lat="38.5872033" lon="16.1357717"><ele>103.0</ele><time>2026-05-03T06:15:37.483Z</time></trkpt><trkpt lat="38.5875317" lon="16.135905"><ele>103.5</ele><time>2026-05-03T06:15:38.483Z</time></trkpt><trkpt lat="38.5878683" lon="16.136025"><ele>104.0</ele><time>2026-05-03T06:15:39.482Z</time></trkpt><trkpt lat="38.58821" lon="16.1361317"><ele>104.0</ele><time>2026-05-03T06:15:40.488Z</time></trkpt><trkpt lat="38.5885533" lon="16.1362283"><ele>104.0</ele><time>2026-05-03T06:15:41.484Z</time></trkpt><trkpt lat="38.5889" lon="16.1363183"><ele>106.0</ele><time>2026-05-03T06:15:42.481Z</time></trkpt><trkpt lat="38.5892467" lon="16.1364017"><ele>108.0</ele><time>2026-05-03T06:15:43.487Z</time></trkpt><trkpt lat="38.5895933" lon="16.1364833"><ele>104.5</ele><time>2026-05-03T06:15:44.483Z</time></trkpt><trkpt lat="38.58994" lon="16.1365583"><ele>101.0</ele><time>2026-05-03T06:15:45.491Z</time></trkpt><trkpt lat="38.590285" lon="16.13663"><ele>101.5</ele><time>2026-05-03T06:15:46.482Z</time></trkpt><trkpt lat="38.5906267" lon="16.136695"><ele>102.0</ele><time>2026-05-03T06:15:47.481Z</time></trkpt><trkpt lat="38.5909667" lon="16.13676"><ele>102.5</ele><time>2026-05-03T06:15:48.483Z</time></trkpt><trkpt lat="38.591305" lon="16.1368217"><ele>103.0</ele><time>2026-05-03T06:15:49.484Z</time></trkpt><trkpt lat="38.5916433" lon="16.13688"><ele>103.0</ele><time>2026-05-03T06:15:50.482Z</time></trkpt><trkpt lat="38.5919817" lon="16.136945"><ele>103.0</ele><time>2026-05-03T06:15:51.482Z</time></trkpt><trkpt lat="38.5923167" lon="16.1370117"><ele>104.0</ele><time>2026-05-03T06:15:52.481Z</time></trkpt><trkpt lat="38.592655" lon="16.1370817"><ele>105.0</ele><time>2026-05-03T06:15:53.482Z</time></trkpt><trkpt lat="38.5929933" lon="16.1371567"><ele>106.0</ele><time>2026-05-03T06:15:54.483Z</time></trkpt><trkpt lat="38.5933283" lon="16.1372433"><ele>107.0</ele><time>2026-05-03T06:15:55.484Z</time></trkpt><trkpt lat="38.5936633" lon="16.137345"><ele>104.5</ele><time>2026-05-03T06:15:56.483Z</time></trkpt><trkpt lat="38.5939933" lon="16.1374583"><ele>102.0</ele><time>2026-05-03T06:15:57.481Z</time></trkpt><trkpt lat="38.5943233" lon="16.137585"><ele>102.5</ele><time>2026-05-03T06:15:58.481Z</time></trkpt><trkpt lat="38.59465" lon="16.137725"><ele>103.0</ele><time>2026-05-03T06:15:59.481Z</time></trkpt><trkpt lat="38.59497" lon="16.1378833"><ele>103.0</ele><time>2026-05-03T06:16:00.482Z</time></trkpt><trkpt lat="38.5952867" lon="16.1380617"><ele>103.0</ele><time>2026-05-03T06:16:01.482Z</time></trkpt><trkpt lat="38.595595" lon="16.1382483"><ele>103.5</ele><time>2026-05-03T06:16:02.482Z</time></trkpt><trkpt lat="38.5959" lon="16.138445"><ele>104.0</ele><time>2026-05-03T06:16:03.481Z</time></trkpt><trkpt lat="38.5962017" lon="16.1386533"><ele>104.5</ele><time>2026-05-03T06:16:04.482Z</time></trkpt><trkpt lat="38.5965" lon="16.13887"><ele>105.0</ele><time>2026-05-03T06:16:05.483Z</time></trkpt><trkpt lat="38.596795" lon="16.139095"><ele>109.0</ele><time>2026-05-03T06:16:06.482Z</time></trkpt><trkpt lat="38.5970883" lon="16.1393233"><ele>113.0</ele><time>2026-05-03T06:16:07.484Z</time></trkpt><trkpt lat="38.5973767" lon="16.1395533"><ele>113.0</ele><time>2026-05-03T06:16:08.482Z</time></trkpt><trkpt lat="38.5976683" lon="16.139785"><ele>113.0</ele><time>2026-05-03T06:16:09.483Z</time></trkpt><trkpt lat="38.59796" lon="16.1400117"><ele>112.5</ele><time>2026-05-03T06:16:10.482Z</time></trkpt><trkpt lat="38.5982533" lon="16.14024"><ele>112.0</ele><time>2026-05-03T06:16:11.483Z</time></trkpt><trkpt lat="38.5985467" lon="16.1404683"><ele>111.0</ele><time>2026-05-03T06:16:12.481Z</time></trkpt><trkpt lat="38.5988383" lon="16.1406983"><ele>110.0</ele><time>2026-05-03T06:16:13.483Z</time></trkpt><trkpt lat="38.5991333" lon="16.1409283"><ele>110.0</ele><time>2026-05-03T06:16:14.482Z</time></trkpt><trkpt lat="38.5994283" lon="16.141155"><ele>110.0</ele><time>2026-05-03T06:16:15.484Z</time></trkpt><trkpt lat="38.5997233" lon="16.1413833"><ele>107.5</ele><time>2026-05-03T06:16:16.482Z</time></trkpt><trkpt lat="38.60002" lon="16.141615"><ele>105.0</ele><time>2026-05-03T06:16:17.482Z</time></trkpt><trkpt lat="38.600315" lon="16.1418467"><ele>106.5</ele><time>2026-05-03T06:16:18.482Z</time></trkpt><trkpt lat="38.6006117" lon="16.142075"><ele>108.0</ele><time>2026-05-03T06:16:19.482Z</time></trkpt><trkpt lat="38.600905" lon="16.1423083"><ele>107.5</ele><time>2026-05-03T06:16:20.483Z</time></trkpt><trkpt lat="38.6011967" lon="16.1425483"><ele>107.0</ele><time>2026-05-03T06:16:21.482Z</time></trkpt><trkpt lat="38.6014833" lon="16.1427967"><ele>107.0</ele><time>2026-05-03T06:16:22.482Z</time></trkpt><trkpt lat="38.6017683" lon="16.14305"><ele>107.0</ele><time>2026-05-03T06:16:23.483Z</time></trkpt><trkpt lat="38.6020467" lon="16.143315"><ele>107.5</ele><time>2026-05-03T06:16:24.483Z</time></trkpt><trkpt lat="38.60232" lon="16.14359"><ele>108.0</ele><time>2026-05-03T06:16:25.485Z</time></trkpt><trkpt lat="38.6025883" lon="16.1438767"><ele>109.5</ele><time>2026-05-03T06:16:26.483Z</time></trkpt><trkpt lat="38.6028517" lon="16.1441667"><ele>111.0</ele><time>2026-05-03T06:16:27.483Z</time></trkpt><trkpt lat="38.6031133" lon="16.14446"><ele>111.0</ele><time>2026-05-03T06:16:28.483Z</time></trkpt><trkpt lat="38.603375" lon="16.1447517"><ele>111.0</ele><time>2026-05-03T06:16:29.483Z</time></trkpt><trkpt lat="38.6036383" lon="16.1450367"><ele>110.5</ele><time>2026-05-03T06:16:30.482Z</time></trkpt><trkpt lat="38.6039067" lon="16.1453167"><ele>110.0</ele><time>2026-05-03T06:16:31.483Z</time></trkpt><trkpt lat="38.604175" lon="16.145595"><ele>109.5</ele><time>2026-05-03T06:16:32.482Z</time></trkpt><trkpt lat="38.6044467" lon="16.145865"><ele>109.0</ele><time>2026-05-03T06:16:33.482Z</time></trkpt><trkpt lat="38.60472" lon="16.14613"><ele>111.0</ele><time>2026-05-03T06:16:34.482Z</time></trkpt><trkpt lat="38.6049983" lon="16.146385"><ele>113.0</ele><time>2026-05-03T06:16:35.482Z</time></trkpt><trkpt lat="38.6052783" lon="16.14663"><ele>115.0</ele><time>2026-05-03T06:16:36.482Z</time></trkpt><trkpt lat="38.6055633" lon="16.146865"><ele>117.0</ele><time>2026-05-03T06:16:37.482Z</time></trkpt><trkpt lat="38.6058533" lon="16.1470933"><ele>117.0</ele><time>2026-05-03T06:16:38.482Z</time></trkpt><trkpt lat="38.606145" lon="16.1473183"><ele>117.0</ele><time>2026-05-03T06:16:39.484Z</time></trkpt><trkpt lat="38.6064367" lon="16.1475417"><ele>114.5</ele><time>2026-05-03T06:16:40.482Z</time></trkpt><trkpt lat="38.6067317" lon="16.14776"><ele>112.0</ele><time>2026-05-03T06:16:41.482Z</time></trkpt><trkpt lat="38.607025" lon="16.1479783"><ele>112.0</ele><time>2026-05-03T06:16:42.482Z</time></trkpt><trkpt lat="38.6073183" lon="16.1481967"><ele>112.0</ele><time>2026-05-03T06:16:43.483Z</time></trkpt><trkpt lat="38.6076133" lon="16.14842"><ele>114.5</ele><time>2026-05-03T06:16:44.482Z</time></trkpt><trkpt lat="38.6079117" lon="16.1486433"><ele>117.0</ele><time>2026-05-03T06:16:45.482Z</time></trkpt><trkpt lat="38.60821" lon="16.1488683"><ele>115.0</ele><time>2026-05-03T06:16:46.483Z</time></trkpt><trkpt lat="38.6085083" lon="16.1490967"><ele>113.0</ele><time>2026-05-03T06:16:47.484Z</time></trkpt><trkpt lat="38.6088067" lon="16.1493267"><ele>113.0</ele><time>2026-05-03T06:16:48.484Z</time></trkpt><trkpt lat="38.6091067" lon="16.1495517"><ele>113.0</ele><time>2026-05-03T06:16:49.485Z</time></trkpt><trkpt lat="38.6094083" lon="16.1497767"><ele>112.0</ele><time>2026-05-03T06:16:50.484Z</time></trkpt><trkpt lat="38.6097083" lon="16.1500017"><ele>111.0</ele><time>2026-05-03T06:16:51.483Z</time></trkpt><trkpt lat="38.6100067" lon="16.1502317"><ele>111.0</ele><time>2026-05-03T06:16:52.483Z</time></trkpt><trkpt lat="38.6103" lon="16.150465"><ele>111.0</ele><time>2026-05-03T06:16:53.485Z</time></trkpt><trkpt lat="38.6105917" lon="16.1507"><ele>110.5</ele><time>2026-05-03T06:16:54.484Z</time></trkpt><trkpt lat="38.6108817" lon="16.1509367"><ele>110.0</ele><time>2026-05-03T06:16:55.484Z</time></trkpt><trkpt lat="38.6111683" lon="16.151185"><ele>110.0</ele><time>2026-05-03T06:16:56.484Z</time></trkpt><trkpt lat="38.6114533" lon="16.151435"><ele>110.0</ele><time>2026-05-03T06:16:57.485Z</time></trkpt><trkpt lat="38.6117333" lon="16.1516867"><ele>111.0</ele><time>2026-05-03T06:16:58.484Z</time></trkpt><trkpt lat="38.6120117" lon="16.151945"><ele>112.0</ele><time>2026-05-03T06:16:59.484Z</time></trkpt><trkpt lat="38.6122867" lon="16.1522067"><ele>113.0</ele><time>2026-05-03T06:17:00.483Z</time></trkpt><trkpt lat="38.6125567" lon="16.15247"><ele>114.0</ele><time>2026-05-03T06:17:01.482Z</time></trkpt><trkpt lat="38.6128267" lon="16.1527367"><ele>114.0</ele><time>2026-05-03T06:17:02.483Z</time></trkpt><trkpt lat="38.6130933" lon="16.1530083"><ele>114.0</ele><time>2026-05-03T06:17:03.481Z</time></trkpt><trkpt lat="38.6133567" lon="16.153285"><ele>114.5</ele><time>2026-05-03T06:17:04.481Z</time></trkpt><trkpt lat="38.6136183" lon="16.153565"><ele>115.0</ele><time>2026-05-03T06:17:05.482Z</time></trkpt><trkpt lat="38.61388" lon="16.1538483"><ele>115.5</ele><time>2026-05-03T06:17:06.482Z</time></trkpt><trkpt lat="38.61414" lon="16.1541333"><ele>116.0</ele><time>2026-05-03T06:17:07.482Z</time></trkpt><trkpt lat="38.6144033" lon="16.15442"><ele>116.0</ele><time>2026-05-03T06:17:08.483Z</time></trkpt><trkpt lat="38.6146667" lon="16.1547083"><ele>116.0</ele><time>2026-05-03T06:17:09.481Z</time></trkpt><trkpt lat="38.61493" lon="16.154995"><ele>115.0</ele><time>2026-05-03T06:17:10.482Z</time></trkpt><trkpt lat="38.6151983" lon="16.1552833"><ele>114.0</ele><time>2026-05-03T06:17:11.482Z</time></trkpt><trkpt lat="38.615465" lon="16.15557"><ele>117.0</ele><time>2026-05-03T06:17:12.481Z</time></trkpt><trkpt lat="38.615735" lon="16.1558533"><ele>120.0</ele><time>2026-05-03T06:17:13.482Z</time></trkpt><trkpt lat="38.6160083" lon="16.1561333"><ele>121.5</ele><time>2026-05-03T06:17:14.483Z</time></trkpt><trkpt lat="38.6162833" lon="16.1564067"><ele>123.0</ele><time>2026-05-03T06:17:15.481Z</time></trkpt><trkpt lat="38.6165633" lon="16.1566733"><ele>123.0</ele><time>2026-05-03T06:17:16.481Z</time></trkpt><trkpt lat="38.61685" lon="16.1569317"><ele>123.0</ele><time>2026-05-03T06:17:17.483Z</time></trkpt><trkpt lat="38.6171417" lon="16.1571783"><ele>122.0</ele><time>2026-05-03T06:17:18.484Z</time></trkpt><trkpt lat="38.6174383" lon="16.1574183"><ele>121.0</ele><time>2026-05-03T06:17:19.486Z</time></trkpt><trkpt lat="38.61774" lon="16.1576517"><ele>118.0</ele><time>2026-05-03T06:17:20.485Z</time></trkpt><trkpt lat="38.618045" lon="16.1578783"><ele>115.0</ele><time>2026-05-03T06:17:21.483Z</time></trkpt><trkpt lat="38.6183533" lon="16.1581"><ele>116.0</ele><time>2026-05-03T06:17:22.485Z</time></trkpt><trkpt lat="38.6186667" lon="16.1583133"><ele>117.0</ele><time>2026-05-03T06:17:23.484Z</time></trkpt><trkpt lat="38.6189833" lon="16.1585183"><ele>117.0</ele><time>2026-05-03T06:17:24.483Z</time></trkpt><trkpt lat="38.6193017" lon="16.1587083"><ele>117.0</ele><time>2026-05-03T06:17:25.484Z</time></trkpt><trkpt lat="38.6196217" lon="16.158885"><ele>117.0</ele><time>2026-05-03T06:17:26.483Z</time></trkpt><trkpt lat="38.619945" lon="16.1590467"><ele>117.0</ele><time>2026-05-03T06:17:27.482Z</time></trkpt><trkpt lat="38.6202733" lon="16.1592117"><ele>116.5</ele><time>2026-05-03T06:17:28.483Z</time></trkpt><trkpt lat="38.620605" lon="16.1593667"><ele>116.0</ele><time>2026-05-03T06:17:29.482Z</time></trkpt><trkpt lat="38.6209333" lon="16.1595133"><ele>115.0</ele><time>2026-05-03T06:17:30.483Z</time></trkpt><trkpt lat="38.62126" lon="16.1596533"><ele>114.0</ele><time>2026-05-03T06:17:31.482Z</time></trkpt><trkpt lat="38.621585" lon="16.1597833"><ele>119.5</ele><time>2026-05-03T06:17:32.485Z</time></trkpt><trkpt lat="38.62191" lon="16.159905"><ele>125.0</ele><time>2026-05-03T06:17:33.481Z</time></trkpt><trkpt lat="38.6222317" lon="16.1600233"><ele>125.0</ele><time>2026-05-03T06:17:34.482Z</time></trkpt><trkpt lat="38.6225517" lon="16.16014"><ele>125.0</ele><time>2026-05-03T06:17:35.483Z</time></trkpt><trkpt lat="38.6228717" lon="16.1602517"><ele>124.5</ele><time>2026-05-03T06:17:36.481Z</time></trkpt><trkpt lat="38.62319" lon="16.1603633"><ele>124.0</ele><time>2026-05-03T06:17:37.483Z</time></trkpt><trkpt lat="38.62351" lon="16.16048"><ele>123.5</ele><time>2026-05-03T06:17:38.482Z</time></trkpt><trkpt lat="38.62383" lon="16.1606033"><ele>123.0</ele><time>2026-05-03T06:17:39.483Z</time></trkpt><trkpt lat="38.6241533" lon="16.1607317"><ele>123.0</ele><time>2026-05-03T06:17:40.483Z</time></trkpt><trkpt lat="38.6244767" lon="16.1608683"><ele>123.0</ele><time>2026-05-03T06:17:41.481Z</time></trkpt><trkpt lat="38.6247967" lon="16.1610133"><ele>123.0</ele><time>2026-05-03T06:17:42.483Z</time></trkpt><trkpt lat="38.6251133" lon="16.1611717"><ele>123.0</ele><time>2026-05-03T06:17:43.481Z</time></trkpt><trkpt lat="38.6254333" lon="16.161335"><ele>121.5</ele><time>2026-05-03T06:17:44.488Z</time></trkpt><trkpt lat="38.6257483" lon="16.1615033"><ele>120.0</ele><time>2026-05-03T06:17:45.481Z</time></trkpt><trkpt lat="38.62606" lon="16.16169"><ele>121.0</ele><time>2026-05-03T06:17:46.483Z</time></trkpt><trkpt lat="38.62637" lon="16.16189"><ele>122.0</ele><time>2026-05-03T06:17:47.483Z</time></trkpt><trkpt lat="38.62668" lon="16.1620967"><ele>121.5</ele><time>2026-05-03T06:17:48.482Z</time></trkpt><trkpt lat="38.6269883" lon="16.162315"><ele>121.0</ele><time>2026-05-03T06:17:49.484Z</time></trkpt><trkpt lat="38.62729" lon="16.1625417"><ele>121.5</ele><time>2026-05-03T06:17:50.483Z</time></trkpt><trkpt lat="38.627585" lon="16.1627767"><ele>122.0</ele><time>2026-05-03T06:17:51.482Z</time></trkpt><trkpt lat="38.627875" lon="16.163015"><ele>123.0</ele><time>2026-05-03T06:17:52.482Z</time></trkpt><trkpt lat="38.6281583" lon="16.1632567"><ele>124.0</ele><time>2026-05-03T06:17:53.485Z</time></trkpt><trkpt lat="38.6284367" lon="16.1635117"><ele>124.0</ele><time>2026-05-03T06:17:54.482Z</time></trkpt><trkpt lat="38.6287083" lon="16.1637783"><ele>124.0</ele><time>2026-05-03T06:17:55.481Z</time></trkpt><trkpt lat="38.6289783" lon="16.1640483"><ele>124.5</ele><time>2026-05-03T06:17:56.483Z</time></trkpt><trkpt lat="38.6292433" lon="16.1643233"><ele>125.0</ele><time>2026-05-03T06:17:57.482Z</time></trkpt><trkpt lat="38.6295033" lon="16.1646067"><ele>126.5</ele><time>2026-05-03T06:17:58.484Z</time></trkpt><trkpt lat="38.6297533" lon="16.1648967"><ele>128.0</ele><time>2026-05-03T06:17:59.481Z</time></trkpt><trkpt lat="38.629995" lon="16.16519"><ele>128.0</ele><time>2026-05-03T06:18:00.482Z</time></trkpt><trkpt lat="38.6302317" lon="16.1654867"><ele>128.0</ele><time>2026-05-03T06:18:01.481Z</time></trkpt><trkpt lat="38.6304633" lon="16.1657883"><ele>129.0</ele><time>2026-05-03T06:18:02.483Z</time></trkpt><trkpt lat="38.63069" lon="16.1660933"><ele>130.0</ele><time>2026-05-03T06:18:03.482Z</time></trkpt><trkpt lat="38.63091" lon="16.1664033"><ele>129.5</ele><time>2026-05-03T06:18:04.482Z</time></trkpt><trkpt lat="38.631125" lon="16.16672"><ele>129.0</ele><time>2026-05-03T06:18:05.481Z</time></trkpt><trkpt lat="38.631335" lon="16.1670417"><ele>132.5</ele><time>2026-05-03T06:18:06.482Z</time></trkpt><trkpt lat="38.63154" lon="16.167375"><ele>136.0</ele><time>2026-05-03T06:18:07.481Z</time></trkpt><trkpt lat="38.63174" lon="16.167715"><ele>136.0</ele><time>2026-05-03T06:18:08.482Z</time></trkpt><trkpt lat="38.6319367" lon="16.16806"><ele>136.0</ele><time>2026-05-03T06:18:09.482Z</time></trkpt><trkpt lat="38.6321267" lon="16.168415"><ele>132.5</ele><time>2026-05-03T06:18:10.481Z</time></trkpt><trkpt lat="38.632315" lon="16.16877"><ele>129.0</ele><time>2026-05-03T06:18:11.482Z</time></trkpt><trkpt lat="38.6325017" lon="16.169125"><ele>129.0</ele><time>2026-05-03T06:18:12.483Z</time></trkpt><trkpt lat="38.6326867" lon="16.169485"><ele>129.0</ele><time>2026-05-03T06:18:13.482Z</time></trkpt><trkpt lat="38.6328717" lon="16.1698467"><ele>129.0</ele><time>2026-05-03T06:18:14.482Z</time></trkpt><trkpt lat="38.6330567" lon="16.1702033"><ele>129.0</ele><time>2026-05-03T06:18:15.482Z</time></trkpt><trkpt lat="38.6332483" lon="16.1705583"><ele>128.0</ele><time>2026-05-03T06:18:16.482Z</time></trkpt><trkpt lat="38.63344" lon="16.170915"><ele>127.0</ele><time>2026-05-03T06:18:17.482Z</time></trkpt><trkpt lat="38.6336333" lon="16.17127"><ele>129.5</ele><time>2026-05-03T06:18:18.482Z</time></trkpt><trkpt lat="38.633825" lon="16.1716267"><ele>132.0</ele><time>2026-05-03T06:18:19.482Z</time></trkpt><trkpt lat="38.6340217" lon="16.1719817"><ele>132.0</ele><time>2026-05-03T06:18:20.483Z</time></trkpt><trkpt lat="38.6342217" lon="16.172335"><ele>132.0</ele><time>2026-05-03T06:18:21.483Z</time></trkpt><trkpt lat="38.6344267" lon="16.17268"><ele>131.5</ele><time>2026-05-03T06:18:22.483Z</time></trkpt><trkpt lat="38.6346317" lon="16.1730267"><ele>131.0</ele><time>2026-05-03T06:18:23.483Z</time></trkpt><trkpt lat="38.63484" lon="16.1733717"><ele>131.0</ele><time>2026-05-03T06:18:24.481Z</time></trkpt><trkpt lat="38.6350533" lon="16.173715"><ele>131.0</ele><time>2026-05-03T06:18:25.481Z</time></trkpt><trkpt lat="38.6352683" lon="16.17406"><ele>131.5</ele><time>2026-05-03T06:18:26.482Z</time></trkpt><trkpt lat="38.635485" lon="16.1744"><ele>132.0</ele><time>2026-05-03T06:18:27.483Z</time></trkpt><trkpt lat="38.6357067" lon="16.174735"><ele>132.0</ele><time>2026-05-03T06:18:28.482Z</time></trkpt><trkpt lat="38.6359333" lon="16.175065"><ele>132.0</ele><time>2026-05-03T06:18:29.482Z</time></trkpt><trkpt lat="38.6361617" lon="16.175395"><ele>132.0</ele><time>2026-05-03T06:18:30.484Z</time></trkpt><trkpt lat="38.6363917" lon="16.1757183"><ele>132.0</ele><time>2026-05-03T06:18:31.482Z</time></trkpt><trkpt lat="38.6366267" lon="16.1760417"><ele>132.0</ele><time>2026-05-03T06:18:32.484Z</time></trkpt><trkpt lat="38.636865" lon="16.1763617"><ele>132.0</ele><time>2026-05-03T06:18:33.482Z</time></trkpt><trkpt lat="38.6371033" lon="16.1766817"><ele>133.0</ele><time>2026-05-03T06:18:34.482Z</time></trkpt><trkpt lat="38.6373467" lon="16.1769933"><ele>134.0</ele><time>2026-05-03T06:18:35.482Z</time></trkpt><trkpt lat="38.6375933" lon="16.1773017"><ele>134.5</ele><time>2026-05-03T06:18:36.483Z</time></trkpt><trkpt lat="38.637845" lon="16.17761"><ele>135.0</ele><time>2026-05-03T06:18:37.481Z</time></trkpt><trkpt lat="38.6381" lon="16.1779133"><ele>136.0</ele><time>2026-05-03T06:18:38.483Z</time></trkpt><trkpt lat="38.6383567" lon="16.1782183"><ele>137.0</ele><time>2026-05-03T06:18:39.481Z</time></trkpt><trkpt lat="38.6386167" lon="16.1785217"><ele>136.5</ele><time>2026-05-03T06:18:40.482Z</time></trkpt><trkpt lat="38.6388833" lon="16.178825"><ele>136.0</ele><time>2026-05-03T06:18:41.482Z</time></trkpt><trkpt lat="38.6391517" lon="16.1791217"><ele>136.5</ele><time>2026-05-03T06:18:42.484Z</time></trkpt><trkpt lat="38.6394217" lon="16.1794183"><ele>137.0</ele><time>2026-05-03T06:18:43.482Z</time></trkpt><trkpt lat="38.639695" lon="16.17971"><ele>140.5</ele><time>2026-05-03T06:18:44.483Z</time></trkpt><trkpt lat="38.63997" lon="16.1799917"><ele>144.0</ele><time>2026-05-03T06:18:45.483Z</time></trkpt><trkpt lat="38.64025" lon="16.1802717"><ele>145.0</ele><time>2026-05-03T06:18:46.485Z</time></trkpt><trkpt lat="38.6405317" lon="16.18055"><ele>146.0</ele><time>2026-05-03T06:18:47.484Z</time></trkpt><trkpt lat="38.6408167" lon="16.1808233"><ele>146.0</ele><time>2026-05-03T06:18:48.484Z</time></trkpt><trkpt lat="38.641105" lon="16.181095"><ele>146.0</ele><time>2026-05-03T06:18:49.483Z</time></trkpt><trkpt lat="38.6413933" lon="16.18136"><ele>142.5</ele><time>2026-05-03T06:18:50.485Z</time></trkpt><trkpt lat="38.641685" lon="16.1816167"><ele>139.0</ele><time>2026-05-03T06:18:51.484Z</time></trkpt><trkpt lat="38.6419733" lon="16.1818717"><ele>139.0</ele><time>2026-05-03T06:18:52.483Z</time></trkpt><trkpt lat="38.64226" lon="16.1821183"><ele>139.0</ele><time>2026-05-03T06:18:53.484Z</time></trkpt><trkpt lat="38.6425483" lon="16.1823617"><ele>140.0</ele><time>2026-05-03T06:18:54.482Z</time></trkpt><trkpt lat="38.6428383" lon="16.1825983"><ele>141.0</ele><time>2026-05-03T06:18:55.481Z</time></trkpt><trkpt lat="38.6431283" lon="16.18283"><ele>141.0</ele><time>2026-05-03T06:18:56.483Z</time></trkpt><trkpt lat="38.6434183" lon="16.1830567"><ele>141.0</ele><time>2026-05-03T06:18:57.483Z</time></trkpt><trkpt lat="38.6437083" lon="16.18328"><ele>141.5</ele><time>2026-05-03T06:18:58.481Z</time></trkpt><trkpt lat="38.644" lon="16.1835"><ele>142.0</ele><time>2026-05-03T06:18:59.481Z</time></trkpt><trkpt lat="38.6442967" lon="16.1837217"><ele>141.5</ele><time>2026-05-03T06:19:00.483Z</time></trkpt><trkpt lat="38.6445967" lon="16.1839417"><ele>141.0</ele><time>2026-05-03T06:19:01.481Z</time></trkpt><trkpt lat="38.6449" lon="16.1841567"><ele>141.0</ele><time>2026-05-03T06:19:02.483Z</time></trkpt><trkpt lat="38.645205" lon="16.1843667"><ele>141.0</ele><time>2026-05-03T06:19:03.481Z</time></trkpt><trkpt lat="38.6455133" lon="16.1845767"><ele>141.0</ele><time>2026-05-03T06:19:04.483Z</time></trkpt><trkpt lat="38.6458217" lon="16.1847833"><ele>141.0</ele><time>2026-05-03T06:19:05.482Z</time></trkpt><trkpt lat="38.64613" lon="16.1849883"><ele>142.0</ele><time>2026-05-03T06:19:06.482Z</time></trkpt><trkpt lat="38.6464367" lon="16.1851967"><ele>143.0</ele><time>2026-05-03T06:19:07.483Z</time></trkpt><trkpt lat="38.6467433" lon="16.1854117"><ele>143.5</ele><time>2026-05-03T06:19:08.484Z</time></trkpt><trkpt lat="38.64705" lon="16.185625"><ele>144.0</ele><time>2026-05-03T06:19:09.482Z</time></trkpt><trkpt lat="38.6473567" lon="16.1858417"><ele>144.0</ele><time>2026-05-03T06:19:10.487Z</time></trkpt><trkpt lat="38.647665" lon="16.186055"><ele>144.0</ele><time>2026-05-03T06:19:11.482Z</time></trkpt><trkpt lat="38.6479733" lon="16.1862633"><ele>144.0</ele><time>2026-05-03T06:19:12.483Z</time></trkpt><trkpt lat="38.6482783" lon="16.1864717"><ele>144.0</ele><time>2026-05-03T06:19:13.482Z</time></trkpt><trkpt lat="38.6485833" lon="16.1866783"><ele>145.0</ele><time>2026-05-03T06:19:14.486Z</time></trkpt><trkpt lat="38.6488883" lon="16.1868817"><ele>146.0</ele><time>2026-05-03T06:19:15.482Z</time></trkpt><trkpt lat="38.6491933" lon="16.187085"><ele>146.5</ele><time>2026-05-03T06:19:16.482Z</time></trkpt><trkpt lat="38.6494967" lon="16.18728"><ele>147.0</ele><time>2026-05-03T06:19:17.482Z</time></trkpt><trkpt lat="38.6498" lon="16.1874733"><ele>147.0</ele><time>2026-05-03T06:19:18.482Z</time></trkpt><trkpt lat="38.6501017" lon="16.1876633"><ele>147.0</ele><time>2026-05-03T06:19:19.484Z</time></trkpt><trkpt lat="38.6504033" lon="16.1878483"><ele>147.5</ele><time>2026-05-03T06:19:20.483Z</time></trkpt><trkpt lat="38.650705" lon="16.188025"><ele>148.0</ele><time>2026-05-03T06:19:21.482Z</time></trkpt><trkpt lat="38.6510083" lon="16.188195"><ele>159.0</ele><time>2026-05-03T06:19:22.481Z</time></trkpt><trkpt lat="38.6513133" lon="16.1883567"><ele>170.0</ele><time>2026-05-03T06:19:23.483Z</time></trkpt><trkpt lat="38.65162" lon="16.1885167"><ele>170.0</ele><time>2026-05-03T06:19:24.482Z</time></trkpt><trkpt lat="38.6519267" lon="16.18868"><ele>170.0</ele><time>2026-05-03T06:19:25.481Z</time></trkpt><trkpt lat="38.6522317" lon="16.188845"><ele>171.0</ele><time>2026-05-03T06:19:26.483Z</time></trkpt><trkpt lat="38.65656" lon="16.189595"><ele>171.0</ele><time>2026-05-03T06:19:39.48Z</time></trkpt><trkpt lat="38.6569067" lon="16.18955"><ele>171.0</ele><time>2026-05-03T06:19:40.484Z</time></trkpt><trkpt lat="38.65725" lon="16.1895033"><ele>167.5</ele><time>2026-05-03T06:19:41.484Z</time></trkpt><trkpt lat="38.657595" lon="16.1894367"><ele>164.0</ele><time>2026-05-03T06:19:42.482Z</time></trkpt><trkpt lat="38.6579417" lon="16.1893617"><ele>160.0</ele><time>2026-05-03T06:19:43.483Z</time></trkpt><trkpt lat="38.658285" lon="16.18928"><ele>156.0</ele><time>2026-05-03T06:19:44.484Z</time></trkpt><trkpt lat="38.658625" lon="16.18919"><ele>155.5</ele><time>2026-05-03T06:19:45.484Z</time></trkpt><trkpt lat="38.6589617" lon="16.1890883"><ele>155.0</ele><time>2026-05-03T06:19:46.482Z</time></trkpt><trkpt lat="38.6593" lon="16.188975"><ele>158.5</ele><time>2026-05-03T06:19:47.481Z</time></trkpt><trkpt lat="38.659635" lon="16.18885"><ele>162.0</ele><time>2026-05-03T06:19:48.483Z</time></trkpt><trkpt lat="38.6599667" lon="16.188715"><ele>162.5</ele><time>2026-05-03T06:19:49.48Z</time></trkpt><trkpt lat="38.6602983" lon="16.18857"><ele>163.0</ele><time>2026-05-03T06:19:50.482Z</time></trkpt><trkpt lat="38.6606267" lon="16.1884233"><ele>163.0</ele><time>2026-05-03T06:19:51.482Z</time></trkpt><trkpt lat="38.6609517" lon="16.1882733"><ele>163.0</ele><time>2026-05-03T06:19:52.481Z</time></trkpt><trkpt lat="38.6612767" lon="16.18812"><ele>169.0</ele><time>2026-05-03T06:19:53.481Z</time></trkpt><trkpt lat="38.6615983" lon="16.18796"><ele>175.0</ele><time>2026-05-03T06:19:54.48Z</time></trkpt><trkpt lat="38.66192" lon="16.1877983"><ele>171.0</ele><time>2026-05-03T06:19:55.482Z</time></trkpt><trkpt lat="38.6622417" lon="16.1876383"><ele>167.0</ele><time>2026-05-03T06:19:56.483Z</time></trkpt><trkpt lat="38.662565" lon="16.1874783"><ele>172.5</ele><time>2026-05-03T06:19:57.483Z</time></trkpt><trkpt lat="38.662885" lon="16.18732"><ele>178.0</ele><time>2026-05-03T06:19:58.48Z</time></trkpt><trkpt lat="38.6632077" lon="16.1871596"><ele>178.0</ele><time>2026-05-03T06:19:59.482Z</time></trkpt><trkpt lat="38.66353" lon="16.186998"><ele>178.0</ele><time>2026-05-03T06:20:00.482Z</time></trkpt><trkpt lat="38.6638514" lon="16.1868331"><ele>173.5</ele><time>2026-05-03T06:20:01.482Z</time></trkpt><trkpt lat="38.664174" lon="16.1866692"><ele>169.0</ele><time>2026-05-03T06:20:02.483Z</time></trkpt><trkpt lat="38.6644969" lon="16.1865057"><ele>169.0</ele><time>2026-05-03T06:20:03.482Z</time></trkpt><trkpt lat="38.6648202" lon="16.1863423"><ele>169.0</ele><time>2026-05-03T06:20:04.482Z</time></trkpt><trkpt lat="38.6651419" lon="16.1861803"><ele>165.5</ele><time>2026-05-03T06:20:05.481Z</time></trkpt><trkpt lat="38.6654607" lon="16.1860177"><ele>162.0</ele><time>2026-05-03T06:20:06.481Z</time></trkpt><trkpt lat="38.6657788" lon="16.1858571"><ele>162.0</ele><time>2026-05-03T06:20:07.483Z</time></trkpt><trkpt lat="38.6660955" lon="16.1856935"><ele>162.0</ele><time>2026-05-03T06:20:08.484Z</time></trkpt><trkpt lat="38.6664091" lon="16.1855235"><ele>164.0</ele><time>2026-05-03T06:20:09.483Z</time></trkpt><trkpt lat="38.666722" lon="16.1853478"><ele>166.0</ele><time>2026-05-03T06:20:10.481Z</time></trkpt><trkpt lat="38.6670336" lon="16.1851632"><ele>166.0</ele><time>2026-05-03T06:20:11.482Z</time></trkpt><trkpt lat="38.6673394" lon="16.1849637"><ele>166.0</ele><time>2026-05-03T06:20:12.481Z</time></trkpt><trkpt lat="38.6676399" lon="16.1847492"><ele>172.0</ele><time>2026-05-03T06:20:13.483Z</time></trkpt><trkpt lat="38.667938" lon="16.1845275"><ele>178.0</ele><time>2026-05-03T06:20:14.482Z</time></trkpt><trkpt lat="38.6682322" lon="16.1842966"><ele>178.0</ele><time>2026-05-03T06:20:15.48Z</time></trkpt><trkpt lat="38.6685222" lon="16.1840549"><ele>178.0</ele><time>2026-05-03T06:20:16.483Z</time></trkpt><trkpt lat="38.668811" lon="16.1838068"><ele>181.0</ele><time>2026-05-03T06:20:17.483Z</time></trkpt><trkpt lat="38.6690977" lon="16.1835514"><ele>184.0</ele><time>2026-05-03T06:20:18.48Z</time></trkpt><trkpt lat="38.6693837" lon="16.1832919"><ele>190.0</ele><time>2026-05-03T06:20:19.482Z</time></trkpt><trkpt lat="38.6696703" lon="16.1830329"><ele>196.0</ele><time>2026-05-03T06:20:20.482Z</time></trkpt><trkpt lat="38.669957" lon="16.1827742"><ele>196.0</ele><time>2026-05-03T06:20:21.482Z</time></trkpt><trkpt lat="38.6702453" lon="16.182513"><ele>196.0</ele><time>2026-05-03T06:20:22.482Z</time></trkpt><trkpt lat="38.6705311" lon="16.1822525"><ele>196.5</ele><time>2026-05-03T06:20:23.482Z</time></trkpt><trkpt lat="38.6708179" lon="16.1819885"><ele>197.0</ele><time>2026-05-03T06:20:24.483Z</time></trkpt><trkpt lat="38.6711068" lon="16.181725"><ele>198.5</ele><time>2026-05-03T06:20:25.482Z</time></trkpt><trkpt lat="38.6713965" lon="16.1814641"><ele>200.0</ele><time>2026-05-03T06:20:26.481Z</time></trkpt><trkpt lat="38.6716843" lon="16.1812001"><ele>195.5</ele><time>2026-05-03T06:20:27.481Z</time></trkpt><trkpt lat="38.6719713" lon="16.1809364"><ele>191.0</ele><time>2026-05-03T06:20:28.482Z</time></trkpt><trkpt lat="38.6722603" lon="16.1806767"><ele>191.0</ele><time>2026-05-03T06:20:29.482Z</time></trkpt><trkpt lat="38.6725477" lon="16.1804147"><ele>191.0</ele><time>2026-05-03T06:20:30.483Z</time></trkpt><trkpt lat="38.6728333" lon="16.1801519"><ele>189.5</ele><time>2026-05-03T06:20:31.483Z</time></trkpt><trkpt lat="38.6731156" lon="16.1798865"><ele>188.0</ele><time>2026-05-03T06:20:32.483Z</time></trkpt><trkpt lat="38.6733963" lon="16.1796219"><ele>195.0</ele><time>2026-05-03T06:20:33.481Z</time></trkpt><trkpt lat="38.6736763" lon="16.1793597"><ele>202.0</ele><time>2026-05-03T06:20:34.483Z</time></trkpt><trkpt lat="38.673955" lon="16.1791032"><ele>205.5</ele><time>2026-05-03T06:20:35.481Z</time></trkpt><trkpt lat="38.6742332" lon="16.1788471"><ele>209.0</ele><time>2026-05-03T06:20:36.482Z</time></trkpt><trkpt lat="38.6745101" lon="16.1785921"><ele>209.0</ele><time>2026-05-03T06:20:37.481Z</time></trkpt><trkpt lat="38.6747852" lon="16.1783358"><ele>209.0</ele><time>2026-05-03T06:20:38.482Z</time></trkpt><trkpt lat="38.6750581" lon="16.1780774"><ele>208.0</ele><time>2026-05-03T06:20:39.48Z</time></trkpt><trkpt lat="38.6753313" lon="16.1778199"><ele>207.0</ele><time>2026-05-03T06:20:40.48Z</time></trkpt><trkpt lat="38.6756044" lon="16.1775618"><ele>212.0</ele><time>2026-05-03T06:20:41.481Z</time></trkpt><trkpt lat="38.6758777" lon="16.1773059"><ele>217.0</ele><time>2026-05-03T06:20:42.482Z</time></trkpt><trkpt lat="38.6761534" lon="16.1770495"><ele>217.0</ele><time>2026-05-03T06:20:43.481Z</time></trkpt><trkpt lat="38.6764273" lon="16.1767901"><ele>217.0</ele><time>2026-05-03T06:20:44.482Z</time></trkpt><trkpt lat="38.6766966" lon="16.1765215"><ele>215.0</ele><time>2026-05-03T06:20:45.481Z</time></trkpt><trkpt lat="38.6769647" lon="16.1762424"><ele>213.0</ele><time>2026-05-03T06:20:46.483Z</time></trkpt><trkpt lat="38.6772284" lon="16.1759545"><ele>214.5</ele><time>2026-05-03T06:20:47.482Z</time></trkpt><trkpt lat="38.6774883" lon="16.1756594"><ele>216.0</ele><time>2026-05-03T06:20:48.484Z</time></trkpt><trkpt lat="38.677748" lon="16.1753598"><ele>207.0</ele><time>2026-05-03T06:20:49.485Z</time></trkpt><trkpt lat="38.6780033" lon="16.1750538"><ele>198.0</ele><time>2026-05-03T06:20:50.482Z</time></trkpt><trkpt lat="38.6782578" lon="16.1747431"><ele>198.0</ele><time>2026-05-03T06:20:51.482Z</time></trkpt><trkpt lat="38.6785102" lon="16.174431"><ele>198.0</ele><time>2026-05-03T06:20:52.482Z</time></trkpt><trkpt lat="38.6787614" lon="16.1741168"><ele>199.0</ele><time>2026-05-03T06:20:53.482Z</time></trkpt><trkpt lat="38.6790115" lon="16.1737989"><ele>200.0</ele><time>2026-05-03T06:20:54.483Z</time></trkpt><trkpt lat="38.6792553" lon="16.1734732"><ele>214.0</ele><time>2026-05-03T06:20:55.482Z</time></trkpt><trkpt lat="38.6794905" lon="16.1731395"><ele>228.0</ele><time>2026-05-03T06:20:56.482Z</time></trkpt><trkpt lat="38.6797181" lon="16.1727992"><ele>228.0</ele><time>2026-05-03T06:20:57.48Z</time></trkpt><trkpt lat="38.6799398" lon="16.1724539"><ele>228.0</ele><time>2026-05-03T06:20:58.482Z</time></trkpt><trkpt lat="38.6801551" lon="16.172104"><ele>228.0</ele><time>2026-05-03T06:20:59.481Z</time></trkpt><trkpt lat="38.6803654" lon="16.1717509"><ele>228.0</ele><time>2026-05-03T06:21:00.485Z</time></trkpt><trkpt lat="38.6805716" lon="16.1713998"><ele>228.0</ele><time>2026-05-03T06:21:01.482Z</time></trkpt><trkpt lat="38.6807721" lon="16.1710448"><ele>228.0</ele><time>2026-05-03T06:21:02.481Z</time></trkpt><trkpt lat="38.6809657" lon="16.1706863"><ele>228.5</ele><time>2026-05-03T06:21:03.482Z</time></trkpt><trkpt lat="38.681153" lon="16.1703214"><ele>229.0</ele><time>2026-05-03T06:21:04.482Z</time></trkpt><trkpt lat="38.6813335" lon="16.1699528"><ele>237.5</ele><time>2026-05-03T06:21:05.481Z</time></trkpt><trkpt lat="38.6815098" lon="16.1695809"><ele>246.0</ele><time>2026-05-03T06:21:06.481Z</time></trkpt><trkpt lat="38.6816803" lon="16.1692042"><ele>243.0</ele><time>2026-05-03T06:21:07.482Z</time></trkpt><trkpt lat="38.6818456" lon="16.1688192"><ele>240.0</ele><time>2026-05-03T06:21:08.482Z</time></trkpt><trkpt lat="38.6820054" lon="16.1684293"><ele>245.0</ele><time>2026-05-03T06:21:09.482Z</time></trkpt><trkpt lat="38.6821615" lon="16.1680372"><ele>250.0</ele><time>2026-05-03T06:21:10.481Z</time></trkpt><trkpt lat="38.6823161" lon="16.1676471"><ele>254.0</ele><time>2026-05-03T06:21:11.482Z</time></trkpt><trkpt lat="38.6824692" lon="16.1672559"><ele>258.0</ele><time>2026-05-03T06:21:12.482Z</time></trkpt><trkpt lat="38.682622" lon="16.166861"><ele>254.0</ele><time>2026-05-03T06:21:13.482Z</time></trkpt><trkpt lat="38.6827724" lon="16.1664687"><ele>250.0</ele><time>2026-05-03T06:21:14.481Z</time></trkpt><trkpt lat="38.6829253" lon="16.1660784"><ele>252.5</ele><time>2026-05-03T06:21:15.48Z</time></trkpt><trkpt lat="38.6830802" lon="16.1656911"><ele>255.0</ele><time>2026-05-03T06:21:16.483Z</time></trkpt><trkpt lat="38.6832408" lon="16.1653108"><ele>255.0</ele><time>2026-05-03T06:21:17.481Z</time></trkpt><trkpt lat="38.6834155" lon="16.1649411"><ele>255.0</ele><time>2026-05-03T06:21:18.481Z</time></trkpt><trkpt lat="38.6836031" lon="16.1645829"><ele>254.0</ele><time>2026-05-03T06:21:19.486Z</time></trkpt><trkpt lat="38.6838064" lon="16.1642395"><ele>253.0</ele><time>2026-05-03T06:21:20.482Z</time></trkpt><trkpt lat="38.6840251" lon="16.1639074"><ele>254.5</ele><time>2026-05-03T06:21:21.482Z</time></trkpt><trkpt lat="38.6842571" lon="16.1635888"><ele>256.0</ele><time>2026-05-03T06:21:22.482Z</time></trkpt><trkpt lat="38.6845015" lon="16.1632813"><ele>267.5</ele><time>2026-05-03T06:21:23.481Z</time></trkpt><trkpt lat="38.6847593" lon="16.1629833"><ele>279.0</ele><time>2026-05-03T06:21:24.481Z</time></trkpt><trkpt lat="38.6850295" lon="16.1626979"><ele>274.5</ele><time>2026-05-03T06:21:25.484Z</time></trkpt><trkpt lat="38.6853102" lon="16.1624269"><ele>270.0</ele><time>2026-05-03T06:21:26.481Z</time></trkpt><trkpt lat="38.6855914" lon="16.1621574"><ele>270.0</ele><time>2026-05-03T06:21:27.481Z</time></trkpt><trkpt lat="38.6858718" lon="16.161882"><ele>270.0</ele><time>2026-05-03T06:21:28.48Z</time></trkpt><trkpt lat="38.6861495" lon="16.1615981"><ele>273.5</ele><time>2026-05-03T06:21:29.481Z</time></trkpt><trkpt lat="38.686429" lon="16.1613152"><ele>277.0</ele><time>2026-05-03T06:21:30.48Z</time></trkpt><trkpt lat="38.6867079" lon="16.1610304"><ele>275.5</ele><time>2026-05-03T06:21:31.483Z</time></trkpt><trkpt lat="38.6869858" lon="16.160746"><ele>274.0</ele><time>2026-05-03T06:21:32.481Z</time></trkpt><trkpt lat="38.6872643" lon="16.1604622"><ele>276.0</ele><time>2026-05-03T06:21:33.482Z</time></trkpt><trkpt lat="38.6875437" lon="16.16018"><ele>278.0</ele><time>2026-05-03T06:21:34.481Z</time></trkpt><trkpt lat="38.6878198" lon="16.1598984"><ele>286.0</ele><time>2026-05-03T06:21:35.482Z</time></trkpt><trkpt lat="38.6880944" lon="16.1596199"><ele>294.0</ele><time>2026-05-03T06:21:36.482Z</time></trkpt><trkpt lat="38.6883663" lon="16.159347"><ele>295.5</ele><time>2026-05-03T06:21:37.482Z</time></trkpt><trkpt lat="38.6886376" lon="16.1590797"><ele>297.0</ele><time>2026-05-03T06:21:38.48Z</time></trkpt><trkpt lat="38.6889134" lon="16.1588197"><ele>297.0</ele><time>2026-05-03T06:21:39.481Z</time></trkpt><trkpt lat="38.6892" lon="16.1585766"><ele>297.0</ele><time>2026-05-03T06:21:40.481Z</time></trkpt><trkpt lat="38.6894949" lon="16.1583491"><ele>303.5</ele><time>2026-05-03T06:21:41.48Z</time></trkpt><trkpt lat="38.6897955" lon="16.1581362"><ele>310.0</ele><time>2026-05-03T06:21:42.482Z</time></trkpt><trkpt lat="38.6901026" lon="16.1579357"><ele>307.5</ele><time>2026-05-03T06:21:43.48Z</time></trkpt><trkpt lat="38.6904175" lon="16.1577443"><ele>305.0</ele><time>2026-05-03T06:21:44.483Z</time></trkpt><trkpt lat="38.6907375" lon="16.1575672"><ele>305.0</ele><time>2026-05-03T06:21:45.481Z</time></trkpt><trkpt lat="38.6910642" lon="16.157409"><ele>305.0</ele><time>2026-05-03T06:21:46.482Z</time></trkpt><trkpt lat="38.6913978" lon="16.1572707"><ele>306.0</ele><time>2026-05-03T06:21:47.483Z</time></trkpt><trkpt lat="38.6917391" lon="16.1571521"><ele>307.0</ele><time>2026-05-03T06:21:48.482Z</time></trkpt><trkpt lat="38.6920834" lon="16.1570485"><ele>308.0</ele><time>2026-05-03T06:21:49.481Z</time></trkpt><trkpt lat="38.6924263" lon="16.1569515"><ele>309.0</ele><time>2026-05-03T06:21:50.482Z</time></trkpt><trkpt lat="38.6927668" lon="16.1568606"><ele>311.5</ele><time>2026-05-03T06:21:51.482Z</time></trkpt><trkpt lat="38.6931015" lon="16.156766"><ele>314.0</ele><time>2026-05-03T06:21:52.481Z</time></trkpt><trkpt lat="38.6934331" lon="16.1566715"><ele>314.5</ele><time>2026-05-03T06:21:53.48Z</time></trkpt><trkpt lat="38.6937658" lon="16.1565767"><ele>315.0</ele><time>2026-05-03T06:21:54.482Z</time></trkpt><trkpt lat="38.6941014" lon="16.1564804"><ele>319.0</ele><time>2026-05-03T06:21:55.481Z</time></trkpt><trkpt lat="38.694438" lon="16.156382"><ele>323.0</ele><time>2026-05-03T06:21:56.483Z</time></trkpt><trkpt lat="38.6947744" lon="16.1562839"><ele>323.0</ele><time>2026-05-03T06:21:57.481Z</time></trkpt><trkpt lat="38.6951115" lon="16.1561894"><ele>323.0</ele><time>2026-05-03T06:21:58.482Z</time></trkpt><trkpt lat="38.6954494" lon="16.1560948"><ele>324.0</ele><time>2026-05-03T06:21:59.482Z</time></trkpt><trkpt lat="38.6957862" lon="16.156001"><ele>325.0</ele><time>2026-05-03T06:22:00.481Z</time></trkpt><trkpt lat="38.6961127" lon="16.1559082"><ele>323.0</ele><time>2026-05-03T06:22:01.48Z</time></trkpt><trkpt lat="38.6964198" lon="16.1558196"><ele>321.0</ele><time>2026-05-03T06:22:02.482Z</time></trkpt><trkpt lat="38.6967101" lon="16.1557355"><ele>324.0</ele><time>2026-05-03T06:22:03.48Z</time></trkpt><trkpt lat="38.696993" lon="16.1556574"><ele>327.0</ele><time>2026-05-03T06:22:04.483Z</time></trkpt><trkpt lat="38.6972765" lon="16.1555883"><ele>327.0</ele><time>2026-05-03T06:22:05.483Z</time></trkpt><trkpt lat="38.6975649" lon="16.1555302"><ele>327.0</ele><time>2026-05-03T06:22:06.484Z</time></trkpt><trkpt lat="38.6978588" lon="16.1554904"><ele>329.5</ele><time>2026-05-03T06:22:07.485Z</time></trkpt><trkpt lat="38.6981594" lon="16.1554712"><ele>332.0</ele><time>2026-05-03T06:22:08.483Z</time></trkpt><trkpt lat="38.6984658" lon="16.1554744"><ele>334.5</ele><time>2026-05-03T06:22:09.482Z</time></trkpt><trkpt lat="38.6987737" lon="16.1555005"><ele>337.0</ele><time>2026-05-03T06:22:10.484Z</time></trkpt><trkpt lat="38.6990835" lon="16.1555502"><ele>337.0</ele><time>2026-05-03T06:22:11.483Z</time></trkpt><trkpt lat="38.6993859" lon="16.1556089"><ele>337.0</ele><time>2026-05-03T06:22:12.482Z</time></trkpt><trkpt lat="38.6996822" lon="16.1556562"><ele>339.5</ele><time>2026-05-03T06:22:13.483Z</time></trkpt><trkpt lat="38.6999633" lon="16.1556767"><ele>342.0</ele><time>2026-05-03T06:22:14.483Z</time></trkpt><trkpt lat="38.700235" lon="16.1556817"><ele>344.5</ele><time>2026-05-03T06:22:15.482Z</time></trkpt><trkpt lat="38.7004983" lon="16.15567"><ele>347.0</ele><time>2026-05-03T06:22:16.484Z</time></trkpt><trkpt lat="38.7007617" lon="16.1556317"><ele>347.0</ele><time>2026-05-03T06:22:17.484Z</time></trkpt><trkpt lat="38.7010267" lon="16.1555717"><ele>347.0</ele><time>2026-05-03T06:22:18.483Z</time></trkpt><trkpt lat="38.701295" lon="16.1554983"><ele>344.5</ele><time>2026-05-03T06:22:19.483Z</time></trkpt><trkpt lat="38.7015617" lon="16.1554067"><ele>342.0</ele><time>2026-05-03T06:22:20.483Z</time></trkpt><trkpt lat="38.701825" lon="16.1552933"><ele>343.5</ele><time>2026-05-03T06:22:21.483Z</time></trkpt><trkpt lat="38.7020833" lon="16.1551567"><ele>345.0</ele><time>2026-05-03T06:22:22.482Z</time></trkpt><trkpt lat="38.7023383" lon="16.1549983"><ele>349.5</ele><time>2026-05-03T06:22:23.482Z</time></trkpt><trkpt lat="38.7025917" lon="16.154825"><ele>354.0</ele><time>2026-05-03T06:22:24.483Z</time></trkpt><trkpt lat="38.7028517" lon="16.15466"><ele>356.0</ele><time>2026-05-03T06:22:25.483Z</time></trkpt><trkpt lat="38.7031183" lon="16.154515"><ele>358.0</ele><time>2026-05-03T06:22:26.482Z</time></trkpt><trkpt lat="38.7033917" lon="16.154385"><ele>360.0</ele><time>2026-05-03T06:22:27.481Z</time></trkpt><trkpt lat="38.7036683" lon="16.1542733"><ele>362.0</ele><time>2026-05-03T06:22:28.483Z</time></trkpt><trkpt lat="38.7039483" lon="16.1541767"><ele>362.0</ele><time>2026-05-03T06:22:29.483Z</time></trkpt><trkpt lat="38.704235" lon="16.1540933"><ele>362.0</ele><time>2026-05-03T06:22:30.482Z</time></trkpt><trkpt lat="38.7045283" lon="16.1540217"><ele>364.5</ele><time>2026-05-03T06:22:31.482Z</time></trkpt><trkpt lat="38.7048283" lon="16.15397"><ele>367.0</ele><time>2026-05-03T06:22:32.483Z</time></trkpt><trkpt lat="38.7051317" lon="16.153935"><ele>369.5</ele><time>2026-05-03T06:22:33.483Z</time></trkpt><trkpt lat="38.70544" lon="16.153915"><ele>372.0</ele><time>2026-05-03T06:22:34.484Z</time></trkpt><trkpt lat="38.7057533" lon="16.1539067"><ele>372.0</ele><time>2026-05-03T06:22:35.483Z</time></trkpt><trkpt lat="38.7060717" lon="16.1539033"><ele>372.0</ele><time>2026-05-03T06:22:36.483Z</time></trkpt><trkpt lat="38.7063933" lon="16.1538983"><ele>374.0</ele><time>2026-05-03T06:22:37.483Z</time></trkpt><trkpt lat="38.7067217" lon="16.1538967"><ele>376.0</ele><time>2026-05-03T06:22:38.483Z</time></trkpt><trkpt lat="38.707045" lon="16.153895"><ele>376.0</ele><time>2026-05-03T06:22:39.483Z</time></trkpt><trkpt lat="38.7073567" lon="16.1538933"><ele>376.0</ele><time>2026-05-03T06:22:40.483Z</time></trkpt><trkpt lat="38.7076633" lon="16.1538883"><ele>371.0</ele><time>2026-05-03T06:22:41.481Z</time></trkpt><trkpt lat="38.7079667" lon="16.1538833"><ele>366.0</ele><time>2026-05-03T06:22:42.482Z</time></trkpt><trkpt lat="38.7082683" lon="16.15388"><ele>366.0</ele><time>2026-05-03T06:22:43.483Z</time></trkpt><trkpt lat="38.7085667" lon="16.1538767"><ele>366.0</ele><time>2026-05-03T06:22:44.484Z</time></trkpt><trkpt lat="38.70887" lon="16.1538733"><ele>364.5</ele><time>2026-05-03T06:22:45.485Z</time></trkpt><trkpt lat="38.7091817" lon="16.15387"><ele>363.0</ele><time>2026-05-03T06:22:46.483Z</time></trkpt><trkpt lat="38.7094983" lon="16.1538683"><ele>362.5</ele><time>2026-05-03T06:22:47.483Z</time></trkpt><trkpt lat="38.7098167" lon="16.1538683"><ele>362.0</ele><time>2026-05-03T06:22:48.484Z</time></trkpt><trkpt lat="38.710135" lon="16.153865"><ele>364.0</ele><time>2026-05-03T06:22:49.484Z</time></trkpt><trkpt lat="38.7104417" lon="16.153865"><ele>366.0</ele><time>2026-05-03T06:22:50.485Z</time></trkpt><trkpt lat="38.710735" lon="16.1538633"><ele>366.0</ele><time>2026-05-03T06:22:51.484Z</time></trkpt><trkpt lat="38.7110183" lon="16.1538617"><ele>366.0</ele><time>2026-05-03T06:22:52.484Z</time></trkpt><trkpt lat="38.71129" lon="16.1538583"><ele>363.5</ele><time>2026-05-03T06:22:53.486Z</time></trkpt><trkpt lat="38.7115483" lon="16.1538683"><ele>361.0</ele><time>2026-05-03T06:22:54.483Z</time></trkpt><trkpt lat="38.7117983" lon="16.153875"><ele>351.5</ele><time>2026-05-03T06:22:55.484Z</time></trkpt><trkpt lat="38.71204" lon="16.1538817"><ele>342.0</ele><time>2026-05-03T06:22:56.482Z</time></trkpt><trkpt lat="38.712275" lon="16.1538917"><ele>342.0</ele><time>2026-05-03T06:22:57.481Z</time></trkpt><trkpt lat="38.7125033" lon="16.15391"><ele>342.0</ele><time>2026-05-03T06:22:58.483Z</time></trkpt><trkpt lat="38.7127367" lon="16.153935"><ele>337.0</ele><time>2026-05-03T06:22:59.482Z</time></trkpt><trkpt lat="38.7129733" lon="16.1539617"><ele>332.0</ele><time>2026-05-03T06:23:00.481Z</time></trkpt><trkpt lat="38.7132167" lon="16.15399"><ele>332.0</ele><time>2026-05-03T06:23:01.483Z</time></trkpt><trkpt lat="38.7134683" lon="16.1540233"><ele>332.0</ele><time>2026-05-03T06:23:02.483Z</time></trkpt><trkpt lat="38.7137283" lon="16.154065"><ele>334.0</ele><time>2026-05-03T06:23:03.481Z</time></trkpt><trkpt lat="38.7139967" lon="16.1541133"><ele>336.0</ele><time>2026-05-03T06:23:04.482Z</time></trkpt><trkpt lat="38.7142717" lon="16.154165"><ele>332.0</ele><time>2026-05-03T06:23:05.481Z</time></trkpt><trkpt lat="38.7145517" lon="16.1542233"><ele>328.0</ele><time>2026-05-03T06:23:06.483Z</time></trkpt><trkpt lat="38.7148367" lon="16.1542817"><ele>328.0</ele><time>2026-05-03T06:23:07.484Z</time></trkpt><trkpt lat="38.71512" lon="16.1543433"><ele>328.0</ele><time>2026-05-03T06:23:08.481Z</time></trkpt><trkpt lat="38.7154" lon="16.15441"><ele>323.5</ele><time>2026-05-03T06:23:09.482Z</time></trkpt><trkpt lat="38.7156767" lon="16.1544733"><ele>319.0</ele><time>2026-05-03T06:23:10.483Z</time></trkpt><trkpt lat="38.7159417" lon="16.1545333"><ele>312.5</ele><time>2026-05-03T06:23:11.482Z</time></trkpt><trkpt lat="38.7161983" lon="16.1545917"><ele>306.0</ele><time>2026-05-03T06:23:12.484Z</time></trkpt><trkpt lat="38.716455" lon="16.1546533"><ele>306.0</ele><time>2026-05-03T06:23:13.483Z</time></trkpt><trkpt lat="38.716715" lon="16.1547167"><ele>306.0</ele><time>2026-05-03T06:23:14.483Z</time></trkpt><trkpt lat="38.7169767" lon="16.1547817"><ele>312.0</ele><time>2026-05-03T06:23:15.483Z</time></trkpt><trkpt lat="38.7172433" lon="16.1548417"><ele>318.0</ele><time>2026-05-03T06:23:16.482Z</time></trkpt><trkpt lat="38.717515" lon="16.1549"><ele>314.0</ele><time>2026-05-03T06:23:17.483Z</time></trkpt><trkpt lat="38.7177883" lon="16.1549633"><ele>310.0</ele><time>2026-05-03T06:23:18.483Z</time></trkpt><trkpt lat="38.7180583" lon="16.155045"><ele>310.0</ele><time>2026-05-03T06:23:19.483Z</time></trkpt><trkpt lat="38.7183233" lon="16.155155"><ele>310.0</ele><time>2026-05-03T06:23:20.483Z</time></trkpt><trkpt lat="38.7185817" lon="16.1552983"><ele>301.0</ele><time>2026-05-03T06:23:21.483Z</time></trkpt><trkpt lat="38.7188317" lon="16.15547"><ele>292.0</ele><time>2026-05-03T06:23:22.483Z</time></trkpt><trkpt lat="38.7190733" lon="16.155665"><ele>294.0</ele><time>2026-05-03T06:23:23.484Z</time></trkpt><trkpt lat="38.71931" lon="16.1558883"><ele>296.0</ele><time>2026-05-03T06:23:24.484Z</time></trkpt><trkpt lat="38.719535" lon="16.1561433"><ele>296.0</ele><time>2026-05-03T06:23:25.482Z</time></trkpt><trkpt lat="38.719755" lon="16.1564183"><ele>296.0</ele><time>2026-05-03T06:23:26.484Z</time></trkpt><trkpt lat="38.7199767" lon="16.1567033"><ele>305.0</ele><time>2026-05-03T06:23:27.483Z</time></trkpt><trkpt lat="38.7202033" lon="16.15699"><ele>314.0</ele><time>2026-05-03T06:23:28.483Z</time></trkpt><trkpt lat="38.7204317" lon="16.1572783"><ele>306.0</ele><time>2026-05-03T06:23:29.482Z</time></trkpt><trkpt lat="38.720655" lon="16.157565"><ele>298.0</ele><time>2026-05-03T06:23:30.483Z</time></trkpt><trkpt lat="38.720875" lon="16.157845"><ele>291.5</ele><time>2026-05-03T06:23:31.483Z</time></trkpt><trkpt lat="38.7210933" lon="16.1581233"><ele>285.0</ele><time>2026-05-03T06:23:32.483Z</time></trkpt><trkpt lat="38.7213067" lon="16.1583983"><ele>285.0</ele><time>2026-05-03T06:23:33.482Z</time></trkpt><trkpt lat="38.72152" lon="16.1586717"><ele>285.0</ele><time>2026-05-03T06:23:34.483Z</time></trkpt><trkpt lat="38.72174" lon="16.1589367"><ele>281.0</ele><time>2026-05-03T06:23:35.482Z</time></trkpt><trkpt lat="38.7219683" lon="16.1591967"><ele>277.0</ele><time>2026-05-03T06:23:36.483Z</time></trkpt><trkpt lat="38.7222033" lon="16.15945"><ele>277.0</ele><time>2026-05-03T06:23:37.483Z</time></trkpt><trkpt lat="38.7224483" lon="16.1597"><ele>277.0</ele><time>2026-05-03T06:23:38.482Z</time></trkpt><trkpt lat="38.7227" lon="16.159945"><ele>276.0</ele><time>2026-05-03T06:23:39.482Z</time></trkpt><trkpt lat="38.72296" lon="16.1601833"><ele>275.0</ele><time>2026-05-03T06:23:40.482Z</time></trkpt><trkpt lat="38.7232233" lon="16.1604167"><ele>275.0</ele><time>2026-05-03T06:23:41.483Z</time></trkpt><trkpt lat="38.7234867" lon="16.1606533"><ele>275.0</ele><time>2026-05-03T06:23:42.484Z</time></trkpt><trkpt lat="38.72375" lon="16.1608917"><ele>273.5</ele><time>2026-05-03T06:23:43.486Z</time></trkpt><trkpt lat="38.724015" lon="16.1611283"><ele>272.0</ele><time>2026-05-03T06:23:44.483Z</time></trkpt><trkpt lat="38.7242783" lon="16.1613617"><ele>268.5</ele><time>2026-05-03T06:23:45.482Z</time></trkpt><trkpt lat="38.72454" lon="16.1615967"><ele>265.0</ele><time>2026-05-03T06:23:46.483Z</time></trkpt><trkpt lat="38.7247983" lon="16.1618333"><ele>265.0</ele><time>2026-05-03T06:23:47.483Z</time></trkpt><trkpt lat="38.7250567" lon="16.162075"><ele>265.0</ele><time>2026-05-03T06:23:48.483Z</time></trkpt><trkpt lat="38.725315" lon="16.1623167"><ele>261.0</ele><time>2026-05-03T06:23:49.484Z</time></trkpt><trkpt lat="38.7255733" lon="16.1625567"><ele>257.0</ele><time>2026-05-03T06:23:50.483Z</time></trkpt><trkpt lat="38.7258317" lon="16.162795"><ele>254.5</ele><time>2026-05-03T06:23:51.482Z</time></trkpt><trkpt lat="38.7260867" lon="16.1630317"><ele>252.0</ele><time>2026-05-03T06:23:52.483Z</time></trkpt><trkpt lat="38.7263433" lon="16.1632683"><ele>252.0</ele><time>2026-05-03T06:23:53.485Z</time></trkpt><trkpt lat="38.7265983" lon="16.1635067"><ele>252.0</ele><time>2026-05-03T06:23:54.483Z</time></trkpt><trkpt lat="38.7268567" lon="16.1637483"><ele>256.0</ele><time>2026-05-03T06:23:55.482Z</time></trkpt><trkpt lat="38.7271183" lon="16.1639917"><ele>260.0</ele><time>2026-05-03T06:23:56.483Z</time></trkpt><trkpt lat="38.7273817" lon="16.1642367"><ele>260.0</ele><time>2026-05-03T06:23:57.482Z</time></trkpt><trkpt lat="38.72765" lon="16.16448"><ele>260.0</ele><time>2026-05-03T06:23:58.484Z</time></trkpt><trkpt lat="38.7279167" lon="16.164725"><ele>253.0</ele><time>2026-05-03T06:23:59.483Z</time></trkpt><trkpt lat="38.7281817" lon="16.1649717"><ele>246.0</ele><time>2026-05-03T06:24:00.482Z</time></trkpt><trkpt lat="38.7284467" lon="16.1652167"><ele>245.5</ele><time>2026-05-03T06:24:01.482Z</time></trkpt><trkpt lat="38.7287083" lon="16.1654633"><ele>245.0</ele><time>2026-05-03T06:24:02.483Z</time></trkpt><trkpt lat="38.7289683" lon="16.1657083"><ele>245.0</ele><time>2026-05-03T06:24:03.481Z</time></trkpt><trkpt lat="38.7292267" lon="16.16595"><ele>245.0</ele><time>2026-05-03T06:24:04.482Z</time></trkpt><trkpt lat="38.7294833" lon="16.166185"><ele>244.0</ele><time>2026-05-03T06:24:05.483Z</time></trkpt><trkpt lat="38.7297383" lon="16.1664217"><ele>243.0</ele><time>2026-05-03T06:24:06.483Z</time></trkpt><trkpt lat="38.72999" lon="16.1666567"><ele>225.5</ele><time>2026-05-03T06:24:07.483Z</time></trkpt><trkpt lat="38.7302417" lon="16.1668883"><ele>208.0</ele><time>2026-05-03T06:24:08.482Z</time></trkpt><trkpt lat="38.73049" lon="16.1671167"><ele>208.0</ele><time>2026-05-03T06:24:09.483Z</time></trkpt><trkpt lat="38.7307317" lon="16.1673433"><ele>208.0</ele><time>2026-05-03T06:24:10.484Z</time></trkpt><trkpt lat="38.7309717" lon="16.16757"><ele>197.5</ele><time>2026-05-03T06:24:11.482Z</time></trkpt><trkpt lat="38.7312067" lon="16.1678033"><ele>187.0</ele><time>2026-05-03T06:24:12.483Z</time></trkpt><trkpt lat="38.7314383" lon="16.168045"><ele>200.5</ele><time>2026-05-03T06:24:13.482Z</time></trkpt><trkpt lat="38.7316633" lon="16.1683033"><ele>214.0</ele><time>2026-05-03T06:24:14.483Z</time></trkpt><trkpt lat="38.7318833" lon="16.168575"><ele>202.0</ele><time>2026-05-03T06:24:15.482Z</time></trkpt><trkpt lat="38.7320967" lon="16.1688633"><ele>190.0</ele><time>2026-05-03T06:24:16.483Z</time></trkpt><trkpt lat="38.7323033" lon="16.169165"><ele>190.0</ele><time>2026-05-03T06:24:17.483Z</time></trkpt><trkpt lat="38.732505" lon="16.1694783"><ele>190.0</ele><time>2026-05-03T06:24:18.482Z</time></trkpt><trkpt lat="38.7326967" lon="16.1698017"><ele>177.5</ele><time>2026-05-03T06:24:19.483Z</time></trkpt><trkpt lat="38.73288" lon="16.1701333"><ele>165.0</ele><time>2026-05-03T06:24:20.484Z</time></trkpt><trkpt lat="38.7330567" lon="16.170475"><ele>173.0</ele><time>2026-05-03T06:24:21.484Z</time></trkpt><trkpt lat="38.73322" lon="16.1708267"><ele>181.0</ele><time>2026-05-03T06:24:22.483Z</time></trkpt><trkpt lat="38.7333717" lon="16.1711883"><ele>172.5</ele><time>2026-05-03T06:24:23.483Z</time></trkpt><trkpt lat="38.7335117" lon="16.1715533"><ele>164.0</ele><time>2026-05-03T06:24:24.482Z</time></trkpt><trkpt lat="38.73364" lon="16.17193"><ele>164.0</ele><time>2026-05-03T06:24:25.481Z</time></trkpt><trkpt lat="38.7337533" lon="16.1723117"><ele>164.0</ele><time>2026-05-03T06:24:26.484Z</time></trkpt><trkpt lat="38.7338567" lon="16.1726967"><ele>170.0</ele><time>2026-05-03T06:24:27.483Z</time></trkpt><trkpt lat="38.7339517" lon="16.1730867"><ele>176.0</ele><time>2026-05-03T06:24:28.482Z</time></trkpt><trkpt lat="38.7340433" lon="16.1734817"><ele>181.5</ele><time>2026-05-03T06:24:29.483Z</time></trkpt><trkpt lat="38.7341333" lon="16.173875"><ele>187.0</ele><time>2026-05-03T06:24:30.483Z</time></trkpt><trkpt lat="38.734225" lon="16.1742683"><ele>196.5</ele><time>2026-05-03T06:24:31.482Z</time></trkpt><trkpt lat="38.7343183" lon="16.1746567"><ele>206.0</ele><time>2026-05-03T06:24:32.481Z</time></trkpt><trkpt lat="38.7344083" lon="16.1750433"><ele>194.5</ele><time>2026-05-03T06:24:33.484Z</time></trkpt><trkpt lat="38.7344983" lon="16.175425"><ele>183.0</ele><time>2026-05-03T06:24:34.482Z</time></trkpt><trkpt lat="38.7345867" lon="16.1758017"><ele>183.0</ele><time>2026-05-03T06:24:35.483Z</time></trkpt><trkpt lat="38.734675" lon="16.1761717"><ele>183.0</ele><time>2026-05-03T06:24:36.481Z</time></trkpt><trkpt lat="38.7347617" lon="16.176535"><ele>191.0</ele><time>2026-05-03T06:24:37.482Z</time></trkpt><trkpt lat="38.7348567" lon="16.1768917"><ele>199.0</ele><time>2026-05-03T06:24:38.483Z</time></trkpt><trkpt lat="38.734965" lon="16.1772417"><ele>206.0</ele><time>2026-05-03T06:24:39.482Z</time></trkpt><trkpt lat="38.7350867" lon="16.17759"><ele>213.0</ele><time>2026-05-03T06:24:40.483Z</time></trkpt><trkpt lat="38.7352183" lon="16.177935"><ele>200.0</ele><time>2026-05-03T06:24:41.483Z</time></trkpt><trkpt lat="38.73536" lon="16.178275"><ele>187.0</ele><time>2026-05-03T06:24:42.482Z</time></trkpt><trkpt lat="38.7355117" lon="16.1786117"><ele>187.0</ele><time>2026-05-03T06:24:43.482Z</time></trkpt><trkpt lat="38.735675" lon="16.178945"><ele>187.0</ele><time>2026-05-03T06:24:44.481Z</time></trkpt><trkpt lat="38.73585" lon="16.1792683"><ele>185.0</ele><time>2026-05-03T06:24:45.483Z</time></trkpt><trkpt lat="38.7360383" lon="16.1795883"><ele>183.0</ele><time>2026-05-03T06:24:46.482Z</time></trkpt><trkpt lat="38.7362367" lon="16.1799017"><ele>183.0</ele><time>2026-05-03T06:24:47.481Z</time></trkpt><trkpt lat="38.7364433" lon="16.1802067"><ele>183.0</ele><time>2026-05-03T06:24:48.484Z</time></trkpt><trkpt lat="38.736665" lon="16.1805067"><ele>179.5</ele><time>2026-05-03T06:24:49.484Z</time></trkpt><trkpt lat="38.736895" lon="16.1807967"><ele>176.0</ele><time>2026-05-03T06:24:50.483Z</time></trkpt><trkpt lat="38.73714" lon="16.1810733"><ele>176.0</ele><time>2026-05-03T06:24:51.484Z</time></trkpt><trkpt lat="38.7373933" lon="16.1813383"><ele>176.0</ele><time>2026-05-03T06:24:52.482Z</time></trkpt><trkpt lat="38.7376517" lon="16.1815933"><ele>174.0</ele><time>2026-05-03T06:24:53.483Z</time></trkpt><trkpt lat="38.7379067" lon="16.1818483"><ele>172.0</ele><time>2026-05-03T06:24:54.482Z</time></trkpt><trkpt lat="38.7381583" lon="16.1821083"><ele>166.5</ele><time>2026-05-03T06:24:55.481Z</time></trkpt><trkpt lat="38.7383867" lon="16.1823883"><ele>161.0</ele><time>2026-05-03T06:24:56.482Z</time></trkpt><trkpt lat="38.73858" lon="16.1826867"><ele>161.0</ele><time>2026-05-03T06:24:57.482Z</time></trkpt><trkpt lat="38.7387483" lon="16.1829933"><ele>161.0</ele><time>2026-05-03T06:24:58.482Z</time></trkpt><trkpt lat="38.738895" lon="16.1833167"><ele>167.0</ele><time>2026-05-03T06:24:59.482Z</time></trkpt><trkpt lat="38.7390267" lon="16.1836467"><ele>173.0</ele><time>2026-05-03T06:25:00.483Z</time></trkpt><trkpt lat="38.73916" lon="16.1839767"><ele>175.5</ele><time>2026-05-03T06:25:01.482Z</time></trkpt><trkpt lat="38.7392983" lon="16.1843017"><ele>178.0</ele><time>2026-05-03T06:25:02.484Z</time></trkpt><trkpt lat="38.7394483" lon="16.1846167"><ele>173.5</ele><time>2026-05-03T06:25:03.482Z</time></trkpt><trkpt lat="38.7396117" lon="16.1849167"><ele>169.0</ele><time>2026-05-03T06:25:04.485Z</time></trkpt><trkpt lat="38.7397883" lon="16.1852017"><ele>169.0</ele><time>2026-05-03T06:25:05.482Z</time></trkpt><trkpt lat="38.7399783" lon="16.1854683"><ele>169.0</ele><time>2026-05-03T06:25:06.484Z</time></trkpt><trkpt lat="38.7401783" lon="16.18572"><ele>165.5</ele><time>2026-05-03T06:25:07.482Z</time></trkpt><trkpt lat="38.7404" lon="16.18595"><ele>162.0</ele><time>2026-05-03T06:25:08.484Z</time></trkpt><trkpt lat="38.740635" lon="16.186165"><ele>162.0</ele><time>2026-05-03T06:25:09.483Z</time></trkpt><trkpt lat="38.7408833" lon="16.1863617"><ele>162.0</ele><time>2026-05-03T06:25:10.483Z</time></trkpt><trkpt lat="38.7411417" lon="16.18655"><ele>160.0</ele><time>2026-05-03T06:25:11.484Z</time></trkpt><trkpt lat="38.7414017" lon="16.1867417"><ele>158.0</ele><time>2026-05-03T06:25:12.484Z</time></trkpt><trkpt lat="38.7416667" lon="16.1869317"><ele>151.0</ele><time>2026-05-03T06:25:13.482Z</time></trkpt><trkpt lat="38.7419367" lon="16.18713"><ele>144.0</ele><time>2026-05-03T06:25:14.483Z</time></trkpt><trkpt lat="38.74221" lon="16.187325"><ele>145.5</ele><time>2026-05-03T06:25:15.484Z</time></trkpt><trkpt lat="38.7424817" lon="16.1875183"><ele>147.0</ele><time>2026-05-03T06:25:16.484Z</time></trkpt><trkpt lat="38.742755" lon="16.1877033"><ele>147.0</ele><time>2026-05-03T06:25:17.485Z</time></trkpt><trkpt lat="38.74303" lon="16.1878833"><ele>147.0</ele><time>2026-05-03T06:25:18.485Z</time></trkpt><trkpt lat="38.74331" lon="16.1880567"><ele>146.5</ele><time>2026-05-03T06:25:19.485Z</time></trkpt><trkpt lat="38.7435917" lon="16.1882233"><ele>146.0</ele><time>2026-05-03T06:25:20.485Z</time></trkpt><trkpt lat="38.7438817" lon="16.18838"><ele>146.0</ele><time>2026-05-03T06:25:21.484Z</time></trkpt><trkpt lat="38.74418" lon="16.1885283"><ele>146.0</ele><time>2026-05-03T06:25:22.485Z</time></trkpt><trkpt lat="38.7444783" lon="16.1886717"><ele>142.5</ele><time>2026-05-03T06:25:23.484Z</time></trkpt><trkpt lat="38.7447817" lon="16.188815"><ele>139.0</ele><time>2026-05-03T06:25:24.484Z</time></trkpt><trkpt lat="38.7450883" lon="16.1889533"><ele>142.5</ele><time>2026-05-03T06:25:25.485Z</time></trkpt><trkpt lat="38.7453983" lon="16.1890883"><ele>146.0</ele><time>2026-05-03T06:25:26.485Z</time></trkpt><trkpt lat="38.74571" lon="16.1892167"><ele>146.0</ele><time>2026-05-03T06:25:27.481Z</time></trkpt><trkpt lat="38.74602" lon="16.1893467"><ele>146.0</ele><time>2026-05-03T06:25:28.484Z</time></trkpt><trkpt lat="38.7463317" lon="16.1894633"><ele>141.5</ele><time>2026-05-03T06:25:29.482Z</time></trkpt><trkpt lat="38.7466417" lon="16.189575"><ele>137.0</ele><time>2026-05-03T06:25:30.483Z</time></trkpt><trkpt lat="38.7469467" lon="16.1896867"><ele>135.0</ele><time>2026-05-03T06:25:31.485Z</time></trkpt><trkpt lat="38.74725" lon="16.1897917"><ele>133.0</ele><time>2026-05-03T06:25:32.482Z</time></trkpt><trkpt lat="38.74755" lon="16.1898933"><ele>130.5</ele><time>2026-05-03T06:25:33.482Z</time></trkpt><trkpt lat="38.7478383" lon="16.190015"><ele>128.0</ele><time>2026-05-03T06:25:34.482Z</time></trkpt><trkpt lat="38.74812" lon="16.1901583"><ele>128.0</ele><time>2026-05-03T06:25:35.481Z</time></trkpt><trkpt lat="38.7483917" lon="16.1903283"><ele>128.0</ele><time>2026-05-03T06:25:36.482Z</time></trkpt><trkpt lat="38.7486483" lon="16.190525"><ele>126.0</ele><time>2026-05-03T06:25:37.483Z</time></trkpt><trkpt lat="38.748895" lon="16.190745"><ele>124.0</ele><time>2026-05-03T06:25:38.49Z</time></trkpt><trkpt lat="38.7491283" lon="16.1909883"><ele>124.0</ele><time>2026-05-03T06:25:39.483Z</time></trkpt><trkpt lat="38.749355" lon="16.1912483"><ele>124.0</ele><time>2026-05-03T06:25:40.483Z</time></trkpt><trkpt lat="38.7495767" lon="16.19151"><ele>121.0</ele><time>2026-05-03T06:25:41.482Z</time></trkpt><trkpt lat="38.749795" lon="16.1917667"><ele>118.0</ele><time>2026-05-03T06:25:42.487Z</time></trkpt><trkpt lat="38.75001" lon="16.19201"><ele>118.0</ele><time>2026-05-03T06:25:43.482Z</time></trkpt><trkpt lat="38.7502233" lon="16.1922383"><ele>118.0</ele><time>2026-05-03T06:25:44.484Z</time></trkpt><trkpt lat="38.7504483" lon="16.1924417"><ele>118.0</ele><time>2026-05-03T06:25:45.483Z</time></trkpt><trkpt lat="38.7506833" lon="16.1926217"><ele>118.0</ele><time>2026-05-03T06:25:46.482Z</time></trkpt><trkpt lat="38.750925" lon="16.1927783"><ele>113.0</ele><time>2026-05-03T06:25:47.483Z</time></trkpt><trkpt lat="38.7511667" lon="16.19292"><ele>108.0</ele><time>2026-05-03T06:25:48.483Z</time></trkpt><trkpt lat="38.7514067" lon="16.19305"><ele>112.0</ele><time>2026-05-03T06:25:49.483Z</time></trkpt><trkpt lat="38.7516417" lon="16.1931867"><ele>116.0</ele><time>2026-05-03T06:25:50.484Z</time></trkpt><trkpt lat="38.7518717" lon="16.1933267"><ele>114.0</ele><time>2026-05-03T06:25:51.482Z</time></trkpt><trkpt lat="38.7520967" lon="16.193485"><ele>112.0</ele><time>2026-05-03T06:25:52.484Z</time></trkpt><trkpt lat="38.7523117" lon="16.193665"><ele>112.0</ele><time>2026-05-03T06:25:53.485Z</time></trkpt><trkpt lat="38.7525217" lon="16.19387"><ele>112.0</ele><time>2026-05-03T06:25:54.482Z</time></trkpt><trkpt lat="38.7527217" lon="16.1941033"><ele>103.0</ele><time>2026-05-03T06:25:55.483Z</time></trkpt><trkpt lat="38.7529067" lon="16.1943633"><ele>94.0</ele><time>2026-05-03T06:25:56.483Z</time></trkpt><trkpt lat="38.75308" lon="16.1946517"><ele>99.5</ele><time>2026-05-03T06:25:57.481Z</time></trkpt><trkpt lat="38.7532383" lon="16.1949583"><ele>105.0</ele><time>2026-05-03T06:25:58.49Z</time></trkpt><trkpt lat="38.7533867" lon="16.195285"><ele>105.0</ele><time>2026-05-03T06:25:59.48Z</time></trkpt><trkpt lat="38.7535267" lon="16.1956283"><ele>105.0</ele><time>2026-05-03T06:26:00.482Z</time></trkpt><trkpt lat="38.7536683" lon="16.1959767"><ele>102.0</ele><time>2026-05-03T06:26:01.481Z</time></trkpt><trkpt lat="38.7538117" lon="16.1963317"><ele>99.0</ele><time>2026-05-03T06:26:02.484Z</time></trkpt><trkpt lat="38.7539583" lon="16.1966883"><ele>99.0</ele><time>2026-05-03T06:26:03.481Z</time></trkpt><trkpt lat="38.7541" lon="16.1970433"><ele>99.0</ele><time>2026-05-03T06:26:04.483Z</time></trkpt><trkpt lat="38.7542417" lon="16.1973883"><ele>87.5</ele><time>2026-05-03T06:26:05.483Z</time></trkpt><trkpt lat="38.7543867" lon="16.19772"><ele>76.0</ele><time>2026-05-03T06:26:06.482Z</time></trkpt><trkpt lat="38.7545467" lon="16.19803"><ele>81.5</ele><time>2026-05-03T06:26:07.481Z</time></trkpt><trkpt lat="38.7547267" lon="16.19832"><ele>87.0</ele><time>2026-05-03T06:26:08.483Z</time></trkpt><trkpt lat="38.7549267" lon="16.1985833"><ele>87.0</ele><time>2026-05-03T06:26:09.483Z</time></trkpt><trkpt lat="38.75514" lon="16.1988283"><ele>87.0</ele><time>2026-05-03T06:26:10.483Z</time></trkpt><trkpt lat="38.7553667" lon="16.1990633"><ele>86.5</ele><time>2026-05-03T06:26:11.482Z</time></trkpt><trkpt lat="38.7556067" lon="16.1992767"><ele>86.0</ele><time>2026-05-03T06:26:12.483Z</time></trkpt><trkpt lat="38.7558583" lon="16.19948"><ele>86.5</ele><time>2026-05-03T06:26:13.483Z</time></trkpt><trkpt lat="38.7561167" lon="16.1996683"><ele>87.0</ele><time>2026-05-03T06:26:14.484Z</time></trkpt><trkpt lat="38.756375" lon="16.1998583"><ele>87.0</ele><time>2026-05-03T06:26:15.481Z</time></trkpt><trkpt lat="38.756635" lon="16.2000517"><ele>87.0</ele><time>2026-05-03T06:26:16.481Z</time></trkpt><trkpt lat="38.7568983" lon="16.2002467"><ele>89.0</ele><time>2026-05-03T06:26:17.482Z</time></trkpt><trkpt lat="38.7571567" lon="16.2004567"><ele>91.0</ele><time>2026-05-03T06:26:18.483Z</time></trkpt><trkpt lat="38.757415" lon="16.20067"><ele>91.0</ele><time>2026-05-03T06:26:19.481Z</time></trkpt><trkpt lat="38.7576767" lon="16.2008883"><ele>91.0</ele><time>2026-05-03T06:26:20.483Z</time></trkpt><trkpt lat="38.7579383" lon="16.2011"><ele>80.0</ele><time>2026-05-03T06:26:21.483Z</time></trkpt><trkpt lat="38.758205" lon="16.2013"><ele>69.0</ele><time>2026-05-03T06:26:22.485Z</time></trkpt><trkpt lat="38.7584733" lon="16.2014867"><ele>70.0</ele><time>2026-05-03T06:26:23.482Z</time></trkpt><trkpt lat="38.7587467" lon="16.2016617"><ele>71.0</ele><time>2026-05-03T06:26:24.482Z</time></trkpt><trkpt lat="38.759025" lon="16.201825"><ele>71.0</ele><time>2026-05-03T06:26:25.483Z</time></trkpt><trkpt lat="38.7593067" lon="16.20198"><ele>71.0</ele><time>2026-05-03T06:26:26.483Z</time></trkpt><trkpt lat="38.7595917" lon="16.2021267"><ele>75.5</ele><time>2026-05-03T06:26:27.481Z</time></trkpt><trkpt lat="38.759875" lon="16.2022667"><ele>80.0</ele><time>2026-05-03T06:26:28.483Z</time></trkpt><trkpt lat="38.760165" lon="16.2023733"><ele>75.5</ele><time>2026-05-03T06:26:29.483Z</time></trkpt><trkpt lat="38.7604567" lon="16.2024667"><ele>71.0</ele><time>2026-05-03T06:26:30.482Z</time></trkpt><trkpt lat="38.760755" lon="16.202555"><ele>62.5</ele><time>2026-05-03T06:26:31.483Z</time></trkpt><trkpt lat="38.761055" lon="16.20265"><ele>54.0</ele><time>2026-05-03T06:26:32.484Z</time></trkpt><trkpt lat="38.761355" lon="16.2027517"><ele>54.0</ele><time>2026-05-03T06:26:33.482Z</time></trkpt><trkpt lat="38.7616483" lon="16.202855"><ele>54.0</ele><time>2026-05-03T06:26:34.482Z</time></trkpt><trkpt lat="38.7619367" lon="16.2029717"><ele>59.0</ele><time>2026-05-03T06:26:35.482Z</time></trkpt><trkpt lat="38.7622083" lon="16.2031133"><ele>64.0</ele><time>2026-05-03T06:26:36.483Z</time></trkpt><trkpt lat="38.7624683" lon="16.2032883"><ele>51.0</ele><time>2026-05-03T06:26:37.483Z</time></trkpt><trkpt lat="38.7627183" lon="16.2034917"><ele>38.0</ele><time>2026-05-03T06:26:38.483Z</time></trkpt><trkpt lat="38.76296" lon="16.2037233"><ele>38.0</ele><time>2026-05-03T06:26:39.481Z</time></trkpt><trkpt lat="38.7632017" lon="16.2039583"><ele>38.0</ele><time>2026-05-03T06:26:40.482Z</time></trkpt><trkpt lat="38.7634483" lon="16.20419"><ele>39.0</ele><time>2026-05-03T06:26:41.482Z</time></trkpt><trkpt lat="38.7637117" lon="16.2044"><ele>40.0</ele><time>2026-05-03T06:26:42.483Z</time></trkpt><trkpt lat="38.7639867" lon="16.2045867"><ele>40.0</ele><time>2026-05-03T06:26:43.483Z</time></trkpt><trkpt lat="38.7642733" lon="16.2047567"><ele>40.0</ele><time>2026-05-03T06:26:44.481Z</time></trkpt><trkpt lat="38.7645683" lon="16.2049183"><ele>43.5</ele><time>2026-05-03T06:26:45.481Z</time></trkpt><trkpt lat="38.7648667" lon="16.2050783"><ele>47.0</ele><time>2026-05-03T06:26:46.482Z</time></trkpt><trkpt lat="38.7651633" lon="16.2052433"><ele>36.5</ele><time>2026-05-03T06:26:47.48Z</time></trkpt><trkpt lat="38.7654583" lon="16.2054183"><ele>26.0</ele><time>2026-05-03T06:26:48.481Z</time></trkpt><trkpt lat="38.7657467" lon="16.205605"><ele>26.5</ele><time>2026-05-03T06:26:49.483Z</time></trkpt><trkpt lat="38.7660267" lon="16.205805"><ele>27.0</ele><time>2026-05-03T06:26:50.483Z</time></trkpt><trkpt lat="38.7663" lon="16.206015"><ele>27.0</ele><time>2026-05-03T06:26:51.482Z</time></trkpt><trkpt lat="38.76657" lon="16.2062333"><ele>27.0</ele><time>2026-05-03T06:26:52.484Z</time></trkpt><trkpt lat="38.7668367" lon="16.206455"><ele>28.5</ele><time>2026-05-03T06:26:53.487Z</time></trkpt><trkpt lat="38.7671017" lon="16.2066733"><ele>30.0</ele><time>2026-05-03T06:26:54.483Z</time></trkpt><trkpt lat="38.7673633" lon="16.2068883"><ele>30.0</ele><time>2026-05-03T06:26:55.483Z</time></trkpt><trkpt lat="38.7676217" lon="16.2071"><ele>30.0</ele><time>2026-05-03T06:26:56.482Z</time></trkpt><trkpt lat="38.76787" lon="16.2073133"><ele>26.5</ele><time>2026-05-03T06:26:57.482Z</time></trkpt><trkpt lat="38.7681117" lon="16.2075433"><ele>23.0</ele><time>2026-05-03T06:26:58.485Z</time></trkpt><trkpt lat="38.768345" lon="16.2077933"><ele>20.0</ele><time>2026-05-03T06:26:59.484Z</time></trkpt><trkpt lat="38.7685733" lon="16.2080617"><ele>17.0</ele><time>2026-05-03T06:27:00.483Z</time></trkpt><trkpt lat="38.7687917" lon="16.2083467"><ele>17.0</ele><time>2026-05-03T06:27:01.482Z</time></trkpt><trkpt lat="38.76901" lon="16.2086367"><ele>17.0</ele><time>2026-05-03T06:27:02.482Z</time></trkpt><trkpt lat="38.7692283" lon="16.20893"><ele>14.0</ele><time>2026-05-03T06:27:03.482Z</time></trkpt><trkpt lat="38.7694417" lon="16.2092367"><ele>11.0</ele><time>2026-05-03T06:27:04.481Z</time></trkpt><trkpt lat="38.7696433" lon="16.2095567"><ele>11.5</ele><time>2026-05-03T06:27:05.482Z</time></trkpt><trkpt lat="38.7698333" lon="16.2098917"><ele>12.0</ele><time>2026-05-03T06:27:06.483Z</time></trkpt><trkpt lat="38.7700183" lon="16.2102417"><ele>10.5</ele><time>2026-05-03T06:27:07.483Z</time></trkpt><trkpt lat="38.7702017" lon="16.2105933"><ele>9.0</ele><time>2026-05-03T06:27:08.485Z</time></trkpt><trkpt lat="38.7703833" lon="16.2109433"><ele>9.0</ele><time>2026-05-03T06:27:09.484Z</time></trkpt><trkpt lat="38.7705617" lon="16.2112867"><ele>9.0</ele><time>2026-05-03T06:27:10.484Z</time></trkpt><trkpt lat="38.7707417" lon="16.2116217"><ele>8.5</ele><time>2026-05-03T06:27:11.482Z</time></trkpt><trkpt lat="38.7709183" lon="16.2119533"><ele>8.0</ele><time>2026-05-03T06:27:12.484Z</time></trkpt><trkpt lat="38.7710967" lon="16.21228"><ele>8.0</ele><time>2026-05-03T06:27:13.484Z</time></trkpt><trkpt lat="38.7712833" lon="16.2125933"><ele>8.0</ele><time>2026-05-03T06:27:14.483Z</time></trkpt><trkpt lat="38.771485" lon="16.2128917"><ele>8.0</ele><time>2026-05-03T06:27:15.481Z</time></trkpt><trkpt lat="38.7717017" lon="16.2131717"><ele>8.0</ele><time>2026-05-03T06:27:16.482Z</time></trkpt><trkpt lat="38.771935" lon="16.2134367"><ele>8.0</ele><time>2026-05-03T06:27:17.481Z</time></trkpt><trkpt lat="38.772185" lon="16.21368"><ele>8.0</ele><time>2026-05-03T06:27:18.486Z</time></trkpt><trkpt lat="38.7724517" lon="16.2139017"><ele>9.0</ele><time>2026-05-03T06:27:19.482Z</time></trkpt><trkpt lat="38.7727317" lon="16.214095"><ele>10.0</ele><time>2026-05-03T06:27:20.483Z</time></trkpt><trkpt lat="38.7730233" lon="16.2142667"><ele>10.0</ele><time>2026-05-03T06:27:21.482Z</time></trkpt><trkpt lat="38.773325" lon="16.214415"><ele>10.0</ele><time>2026-05-03T06:27:22.483Z</time></trkpt><trkpt lat="38.77364" lon="16.214545"><ele>9.0</ele><time>2026-05-03T06:27:23.484Z</time></trkpt><trkpt lat="38.7739583" lon="16.21467"><ele>8.0</ele><time>2026-05-03T06:27:24.484Z</time></trkpt><trkpt lat="38.7742817" lon="16.214795"><ele>6.5</ele><time>2026-05-03T06:27:25.484Z</time></trkpt><trkpt lat="38.7746067" lon="16.214925"><ele>5.0</ele><time>2026-05-03T06:27:26.484Z</time></trkpt><trkpt lat="38.7749367" lon="16.2150583"><ele>5.0</ele><time>2026-05-03T06:27:27.484Z</time></trkpt><trkpt lat="38.7752683" lon="16.21519"><ele>5.0</ele><time>2026-05-03T06:27:28.483Z</time></trkpt><trkpt lat="38.7756017" lon="16.21532"><ele>5.0</ele><time>2026-05-03T06:27:29.484Z</time></trkpt><trkpt lat="38.7759383" lon="16.215455"><ele>5.0</ele><time>2026-05-03T06:27:30.484Z</time></trkpt><trkpt lat="38.7762767" lon="16.2155883"><ele>5.0</ele><time>2026-05-03T06:27:31.481Z</time></trkpt><trkpt lat="38.7766183" lon="16.2157283"><ele>5.0</ele><time>2026-05-03T06:27:32.484Z</time></trkpt><trkpt lat="38.77696" lon="16.215865"><ele>5.5</ele><time>2026-05-03T06:27:33.482Z</time></trkpt><trkpt lat="38.777305" lon="16.216"><ele>6.0</ele><time>2026-05-03T06:27:34.483Z</time></trkpt><trkpt lat="38.77765" lon="16.216135"><ele>6.5</ele><time>2026-05-03T06:27:35.482Z</time></trkpt><trkpt lat="38.7779967" lon="16.21627"><ele>7.0</ele><time>2026-05-03T06:27:36.484Z</time></trkpt><trkpt lat="38.77834" lon="16.2164033"><ele>7.0</ele><time>2026-05-03T06:27:37.482Z</time></trkpt><trkpt lat="38.77868" lon="16.2165433"><ele>7.0</ele><time>2026-05-03T06:27:38.485Z</time></trkpt><trkpt lat="38.7790183" lon="16.21668"><ele>6.5</ele><time>2026-05-03T06:27:39.482Z</time></trkpt><trkpt lat="38.7793567" lon="16.2168183"><ele>6.0</ele><time>2026-05-03T06:27:40.483Z</time></trkpt><trkpt lat="38.7796917" lon="16.216955"><ele>6.0</ele><time>2026-05-03T06:27:41.482Z</time></trkpt><trkpt lat="38.7800267" lon="16.21709"><ele>6.0</ele><time>2026-05-03T06:27:42.483Z</time></trkpt><trkpt lat="38.7803633" lon="16.2172217"><ele>6.0</ele><time>2026-05-03T06:27:43.482Z</time></trkpt><trkpt lat="38.7807" lon="16.2173533"><ele>6.0</ele><time>2026-05-03T06:27:44.483Z</time></trkpt><trkpt lat="38.7810383" lon="16.217485"><ele>6.5</ele><time>2026-05-03T06:27:45.481Z</time></trkpt><trkpt lat="38.7813783" lon="16.2176183"><ele>7.0</ele><time>2026-05-03T06:27:46.482Z</time></trkpt><trkpt lat="38.7817183" lon="16.2177467"><ele>7.5</ele><time>2026-05-03T06:27:47.481Z</time></trkpt><trkpt lat="38.7820567" lon="16.2178783"><ele>8.0</ele><time>2026-05-03T06:27:48.482Z</time></trkpt><trkpt lat="38.7823967" lon="16.218015"><ele>8.0</ele><time>2026-05-03T06:27:49.482Z</time></trkpt><trkpt lat="38.7827367" lon="16.2181517"><ele>8.0</ele><time>2026-05-03T06:27:50.482Z</time></trkpt><trkpt lat="38.7830767" lon="16.218285"><ele>8.0</ele><time>2026-05-03T06:27:51.486Z</time></trkpt><trkpt lat="38.7834167" lon="16.2184183"><ele>8.0</ele><time>2026-05-03T06:27:52.483Z</time></trkpt><trkpt lat="38.7837567" lon="16.2185517"><ele>7.5</ele><time>2026-05-03T06:27:53.483Z</time></trkpt><trkpt lat="38.7840917" lon="16.2186917"><ele>7.0</ele><time>2026-05-03T06:27:54.483Z</time></trkpt><trkpt lat="38.7844283" lon="16.2188367"><ele>11.0</ele><time>2026-05-03T06:27:55.483Z</time></trkpt><trkpt lat="38.7847617" lon="16.2189867"><ele>15.0</ele><time>2026-05-03T06:27:56.483Z</time></trkpt><trkpt lat="38.7850917" lon="16.2191467"><ele>13.0</ele><time>2026-05-03T06:27:57.482Z</time></trkpt><trkpt lat="38.7854167" lon="16.21932"><ele>11.0</ele><time>2026-05-03T06:27:58.482Z</time></trkpt><trkpt lat="38.785735" lon="16.2195117"><ele>9.5</ele><time>2026-05-03T06:27:59.485Z</time></trkpt><trkpt lat="38.7860517" lon="16.2197067"><ele>8.0</ele><time>2026-05-03T06:28:00.482Z</time></trkpt><trkpt lat="38.7863583" lon="16.2199267"><ele>8.0</ele><time>2026-05-03T06:28:01.481Z</time></trkpt><trkpt lat="38.786655" lon="16.2201633"><ele>8.0</ele><time>2026-05-03T06:28:02.484Z</time></trkpt><trkpt lat="38.7869483" lon="16.220405"><ele>12.5</ele><time>2026-05-03T06:28:03.481Z</time></trkpt><trkpt lat="38.78724" lon="16.2206517"><ele>17.0</ele><time>2026-05-03T06:28:04.481Z</time></trkpt><trkpt lat="38.7875317" lon="16.220895"><ele>12.5</ele><time>2026-05-03T06:28:05.484Z</time></trkpt><trkpt lat="38.787825" lon="16.2211433"><ele>8.0</ele><time>2026-05-03T06:28:06.482Z</time></trkpt><trkpt lat="38.78812" lon="16.2213917"><ele>9.5</ele><time>2026-05-03T06:28:07.482Z</time></trkpt><trkpt lat="38.7884167" lon="16.2216367"><ele>11.0</ele><time>2026-05-03T06:28:08.485Z</time></trkpt><trkpt lat="38.7887133" lon="16.2218867"><ele>11.0</ele><time>2026-05-03T06:28:09.482Z</time></trkpt><trkpt lat="38.7890133" lon="16.222135"><ele>11.0</ele><time>2026-05-03T06:28:10.483Z</time></trkpt><trkpt lat="38.7893167" lon="16.22238"><ele>11.0</ele><time>2026-05-03T06:28:11.484Z</time></trkpt><trkpt lat="38.789625" lon="16.2226183"><ele>11.0</ele><time>2026-05-03T06:28:12.482Z</time></trkpt><trkpt lat="38.7899367" lon="16.2228467"><ele>10.0</ele><time>2026-05-03T06:28:13.482Z</time></trkpt><trkpt lat="38.790255" lon="16.22306"><ele>9.0</ele><time>2026-05-03T06:28:14.482Z</time></trkpt><trkpt lat="38.7905783" lon="16.22326"><ele>10.0</ele><time>2026-05-03T06:28:15.482Z</time></trkpt><trkpt lat="38.7909067" lon="16.22344"><ele>11.0</ele><time>2026-05-03T06:28:16.482Z</time></trkpt><trkpt lat="38.7912433" lon="16.2235967"><ele>11.0</ele><time>2026-05-03T06:28:17.481Z</time></trkpt><trkpt lat="38.791585" lon="16.2237333"><ele>11.0</ele><time>2026-05-03T06:28:18.482Z</time></trkpt><trkpt lat="38.7919283" lon="16.223855"><ele>10.5</ele><time>2026-05-03T06:28:19.482Z</time></trkpt><trkpt lat="38.7922733" lon="16.2239633"><ele>10.0</ele><time>2026-05-03T06:28:20.483Z</time></trkpt><trkpt lat="38.79262" lon="16.2240633"><ele>12.0</ele><time>2026-05-03T06:28:21.483Z</time></trkpt><trkpt lat="38.7929617" lon="16.2241583"><ele>14.0</ele><time>2026-05-03T06:28:22.483Z</time></trkpt><trkpt lat="38.7933017" lon="16.2242533"><ele>13.5</ele><time>2026-05-03T06:28:23.483Z</time></trkpt><trkpt lat="38.7936433" lon="16.22435"><ele>13.0</ele><time>2026-05-03T06:28:24.485Z</time></trkpt><trkpt lat="38.7939817" lon="16.2244517"><ele>13.0</ele><time>2026-05-03T06:28:25.483Z</time></trkpt><trkpt lat="38.794315" lon="16.2245667"><ele>13.0</ele><time>2026-05-03T06:28:26.484Z</time></trkpt><trkpt lat="38.7946467" lon="16.22469"><ele>14.5</ele><time>2026-05-03T06:28:27.483Z</time></trkpt><trkpt lat="38.7949733" lon="16.2248283"><ele>16.0</ele><time>2026-05-03T06:28:28.483Z</time></trkpt><trkpt lat="38.7952967" lon="16.2249833"><ele>16.5</ele><time>2026-05-03T06:28:29.482Z</time></trkpt><trkpt lat="38.7956167" lon="16.2251533"><ele>17.0</ele><time>2026-05-03T06:28:30.483Z</time></trkpt><trkpt lat="38.7959317" lon="16.2253417"><ele>16.0</ele><time>2026-05-03T06:28:31.483Z</time></trkpt><trkpt lat="38.7962417" lon="16.2255467"><ele>15.0</ele><time>2026-05-03T06:28:32.484Z</time></trkpt><trkpt lat="38.7965483" lon="16.2257667"><ele>14.0</ele><time>2026-05-03T06:28:33.481Z</time></trkpt><trkpt lat="38.79685" lon="16.2260017"><ele>13.0</ele><time>2026-05-03T06:28:34.482Z</time></trkpt><trkpt lat="38.7971467" lon="16.2262483"><ele>13.0</ele><time>2026-05-03T06:28:35.481Z</time></trkpt><trkpt lat="38.7974417" lon="16.2265017"><ele>13.0</ele><time>2026-05-03T06:28:36.483Z</time></trkpt><trkpt lat="38.7977367" lon="16.226755"><ele>13.0</ele><time>2026-05-03T06:28:37.481Z</time></trkpt><trkpt lat="38.7980283" lon="16.2270133"><ele>13.0</ele><time>2026-05-03T06:28:38.482Z</time></trkpt><trkpt lat="38.7983167" lon="16.2272767"><ele>13.0</ele><time>2026-05-03T06:28:39.48Z</time></trkpt><trkpt lat="38.7986033" lon="16.2275367"><ele>13.0</ele><time>2026-05-03T06:28:40.48Z</time></trkpt><trkpt lat="38.7988917" lon="16.2277967"><ele>13.0</ele><time>2026-05-03T06:28:41.482Z</time></trkpt><trkpt lat="38.79918" lon="16.2280533"><ele>13.0</ele><time>2026-05-03T06:28:42.481Z</time></trkpt><trkpt lat="38.7994717" lon="16.2283017"><ele>15.5</ele><time>2026-05-03T06:28:43.483Z</time></trkpt><trkpt lat="38.7997683" lon="16.2285367"><ele>18.0</ele><time>2026-05-03T06:28:44.482Z</time></trkpt><trkpt lat="38.8000667" lon="16.2287583"><ele>17.5</ele><time>2026-05-03T06:28:45.483Z</time></trkpt><trkpt lat="38.8003783" lon="16.2289783"><ele>17.0</ele><time>2026-05-03T06:28:46.482Z</time></trkpt><trkpt lat="38.8006917" lon="16.2291767"><ele>17.0</ele><time>2026-05-03T06:28:47.484Z</time></trkpt><trkpt lat="38.8010167" lon="16.229355"><ele>17.0</ele><time>2026-05-03T06:28:48.482Z</time></trkpt><trkpt lat="38.8013433" lon="16.229525"><ele>17.0</ele><time>2026-05-03T06:28:49.485Z</time></trkpt><trkpt lat="38.8016733" lon="16.2296867"><ele>17.0</ele><time>2026-05-03T06:28:50.483Z</time></trkpt><trkpt lat="38.8020083" lon="16.22984"><ele>16.5</ele><time>2026-05-03T06:28:51.483Z</time></trkpt><trkpt lat="38.8023433" lon="16.2299917"><ele>16.0</ele><time>2026-05-03T06:28:52.487Z</time></trkpt><trkpt lat="38.8026817" lon="16.2301417"><ele>16.0</ele><time>2026-05-03T06:28:53.484Z</time></trkpt><trkpt lat="38.803015" lon="16.2302967"><ele>16.0</ele><time>2026-05-03T06:28:54.484Z</time></trkpt><trkpt lat="38.8033467" lon="16.2304567"><ele>15.0</ele><time>2026-05-03T06:28:55.484Z</time></trkpt><trkpt lat="38.8036733" lon="16.2306217"><ele>14.0</ele><time>2026-05-03T06:28:56.484Z</time></trkpt><trkpt lat="38.8040017" lon="16.2307817"><ele>16.0</ele><time>2026-05-03T06:28:57.483Z</time></trkpt><trkpt lat="38.80433" lon="16.2309383"><ele>18.0</ele><time>2026-05-03T06:28:58.484Z</time></trkpt><trkpt lat="38.8046617" lon="16.2310933"><ele>18.0</ele><time>2026-05-03T06:28:59.482Z</time></trkpt><trkpt lat="38.8049933" lon="16.231245"><ele>18.0</ele><time>2026-05-03T06:29:00.483Z</time></trkpt><trkpt lat="38.805325" lon="16.2313967"><ele>20.5</ele><time>2026-05-03T06:29:01.481Z</time></trkpt><trkpt lat="38.8056567" lon="16.2315433"><ele>23.0</ele><time>2026-05-03T06:29:02.482Z</time></trkpt><trkpt lat="38.80599" lon="16.2316933"><ele>21.0</ele><time>2026-05-03T06:29:03.484Z</time></trkpt><trkpt lat="38.8063233" lon="16.23184"><ele>19.0</ele><time>2026-05-03T06:29:04.482Z</time></trkpt><trkpt lat="38.8066583" lon="16.2319883"><ele>16.5</ele><time>2026-05-03T06:29:05.482Z</time></trkpt><trkpt lat="38.8069917" lon="16.2321383"><ele>14.0</ele><time>2026-05-03T06:29:06.483Z</time></trkpt><trkpt lat="38.807325" lon="16.232285"><ele>15.5</ele><time>2026-05-03T06:29:07.481Z</time></trkpt><trkpt lat="38.807655" lon="16.2324333"><ele>17.0</ele><time>2026-05-03T06:29:08.482Z</time></trkpt><trkpt lat="38.807985" lon="16.232585"><ele>17.0</ele><time>2026-05-03T06:29:09.483Z</time></trkpt><trkpt lat="38.808315" lon="16.2327333"><ele>17.0</ele><time>2026-05-03T06:29:10.482Z</time></trkpt><trkpt lat="38.8086433" lon="16.232885"><ele>16.5</ele><time>2026-05-03T06:29:11.481Z</time></trkpt><trkpt lat="38.8089683" lon="16.2330367"><ele>16.0</ele><time>2026-05-03T06:29:12.48Z</time></trkpt><trkpt lat="38.8092933" lon="16.2331867"><ele>16.0</ele><time>2026-05-03T06:29:13.483Z</time></trkpt><trkpt lat="38.8096167" lon="16.2333333"><ele>16.0</ele><time>2026-05-03T06:29:14.483Z</time></trkpt><trkpt lat="38.8099383" lon="16.23348"><ele>16.0</ele><time>2026-05-03T06:29:15.481Z</time></trkpt><trkpt lat="38.8102617" lon="16.233625"><ele>16.0</ele><time>2026-05-03T06:29:16.481Z</time></trkpt><trkpt lat="38.810585" lon="16.2337717"><ele>16.0</ele><time>2026-05-03T06:29:17.482Z</time></trkpt><trkpt lat="38.81091" lon="16.2339167"><ele>16.0</ele><time>2026-05-03T06:29:18.481Z</time></trkpt><trkpt lat="38.8112367" lon="16.2340617"><ele>16.5</ele><time>2026-05-03T06:29:19.484Z</time></trkpt><trkpt lat="38.8115633" lon="16.23421"><ele>17.0</ele><time>2026-05-03T06:29:20.485Z</time></trkpt><trkpt lat="38.8118917" lon="16.2343567"><ele>15.0</ele><time>2026-05-03T06:29:21.482Z</time></trkpt><trkpt lat="38.8122183" lon="16.2345017"><ele>13.0</ele><time>2026-05-03T06:29:22.486Z</time></trkpt><trkpt lat="38.8125433" lon="16.23465"><ele>12.0</ele><time>2026-05-03T06:29:23.483Z</time></trkpt><trkpt lat="38.81287" lon="16.2348"><ele>11.0</ele><time>2026-05-03T06:29:24.481Z</time></trkpt><trkpt lat="38.8132" lon="16.23495"><ele>14.5</ele><time>2026-05-03T06:29:25.481Z</time></trkpt><trkpt lat="38.8135283" lon="16.2351017"><ele>18.0</ele><time>2026-05-03T06:29:26.482Z</time></trkpt><trkpt lat="38.8138583" lon="16.2352533"><ele>18.0</ele><time>2026-05-03T06:29:27.483Z</time></trkpt><trkpt lat="38.8141867" lon="16.235405"><ele>18.0</ele><time>2026-05-03T06:29:28.481Z</time></trkpt><trkpt lat="38.8145133" lon="16.23556"><ele>18.5</ele><time>2026-05-03T06:29:29.482Z</time></trkpt><trkpt lat="38.8148383" lon="16.2357217"><ele>19.0</ele><time>2026-05-03T06:29:30.481Z</time></trkpt><trkpt lat="38.81516" lon="16.2358883"><ele>19.0</ele><time>2026-05-03T06:29:31.483Z</time></trkpt><trkpt lat="38.81548" lon="16.23606"><ele>19.0</ele><time>2026-05-03T06:29:32.482Z</time></trkpt><trkpt lat="38.8157967" lon="16.2362433"><ele>20.0</ele><time>2026-05-03T06:29:33.482Z</time></trkpt><trkpt lat="38.8161067" lon="16.23644"><ele>21.0</ele><time>2026-05-03T06:29:34.481Z</time></trkpt><trkpt lat="38.816415" lon="16.2366467"><ele>21.0</ele><time>2026-05-03T06:29:35.483Z</time></trkpt><trkpt lat="38.8167183" lon="16.23686"><ele>21.0</ele><time>2026-05-03T06:29:36.482Z</time></trkpt><trkpt lat="38.8170183" lon="16.237085"><ele>21.5</ele><time>2026-05-03T06:29:37.482Z</time></trkpt><trkpt lat="38.8173117" lon="16.2373133"><ele>22.0</ele><time>2026-05-03T06:29:38.482Z</time></trkpt><trkpt lat="38.8176" lon="16.2375567"><ele>19.5</ele><time>2026-05-03T06:29:39.481Z</time></trkpt><trkpt lat="38.81788" lon="16.2378133"><ele>17.0</ele><time>2026-05-03T06:29:40.482Z</time></trkpt><trkpt lat="38.8181533" lon="16.2380817"><ele>17.0</ele><time>2026-05-03T06:29:41.482Z</time></trkpt><trkpt lat="38.8184233" lon="16.2383633"><ele>17.0</ele><time>2026-05-03T06:29:42.482Z</time></trkpt><trkpt lat="38.8186883" lon="16.2386533"><ele>15.5</ele><time>2026-05-03T06:29:43.482Z</time></trkpt><trkpt lat="38.818945" lon="16.2389533"><ele>14.0</ele><time>2026-05-03T06:29:44.481Z</time></trkpt><trkpt lat="38.8191917" lon="16.23926"><ele>14.5</ele><time>2026-05-03T06:29:45.482Z</time></trkpt><trkpt lat="38.81943" lon="16.2395767"><ele>15.0</ele><time>2026-05-03T06:29:46.482Z</time></trkpt><trkpt lat="38.8196583" lon="16.2399017"><ele>15.5</ele><time>2026-05-03T06:29:47.482Z</time></trkpt><trkpt lat="38.8198783" lon="16.24023"><ele>16.0</ele><time>2026-05-03T06:29:48.481Z</time></trkpt><trkpt lat="38.82009" lon="16.2405667"><ele>17.5</ele><time>2026-05-03T06:29:49.482Z</time></trkpt><trkpt lat="38.820295" lon="16.2409083"><ele>19.0</ele><time>2026-05-03T06:29:50.486Z</time></trkpt><trkpt lat="38.82049" lon="16.2412617"><ele>19.5</ele><time>2026-05-03T06:29:51.481Z</time></trkpt><trkpt lat="38.82068" lon="16.2416217"><ele>20.0</ele><time>2026-05-03T06:29:52.482Z</time></trkpt><trkpt lat="38.8208617" lon="16.24199"><ele>21.0</ele><time>2026-05-03T06:29:53.483Z</time></trkpt><trkpt lat="38.8210417" lon="16.2423633"><ele>22.0</ele><time>2026-05-03T06:29:54.482Z</time></trkpt><trkpt lat="38.821215" lon="16.2427483"><ele>22.0</ele><time>2026-05-03T06:29:55.483Z</time></trkpt><trkpt lat="38.821385" lon="16.2431383"><ele>22.0</ele><time>2026-05-03T06:29:56.483Z</time></trkpt><trkpt lat="38.8215533" lon="16.2435317"><ele>22.0</ele><time>2026-05-03T06:29:57.482Z</time></trkpt><trkpt lat="38.8217167" lon="16.24393"><ele>22.0</ele><time>2026-05-03T06:29:58.482Z</time></trkpt><trkpt lat="38.8218783" lon="16.2443217"><ele>21.0</ele><time>2026-05-03T06:29:59.483Z</time></trkpt><trkpt lat="38.8220417" lon="16.2447133"><ele>20.0</ele><time>2026-05-03T06:30:00.484Z</time></trkpt><trkpt lat="38.8222" lon="16.2451033"><ele>20.0</ele><time>2026-05-03T06:30:01.484Z</time></trkpt><trkpt lat="38.8223567" lon="16.245495"><ele>20.0</ele><time>2026-05-03T06:30:02.484Z</time></trkpt><trkpt lat="38.8225133" lon="16.2458817"><ele>20.0</ele><time>2026-05-03T06:30:03.484Z</time></trkpt><trkpt lat="38.82267" lon="16.2462633"><ele>20.0</ele><time>2026-05-03T06:30:04.484Z</time></trkpt><trkpt lat="38.82283" lon="16.2466417"><ele>20.0</ele><time>2026-05-03T06:30:05.484Z</time></trkpt><trkpt lat="38.822995" lon="16.247015"><ele>20.0</ele><time>2026-05-03T06:30:06.482Z</time></trkpt><trkpt lat="38.8231633" lon="16.247385"><ele>19.5</ele><time>2026-05-03T06:30:07.485Z</time></trkpt><trkpt lat="38.8233367" lon="16.247755"><ele>19.0</ele><time>2026-05-03T06:30:08.484Z</time></trkpt><trkpt lat="38.8235183" lon="16.2481183"><ele>19.0</ele><time>2026-05-03T06:30:09.482Z</time></trkpt><trkpt lat="38.823705" lon="16.2484767"><ele>19.0</ele><time>2026-05-03T06:30:10.483Z</time></trkpt><trkpt lat="38.8239" lon="16.24883"><ele>18.5</ele><time>2026-05-03T06:30:11.482Z</time></trkpt><trkpt lat="38.8241033" lon="16.2491767"><ele>18.0</ele><time>2026-05-03T06:30:12.482Z</time></trkpt><trkpt lat="38.8243183" lon="16.2495133"><ele>18.5</ele><time>2026-05-03T06:30:13.483Z</time></trkpt><trkpt lat="38.8245417" lon="16.2498417"><ele>19.0</ele><time>2026-05-03T06:30:14.482Z</time></trkpt><trkpt lat="38.824775" lon="16.2501667"><ele>19.0</ele><time>2026-05-03T06:30:15.483Z</time></trkpt><trkpt lat="38.825015" lon="16.25048"><ele>19.0</ele><time>2026-05-03T06:30:16.481Z</time></trkpt><trkpt lat="38.82526" lon="16.250785"><ele>19.0</ele><time>2026-05-03T06:30:17.483Z</time></trkpt><trkpt lat="38.8255117" lon="16.25108"><ele>19.0</ele><time>2026-05-03T06:30:18.482Z</time></trkpt><trkpt lat="38.82577" lon="16.2513667"><ele>20.0</ele><time>2026-05-03T06:30:19.483Z</time></trkpt><trkpt lat="38.826035" lon="16.2516467"><ele>21.0</ele><time>2026-05-03T06:30:20.481Z</time></trkpt><trkpt lat="38.826305" lon="16.2519167"><ele>21.0</ele><time>2026-05-03T06:30:21.481Z</time></trkpt><trkpt lat="38.8265767" lon="16.2521783"><ele>21.0</ele><time>2026-05-03T06:30:22.482Z</time></trkpt><trkpt lat="38.8268517" lon="16.2524317"><ele>23.0</ele><time>2026-05-03T06:30:23.481Z</time></trkpt><trkpt lat="38.8271317" lon="16.2526767"><ele>25.0</ele><time>2026-05-03T06:30:24.482Z</time></trkpt><trkpt lat="38.8274133" lon="16.2529133"><ele>24.0</ele><time>2026-05-03T06:30:25.482Z</time></trkpt><trkpt lat="38.8277" lon="16.2531467"><ele>23.0</ele><time>2026-05-03T06:30:26.481Z</time></trkpt><trkpt lat="38.8279883" lon="16.253375"><ele>23.0</ele><time>2026-05-03T06:30:27.484Z</time></trkpt><trkpt lat="38.82828" lon="16.2535983"><ele>23.0</ele><time>2026-05-03T06:30:28.482Z</time></trkpt><trkpt lat="38.828575" lon="16.2538183"><ele>25.5</ele><time>2026-05-03T06:30:29.484Z</time></trkpt><trkpt lat="38.8288733" lon="16.2540367"><ele>28.0</ele><time>2026-05-03T06:30:30.483Z</time></trkpt><trkpt lat="38.8291717" lon="16.2542483"><ele>26.5</ele><time>2026-05-03T06:30:31.483Z</time></trkpt><trkpt lat="38.8294717" lon="16.2544567"><ele>25.0</ele><time>2026-05-03T06:30:32.483Z</time></trkpt><trkpt lat="38.8297733" lon="16.254665"><ele>25.5</ele><time>2026-05-03T06:30:33.484Z</time></trkpt><trkpt lat="38.830075" lon="16.2548717"><ele>26.0</ele><time>2026-05-03T06:30:34.483Z</time></trkpt><trkpt lat="38.8303767" lon="16.25508"><ele>26.0</ele><time>2026-05-03T06:30:35.485Z</time></trkpt><trkpt lat="38.8306767" lon="16.2552883"><ele>26.0</ele><time>2026-05-03T06:30:36.482Z</time></trkpt><trkpt lat="38.8309783" lon="16.255495"><ele>27.5</ele><time>2026-05-03T06:30:37.483Z</time></trkpt><trkpt lat="38.8312833" lon="16.2557"><ele>29.0</ele><time>2026-05-03T06:30:38.483Z</time></trkpt><trkpt lat="38.8315883" lon="16.2559067"><ele>27.5</ele><time>2026-05-03T06:30:39.484Z</time></trkpt><trkpt lat="38.831895" lon="16.2561133"><ele>26.0</ele><time>2026-05-03T06:30:40.483Z</time></trkpt><trkpt lat="38.8322017" lon="16.2563233"><ele>26.0</ele><time>2026-05-03T06:30:41.483Z</time></trkpt><trkpt lat="38.8325117" lon="16.2565317"><ele>26.0</ele><time>2026-05-03T06:30:42.482Z</time></trkpt><trkpt lat="38.8328233" lon="16.2567383"><ele>26.0</ele><time>2026-05-03T06:30:43.482Z</time></trkpt><trkpt lat="38.8331365" lon="16.2569483"><ele>26.0</ele><time>2026-05-03T06:30:44.482Z</time></trkpt><trkpt lat="38.8334502" lon="16.2571602"><ele>27.5</ele><time>2026-05-03T06:30:45.482Z</time></trkpt><trkpt lat="38.8337652" lon="16.2573725"><ele>29.0</ele><time>2026-05-03T06:30:46.482Z</time></trkpt><trkpt lat="38.834079" lon="16.2575903"><ele>29.0</ele><time>2026-05-03T06:30:47.485Z</time></trkpt><trkpt lat="38.8343929" lon="16.2578047"><ele>29.0</ele><time>2026-05-03T06:30:48.483Z</time></trkpt><trkpt lat="38.8347065" lon="16.2580173"><ele>29.0</ele><time>2026-05-03T06:30:49.482Z</time></trkpt><trkpt lat="38.8350186" lon="16.2582291"><ele>29.0</ele><time>2026-05-03T06:30:50.484Z</time></trkpt><trkpt lat="38.8353289" lon="16.2584417"><ele>29.0</ele><time>2026-05-03T06:30:51.482Z</time></trkpt><trkpt lat="38.8356355" lon="16.2586584"><ele>29.0</ele><time>2026-05-03T06:30:52.481Z</time></trkpt><trkpt lat="38.8359357" lon="16.2588809"><ele>29.0</ele><time>2026-05-03T06:30:53.483Z</time></trkpt><trkpt lat="38.8362291" lon="16.2591089"><ele>29.0</ele><time>2026-05-03T06:30:54.482Z</time></trkpt><trkpt lat="38.8365168" lon="16.259344"><ele>29.0</ele><time>2026-05-03T06:30:55.482Z</time></trkpt><trkpt lat="38.8368015" lon="16.2595808"><ele>29.0</ele><time>2026-05-03T06:30:56.482Z</time></trkpt><trkpt lat="38.8370817" lon="16.2598215"><ele>29.5</ele><time>2026-05-03T06:30:57.482Z</time></trkpt><trkpt lat="38.8373589" lon="16.2600618"><ele>30.0</ele><time>2026-05-03T06:30:58.481Z</time></trkpt><trkpt lat="38.8376371" lon="16.260302"><ele>30.0</ele><time>2026-05-03T06:30:59.482Z</time></trkpt><trkpt lat="38.8379198" lon="16.2605369"><ele>30.0</ele><time>2026-05-03T06:31:00.482Z</time></trkpt><trkpt lat="38.8382053" lon="16.2607679"><ele>31.0</ele><time>2026-05-03T06:31:01.483Z</time></trkpt><trkpt lat="38.8384922" lon="16.2609995"><ele>32.0</ele><time>2026-05-03T06:31:02.484Z</time></trkpt><trkpt lat="38.8387821" lon="16.2612269"><ele>33.0</ele><time>2026-05-03T06:31:03.482Z</time></trkpt><trkpt lat="38.8390766" lon="16.2614511"><ele>34.0</ele><time>2026-05-03T06:31:04.482Z</time></trkpt><trkpt lat="38.8393763" lon="16.2616727"><ele>35.0</ele><time>2026-05-03T06:31:05.482Z</time></trkpt><trkpt lat="38.8396829" lon="16.2618852"><ele>36.0</ele><time>2026-05-03T06:31:06.482Z</time></trkpt><trkpt lat="38.8399949" lon="16.2620909"><ele>34.0</ele><time>2026-05-03T06:31:07.484Z</time></trkpt><trkpt lat="38.8403109" lon="16.2622906"><ele>32.0</ele><time>2026-05-03T06:31:08.481Z</time></trkpt><trkpt lat="38.8406318" lon="16.2624861"><ele>32.0</ele><time>2026-05-03T06:31:09.481Z</time></trkpt><trkpt lat="38.8409576" lon="16.2626706"><ele>32.0</ele><time>2026-05-03T06:31:10.483Z</time></trkpt><trkpt lat="38.84129" lon="16.2628464"><ele>32.0</ele><time>2026-05-03T06:31:11.482Z</time></trkpt><trkpt lat="38.8416285" lon="16.2630119"><ele>32.0</ele><time>2026-05-03T06:31:12.482Z</time></trkpt><trkpt lat="38.841971" lon="16.2631751"><ele>31.0</ele><time>2026-05-03T06:31:13.483Z</time></trkpt><trkpt lat="38.8423149" lon="16.2633387"><ele>30.0</ele><time>2026-05-03T06:31:14.483Z</time></trkpt><trkpt lat="38.8426561" lon="16.2635033"><ele>29.5</ele><time>2026-05-03T06:31:15.487Z</time></trkpt><trkpt lat="38.8429909" lon="16.2636684"><ele>29.0</ele><time>2026-05-03T06:31:16.483Z</time></trkpt><trkpt lat="38.843321" lon="16.2638318"><ele>28.5</ele><time>2026-05-03T06:31:17.482Z</time></trkpt><trkpt lat="38.8436506" lon="16.2639949"><ele>28.0</ele><time>2026-05-03T06:31:18.482Z</time></trkpt><trkpt lat="38.8439775" lon="16.264159"><ele>28.5</ele><time>2026-05-03T06:31:19.481Z</time></trkpt><trkpt lat="38.8443017" lon="16.2643284"><ele>29.0</ele><time>2026-05-03T06:31:20.482Z</time></trkpt><trkpt lat="38.8446226" lon="16.2645126"><ele>29.0</ele><time>2026-05-03T06:31:21.481Z</time></trkpt><trkpt lat="38.8449411" lon="16.2647058"><ele>29.0</ele><time>2026-05-03T06:31:22.48Z</time></trkpt><trkpt lat="38.8452546" lon="16.2649102"><ele>28.0</ele><time>2026-05-03T06:31:23.482Z</time></trkpt><trkpt lat="38.8455659" lon="16.2651218"><ele>27.0</ele><time>2026-05-03T06:31:24.481Z</time></trkpt><trkpt lat="38.8458728" lon="16.2653437"><ele>27.0</ele><time>2026-05-03T06:31:25.482Z</time></trkpt><trkpt lat="38.8461718" lon="16.2655737"><ele>27.0</ele><time>2026-05-03T06:31:26.483Z</time></trkpt><trkpt lat="38.8464681" lon="16.2658044"><ele>27.0</ele><time>2026-05-03T06:31:27.485Z</time></trkpt><trkpt lat="38.846762" lon="16.2660371"><ele>27.0</ele><time>2026-05-03T06:31:28.481Z</time></trkpt><trkpt lat="38.8470558" lon="16.266271"><ele>26.0</ele><time>2026-05-03T06:31:29.486Z</time></trkpt><trkpt lat="38.847344" lon="16.2665043"><ele>25.0</ele><time>2026-05-03T06:31:30.48Z</time></trkpt><trkpt lat="38.8476324" lon="16.2667402"><ele>25.0</ele><time>2026-05-03T06:31:31.482Z</time></trkpt><trkpt lat="38.8479211" lon="16.2669792"><ele>25.0</ele><time>2026-05-03T06:31:32.482Z</time></trkpt><trkpt lat="38.8482106" lon="16.2672165"><ele>24.5</ele><time>2026-05-03T06:31:33.483Z</time></trkpt><trkpt lat="38.8484991" lon="16.2674521"><ele>24.0</ele><time>2026-05-03T06:31:34.484Z</time></trkpt><trkpt lat="38.8487879" lon="16.2676855"><ele>24.0</ele><time>2026-05-03T06:31:35.482Z</time></trkpt><trkpt lat="38.8490766" lon="16.267919"><ele>24.0</ele><time>2026-05-03T06:31:36.482Z</time></trkpt><trkpt lat="38.8493663" lon="16.2681537"><ele>24.5</ele><time>2026-05-03T06:31:37.481Z</time></trkpt><trkpt lat="38.8496526" lon="16.268385"><ele>25.0</ele><time>2026-05-03T06:31:38.482Z</time></trkpt><trkpt lat="38.8499359" lon="16.2686135"><ele>24.0</ele><time>2026-05-03T06:31:39.482Z</time></trkpt><trkpt lat="38.8502161" lon="16.2688398"><ele>23.0</ele><time>2026-05-03T06:31:40.482Z</time></trkpt><trkpt lat="38.8504976" lon="16.2690619"><ele>23.0</ele><time>2026-05-03T06:31:41.482Z</time></trkpt><trkpt lat="38.8507825" lon="16.269289"><ele>23.0</ele><time>2026-05-03T06:31:42.482Z</time></trkpt><trkpt lat="38.8510709" lon="16.2695155"><ele>22.0</ele><time>2026-05-03T06:31:43.485Z</time></trkpt><trkpt lat="38.8513631" lon="16.2697459"><ele>21.0</ele><time>2026-05-03T06:31:44.482Z</time></trkpt><trkpt lat="38.8516614" lon="16.2699774"><ele>22.0</ele><time>2026-05-03T06:31:45.483Z</time></trkpt><trkpt lat="38.8519645" lon="16.2702159"><ele>23.0</ele><time>2026-05-03T06:31:46.483Z</time></trkpt><trkpt lat="38.8522729" lon="16.2704601"><ele>23.0</ele><time>2026-05-03T06:31:47.482Z</time></trkpt><trkpt lat="38.8525852" lon="16.2707123"><ele>23.0</ele><time>2026-05-03T06:31:48.482Z</time></trkpt><trkpt lat="38.8529024" lon="16.2709774"><ele>22.0</ele><time>2026-05-03T06:31:49.482Z</time></trkpt><trkpt lat="38.8532211" lon="16.2712424"><ele>21.0</ele><time>2026-05-03T06:31:50.483Z</time></trkpt><trkpt lat="38.8535315" lon="16.2715044"><ele>21.0</ele><time>2026-05-03T06:31:51.482Z</time></trkpt><trkpt lat="38.8538358" lon="16.2717663"><ele>21.0</ele><time>2026-05-03T06:31:52.484Z</time></trkpt><trkpt lat="38.8541349" lon="16.2720183"><ele>21.0</ele><time>2026-05-03T06:31:53.481Z</time></trkpt><trkpt lat="38.8544317" lon="16.2722601"><ele>21.0</ele><time>2026-05-03T06:31:54.481Z</time></trkpt><trkpt lat="38.8547262" lon="16.2724921"><ele>21.0</ele><time>2026-05-03T06:31:55.481Z</time></trkpt><trkpt lat="38.8550153" lon="16.2727258"><ele>21.0</ele><time>2026-05-03T06:31:56.483Z</time></trkpt><trkpt lat="38.8553015" lon="16.2729571"><ele>20.0</ele><time>2026-05-03T06:31:57.48Z</time></trkpt><trkpt lat="38.855588" lon="16.273191"><ele>19.0</ele><time>2026-05-03T06:31:58.481Z</time></trkpt><trkpt lat="38.8558787" lon="16.2734269"><ele>18.0</ele><time>2026-05-03T06:31:59.48Z</time></trkpt><trkpt lat="38.8561734" lon="16.2736574"><ele>17.0</ele><time>2026-05-03T06:32:00.482Z</time></trkpt><trkpt lat="38.8564715" lon="16.2738766"><ele>17.5</ele><time>2026-05-03T06:32:01.48Z</time></trkpt><trkpt lat="38.8567747" lon="16.2740825"><ele>18.0</ele><time>2026-05-03T06:32:02.482Z</time></trkpt><trkpt lat="38.8570852" lon="16.2742731"><ele>17.5</ele><time>2026-05-03T06:32:03.48Z</time></trkpt><trkpt lat="38.8574036" lon="16.2744445"><ele>17.0</ele><time>2026-05-03T06:32:04.483Z</time></trkpt><trkpt lat="38.8577259" lon="16.274599"><ele>17.0</ele><time>2026-05-03T06:32:05.483Z</time></trkpt><trkpt lat="38.8580522" lon="16.2747376"><ele>17.0</ele><time>2026-05-03T06:32:06.483Z</time></trkpt><trkpt lat="38.8583822" lon="16.274862"><ele>17.0</ele><time>2026-05-03T06:32:07.483Z</time></trkpt><trkpt lat="38.8587155" lon="16.2749733"><ele>17.0</ele><time>2026-05-03T06:32:08.482Z</time></trkpt><trkpt lat="38.8590507" lon="16.2750714"><ele>18.0</ele><time>2026-05-03T06:32:09.482Z</time></trkpt><trkpt lat="38.8593864" lon="16.2751647"><ele>19.0</ele><time>2026-05-03T06:32:10.481Z</time></trkpt><trkpt lat="38.859723" lon="16.2752529"><ele>19.0</ele><time>2026-05-03T06:32:11.481Z</time></trkpt><trkpt lat="38.8600611" lon="16.2753429"><ele>19.0</ele><time>2026-05-03T06:32:12.482Z</time></trkpt><trkpt lat="38.8604009" lon="16.2754323"><ele>18.5</ele><time>2026-05-03T06:32:13.481Z</time></trkpt><trkpt lat="38.8607394" lon="16.2755298"><ele>18.0</ele><time>2026-05-03T06:32:14.482Z</time></trkpt><trkpt lat="38.8610787" lon="16.2756346"><ele>18.0</ele><time>2026-05-03T06:32:15.482Z</time></trkpt><trkpt lat="38.8614177" lon="16.2757514"><ele>18.0</ele><time>2026-05-03T06:32:16.483Z</time></trkpt><trkpt lat="38.8617576" lon="16.2758791"><ele>19.5</ele><time>2026-05-03T06:32:17.482Z</time></trkpt><trkpt lat="38.8620952" lon="16.2760259"><ele>21.0</ele><time>2026-05-03T06:32:18.483Z</time></trkpt><trkpt lat="38.8624303" lon="16.2761904"><ele>22.5</ele><time>2026-05-03T06:32:19.482Z</time></trkpt><trkpt lat="38.8627597" lon="16.2763739"><ele>24.0</ele><time>2026-05-03T06:32:20.484Z</time></trkpt><trkpt lat="38.863082" lon="16.276574"><ele>24.5</ele><time>2026-05-03T06:32:21.481Z</time></trkpt><trkpt lat="38.8633991" lon="16.2767907"><ele>25.0</ele><time>2026-05-03T06:32:22.482Z</time></trkpt><trkpt lat="38.8637078" lon="16.2770218"><ele>25.5</ele><time>2026-05-03T06:32:23.481Z</time></trkpt><trkpt lat="38.8640104" lon="16.2772658"><ele>26.0</ele><time>2026-05-03T06:32:24.488Z</time></trkpt><trkpt lat="38.8643063" lon="16.277522"><ele>27.5</ele><time>2026-05-03T06:32:25.481Z</time></trkpt><trkpt lat="38.8645928" lon="16.2777945"><ele>29.0</ele><time>2026-05-03T06:32:26.481Z</time></trkpt><trkpt lat="38.8648712" lon="16.2780739"><ele>29.5</ele><time>2026-05-03T06:32:27.482Z</time></trkpt><trkpt lat="38.8651468" lon="16.2783536"><ele>30.0</ele><time>2026-05-03T06:32:28.482Z</time></trkpt><trkpt lat="38.8654206" lon="16.2786318"><ele>30.0</ele><time>2026-05-03T06:32:29.48Z</time></trkpt><trkpt lat="38.8656922" lon="16.2789097"><ele>30.0</ele><time>2026-05-03T06:32:30.481Z</time></trkpt><trkpt lat="38.8659622" lon="16.2791861"><ele>30.5</ele><time>2026-05-03T06:32:31.482Z</time></trkpt><trkpt lat="38.8662332" lon="16.2794584"><ele>31.0</ele><time>2026-05-03T06:32:32.484Z</time></trkpt><trkpt lat="38.8665059" lon="16.2797243"><ele>30.5</ele><time>2026-05-03T06:32:33.482Z</time></trkpt><trkpt lat="38.8667808" lon="16.2799867"><ele>30.0</ele><time>2026-05-03T06:32:34.481Z</time></trkpt><trkpt lat="38.8670591" lon="16.2802394"><ele>30.0</ele><time>2026-05-03T06:32:35.481Z</time></trkpt><trkpt lat="38.8673469" lon="16.2804816"><ele>30.0</ele><time>2026-05-03T06:32:36.481Z</time></trkpt><trkpt lat="38.8676428" lon="16.2807027"><ele>30.0</ele><time>2026-05-03T06:32:37.482Z</time></trkpt><trkpt lat="38.8679486" lon="16.2808989"><ele>30.0</ele><time>2026-05-03T06:32:38.483Z</time></trkpt><trkpt lat="38.8682619" lon="16.2810725"><ele>30.5</ele><time>2026-05-03T06:32:39.482Z</time></trkpt><trkpt lat="38.8685828" lon="16.2812245"><ele>31.0</ele><time>2026-05-03T06:32:40.489Z</time></trkpt><trkpt lat="38.8689085" lon="16.2813551"><ele>31.5</ele><time>2026-05-03T06:32:41.481Z</time></trkpt><trkpt lat="38.8692437" lon="16.2814639"><ele>32.0</ele><time>2026-05-03T06:32:42.482Z</time></trkpt><trkpt lat="38.8695829" lon="16.2815504"><ele>32.5</ele><time>2026-05-03T06:32:43.481Z</time></trkpt><trkpt lat="38.8699268" lon="16.2816185"><ele>33.0</ele><time>2026-05-03T06:32:44.483Z</time></trkpt><trkpt lat="38.8702736" lon="16.281664"><ele>33.0</ele><time>2026-05-03T06:32:45.481Z</time></trkpt><trkpt lat="38.8706199" lon="16.2816918"><ele>33.0</ele><time>2026-05-03T06:32:46.481Z</time></trkpt><trkpt lat="38.8709745" lon="16.2817038"><ele>31.5</ele><time>2026-05-03T06:32:47.481Z</time></trkpt><trkpt lat="38.8713303" lon="16.2817086"><ele>30.0</ele><time>2026-05-03T06:32:48.483Z</time></trkpt><trkpt lat="38.8716882" lon="16.2817052"><ele>29.5</ele><time>2026-05-03T06:32:49.482Z</time></trkpt><trkpt lat="38.8720467" lon="16.2816966"><ele>29.0</ele><time>2026-05-03T06:32:50.481Z</time></trkpt><trkpt lat="38.8723999" lon="16.2816875"><ele>28.0</ele><time>2026-05-03T06:32:51.482Z</time></trkpt><trkpt lat="38.8727493" lon="16.2816772"><ele>27.0</ele><time>2026-05-03T06:32:52.481Z</time></trkpt><trkpt lat="38.8730967" lon="16.28167"><ele>27.0</ele><time>2026-05-03T06:32:53.481Z</time></trkpt><trkpt lat="38.873445" lon="16.2816633"><ele>27.0</ele><time>2026-05-03T06:32:54.482Z</time></trkpt><trkpt lat="38.8737933" lon="16.2816533"><ele>27.0</ele><time>2026-05-03T06:32:55.481Z</time></trkpt><trkpt lat="38.874145" lon="16.2816433"><ele>27.0</ele><time>2026-05-03T06:32:56.483Z</time></trkpt><trkpt lat="38.8744967" lon="16.2816333"><ele>27.5</ele><time>2026-05-03T06:32:57.482Z</time></trkpt><trkpt lat="38.8748483" lon="16.2816233"><ele>28.0</ele><time>2026-05-03T06:32:58.483Z</time></trkpt><trkpt lat="38.8751983" lon="16.281615"><ele>23.5</ele><time>2026-05-03T06:32:59.481Z</time></trkpt><trkpt lat="38.8755483" lon="16.2816033"><ele>19.0</ele><time>2026-05-03T06:33:00.482Z</time></trkpt><trkpt lat="38.87589" lon="16.2815967"><ele>19.5</ele><time>2026-05-03T06:33:01.482Z</time></trkpt><trkpt lat="38.8762217" lon="16.2815867"><ele>20.0</ele><time>2026-05-03T06:33:02.483Z</time></trkpt><trkpt lat="38.8765333" lon="16.281575"><ele>20.0</ele><time>2026-05-03T06:33:03.481Z</time></trkpt><trkpt lat="38.876835" lon="16.281565"><ele>20.0</ele><time>2026-05-03T06:33:04.482Z</time></trkpt><trkpt lat="38.8771283" lon="16.2815583"><ele>20.0</ele><time>2026-05-03T06:33:05.482Z</time></trkpt><trkpt lat="38.8774267" lon="16.2815483"><ele>20.0</ele><time>2026-05-03T06:33:06.48Z</time></trkpt><trkpt lat="38.8777333" lon="16.2815417"><ele>19.5</ele><time>2026-05-03T06:33:07.481Z</time></trkpt><trkpt lat="38.87805" lon="16.281535"><ele>19.0</ele><time>2026-05-03T06:33:08.483Z</time></trkpt><trkpt lat="38.878375" lon="16.28153"><ele>19.0</ele><time>2026-05-03T06:33:09.482Z</time></trkpt><trkpt lat="38.8787067" lon="16.2815267"><ele>19.0</ele><time>2026-05-03T06:33:10.481Z</time></trkpt><trkpt lat="38.8790433" lon="16.2815133"><ele>19.5</ele><time>2026-05-03T06:33:11.482Z</time></trkpt><trkpt lat="38.8793817" lon="16.2814967"><ele>20.0</ele><time>2026-05-03T06:33:12.482Z</time></trkpt><trkpt lat="38.8797217" lon="16.2814783"><ele>20.0</ele><time>2026-05-03T06:33:13.481Z</time></trkpt><trkpt lat="38.880065" lon="16.2814567"><ele>20.0</ele><time>2026-05-03T06:33:14.483Z</time></trkpt><trkpt lat="38.8804083" lon="16.28143"><ele>20.0</ele><time>2026-05-03T06:33:15.483Z</time></trkpt><trkpt lat="38.880755" lon="16.2813967"><ele>20.0</ele><time>2026-05-03T06:33:16.48Z</time></trkpt><trkpt lat="38.8811033" lon="16.2813517"><ele>20.0</ele><time>2026-05-03T06:33:17.481Z</time></trkpt><trkpt lat="38.88145" lon="16.281305"><ele>20.0</ele><time>2026-05-03T06:33:18.481Z</time></trkpt><trkpt lat="38.881795" lon="16.2812567"><ele>19.5</ele><time>2026-05-03T06:33:19.482Z</time></trkpt><trkpt lat="38.882145" lon="16.281205"><ele>19.0</ele><time>2026-05-03T06:33:20.483Z</time></trkpt><trkpt lat="38.8824983" lon="16.28115"><ele>19.5</ele><time>2026-05-03T06:33:21.481Z</time></trkpt><trkpt lat="38.8828517" lon="16.281095"><ele>20.0</ele><time>2026-05-03T06:33:22.481Z</time></trkpt><trkpt lat="38.883205" lon="16.2810433"><ele>19.0</ele><time>2026-05-03T06:33:23.482Z</time></trkpt><trkpt lat="38.8835583" lon="16.280995"><ele>18.0</ele><time>2026-05-03T06:33:24.481Z</time></trkpt><trkpt lat="38.8839117" lon="16.2809417"><ele>18.0</ele><time>2026-05-03T06:33:25.48Z</time></trkpt><trkpt lat="38.8842617" lon="16.2808883"><ele>18.0</ele><time>2026-05-03T06:33:26.483Z</time></trkpt><trkpt lat="38.8846117" lon="16.2808333"><ele>18.0</ele><time>2026-05-03T06:33:27.481Z</time></trkpt><trkpt lat="38.8849617" lon="16.2807767"><ele>18.0</ele><time>2026-05-03T06:33:28.483Z</time></trkpt><trkpt lat="38.8853117" lon="16.2807217"><ele>18.0</ele><time>2026-05-03T06:33:29.481Z</time></trkpt><trkpt lat="38.8856583" lon="16.2806683"><ele>18.0</ele><time>2026-05-03T06:33:30.482Z</time></trkpt><trkpt lat="38.8860033" lon="16.280615"><ele>19.5</ele><time>2026-05-03T06:33:31.482Z</time></trkpt><trkpt lat="38.8863467" lon="16.2805633"><ele>21.0</ele><time>2026-05-03T06:33:32.481Z</time></trkpt><trkpt lat="38.88669" lon="16.2805083"><ele>20.0</ele><time>2026-05-03T06:33:33.483Z</time></trkpt><trkpt lat="38.887035" lon="16.2804533"><ele>19.0</ele><time>2026-05-03T06:33:34.481Z</time></trkpt><trkpt lat="38.8873783" lon="16.2804017"><ele>19.5</ele><time>2026-05-03T06:33:35.482Z</time></trkpt><trkpt lat="38.8877217" lon="16.2803533"><ele>20.0</ele><time>2026-05-03T06:33:36.483Z</time></trkpt><trkpt lat="38.8880633" lon="16.2803033"><ele>20.0</ele><time>2026-05-03T06:33:37.481Z</time></trkpt><trkpt lat="38.8884017" lon="16.2802533"><ele>20.0</ele><time>2026-05-03T06:33:38.483Z</time></trkpt><trkpt lat="38.8887417" lon="16.2802"><ele>20.0</ele><time>2026-05-03T06:33:39.482Z</time></trkpt><trkpt lat="38.88908" lon="16.2801483"><ele>20.0</ele><time>2026-05-03T06:33:40.482Z</time></trkpt><trkpt lat="38.8894167" lon="16.2800933"><ele>19.5</ele><time>2026-05-03T06:33:41.481Z</time></trkpt><trkpt lat="38.8897533" lon="16.2800383"><ele>19.0</ele><time>2026-05-03T06:33:42.482Z</time></trkpt><trkpt lat="38.8900867" lon="16.2799867"><ele>19.0</ele><time>2026-05-03T06:33:43.482Z</time></trkpt><trkpt lat="38.89042" lon="16.27994"><ele>19.0</ele><time>2026-05-03T06:33:44.483Z</time></trkpt><trkpt lat="38.8907517" lon="16.2798933"><ele>18.5</ele><time>2026-05-03T06:33:45.483Z</time></trkpt><trkpt lat="38.8910867" lon="16.279845"><ele>18.0</ele><time>2026-05-03T06:33:46.482Z</time></trkpt><trkpt lat="38.89142" lon="16.2797967"><ele>19.0</ele><time>2026-05-03T06:33:47.482Z</time></trkpt><trkpt lat="38.8917517" lon="16.2797467"><ele>20.0</ele><time>2026-05-03T06:33:48.481Z</time></trkpt><trkpt lat="38.892085" lon="16.279695"><ele>20.0</ele><time>2026-05-03T06:33:49.481Z</time></trkpt><trkpt lat="38.8924217" lon="16.2796433"><ele>20.0</ele><time>2026-05-03T06:33:50.482Z</time></trkpt><trkpt lat="38.8927667" lon="16.2795867"><ele>20.0</ele><time>2026-05-03T06:33:51.481Z</time></trkpt><trkpt lat="38.8931167" lon="16.27953"><ele>20.0</ele><time>2026-05-03T06:33:52.481Z</time></trkpt><trkpt lat="38.893475" lon="16.2794717"><ele>19.5</ele><time>2026-05-03T06:33:53.482Z</time></trkpt><trkpt lat="38.89384" lon="16.279415"><ele>19.0</ele><time>2026-05-03T06:33:54.483Z</time></trkpt><trkpt lat="38.894205" lon="16.2793583"><ele>18.5</ele><time>2026-05-03T06:33:55.482Z</time></trkpt><trkpt lat="38.8945683" lon="16.279305"><ele>18.0</ele><time>2026-05-03T06:33:56.482Z</time></trkpt><trkpt lat="38.8949333" lon="16.2792517"><ele>18.5</ele><time>2026-05-03T06:33:57.482Z</time></trkpt><trkpt lat="38.8953" lon="16.2791983"><ele>19.0</ele><time>2026-05-03T06:33:58.486Z</time></trkpt><trkpt lat="38.8956683" lon="16.2791383"><ele>18.0</ele><time>2026-05-03T06:33:59.482Z</time></trkpt><trkpt lat="38.8960383" lon="16.27908"><ele>17.0</ele><time>2026-05-03T06:34:00.482Z</time></trkpt><trkpt lat="38.896405" lon="16.279025"><ele>17.5</ele><time>2026-05-03T06:34:01.481Z</time></trkpt><trkpt lat="38.89677" lon="16.2789733"><ele>18.0</ele><time>2026-05-03T06:34:02.482Z</time></trkpt><trkpt lat="38.8971283" lon="16.27892"><ele>18.5</ele><time>2026-05-03T06:34:03.485Z</time></trkpt><trkpt lat="38.8974833" lon="16.278865"><ele>19.0</ele><time>2026-05-03T06:34:04.481Z</time></trkpt><trkpt lat="38.8978367" lon="16.2788117"><ele>19.5</ele><time>2026-05-03T06:34:05.481Z</time></trkpt><trkpt lat="38.8981917" lon="16.2787617"><ele>20.0</ele><time>2026-05-03T06:34:06.482Z</time></trkpt><trkpt lat="38.8985433" lon="16.2787133"><ele>19.0</ele><time>2026-05-03T06:34:07.483Z</time></trkpt><trkpt lat="38.898895" lon="16.2786683"><ele>18.0</ele><time>2026-05-03T06:34:08.482Z</time></trkpt><trkpt lat="38.8992467" lon="16.2786217"><ele>18.5</ele><time>2026-05-03T06:34:09.483Z</time></trkpt><trkpt lat="38.8995967" lon="16.2785717"><ele>19.0</ele><time>2026-05-03T06:34:10.481Z</time></trkpt><trkpt lat="38.8999467" lon="16.2785183"><ele>19.5</ele><time>2026-05-03T06:34:11.482Z</time></trkpt><trkpt lat="38.9002933" lon="16.2784667"><ele>20.0</ele><time>2026-05-03T06:34:12.483Z</time></trkpt><trkpt lat="38.90064" lon="16.2784167"><ele>19.5</ele><time>2026-05-03T06:34:13.483Z</time></trkpt><trkpt lat="38.9009833" lon="16.278365"><ele>19.0</ele><time>2026-05-03T06:34:14.481Z</time></trkpt><trkpt lat="38.901325" lon="16.278305"><ele>19.0</ele><time>2026-05-03T06:34:15.483Z</time></trkpt><trkpt lat="38.901665" lon="16.2782367"><ele>19.0</ele><time>2026-05-03T06:34:16.481Z</time></trkpt><trkpt lat="38.9020033" lon="16.278155"><ele>19.0</ele><time>2026-05-03T06:34:17.483Z</time></trkpt><trkpt lat="38.9023367" lon="16.278055"><ele>19.0</ele><time>2026-05-03T06:34:18.481Z</time></trkpt><trkpt lat="38.9026683" lon="16.2779417"><ele>19.0</ele><time>2026-05-03T06:34:19.482Z</time></trkpt><trkpt lat="38.902995" lon="16.27781"><ele>19.0</ele><time>2026-05-03T06:34:20.481Z</time></trkpt><trkpt lat="38.90332" lon="16.277665"><ele>19.0</ele><time>2026-05-03T06:34:21.483Z</time></trkpt><trkpt lat="38.9036383" lon="16.2775017"><ele>19.0</ele><time>2026-05-03T06:34:22.482Z</time></trkpt><trkpt lat="38.9039533" lon="16.2773267"><ele>20.0</ele><time>2026-05-03T06:34:23.482Z</time></trkpt><trkpt lat="38.904265" lon="16.2771333"><ele>21.0</ele><time>2026-05-03T06:34:24.482Z</time></trkpt><trkpt lat="38.9045717" lon="16.2769267"><ele>21.0</ele><time>2026-05-03T06:34:25.482Z</time></trkpt><trkpt lat="38.9048717" lon="16.276705"><ele>21.0</ele><time>2026-05-03T06:34:26.482Z</time></trkpt><trkpt lat="38.9051667" lon="16.2764683"><ele>21.0</ele><time>2026-05-03T06:34:27.481Z</time></trkpt><trkpt lat="38.9054583" lon="16.2762217"><ele>21.0</ele><time>2026-05-03T06:34:28.481Z</time></trkpt><trkpt lat="38.905745" lon="16.2759733"><ele>22.0</ele><time>2026-05-03T06:34:29.482Z</time></trkpt><trkpt lat="38.9060317" lon="16.2757217"><ele>23.0</ele><time>2026-05-03T06:34:30.481Z</time></trkpt><trkpt lat="38.9063183" lon="16.2754733"><ele>23.0</ele><time>2026-05-03T06:34:31.481Z</time></trkpt><trkpt lat="38.9066033" lon="16.2752267"><ele>23.0</ele><time>2026-05-03T06:34:32.482Z</time></trkpt><trkpt lat="38.90689" lon="16.2749817"><ele>24.5</ele><time>2026-05-03T06:34:33.482Z</time></trkpt><trkpt lat="38.907175" lon="16.2747367"><ele>26.0</ele><time>2026-05-03T06:34:34.482Z</time></trkpt><trkpt lat="38.90746" lon="16.27449"><ele>26.5</ele><time>2026-05-03T06:34:35.482Z</time></trkpt><trkpt lat="38.9077433" lon="16.2742433"><ele>27.0</ele><time>2026-05-03T06:34:36.481Z</time></trkpt><trkpt lat="38.9080317" lon="16.2739967"><ele>26.5</ele><time>2026-05-03T06:34:37.482Z</time></trkpt><trkpt lat="38.90832" lon="16.2737467"><ele>26.0</ele><time>2026-05-03T06:34:38.481Z</time></trkpt><trkpt lat="38.9086083" lon="16.273495"><ele>26.0</ele><time>2026-05-03T06:34:39.483Z</time></trkpt><trkpt lat="38.9088933" lon="16.2732483"><ele>26.0</ele><time>2026-05-03T06:34:40.481Z</time></trkpt><trkpt lat="38.90918" lon="16.2729967"><ele>25.5</ele><time>2026-05-03T06:34:41.481Z</time></trkpt><trkpt lat="38.9094667" lon="16.272745"><ele>25.0</ele><time>2026-05-03T06:34:42.482Z</time></trkpt><trkpt lat="38.9097517" lon="16.272495"><ele>25.0</ele><time>2026-05-03T06:34:43.482Z</time></trkpt><trkpt lat="38.9100383" lon="16.2722483"><ele>25.0</ele><time>2026-05-03T06:34:44.482Z</time></trkpt><trkpt lat="38.9103233" lon="16.2719983"><ele>25.0</ele><time>2026-05-03T06:34:45.482Z</time></trkpt><trkpt lat="38.9106067" lon="16.2717483"><ele>25.0</ele><time>2026-05-03T06:34:46.482Z</time></trkpt><trkpt lat="38.9108917" lon="16.2715017"><ele>25.0</ele><time>2026-05-03T06:34:47.482Z</time></trkpt><trkpt lat="38.9111767" lon="16.271255"><ele>25.0</ele><time>2026-05-03T06:34:48.482Z</time></trkpt><trkpt lat="38.9114633" lon="16.2710067"><ele>25.0</ele><time>2026-05-03T06:34:49.481Z</time></trkpt><trkpt lat="38.9117483" lon="16.2707583"><ele>25.0</ele><time>2026-05-03T06:34:50.483Z</time></trkpt><trkpt lat="38.9120317" lon="16.2705117"><ele>24.5</ele><time>2026-05-03T06:34:51.483Z</time></trkpt><trkpt lat="38.9123167" lon="16.270265"><ele>24.0</ele><time>2026-05-03T06:34:52.481Z</time></trkpt><trkpt lat="38.9126" lon="16.2700183"><ele>25.0</ele><time>2026-05-03T06:34:53.483Z</time></trkpt><trkpt lat="38.91288" lon="16.269775"><ele>26.0</ele><time>2026-05-03T06:34:54.482Z</time></trkpt><trkpt lat="38.9131567" lon="16.2695317"><ele>26.5</ele><time>2026-05-03T06:34:55.481Z</time></trkpt><trkpt lat="38.9134283" lon="16.2692933"><ele>27.0</ele><time>2026-05-03T06:34:56.481Z</time></trkpt><trkpt lat="38.9136983" lon="16.2690617"><ele>26.5</ele><time>2026-05-03T06:34:57.482Z</time></trkpt><trkpt lat="38.91396" lon="16.2688367"><ele>26.0</ele><time>2026-05-03T06:34:58.482Z</time></trkpt><trkpt lat="38.9142167" lon="16.2686183"><ele>26.5</ele><time>2026-05-03T06:34:59.481Z</time></trkpt><trkpt lat="38.9144683" lon="16.2684"><ele>27.0</ele><time>2026-05-03T06:35:00.481Z</time></trkpt><trkpt lat="38.914715" lon="16.2681883"><ele>26.5</ele><time>2026-05-03T06:35:01.482Z</time></trkpt><trkpt lat="38.9149533" lon="16.2679867"><ele>26.0</ele><time>2026-05-03T06:35:02.483Z</time></trkpt><trkpt lat="38.9151867" lon="16.2677933"><ele>27.0</ele><time>2026-05-03T06:35:03.482Z</time></trkpt><trkpt lat="38.9154233" lon="16.2675983"><ele>28.0</ele><time>2026-05-03T06:35:04.481Z</time></trkpt><trkpt lat="38.91566" lon="16.2674067"><ele>28.0</ele><time>2026-05-03T06:35:05.482Z</time></trkpt><trkpt lat="38.9158867" lon="16.2672183"><ele>28.0</ele><time>2026-05-03T06:35:06.482Z</time></trkpt><trkpt lat="38.9161033" lon="16.26704"><ele>29.0</ele><time>2026-05-03T06:35:07.489Z</time></trkpt><trkpt lat="38.91631" lon="16.26687"><ele>30.0</ele><time>2026-05-03T06:35:08.481Z</time></trkpt><trkpt lat="38.91651" lon="16.2667017"><ele>30.0</ele><time>2026-05-03T06:35:09.481Z</time></trkpt><trkpt lat="38.91671" lon="16.2665367"><ele>30.0</ele><time>2026-05-03T06:35:10.481Z</time></trkpt><trkpt lat="38.916905" lon="16.2663717"><ele>29.5</ele><time>2026-05-03T06:35:11.482Z</time></trkpt><trkpt lat="38.9171" lon="16.266215"><ele>29.0</ele><time>2026-05-03T06:35:12.48Z</time></trkpt><trkpt lat="38.9172917" lon="16.2660583"><ele>29.0</ele><time>2026-05-03T06:35:13.482Z</time></trkpt><trkpt lat="38.9174733" lon="16.265915"><ele>29.0</ele><time>2026-05-03T06:35:14.482Z</time></trkpt><trkpt lat="38.9176467" lon="16.2657967"><ele>29.0</ele><time>2026-05-03T06:35:15.482Z</time></trkpt><trkpt lat="38.9178083" lon="16.2657017"><ele>28.333333333333332</ele><time>2026-05-03T06:35:16.481Z</time></trkpt><trkpt lat="38.9179633" lon="16.26564"><ele>27.666666666666664</ele><time>2026-05-03T06:35:17.484Z</time></trkpt><trkpt lat="38.9181133" lon="16.265605"><ele>27.0</ele><time>2026-05-03T06:35:18.481Z</time></trkpt><trkpt lat="38.9182617" lon="16.2656"><ele>27.25</ele><time>2026-05-03T06:35:19.481Z</time></trkpt><trkpt lat="38.9184033" lon="16.2656267"><ele>27.5</ele><time>2026-05-03T06:35:20.483Z</time></trkpt><trkpt lat="38.91853" lon="16.2656883"><ele>27.75</ele><time>2026-05-03T06:35:21.482Z</time></trkpt><trkpt lat="38.9186333" lon="16.2657767"><ele>28.0</ele><time>2026-05-03T06:35:22.482Z</time></trkpt><trkpt lat="38.9187167" lon="16.2658833"><ele>28.0</ele><time>2026-05-03T06:35:23.483Z</time></trkpt><trkpt lat="38.9187833" lon="16.2660083"><ele>27.999999999999996</ele><time>2026-05-03T06:35:24.482Z</time></trkpt><trkpt lat="38.9188317" lon="16.26614"><ele>27.999999999999996</ele><time>2026-05-03T06:35:25.482Z</time></trkpt><trkpt lat="38.9188583" lon="16.2662683"><ele>28.0</ele><time>2026-05-03T06:35:26.482Z</time></trkpt><trkpt lat="38.91886" lon="16.266395"><ele>28.0</ele><time>2026-05-03T06:35:27.482Z</time></trkpt><trkpt lat="38.918835" lon="16.26652"><ele>28.599999999999998</ele><time>2026-05-03T06:35:28.481Z</time></trkpt><trkpt lat="38.9187917" lon="16.2666333"><ele>29.199999999999996</ele><time>2026-05-03T06:35:29.482Z</time></trkpt><trkpt lat="38.9187333" lon="16.26673"><ele>29.8</ele><time>2026-05-03T06:35:30.482Z</time></trkpt><trkpt lat="38.9186583" lon="16.266815"><ele>30.4</ele><time>2026-05-03T06:35:31.482Z</time></trkpt><trkpt lat="38.9185617" lon="16.2668933"><ele>31.0</ele><time>2026-05-03T06:35:32.481Z</time></trkpt><trkpt lat="38.9184517" lon="16.266965"><ele>30.75</ele><time>2026-05-03T06:35:33.481Z</time></trkpt><trkpt lat="38.9183267" lon="16.2670317"><ele>30.5</ele><time>2026-05-03T06:35:34.482Z</time></trkpt><trkpt lat="38.91819" lon="16.2670933"><ele>30.25</ele><time>2026-05-03T06:35:35.484Z</time></trkpt><trkpt lat="38.9180433" lon="16.2671483"><ele>30.0</ele><time>2026-05-03T06:35:36.481Z</time></trkpt><trkpt lat="38.9178867" lon="16.267185"><ele>30.0</ele><time>2026-05-03T06:35:37.482Z</time></trkpt><trkpt lat="38.9177233" lon="16.267195"><ele>30.0</ele><time>2026-05-03T06:35:38.482Z</time></trkpt><trkpt lat="38.9175583" lon="16.267175"><ele>30.0</ele><time>2026-05-03T06:35:39.482Z</time></trkpt><trkpt lat="38.9173967" lon="16.2671167"><ele>30.0</ele><time>2026-05-03T06:35:40.482Z</time></trkpt><trkpt lat="38.917245" lon="16.26703"><ele>30.0</ele><time>2026-05-03T06:35:41.482Z</time></trkpt><trkpt lat="38.9171067" lon="16.2669233"><ele>30.0</ele><time>2026-05-03T06:35:42.481Z</time></trkpt><trkpt lat="38.9169917" lon="16.2668017"><ele>30.0</ele><time>2026-05-03T06:35:43.483Z</time></trkpt><trkpt lat="38.916895" lon="16.2666733"><ele>30.0</ele><time>2026-05-03T06:35:44.482Z</time></trkpt><trkpt lat="38.916805" lon="16.2665317"><ele>30.0</ele><time>2026-05-03T06:35:45.482Z</time></trkpt><trkpt lat="38.91671" lon="16.266385"><ele>30.0</ele><time>2026-05-03T06:35:46.48Z</time></trkpt><trkpt lat="38.9166017" lon="16.266235"><ele>29.333333333333336</ele><time>2026-05-03T06:35:47.482Z</time></trkpt><trkpt lat="38.9164783" lon="16.2660867"><ele>28.666666666666668</ele><time>2026-05-03T06:35:48.481Z</time></trkpt><trkpt lat="38.9163417" lon="16.2659367"><ele>28.0</ele><time>2026-05-03T06:35:49.483Z</time></trkpt><trkpt lat="38.9161867" lon="16.26579"><ele>28.0</ele><time>2026-05-03T06:35:50.481Z</time></trkpt><trkpt lat="38.91602" lon="16.265645"><ele>28.0</ele><time>2026-05-03T06:35:51.481Z</time></trkpt><trkpt lat="38.9158533" lon="16.2654883"><ele>28.0</ele><time>2026-05-03T06:35:52.481Z</time></trkpt><trkpt lat="38.9156933" lon="16.2653183"><ele>28.0</ele><time>2026-05-03T06:35:53.483Z</time></trkpt><trkpt lat="38.9155317" lon="16.2651383"><ele>28.0</ele><time>2026-05-03T06:35:54.482Z</time></trkpt><trkpt lat="38.915365" lon="16.2649467"><ele>28.0</ele><time>2026-05-03T06:35:55.484Z</time></trkpt><trkpt lat="38.9151933" lon="16.2647367"><ele>28.0</ele><time>2026-05-03T06:35:56.481Z</time></trkpt><trkpt lat="38.91503" lon="16.264505"><ele>28.0</ele><time>2026-05-03T06:35:57.482Z</time></trkpt><trkpt lat="38.9148783" lon="16.264245"><ele>28.0</ele><time>2026-05-03T06:35:58.481Z</time></trkpt><trkpt lat="38.914745" lon="16.26397"><ele>28.0</ele><time>2026-05-03T06:35:59.482Z</time></trkpt><trkpt lat="38.914625" lon="16.26367"><ele>27.0</ele><time>2026-05-03T06:36:00.482Z</time></trkpt><trkpt lat="38.91452" lon="16.26334"><ele>26.0</ele><time>2026-05-03T06:36:01.482Z</time></trkpt><trkpt lat="38.91442" lon="16.2629767"><ele>25.5</ele><time>2026-05-03T06:36:02.482Z</time></trkpt><trkpt lat="38.9143183" lon="16.2625917"><ele>25.0</ele><time>2026-05-03T06:36:03.482Z</time></trkpt><trkpt lat="38.914215" lon="16.2621983"><ele>26.0</ele><time>2026-05-03T06:36:04.482Z</time></trkpt><trkpt lat="38.9141067" lon="16.2618033"><ele>27.0</ele><time>2026-05-03T06:36:05.483Z</time></trkpt><trkpt lat="38.914" lon="16.2613983"><ele>24.0</ele><time>2026-05-03T06:36:06.482Z</time></trkpt><trkpt lat="38.913895" lon="16.261005"><ele>21.0</ele><time>2026-05-03T06:36:07.482Z</time></trkpt><trkpt lat="38.913795" lon="16.2606283"><ele>19.5</ele><time>2026-05-03T06:36:08.482Z</time></trkpt><trkpt lat="38.913695" lon="16.2602567"><ele>18.0</ele><time>2026-05-03T06:36:09.482Z</time></trkpt><trkpt lat="38.913595" lon="16.2598917"><ele>17.5</ele><time>2026-05-03T06:36:10.481Z</time></trkpt><trkpt lat="38.913495" lon="16.2595283"><ele>17.0</ele><time>2026-05-03T06:36:11.481Z</time></trkpt><trkpt lat="38.9133983" lon="16.259165"><ele>16.5</ele><time>2026-05-03T06:36:12.482Z</time></trkpt><trkpt lat="38.9133033" lon="16.258805"><ele>16.0</ele><time>2026-05-03T06:36:13.483Z</time></trkpt><trkpt lat="38.913215" lon="16.2584583"><ele>16.0</ele><time>2026-05-03T06:36:14.482Z</time></trkpt><trkpt lat="38.91313" lon="16.2581317"><ele>16.0</ele><time>2026-05-03T06:36:15.482Z</time></trkpt><trkpt lat="38.91305" lon="16.25782"><ele>16.0</ele><time>2026-05-03T06:36:16.483Z</time></trkpt><trkpt lat="38.9129717" lon="16.2575267"><ele>16.0</ele><time>2026-05-03T06:36:17.482Z</time></trkpt><trkpt lat="38.912895" lon="16.2572467"><ele>16.0</ele><time>2026-05-03T06:36:18.483Z</time></trkpt><trkpt lat="38.9128217" lon="16.256985"><ele>16.0</ele><time>2026-05-03T06:36:19.486Z</time></trkpt><trkpt lat="38.9127533" lon="16.2567417"><ele>16.0</ele><time>2026-05-03T06:36:20.483Z</time></trkpt><trkpt lat="38.9126967" lon="16.2565283"><ele>15.75</ele><time>2026-05-03T06:36:21.481Z</time></trkpt><trkpt lat="38.9126533" lon="16.2563417"><ele>15.5</ele><time>2026-05-03T06:36:22.483Z</time></trkpt><trkpt lat="38.912625" lon="16.2561767"><ele>15.25</ele><time>2026-05-03T06:36:23.483Z</time></trkpt><trkpt lat="38.91262" lon="16.25603"><ele>15.0</ele><time>2026-05-03T06:36:24.483Z</time></trkpt><trkpt lat="38.9126417" lon="16.2558933"><ele>15.0</ele><time>2026-05-03T06:36:25.482Z</time></trkpt><trkpt lat="38.9126883" lon="16.2557633"><ele>15.0</ele><time>2026-05-03T06:36:26.481Z</time></trkpt><trkpt lat="38.912735" lon="16.25562"><ele>15.0</ele><time>2026-05-03T06:36:27.481Z</time></trkpt><trkpt lat="38.91278" lon="16.255455"><ele>15.0</ele><time>2026-05-03T06:36:28.487Z</time></trkpt><trkpt lat="38.9128217" lon="16.2552667"><ele>14.666666666666668</ele><time>2026-05-03T06:36:29.483Z</time></trkpt><trkpt lat="38.91285" lon="16.2550583"><ele>14.333333333333334</ele><time>2026-05-03T06:36:30.482Z</time></trkpt><trkpt lat="38.91286" lon="16.2548317"><ele>14.0</ele><time>2026-05-03T06:36:31.482Z</time></trkpt><trkpt lat="38.912845" lon="16.2545933"><ele>13.666666666666668</ele><time>2026-05-03T06:36:32.483Z</time></trkpt><trkpt lat="38.9128" lon="16.2543533"><ele>13.333333333333332</ele><time>2026-05-03T06:36:33.482Z</time></trkpt><trkpt lat="38.9127267" lon="16.25411"><ele>13.0</ele><time>2026-05-03T06:36:34.482Z</time></trkpt><trkpt lat="38.9126367" lon="16.2538767"><ele>14.0</ele><time>2026-05-03T06:36:35.482Z</time></trkpt><trkpt lat="38.9125467" lon="16.2536667"><ele>15.0</ele><time>2026-05-03T06:36:36.481Z</time></trkpt><trkpt lat="38.9124717" lon="16.2534683"><ele>16.0</ele><time>2026-05-03T06:36:37.481Z</time></trkpt><trkpt lat="38.912425" lon="16.253265"><ele>15.666666666666666</ele><time>2026-05-03T06:36:38.486Z</time></trkpt><trkpt lat="38.9124033" lon="16.253045"><ele>15.333333333333332</ele><time>2026-05-03T06:36:39.48Z</time></trkpt><trkpt lat="38.912405" lon="16.252815"><ele>15.0</ele><time>2026-05-03T06:36:40.483Z</time></trkpt><trkpt lat="38.9124333" lon="16.2525783"><ele>15.0</ele><time>2026-05-03T06:36:41.48Z</time></trkpt><trkpt lat="38.91248" lon="16.2523367"><ele>15.0</ele><time>2026-05-03T06:36:42.482Z</time></trkpt><trkpt lat="38.9125433" lon="16.2520883"><ele>15.0</ele><time>2026-05-03T06:36:43.483Z</time></trkpt><trkpt lat="38.9126133" lon="16.2518267"><ele>13.0</ele><time>2026-05-03T06:36:44.481Z</time></trkpt><trkpt lat="38.912695" lon="16.2515467"><ele>11.0</ele><time>2026-05-03T06:36:45.482Z</time></trkpt><trkpt lat="38.9127833" lon="16.2512517"><ele>11.0</ele><time>2026-05-03T06:36:46.483Z</time></trkpt><trkpt lat="38.9128783" lon="16.2509533"><ele>11.0</ele><time>2026-05-03T06:36:47.482Z</time></trkpt><trkpt lat="38.9129733" lon="16.2506583"><ele>11.5</ele><time>2026-05-03T06:36:48.483Z</time></trkpt><trkpt lat="38.913065" lon="16.2503567"><ele>12.0</ele><time>2026-05-03T06:36:49.483Z</time></trkpt><trkpt lat="38.9131633" lon="16.2500467"><ele>11.5</ele><time>2026-05-03T06:36:50.482Z</time></trkpt><trkpt lat="38.9132667" lon="16.24973"><ele>11.0</ele><time>2026-05-03T06:36:51.481Z</time></trkpt><trkpt lat="38.91337" lon="16.2494083"><ele>10.5</ele><time>2026-05-03T06:36:52.483Z</time></trkpt><trkpt lat="38.9134683" lon="16.2490867"><ele>10.0</ele><time>2026-05-03T06:36:53.482Z</time></trkpt><trkpt lat="38.91357" lon="16.2487633"><ele>9.0</ele><time>2026-05-03T06:36:54.482Z</time></trkpt><trkpt lat="38.9136733" lon="16.2484383"><ele>8.0</ele><time>2026-05-03T06:36:55.482Z</time></trkpt><trkpt lat="38.9137783" lon="16.248115"><ele>8.0</ele><time>2026-05-03T06:36:56.481Z</time></trkpt><trkpt lat="38.9138783" lon="16.2477983"><ele>8.0</ele><time>2026-05-03T06:36:57.481Z</time></trkpt><trkpt lat="38.913975" lon="16.247495"><ele>8.0</ele><time>2026-05-03T06:36:58.483Z</time></trkpt><trkpt lat="38.9140683" lon="16.247205"><ele>8.0</ele><time>2026-05-03T06:36:59.482Z</time></trkpt><trkpt lat="38.9141617" lon="16.24692"><ele>8.0</ele><time>2026-05-03T06:37:00.481Z</time></trkpt><trkpt lat="38.914255" lon="16.2466383"><ele>8.0</ele><time>2026-05-03T06:37:01.481Z</time></trkpt><trkpt lat="38.914345" lon="16.2463567"><ele>8.0</ele><time>2026-05-03T06:37:02.483Z</time></trkpt><trkpt lat="38.9144333" lon="16.2460717"><ele>8.0</ele><time>2026-05-03T06:37:03.483Z</time></trkpt><trkpt lat="38.9145233" lon="16.24579"><ele>8.5</ele><time>2026-05-03T06:37:04.483Z</time></trkpt><trkpt lat="38.914615" lon="16.2455117"><ele>9.0</ele><time>2026-05-03T06:37:05.48Z</time></trkpt><trkpt lat="38.91471" lon="16.245235"><ele>9.0</ele><time>2026-05-03T06:37:06.486Z</time></trkpt><trkpt lat="38.9148117" lon="16.2449567"><ele>9.0</ele><time>2026-05-03T06:37:07.482Z</time></trkpt><trkpt lat="38.9149283" lon="16.2446883"><ele>9.0</ele><time>2026-05-03T06:37:08.488Z</time></trkpt><trkpt lat="38.9150667" lon="16.244425"><ele>9.0</ele><time>2026-05-03T06:37:09.482Z</time></trkpt><trkpt lat="38.9152233" lon="16.24417"><ele>8.5</ele><time>2026-05-03T06:37:10.481Z</time></trkpt><trkpt lat="38.9154017" lon="16.2439217"><ele>8.0</ele><time>2026-05-03T06:37:11.481Z</time></trkpt><trkpt lat="38.9155933" lon="16.2436733"><ele>8.0</ele><time>2026-05-03T06:37:12.481Z</time></trkpt><trkpt lat="38.9158067" lon="16.2434433"><ele>8.0</ele><time>2026-05-03T06:37:13.482Z</time></trkpt><trkpt lat="38.9160333" lon="16.243235"><ele>9.0</ele><time>2026-05-03T06:37:14.486Z</time></trkpt><trkpt lat="38.9162683" lon="16.24305"><ele>10.0</ele><time>2026-05-03T06:37:15.481Z</time></trkpt><trkpt lat="38.9165133" lon="16.2428867"><ele>10.0</ele><time>2026-05-03T06:37:16.481Z</time></trkpt><trkpt lat="38.9167717" lon="16.24275"><ele>10.0</ele><time>2026-05-03T06:37:17.482Z</time></trkpt><trkpt lat="38.91703" lon="16.242635"><ele>10.0</ele><time>2026-05-03T06:37:18.483Z</time></trkpt><trkpt lat="38.917295" lon="16.2425433"><ele>10.0</ele><time>2026-05-03T06:37:19.483Z</time></trkpt><trkpt lat="38.917575" lon="16.2424767"><ele>10.0</ele><time>2026-05-03T06:37:20.484Z</time></trkpt><trkpt lat="38.9178583" lon="16.242435"><ele>10.0</ele><time>2026-05-03T06:37:21.483Z</time></trkpt><trkpt lat="38.9181433" lon="16.2424133"><ele>12.0</ele><time>2026-05-03T06:37:22.483Z</time></trkpt><trkpt lat="38.91843" lon="16.2424167"><ele>14.0</ele><time>2026-05-03T06:37:23.484Z</time></trkpt><trkpt lat="38.9187133" lon="16.242435"><ele>14.0</ele><time>2026-05-03T06:37:24.481Z</time></trkpt><trkpt lat="38.9189983" lon="16.2424567"><ele>14.0</ele><time>2026-05-03T06:37:25.481Z</time></trkpt><trkpt lat="38.9192817" lon="16.24248"><ele>13.5</ele><time>2026-05-03T06:37:26.481Z</time></trkpt><trkpt lat="38.919565" lon="16.2425"><ele>13.0</ele><time>2026-05-03T06:37:27.481Z</time></trkpt><trkpt lat="38.9198483" lon="16.2425167"><ele>14.0</ele><time>2026-05-03T06:37:28.482Z</time></trkpt><trkpt lat="38.920125" lon="16.24252"><ele>15.0</ele><time>2026-05-03T06:37:29.482Z</time></trkpt><trkpt lat="38.9203933" lon="16.2425017"><ele>15.0</ele><time>2026-05-03T06:37:30.483Z</time></trkpt><trkpt lat="38.9206567" lon="16.242455"><ele>15.0</ele><time>2026-05-03T06:37:31.482Z</time></trkpt><trkpt lat="38.9209167" lon="16.242385"><ele>14.5</ele><time>2026-05-03T06:37:32.483Z</time></trkpt><trkpt lat="38.92117" lon="16.242295"><ele>14.0</ele><time>2026-05-03T06:37:33.482Z</time></trkpt><trkpt lat="38.92142" lon="16.2421833"><ele>14.0</ele><time>2026-05-03T06:37:34.481Z</time></trkpt><trkpt lat="38.9216667" lon="16.24205"><ele>14.0</ele><time>2026-05-03T06:37:35.48Z</time></trkpt><trkpt lat="38.92191" lon="16.2419"><ele>15.5</ele><time>2026-05-03T06:37:36.482Z</time></trkpt><trkpt lat="38.9221533" lon="16.24174"><ele>17.0</ele><time>2026-05-03T06:37:37.481Z</time></trkpt><trkpt lat="38.9223983" lon="16.241575"><ele>18.0</ele><time>2026-05-03T06:37:38.482Z</time></trkpt><trkpt lat="38.9226467" lon="16.2414083"><ele>19.0</ele><time>2026-05-03T06:37:39.481Z</time></trkpt><trkpt lat="38.922895" lon="16.241245"><ele>19.0</ele><time>2026-05-03T06:37:40.486Z</time></trkpt><trkpt lat="38.923145" lon="16.2410867"><ele>19.0</ele><time>2026-05-03T06:37:41.48Z</time></trkpt><trkpt lat="38.923395" lon="16.2409283"><ele>19.0</ele><time>2026-05-03T06:37:42.48Z</time></trkpt><trkpt lat="38.923645" lon="16.24077"><ele>19.0</ele><time>2026-05-03T06:37:43.481Z</time></trkpt><trkpt lat="38.9238917" lon="16.2406117"><ele>19.0</ele><time>2026-05-03T06:37:44.482Z</time></trkpt><trkpt lat="38.9241333" lon="16.24045"><ele>19.0</ele><time>2026-05-03T06:37:45.481Z</time></trkpt><trkpt lat="38.924365" lon="16.240285"><ele>19.5</ele><time>2026-05-03T06:37:46.482Z</time></trkpt><trkpt lat="38.924585" lon="16.2401117"><ele>20.0</ele><time>2026-05-03T06:37:47.481Z</time></trkpt><trkpt lat="38.9247933" lon="16.2399133"><ele>20.0</ele><time>2026-05-03T06:37:48.482Z</time></trkpt><trkpt lat="38.924995" lon="16.2397"><ele>20.0</ele><time>2026-05-03T06:37:49.481Z</time></trkpt><trkpt lat="38.9251867" lon="16.23947"><ele>20.0</ele><time>2026-05-03T06:37:50.483Z</time></trkpt><trkpt lat="38.9253683" lon="16.23922"><ele>20.0</ele><time>2026-05-03T06:37:51.483Z</time></trkpt><trkpt lat="38.9255333" lon="16.2389483"><ele>18.5</ele><time>2026-05-03T06:37:52.482Z</time></trkpt><trkpt lat="38.9256867" lon="16.2386567"><ele>17.0</ele><time>2026-05-03T06:37:53.482Z</time></trkpt><trkpt lat="38.925825" lon="16.238345"><ele>18.0</ele><time>2026-05-03T06:37:54.481Z</time></trkpt><trkpt lat="38.9259567" lon="16.2380217"><ele>19.0</ele><time>2026-05-03T06:37:55.482Z</time></trkpt><trkpt lat="38.9260833" lon="16.237685"><ele>19.0</ele><time>2026-05-03T06:37:56.482Z</time></trkpt><trkpt lat="38.9262067" lon="16.2373417"><ele>19.0</ele><time>2026-05-03T06:37:57.482Z</time></trkpt><trkpt lat="38.9263283" lon="16.2370033"><ele>17.5</ele><time>2026-05-03T06:37:58.483Z</time></trkpt><trkpt lat="38.9264483" lon="16.2366817"><ele>16.0</ele><time>2026-05-03T06:37:59.48Z</time></trkpt><trkpt lat="38.926565" lon="16.23638"><ele>16.0</ele><time>2026-05-03T06:38:00.481Z</time></trkpt><trkpt lat="38.9266783" lon="16.2360967"><ele>16.0</ele><time>2026-05-03T06:38:01.481Z</time></trkpt><trkpt lat="38.9267867" lon="16.2358267"><ele>16.333333333333332</ele><time>2026-05-03T06:38:02.481Z</time></trkpt><trkpt lat="38.926885" lon="16.2355733"><ele>16.666666666666668</ele><time>2026-05-03T06:38:03.482Z</time></trkpt><trkpt lat="38.92698" lon="16.2353233"><ele>17.0</ele><time>2026-05-03T06:38:04.485Z</time></trkpt><trkpt lat="38.9270783" lon="16.2350683"><ele>17.0</ele><time>2026-05-03T06:38:05.482Z</time></trkpt><trkpt lat="38.9271717" lon="16.2348067"><ele>17.0</ele><time>2026-05-03T06:38:06.482Z</time></trkpt><trkpt lat="38.9272533" lon="16.2345367"><ele>17.0</ele><time>2026-05-03T06:38:07.482Z</time></trkpt><trkpt lat="38.9273217" lon="16.23426"><ele>16.0</ele><time>2026-05-03T06:38:08.483Z</time></trkpt><trkpt lat="38.9273683" lon="16.2339733"><ele>15.0</ele><time>2026-05-03T06:38:09.48Z</time></trkpt><trkpt lat="38.927395" lon="16.2336667"><ele>15.0</ele><time>2026-05-03T06:38:10.482Z</time></trkpt><trkpt lat="38.927415" lon="16.2333433"><ele>15.0</ele><time>2026-05-03T06:38:11.481Z</time></trkpt><trkpt lat="38.92744" lon="16.23301"><ele>14.5</ele><time>2026-05-03T06:38:12.483Z</time></trkpt><trkpt lat="38.9274667" lon="16.232675"><ele>14.0</ele><time>2026-05-03T06:38:13.481Z</time></trkpt><trkpt lat="38.92749" lon="16.2323333"><ele>13.0</ele><time>2026-05-03T06:38:14.481Z</time></trkpt><trkpt lat="38.9275167" lon="16.2319883"><ele>12.0</ele><time>2026-05-03T06:38:15.482Z</time></trkpt><trkpt lat="38.9275433" lon="16.231645"><ele>12.0</ele><time>2026-05-03T06:38:16.481Z</time></trkpt><trkpt lat="38.92757" lon="16.23131"><ele>12.0</ele><time>2026-05-03T06:38:17.481Z</time></trkpt><trkpt lat="38.927595" lon="16.2309833"><ele>12.0</ele><time>2026-05-03T06:38:18.483Z</time></trkpt><trkpt lat="38.9276217" lon="16.2306667"><ele>12.0</ele><time>2026-05-03T06:38:19.482Z</time></trkpt><trkpt lat="38.9276467" lon="16.2303567"><ele>12.0</ele><time>2026-05-03T06:38:20.483Z</time></trkpt><trkpt lat="38.9276717" lon="16.230055"><ele>12.0</ele><time>2026-05-03T06:38:21.482Z</time></trkpt><trkpt lat="38.9276967" lon="16.2297567"><ele>11.5</ele><time>2026-05-03T06:38:22.482Z</time></trkpt><trkpt lat="38.92772" lon="16.2294667"><ele>11.0</ele><time>2026-05-03T06:38:23.482Z</time></trkpt><trkpt lat="38.9277433" lon="16.2291817"><ele>10.333333333333332</ele><time>2026-05-03T06:38:24.481Z</time></trkpt><trkpt lat="38.9277667" lon="16.2289033"><ele>9.666666666666666</ele><time>2026-05-03T06:38:25.481Z</time></trkpt><trkpt lat="38.9277867" lon="16.22863"><ele>9.0</ele><time>2026-05-03T06:38:26.483Z</time></trkpt><trkpt lat="38.9278067" lon="16.2283633"><ele>9.0</ele><time>2026-05-03T06:38:27.482Z</time></trkpt><trkpt lat="38.9278283" lon="16.2280983"><ele>9.0</ele><time>2026-05-03T06:38:28.483Z</time></trkpt><trkpt lat="38.9278517" lon="16.2278317"><ele>9.0</ele><time>2026-05-03T06:38:29.486Z</time></trkpt><trkpt lat="38.9278733" lon="16.22756"><ele>8.666666666666666</ele><time>2026-05-03T06:38:30.482Z</time></trkpt><trkpt lat="38.9278933" lon="16.2272833"><ele>8.333333333333332</ele><time>2026-05-03T06:38:31.482Z</time></trkpt><trkpt lat="38.927915" lon="16.2270067"><ele>8.0</ele><time>2026-05-03T06:38:32.483Z</time></trkpt><trkpt lat="38.92794" lon="16.2267283"><ele>8.333333333333332</ele><time>2026-05-03T06:38:33.482Z</time></trkpt><trkpt lat="38.927965" lon="16.2264517"><ele>8.666666666666666</ele><time>2026-05-03T06:38:34.481Z</time></trkpt><trkpt lat="38.9279883" lon="16.2261783"><ele>9.0</ele><time>2026-05-03T06:38:35.484Z</time></trkpt><trkpt lat="38.9280083" lon="16.2259067"><ele>8.666666666666666</ele><time>2026-05-03T06:38:36.482Z</time></trkpt><trkpt lat="38.9280283" lon="16.2256317"><ele>8.333333333333332</ele><time>2026-05-03T06:38:37.484Z</time></trkpt><trkpt lat="38.9280517" lon="16.2253567"><ele>8.0</ele><time>2026-05-03T06:38:38.482Z</time></trkpt><trkpt lat="38.928075" lon="16.22508"><ele>7.666666666666666</ele><time>2026-05-03T06:38:39.482Z</time></trkpt><trkpt lat="38.9280983" lon="16.2248033"><ele>7.333333333333334</ele><time>2026-05-03T06:38:40.482Z</time></trkpt><trkpt lat="38.92812" lon="16.22453"><ele>7.0</ele><time>2026-05-03T06:38:41.482Z</time></trkpt><trkpt lat="38.9281433" lon="16.22426"><ele>7.0</ele><time>2026-05-03T06:38:42.481Z</time></trkpt><trkpt lat="38.9281667" lon="16.2239967"><ele>7.0</ele><time>2026-05-03T06:38:43.481Z</time></trkpt><trkpt lat="38.9281867" lon="16.22374"><ele>7.0</ele><time>2026-05-03T06:38:44.482Z</time></trkpt><trkpt lat="38.928205" lon="16.22348"><ele>6.666666666666667</ele><time>2026-05-03T06:38:45.482Z</time></trkpt><trkpt lat="38.9282267" lon="16.2232283"><ele>6.333333333333334</ele><time>2026-05-03T06:38:46.481Z</time></trkpt><trkpt lat="38.9282467" lon="16.222985"><ele>6.0</ele><time>2026-05-03T06:38:47.483Z</time></trkpt><trkpt lat="38.9282667" lon="16.2227483"><ele>6.0</ele><time>2026-05-03T06:38:48.481Z</time></trkpt><trkpt lat="38.928285" lon="16.222515"><ele>6.0</ele><time>2026-05-03T06:38:49.481Z</time></trkpt><trkpt lat="38.9283033" lon="16.2222767"><ele>6.0</ele><time>2026-05-03T06:38:50.481Z</time></trkpt><trkpt lat="38.92832" lon="16.2220433"><ele>5.666666666666667</ele><time>2026-05-03T06:38:51.482Z</time></trkpt><trkpt lat="38.9283383" lon="16.2218183"><ele>5.333333333333334</ele><time>2026-05-03T06:38:52.48Z</time></trkpt><trkpt lat="38.928355" lon="16.2216"><ele>5.0</ele><time>2026-05-03T06:38:53.484Z</time></trkpt><trkpt lat="38.928375" lon="16.22139"><ele>5.333333333333334</ele><time>2026-05-03T06:38:54.482Z</time></trkpt><trkpt lat="38.928395" lon="16.2211867"><ele>5.666666666666667</ele><time>2026-05-03T06:38:55.481Z</time></trkpt><trkpt lat="38.9284133" lon="16.2209917"><ele>6.0</ele><time>2026-05-03T06:38:56.482Z</time></trkpt><trkpt lat="38.9284333" lon="16.22079"><ele>5.666666666666667</ele><time>2026-05-03T06:38:57.482Z</time></trkpt><trkpt lat="38.9284533" lon="16.2205767"><ele>5.333333333333334</ele><time>2026-05-03T06:38:58.481Z</time></trkpt><trkpt lat="38.928475" lon="16.2203467"><ele>5.0</ele><time>2026-05-03T06:38:59.482Z</time></trkpt><trkpt lat="38.9284983" lon="16.2201083"><ele>5.0</ele><time>2026-05-03T06:39:00.48Z</time></trkpt><trkpt lat="38.92852" lon="16.2198633"><ele>5.0</ele><time>2026-05-03T06:39:01.485Z</time></trkpt><trkpt lat="38.9285383" lon="16.2196183"><ele>5.0</ele><time>2026-05-03T06:39:02.483Z</time></trkpt><trkpt lat="38.928555" lon="16.2193783"><ele>5.0</ele><time>2026-05-03T06:39:03.482Z</time></trkpt><trkpt lat="38.928575" lon="16.2191433"><ele>5.0</ele><time>2026-05-03T06:39:04.481Z</time></trkpt><trkpt lat="38.92859" lon="16.218915"><ele>5.0</ele><time>2026-05-03T06:39:05.482Z</time></trkpt><trkpt lat="38.9286017" lon="16.2186967"><ele>5.0</ele><time>2026-05-03T06:39:06.482Z</time></trkpt><trkpt lat="38.928615" lon="16.2184817"><ele>5.0</ele><time>2026-05-03T06:39:07.482Z</time></trkpt><trkpt lat="38.9286433" lon="16.2182717"><ele>5.0</ele><time>2026-05-03T06:39:08.487Z</time></trkpt><trkpt lat="38.9286883" lon="16.2180833"><ele>5.0</ele><time>2026-05-03T06:39:09.482Z</time></trkpt><trkpt lat="38.9287617" lon="16.217915"><ele>5.0</ele><time>2026-05-03T06:39:10.48Z</time></trkpt><trkpt lat="38.92885" lon="16.2177617"><ele>5.0</ele><time>2026-05-03T06:39:11.483Z</time></trkpt><trkpt lat="38.9289417" lon="16.2176167"><ele>5.0</ele><time>2026-05-03T06:39:12.481Z</time></trkpt><trkpt lat="38.9290283" lon="16.2174783"><ele>5.0</ele><time>2026-05-03T06:39:13.482Z</time></trkpt><trkpt lat="38.9291267" lon="16.21734"><ele>5.0</ele><time>2026-05-03T06:39:14.483Z</time></trkpt><trkpt lat="38.9292283" lon="16.2172017"><ele>5.0</ele><time>2026-05-03T06:39:15.482Z</time></trkpt><trkpt lat="38.9293317" lon="16.2170667"><ele>5.0</ele><time>2026-05-03T06:39:16.484Z</time></trkpt><trkpt lat="38.9294333" lon="16.21693"><ele>5.75</ele><time>2026-05-03T06:39:17.482Z</time></trkpt><trkpt lat="38.9295367" lon="16.2167933"><ele>6.5</ele><time>2026-05-03T06:39:18.481Z</time></trkpt><trkpt lat="38.9296417" lon="16.216655"><ele>7.25</ele><time>2026-05-03T06:39:19.481Z</time></trkpt><trkpt lat="38.92974" lon="16.21652"><ele>8.0</ele><time>2026-05-03T06:39:20.486Z</time></trkpt><trkpt lat="38.9298317" lon="16.2163933"><ele>8.25</ele><time>2026-05-03T06:39:21.483Z</time></trkpt><trkpt lat="38.92992" lon="16.216275"><ele>8.5</ele><time>2026-05-03T06:39:22.482Z</time></trkpt><trkpt lat="38.9300033" lon="16.2161583"><ele>8.75</ele><time>2026-05-03T06:39:23.481Z</time></trkpt><trkpt lat="38.9300833" lon="16.2160483"><ele>9.0</ele><time>2026-05-03T06:39:24.482Z</time></trkpt><trkpt lat="38.930165" lon="16.2159383"><ele>8.25</ele><time>2026-05-03T06:39:25.482Z</time></trkpt><trkpt lat="38.93025" lon="16.2158267"><ele>7.5</ele><time>2026-05-03T06:39:26.483Z</time></trkpt><trkpt lat="38.9303433" lon="16.2157117"><ele>6.75</ele><time>2026-05-03T06:39:27.482Z</time></trkpt><trkpt lat="38.9304383" lon="16.215595"><ele>6.0</ele><time>2026-05-03T06:39:28.482Z</time></trkpt><trkpt lat="38.9305333" lon="16.2154717"><ele>6.0</ele><time>2026-05-03T06:39:29.482Z</time></trkpt><trkpt lat="38.9306283" lon="16.215345"><ele>6.0</ele><time>2026-05-03T06:39:30.481Z</time></trkpt><trkpt lat="38.9307233" lon="16.2152167"><ele>6.0</ele><time>2026-05-03T06:39:31.483Z</time></trkpt><trkpt lat="38.9308133" lon="16.2150933"><ele>6.0</ele><time>2026-05-03T06:39:32.483Z</time></trkpt><trkpt lat="38.9309" lon="16.214975"><ele>5.8</ele><time>2026-05-03T06:39:33.481Z</time></trkpt><trkpt lat="38.9309817" lon="16.2148633"><ele>5.6</ele><time>2026-05-03T06:39:34.482Z</time></trkpt><trkpt lat="38.9310583" lon="16.2147617"><ele>5.4</ele><time>2026-05-03T06:39:35.483Z</time></trkpt><trkpt lat="38.9311267" lon="16.2146667"><ele>5.2</ele><time>2026-05-03T06:39:36.48Z</time></trkpt><trkpt lat="38.93118" lon="16.2145883"><ele>5.0</ele><time>2026-05-03T06:39:37.484Z</time></trkpt><trkpt lat="38.93122" lon="16.2145217"><ele>5.4</ele><time>2026-05-03T06:39:38.483Z</time></trkpt><trkpt lat="38.9312633" lon="16.2144517"><ele>5.8</ele><time>2026-05-03T06:39:39.482Z</time></trkpt><trkpt lat="38.93132" lon="16.214375"><ele>6.199999999999999</ele><time>2026-05-03T06:39:40.481Z</time></trkpt><trkpt lat="38.931395" lon="16.214285"><ele>6.6</ele><time>2026-05-03T06:39:41.483Z</time></trkpt><trkpt lat="38.9314867" lon="16.214165"><ele>7.0</ele><time>2026-05-03T06:39:42.48Z</time></trkpt><trkpt lat="38.931605" lon="16.21403"><ele>6.333333333333334</ele><time>2026-05-03T06:39:43.483Z</time></trkpt><trkpt lat="38.931745" lon="16.2138683"><ele>5.666666666666667</ele><time>2026-05-03T06:39:44.482Z</time></trkpt><trkpt lat="38.931905" lon="16.2136817"><ele>5.0</ele><time>2026-05-03T06:39:45.481Z</time></trkpt><trkpt lat="38.9320783" lon="16.2134767"><ele>5.0</ele><time>2026-05-03T06:39:46.481Z</time></trkpt><trkpt lat="38.9322483" lon="16.2132767"><ele>5.0</ele><time>2026-05-03T06:39:47.482Z</time></trkpt><trkpt lat="38.9324133" lon="16.213085"><ele>5.333333333333334</ele><time>2026-05-03T06:39:48.482Z</time></trkpt><trkpt lat="38.9325767" lon="16.2128983"><ele>5.666666666666667</ele><time>2026-05-03T06:39:49.482Z</time></trkpt><trkpt lat="38.9327383" lon="16.2127183"><ele>6.0</ele><time>2026-05-03T06:39:50.482Z</time></trkpt><trkpt lat="38.9328983" lon="16.2125367"><ele>6.0</ele><time>2026-05-03T06:39:51.482Z</time></trkpt><trkpt lat="38.9330583" lon="16.2123583"><ele>6.0</ele><time>2026-05-03T06:39:52.483Z</time></trkpt><trkpt lat="38.93322" lon="16.21218"><ele>6.0</ele><time>2026-05-03T06:39:53.483Z</time></trkpt><trkpt lat="38.9333817" lon="16.212"><ele>5.666666666666667</ele><time>2026-05-03T06:39:54.491Z</time></trkpt><trkpt lat="38.933545" lon="16.2118167"><ele>5.333333333333334</ele><time>2026-05-03T06:39:55.483Z</time></trkpt><trkpt lat="38.93371" lon="16.2116283"><ele>5.0</ele><time>2026-05-03T06:39:56.488Z</time></trkpt><trkpt lat="38.9338833" lon="16.2114367"><ele>4.5</ele><time>2026-05-03T06:39:57.482Z</time></trkpt><trkpt lat="38.93406" lon="16.2112417"><ele>4.0</ele><time>2026-05-03T06:39:58.483Z</time></trkpt><trkpt lat="38.9342417" lon="16.2110433"><ele>4.0</ele><time>2026-05-03T06:39:59.481Z</time></trkpt><trkpt lat="38.9344267" lon="16.2108417"><ele>4.0</ele><time>2026-05-03T06:40:00.484Z</time></trkpt><trkpt lat="38.93461" lon="16.210625"><ele>3.5</ele><time>2026-05-03T06:40:01.48Z</time></trkpt><trkpt lat="38.9348017" lon="16.210405"><ele>3.0</ele><time>2026-05-03T06:40:02.483Z</time></trkpt><trkpt lat="38.9350017" lon="16.2101783"><ele>3.0</ele><time>2026-05-03T06:40:03.481Z</time></trkpt><trkpt lat="38.93521" lon="16.20995"><ele>3.0</ele><time>2026-05-03T06:40:04.481Z</time></trkpt><trkpt lat="38.9354183" lon="16.2097217"><ele>3.0</ele><time>2026-05-03T06:40:05.481Z</time></trkpt><trkpt lat="38.9356217" lon="16.2094967"><ele>3.0</ele><time>2026-05-03T06:40:06.482Z</time></trkpt><trkpt lat="38.935825" lon="16.2092767"><ele>2.0</ele><time>2026-05-03T06:40:07.481Z</time></trkpt><trkpt lat="38.936015" lon="16.20907"><ele>1.0</ele><time>2026-05-03T06:40:08.482Z</time></trkpt><trkpt lat="38.9361967" lon="16.20887"><ele>1.0</ele><time>2026-05-03T06:40:09.481Z</time></trkpt><trkpt lat="38.9363683" lon="16.2086783"><ele>1.0</ele><time>2026-05-03T06:40:10.481Z</time></trkpt><trkpt lat="38.9365367" lon="16.2084933"><ele>1.0</ele><time>2026-05-03T06:40:11.481Z</time></trkpt><trkpt lat="38.9367033" lon="16.2083117"><ele>2.3333333333333335</ele><time>2026-05-03T06:40:12.481Z</time></trkpt><trkpt lat="38.936865" lon="16.208135"><ele>3.666666666666667</ele><time>2026-05-03T06:40:13.482Z</time></trkpt><trkpt lat="38.937025" lon="16.2079617"><ele>5.0</ele><time>2026-05-03T06:40:14.482Z</time></trkpt><trkpt lat="38.9371783" lon="16.2077883"><ele>5.0</ele><time>2026-05-03T06:40:15.482Z</time></trkpt><trkpt lat="38.9373283" lon="16.2076167"><ele>5.0</ele><time>2026-05-03T06:40:16.482Z</time></trkpt><trkpt lat="38.9374683" lon="16.2074467"><ele>5.0</ele><time>2026-05-03T06:40:17.482Z</time></trkpt><trkpt lat="38.9375967" lon="16.20728"><ele>5.333333333333334</ele><time>2026-05-03T06:40:18.483Z</time></trkpt><trkpt lat="38.9377133" lon="16.20712"><ele>5.666666666666667</ele><time>2026-05-03T06:40:19.482Z</time></trkpt><trkpt lat="38.9378217" lon="16.20696"><ele>6.0</ele><time>2026-05-03T06:40:20.481Z</time></trkpt><trkpt lat="38.9379233" lon="16.2068"><ele>6.0</ele><time>2026-05-03T06:40:21.482Z</time></trkpt><trkpt lat="38.93802" lon="16.2066383"><ele>6.0</ele><time>2026-05-03T06:40:22.484Z</time></trkpt><trkpt lat="38.9381083" lon="16.2064717"><ele>6.0</ele><time>2026-05-03T06:40:23.482Z</time></trkpt><trkpt lat="38.9381917" lon="16.2062983"><ele>5.666666666666667</ele><time>2026-05-03T06:40:24.483Z</time></trkpt><trkpt lat="38.9382633" lon="16.2061133"><ele>5.333333333333334</ele><time>2026-05-03T06:40:25.482Z</time></trkpt><trkpt lat="38.9383267" lon="16.20592"><ele>5.0</ele><time>2026-05-03T06:40:26.483Z</time></trkpt><trkpt lat="38.93839" lon="16.2057167"><ele>5.333333333333334</ele><time>2026-05-03T06:40:27.482Z</time></trkpt><trkpt lat="38.9384533" lon="16.2055133"><ele>5.666666666666667</ele><time>2026-05-03T06:40:28.482Z</time></trkpt><trkpt lat="38.9385133" lon="16.2053183"><ele>6.0</ele><time>2026-05-03T06:40:29.482Z</time></trkpt><trkpt lat="38.93857" lon="16.2051333"><ele>6.0</ele><time>2026-05-03T06:40:30.482Z</time></trkpt><trkpt lat="38.93863" lon="16.204945"><ele>6.0</ele><time>2026-05-03T06:40:31.481Z</time></trkpt><trkpt lat="38.9386917" lon="16.20475"><ele>6.0</ele><time>2026-05-03T06:40:32.483Z</time></trkpt><trkpt lat="38.938755" lon="16.20454"><ele>5.666666666666667</ele><time>2026-05-03T06:40:33.481Z</time></trkpt><trkpt lat="38.938825" lon="16.2043133"><ele>5.333333333333334</ele><time>2026-05-03T06:40:34.482Z</time></trkpt><trkpt lat="38.9388983" lon="16.2040767"><ele>5.0</ele><time>2026-05-03T06:40:35.482Z</time></trkpt><trkpt lat="38.9389783" lon="16.2038317"><ele>4.666666666666667</ele><time>2026-05-03T06:40:36.482Z</time></trkpt><trkpt lat="38.9390567" lon="16.2035783"><ele>4.333333333333333</ele><time>2026-05-03T06:40:37.48Z</time></trkpt><trkpt lat="38.93913" lon="16.2033117"><ele>4.0</ele><time>2026-05-03T06:40:38.483Z</time></trkpt><trkpt lat="38.9392117" lon="16.2030367"><ele>3.5</ele><time>2026-05-03T06:40:39.481Z</time></trkpt><trkpt lat="38.9393017" lon="16.2027533"><ele>3.0</ele><time>2026-05-03T06:40:40.482Z</time></trkpt><trkpt lat="38.9393967" lon="16.2024633"><ele>2.5</ele><time>2026-05-03T06:40:41.481Z</time></trkpt><trkpt lat="38.9394983" lon="16.20217"><ele>2.0</ele><time>2026-05-03T06:40:42.483Z</time></trkpt><trkpt lat="38.9396033" lon="16.20187"><ele>2.0</ele><time>2026-05-03T06:40:43.48Z</time></trkpt><trkpt lat="38.9397017" lon="16.20156"><ele>2.0</ele><time>2026-05-03T06:40:44.483Z</time></trkpt><trkpt lat="38.9397983" lon="16.20125"><ele>1.5</ele><time>2026-05-03T06:40:45.481Z</time></trkpt><trkpt lat="38.939895" lon="16.2009467"><ele>1.0</ele><time>2026-05-03T06:40:46.482Z</time></trkpt><trkpt lat="38.9399933" lon="16.2006483"><ele>1.5</ele><time>2026-05-03T06:40:47.484Z</time></trkpt><trkpt lat="38.9400933" lon="16.2003517"><ele>2.0</ele><time>2026-05-03T06:40:48.483Z</time></trkpt><trkpt lat="38.9401867" lon="16.2000583"><ele>2.0</ele><time>2026-05-03T06:40:49.483Z</time></trkpt><trkpt lat="38.9402783" lon="16.1997683"><ele>2.0</ele><time>2026-05-03T06:40:50.483Z</time></trkpt><trkpt lat="38.94037" lon="16.1994767"><ele>2.0</ele><time>2026-05-03T06:40:51.482Z</time></trkpt><trkpt lat="38.9404633" lon="16.199185"><ele>2.0</ele><time>2026-05-03T06:40:52.482Z</time></trkpt><trkpt lat="38.94056" lon="16.1988933"><ele>2.5</ele><time>2026-05-03T06:40:53.482Z</time></trkpt><trkpt lat="38.940655" lon="16.1986033"><ele>3.0</ele><time>2026-05-03T06:40:54.481Z</time></trkpt><trkpt lat="38.94075" lon="16.1983183"><ele>3.0</ele><time>2026-05-03T06:40:55.483Z</time></trkpt><trkpt lat="38.9408383" lon="16.198035"><ele>3.0</ele><time>2026-05-03T06:40:56.481Z</time></trkpt><trkpt lat="38.9409217" lon="16.19775"><ele>3.0</ele><time>2026-05-03T06:40:57.482Z</time></trkpt><trkpt lat="38.941" lon="16.1974567"><ele>3.0</ele><time>2026-05-03T06:40:58.482Z</time></trkpt><trkpt lat="38.9410683" lon="16.197155"><ele>3.0</ele><time>2026-05-03T06:40:59.482Z</time></trkpt><trkpt lat="38.94113" lon="16.1968467"><ele>3.0</ele><time>2026-05-03T06:41:00.481Z</time></trkpt><trkpt lat="38.94119" lon="16.19653"><ele>2.5</ele><time>2026-05-03T06:41:01.482Z</time></trkpt><trkpt lat="38.9412533" lon="16.196205"><ele>2.0</ele><time>2026-05-03T06:41:02.482Z</time></trkpt><trkpt lat="38.9413183" lon="16.1958833"><ele>2.0</ele><time>2026-05-03T06:41:03.483Z</time></trkpt><trkpt lat="38.9413883" lon="16.1955617"><ele>2.0</ele><time>2026-05-03T06:41:04.481Z</time></trkpt><trkpt lat="38.941465" lon="16.19524"><ele>2.0</ele><time>2026-05-03T06:41:05.481Z</time></trkpt><trkpt lat="38.9415417" lon="16.19492"><ele>2.0</ele><time>2026-05-03T06:41:06.481Z</time></trkpt><trkpt lat="38.941615" lon="16.1945967"><ele>2.0</ele><time>2026-05-03T06:41:07.481Z</time></trkpt><trkpt lat="38.9416817" lon="16.194275"><ele>2.0</ele><time>2026-05-03T06:41:08.482Z</time></trkpt><trkpt lat="38.9417467" lon="16.1939533"><ele>2.0</ele><time>2026-05-03T06:41:09.483Z</time></trkpt><trkpt lat="38.9418117" lon="16.1936333"><ele>2.0</ele><time>2026-05-03T06:41:10.48Z</time></trkpt><trkpt lat="38.9418783" lon="16.19332"><ele>2.0</ele><time>2026-05-03T06:41:11.482Z</time></trkpt><trkpt lat="38.9419433" lon="16.1930083"><ele>2.0</ele><time>2026-05-03T06:41:12.482Z</time></trkpt><trkpt lat="38.9420117" lon="16.1927033"><ele>2.0</ele><time>2026-05-03T06:41:13.482Z</time></trkpt><trkpt lat="38.94209" lon="16.192415"><ele>2.0</ele><time>2026-05-03T06:41:14.484Z</time></trkpt><trkpt lat="38.942185" lon="16.1921483"><ele>1.0</ele><time>2026-05-03T06:41:15.481Z</time></trkpt><trkpt lat="38.9422983" lon="16.1918967"><ele>0.0</ele><time>2026-05-03T06:41:16.481Z</time></trkpt><trkpt lat="38.9424217" lon="16.1916517"><ele>-0.5</ele><time>2026-05-03T06:41:17.482Z</time></trkpt><trkpt lat="38.9425417" lon="16.1914067"><ele>-1.0</ele><time>2026-05-03T06:41:18.483Z</time></trkpt><trkpt lat="38.942665" lon="16.1911617"><ele>-0.3333333333333333</ele><time>2026-05-03T06:41:19.485Z</time></trkpt><trkpt lat="38.9427817" lon="16.1909167"><ele>0.3333333333333333</ele><time>2026-05-03T06:41:20.483Z</time></trkpt><trkpt lat="38.9428983" lon="16.1906767"><ele>1.0</ele><time>2026-05-03T06:41:21.482Z</time></trkpt><trkpt lat="38.9430133" lon="16.1904417"><ele>1.0</ele><time>2026-05-03T06:41:22.482Z</time></trkpt><trkpt lat="38.9431233" lon="16.1902183"><ele>1.0</ele><time>2026-05-03T06:41:23.483Z</time></trkpt><trkpt lat="38.9432267" lon="16.1900067"><ele>1.0</ele><time>2026-05-03T06:41:24.484Z</time></trkpt><trkpt lat="38.9433283" lon="16.189805"><ele>1.3333333333333333</ele><time>2026-05-03T06:41:25.483Z</time></trkpt><trkpt lat="38.943425" lon="16.18961"><ele>1.6666666666666665</ele><time>2026-05-03T06:41:26.482Z</time></trkpt><trkpt lat="38.943525" lon="16.1894133"><ele>2.0</ele><time>2026-05-03T06:41:27.483Z</time></trkpt><trkpt lat="38.9436333" lon="16.1892183"><ele>2.0</ele><time>2026-05-03T06:41:28.483Z</time></trkpt><trkpt lat="38.94375" lon="16.18903"><ele>2.0</ele><time>2026-05-03T06:41:29.482Z</time></trkpt><trkpt lat="38.9438817" lon="16.1888433"><ele>2.0</ele><time>2026-05-03T06:41:30.482Z</time></trkpt><trkpt lat="38.944025" lon="16.1886567"><ele>2.0</ele><time>2026-05-03T06:41:31.487Z</time></trkpt><trkpt lat="38.9441733" lon="16.18846"><ele>2.0</ele><time>2026-05-03T06:41:32.485Z</time></trkpt><trkpt lat="38.9443283" lon="16.1882467"><ele>2.0</ele><time>2026-05-03T06:41:33.482Z</time></trkpt><trkpt lat="38.944495" lon="16.188015"><ele>1.5</ele><time>2026-05-03T06:41:34.482Z</time></trkpt><trkpt lat="38.9446767" lon="16.1877817"><ele>1.0</ele><time>2026-05-03T06:41:35.483Z</time></trkpt><trkpt lat="38.9448633" lon="16.18755"><ele>1.0</ele><time>2026-05-03T06:41:36.484Z</time></trkpt><trkpt lat="38.9450483" lon="16.1873183"><ele>1.0</ele><time>2026-05-03T06:41:37.482Z</time></trkpt><trkpt lat="38.94523" lon="16.18708"><ele>1.0</ele><time>2026-05-03T06:41:38.484Z</time></trkpt><trkpt lat="38.945415" lon="16.1868417"><ele>1.0</ele><time>2026-05-03T06:41:39.482Z</time></trkpt><trkpt lat="38.9455967" lon="16.186605"><ele>0.5</ele><time>2026-05-03T06:41:40.483Z</time></trkpt><trkpt lat="38.9457783" lon="16.1863683"><ele>0.0</ele><time>2026-05-03T06:41:41.481Z</time></trkpt><trkpt lat="38.945955" lon="16.1861333"><ele>1.0</ele><time>2026-05-03T06:41:42.483Z</time></trkpt><trkpt lat="38.9461267" lon="16.185895"><ele>2.0</ele><time>2026-05-03T06:41:43.483Z</time></trkpt><trkpt lat="38.94629" lon="16.18565"><ele>2.0</ele><time>2026-05-03T06:41:44.483Z</time></trkpt><trkpt lat="38.9464433" lon="16.1854017"><ele>2.0</ele><time>2026-05-03T06:41:45.482Z</time></trkpt><trkpt lat="38.9465933" lon="16.1851483"><ele>2.0</ele><time>2026-05-03T06:41:46.482Z</time></trkpt><trkpt lat="38.9467417" lon="16.184895"><ele>2.0</ele><time>2026-05-03T06:41:47.483Z</time></trkpt><trkpt lat="38.9468883" lon="16.1846417"><ele>1.5</ele><time>2026-05-03T06:41:48.483Z</time></trkpt><trkpt lat="38.9470367" lon="16.1843917"><ele>1.0</ele><time>2026-05-03T06:41:49.484Z</time></trkpt><trkpt lat="38.9471833" lon="16.1841433"><ele>1.0</ele><time>2026-05-03T06:41:50.485Z</time></trkpt><trkpt lat="38.94733" lon="16.183895"><ele>1.0</ele><time>2026-05-03T06:41:51.482Z</time></trkpt><trkpt lat="38.9474733" lon="16.1836433"><ele>2.0</ele><time>2026-05-03T06:41:52.484Z</time></trkpt><trkpt lat="38.947615" lon="16.1833867"><ele>3.0</ele><time>2026-05-03T06:41:53.483Z</time></trkpt><trkpt lat="38.947755" lon="16.1831317"><ele>3.0</ele><time>2026-05-03T06:41:54.482Z</time></trkpt><trkpt lat="38.9478917" lon="16.182875"><ele>3.0</ele><time>2026-05-03T06:41:55.482Z</time></trkpt><trkpt lat="38.9480233" lon="16.18262"><ele>3.0</ele><time>2026-05-03T06:41:56.483Z</time></trkpt><trkpt lat="38.948155" lon="16.1823667"><ele>3.0</ele><time>2026-05-03T06:41:57.481Z</time></trkpt><trkpt lat="38.94829" lon="16.1821183"><ele>3.0</ele><time>2026-05-03T06:41:58.482Z</time></trkpt><trkpt lat="38.9484283" lon="16.1818767"><ele>3.0</ele><time>2026-05-03T06:41:59.482Z</time></trkpt><trkpt lat="38.94857" lon="16.1816383"><ele>3.0</ele><time>2026-05-03T06:42:00.481Z</time></trkpt><trkpt lat="38.9487083" lon="16.1813967"><ele>3.0</ele><time>2026-05-03T06:42:01.482Z</time></trkpt><trkpt lat="38.9488383" lon="16.1811567"><ele>3.0</ele><time>2026-05-03T06:42:02.482Z</time></trkpt><trkpt lat="38.9489533" lon="16.1809233"><ele>3.0</ele><time>2026-05-03T06:42:03.483Z</time></trkpt><trkpt lat="38.9490483" lon="16.1806917"><ele>3.0</ele><time>2026-05-03T06:42:04.482Z</time></trkpt><trkpt lat="38.9491183" lon="16.18045"><ele>2.6666666666666665</ele><time>2026-05-03T06:42:05.482Z</time></trkpt><trkpt lat="38.949165" lon="16.1801917"><ele>2.333333333333333</ele><time>2026-05-03T06:42:06.486Z</time></trkpt><trkpt lat="38.9492" lon="16.179915"><ele>2.0</ele><time>2026-05-03T06:42:07.484Z</time></trkpt><trkpt lat="38.9492383" lon="16.1796217"><ele>6.0</ele><time>2026-05-03T06:42:08.483Z</time></trkpt><trkpt lat="38.9492867" lon="16.1793167"><ele>10.0</ele><time>2026-05-03T06:42:09.484Z</time></trkpt><trkpt lat="38.94934" lon="16.179"><ele>10.0</ele><time>2026-05-03T06:42:10.483Z</time></trkpt><trkpt lat="38.949395" lon="16.1786783"><ele>10.0</ele><time>2026-05-03T06:42:11.482Z</time></trkpt><trkpt lat="38.949455" lon="16.1783533"><ele>9.5</ele><time>2026-05-03T06:42:12.486Z</time></trkpt><trkpt lat="38.9495133" lon="16.17803"><ele>9.0</ele><time>2026-05-03T06:42:13.482Z</time></trkpt><trkpt lat="38.949565" lon="16.177705"><ele>9.0</ele><time>2026-05-03T06:42:14.483Z</time></trkpt><trkpt lat="38.9496017" lon="16.17738"><ele>9.0</ele><time>2026-05-03T06:42:15.482Z</time></trkpt><trkpt lat="38.9496217" lon="16.1770533"><ele>8.5</ele><time>2026-05-03T06:42:16.483Z</time></trkpt><trkpt lat="38.9496267" lon="16.1767217"><ele>8.0</ele><time>2026-05-03T06:42:17.483Z</time></trkpt><trkpt lat="38.9496333" lon="16.17639"><ele>7.5</ele><time>2026-05-03T06:42:18.482Z</time></trkpt><trkpt lat="38.9496383" lon="16.1760567"><ele>7.0</ele><time>2026-05-03T06:42:19.482Z</time></trkpt><trkpt lat="38.94964" lon="16.175725"><ele>6.0</ele><time>2026-05-03T06:42:20.483Z</time></trkpt><trkpt lat="38.9496383" lon="16.1753867"><ele>5.0</ele><time>2026-05-03T06:42:21.483Z</time></trkpt><trkpt lat="38.9496317" lon="16.1750467"><ele>5.0</ele><time>2026-05-03T06:42:22.482Z</time></trkpt><trkpt lat="38.94962" lon="16.1747017"><ele>5.0</ele><time>2026-05-03T06:42:23.483Z</time></trkpt><trkpt lat="38.9496083" lon="16.1743533"><ele>5.5</ele><time>2026-05-03T06:42:24.481Z</time></trkpt><trkpt lat="38.949595" lon="16.174005"><ele>6.0</ele><time>2026-05-03T06:42:25.483Z</time></trkpt><trkpt lat="38.94958" lon="16.17366"><ele>6.0</ele><time>2026-05-03T06:42:26.483Z</time></trkpt><trkpt lat="38.9495633" lon="16.1733167"><ele>6.0</ele><time>2026-05-03T06:42:27.481Z</time></trkpt><trkpt lat="38.9495467" lon="16.172975"><ele>5.0</ele><time>2026-05-03T06:42:28.483Z</time></trkpt><trkpt lat="38.9495333" lon="16.1726333"><ele>4.0</ele><time>2026-05-03T06:42:29.483Z</time></trkpt><trkpt lat="38.94952" lon="16.1722917"><ele>4.0</ele><time>2026-05-03T06:42:30.483Z</time></trkpt><trkpt lat="38.9495083" lon="16.1719483"><ele>4.0</ele><time>2026-05-03T06:42:31.484Z</time></trkpt><trkpt lat="38.9494983" lon="16.171605"><ele>4.0</ele><time>2026-05-03T06:42:32.483Z</time></trkpt><trkpt lat="38.949495" lon="16.1712617"><ele>4.0</ele><time>2026-05-03T06:42:33.482Z</time></trkpt><trkpt lat="38.949485" lon="16.17092"><ele>4.0</ele><time>2026-05-03T06:42:34.481Z</time></trkpt><trkpt lat="38.9494733" lon="16.17058"><ele>4.0</ele><time>2026-05-03T06:42:35.483Z</time></trkpt><trkpt lat="38.9494617" lon="16.170245"><ele>4.0</ele><time>2026-05-03T06:42:36.482Z</time></trkpt><trkpt lat="38.949455" lon="16.1699217"><ele>4.0</ele><time>2026-05-03T06:42:37.483Z</time></trkpt><trkpt lat="38.949445" lon="16.1696067"><ele>3.5</ele><time>2026-05-03T06:42:38.484Z</time></trkpt><trkpt lat="38.9494383" lon="16.169295"><ele>3.0</ele><time>2026-05-03T06:42:39.486Z</time></trkpt><trkpt lat="38.9494267" lon="16.1689817"><ele>3.0</ele><time>2026-05-03T06:42:40.483Z</time></trkpt><trkpt lat="38.949415" lon="16.1686633"><ele>3.0</ele><time>2026-05-03T06:42:41.483Z</time></trkpt><trkpt lat="38.9494" lon="16.168345"><ele>3.5</ele><time>2026-05-03T06:42:42.483Z</time></trkpt><trkpt lat="38.9493867" lon="16.1680233"><ele>4.0</ele><time>2026-05-03T06:42:43.482Z</time></trkpt><trkpt lat="38.9493733" lon="16.1677"><ele>4.0</ele><time>2026-05-03T06:42:44.484Z</time></trkpt><trkpt lat="38.9493583" lon="16.167375"><ele>4.0</ele><time>2026-05-03T06:42:45.482Z</time></trkpt><trkpt lat="38.949345" lon="16.1670483"><ele>4.0</ele><time>2026-05-03T06:42:46.482Z</time></trkpt><trkpt lat="38.949335" lon="16.166735"><ele>4.0</ele><time>2026-05-03T06:42:47.481Z</time></trkpt><trkpt lat="38.9493267" lon="16.166435"><ele>3.0</ele><time>2026-05-03T06:42:48.481Z</time></trkpt><trkpt lat="38.949315" lon="16.1661417"><ele>2.0</ele><time>2026-05-03T06:42:49.483Z</time></trkpt><trkpt lat="38.9493033" lon="16.16585"><ele>3.5</ele><time>2026-05-03T06:42:50.483Z</time></trkpt><trkpt lat="38.9492917" lon="16.165555"><ele>5.0</ele><time>2026-05-03T06:42:51.483Z</time></trkpt><trkpt lat="38.9492833" lon="16.1652533"><ele>5.0</ele><time>2026-05-03T06:42:52.482Z</time></trkpt><trkpt lat="38.9492733" lon="16.16495"><ele>5.0</ele><time>2026-05-03T06:42:53.482Z</time></trkpt><trkpt lat="38.9492633" lon="16.164645"><ele>6.5</ele><time>2026-05-03T06:42:54.482Z</time></trkpt><trkpt lat="38.9492517" lon="16.1643417"><ele>8.0</ele><time>2026-05-03T06:42:55.483Z</time></trkpt><trkpt lat="38.9492417" lon="16.1640417"><ele>9.5</ele><time>2026-05-03T06:42:56.484Z</time></trkpt><trkpt lat="38.9492317" lon="16.1637433"><ele>11.0</ele><time>2026-05-03T06:42:57.484Z</time></trkpt><trkpt lat="38.9492217" lon="16.1634433"><ele>11.0</ele><time>2026-05-03T06:42:58.483Z</time></trkpt><trkpt lat="38.94921" lon="16.1631383"><ele>11.0</ele><time>2026-05-03T06:42:59.482Z</time></trkpt><trkpt lat="38.949195" lon="16.1628267"><ele>9.0</ele><time>2026-05-03T06:43:00.483Z</time></trkpt><trkpt lat="38.9491833" lon="16.162515"><ele>7.0</ele><time>2026-05-03T06:43:01.484Z</time></trkpt><trkpt lat="38.9491817" lon="16.1622117"><ele>7.0</ele><time>2026-05-03T06:43:02.485Z</time></trkpt><trkpt lat="38.949195" lon="16.1619217"><ele>7.0</ele><time>2026-05-03T06:43:03.483Z</time></trkpt><trkpt lat="38.9492283" lon="16.161645"><ele>7.0</ele><time>2026-05-03T06:43:04.484Z</time></trkpt><trkpt lat="38.949285" lon="16.1613717"><ele>9.0</ele><time>2026-05-03T06:43:05.483Z</time></trkpt><trkpt lat="38.9493567" lon="16.161095"><ele>11.0</ele><time>2026-05-03T06:43:06.482Z</time></trkpt><trkpt lat="38.949435" lon="16.160815"><ele>10.5</ele><time>2026-05-03T06:43:07.482Z</time></trkpt><trkpt lat="38.94951" lon="16.1605317"><ele>10.0</ele><time>2026-05-03T06:43:08.483Z</time></trkpt><trkpt lat="38.9495867" lon="16.1602517"><ele>10.0</ele><time>2026-05-03T06:43:09.484Z</time></trkpt><trkpt lat="38.9496617" lon="16.1599817"><ele>10.0</ele><time>2026-05-03T06:43:10.482Z</time></trkpt><trkpt lat="38.9497317" lon="16.1597233"><ele>10.0</ele><time>2026-05-03T06:43:11.483Z</time></trkpt><trkpt lat="38.9498" lon="16.1594783"><ele>10.333333333333334</ele><time>2026-05-03T06:43:12.483Z</time></trkpt><trkpt lat="38.9498767" lon="16.1592367"><ele>10.666666666666666</ele><time>2026-05-03T06:43:13.482Z</time></trkpt><trkpt lat="38.9499767" lon="16.1590033"><ele>11.0</ele><time>2026-05-03T06:43:14.483Z</time></trkpt><trkpt lat="38.95011" lon="16.1587817"><ele>11.0</ele><time>2026-05-03T06:43:15.483Z</time></trkpt><trkpt lat="38.9502617" lon="16.1585633"><ele>11.0</ele><time>2026-05-03T06:43:16.486Z</time></trkpt><trkpt lat="38.9504267" lon="16.1583383"><ele>8.5</ele><time>2026-05-03T06:43:17.482Z</time></trkpt><trkpt lat="38.950595" lon="16.158115"><ele>6.0</ele><time>2026-05-03T06:43:18.483Z</time></trkpt><trkpt lat="38.9507617" lon="16.1579017"><ele>10.5</ele><time>2026-05-03T06:43:19.482Z</time></trkpt><trkpt lat="38.9509317" lon="16.1577017"><ele>15.0</ele><time>2026-05-03T06:43:20.484Z</time></trkpt><trkpt lat="38.9511083" lon="16.1575117"><ele>10.5</ele><time>2026-05-03T06:43:21.483Z</time></trkpt><trkpt lat="38.9512867" lon="16.15733"><ele>6.0</ele><time>2026-05-03T06:43:22.484Z</time></trkpt><trkpt lat="38.9514667" lon="16.1571517"><ele>6.0</ele><time>2026-05-03T06:43:23.482Z</time></trkpt><trkpt lat="38.9516467" lon="16.1569717"><ele>6.0</ele><time>2026-05-03T06:43:24.482Z</time></trkpt><trkpt lat="38.9518283" lon="16.15679"><ele>6.0</ele><time>2026-05-03T06:43:25.483Z</time></trkpt><trkpt lat="38.952015" lon="16.1566133"><ele>6.0</ele><time>2026-05-03T06:43:26.484Z</time></trkpt><trkpt lat="38.95221" lon="16.1564417"><ele>6.0</ele><time>2026-05-03T06:43:27.482Z</time></trkpt><trkpt lat="38.9524083" lon="16.1562733"><ele>6.0</ele><time>2026-05-03T06:43:28.482Z</time></trkpt><trkpt lat="38.9526067" lon="16.1561117"><ele>10.5</ele><time>2026-05-03T06:43:29.482Z</time></trkpt><trkpt lat="38.9528017" lon="16.1559517"><ele>15.0</ele><time>2026-05-03T06:43:30.483Z</time></trkpt><trkpt lat="38.95299" lon="16.155795"><ele>12.666666666666666</ele><time>2026-05-03T06:43:31.483Z</time></trkpt><trkpt lat="38.953175" lon="16.1556433"><ele>10.333333333333332</ele><time>2026-05-03T06:43:32.485Z</time></trkpt><trkpt lat="38.9533533" lon="16.1554983"><ele>8.0</ele><time>2026-05-03T06:43:33.481Z</time></trkpt><trkpt lat="38.9535267" lon="16.155355"><ele>8.0</ele><time>2026-05-03T06:43:34.483Z</time></trkpt><trkpt lat="38.9536967" lon="16.1552117"><ele>8.0</ele><time>2026-05-03T06:43:35.482Z</time></trkpt><trkpt lat="38.9538633" lon="16.155075"><ele>8.0</ele><time>2026-05-03T06:43:36.482Z</time></trkpt><trkpt lat="38.9540267" lon="16.1549533"><ele>7.333333333333333</ele><time>2026-05-03T06:43:37.483Z</time></trkpt><trkpt lat="38.9541933" lon="16.1548583"><ele>6.666666666666666</ele><time>2026-05-03T06:43:38.483Z</time></trkpt><trkpt lat="38.9543667" lon="16.1547833"><ele>6.0</ele><time>2026-05-03T06:43:39.482Z</time></trkpt><trkpt lat="38.954555" lon="16.1547183"><ele>6.0</ele><time>2026-05-03T06:43:40.483Z</time></trkpt><trkpt lat="38.9547517" lon="16.154655"><ele>6.0</ele><time>2026-05-03T06:43:41.482Z</time></trkpt><trkpt lat="38.95496" lon="16.1545933"><ele>6.0</ele><time>2026-05-03T06:43:42.483Z</time></trkpt><trkpt lat="38.9551767" lon="16.1545333"><ele>6.5</ele><time>2026-05-03T06:43:43.481Z</time></trkpt><trkpt lat="38.9554033" lon="16.1544733"><ele>7.0</ele><time>2026-05-03T06:43:44.483Z</time></trkpt><trkpt lat="38.95563" lon="16.1544167"><ele>7.0</ele><time>2026-05-03T06:43:45.481Z</time></trkpt><trkpt lat="38.9558583" lon="16.154355"><ele>7.0</ele><time>2026-05-03T06:43:46.483Z</time></trkpt><trkpt lat="38.9560867" lon="16.1542933"><ele>6.5</ele><time>2026-05-03T06:43:47.482Z</time></trkpt><trkpt lat="38.9563167" lon="16.154235"><ele>6.0</ele><time>2026-05-03T06:43:48.484Z</time></trkpt><trkpt lat="38.95655" lon="16.1541767"><ele>6.5</ele><time>2026-05-03T06:43:49.482Z</time></trkpt><trkpt lat="38.9567867" lon="16.1541183"><ele>7.0</ele><time>2026-05-03T06:43:50.484Z</time></trkpt><trkpt lat="38.9570233" lon="16.154055"><ele>4.0</ele><time>2026-05-03T06:43:51.481Z</time></trkpt><trkpt lat="38.957265" lon="16.1539933"><ele>1.0</ele><time>2026-05-03T06:43:52.482Z</time></trkpt><trkpt lat="38.9575067" lon="16.1539283"><ele>2.0</ele><time>2026-05-03T06:43:53.482Z</time></trkpt><trkpt lat="38.95775" lon="16.1538617"><ele>3.0</ele><time>2026-05-03T06:43:54.482Z</time></trkpt><trkpt lat="38.9579867" lon="16.153795"><ele>3.0</ele><time>2026-05-03T06:43:55.482Z</time></trkpt><trkpt lat="38.95821" lon="16.1537317"><ele>3.0</ele><time>2026-05-03T06:43:56.483Z</time></trkpt><trkpt lat="38.95842" lon="16.1536717"><ele>3.0</ele><time>2026-05-03T06:43:57.483Z</time></trkpt><trkpt lat="38.958625" lon="16.1536217"><ele>4.0</ele><time>2026-05-03T06:43:58.482Z</time></trkpt><trkpt lat="38.95882" lon="16.1535717"><ele>5.0</ele><time>2026-05-03T06:43:59.482Z</time></trkpt><trkpt lat="38.9590067" lon="16.1535233"><ele>6.0</ele><time>2026-05-03T06:44:00.483Z</time></trkpt><trkpt lat="38.959185" lon="16.1534833"><ele>6.333333333333334</ele><time>2026-05-03T06:44:01.482Z</time></trkpt><trkpt lat="38.9593567" lon="16.1534433"><ele>6.666666666666667</ele><time>2026-05-03T06:44:02.482Z</time></trkpt><trkpt lat="38.9595283" lon="16.1533967"><ele>7.0</ele><time>2026-05-03T06:44:03.482Z</time></trkpt><trkpt lat="38.9597067" lon="16.1533467"><ele>7.0</ele><time>2026-05-03T06:44:04.483Z</time></trkpt><trkpt lat="38.9598867" lon="16.1532967"><ele>7.0</ele><time>2026-05-03T06:44:05.482Z</time></trkpt><trkpt lat="38.9600717" lon="16.153245"><ele>7.0</ele><time>2026-05-03T06:44:06.483Z</time></trkpt><trkpt lat="38.96026" lon="16.153195"><ele>6.0</ele><time>2026-05-03T06:44:07.483Z</time></trkpt><trkpt lat="38.9604483" lon="16.153145"><ele>5.0</ele><time>2026-05-03T06:44:08.483Z</time></trkpt><trkpt lat="38.9606383" lon="16.153095"><ele>4.0</ele><time>2026-05-03T06:44:09.483Z</time></trkpt><trkpt lat="38.9608317" lon="16.15304"><ele>4.0</ele><time>2026-05-03T06:44:10.483Z</time></trkpt><trkpt lat="38.9610283" lon="16.1529867"><ele>4.0</ele><time>2026-05-03T06:44:11.486Z</time></trkpt><trkpt lat="38.9612283" lon="16.1529383"><ele>4.0</ele><time>2026-05-03T06:44:12.483Z</time></trkpt><trkpt lat="38.9614317" lon="16.1528883"><ele>4.0</ele><time>2026-05-03T06:44:13.481Z</time></trkpt><trkpt lat="38.96164" lon="16.1528383"><ele>4.0</ele><time>2026-05-03T06:44:14.484Z</time></trkpt><trkpt lat="38.9618517" lon="16.1527833"><ele>4.0</ele><time>2026-05-03T06:44:15.482Z</time></trkpt><trkpt lat="38.9620667" lon="16.15273"><ele>4.333333333333333</ele><time>2026-05-03T06:44:16.486Z</time></trkpt><trkpt lat="38.9622833" lon="16.1526733"><ele>4.666666666666667</ele><time>2026-05-03T06:44:17.483Z</time></trkpt><trkpt lat="38.9625" lon="16.152615"><ele>5.0</ele><time>2026-05-03T06:44:18.483Z</time></trkpt><trkpt lat="38.9627133" lon="16.1525583"><ele>5.0</ele><time>2026-05-03T06:44:19.482Z</time></trkpt><trkpt lat="38.9629167" lon="16.152505"><ele>5.0</ele><time>2026-05-03T06:44:20.482Z</time></trkpt><trkpt lat="38.96311" lon="16.1524533"><ele>5.0</ele><time>2026-05-03T06:44:21.482Z</time></trkpt><trkpt lat="38.9632967" lon="16.152405"><ele>5.0</ele><time>2026-05-03T06:44:22.483Z</time></trkpt><trkpt lat="38.963475" lon="16.15236"><ele>5.0</ele><time>2026-05-03T06:44:23.483Z</time></trkpt><trkpt lat="38.963645" lon="16.152315"><ele>5.0</ele><time>2026-05-03T06:44:24.486Z</time></trkpt><trkpt lat="38.9638083" lon="16.1522717"><ele>5.0</ele><time>2026-05-03T06:44:25.482Z</time></trkpt><trkpt lat="38.9639617" lon="16.15223"><ele>5.0</ele><time>2026-05-03T06:44:26.483Z</time></trkpt><trkpt lat="38.9641133" lon="16.1521883"><ele>5.0</ele><time>2026-05-03T06:44:27.483Z</time></trkpt><trkpt lat="38.9642667" lon="16.152145"><ele>5.333333333333334</ele><time>2026-05-03T06:44:28.483Z</time></trkpt><trkpt lat="38.9644233" lon="16.15209"><ele>5.666666666666667</ele><time>2026-05-03T06:44:29.483Z</time></trkpt><trkpt lat="38.9645767" lon="16.15202"><ele>6.0</ele><time>2026-05-03T06:44:30.482Z</time></trkpt><trkpt lat="38.96473" lon="16.15194"><ele>6.0</ele><time>2026-05-03T06:44:31.482Z</time></trkpt><trkpt lat="38.964885" lon="16.1518567"><ele>6.0</ele><time>2026-05-03T06:44:32.483Z</time></trkpt><trkpt lat="38.9650383" lon="16.151775"><ele>6.0</ele><time>2026-05-03T06:44:33.483Z</time></trkpt><trkpt lat="38.9651917" lon="16.1516883"><ele>6.0</ele><time>2026-05-03T06:44:34.483Z</time></trkpt><trkpt lat="38.9653517" lon="16.1516033"><ele>6.0</ele><time>2026-05-03T06:44:35.482Z</time></trkpt><trkpt lat="38.965515" lon="16.1515117"><ele>6.0</ele><time>2026-05-03T06:44:36.483Z</time></trkpt><trkpt lat="38.965675" lon="16.151425"><ele>5.666666666666667</ele><time>2026-05-03T06:44:37.482Z</time></trkpt><trkpt lat="38.9658283" lon="16.1513383"><ele>5.333333333333334</ele><time>2026-05-03T06:44:38.483Z</time></trkpt><trkpt lat="38.9659817" lon="16.151245"><ele>5.0</ele><time>2026-05-03T06:44:39.483Z</time></trkpt><trkpt lat="38.96613" lon="16.15116"><ele>5.0</ele><time>2026-05-03T06:44:40.481Z</time></trkpt><trkpt lat="38.9662783" lon="16.1510783"><ele>5.0</ele><time>2026-05-03T06:44:41.481Z</time></trkpt><trkpt lat="38.9664267" lon="16.1509917"><ele>5.0</ele><time>2026-05-03T06:44:42.482Z</time></trkpt><trkpt lat="38.966575" lon="16.1509083"><ele>4.666666666666667</ele><time>2026-05-03T06:44:43.483Z</time></trkpt><trkpt lat="38.96672" lon="16.150825"><ele>4.333333333333333</ele><time>2026-05-03T06:44:44.485Z</time></trkpt><trkpt lat="38.96686" lon="16.150745"><ele>4.0</ele><time>2026-05-03T06:44:45.483Z</time></trkpt><trkpt lat="38.967" lon="16.1506683"><ele>4.0</ele><time>2026-05-03T06:44:46.482Z</time></trkpt><trkpt lat="38.96714" lon="16.1505917"><ele>4.0</ele><time>2026-05-03T06:44:47.483Z</time></trkpt><trkpt lat="38.9672817" lon="16.1505017"><ele>4.0</ele><time>2026-05-03T06:44:48.482Z</time></trkpt><trkpt lat="38.9674317" lon="16.1504067"><ele>4.666666666666666</ele><time>2026-05-03T06:44:49.483Z</time></trkpt><trkpt lat="38.967595" lon="16.15031"><ele>5.333333333333333</ele><time>2026-05-03T06:44:50.482Z</time></trkpt><trkpt lat="38.9677667" lon="16.1502117"><ele>6.0</ele><time>2026-05-03T06:44:51.484Z</time></trkpt><trkpt lat="38.9679417" lon="16.150115"><ele>6.0</ele><time>2026-05-03T06:44:52.483Z</time></trkpt><trkpt lat="38.96812" lon="16.1500167"><ele>6.0</ele><time>2026-05-03T06:44:53.483Z</time></trkpt><trkpt lat="38.9683033" lon="16.149915"><ele>6.0</ele><time>2026-05-03T06:44:54.482Z</time></trkpt><trkpt lat="38.9684817" lon="16.1498083"><ele>5.0</ele><time>2026-05-03T06:44:55.483Z</time></trkpt><trkpt lat="38.9686617" lon="16.1497033"><ele>4.0</ele><time>2026-05-03T06:44:56.482Z</time></trkpt><trkpt lat="38.9688433" lon="16.1495967"><ele>3.0</ele><time>2026-05-03T06:44:57.482Z</time></trkpt><trkpt lat="38.9690217" lon="16.149495"><ele>4.0</ele><time>2026-05-03T06:44:58.482Z</time></trkpt><trkpt lat="38.969195" lon="16.1493933"><ele>5.0</ele><time>2026-05-03T06:44:59.482Z</time></trkpt><trkpt lat="38.9693717" lon="16.1492917"><ele>6.0</ele><time>2026-05-03T06:45:00.483Z</time></trkpt><trkpt lat="38.9695433" lon="16.1491917"><ele>6.0</ele><time>2026-05-03T06:45:01.481Z</time></trkpt><trkpt lat="38.96971" lon="16.149095"><ele>6.0</ele><time>2026-05-03T06:45:02.484Z</time></trkpt><trkpt lat="38.969875" lon="16.1490017"><ele>6.0</ele><time>2026-05-03T06:45:03.483Z</time></trkpt><trkpt lat="38.9700383" lon="16.148915"><ele>6.333333333333334</ele><time>2026-05-03T06:45:04.483Z</time></trkpt><trkpt lat="38.9701967" lon="16.1488283"><ele>6.666666666666667</ele><time>2026-05-03T06:45:05.484Z</time></trkpt><trkpt lat="38.9703567" lon="16.1487383"><ele>7.0</ele><time>2026-05-03T06:45:06.483Z</time></trkpt><trkpt lat="38.9705233" lon="16.148645"><ele>7.0</ele><time>2026-05-03T06:45:07.483Z</time></trkpt><trkpt lat="38.9706967" lon="16.1485467"><ele>7.0</ele><time>2026-05-03T06:45:08.484Z</time></trkpt><trkpt lat="38.97087" lon="16.1484483"><ele>7.0</ele><time>2026-05-03T06:45:09.482Z</time></trkpt><trkpt lat="38.9710467" lon="16.1483467"><ele>7.0</ele><time>2026-05-03T06:45:10.482Z</time></trkpt><trkpt lat="38.9712267" lon="16.1482417"><ele>7.0</ele><time>2026-05-03T06:45:11.483Z</time></trkpt><trkpt lat="38.9714083" lon="16.1481333"><ele>7.0</ele><time>2026-05-03T06:45:12.484Z</time></trkpt><trkpt lat="38.9715983" lon="16.148025"><ele>6.666666666666667</ele><time>2026-05-03T06:45:13.484Z</time></trkpt><trkpt lat="38.97179" lon="16.1479133"><ele>6.333333333333334</ele><time>2026-05-03T06:45:14.485Z</time></trkpt><trkpt lat="38.97198" lon="16.147805"><ele>6.0</ele><time>2026-05-03T06:45:15.483Z</time></trkpt><trkpt lat="38.97217" lon="16.1476967"><ele>6.0</ele><time>2026-05-03T06:45:16.483Z</time></trkpt><trkpt lat="38.97236" lon="16.147585"><ele>6.0</ele><time>2026-05-03T06:45:17.483Z</time></trkpt><trkpt lat="38.9725467" lon="16.1474767"><ele>6.0</ele><time>2026-05-03T06:45:18.482Z</time></trkpt><trkpt lat="38.9727333" lon="16.1473717"><ele>5.333333333333333</ele><time>2026-05-03T06:45:19.485Z</time></trkpt><trkpt lat="38.9729217" lon="16.1472683"><ele>4.666666666666666</ele><time>2026-05-03T06:45:20.483Z</time></trkpt><trkpt lat="38.9731033" lon="16.1471683"><ele>4.0</ele><time>2026-05-03T06:45:21.483Z</time></trkpt><trkpt lat="38.9732833" lon="16.1470617"><ele>4.333333333333333</ele><time>2026-05-03T06:45:22.483Z</time></trkpt><trkpt lat="38.9734617" lon="16.1469517"><ele>4.666666666666667</ele><time>2026-05-03T06:45:23.483Z</time></trkpt><trkpt lat="38.97364" lon="16.1468367"><ele>5.0</ele><time>2026-05-03T06:45:24.482Z</time></trkpt><trkpt lat="38.9738083" lon="16.1467067"><ele>5.0</ele><time>2026-05-03T06:45:25.483Z</time></trkpt><trkpt lat="38.9739633" lon="16.1465533"><ele>5.0</ele><time>2026-05-03T06:45:26.483Z</time></trkpt><trkpt lat="38.9741067" lon="16.14637"><ele>5.0</ele><time>2026-05-03T06:45:27.482Z</time></trkpt><trkpt lat="38.97424" lon="16.1461583"><ele>5.333333333333334</ele><time>2026-05-03T06:45:28.484Z</time></trkpt><trkpt lat="38.97437" lon="16.14594"><ele>5.666666666666667</ele><time>2026-05-03T06:45:29.482Z</time></trkpt><trkpt lat="38.9744933" lon="16.1457317"><ele>6.0</ele><time>2026-05-03T06:45:30.481Z</time></trkpt><trkpt lat="38.974615" lon="16.14553"><ele>6.0</ele><time>2026-05-03T06:45:31.483Z</time></trkpt><trkpt lat="38.974735" lon="16.14533"><ele>6.0</ele><time>2026-05-03T06:45:32.483Z</time></trkpt><trkpt lat="38.974855" lon="16.14513"><ele>6.0</ele><time>2026-05-03T06:45:33.485Z</time></trkpt><trkpt lat="38.9749833" lon="16.1449283"><ele>7.0</ele><time>2026-05-03T06:45:34.483Z</time></trkpt><trkpt lat="38.9751183" lon="16.14473"><ele>8.0</ele><time>2026-05-03T06:45:35.483Z</time></trkpt><trkpt lat="38.9752633" lon="16.1445433"><ele>9.0</ele><time>2026-05-03T06:45:36.482Z</time></trkpt><trkpt lat="38.975425" lon="16.1443717"><ele>9.0</ele><time>2026-05-03T06:45:37.484Z</time></trkpt><trkpt lat="38.9755933" lon="16.1442183"><ele>9.0</ele><time>2026-05-03T06:45:38.482Z</time></trkpt><trkpt lat="38.9757617" lon="16.1440767"><ele>9.0</ele><time>2026-05-03T06:45:39.483Z</time></trkpt><trkpt lat="38.9759317" lon="16.1439517"><ele>9.0</ele><time>2026-05-03T06:45:40.482Z</time></trkpt><trkpt lat="38.9760983" lon="16.1438333"><ele>9.0</ele><time>2026-05-03T06:45:41.482Z</time></trkpt><trkpt lat="38.9762667" lon="16.1437267"><ele>9.0</ele><time>2026-05-03T06:45:42.482Z</time></trkpt><trkpt lat="38.97644" lon="16.1436283"><ele>9.0</ele><time>2026-05-03T06:45:43.483Z</time></trkpt><trkpt lat="38.9766133" lon="16.14355"><ele>9.0</ele><time>2026-05-03T06:45:44.483Z</time></trkpt><trkpt lat="38.9767867" lon="16.1434817"><ele>9.0</ele><time>2026-05-03T06:45:45.482Z</time></trkpt><trkpt lat="38.9769633" lon="16.143415"><ele>9.666666666666666</ele><time>2026-05-03T06:45:46.484Z</time></trkpt><trkpt lat="38.9771467" lon="16.1433417"><ele>10.333333333333332</ele><time>2026-05-03T06:45:47.481Z</time></trkpt><trkpt lat="38.9773267" lon="16.1432717"><ele>11.0</ele><time>2026-05-03T06:45:48.482Z</time></trkpt><trkpt lat="38.9774917" lon="16.1432083"><ele>8.75</ele><time>2026-05-03T06:45:49.483Z</time></trkpt><trkpt lat="38.977645" lon="16.1431567"><ele>6.5</ele><time>2026-05-03T06:45:50.484Z</time></trkpt><trkpt lat="38.97778" lon="16.1431083"><ele>4.25</ele><time>2026-05-03T06:45:51.483Z</time></trkpt><trkpt lat="38.9778967" lon="16.1430633"><ele>2.0</ele><time>2026-05-03T06:45:52.483Z</time></trkpt><trkpt lat="38.9779983" lon="16.1430167"><ele>2.0</ele><time>2026-05-03T06:45:53.485Z</time></trkpt><trkpt lat="38.9780883" lon="16.1429767"><ele>2.0</ele><time>2026-05-03T06:45:54.481Z</time></trkpt><trkpt lat="38.9781717" lon="16.1429467"><ele>2.0</ele><time>2026-05-03T06:45:55.483Z</time></trkpt><trkpt lat="38.97826" lon="16.1429167"><ele>2.0</ele><time>2026-05-03T06:45:56.482Z</time></trkpt><trkpt lat="38.9783517" lon="16.1428817"><ele>2.0</ele><time>2026-05-03T06:45:57.483Z</time></trkpt><trkpt lat="38.9784517" lon="16.1428433"><ele>2.75</ele><time>2026-05-03T06:45:58.482Z</time></trkpt><trkpt lat="38.9785567" lon="16.142805"><ele>3.5</ele><time>2026-05-03T06:45:59.487Z</time></trkpt><trkpt lat="38.9786683" lon="16.1427633"><ele>4.25</ele><time>2026-05-03T06:46:00.482Z</time></trkpt><trkpt lat="38.9787833" lon="16.1427167"><ele>5.0</ele><time>2026-05-03T06:46:01.484Z</time></trkpt><trkpt lat="38.978905" lon="16.14267"><ele>5.0</ele><time>2026-05-03T06:46:02.483Z</time></trkpt><trkpt lat="38.9790383" lon="16.1426233"><ele>5.0</ele><time>2026-05-03T06:46:03.483Z</time></trkpt><trkpt lat="38.979185" lon="16.1425767"><ele>5.0</ele><time>2026-05-03T06:46:04.481Z</time></trkpt><trkpt lat="38.9793483" lon="16.1425217"><ele>5.0</ele><time>2026-05-03T06:46:05.483Z</time></trkpt><trkpt lat="38.9795367" lon="16.1424517"><ele>5.0</ele><time>2026-05-03T06:46:06.481Z</time></trkpt><trkpt lat="38.9797617" lon="16.1423717"><ele>5.0</ele><time>2026-05-03T06:46:07.482Z</time></trkpt><trkpt lat="38.9800217" lon="16.142275"><ele>4.5</ele><time>2026-05-03T06:46:08.483Z</time></trkpt><trkpt lat="38.9803067" lon="16.14217"><ele>4.0</ele><time>2026-05-03T06:46:09.483Z</time></trkpt><trkpt lat="38.98061" lon="16.142055"><ele>3.5</ele><time>2026-05-03T06:46:10.481Z</time></trkpt><trkpt lat="38.980915" lon="16.14194"><ele>3.0</ele><time>2026-05-03T06:46:11.483Z</time></trkpt><trkpt lat="38.9812133" lon="16.14183"><ele>3.0</ele><time>2026-05-03T06:46:12.482Z</time></trkpt><trkpt lat="38.98151" lon="16.14172"><ele>3.0</ele><time>2026-05-03T06:46:13.481Z</time></trkpt><trkpt lat="38.9818017" lon="16.1416117"><ele>3.0</ele><time>2026-05-03T06:46:14.483Z</time></trkpt><trkpt lat="38.9820767" lon="16.1415133"><ele>3.0</ele><time>2026-05-03T06:46:15.486Z</time></trkpt><trkpt lat="38.9823367" lon="16.1414167"><ele>2.5</ele><time>2026-05-03T06:46:16.482Z</time></trkpt><trkpt lat="38.9825817" lon="16.141325"><ele>2.0</ele><time>2026-05-03T06:46:17.482Z</time></trkpt><trkpt lat="38.98282" lon="16.1412333"><ele>2.0</ele><time>2026-05-03T06:46:18.482Z</time></trkpt><trkpt lat="38.9830583" lon="16.1411317"><ele>2.0</ele><time>2026-05-03T06:46:19.481Z</time></trkpt><trkpt lat="38.983295" lon="16.1410133"><ele>4.5</ele><time>2026-05-03T06:46:20.483Z</time></trkpt><trkpt lat="38.9835317" lon="16.1408783"><ele>7.0</ele><time>2026-05-03T06:46:21.484Z</time></trkpt><trkpt lat="38.9837717" lon="16.14073"><ele>7.0</ele><time>2026-05-03T06:46:22.482Z</time></trkpt><trkpt lat="38.9840133" lon="16.1405733"><ele>7.0</ele><time>2026-05-03T06:46:23.482Z</time></trkpt><trkpt lat="38.9842533" lon="16.1404167"><ele>7.0</ele><time>2026-05-03T06:46:24.483Z</time></trkpt><trkpt lat="38.984495" lon="16.1402633"><ele>7.0</ele><time>2026-05-03T06:46:25.483Z</time></trkpt><trkpt lat="38.9847167" lon="16.14012"><ele>7.0</ele><time>2026-05-03T06:46:26.482Z</time></trkpt><trkpt lat="38.98493" lon="16.1399817"><ele>7.0</ele><time>2026-05-03T06:46:27.482Z</time></trkpt><trkpt lat="38.9851317" lon="16.1398483"><ele>7.0</ele><time>2026-05-03T06:46:28.482Z</time></trkpt><trkpt lat="38.985325" lon="16.1397217"><ele>7.0</ele><time>2026-05-03T06:46:29.485Z</time></trkpt><trkpt lat="38.985505" lon="16.1396017"><ele>7.0</ele><time>2026-05-03T06:46:30.482Z</time></trkpt><trkpt lat="38.9856883" lon="16.1394833"><ele>10.0</ele><time>2026-05-03T06:46:31.483Z</time></trkpt><trkpt lat="38.9858733" lon="16.1393667"><ele>13.0</ele><time>2026-05-03T06:46:32.484Z</time></trkpt><trkpt lat="38.98606" lon="16.1392533"><ele>16.0</ele><time>2026-05-03T06:46:33.481Z</time></trkpt><trkpt lat="38.98624" lon="16.1391417"><ele>12.333333333333332</ele><time>2026-05-03T06:46:34.483Z</time></trkpt><trkpt lat="38.986415" lon="16.1390383"><ele>8.666666666666666</ele><time>2026-05-03T06:46:35.485Z</time></trkpt><trkpt lat="38.9865867" lon="16.1389467"><ele>5.0</ele><time>2026-05-03T06:46:36.481Z</time></trkpt><trkpt lat="38.9867583" lon="16.1388633"><ele>5.0</ele><time>2026-05-03T06:46:37.487Z</time></trkpt><trkpt lat="38.9869283" lon="16.13879"><ele>5.0</ele><time>2026-05-03T06:46:38.483Z</time></trkpt><trkpt lat="38.98709" lon="16.1387133"><ele>5.0</ele><time>2026-05-03T06:46:39.482Z</time></trkpt><trkpt lat="38.98725" lon="16.13864"><ele>5.0</ele><time>2026-05-03T06:46:40.483Z</time></trkpt><trkpt lat="38.9874017" lon="16.1385683"><ele>5.0</ele><time>2026-05-03T06:46:41.483Z</time></trkpt><trkpt lat="38.9875433" lon="16.1385033"><ele>5.0</ele><time>2026-05-03T06:46:42.483Z</time></trkpt><trkpt lat="38.987685" lon="16.138445"><ele>6.333333333333334</ele><time>2026-05-03T06:46:43.483Z</time></trkpt><trkpt lat="38.9878333" lon="16.1383817"><ele>7.666666666666667</ele><time>2026-05-03T06:46:44.483Z</time></trkpt><trkpt lat="38.9879883" lon="16.1383167"><ele>9.0</ele><time>2026-05-03T06:46:45.483Z</time></trkpt><trkpt lat="38.9881533" lon="16.1382417"><ele>7.333333333333333</ele><time>2026-05-03T06:46:46.482Z</time></trkpt><trkpt lat="38.988325" lon="16.138165"><ele>5.666666666666666</ele><time>2026-05-03T06:46:47.484Z</time></trkpt><trkpt lat="38.9884983" lon="16.1380867"><ele>4.0</ele><time>2026-05-03T06:46:48.482Z</time></trkpt><trkpt lat="38.98868" lon="16.138005"><ele>4.0</ele><time>2026-05-03T06:46:49.485Z</time></trkpt><trkpt lat="38.9888617" lon="16.137925"><ele>4.0</ele><time>2026-05-03T06:46:50.482Z</time></trkpt><trkpt lat="38.989045" lon="16.1378383"><ele>4.0</ele><time>2026-05-03T06:46:51.483Z</time></trkpt><trkpt lat="38.98923" lon="16.1377517"><ele>5.333333333333333</ele><time>2026-05-03T06:46:52.483Z</time></trkpt><trkpt lat="38.9894183" lon="16.137655"><ele>6.666666666666666</ele><time>2026-05-03T06:46:53.484Z</time></trkpt><trkpt lat="38.9896117" lon="16.13756"><ele>8.0</ele><time>2026-05-03T06:46:54.484Z</time></trkpt><trkpt lat="38.9898117" lon="16.1374733"><ele>8.0</ele><time>2026-05-03T06:46:55.482Z</time></trkpt><trkpt lat="38.990015" lon="16.137395"><ele>8.0</ele><time>2026-05-03T06:46:56.483Z</time></trkpt><trkpt lat="38.990215" lon="16.1373083"><ele>8.0</ele><time>2026-05-03T06:46:57.483Z</time></trkpt><trkpt lat="38.9904167" lon="16.1372183"><ele>8.333333333333332</ele><time>2026-05-03T06:46:58.483Z</time></trkpt><trkpt lat="38.99062" lon="16.13713"><ele>8.666666666666666</ele><time>2026-05-03T06:46:59.483Z</time></trkpt><trkpt lat="38.9908183" lon="16.1370433"><ele>9.0</ele><time>2026-05-03T06:47:00.482Z</time></trkpt><trkpt lat="38.9910167" lon="16.1369567"><ele>10.0</ele><time>2026-05-03T06:47:01.482Z</time></trkpt><trkpt lat="38.9912117" lon="16.1368583"><ele>11.0</ele><time>2026-05-03T06:47:02.482Z</time></trkpt><trkpt lat="38.9914033" lon="16.1367483"><ele>12.0</ele><time>2026-05-03T06:47:03.482Z</time></trkpt><trkpt lat="38.99159" lon="16.1366267"><ele>11.666666666666666</ele><time>2026-05-03T06:47:04.481Z</time></trkpt><trkpt lat="38.9917733" lon="16.136495"><ele>11.333333333333332</ele><time>2026-05-03T06:47:05.482Z</time></trkpt><trkpt lat="38.9919483" lon="16.1363517"><ele>11.0</ele><time>2026-05-03T06:47:06.483Z</time></trkpt><trkpt lat="38.9921233" lon="16.1362017"><ele>11.0</ele><time>2026-05-03T06:47:07.484Z</time></trkpt><trkpt lat="38.9923" lon="16.1360567"><ele>11.0</ele><time>2026-05-03T06:47:08.483Z</time></trkpt><trkpt lat="38.9924717" lon="16.13591"><ele>11.0</ele><time>2026-05-03T06:47:09.484Z</time></trkpt><trkpt lat="38.992645" lon="16.1357617"><ele>10.0</ele><time>2026-05-03T06:47:10.482Z</time></trkpt><trkpt lat="38.9928167" lon="16.135615"><ele>9.0</ele><time>2026-05-03T06:47:11.482Z</time></trkpt><trkpt lat="38.99299" lon="16.1354717"><ele>8.0</ele><time>2026-05-03T06:47:12.481Z</time></trkpt><trkpt lat="38.9931683" lon="16.1353333"><ele>9.0</ele><time>2026-05-03T06:47:13.483Z</time></trkpt><trkpt lat="38.99335" lon="16.135205"><ele>10.0</ele><time>2026-05-03T06:47:14.482Z</time></trkpt><trkpt lat="38.99354" lon="16.135085"><ele>11.0</ele><time>2026-05-03T06:47:15.483Z</time></trkpt><trkpt lat="38.9937317" lon="16.134965"><ele>9.333333333333332</ele><time>2026-05-03T06:47:16.482Z</time></trkpt><trkpt lat="38.9939183" lon="16.1348483"><ele>7.666666666666666</ele><time>2026-05-03T06:47:17.484Z</time></trkpt><trkpt lat="38.994105" lon="16.1347317"><ele>6.0</ele><time>2026-05-03T06:47:18.484Z</time></trkpt><trkpt lat="38.9942817" lon="16.13462"><ele>6.0</ele><time>2026-05-03T06:47:19.482Z</time></trkpt><trkpt lat="38.994445" lon="16.1345133"><ele>6.0</ele><time>2026-05-03T06:47:20.483Z</time></trkpt><trkpt lat="38.9945967" lon="16.13442"><ele>6.0</ele><time>2026-05-03T06:47:21.482Z</time></trkpt><trkpt lat="38.9947283" lon="16.1343417"><ele>6.0</ele><time>2026-05-03T06:47:22.483Z</time></trkpt><trkpt lat="38.994835" lon="16.1342783"><ele>6.0</ele><time>2026-05-03T06:47:23.483Z</time></trkpt><trkpt lat="38.99493" lon="16.1342217"><ele>6.0</ele><time>2026-05-03T06:47:24.482Z</time></trkpt><trkpt lat="38.99502" lon="16.1341667"><ele>6.0</ele><time>2026-05-03T06:47:25.482Z</time></trkpt><trkpt lat="38.9951083" lon="16.1341133"><ele>6.0</ele><time>2026-05-03T06:47:26.483Z</time></trkpt><trkpt lat="38.9952017" lon="16.1340533"><ele>6.0</ele><time>2026-05-03T06:47:27.482Z</time></trkpt><trkpt lat="38.9952967" lon="16.1339933"><ele>6.0</ele><time>2026-05-03T06:47:28.482Z</time></trkpt><trkpt lat="38.9953917" lon="16.1339317"><ele>6.0</ele><time>2026-05-03T06:47:29.481Z</time></trkpt><trkpt lat="38.99549" lon="16.1338717"><ele>6.0</ele><time>2026-05-03T06:47:30.483Z</time></trkpt><trkpt lat="38.9955867" lon="16.1338133"><ele>6.0</ele><time>2026-05-03T06:47:31.483Z</time></trkpt><trkpt lat="38.995685" lon="16.13375"><ele>6.0</ele><time>2026-05-03T06:47:32.484Z</time></trkpt><trkpt lat="38.9957833" lon="16.1336917"><ele>6.0</ele><time>2026-05-03T06:47:33.482Z</time></trkpt><trkpt lat="38.9958833" lon="16.133635"><ele>6.0</ele><time>2026-05-03T06:47:34.483Z</time></trkpt><trkpt lat="38.9959833" lon="16.133575"><ele>6.0</ele><time>2026-05-03T06:47:35.483Z</time></trkpt><trkpt lat="38.996085" lon="16.1335167"><ele>6.0</ele><time>2026-05-03T06:47:36.483Z</time></trkpt><trkpt lat="38.99619" lon="16.133455"><ele>6.0</ele><time>2026-05-03T06:47:37.484Z</time></trkpt><trkpt lat="38.9962933" lon="16.133395"><ele>6.0</ele><time>2026-05-03T06:47:38.484Z</time></trkpt><trkpt lat="38.9963967" lon="16.133335"><ele>6.0</ele><time>2026-05-03T06:47:39.483Z</time></trkpt><trkpt lat="38.9965033" lon="16.1332717"><ele>6.0</ele><time>2026-05-03T06:47:40.482Z</time></trkpt><trkpt lat="38.9966067" lon="16.13321"><ele>5.8</ele><time>2026-05-03T06:47:41.484Z</time></trkpt><trkpt lat="38.996705" lon="16.1331517"><ele>5.6</ele><time>2026-05-03T06:47:42.481Z</time></trkpt><trkpt lat="38.996805" lon="16.1330933"><ele>5.4</ele><time>2026-05-03T06:47:43.485Z</time></trkpt><trkpt lat="38.9969" lon="16.1330367"><ele>5.2</ele><time>2026-05-03T06:47:44.486Z</time></trkpt><trkpt lat="38.9969833" lon="16.1329883"><ele>5.0</ele><time>2026-05-03T06:47:45.481Z</time></trkpt><trkpt lat="38.9970533" lon="16.1329533"><ele>5.0</ele><time>2026-05-03T06:47:46.483Z</time></trkpt><trkpt lat="38.997145" lon="16.1329133"><ele>5.0</ele><time>2026-05-03T06:47:48.483Z</time></trkpt><trkpt lat="38.9972233" lon="16.13286"><ele>5.0</ele><time>2026-05-03T06:51:47.481Z</time></trkpt><trkpt lat="38.9973033" lon="16.1328083"><ele>5.0</ele><time>2026-05-03T06:51:48.482Z</time></trkpt><trkpt lat="38.9973983" lon="16.132745"><ele>5.0</ele><time>2026-05-03T06:51:49.482Z</time></trkpt><trkpt lat="38.9975067" lon="16.132675"><ele>4.5</ele><time>2026-05-03T06:51:50.484Z</time></trkpt><trkpt lat="38.9976317" lon="16.1326"><ele>4.0</ele><time>2026-05-03T06:51:51.482Z</time></trkpt><trkpt lat="38.997765" lon="16.1325183"><ele>3.5</ele><time>2026-05-03T06:51:52.483Z</time></trkpt><trkpt lat="38.9979083" lon="16.1324317"><ele>3.0</ele><time>2026-05-03T06:51:53.484Z</time></trkpt><trkpt lat="38.9980617" lon="16.1323367"><ele>2.6666666666666665</ele><time>2026-05-03T06:51:54.484Z</time></trkpt><trkpt lat="38.998225" lon="16.132235"><ele>2.333333333333333</ele><time>2026-05-03T06:51:55.483Z</time></trkpt><trkpt lat="38.998395" lon="16.1321317"><ele>2.0</ele><time>2026-05-03T06:51:56.483Z</time></trkpt><trkpt lat="38.9985667" lon="16.1320267"><ele>3.0</ele><time>2026-05-03T06:51:57.481Z</time></trkpt><trkpt lat="38.9987433" lon="16.1319183"><ele>4.0</ele><time>2026-05-03T06:51:58.483Z</time></trkpt><trkpt lat="38.9989233" lon="16.1318033"><ele>5.0</ele><time>2026-05-03T06:51:59.482Z</time></trkpt><trkpt lat="38.9991067" lon="16.1316867"><ele>4.333333333333334</ele><time>2026-05-03T06:52:00.482Z</time></trkpt><trkpt lat="38.9992917" lon="16.13157"><ele>3.666666666666667</ele><time>2026-05-03T06:52:01.483Z</time></trkpt><trkpt lat="38.9994783" lon="16.131455"><ele>3.0</ele><time>2026-05-03T06:52:02.484Z</time></trkpt><trkpt lat="38.9996683" lon="16.1313417"><ele>3.0</ele><time>2026-05-03T06:52:03.483Z</time></trkpt><trkpt lat="38.99986" lon="16.1312283"><ele>3.0</ele><time>2026-05-03T06:52:04.482Z</time></trkpt><trkpt lat="39.0000483" lon="16.131115"><ele>3.0</ele><time>2026-05-03T06:52:05.482Z</time></trkpt><trkpt lat="39.000235" lon="16.1310017"><ele>3.0</ele><time>2026-05-03T06:52:06.483Z</time></trkpt><trkpt lat="39.000425" lon="16.1308867"><ele>3.0</ele><time>2026-05-03T06:52:07.483Z</time></trkpt><trkpt lat="39.0006133" lon="16.1307717"><ele>3.0</ele><time>2026-05-03T06:52:08.483Z</time></trkpt><trkpt lat="39.0007983" lon="16.1306533"><ele>3.333333333333333</ele><time>2026-05-03T06:52:09.482Z</time></trkpt><trkpt lat="39.0009817" lon="16.1305267"><ele>3.6666666666666665</ele><time>2026-05-03T06:52:10.482Z</time></trkpt><trkpt lat="39.0011633" lon="16.1303967"><ele>4.0</ele><time>2026-05-03T06:52:11.483Z</time></trkpt><trkpt lat="39.001345" lon="16.1302583"><ele>4.0</ele><time>2026-05-03T06:52:12.483Z</time></trkpt><trkpt lat="39.0015217" lon="16.130115"><ele>4.0</ele><time>2026-05-03T06:52:13.484Z</time></trkpt><trkpt lat="39.0017" lon="16.1299683"><ele>4.0</ele><time>2026-05-03T06:52:14.483Z</time></trkpt><trkpt lat="39.0018733" lon="16.1298183"><ele>3.333333333333333</ele><time>2026-05-03T06:52:15.482Z</time></trkpt><trkpt lat="39.0020433" lon="16.129665"><ele>2.6666666666666665</ele><time>2026-05-03T06:52:16.482Z</time></trkpt><trkpt lat="39.00221" lon="16.12951"><ele>2.0</ele><time>2026-05-03T06:52:17.481Z</time></trkpt><trkpt lat="39.00238" lon="16.1293533"><ele>2.333333333333333</ele><time>2026-05-03T06:52:18.481Z</time></trkpt><trkpt lat="39.0025433" lon="16.1291917"><ele>2.6666666666666665</ele><time>2026-05-03T06:52:19.482Z</time></trkpt><trkpt lat="39.0027067" lon="16.1290267"><ele>3.0</ele><time>2026-05-03T06:52:20.483Z</time></trkpt><trkpt lat="39.0028767" lon="16.128855"><ele>3.0</ele><time>2026-05-03T06:52:21.482Z</time></trkpt><trkpt lat="39.0030433" lon="16.128685"><ele>3.0</ele><time>2026-05-03T06:52:22.482Z</time></trkpt><trkpt lat="39.00321" lon="16.1285133"><ele>3.0</ele><time>2026-05-03T06:52:23.483Z</time></trkpt><trkpt lat="39.0033783" lon="16.1283417"><ele>3.666666666666667</ele><time>2026-05-03T06:52:24.482Z</time></trkpt><trkpt lat="39.0035483" lon="16.1281683"><ele>4.333333333333334</ele><time>2026-05-03T06:52:25.483Z</time></trkpt><trkpt lat="39.0037217" lon="16.1279967"><ele>5.0</ele><time>2026-05-03T06:52:26.483Z</time></trkpt><trkpt lat="39.0038917" lon="16.1278233"><ele>5.0</ele><time>2026-05-03T06:52:27.482Z</time></trkpt><trkpt lat="39.00406" lon="16.127655"><ele>5.0</ele><time>2026-05-03T06:52:28.482Z</time></trkpt><trkpt lat="39.00422" lon="16.1274883"><ele>5.0</ele><time>2026-05-03T06:52:29.483Z</time></trkpt><trkpt lat="39.0043783" lon="16.127325"><ele>4.333333333333334</ele><time>2026-05-03T06:52:30.482Z</time></trkpt><trkpt lat="39.004535" lon="16.1271583"><ele>3.666666666666667</ele><time>2026-05-03T06:52:31.481Z</time></trkpt><trkpt lat="39.0046933" lon="16.1269983"><ele>3.0</ele><time>2026-05-03T06:52:32.483Z</time></trkpt><trkpt lat="39.004845" lon="16.1268433"><ele>3.0</ele><time>2026-05-03T06:52:33.483Z</time></trkpt><trkpt lat="39.0049917" lon="16.1266983"><ele>3.0</ele><time>2026-05-03T06:52:34.483Z</time></trkpt><trkpt lat="39.005135" lon="16.1265583"><ele>3.0</ele><time>2026-05-03T06:52:35.483Z</time></trkpt><trkpt lat="39.0052767" lon="16.1264233"><ele>3.333333333333333</ele><time>2026-05-03T06:52:36.483Z</time></trkpt><trkpt lat="39.0054167" lon="16.1262883"><ele>3.6666666666666665</ele><time>2026-05-03T06:52:37.481Z</time></trkpt><trkpt lat="39.005555" lon="16.1261517"><ele>4.0</ele><time>2026-05-03T06:52:38.483Z</time></trkpt><trkpt lat="39.0056933" lon="16.126015"><ele>4.0</ele><time>2026-05-03T06:52:39.481Z</time></trkpt><trkpt lat="39.0058317" lon="16.1258767"><ele>4.0</ele><time>2026-05-03T06:52:40.482Z</time></trkpt><trkpt lat="39.00597" lon="16.1257367"><ele>4.0</ele><time>2026-05-03T06:52:41.481Z</time></trkpt><trkpt lat="39.0061117" lon="16.1255933"><ele>3.0</ele><time>2026-05-03T06:52:42.482Z</time></trkpt><trkpt lat="39.0062567" lon="16.1254433"><ele>2.0</ele><time>2026-05-03T06:52:43.482Z</time></trkpt><trkpt lat="39.0064017" lon="16.1252883"><ele>1.0</ele><time>2026-05-03T06:52:44.482Z</time></trkpt><trkpt lat="39.0065533" lon="16.12513"><ele>1.0</ele><time>2026-05-03T06:52:45.482Z</time></trkpt><trkpt lat="39.0067083" lon="16.12497"><ele>1.0</ele><time>2026-05-03T06:52:46.484Z</time></trkpt><trkpt lat="39.0068683" lon="16.124805"><ele>1.0</ele><time>2026-05-03T06:52:47.482Z</time></trkpt><trkpt lat="39.007035" lon="16.124635"><ele>1.0</ele><time>2026-05-03T06:52:48.483Z</time></trkpt><trkpt lat="39.0072017" lon="16.124455"><ele>1.0</ele><time>2026-05-03T06:52:49.483Z</time></trkpt><trkpt lat="39.0073733" lon="16.1242717"><ele>1.0</ele><time>2026-05-03T06:52:50.482Z</time></trkpt><trkpt lat="39.0075467" lon="16.1240867"><ele>2.5</ele><time>2026-05-03T06:52:51.481Z</time></trkpt><trkpt lat="39.0077267" lon="16.123905"><ele>4.0</ele><time>2026-05-03T06:52:52.482Z</time></trkpt><trkpt lat="39.007905" lon="16.1237217"><ele>4.0</ele><time>2026-05-03T06:52:53.484Z</time></trkpt><trkpt lat="39.00809" lon="16.1235367"><ele>4.0</ele><time>2026-05-03T06:52:54.482Z</time></trkpt><trkpt lat="39.0082733" lon="16.1233483"><ele>4.0</ele><time>2026-05-03T06:52:55.484Z</time></trkpt><trkpt lat="39.0084633" lon="16.1231583"><ele>4.0</ele><time>2026-05-03T06:52:56.483Z</time></trkpt><trkpt lat="39.0086533" lon="16.1229683"><ele>4.0</ele><time>2026-05-03T06:52:57.482Z</time></trkpt><trkpt lat="39.0088483" lon="16.1227733"><ele>4.0</ele><time>2026-05-03T06:52:58.482Z</time></trkpt><trkpt lat="39.0090467" lon="16.1225783"><ele>4.5</ele><time>2026-05-03T06:52:59.484Z</time></trkpt><trkpt lat="39.009245" lon="16.1223833"><ele>5.0</ele><time>2026-05-03T06:53:00.482Z</time></trkpt><trkpt lat="39.0094417" lon="16.1221917"><ele>5.0</ele><time>2026-05-03T06:53:01.483Z</time></trkpt><trkpt lat="39.0096367" lon="16.1219983"><ele>5.0</ele><time>2026-05-03T06:53:02.483Z</time></trkpt><trkpt lat="39.0098283" lon="16.1218083"><ele>4.5</ele><time>2026-05-03T06:53:03.483Z</time></trkpt><trkpt lat="39.0100167" lon="16.1216167"><ele>4.0</ele><time>2026-05-03T06:53:04.483Z</time></trkpt><trkpt lat="39.0102067" lon="16.1214283"><ele>4.0</ele><time>2026-05-03T06:53:05.482Z</time></trkpt><trkpt lat="39.0103967" lon="16.1212433"><ele>4.0</ele><time>2026-05-03T06:53:06.483Z</time></trkpt><trkpt lat="39.010585" lon="16.1210567"><ele>4.0</ele><time>2026-05-03T06:53:07.481Z</time></trkpt><trkpt lat="39.0107767" lon="16.1208667"><ele>4.0</ele><time>2026-05-03T06:53:08.483Z</time></trkpt><trkpt lat="39.0109633" lon="16.1206783"><ele>3.5</ele><time>2026-05-03T06:53:09.483Z</time></trkpt><trkpt lat="39.0111533" lon="16.1204867"><ele>3.0</ele><time>2026-05-03T06:53:10.482Z</time></trkpt><trkpt lat="39.0113433" lon="16.120295"><ele>3.0</ele><time>2026-05-03T06:53:11.482Z</time></trkpt><trkpt lat="39.011535" lon="16.120105"><ele>3.0</ele><time>2026-05-03T06:53:12.483Z</time></trkpt><trkpt lat="39.0117183" lon="16.1199133"><ele>3.0</ele><time>2026-05-03T06:53:13.482Z</time></trkpt><trkpt lat="39.0119033" lon="16.1197267"><ele>3.0</ele><time>2026-05-03T06:53:14.484Z</time></trkpt><trkpt lat="39.0120867" lon="16.11954"><ele>3.0</ele><time>2026-05-03T06:53:15.483Z</time></trkpt><trkpt lat="39.0122717" lon="16.1193567"><ele>3.0</ele><time>2026-05-03T06:53:16.483Z</time></trkpt><trkpt lat="39.0124533" lon="16.1191733"><ele>4.0</ele><time>2026-05-03T06:53:17.483Z</time></trkpt><trkpt lat="39.0126367" lon="16.1189967"><ele>5.0</ele><time>2026-05-03T06:53:18.482Z</time></trkpt><trkpt lat="39.0128167" lon="16.118825"><ele>5.0</ele><time>2026-05-03T06:53:19.483Z</time></trkpt><trkpt lat="39.013" lon="16.118655"><ele>5.0</ele><time>2026-05-03T06:53:20.483Z</time></trkpt><trkpt lat="39.0131833" lon="16.1184833"><ele>5.0</ele><time>2026-05-03T06:53:21.482Z</time></trkpt><trkpt lat="39.0133633" lon="16.11831"><ele>5.0</ele><time>2026-05-03T06:53:22.483Z</time></trkpt><trkpt lat="39.0135433" lon="16.1181383"><ele>5.0</ele><time>2026-05-03T06:53:23.482Z</time></trkpt><trkpt lat="39.013725" lon="16.1179633"><ele>5.0</ele><time>2026-05-03T06:53:24.482Z</time></trkpt><trkpt lat="39.01391" lon="16.1177867"><ele>5.0</ele><time>2026-05-03T06:53:25.483Z</time></trkpt><trkpt lat="39.0140933" lon="16.117615"><ele>4.5</ele><time>2026-05-03T06:53:26.483Z</time></trkpt><trkpt lat="39.0142783" lon="16.1174383"><ele>4.0</ele><time>2026-05-03T06:53:27.483Z</time></trkpt><trkpt lat="39.0144667" lon="16.11726"><ele>2.5</ele><time>2026-05-03T06:53:28.483Z</time></trkpt><trkpt lat="39.0146567" lon="16.11708"><ele>1.0</ele><time>2026-05-03T06:53:29.481Z</time></trkpt><trkpt lat="39.01485" lon="16.1169017"><ele>1.5</ele><time>2026-05-03T06:53:30.483Z</time></trkpt><trkpt lat="39.0150467" lon="16.1167233"><ele>2.0</ele><time>2026-05-03T06:53:31.482Z</time></trkpt><trkpt lat="39.0152383" lon="16.1165433"><ele>2.0</ele><time>2026-05-03T06:53:32.483Z</time></trkpt><trkpt lat="39.0154317" lon="16.116365"><ele>2.0</ele><time>2026-05-03T06:53:33.483Z</time></trkpt><trkpt lat="39.0156283" lon="16.116185"><ele>3.0</ele><time>2026-05-03T06:53:34.482Z</time></trkpt><trkpt lat="39.015825" lon="16.1160017"><ele>4.0</ele><time>2026-05-03T06:53:35.483Z</time></trkpt><trkpt lat="39.01602" lon="16.1158133"><ele>2.5</ele><time>2026-05-03T06:53:36.483Z</time></trkpt><trkpt lat="39.0162167" lon="16.115625"><ele>1.0</ele><time>2026-05-03T06:53:37.482Z</time></trkpt><trkpt lat="39.0164133" lon="16.1154383"><ele>1.0</ele><time>2026-05-03T06:53:38.484Z</time></trkpt><trkpt lat="39.0166117" lon="16.11525"><ele>1.0</ele><time>2026-05-03T06:53:39.482Z</time></trkpt><trkpt lat="39.0168117" lon="16.1150617"><ele>0.0</ele><time>2026-05-03T06:53:40.482Z</time></trkpt><trkpt lat="39.0170133" lon="16.1148717"><ele>-1.0</ele><time>2026-05-03T06:53:41.482Z</time></trkpt><trkpt lat="39.0172167" lon="16.1146783"><ele>-1.0</ele><time>2026-05-03T06:53:42.483Z</time></trkpt><trkpt lat="39.0174183" lon="16.1144833"><ele>-1.0</ele><time>2026-05-03T06:53:43.483Z</time></trkpt><trkpt lat="39.0176233" lon="16.1142917"><ele>0.0</ele><time>2026-05-03T06:53:44.484Z</time></trkpt><trkpt lat="39.0178317" lon="16.1141017"><ele>1.0</ele><time>2026-05-03T06:53:45.482Z</time></trkpt><trkpt lat="39.01804" lon="16.1139133"><ele>1.0</ele><time>2026-05-03T06:53:46.483Z</time></trkpt><trkpt lat="39.0182483" lon="16.113725"><ele>1.0</ele><time>2026-05-03T06:53:47.483Z</time></trkpt><trkpt lat="39.0184567" lon="16.113535"><ele>1.0</ele><time>2026-05-03T06:53:48.484Z</time></trkpt><trkpt lat="39.0186633" lon="16.1133417"><ele>1.0</ele><time>2026-05-03T06:53:49.483Z</time></trkpt><trkpt lat="39.0188683" lon="16.1131467"><ele>1.0</ele><time>2026-05-03T06:53:50.484Z</time></trkpt><trkpt lat="39.0190717" lon="16.1129517"><ele>1.0</ele><time>2026-05-03T06:53:51.482Z</time></trkpt><trkpt lat="39.0192767" lon="16.1127583"><ele>1.5</ele><time>2026-05-03T06:53:52.482Z</time></trkpt><trkpt lat="39.019475" lon="16.112565"><ele>2.0</ele><time>2026-05-03T06:53:53.482Z</time></trkpt><trkpt lat="39.0196783" lon="16.1123733"><ele>2.0</ele><time>2026-05-03T06:53:54.482Z</time></trkpt><trkpt lat="39.0198817" lon="16.1121833"><ele>2.0</ele><time>2026-05-03T06:53:55.482Z</time></trkpt><trkpt lat="39.0200867" lon="16.1119917"><ele>1.5</ele><time>2026-05-03T06:53:56.483Z</time></trkpt><trkpt lat="39.0202917" lon="16.1117983"><ele>1.0</ele><time>2026-05-03T06:53:57.483Z</time></trkpt><trkpt lat="39.0205" lon="16.1116033"><ele>1.0</ele><time>2026-05-03T06:53:58.485Z</time></trkpt><trkpt lat="39.0207083" lon="16.11141"><ele>1.0</ele><time>2026-05-03T06:53:59.481Z</time></trkpt><trkpt lat="39.0209167" lon="16.1112133"><ele>1.0</ele><time>2026-05-03T06:54:00.482Z</time></trkpt><trkpt lat="39.0211283" lon="16.111015"><ele>1.0</ele><time>2026-05-03T06:54:01.482Z</time></trkpt><trkpt lat="39.0213417" lon="16.1108133"><ele>1.0</ele><time>2026-05-03T06:54:02.483Z</time></trkpt><trkpt lat="39.0215583" lon="16.11061"><ele>1.0</ele><time>2026-05-03T06:54:03.482Z</time></trkpt><trkpt lat="39.0217767" lon="16.110405"><ele>1.0</ele><time>2026-05-03T06:54:04.481Z</time></trkpt><trkpt lat="39.021995" lon="16.1102"><ele>1.0</ele><time>2026-05-03T06:54:05.481Z</time></trkpt><trkpt lat="39.0222117" lon="16.1099967"><ele>1.5</ele><time>2026-05-03T06:54:06.481Z</time></trkpt><trkpt lat="39.022425" lon="16.109795"><ele>2.0</ele><time>2026-05-03T06:54:07.481Z</time></trkpt><trkpt lat="39.0226367" lon="16.1095933"><ele>2.5</ele><time>2026-05-03T06:54:08.482Z</time></trkpt><trkpt lat="39.0228467" lon="16.1093917"><ele>3.0</ele><time>2026-05-03T06:54:09.481Z</time></trkpt><trkpt lat="39.0230583" lon="16.109195"><ele>2.5</ele><time>2026-05-03T06:54:10.481Z</time></trkpt><trkpt lat="39.0232683" lon="16.1089983"><ele>2.0</ele><time>2026-05-03T06:54:11.48Z</time></trkpt><trkpt lat="39.0234767" lon="16.1088033"><ele>2.0</ele><time>2026-05-03T06:54:12.482Z</time></trkpt><trkpt lat="39.0236817" lon="16.10861"><ele>2.0</ele><time>2026-05-03T06:54:13.481Z</time></trkpt><trkpt lat="39.0238867" lon="16.1084183"><ele>2.0</ele><time>2026-05-03T06:54:14.484Z</time></trkpt><trkpt lat="39.0240883" lon="16.1082317"><ele>2.0</ele><time>2026-05-03T06:54:15.48Z</time></trkpt><trkpt lat="39.0242867" lon="16.1080467"><ele>2.0</ele><time>2026-05-03T06:54:16.482Z</time></trkpt><trkpt lat="39.0244783" lon="16.1078667"><ele>2.0</ele><time>2026-05-03T06:54:17.481Z</time></trkpt><trkpt lat="39.0246683" lon="16.10769"><ele>2.0</ele><time>2026-05-03T06:54:18.482Z</time></trkpt><trkpt lat="39.0248517" lon="16.1075167"><ele>2.0</ele><time>2026-05-03T06:54:19.482Z</time></trkpt><trkpt lat="39.0250317" lon="16.107345"><ele>2.333333333333333</ele><time>2026-05-03T06:54:20.483Z</time></trkpt><trkpt lat="39.02521" lon="16.1071783"><ele>2.6666666666666665</ele><time>2026-05-03T06:54:21.481Z</time></trkpt><trkpt lat="39.02539" lon="16.1070083"><ele>3.0</ele><time>2026-05-03T06:54:22.483Z</time></trkpt><trkpt lat="39.0255717" lon="16.1068383"><ele>3.0</ele><time>2026-05-03T06:54:23.482Z</time></trkpt><trkpt lat="39.0257517" lon="16.10667"><ele>3.0</ele><time>2026-05-03T06:54:24.481Z</time></trkpt><trkpt lat="39.02593" lon="16.1065033"><ele>3.0</ele><time>2026-05-03T06:54:25.48Z</time></trkpt><trkpt lat="39.026105" lon="16.10634"><ele>3.0</ele><time>2026-05-03T06:54:26.482Z</time></trkpt><trkpt lat="39.0262783" lon="16.1061767"><ele>3.0</ele><time>2026-05-03T06:54:27.482Z</time></trkpt><trkpt lat="39.0264517" lon="16.106015"><ele>3.0</ele><time>2026-05-03T06:54:28.482Z</time></trkpt><trkpt lat="39.026625" lon="16.105855"><ele>5.0</ele><time>2026-05-03T06:54:29.48Z</time></trkpt><trkpt lat="39.0267967" lon="16.1056967"><ele>7.0</ele><time>2026-05-03T06:54:30.482Z</time></trkpt><trkpt lat="39.0269683" lon="16.1055383"><ele>9.0</ele><time>2026-05-03T06:54:31.483Z</time></trkpt><trkpt lat="39.0271417" lon="16.1053817"><ele>9.0</ele><time>2026-05-03T06:54:32.481Z</time></trkpt><trkpt lat="39.0273167" lon="16.1052183"><ele>9.0</ele><time>2026-05-03T06:54:33.482Z</time></trkpt><trkpt lat="39.0274967" lon="16.10505"><ele>9.0</ele><time>2026-05-03T06:54:34.482Z</time></trkpt><trkpt lat="39.02768" lon="16.1048783"><ele>8.0</ele><time>2026-05-03T06:54:35.482Z</time></trkpt><trkpt lat="39.0278667" lon="16.104705"><ele>7.0</ele><time>2026-05-03T06:54:36.482Z</time></trkpt><trkpt lat="39.0280567" lon="16.1045283"><ele>7.0</ele><time>2026-05-03T06:54:37.482Z</time></trkpt><trkpt lat="39.02825" lon="16.10435"><ele>7.0</ele><time>2026-05-03T06:54:38.482Z</time></trkpt><trkpt lat="39.0284483" lon="16.1041717"><ele>6.5</ele><time>2026-05-03T06:54:39.481Z</time></trkpt><trkpt lat="39.0286517" lon="16.1039983"><ele>6.0</ele><time>2026-05-03T06:54:40.483Z</time></trkpt><trkpt lat="39.0288633" lon="16.103835"><ele>6.0</ele><time>2026-05-03T06:54:41.481Z</time></trkpt><trkpt lat="39.0290817" lon="16.1036783"><ele>6.0</ele><time>2026-05-03T06:54:42.483Z</time></trkpt><trkpt lat="39.029305" lon="16.10353"><ele>5.5</ele><time>2026-05-03T06:54:43.482Z</time></trkpt><trkpt lat="39.0295367" lon="16.1033917"><ele>5.0</ele><time>2026-05-03T06:54:44.483Z</time></trkpt><trkpt lat="39.0297717" lon="16.1032617"><ele>4.5</ele><time>2026-05-03T06:54:45.481Z</time></trkpt><trkpt lat="39.0300067" lon="16.1031417"><ele>4.0</ele><time>2026-05-03T06:54:46.482Z</time></trkpt><trkpt lat="39.0302417" lon="16.1030317"><ele>4.0</ele><time>2026-05-03T06:54:47.482Z</time></trkpt><trkpt lat="39.0304733" lon="16.1029333"><ele>4.0</ele><time>2026-05-03T06:54:48.483Z</time></trkpt><trkpt lat="39.030705" lon="16.102845"><ele>4.0</ele><time>2026-05-03T06:54:49.482Z</time></trkpt><trkpt lat="39.03093" lon="16.1027683"><ele>4.0</ele><time>2026-05-03T06:54:50.483Z</time></trkpt><trkpt lat="39.0311483" lon="16.1026967"><ele>4.0</ele><time>2026-05-03T06:54:51.48Z</time></trkpt><trkpt lat="39.0313567" lon="16.1026233"><ele>4.0</ele><time>2026-05-03T06:54:52.482Z</time></trkpt><trkpt lat="39.03156" lon="16.1025483"><ele>4.0</ele><time>2026-05-03T06:54:53.481Z</time></trkpt><trkpt lat="39.0317583" lon="16.1024733"><ele>3.333333333333333</ele><time>2026-05-03T06:54:54.482Z</time></trkpt><trkpt lat="39.031955" lon="16.1024"><ele>2.6666666666666665</ele><time>2026-05-03T06:54:55.481Z</time></trkpt><trkpt lat="39.0321517" lon="16.1023267"><ele>2.0</ele><time>2026-05-03T06:54:56.483Z</time></trkpt><trkpt lat="39.0323483" lon="16.1022567"><ele>3.333333333333333</ele><time>2026-05-03T06:54:57.482Z</time></trkpt><trkpt lat="39.032545" lon="16.1021867"><ele>4.666666666666667</ele><time>2026-05-03T06:54:58.482Z</time></trkpt><trkpt lat="39.032745" lon="16.1021167"><ele>6.0</ele><time>2026-05-03T06:54:59.481Z</time></trkpt><trkpt lat="39.0329467" lon="16.1020483"><ele>6.0</ele><time>2026-05-03T06:55:00.481Z</time></trkpt><trkpt lat="39.0331533" lon="16.1019767"><ele>6.0</ele><time>2026-05-03T06:55:01.481Z</time></trkpt><trkpt lat="39.0333633" lon="16.1019017"><ele>6.0</ele><time>2026-05-03T06:55:02.481Z</time></trkpt><trkpt lat="39.0335783" lon="16.1018283"><ele>6.0</ele><time>2026-05-03T06:55:03.482Z</time></trkpt><trkpt lat="39.0337933" lon="16.1017517"><ele>6.0</ele><time>2026-05-03T06:55:04.481Z</time></trkpt><trkpt lat="39.03401" lon="16.101675"><ele>6.0</ele><time>2026-05-03T06:55:05.481Z</time></trkpt><trkpt lat="39.0342283" lon="16.1015983"><ele>5.0</ele><time>2026-05-03T06:55:06.482Z</time></trkpt><trkpt lat="39.0344467" lon="16.10152"><ele>4.0</ele><time>2026-05-03T06:55:07.482Z</time></trkpt><trkpt lat="39.0346667" lon="16.1014433"><ele>4.0</ele><time>2026-05-03T06:55:08.482Z</time></trkpt><trkpt lat="39.0348817" lon="16.1013683"><ele>4.0</ele><time>2026-05-03T06:55:09.481Z</time></trkpt><trkpt lat="39.035095" lon="16.10129"><ele>4.0</ele><time>2026-05-03T06:55:10.481Z</time></trkpt><trkpt lat="39.0353083" lon="16.1012133"><ele>4.333333333333333</ele><time>2026-05-03T06:55:11.481Z</time></trkpt><trkpt lat="39.03552" lon="16.10114"><ele>4.666666666666667</ele><time>2026-05-03T06:55:12.482Z</time></trkpt><trkpt lat="39.0357333" lon="16.101065"><ele>5.0</ele><time>2026-05-03T06:55:13.481Z</time></trkpt><trkpt lat="39.0359517" lon="16.10099"><ele>5.0</ele><time>2026-05-03T06:55:14.482Z</time></trkpt><trkpt lat="39.0361683" lon="16.1009133"><ele>5.0</ele><time>2026-05-03T06:55:15.482Z</time></trkpt><trkpt lat="39.0363883" lon="16.100835"><ele>5.0</ele><time>2026-05-03T06:55:16.482Z</time></trkpt><trkpt lat="39.03661" lon="16.1007567"><ele>5.0</ele><time>2026-05-03T06:55:17.482Z</time></trkpt><trkpt lat="39.03683" lon="16.100675"><ele>5.0</ele><time>2026-05-03T06:55:18.482Z</time></trkpt><trkpt lat="39.0370533" lon="16.1005933"><ele>5.0</ele><time>2026-05-03T06:55:19.48Z</time></trkpt><trkpt lat="39.0372733" lon="16.1005183"><ele>5.0</ele><time>2026-05-03T06:55:20.571Z</time></trkpt><trkpt lat="39.0374867" lon="16.1004433"><ele>5.0</ele><time>2026-05-03T06:55:21.48Z</time></trkpt><trkpt lat="39.037695" lon="16.10037"><ele>5.0</ele><time>2026-05-03T06:55:22.483Z</time></trkpt><trkpt lat="39.0378983" lon="16.1002983"><ele>5.0</ele><time>2026-05-03T06:55:23.481Z</time></trkpt><trkpt lat="39.038095" lon="16.10023"><ele>5.0</ele><time>2026-05-03T06:55:24.482Z</time></trkpt><trkpt lat="39.0382883" lon="16.1001617"><ele>5.0</ele><time>2026-05-03T06:55:25.481Z</time></trkpt><trkpt lat="39.03848" lon="16.1000967"><ele>5.0</ele><time>2026-05-03T06:55:26.482Z</time></trkpt><trkpt lat="39.0386683" lon="16.1000267"><ele>5.0</ele><time>2026-05-03T06:55:27.481Z</time></trkpt><trkpt lat="39.03886" lon="16.0999567"><ele>5.0</ele><time>2026-05-03T06:55:28.481Z</time></trkpt><trkpt lat="39.0390517" lon="16.0998883"><ele>4.666666666666667</ele><time>2026-05-03T06:55:29.481Z</time></trkpt><trkpt lat="39.039245" lon="16.0998217"><ele>4.333333333333333</ele><time>2026-05-03T06:55:30.481Z</time></trkpt><trkpt lat="39.0394383" lon="16.0997533"><ele>4.0</ele><time>2026-05-03T06:55:31.483Z</time></trkpt><trkpt lat="39.0396267" lon="16.0996867"><ele>4.0</ele><time>2026-05-03T06:55:32.481Z</time></trkpt><trkpt lat="39.0398183" lon="16.09962"><ele>4.0</ele><time>2026-05-03T06:55:33.482Z</time></trkpt><trkpt lat="39.0400117" lon="16.0995533"><ele>4.0</ele><time>2026-05-03T06:55:34.481Z</time></trkpt><trkpt lat="39.0402133" lon="16.099485"><ele>3.6666666666666665</ele><time>2026-05-03T06:55:35.481Z</time></trkpt><trkpt lat="39.04042" lon="16.0994133"><ele>3.333333333333333</ele><time>2026-05-03T06:55:36.482Z</time></trkpt><trkpt lat="39.04063" lon="16.099335"><ele>3.0</ele><time>2026-05-03T06:55:37.482Z</time></trkpt><trkpt lat="39.040845" lon="16.0992583"><ele>3.0</ele><time>2026-05-03T06:55:38.483Z</time></trkpt><trkpt lat="39.04107" lon="16.0991817"><ele>3.0</ele><time>2026-05-03T06:55:39.482Z</time></trkpt><trkpt lat="39.0412983" lon="16.0991033"><ele>2.5</ele><time>2026-05-03T06:55:40.481Z</time></trkpt><trkpt lat="39.0415233" lon="16.099025"><ele>2.0</ele><time>2026-05-03T06:55:41.482Z</time></trkpt><trkpt lat="39.0417467" lon="16.0989483"><ele>3.0</ele><time>2026-05-03T06:55:42.48Z</time></trkpt><trkpt lat="39.041965" lon="16.09887"><ele>4.0</ele><time>2026-05-03T06:55:43.483Z</time></trkpt><trkpt lat="39.0421833" lon="16.098795"><ele>4.0</ele><time>2026-05-03T06:55:44.482Z</time></trkpt><trkpt lat="39.0423983" lon="16.0987183"><ele>4.0</ele><time>2026-05-03T06:55:45.48Z</time></trkpt><trkpt lat="39.042615" lon="16.0986417"><ele>4.0</ele><time>2026-05-03T06:55:46.482Z</time></trkpt><trkpt lat="39.0428333" lon="16.0985633"><ele>4.0</ele><time>2026-05-03T06:55:47.482Z</time></trkpt><trkpt lat="39.0430517" lon="16.0984833"><ele>4.0</ele><time>2026-05-03T06:55:48.482Z</time></trkpt><trkpt lat="39.0432733" lon="16.098405"><ele>4.0</ele><time>2026-05-03T06:55:49.482Z</time></trkpt><trkpt lat="39.0434933" lon="16.098325"><ele>4.0</ele><time>2026-05-03T06:55:50.483Z</time></trkpt><trkpt lat="39.0437133" lon="16.0982433"><ele>3.5</ele><time>2026-05-03T06:55:51.482Z</time></trkpt><trkpt lat="39.043935" lon="16.09816"><ele>3.0</ele><time>2026-05-03T06:55:52.48Z</time></trkpt><trkpt lat="39.0441567" lon="16.0980783"><ele>3.0</ele><time>2026-05-03T06:55:53.482Z</time></trkpt><trkpt lat="39.0443767" lon="16.0979983"><ele>3.0</ele><time>2026-05-03T06:55:54.482Z</time></trkpt><trkpt lat="39.044595" lon="16.0979217"><ele>3.0</ele><time>2026-05-03T06:55:55.482Z</time></trkpt><trkpt lat="39.044815" lon="16.097845"><ele>3.0</ele><time>2026-05-03T06:55:56.481Z</time></trkpt><trkpt lat="39.0450317" lon="16.0977667"><ele>3.0</ele><time>2026-05-03T06:55:57.482Z</time></trkpt><trkpt lat="39.0452467" lon="16.09769"><ele>3.0</ele><time>2026-05-03T06:55:58.481Z</time></trkpt><trkpt lat="39.04546" lon="16.097615"><ele>3.0</ele><time>2026-05-03T06:55:59.482Z</time></trkpt><trkpt lat="39.0456733" lon="16.0975417"><ele>3.0</ele><time>2026-05-03T06:56:00.481Z</time></trkpt><trkpt lat="39.0458833" lon="16.097465"><ele>3.0</ele><time>2026-05-03T06:56:01.482Z</time></trkpt><trkpt lat="39.0460933" lon="16.09739"><ele>3.0</ele><time>2026-05-03T06:56:02.485Z</time></trkpt><trkpt lat="39.046305" lon="16.097315"><ele>3.0</ele><time>2026-05-03T06:56:03.483Z</time></trkpt><trkpt lat="39.0465183" lon="16.0972417"><ele>3.0</ele><time>2026-05-03T06:56:04.483Z</time></trkpt><trkpt lat="39.0467333" lon="16.0971683"><ele>3.0</ele><time>2026-05-03T06:56:05.482Z</time></trkpt><trkpt lat="39.0469483" lon="16.09709"><ele>3.5</ele><time>2026-05-03T06:56:06.482Z</time></trkpt><trkpt lat="39.0471667" lon="16.0970117"><ele>4.0</ele><time>2026-05-03T06:56:07.481Z</time></trkpt><trkpt lat="39.0473883" lon="16.0969333"><ele>3.5</ele><time>2026-05-03T06:56:08.483Z</time></trkpt><trkpt lat="39.0476117" lon="16.096855"><ele>3.0</ele><time>2026-05-03T06:56:09.482Z</time></trkpt><trkpt lat="39.047835" lon="16.0967767"><ele>3.0</ele><time>2026-05-03T06:56:10.482Z</time></trkpt><trkpt lat="39.04806" lon="16.0966983"><ele>3.0</ele><time>2026-05-03T06:56:11.484Z</time></trkpt><trkpt lat="39.0482833" lon="16.0966183"><ele>3.0</ele><time>2026-05-03T06:56:12.482Z</time></trkpt><trkpt lat="39.0485083" lon="16.0965367"><ele>3.0</ele><time>2026-05-03T06:56:13.485Z</time></trkpt><trkpt lat="39.0487333" lon="16.096455"><ele>3.0</ele><time>2026-05-03T06:56:14.483Z</time></trkpt><trkpt lat="39.04896" lon="16.0963733"><ele>3.0</ele><time>2026-05-03T06:56:15.482Z</time></trkpt><trkpt lat="39.0491867" lon="16.0962917"><ele>3.0</ele><time>2026-05-03T06:56:16.485Z</time></trkpt><trkpt lat="39.0494133" lon="16.09621"><ele>3.0</ele><time>2026-05-03T06:56:17.482Z</time></trkpt><trkpt lat="39.0496433" lon="16.0961267"><ele>3.0</ele><time>2026-05-03T06:56:18.481Z</time></trkpt><trkpt lat="39.0498717" lon="16.0960467"><ele>3.0</ele><time>2026-05-03T06:56:19.483Z</time></trkpt><trkpt lat="39.0500967" lon="16.0959667"><ele>3.333333333333333</ele><time>2026-05-03T06:56:20.482Z</time></trkpt><trkpt lat="39.050315" lon="16.09589"><ele>3.6666666666666665</ele><time>2026-05-03T06:56:21.481Z</time></trkpt><trkpt lat="39.0505217" lon="16.0958183"><ele>4.0</ele><time>2026-05-03T06:56:22.481Z</time></trkpt><trkpt lat="39.0507183" lon="16.0957517"><ele>3.6666666666666665</ele><time>2026-05-03T06:56:23.482Z</time></trkpt><trkpt lat="39.0509067" lon="16.095685"><ele>3.333333333333333</ele><time>2026-05-03T06:56:24.482Z</time></trkpt><trkpt lat="39.0510933" lon="16.0956217"><ele>3.0</ele><time>2026-05-03T06:56:25.481Z</time></trkpt><trkpt lat="39.0512783" lon="16.0955567"><ele>3.0</ele><time>2026-05-03T06:56:26.481Z</time></trkpt><trkpt lat="39.0514617" lon="16.09549"><ele>3.0</ele><time>2026-05-03T06:56:27.482Z</time></trkpt><trkpt lat="39.0516467" lon="16.095425"><ele>3.0</ele><time>2026-05-03T06:56:28.48Z</time></trkpt><trkpt lat="39.0518333" lon="16.09536"><ele>3.333333333333333</ele><time>2026-05-03T06:56:29.482Z</time></trkpt><trkpt lat="39.052015" lon="16.095295"><ele>3.6666666666666665</ele><time>2026-05-03T06:56:30.482Z</time></trkpt><trkpt lat="39.0522017" lon="16.0952267"><ele>4.0</ele><time>2026-05-03T06:56:31.481Z</time></trkpt><trkpt lat="39.052395" lon="16.09516"><ele>3.6666666666666665</ele><time>2026-05-03T06:56:32.482Z</time></trkpt><trkpt lat="39.0525867" lon="16.0950917"><ele>3.333333333333333</ele><time>2026-05-03T06:56:33.482Z</time></trkpt><trkpt lat="39.0527817" lon="16.09502"><ele>3.0</ele><time>2026-05-03T06:56:34.48Z</time></trkpt><trkpt lat="39.0529833" lon="16.0949483"><ele>2.6666666666666665</ele><time>2026-05-03T06:56:35.482Z</time></trkpt><trkpt lat="39.0531883" lon="16.0948733"><ele>2.333333333333333</ele><time>2026-05-03T06:56:36.482Z</time></trkpt><trkpt lat="39.0534017" lon="16.0947967"><ele>2.0</ele><time>2026-05-03T06:56:37.481Z</time></trkpt><trkpt lat="39.0536183" lon="16.09472"><ele>2.0</ele><time>2026-05-03T06:56:38.482Z</time></trkpt><trkpt lat="39.05384" lon="16.0946417"><ele>2.0</ele><time>2026-05-03T06:56:39.481Z</time></trkpt><trkpt lat="39.054075" lon="16.0945617"><ele>2.0</ele><time>2026-05-03T06:56:40.481Z</time></trkpt><trkpt lat="39.0543183" lon="16.0944783"><ele>2.0</ele><time>2026-05-03T06:56:41.481Z</time></trkpt><trkpt lat="39.0545583" lon="16.094395"><ele>2.0</ele><time>2026-05-03T06:56:42.482Z</time></trkpt><trkpt lat="39.0548" lon="16.0943083"><ele>2.0</ele><time>2026-05-03T06:56:43.481Z</time></trkpt><trkpt lat="39.0550417" lon="16.0942183"><ele>3.0</ele><time>2026-05-03T06:56:44.483Z</time></trkpt><trkpt lat="39.0552833" lon="16.0941333"><ele>4.0</ele><time>2026-05-03T06:56:45.481Z</time></trkpt><trkpt lat="39.0555217" lon="16.09405"><ele>2.5</ele><time>2026-05-03T06:56:46.482Z</time></trkpt><trkpt lat="39.0557567" lon="16.093965"><ele>1.0</ele><time>2026-05-03T06:56:47.483Z</time></trkpt><trkpt lat="39.0559883" lon="16.0938817"><ele>1.0</ele><time>2026-05-03T06:56:48.482Z</time></trkpt><trkpt lat="39.0562183" lon="16.0938017"><ele>1.0</ele><time>2026-05-03T06:56:49.481Z</time></trkpt><trkpt lat="39.0564433" lon="16.0937217"><ele>1.5</ele><time>2026-05-03T06:56:50.482Z</time></trkpt><trkpt lat="39.0566667" lon="16.09364"><ele>2.0</ele><time>2026-05-03T06:56:51.483Z</time></trkpt><trkpt lat="39.0568867" lon="16.0935583"><ele>2.0</ele><time>2026-05-03T06:56:52.481Z</time></trkpt><trkpt lat="39.0571083" lon="16.09348"><ele>2.0</ele><time>2026-05-03T06:56:53.482Z</time></trkpt><trkpt lat="39.05733" lon="16.0934033"><ele>3.0</ele><time>2026-05-03T06:56:54.482Z</time></trkpt><trkpt lat="39.0575533" lon="16.093325"><ele>4.0</ele><time>2026-05-03T06:56:55.481Z</time></trkpt><trkpt lat="39.05778" lon="16.0932467"><ele>2.0</ele><time>2026-05-03T06:56:56.481Z</time></trkpt><trkpt lat="39.058005" lon="16.0931667"><ele>0.0</ele><time>2026-05-03T06:56:57.482Z</time></trkpt><trkpt lat="39.0582317" lon="16.093085"><ele>0.5</ele><time>2026-05-03T06:56:58.48Z</time></trkpt><trkpt lat="39.05846" lon="16.0930033"><ele>1.0</ele><time>2026-05-03T06:56:59.48Z</time></trkpt><trkpt lat="39.05869" lon="16.09292"><ele>1.0</ele><time>2026-05-03T06:57:00.482Z</time></trkpt><trkpt lat="39.0589217" lon="16.09284"><ele>1.0</ele><time>2026-05-03T06:57:01.482Z</time></trkpt><trkpt lat="39.0591533" lon="16.092755"><ele>1.5</ele><time>2026-05-03T06:57:02.482Z</time></trkpt><trkpt lat="39.059385" lon="16.0926733"><ele>2.0</ele><time>2026-05-03T06:57:03.481Z</time></trkpt><trkpt lat="39.05962" lon="16.0925933"><ele>2.0</ele><time>2026-05-03T06:57:04.482Z</time></trkpt><trkpt lat="39.059855" lon="16.0925133"><ele>2.0</ele><time>2026-05-03T06:57:05.482Z</time></trkpt><trkpt lat="39.06009" lon="16.0924317"><ele>1.0</ele><time>2026-05-03T06:57:06.482Z</time></trkpt><trkpt lat="39.060325" lon="16.0923467"><ele>0.0</ele><time>2026-05-03T06:57:07.482Z</time></trkpt><trkpt lat="39.0605617" lon="16.0922617"><ele>1.0</ele><time>2026-05-03T06:57:08.483Z</time></trkpt><trkpt lat="39.0608" lon="16.092175"><ele>2.0</ele><time>2026-05-03T06:57:09.482Z</time></trkpt><trkpt lat="39.0610417" lon="16.0920867"><ele>2.0</ele><time>2026-05-03T06:57:10.483Z</time></trkpt><trkpt lat="39.0612867" lon="16.092"><ele>2.0</ele><time>2026-05-03T06:57:11.481Z</time></trkpt><trkpt lat="39.0615317" lon="16.091915"><ele>3.0</ele><time>2026-05-03T06:57:12.482Z</time></trkpt><trkpt lat="39.06178" lon="16.0918267"><ele>4.0</ele><time>2026-05-03T06:57:13.481Z</time></trkpt><trkpt lat="39.062025" lon="16.0917383"><ele>4.0</ele><time>2026-05-03T06:57:14.483Z</time></trkpt><trkpt lat="39.0622567" lon="16.0916533"><ele>4.0</ele><time>2026-05-03T06:57:15.481Z</time></trkpt><trkpt lat="39.0624733" lon="16.091575"><ele>2.6666666666666665</ele><time>2026-05-03T06:57:16.481Z</time></trkpt><trkpt lat="39.06268" lon="16.0915017"><ele>1.3333333333333333</ele><time>2026-05-03T06:57:17.483Z</time></trkpt><trkpt lat="39.06288" lon="16.0914317"><ele>0.0</ele><time>2026-05-03T06:57:18.481Z</time></trkpt><trkpt lat="39.063085" lon="16.09136"><ele>0.3333333333333333</ele><time>2026-05-03T06:57:19.482Z</time></trkpt><trkpt lat="39.063295" lon="16.0912833"><ele>0.6666666666666666</ele><time>2026-05-03T06:57:20.482Z</time></trkpt><trkpt lat="39.0635133" lon="16.0912067"><ele>1.0</ele><time>2026-05-03T06:57:21.481Z</time></trkpt><trkpt lat="39.0637333" lon="16.09113"><ele>1.0</ele><time>2026-05-03T06:57:22.482Z</time></trkpt><trkpt lat="39.0639583" lon="16.09105"><ele>1.0</ele><time>2026-05-03T06:57:23.48Z</time></trkpt><trkpt lat="39.0641867" lon="16.0909733"><ele>1.5</ele><time>2026-05-03T06:57:24.481Z</time></trkpt><trkpt lat="39.0644167" lon="16.0909167"><ele>2.0</ele><time>2026-05-03T06:57:25.481Z</time></trkpt><trkpt lat="39.0646467" lon="16.0908967"><ele>2.0</ele><time>2026-05-03T06:57:26.481Z</time></trkpt><trkpt lat="39.0648783" lon="16.090915"><ele>2.0</ele><time>2026-05-03T06:57:27.482Z</time></trkpt><trkpt lat="39.0651" lon="16.0909733"><ele>2.0</ele><time>2026-05-03T06:57:28.481Z</time></trkpt><trkpt lat="39.065305" lon="16.09106"><ele>2.0</ele><time>2026-05-03T06:57:29.48Z</time></trkpt><trkpt lat="39.065495" lon="16.0911783"><ele>2.0</ele><time>2026-05-03T06:57:30.483Z</time></trkpt><trkpt lat="39.0656817" lon="16.0913167"><ele>2.333333333333333</ele><time>2026-05-03T06:57:31.481Z</time></trkpt><trkpt lat="39.0658617" lon="16.0914583"><ele>2.6666666666666665</ele><time>2026-05-03T06:57:32.482Z</time></trkpt><trkpt lat="39.0660367" lon="16.091595"><ele>3.0</ele><time>2026-05-03T06:57:33.481Z</time></trkpt><trkpt lat="39.0662033" lon="16.0917233"><ele>5.333333333333334</ele><time>2026-05-03T06:57:34.482Z</time></trkpt><trkpt lat="39.0663617" lon="16.0918433"><ele>7.666666666666667</ele><time>2026-05-03T06:57:35.481Z</time></trkpt><trkpt lat="39.0665133" lon="16.0919583"><ele>10.0</ele><time>2026-05-03T06:57:36.482Z</time></trkpt><trkpt lat="39.066655" lon="16.0920717"><ele>10.333333333333334</ele><time>2026-05-03T06:57:37.481Z</time></trkpt><trkpt lat="39.0667917" lon="16.0921767"><ele>10.666666666666666</ele><time>2026-05-03T06:57:38.481Z</time></trkpt><trkpt lat="39.0669233" lon="16.0922767"><ele>11.0</ele><time>2026-05-03T06:57:39.481Z</time></trkpt><trkpt lat="39.0670517" lon="16.092365"><ele>12.5</ele><time>2026-05-03T06:57:40.481Z</time></trkpt><trkpt lat="39.0671733" lon="16.0924383"><ele>14.0</ele><time>2026-05-03T06:57:41.482Z</time></trkpt><trkpt lat="39.067295" lon="16.0924917"><ele>15.5</ele><time>2026-05-03T06:57:42.481Z</time></trkpt><trkpt lat="39.067425" lon="16.0925267"><ele>17.0</ele><time>2026-05-03T06:57:43.482Z</time></trkpt><trkpt lat="39.0675617" lon="16.092535"><ele>17.0</ele><time>2026-05-03T06:57:44.483Z</time></trkpt><trkpt lat="39.0677067" lon="16.0925167"><ele>17.0</ele><time>2026-05-03T06:57:45.481Z</time></trkpt><trkpt lat="39.067865" lon="16.0924683"><ele>17.0</ele><time>2026-05-03T06:57:46.481Z</time></trkpt><trkpt lat="39.0680383" lon="16.0924083"><ele>15.333333333333334</ele><time>2026-05-03T06:57:47.483Z</time></trkpt><trkpt lat="39.0682183" lon="16.0923517"><ele>13.666666666666668</ele><time>2026-05-03T06:57:48.481Z</time></trkpt><trkpt lat="39.0683983" lon="16.0923017"><ele>12.0</ele><time>2026-05-03T06:57:49.482Z</time></trkpt><trkpt lat="39.06857" lon="16.0922517"><ele>12.0</ele><time>2026-05-03T06:57:50.482Z</time></trkpt><trkpt lat="39.0687367" lon="16.0922017"><ele>12.0</ele><time>2026-05-03T06:57:51.481Z</time></trkpt><trkpt lat="39.0689017" lon="16.0921567"><ele>12.0</ele><time>2026-05-03T06:57:52.482Z</time></trkpt><trkpt lat="39.0690683" lon="16.09212"><ele>12.0</ele><time>2026-05-03T06:57:53.48Z</time></trkpt><trkpt lat="39.069235" lon="16.0920933"><ele>12.0</ele><time>2026-05-03T06:57:54.482Z</time></trkpt><trkpt lat="39.069405" lon="16.0920733"><ele>12.0</ele><time>2026-05-03T06:57:55.482Z</time></trkpt><trkpt lat="39.06957" lon="16.0920517"><ele>12.0</ele><time>2026-05-03T06:57:56.482Z</time></trkpt><trkpt lat="39.0697317" lon="16.0920317"><ele>12.0</ele><time>2026-05-03T06:57:57.48Z</time></trkpt><trkpt lat="39.0698917" lon="16.0920117"><ele>12.0</ele><time>2026-05-03T06:57:58.482Z</time></trkpt><trkpt lat="39.070055" lon="16.0919917"><ele>12.0</ele><time>2026-05-03T06:57:59.481Z</time></trkpt><trkpt lat="39.0702217" lon="16.0919717"><ele>12.0</ele><time>2026-05-03T06:58:00.481Z</time></trkpt><trkpt lat="39.0703883" lon="16.0919517"><ele>12.0</ele><time>2026-05-03T06:58:01.479Z</time></trkpt><trkpt lat="39.0705533" lon="16.0919317"><ele>12.0</ele><time>2026-05-03T06:58:02.482Z</time></trkpt><trkpt lat="39.0707133" lon="16.0919133"><ele>12.0</ele><time>2026-05-03T06:58:03.482Z</time></trkpt><trkpt lat="39.0708633" lon="16.0918983"><ele>12.0</ele><time>2026-05-03T06:58:04.482Z</time></trkpt><trkpt lat="39.071" lon="16.09188"><ele>12.0</ele><time>2026-05-03T06:58:05.481Z</time></trkpt><trkpt lat="39.0711217" lon="16.0918617"><ele>12.0</ele><time>2026-05-03T06:58:06.482Z</time></trkpt><trkpt lat="39.07123" lon="16.09185"><ele>12.0</ele><time>2026-05-03T06:58:07.481Z</time></trkpt><trkpt lat="39.0713167" lon="16.0918417"><ele>12.0</ele><time>2026-05-03T06:58:08.481Z</time></trkpt><trkpt lat="39.071385" lon="16.0918333"><ele>12.0</ele><time>2026-05-03T06:58:09.482Z</time></trkpt><trkpt lat="39.0714567" lon="16.0918117"><ele>12.0</ele><time>2026-05-03T06:58:11.482Z</time></trkpt><trkpt lat="39.0714983" lon="16.0917183"><ele>12.0</ele><time>2026-05-03T06:58:24.481Z</time></trkpt><trkpt lat="39.0715183" lon="16.0916283"><ele>12.0</ele><time>2026-05-03T06:58:27.481Z</time></trkpt><trkpt lat="39.07145" lon="16.0916233"><ele>12.0</ele><time>2026-05-03T07:11:19.482Z</time></trkpt><trkpt lat="39.0714833" lon="16.0917033"><ele>12.0</ele><time>2026-05-03T07:11:22.484Z</time></trkpt><trkpt lat="39.0715417" lon="16.0917367"><ele>12.0</ele><time>2026-05-03T07:11:24.483Z</time></trkpt><trkpt lat="39.0716817" lon="16.091745"><ele>12.0</ele><time>2026-05-03T07:11:26.483Z</time></trkpt><trkpt lat="39.07178" lon="16.0917383"><ele>12.0</ele><time>2026-05-03T07:11:27.482Z</time></trkpt><trkpt lat="39.071875" lon="16.0917267"><ele>11.833333333333334</ele><time>2026-05-03T07:11:28.482Z</time></trkpt><trkpt lat="39.0719683" lon="16.0917117"><ele>11.666666666666666</ele><time>2026-05-03T07:11:29.482Z</time></trkpt><trkpt lat="39.0720483" lon="16.0916917"><ele>11.5</ele><time>2026-05-03T07:11:30.481Z</time></trkpt><trkpt lat="39.0721283" lon="16.0916817"><ele>11.333333333333332</ele><time>2026-05-03T07:11:31.483Z</time></trkpt><trkpt lat="39.072215" lon="16.091675"><ele>11.166666666666666</ele><time>2026-05-03T07:11:32.482Z</time></trkpt><trkpt lat="39.07231" lon="16.09166"><ele>11.0</ele><time>2026-05-03T07:11:33.482Z</time></trkpt><trkpt lat="39.07241" lon="16.0916417"><ele>11.5</ele><time>2026-05-03T07:11:34.482Z</time></trkpt><trkpt lat="39.0725217" lon="16.0916267"><ele>12.0</ele><time>2026-05-03T07:11:35.483Z</time></trkpt><trkpt lat="39.072645" lon="16.0916"><ele>12.5</ele><time>2026-05-03T07:11:36.482Z</time></trkpt><trkpt lat="39.0727817" lon="16.0915667"><ele>13.0</ele><time>2026-05-03T07:11:37.482Z</time></trkpt><trkpt lat="39.072925" lon="16.0915217"><ele>11.333333333333332</ele><time>2026-05-03T07:11:38.484Z</time></trkpt><trkpt lat="39.07307" lon="16.0914683"><ele>9.666666666666666</ele><time>2026-05-03T07:11:39.483Z</time></trkpt><trkpt lat="39.0732133" lon="16.0914133"><ele>8.0</ele><time>2026-05-03T07:11:40.483Z</time></trkpt><trkpt lat="39.0733567" lon="16.0913483"><ele>7.666666666666666</ele><time>2026-05-03T07:11:41.483Z</time></trkpt><trkpt lat="39.0735017" lon="16.09128"><ele>7.333333333333334</ele><time>2026-05-03T07:11:42.482Z</time></trkpt><trkpt lat="39.0736467" lon="16.0912083"><ele>7.0</ele><time>2026-05-03T07:11:43.483Z</time></trkpt><trkpt lat="39.07379" lon="16.0911367"><ele>7.0</ele><time>2026-05-03T07:11:44.481Z</time></trkpt><trkpt lat="39.073935" lon="16.0910683"><ele>7.0</ele><time>2026-05-03T07:11:45.483Z</time></trkpt><trkpt lat="39.0740783" lon="16.0909983"><ele>7.0</ele><time>2026-05-03T07:11:46.481Z</time></trkpt><trkpt lat="39.0742217" lon="16.09093"><ele>7.0</ele><time>2026-05-03T07:11:47.483Z</time></trkpt><trkpt lat="39.0743617" lon="16.0908617"><ele>7.0</ele><time>2026-05-03T07:11:48.481Z</time></trkpt><trkpt lat="39.0745033" lon="16.0907967"><ele>7.0</ele><time>2026-05-03T07:11:49.482Z</time></trkpt><trkpt lat="39.0746433" lon="16.0907317"><ele>7.0</ele><time>2026-05-03T07:11:50.483Z</time></trkpt><trkpt lat="39.074785" lon="16.0906617"><ele>6.0</ele><time>2026-05-03T07:11:51.481Z</time></trkpt><trkpt lat="39.07493" lon="16.0905917"><ele>5.0</ele><time>2026-05-03T07:11:52.481Z</time></trkpt><trkpt lat="39.07508" lon="16.09052"><ele>4.0</ele><time>2026-05-03T07:11:53.484Z</time></trkpt><trkpt lat="39.0752367" lon="16.090445"><ele>6.333333333333333</ele><time>2026-05-03T07:11:54.483Z</time></trkpt><trkpt lat="39.0754" lon="16.0903717"><ele>8.666666666666666</ele><time>2026-05-03T07:11:55.482Z</time></trkpt><trkpt lat="39.0755733" lon="16.0902967"><ele>11.0</ele><time>2026-05-03T07:11:56.483Z</time></trkpt><trkpt lat="39.0757517" lon="16.09021"><ele>10.333333333333332</ele><time>2026-05-03T07:11:57.483Z</time></trkpt><trkpt lat="39.0759333" lon="16.0901233"><ele>9.666666666666666</ele><time>2026-05-03T07:11:58.481Z</time></trkpt><trkpt lat="39.0761133" lon="16.0900433"><ele>9.0</ele><time>2026-05-03T07:11:59.482Z</time></trkpt><trkpt lat="39.0762867" lon="16.0899583"><ele>8.666666666666666</ele><time>2026-05-03T07:12:00.482Z</time></trkpt><trkpt lat="39.07646" lon="16.0898817"><ele>8.333333333333332</ele><time>2026-05-03T07:12:01.483Z</time></trkpt><trkpt lat="39.0766317" lon="16.0897967"><ele>8.0</ele><time>2026-05-03T07:12:02.482Z</time></trkpt><trkpt lat="39.076805" lon="16.089715"><ele>8.0</ele><time>2026-05-03T07:12:03.483Z</time></trkpt><trkpt lat="39.07698" lon="16.0896283"><ele>8.0</ele><time>2026-05-03T07:12:04.482Z</time></trkpt><trkpt lat="39.0771583" lon="16.089545"><ele>8.0</ele><time>2026-05-03T07:12:05.483Z</time></trkpt><trkpt lat="39.0773333" lon="16.0894617"><ele>7.666666666666666</ele><time>2026-05-03T07:12:06.483Z</time></trkpt><trkpt lat="39.0775067" lon="16.0893783"><ele>7.333333333333334</ele><time>2026-05-03T07:12:07.482Z</time></trkpt><trkpt lat="39.0776783" lon="16.089295"><ele>7.0</ele><time>2026-05-03T07:12:08.482Z</time></trkpt><trkpt lat="39.077845" lon="16.089215"><ele>7.0</ele><time>2026-05-03T07:12:09.482Z</time></trkpt><trkpt lat="39.07801" lon="16.0891383"><ele>7.0</ele><time>2026-05-03T07:12:10.482Z</time></trkpt><trkpt lat="39.0781733" lon="16.0890633"><ele>7.0</ele><time>2026-05-03T07:12:11.482Z</time></trkpt><trkpt lat="39.0783367" lon="16.0889867"><ele>7.666666666666667</ele><time>2026-05-03T07:12:12.482Z</time></trkpt><trkpt lat="39.0785033" lon="16.0889117"><ele>8.333333333333334</ele><time>2026-05-03T07:12:13.481Z</time></trkpt><trkpt lat="39.0786717" lon="16.0888333"><ele>9.0</ele><time>2026-05-03T07:12:14.483Z</time></trkpt><trkpt lat="39.0788433" lon="16.0887567"><ele>9.0</ele><time>2026-05-03T07:12:15.481Z</time></trkpt><trkpt lat="39.0790117" lon="16.0886767"><ele>9.0</ele><time>2026-05-03T07:12:16.483Z</time></trkpt><trkpt lat="39.0791833" lon="16.0885917"><ele>9.0</ele><time>2026-05-03T07:12:17.483Z</time></trkpt><trkpt lat="39.0793533" lon="16.0885133"><ele>8.666666666666666</ele><time>2026-05-03T07:12:18.483Z</time></trkpt><trkpt lat="39.07952" lon="16.0884317"><ele>8.333333333333332</ele><time>2026-05-03T07:12:19.482Z</time></trkpt><trkpt lat="39.0796817" lon="16.0883517"><ele>8.0</ele><time>2026-05-03T07:12:20.483Z</time></trkpt><trkpt lat="39.07985" lon="16.0882767"><ele>7.333333333333333</ele><time>2026-05-03T07:12:21.481Z</time></trkpt><trkpt lat="39.0800183" lon="16.088205"><ele>6.666666666666666</ele><time>2026-05-03T07:12:22.483Z</time></trkpt><trkpt lat="39.08019" lon="16.0881267"><ele>6.0</ele><time>2026-05-03T07:12:23.485Z</time></trkpt><trkpt lat="39.0803633" lon="16.0880517"><ele>6.0</ele><time>2026-05-03T07:12:24.483Z</time></trkpt><trkpt lat="39.0805417" lon="16.0879783"><ele>6.0</ele><time>2026-05-03T07:12:25.483Z</time></trkpt><trkpt lat="39.08072" lon="16.0879167"><ele>6.0</ele><time>2026-05-03T07:12:26.481Z</time></trkpt><trkpt lat="39.0808983" lon="16.0878517"><ele>6.333333333333334</ele><time>2026-05-03T07:12:27.482Z</time></trkpt><trkpt lat="39.08108" lon="16.0877967"><ele>6.666666666666667</ele><time>2026-05-03T07:12:28.481Z</time></trkpt><trkpt lat="39.08126" lon="16.0877483"><ele>7.0</ele><time>2026-05-03T07:12:29.482Z</time></trkpt><trkpt lat="39.0814333" lon="16.0877067"><ele>7.0</ele><time>2026-05-03T07:12:30.481Z</time></trkpt><trkpt lat="39.0815967" lon="16.0876683"><ele>7.0</ele><time>2026-05-03T07:12:31.483Z</time></trkpt><trkpt lat="39.0817617" lon="16.08763"><ele>7.0</ele><time>2026-05-03T07:12:32.482Z</time></trkpt><trkpt lat="39.081925" lon="16.08759"><ele>7.0</ele><time>2026-05-03T07:12:33.483Z</time></trkpt><trkpt lat="39.08209" lon="16.0875417"><ele>7.0</ele><time>2026-05-03T07:12:34.483Z</time></trkpt><trkpt lat="39.08226" lon="16.087495"><ele>7.0</ele><time>2026-05-03T07:12:35.483Z</time></trkpt><trkpt lat="39.082435" lon="16.0874483"><ele>7.0</ele><time>2026-05-03T07:12:36.482Z</time></trkpt><trkpt lat="39.0826117" lon="16.0874"><ele>7.0</ele><time>2026-05-03T07:12:37.483Z</time></trkpt><trkpt lat="39.08278" lon="16.0873517"><ele>7.0</ele><time>2026-05-03T07:12:38.482Z</time></trkpt><trkpt lat="39.0829467" lon="16.0873"><ele>7.0</ele><time>2026-05-03T07:12:39.481Z</time></trkpt><trkpt lat="39.0831083" lon="16.0872483"><ele>7.0</ele><time>2026-05-03T07:12:40.482Z</time></trkpt><trkpt lat="39.0832683" lon="16.087205"><ele>7.0</ele><time>2026-05-03T07:12:41.483Z</time></trkpt><trkpt lat="39.08343" lon="16.0871667"><ele>7.0</ele><time>2026-05-03T07:12:42.482Z</time></trkpt><trkpt lat="39.0835883" lon="16.0871233"><ele>7.0</ele><time>2026-05-03T07:12:43.483Z</time></trkpt><trkpt lat="39.0837517" lon="16.087075"><ele>7.0</ele><time>2026-05-03T07:12:44.483Z</time></trkpt><trkpt lat="39.08392" lon="16.0870317"><ele>7.666666666666667</ele><time>2026-05-03T07:12:45.482Z</time></trkpt><trkpt lat="39.0841" lon="16.086985"><ele>8.333333333333334</ele><time>2026-05-03T07:12:46.484Z</time></trkpt><trkpt lat="39.0842883" lon="16.08694"><ele>9.0</ele><time>2026-05-03T07:12:47.482Z</time></trkpt><trkpt lat="39.0844833" lon="16.0868967"><ele>9.0</ele><time>2026-05-03T07:12:48.482Z</time></trkpt><trkpt lat="39.0846783" lon="16.0868417"><ele>9.0</ele><time>2026-05-03T07:12:49.483Z</time></trkpt><trkpt lat="39.08487" lon="16.0867967"><ele>9.0</ele><time>2026-05-03T07:12:50.484Z</time></trkpt><trkpt lat="39.0850567" lon="16.08676"><ele>8.333333333333334</ele><time>2026-05-03T07:12:51.482Z</time></trkpt><trkpt lat="39.08524" lon="16.0867167"><ele>7.666666666666667</ele><time>2026-05-03T07:12:52.482Z</time></trkpt><trkpt lat="39.0854217" lon="16.0866717"><ele>7.0</ele><time>2026-05-03T07:12:53.482Z</time></trkpt><trkpt lat="39.0856017" lon="16.08662"><ele>6.0</ele><time>2026-05-03T07:12:54.482Z</time></trkpt><trkpt lat="39.0857833" lon="16.086565"><ele>5.0</ele><time>2026-05-03T07:12:55.483Z</time></trkpt><trkpt lat="39.085965" lon="16.08651"><ele>4.0</ele><time>2026-05-03T07:12:56.484Z</time></trkpt><trkpt lat="39.08615" lon="16.086455"><ele>4.0</ele><time>2026-05-03T07:12:57.482Z</time></trkpt><trkpt lat="39.086335" lon="16.0863967"><ele>4.0</ele><time>2026-05-03T07:12:58.482Z</time></trkpt><trkpt lat="39.0865183" lon="16.0863367"><ele>4.0</ele><time>2026-05-03T07:12:59.482Z</time></trkpt><trkpt lat="39.086695" lon="16.0862883"><ele>5.333333333333333</ele><time>2026-05-03T07:13:00.482Z</time></trkpt><trkpt lat="39.0868717" lon="16.0862383"><ele>6.666666666666666</ele><time>2026-05-03T07:13:01.483Z</time></trkpt><trkpt lat="39.0870483" lon="16.08619"><ele>8.0</ele><time>2026-05-03T07:13:02.483Z</time></trkpt><trkpt lat="39.0872217" lon="16.08614"><ele>8.0</ele><time>2026-05-03T07:13:03.482Z</time></trkpt><trkpt lat="39.0873917" lon="16.0860933"><ele>8.0</ele><time>2026-05-03T07:13:04.484Z</time></trkpt><trkpt lat="39.08756" lon="16.0860483"><ele>8.0</ele><time>2026-05-03T07:13:05.483Z</time></trkpt><trkpt lat="39.0877333" lon="16.0860033"><ele>8.0</ele><time>2026-05-03T07:13:06.482Z</time></trkpt><trkpt lat="39.087905" lon="16.0859533"><ele>8.0</ele><time>2026-05-03T07:13:07.482Z</time></trkpt><trkpt lat="39.0880833" lon="16.085905"><ele>8.0</ele><time>2026-05-03T07:13:08.484Z</time></trkpt><trkpt lat="39.0882583" lon="16.0858567"><ele>9.333333333333332</ele><time>2026-05-03T07:13:09.483Z</time></trkpt><trkpt lat="39.0884317" lon="16.0858083"><ele>10.666666666666666</ele><time>2026-05-03T07:13:10.487Z</time></trkpt><trkpt lat="39.0886033" lon="16.085765"><ele>12.0</ele><time>2026-05-03T07:13:11.481Z</time></trkpt><trkpt lat="39.0887783" lon="16.0857233"><ele>9.666666666666666</ele><time>2026-05-03T07:13:12.482Z</time></trkpt><trkpt lat="39.088955" lon="16.0856783"><ele>7.333333333333334</ele><time>2026-05-03T07:13:13.481Z</time></trkpt><trkpt lat="39.0891317" lon="16.085635"><ele>5.0</ele><time>2026-05-03T07:13:14.482Z</time></trkpt><trkpt lat="39.08931" lon="16.0855867"><ele>5.0</ele><time>2026-05-03T07:13:15.485Z</time></trkpt><trkpt lat="39.08949" lon="16.08554"><ele>5.0</ele><time>2026-05-03T07:13:16.48Z</time></trkpt><trkpt lat="39.0896717" lon="16.0854967"><ele>5.0</ele><time>2026-05-03T07:13:17.481Z</time></trkpt><trkpt lat="39.0898533" lon="16.0854533"><ele>5.333333333333334</ele><time>2026-05-03T07:13:18.481Z</time></trkpt><trkpt lat="39.090035" lon="16.085415"><ele>5.666666666666667</ele><time>2026-05-03T07:13:19.481Z</time></trkpt><trkpt lat="39.090215" lon="16.085385"><ele>6.0</ele><time>2026-05-03T07:13:20.483Z</time></trkpt><trkpt lat="39.0903967" lon="16.08537"><ele>6.0</ele><time>2026-05-03T07:13:21.481Z</time></trkpt><trkpt lat="39.09058" lon="16.085365"><ele>6.0</ele><time>2026-05-03T07:13:22.483Z</time></trkpt><trkpt lat="39.090765" lon="16.0853683"><ele>6.0</ele><time>2026-05-03T07:13:23.482Z</time></trkpt><trkpt lat="39.0909533" lon="16.0853733"><ele>6.333333333333334</ele><time>2026-05-03T07:13:24.482Z</time></trkpt><trkpt lat="39.0911417" lon="16.0853783"><ele>6.666666666666667</ele><time>2026-05-03T07:13:25.481Z</time></trkpt><trkpt lat="39.091335" lon="16.0853883"><ele>7.0</ele><time>2026-05-03T07:13:26.482Z</time></trkpt><trkpt lat="39.0915317" lon="16.0854033"><ele>7.333333333333334</ele><time>2026-05-03T07:13:27.481Z</time></trkpt><trkpt lat="39.0917283" lon="16.085415"><ele>7.666666666666666</ele><time>2026-05-03T07:13:28.481Z</time></trkpt><trkpt lat="39.0919233" lon="16.08542"><ele>8.0</ele><time>2026-05-03T07:13:29.481Z</time></trkpt><trkpt lat="39.0921217" lon="16.085415"><ele>8.0</ele><time>2026-05-03T07:13:30.48Z</time></trkpt><trkpt lat="39.0923183" lon="16.0854033"><ele>8.0</ele><time>2026-05-03T07:13:31.481Z</time></trkpt><trkpt lat="39.092515" lon="16.085375"><ele>8.0</ele><time>2026-05-03T07:13:32.481Z</time></trkpt><trkpt lat="39.092715" lon="16.085335"><ele>8.333333333333332</ele><time>2026-05-03T07:13:33.48Z</time></trkpt><trkpt lat="39.0929233" lon="16.08529"><ele>8.666666666666666</ele><time>2026-05-03T07:13:34.483Z</time></trkpt><trkpt lat="39.0931367" lon="16.0852417"><ele>9.0</ele><time>2026-05-03T07:13:35.481Z</time></trkpt><trkpt lat="39.0933533" lon="16.0851867"><ele>10.5</ele><time>2026-05-03T07:13:36.482Z</time></trkpt><trkpt lat="39.0935783" lon="16.0851333"><ele>12.0</ele><time>2026-05-03T07:13:37.485Z</time></trkpt><trkpt lat="39.0938067" lon="16.0850817"><ele>12.0</ele><time>2026-05-03T07:13:38.482Z</time></trkpt><trkpt lat="39.0940383" lon="16.0850283"><ele>12.0</ele><time>2026-05-03T07:13:39.482Z</time></trkpt><trkpt lat="39.0942767" lon="16.08497"><ele>11.5</ele><time>2026-05-03T07:13:40.482Z</time></trkpt><trkpt lat="39.09452" lon="16.0849067"><ele>11.0</ele><time>2026-05-03T07:13:41.481Z</time></trkpt><trkpt lat="39.0947683" lon="16.084845"><ele>13.5</ele><time>2026-05-03T07:13:42.481Z</time></trkpt><trkpt lat="39.09501" lon="16.0847833"><ele>16.0</ele><time>2026-05-03T07:13:43.48Z</time></trkpt><trkpt lat="39.1039483" lon="16.0807767"><ele>13.0</ele><time>2026-05-03T07:14:18.483Z</time></trkpt><trkpt lat="39.1041767" lon="16.0806433"><ele>10.0</ele><time>2026-05-03T07:14:19.482Z</time></trkpt><trkpt lat="39.1044067" lon="16.08052"><ele>10.0</ele><time>2026-05-03T07:14:20.482Z</time></trkpt><trkpt lat="39.10465" lon="16.0804133"><ele>10.0</ele><time>2026-05-03T07:14:21.481Z</time></trkpt><trkpt lat="39.1048933" lon="16.0803033"><ele>10.0</ele><time>2026-05-03T07:14:22.482Z</time></trkpt><trkpt lat="39.1051333" lon="16.0801867"><ele>10.0</ele><time>2026-05-03T07:14:23.482Z</time></trkpt><trkpt lat="39.1053733" lon="16.0800717"><ele>10.0</ele><time>2026-05-03T07:14:24.481Z</time></trkpt><trkpt lat="39.105615" lon="16.0799567"><ele>10.0</ele><time>2026-05-03T07:14:25.481Z</time></trkpt><trkpt lat="39.1058617" lon="16.0798417"><ele>8.5</ele><time>2026-05-03T07:14:26.483Z</time></trkpt><trkpt lat="39.1061067" lon="16.0797283"><ele>7.0</ele><time>2026-05-03T07:14:27.483Z</time></trkpt><trkpt lat="39.1063517" lon="16.0796167"><ele>7.5</ele><time>2026-05-03T07:14:28.48Z</time></trkpt><trkpt lat="39.106595" lon="16.0795033"><ele>8.0</ele><time>2026-05-03T07:14:29.482Z</time></trkpt><trkpt lat="39.1068333" lon="16.0793883"><ele>8.0</ele><time>2026-05-03T07:14:30.483Z</time></trkpt><trkpt lat="39.1070733" lon="16.07928"><ele>8.0</ele><time>2026-05-03T07:14:31.481Z</time></trkpt><trkpt lat="39.1073167" lon="16.0791817"><ele>7.5</ele><time>2026-05-03T07:14:32.482Z</time></trkpt><trkpt lat="39.1075633" lon="16.0790967"><ele>7.0</ele><time>2026-05-03T07:14:33.482Z</time></trkpt><trkpt lat="39.107815" lon="16.0790217"><ele>7.0</ele><time>2026-05-03T07:14:34.481Z</time></trkpt><trkpt lat="39.10807" lon="16.07896"><ele>7.0</ele><time>2026-05-03T07:14:35.481Z</time></trkpt><trkpt lat="39.10833" lon="16.07891"><ele>7.5</ele><time>2026-05-03T07:14:36.482Z</time></trkpt><trkpt lat="39.1085933" lon="16.0788683"><ele>8.0</ele><time>2026-05-03T07:14:37.482Z</time></trkpt><trkpt lat="39.10886" lon="16.0788283"><ele>8.0</ele><time>2026-05-03T07:14:38.485Z</time></trkpt><trkpt lat="39.1091283" lon="16.0787817"><ele>8.0</ele><time>2026-05-03T07:14:39.482Z</time></trkpt><trkpt lat="39.1093983" lon="16.0787283"><ele>8.0</ele><time>2026-05-03T07:14:40.483Z</time></trkpt><trkpt lat="39.1096717" lon="16.0786833"><ele>8.0</ele><time>2026-05-03T07:14:41.482Z</time></trkpt><trkpt lat="39.1099433" lon="16.07864"><ele>7.5</ele><time>2026-05-03T07:14:42.481Z</time></trkpt><trkpt lat="39.110215" lon="16.078595"><ele>7.0</ele><time>2026-05-03T07:14:43.483Z</time></trkpt><trkpt lat="39.1104867" lon="16.0785483"><ele>6.0</ele><time>2026-05-03T07:14:44.483Z</time></trkpt><trkpt lat="39.110755" lon="16.078505"><ele>5.0</ele><time>2026-05-03T07:14:45.482Z</time></trkpt><trkpt lat="39.1110217" lon="16.07846"><ele>5.0</ele><time>2026-05-03T07:14:46.481Z</time></trkpt><trkpt lat="39.1112867" lon="16.0784117"><ele>5.0</ele><time>2026-05-03T07:14:47.481Z</time></trkpt><trkpt lat="39.1115533" lon="16.0783667"><ele>5.0</ele><time>2026-05-03T07:14:48.482Z</time></trkpt><trkpt lat="39.111815" lon="16.0783067"><ele>5.0</ele><time>2026-05-03T07:14:49.481Z</time></trkpt><trkpt lat="39.1120733" lon="16.0782283"><ele>5.0</ele><time>2026-05-03T07:14:50.482Z</time></trkpt><trkpt lat="39.1123217" lon="16.0781433"><ele>5.0</ele><time>2026-05-03T07:14:51.481Z</time></trkpt><trkpt lat="39.1125517" lon="16.078045"><ele>5.333333333333334</ele><time>2026-05-03T07:14:52.482Z</time></trkpt><trkpt lat="39.1127583" lon="16.07795"><ele>5.666666666666667</ele><time>2026-05-03T07:14:53.481Z</time></trkpt><trkpt lat="39.1129533" lon="16.0778633"><ele>6.0</ele><time>2026-05-03T07:14:54.482Z</time></trkpt><trkpt lat="39.1131283" lon="16.0777833"><ele>6.0</ele><time>2026-05-03T07:14:55.482Z</time></trkpt><trkpt lat="39.11328" lon="16.0777117"><ele>6.0</ele><time>2026-05-03T07:14:56.483Z</time></trkpt><trkpt lat="39.1134167" lon="16.0776517"><ele>6.0</ele><time>2026-05-03T07:14:57.482Z</time></trkpt><trkpt lat="39.113555" lon="16.0776067"><ele>6.0</ele><time>2026-05-03T07:14:58.481Z</time></trkpt><trkpt lat="39.1136833" lon="16.0775817"><ele>6.0</ele><time>2026-05-03T07:14:59.483Z</time></trkpt><trkpt lat="39.1138067" lon="16.0775567"><ele>6.0</ele><time>2026-05-03T07:15:00.484Z</time></trkpt><trkpt lat="39.11392" lon="16.0775067"><ele>6.0</ele><time>2026-05-03T07:15:01.482Z</time></trkpt><trkpt lat="39.1140283" lon="16.0774183"><ele>6.0</ele><time>2026-05-03T07:15:02.482Z</time></trkpt><trkpt lat="39.1141517" lon="16.07732"><ele>5.333333333333333</ele><time>2026-05-03T07:15:03.481Z</time></trkpt><trkpt lat="39.1142933" lon="16.07723"><ele>4.666666666666666</ele><time>2026-05-03T07:15:04.482Z</time></trkpt><trkpt lat="39.1144467" lon="16.0771533"><ele>4.0</ele><time>2026-05-03T07:15:05.482Z</time></trkpt><trkpt lat="39.1146" lon="16.0770833"><ele>4.0</ele><time>2026-05-03T07:15:06.482Z</time></trkpt><trkpt lat="39.1147383" lon="16.0770183"><ele>4.0</ele><time>2026-05-03T07:15:07.482Z</time></trkpt><trkpt lat="39.1148633" lon="16.07696"><ele>4.0</ele><time>2026-05-03T07:15:08.482Z</time></trkpt><trkpt lat="39.1149717" lon="16.0769133"><ele>4.0</ele><time>2026-05-03T07:15:09.482Z</time></trkpt><trkpt lat="39.1150633" lon="16.0768783"><ele>4.800000000000001</ele><time>2026-05-03T07:15:10.482Z</time></trkpt><trkpt lat="39.1151483" lon="16.0768417"><ele>5.6000000000000005</ele><time>2026-05-03T07:15:11.484Z</time></trkpt><trkpt lat="39.115235" lon="16.0768017"><ele>6.4</ele><time>2026-05-03T07:15:12.482Z</time></trkpt><trkpt lat="39.11533" lon="16.0767483"><ele>7.2</ele><time>2026-05-03T07:15:13.481Z</time></trkpt><trkpt lat="39.115445" lon="16.076685"><ele>8.0</ele><time>2026-05-03T07:15:14.482Z</time></trkpt><trkpt lat="39.115575" lon="16.076615"><ele>7.333333333333333</ele><time>2026-05-03T07:15:15.482Z</time></trkpt><trkpt lat="39.1157217" lon="16.0765333"><ele>6.666666666666666</ele><time>2026-05-03T07:15:16.483Z</time></trkpt><trkpt lat="39.1158833" lon="16.0764483"><ele>6.0</ele><time>2026-05-03T07:15:17.483Z</time></trkpt><trkpt lat="39.1160617" lon="16.07636"><ele>6.0</ele><time>2026-05-03T07:15:18.483Z</time></trkpt><trkpt lat="39.1162617" lon="16.07627"><ele>6.0</ele><time>2026-05-03T07:15:19.483Z</time></trkpt><trkpt lat="39.1164717" lon="16.0761817"><ele>6.0</ele><time>2026-05-03T07:15:20.483Z</time></trkpt><trkpt lat="39.1166833" lon="16.0760867"><ele>6.333333333333334</ele><time>2026-05-03T07:15:21.482Z</time></trkpt><trkpt lat="39.1168983" lon="16.075995"><ele>6.666666666666667</ele><time>2026-05-03T07:15:22.482Z</time></trkpt><trkpt lat="39.117105" lon="16.0758983"><ele>7.0</ele><time>2026-05-03T07:15:23.484Z</time></trkpt><trkpt lat="39.1173117" lon="16.0757983"><ele>7.666666666666667</ele><time>2026-05-03T07:15:24.483Z</time></trkpt><trkpt lat="39.11752" lon="16.0757017"><ele>8.333333333333334</ele><time>2026-05-03T07:15:25.484Z</time></trkpt><trkpt lat="39.1177167" lon="16.07561"><ele>9.0</ele><time>2026-05-03T07:15:26.484Z</time></trkpt><trkpt lat="39.1179017" lon="16.075515"><ele>9.0</ele><time>2026-05-03T07:15:27.484Z</time></trkpt><trkpt lat="39.1180783" lon="16.075425"><ele>9.0</ele><time>2026-05-03T07:15:28.485Z</time></trkpt><trkpt lat="39.11825" lon="16.0753367"><ele>9.0</ele><time>2026-05-03T07:15:29.483Z</time></trkpt><trkpt lat="39.118425" lon="16.0752483"><ele>9.0</ele><time>2026-05-03T07:15:30.482Z</time></trkpt><trkpt lat="39.1186083" lon="16.075155"><ele>9.0</ele><time>2026-05-03T07:15:31.482Z</time></trkpt><trkpt lat="39.1188" lon="16.0750617"><ele>9.0</ele><time>2026-05-03T07:15:32.482Z</time></trkpt><trkpt lat="39.1190017" lon="16.0749717"><ele>8.666666666666666</ele><time>2026-05-03T07:15:33.483Z</time></trkpt><trkpt lat="39.1192067" lon="16.0748833"><ele>8.333333333333332</ele><time>2026-05-03T07:15:34.481Z</time></trkpt><trkpt lat="39.1194117" lon="16.0748033"><ele>8.0</ele><time>2026-05-03T07:15:35.482Z</time></trkpt><trkpt lat="39.1196117" lon="16.0747233"><ele>8.0</ele><time>2026-05-03T07:15:36.481Z</time></trkpt><trkpt lat="39.11981" lon="16.0746367"><ele>8.0</ele><time>2026-05-03T07:15:37.482Z</time></trkpt><trkpt lat="39.1200017" lon="16.074545"><ele>8.0</ele><time>2026-05-03T07:15:38.483Z</time></trkpt><trkpt lat="39.12019" lon="16.0744533"><ele>7.666666666666666</ele><time>2026-05-03T07:15:39.483Z</time></trkpt><trkpt lat="39.120375" lon="16.0743583"><ele>7.333333333333334</ele><time>2026-05-03T07:15:40.481Z</time></trkpt><trkpt lat="39.1205633" lon="16.0742683"><ele>7.0</ele><time>2026-05-03T07:15:41.482Z</time></trkpt><trkpt lat="39.1207533" lon="16.07418"><ele>5.666666666666667</ele><time>2026-05-03T07:15:42.481Z</time></trkpt><trkpt lat="39.120945" lon="16.0740867"><ele>4.333333333333334</ele><time>2026-05-03T07:15:43.481Z</time></trkpt><trkpt lat="39.1211433" lon="16.073995"><ele>3.0</ele><time>2026-05-03T07:15:44.481Z</time></trkpt><trkpt lat="39.121345" lon="16.0739067"><ele>3.0</ele><time>2026-05-03T07:15:45.483Z</time></trkpt><trkpt lat="39.1215433" lon="16.0738183"><ele>3.0</ele><time>2026-05-03T07:15:46.481Z</time></trkpt><trkpt lat="39.1217367" lon="16.07373"><ele>3.0</ele><time>2026-05-03T07:15:47.483Z</time></trkpt><trkpt lat="39.1219217" lon="16.0736433"><ele>3.666666666666667</ele><time>2026-05-03T07:15:48.482Z</time></trkpt><trkpt lat="39.1221017" lon="16.0735583"><ele>4.333333333333334</ele><time>2026-05-03T07:15:49.483Z</time></trkpt><trkpt lat="39.1222767" lon="16.073475"><ele>5.0</ele><time>2026-05-03T07:15:50.483Z</time></trkpt><trkpt lat="39.1224517" lon="16.07339"><ele>5.666666666666667</ele><time>2026-05-03T07:15:51.482Z</time></trkpt><trkpt lat="39.12263" lon="16.0733117"><ele>6.333333333333334</ele><time>2026-05-03T07:15:52.483Z</time></trkpt><trkpt lat="39.1228067" lon="16.0732383"><ele>7.0</ele><time>2026-05-03T07:15:53.481Z</time></trkpt><trkpt lat="39.12298" lon="16.0731717"><ele>5.666666666666667</ele><time>2026-05-03T07:15:54.484Z</time></trkpt><trkpt lat="39.1231517" lon="16.07311"><ele>4.333333333333334</ele><time>2026-05-03T07:15:55.483Z</time></trkpt><trkpt lat="39.123315" lon="16.0730483"><ele>3.0</ele><time>2026-05-03T07:15:56.484Z</time></trkpt><trkpt lat="39.12348" lon="16.0729883"><ele>3.0</ele><time>2026-05-03T07:15:57.481Z</time></trkpt><trkpt lat="39.123645" lon="16.0729283"><ele>3.0</ele><time>2026-05-03T07:15:58.483Z</time></trkpt><trkpt lat="39.12381" lon="16.0728667"><ele>3.0</ele><time>2026-05-03T07:15:59.482Z</time></trkpt><trkpt lat="39.12398" lon="16.0728033"><ele>3.666666666666667</ele><time>2026-05-03T07:16:00.483Z</time></trkpt><trkpt lat="39.1241517" lon="16.0727367"><ele>4.333333333333334</ele><time>2026-05-03T07:16:01.483Z</time></trkpt><trkpt lat="39.12433" lon="16.07267"><ele>5.0</ele><time>2026-05-03T07:16:02.483Z</time></trkpt><trkpt lat="39.1245067" lon="16.0726017"><ele>5.0</ele><time>2026-05-03T07:16:03.483Z</time></trkpt><trkpt lat="39.1246833" lon="16.0725333"><ele>5.0</ele><time>2026-05-03T07:16:04.482Z</time></trkpt><trkpt lat="39.1248617" lon="16.0724633"><ele>5.0</ele><time>2026-05-03T07:16:05.483Z</time></trkpt><trkpt lat="39.1250367" lon="16.0724"><ele>4.75</ele><time>2026-05-03T07:16:06.482Z</time></trkpt><trkpt lat="39.1251933" lon="16.0723417"><ele>4.5</ele><time>2026-05-03T07:16:07.482Z</time></trkpt><trkpt lat="39.12533" lon="16.07229"><ele>4.25</ele><time>2026-05-03T07:16:08.484Z</time></trkpt><trkpt lat="39.1254517" lon="16.0722433"><ele>4.0</ele><time>2026-05-03T07:16:09.482Z</time></trkpt><trkpt lat="39.1255633" lon="16.0722033"><ele>4.0</ele><time>2026-05-03T07:16:10.483Z</time></trkpt><trkpt lat="39.1256617" lon="16.0721767"><ele>4.0</ele><time>2026-05-03T07:16:11.483Z</time></trkpt><trkpt lat="39.1257533" lon="16.072145"><ele>4.0</ele><time>2026-05-03T07:16:12.482Z</time></trkpt><trkpt lat="39.1258333" lon="16.0721117"><ele>4.0</ele><time>2026-05-03T07:16:13.481Z</time></trkpt><trkpt lat="39.1259183" lon="16.07208"><ele>4.0</ele><time>2026-05-03T07:16:14.483Z</time></trkpt><trkpt lat="39.126015" lon="16.07205"><ele>5.25</ele><time>2026-05-03T07:16:15.482Z</time></trkpt><trkpt lat="39.1261217" lon="16.072015"><ele>6.5</ele><time>2026-05-03T07:16:16.482Z</time></trkpt><trkpt lat="39.126235" lon="16.071975"><ele>7.75</ele><time>2026-05-03T07:16:17.483Z</time></trkpt><trkpt lat="39.1263483" lon="16.0719333"><ele>9.0</ele><time>2026-05-03T07:16:18.482Z</time></trkpt><trkpt lat="39.12646" lon="16.07189"><ele>8.5</ele><time>2026-05-03T07:16:19.483Z</time></trkpt><trkpt lat="39.12657" lon="16.071855"><ele>8.0</ele><time>2026-05-03T07:16:20.483Z</time></trkpt><trkpt lat="39.1266783" lon="16.07181"><ele>7.5</ele><time>2026-05-03T07:16:21.482Z</time></trkpt><trkpt lat="39.1267933" lon="16.0717717"><ele>7.0</ele><time>2026-05-03T07:16:22.482Z</time></trkpt><trkpt lat="39.126915" lon="16.0717317"><ele>7.0</ele><time>2026-05-03T07:16:23.483Z</time></trkpt><trkpt lat="39.1270367" lon="16.0716883"><ele>7.0</ele><time>2026-05-03T07:16:24.481Z</time></trkpt><trkpt lat="39.1271617" lon="16.07164"><ele>7.0</ele><time>2026-05-03T07:16:25.484Z</time></trkpt><trkpt lat="39.1272833" lon="16.0715917"><ele>7.0</ele><time>2026-05-03T07:16:26.484Z</time></trkpt><trkpt lat="39.1274033" lon="16.071535"><ele>6.25</ele><time>2026-05-03T07:16:27.481Z</time></trkpt><trkpt lat="39.127525" lon="16.0714833"><ele>5.5</ele><time>2026-05-03T07:16:28.483Z</time></trkpt><trkpt lat="39.1276467" lon="16.0714417"><ele>4.75</ele><time>2026-05-03T07:16:29.482Z</time></trkpt><trkpt lat="39.1277717" lon="16.0714017"><ele>4.0</ele><time>2026-05-03T07:16:30.482Z</time></trkpt><trkpt lat="39.1279033" lon="16.0713633"><ele>4.0</ele><time>2026-05-03T07:16:31.482Z</time></trkpt><trkpt lat="39.1280367" lon="16.0713167"><ele>4.0</ele><time>2026-05-03T07:16:32.483Z</time></trkpt><trkpt lat="39.1281683" lon="16.0712733"><ele>4.0</ele><time>2026-05-03T07:16:33.482Z</time></trkpt><trkpt lat="39.1282917" lon="16.0712267"><ele>4.0</ele><time>2026-05-03T07:16:34.482Z</time></trkpt><trkpt lat="39.1284083" lon="16.0711833"><ele>4.4</ele><time>2026-05-03T07:16:35.483Z</time></trkpt><trkpt lat="39.1285167" lon="16.0711433"><ele>4.800000000000001</ele><time>2026-05-03T07:16:36.483Z</time></trkpt><trkpt lat="39.1286133" lon="16.0710983"><ele>5.199999999999999</ele><time>2026-05-03T07:16:37.482Z</time></trkpt><trkpt lat="39.1287" lon="16.0710567"><ele>5.6</ele><time>2026-05-03T07:16:38.484Z</time></trkpt><trkpt lat="39.1287767" lon="16.071025"><ele>6.0</ele><time>2026-05-03T07:16:39.482Z</time></trkpt><trkpt lat="39.128845" lon="16.0710033"><ele>6.0</ele><time>2026-05-03T07:16:40.482Z</time></trkpt><trkpt lat="39.1289567" lon="16.0709733"><ele>6.0</ele><time>2026-05-03T07:16:42.482Z</time></trkpt><trkpt lat="39.1290783" lon="16.0709433"><ele>6.0</ele><time>2026-05-03T07:16:44.482Z</time></trkpt><trkpt lat="39.12916" lon="16.0709217"><ele>6.0</ele><time>2026-05-03T07:16:45.483Z</time></trkpt><trkpt lat="39.1292567" lon="16.0709033"><ele>6.0</ele><time>2026-05-03T07:16:46.483Z</time></trkpt><trkpt lat="39.1293733" lon="16.0708917"><ele>6.0</ele><time>2026-05-03T07:16:47.481Z</time></trkpt><trkpt lat="39.1295017" lon="16.07088"><ele>6.0</ele><time>2026-05-03T07:16:48.483Z</time></trkpt><trkpt lat="39.1296233" lon="16.070875"><ele>6.0</ele><time>2026-05-03T07:16:49.484Z</time></trkpt><trkpt lat="39.1297367" lon="16.0708817"><ele>6.0</ele><time>2026-05-03T07:16:50.484Z</time></trkpt><trkpt lat="39.129855" lon="16.07089"><ele>6.199999999999999</ele><time>2026-05-03T07:16:51.483Z</time></trkpt><trkpt lat="39.1299667" lon="16.0709117"><ele>6.3999999999999995</ele><time>2026-05-03T07:16:52.485Z</time></trkpt><trkpt lat="39.1300667" lon="16.0709317"><ele>6.6</ele><time>2026-05-03T07:16:53.484Z</time></trkpt><trkpt lat="39.1301517" lon="16.070945"><ele>6.8</ele><time>2026-05-03T07:16:54.483Z</time></trkpt><trkpt lat="39.1302233" lon="16.0709567"><ele>7.0</ele><time>2026-05-03T07:16:55.484Z</time></trkpt><trkpt lat="39.1303217" lon="16.0709717"><ele>7.0</ele><time>2026-05-03T07:16:57.484Z</time></trkpt><trkpt lat="39.1304367" lon="16.0709967"><ele>6.999999999999999</ele><time>2026-05-03T07:17:13.484Z</time></trkpt><trkpt lat="39.1305383" lon="16.0710217"><ele>6.999999999999999</ele><time>2026-05-03T07:17:15.484Z</time></trkpt><trkpt lat="39.1306167" lon="16.0710383"><ele>7.0</ele><time>2026-05-03T07:17:16.484Z</time></trkpt><trkpt lat="39.1307083" lon="16.0710583"><ele>7.0</ele><time>2026-05-03T07:17:17.485Z</time></trkpt><trkpt lat="39.1308067" lon="16.071075"><ele>7.199999999999999</ele><time>2026-05-03T07:17:18.483Z</time></trkpt><trkpt lat="39.130905" lon="16.0710917"><ele>7.3999999999999995</ele><time>2026-05-03T07:17:19.485Z</time></trkpt><trkpt lat="39.1310083" lon="16.071105"><ele>7.6000000000000005</ele><time>2026-05-03T07:17:20.484Z</time></trkpt><trkpt lat="39.131115" lon="16.07112"><ele>7.800000000000001</ele><time>2026-05-03T07:17:21.484Z</time></trkpt><trkpt lat="39.13122" lon="16.07114"><ele>8.0</ele><time>2026-05-03T07:17:22.484Z</time></trkpt><trkpt lat="39.131325" lon="16.071155"><ele>7.999999999999999</ele><time>2026-05-03T07:17:23.485Z</time></trkpt><trkpt lat="39.1314231" lon="16.0711763"><ele>8.0</ele><time>2026-05-03T07:17:24.483Z</time></trkpt><trkpt lat="39.1315093" lon="16.071196"><ele>8.0</ele><time>2026-05-03T07:17:25.485Z</time></trkpt><trkpt lat="39.1315916" lon="16.0712125"><ele>8.0</ele><time>2026-05-03T07:17:26.485Z</time></trkpt><trkpt lat="39.1316665" lon="16.0712262"><ele>7.999999999999999</ele><time>2026-05-03T07:17:27.483Z</time></trkpt><trkpt lat="39.1317318" lon="16.0712349"><ele>8.0</ele><time>2026-05-03T07:17:28.484Z</time></trkpt><trkpt lat="39.1318465" lon="16.071253"><ele>7.800000000000001</ele><time>2026-05-03T07:17:30.484Z</time></trkpt><trkpt lat="39.131943" lon="16.0712785"><ele>7.6000000000000005</ele><time>2026-05-03T07:17:32.485Z</time></trkpt><trkpt lat="39.132055" lon="16.0713"><ele>7.3999999999999995</ele><time>2026-05-03T07:17:35.485Z</time></trkpt><trkpt lat="39.1321817" lon="16.07131"><ele>7.199999999999999</ele><time>2026-05-03T07:17:37.484Z</time></trkpt><trkpt lat="39.13227" lon="16.071325"><ele>7.0</ele><time>2026-05-03T07:17:38.485Z</time></trkpt><trkpt lat="39.1323667" lon="16.07134"><ele>7.0</ele><time>2026-05-03T07:17:39.484Z</time></trkpt><trkpt lat="39.132465" lon="16.0713533"><ele>6.999999999999999</ele><time>2026-05-03T07:17:40.484Z</time></trkpt><trkpt lat="39.1325717" lon="16.0713667"><ele>6.999999999999999</ele><time>2026-05-03T07:17:41.485Z</time></trkpt><trkpt lat="39.1326817" lon="16.0713817"><ele>7.0</ele><time>2026-05-03T07:17:42.482Z</time></trkpt><trkpt lat="39.132795" lon="16.0713967"><ele>7.0</ele><time>2026-05-03T07:17:43.482Z</time></trkpt><trkpt lat="39.13291" lon="16.0714133"><ele>7.0</ele><time>2026-05-03T07:17:44.483Z</time></trkpt><trkpt lat="39.1330283" lon="16.07143"><ele>7.0</ele><time>2026-05-03T07:17:45.482Z</time></trkpt><trkpt lat="39.13315" lon="16.0714183"><ele>7.0</ele><time>2026-05-03T07:17:46.483Z</time></trkpt><trkpt lat="39.1332817" lon="16.0714183"><ele>7.0</ele><time>2026-05-03T07:17:47.482Z</time></trkpt><trkpt lat="39.1334183" lon="16.0713917"><ele>6.75</ele><time>2026-05-03T07:17:48.482Z</time></trkpt><trkpt lat="39.133555" lon="16.071375"><ele>6.5</ele><time>2026-05-03T07:17:49.483Z</time></trkpt><trkpt lat="39.1337" lon="16.0713433"><ele>6.25</ele><time>2026-05-03T07:17:50.483Z</time></trkpt><trkpt lat="39.13384" lon="16.0712967"><ele>6.0</ele><time>2026-05-03T07:17:51.482Z</time></trkpt><trkpt lat="39.1339783" lon="16.0712433"><ele>5.75</ele><time>2026-05-03T07:17:52.483Z</time></trkpt><trkpt lat="39.1341133" lon="16.0711867"><ele>5.5</ele><time>2026-05-03T07:17:53.484Z</time></trkpt><trkpt lat="39.13425" lon="16.07113"><ele>5.25</ele><time>2026-05-03T07:17:54.483Z</time></trkpt><trkpt lat="39.1343817" lon="16.0710467"><ele>5.0</ele><time>2026-05-03T07:17:55.482Z</time></trkpt><trkpt lat="39.1345217" lon="16.07096"><ele>5.0</ele><time>2026-05-03T07:17:56.482Z</time></trkpt><trkpt lat="39.134665" lon="16.0708667"><ele>5.0</ele><time>2026-05-03T07:17:57.482Z</time></trkpt><trkpt lat="39.1348" lon="16.0707717"><ele>5.0</ele><time>2026-05-03T07:17:58.482Z</time></trkpt><trkpt lat="39.134925" lon="16.070685"><ele>5.25</ele><time>2026-05-03T07:17:59.483Z</time></trkpt><trkpt lat="39.1350433" lon="16.0705933"><ele>5.5</ele><time>2026-05-03T07:18:00.483Z</time></trkpt><trkpt lat="39.135165" lon="16.0705017"><ele>5.75</ele><time>2026-05-03T07:18:01.482Z</time></trkpt><trkpt lat="39.13529" lon="16.0704117"><ele>6.0</ele><time>2026-05-03T07:18:02.483Z</time></trkpt><trkpt lat="39.13542" lon="16.0703233"><ele>6.0</ele><time>2026-05-03T07:18:03.482Z</time></trkpt><trkpt lat="39.1355583" lon="16.0702333"><ele>6.0</ele><time>2026-05-03T07:18:04.482Z</time></trkpt><trkpt lat="39.1357" lon="16.0701367"><ele>6.0</ele><time>2026-05-03T07:18:05.482Z</time></trkpt><trkpt lat="39.1358417" lon="16.0700367"><ele>5.666666666666667</ele><time>2026-05-03T07:18:06.482Z</time></trkpt><trkpt lat="39.1359867" lon="16.06994"><ele>5.333333333333334</ele><time>2026-05-03T07:18:07.481Z</time></trkpt><trkpt lat="39.1361217" lon="16.0698433"><ele>5.0</ele><time>2026-05-03T07:18:08.482Z</time></trkpt><trkpt lat="39.1362517" lon="16.0697483"><ele>5.0</ele><time>2026-05-03T07:18:09.483Z</time></trkpt><trkpt lat="39.1363783" lon="16.0696583"><ele>5.0</ele><time>2026-05-03T07:18:10.481Z</time></trkpt><trkpt lat="39.136505" lon="16.069565"><ele>5.0</ele><time>2026-05-03T07:18:11.482Z</time></trkpt><trkpt lat="39.1366367" lon="16.0694767"><ele>5.0</ele><time>2026-05-03T07:18:12.482Z</time></trkpt><trkpt lat="39.1367667" lon="16.0693867"><ele>5.0</ele><time>2026-05-03T07:18:13.482Z</time></trkpt><trkpt lat="39.136895" lon="16.0693117"><ele>5.0</ele><time>2026-05-03T07:18:14.483Z</time></trkpt><trkpt lat="39.1370267" lon="16.0692417"><ele>5.0</ele><time>2026-05-03T07:18:15.481Z</time></trkpt><trkpt lat="39.1371633" lon="16.0691667"><ele>5.0</ele><time>2026-05-03T07:18:16.483Z</time></trkpt><trkpt lat="39.13731" lon="16.069085"><ele>5.0</ele><time>2026-05-03T07:18:17.483Z</time></trkpt><trkpt lat="39.1374717" lon="16.0690033"><ele>5.0</ele><time>2026-05-03T07:18:18.483Z</time></trkpt><trkpt lat="39.13765" lon="16.0689333"><ele>5.0</ele><time>2026-05-03T07:18:19.482Z</time></trkpt><trkpt lat="39.13784" lon="16.0688717"><ele>5.0</ele><time>2026-05-03T07:18:20.483Z</time></trkpt><trkpt lat="39.138035" lon="16.0688117"><ele>5.0</ele><time>2026-05-03T07:18:21.483Z</time></trkpt><trkpt lat="39.1382283" lon="16.0687517"><ele>5.0</ele><time>2026-05-03T07:18:22.482Z</time></trkpt><trkpt lat="39.138415" lon="16.068685"><ele>5.333333333333334</ele><time>2026-05-03T07:18:23.482Z</time></trkpt><trkpt lat="39.1385933" lon="16.0686167"><ele>5.666666666666667</ele><time>2026-05-03T07:18:24.482Z</time></trkpt><trkpt lat="39.138775" lon="16.0685533"><ele>6.0</ele><time>2026-05-03T07:18:25.482Z</time></trkpt><trkpt lat="39.1389583" lon="16.068495"><ele>6.333333333333334</ele><time>2026-05-03T07:18:26.483Z</time></trkpt><trkpt lat="39.1391417" lon="16.0684383"><ele>6.666666666666667</ele><time>2026-05-03T07:18:27.484Z</time></trkpt><trkpt lat="39.1393217" lon="16.0683767"><ele>7.0</ele><time>2026-05-03T07:18:28.483Z</time></trkpt><trkpt lat="39.1395" lon="16.06831"><ele>6.0</ele><time>2026-05-03T07:18:29.483Z</time></trkpt><trkpt lat="39.139675" lon="16.0682417"><ele>5.0</ele><time>2026-05-03T07:18:30.481Z</time></trkpt><trkpt lat="39.1398567" lon="16.068175"><ele>4.0</ele><time>2026-05-03T07:18:31.481Z</time></trkpt><trkpt lat="39.14004" lon="16.0681117"><ele>4.0</ele><time>2026-05-03T07:18:32.483Z</time></trkpt><trkpt lat="39.14022" lon="16.0680517"><ele>4.0</ele><time>2026-05-03T07:18:33.483Z</time></trkpt><trkpt lat="39.1404" lon="16.0679867"><ele>4.0</ele><time>2026-05-03T07:18:34.482Z</time></trkpt><trkpt lat="39.1405817" lon="16.0679233"><ele>4.333333333333333</ele><time>2026-05-03T07:18:35.487Z</time></trkpt><trkpt lat="39.1407617" lon="16.0678617"><ele>4.666666666666667</ele><time>2026-05-03T07:18:36.482Z</time></trkpt><trkpt lat="39.140945" lon="16.0677983"><ele>5.0</ele><time>2026-05-03T07:18:37.481Z</time></trkpt><trkpt lat="39.1411317" lon="16.0677333"><ele>5.0</ele><time>2026-05-03T07:18:38.484Z</time></trkpt><trkpt lat="39.14132" lon="16.0676683"><ele>5.0</ele><time>2026-05-03T07:18:39.483Z</time></trkpt><trkpt lat="39.1415067" lon="16.0676033"><ele>5.0</ele><time>2026-05-03T07:18:40.483Z</time></trkpt><trkpt lat="39.141695" lon="16.067535"><ele>5.333333333333334</ele><time>2026-05-03T07:18:41.483Z</time></trkpt><trkpt lat="39.1418817" lon="16.0674667"><ele>5.666666666666667</ele><time>2026-05-03T07:18:42.482Z</time></trkpt><trkpt lat="39.1420733" lon="16.0673983"><ele>6.0</ele><time>2026-05-03T07:18:43.482Z</time></trkpt><trkpt lat="39.1422633" lon="16.06733"><ele>6.0</ele><time>2026-05-03T07:18:44.483Z</time></trkpt><trkpt lat="39.1424517" lon="16.067265"><ele>6.0</ele><time>2026-05-03T07:18:45.484Z</time></trkpt><trkpt lat="39.1426417" lon="16.0671983"><ele>6.0</ele><time>2026-05-03T07:18:46.482Z</time></trkpt><trkpt lat="39.1428333" lon="16.0671333"><ele>6.0</ele><time>2026-05-03T07:18:47.482Z</time></trkpt><trkpt lat="39.1430233" lon="16.0670683"><ele>6.0</ele><time>2026-05-03T07:18:48.482Z</time></trkpt><trkpt lat="39.1431983" lon="16.067005"><ele>6.0</ele><time>2026-05-03T07:18:49.483Z</time></trkpt><trkpt lat="39.1433567" lon="16.066945"><ele>6.25</ele><time>2026-05-03T07:18:50.483Z</time></trkpt><trkpt lat="39.1435017" lon="16.0668917"><ele>6.5</ele><time>2026-05-03T07:18:51.482Z</time></trkpt><trkpt lat="39.1436367" lon="16.0668467"><ele>6.75</ele><time>2026-05-03T07:18:52.483Z</time></trkpt><trkpt lat="39.1437717" lon="16.066805"><ele>7.0</ele><time>2026-05-03T07:18:53.483Z</time></trkpt><trkpt lat="39.14391" lon="16.06676"><ele>7.666666666666667</ele><time>2026-05-03T07:18:54.482Z</time></trkpt><trkpt lat="39.1440533" lon="16.0667117"><ele>8.333333333333334</ele><time>2026-05-03T07:18:55.482Z</time></trkpt><trkpt lat="39.1442033" lon="16.0666617"><ele>9.0</ele><time>2026-05-03T07:18:56.482Z</time></trkpt><trkpt lat="39.144355" lon="16.0666133"><ele>7.333333333333333</ele><time>2026-05-03T07:18:57.483Z</time></trkpt><trkpt lat="39.1445067" lon="16.0665617"><ele>5.666666666666666</ele><time>2026-05-03T07:18:58.482Z</time></trkpt><trkpt lat="39.1446567" lon="16.0665033"><ele>4.0</ele><time>2026-05-03T07:18:59.483Z</time></trkpt><trkpt lat="39.1448083" lon="16.066455"><ele>4.0</ele><time>2026-05-03T07:19:00.482Z</time></trkpt><trkpt lat="39.1449617" lon="16.066405"><ele>4.0</ele><time>2026-05-03T07:19:01.482Z</time></trkpt><trkpt lat="39.1451217" lon="16.0663533"><ele>4.0</ele><time>2026-05-03T07:19:02.483Z</time></trkpt><trkpt lat="39.1452817" lon="16.0663033"><ele>4.0</ele><time>2026-05-03T07:19:03.482Z</time></trkpt><trkpt lat="39.1454467" lon="16.0662567"><ele>4.0</ele><time>2026-05-03T07:19:04.481Z</time></trkpt><trkpt lat="39.1456133" lon="16.0662233"><ele>4.0</ele><time>2026-05-03T07:19:05.483Z</time></trkpt><trkpt lat="39.1457783" lon="16.066185"><ele>4.333333333333333</ele><time>2026-05-03T07:19:06.482Z</time></trkpt><trkpt lat="39.1459467" lon="16.0661517"><ele>4.666666666666667</ele><time>2026-05-03T07:19:07.483Z</time></trkpt><trkpt lat="39.14612" lon="16.0661233"><ele>5.0</ele><time>2026-05-03T07:19:08.483Z</time></trkpt><trkpt lat="39.14629" lon="16.0660933"><ele>5.0</ele><time>2026-05-03T07:19:09.482Z</time></trkpt><trkpt lat="39.1464567" lon="16.0660633"><ele>5.0</ele><time>2026-05-03T07:19:10.483Z</time></trkpt><trkpt lat="39.1466233" lon="16.06604"><ele>5.0</ele><time>2026-05-03T07:19:11.483Z</time></trkpt><trkpt lat="39.1467933" lon="16.06602"><ele>6.0</ele><time>2026-05-03T07:19:12.482Z</time></trkpt><trkpt lat="39.14697" lon="16.06601"><ele>7.0</ele><time>2026-05-03T07:19:13.482Z</time></trkpt><trkpt lat="39.1471467" lon="16.065995"><ele>8.0</ele><time>2026-05-03T07:19:14.482Z</time></trkpt><trkpt lat="39.147325" lon="16.0659783"><ele>7.333333333333333</ele><time>2026-05-03T07:19:15.483Z</time></trkpt><trkpt lat="39.1475117" lon="16.0659633"><ele>6.666666666666666</ele><time>2026-05-03T07:19:16.483Z</time></trkpt><trkpt lat="39.1476983" lon="16.0659467"><ele>6.0</ele><time>2026-05-03T07:19:17.482Z</time></trkpt><trkpt lat="39.14789" lon="16.0659317"><ele>6.0</ele><time>2026-05-03T07:19:18.483Z</time></trkpt><trkpt lat="39.148085" lon="16.0659167"><ele>6.0</ele><time>2026-05-03T07:19:19.481Z</time></trkpt><trkpt lat="39.1482783" lon="16.0659067"><ele>6.0</ele><time>2026-05-03T07:19:20.481Z</time></trkpt><trkpt lat="39.1484717" lon="16.0658917"><ele>6.666666666666666</ele><time>2026-05-03T07:19:21.481Z</time></trkpt><trkpt lat="39.1486633" lon="16.0658833"><ele>7.333333333333333</ele><time>2026-05-03T07:19:22.484Z</time></trkpt><trkpt lat="39.14885" lon="16.0658717"><ele>8.0</ele><time>2026-05-03T07:19:23.483Z</time></trkpt><trkpt lat="39.1490367" lon="16.0658567"><ele>8.333333333333332</ele><time>2026-05-03T07:19:24.481Z</time></trkpt><trkpt lat="39.1492267" lon="16.06584"><ele>8.666666666666666</ele><time>2026-05-03T07:19:25.485Z</time></trkpt><trkpt lat="39.1494133" lon="16.0658283"><ele>9.0</ele><time>2026-05-03T07:19:26.483Z</time></trkpt><trkpt lat="39.1496017" lon="16.0658217"><ele>9.0</ele><time>2026-05-03T07:19:27.482Z</time></trkpt><trkpt lat="39.1497967" lon="16.0658167"><ele>9.0</ele><time>2026-05-03T07:19:28.483Z</time></trkpt><trkpt lat="39.15" lon="16.0658133"><ele>9.0</ele><time>2026-05-03T07:19:29.482Z</time></trkpt><trkpt lat="39.1502133" lon="16.0658083"><ele>8.666666666666666</ele><time>2026-05-03T07:19:30.482Z</time></trkpt><trkpt lat="39.1504283" lon="16.0657983"><ele>8.333333333333332</ele><time>2026-05-03T07:19:31.483Z</time></trkpt><trkpt lat="39.15065" lon="16.0657933"><ele>8.0</ele><time>2026-05-03T07:19:32.482Z</time></trkpt><trkpt lat="39.1508767" lon="16.0657883"><ele>11.0</ele><time>2026-05-03T07:19:33.483Z</time></trkpt><trkpt lat="39.1511067" lon="16.065785"><ele>14.0</ele><time>2026-05-03T07:19:34.482Z</time></trkpt><trkpt lat="39.1513417" lon="16.0657817"><ele>7.0</ele><time>2026-05-03T07:19:35.482Z</time></trkpt><trkpt lat="39.1515767" lon="16.0657767"><ele>0.0</ele><time>2026-05-03T07:19:36.484Z</time></trkpt><trkpt lat="39.1518133" lon="16.0657683"><ele>0.0</ele><time>2026-05-03T07:19:37.485Z</time></trkpt><trkpt lat="39.15205" lon="16.065765"><ele>0.0</ele><time>2026-05-03T07:19:38.486Z</time></trkpt><trkpt lat="39.1522817" lon="16.0657567"><ele>0.0</ele><time>2026-05-03T07:19:39.481Z</time></trkpt><trkpt lat="39.15251" lon="16.06575"><ele>0.0</ele><time>2026-05-03T07:19:40.482Z</time></trkpt><trkpt lat="39.15273" lon="16.06574"><ele>0.0</ele><time>2026-05-03T07:19:41.482Z</time></trkpt><trkpt lat="39.1529433" lon="16.065725"><ele>0.0</ele><time>2026-05-03T07:19:42.481Z</time></trkpt><trkpt lat="39.153155" lon="16.0657033"><ele>0.0</ele><time>2026-05-03T07:19:43.482Z</time></trkpt><trkpt lat="39.1533667" lon="16.06568"><ele>0.0</ele><time>2026-05-03T07:19:44.484Z</time></trkpt><trkpt lat="39.1535733" lon="16.06565"><ele>0.0</ele><time>2026-05-03T07:19:45.482Z</time></trkpt><trkpt lat="39.153775" lon="16.0656217"><ele>0.0</ele><time>2026-05-03T07:19:46.482Z</time></trkpt><trkpt lat="39.1539783" lon="16.0656017"><ele>0.0</ele><time>2026-05-03T07:19:47.482Z</time></trkpt><trkpt lat="39.1541817" lon="16.06558"><ele>0.3333333333333333</ele><time>2026-05-03T07:19:48.484Z</time></trkpt><trkpt lat="39.154385" lon="16.0655533"><ele>0.6666666666666666</ele><time>2026-05-03T07:19:49.483Z</time></trkpt><trkpt lat="39.1545917" lon="16.0655283"><ele>1.0</ele><time>2026-05-03T07:19:50.484Z</time></trkpt><trkpt lat="39.1547967" lon="16.0655"><ele>1.6666666666666665</ele><time>2026-05-03T07:19:51.482Z</time></trkpt><trkpt lat="39.155" lon="16.0654733"><ele>2.3333333333333335</ele><time>2026-05-03T07:19:52.484Z</time></trkpt><trkpt lat="39.1552" lon="16.06545"><ele>3.0</ele><time>2026-05-03T07:19:53.483Z</time></trkpt><trkpt lat="39.1553983" lon="16.065425"><ele>3.0</ele><time>2026-05-03T07:19:54.482Z</time></trkpt><trkpt lat="39.1555983" lon="16.0653967"><ele>3.0</ele><time>2026-05-03T07:19:55.482Z</time></trkpt><trkpt lat="39.1558017" lon="16.0653667"><ele>3.0</ele><time>2026-05-03T07:19:56.483Z</time></trkpt><trkpt lat="39.1560067" lon="16.0653433"><ele>3.666666666666667</ele><time>2026-05-03T07:19:57.483Z</time></trkpt><trkpt lat="39.1562117" lon="16.06532"><ele>4.333333333333334</ele><time>2026-05-03T07:19:58.483Z</time></trkpt><trkpt lat="39.1564183" lon="16.065295"><ele>5.0</ele><time>2026-05-03T07:19:59.482Z</time></trkpt><trkpt lat="39.1566217" lon="16.065265"><ele>6.333333333333334</ele><time>2026-05-03T07:20:00.483Z</time></trkpt><trkpt lat="39.156825" lon="16.0652417"><ele>7.666666666666667</ele><time>2026-05-03T07:20:01.482Z</time></trkpt><trkpt lat="39.1570267" lon="16.0652167"><ele>9.0</ele><time>2026-05-03T07:20:02.482Z</time></trkpt><trkpt lat="39.15723" lon="16.0651883"><ele>9.0</ele><time>2026-05-03T07:20:03.482Z</time></trkpt><trkpt lat="39.1574383" lon="16.06516"><ele>9.0</ele><time>2026-05-03T07:20:04.482Z</time></trkpt><trkpt lat="39.15765" lon="16.06513"><ele>9.0</ele><time>2026-05-03T07:20:05.481Z</time></trkpt><trkpt lat="39.1578617" lon="16.0651"><ele>9.0</ele><time>2026-05-03T07:20:06.482Z</time></trkpt><trkpt lat="39.158075" lon="16.0650733"><ele>9.0</ele><time>2026-05-03T07:20:07.482Z</time></trkpt><trkpt lat="39.1582867" lon="16.0650467"><ele>9.0</ele><time>2026-05-03T07:20:08.482Z</time></trkpt><trkpt lat="39.1584983" lon="16.06502"><ele>9.0</ele><time>2026-05-03T07:20:09.482Z</time></trkpt><trkpt lat="39.1587117" lon="16.0649967"><ele>9.0</ele><time>2026-05-03T07:20:10.482Z</time></trkpt><trkpt lat="39.158925" lon="16.0649717"><ele>9.0</ele><time>2026-05-03T07:20:11.481Z</time></trkpt><trkpt lat="39.1591433" lon="16.064955"><ele>9.0</ele><time>2026-05-03T07:20:12.481Z</time></trkpt><trkpt lat="39.1593667" lon="16.0649467"><ele>9.0</ele><time>2026-05-03T07:20:13.483Z</time></trkpt><trkpt lat="39.159595" lon="16.0649483"><ele>9.0</ele><time>2026-05-03T07:20:14.482Z</time></trkpt><trkpt lat="39.15982" lon="16.064955"><ele>9.0</ele><time>2026-05-03T07:20:15.48Z</time></trkpt><trkpt lat="39.160045" lon="16.06497"><ele>9.0</ele><time>2026-05-03T07:20:16.482Z</time></trkpt><trkpt lat="39.1602667" lon="16.0649883"><ele>9.0</ele><time>2026-05-03T07:20:17.481Z</time></trkpt><trkpt lat="39.160485" lon="16.065015"><ele>9.0</ele><time>2026-05-03T07:20:18.481Z</time></trkpt><trkpt lat="39.160705" lon="16.0650433"><ele>8.666666666666666</ele><time>2026-05-03T07:20:19.481Z</time></trkpt><trkpt lat="39.160925" lon="16.065075"><ele>8.333333333333332</ele><time>2026-05-03T07:20:20.482Z</time></trkpt><trkpt lat="39.1611467" lon="16.0651033"><ele>8.0</ele><time>2026-05-03T07:20:21.482Z</time></trkpt><trkpt lat="39.1613667" lon="16.0651283"><ele>8.0</ele><time>2026-05-03T07:20:22.481Z</time></trkpt><trkpt lat="39.1615817" lon="16.0651567"><ele>8.0</ele><time>2026-05-03T07:20:23.484Z</time></trkpt><trkpt lat="39.1617967" lon="16.06518"><ele>8.0</ele><time>2026-05-03T07:20:24.482Z</time></trkpt><trkpt lat="39.1620083" lon="16.0652033"><ele>8.0</ele><time>2026-05-03T07:20:25.482Z</time></trkpt><trkpt lat="39.1622217" lon="16.0652267"><ele>8.0</ele><time>2026-05-03T07:20:26.483Z</time></trkpt><trkpt lat="39.1624367" lon="16.0652533"><ele>8.0</ele><time>2026-05-03T07:20:27.482Z</time></trkpt><trkpt lat="39.1626517" lon="16.06527"><ele>8.0</ele><time>2026-05-03T07:20:28.482Z</time></trkpt><trkpt lat="39.1628667" lon="16.0652767"><ele>8.0</ele><time>2026-05-03T07:20:29.486Z</time></trkpt><trkpt lat="39.16308" lon="16.06527"><ele>8.0</ele><time>2026-05-03T07:20:30.482Z</time></trkpt><trkpt lat="39.1632917" lon="16.0652533"><ele>8.0</ele><time>2026-05-03T07:20:31.482Z</time></trkpt><trkpt lat="39.1635067" lon="16.0652367"><ele>8.0</ele><time>2026-05-03T07:20:32.482Z</time></trkpt><trkpt lat="39.163725" lon="16.0652217"><ele>8.0</ele><time>2026-05-03T07:20:33.482Z</time></trkpt><trkpt lat="39.163945" lon="16.0652017"><ele>7.666666666666666</ele><time>2026-05-03T07:20:34.481Z</time></trkpt><trkpt lat="39.1641633" lon="16.0651883"><ele>7.333333333333334</ele><time>2026-05-03T07:20:35.481Z</time></trkpt><trkpt lat="39.1643767" lon="16.0651733"><ele>7.0</ele><time>2026-05-03T07:20:36.48Z</time></trkpt><trkpt lat="39.1645867" lon="16.0651617"><ele>7.0</ele><time>2026-05-03T07:20:37.483Z</time></trkpt><trkpt lat="39.1647917" lon="16.06515"><ele>7.0</ele><time>2026-05-03T07:20:38.482Z</time></trkpt><trkpt lat="39.164995" lon="16.06514"><ele>7.0</ele><time>2026-05-03T07:20:39.482Z</time></trkpt><trkpt lat="39.1652017" lon="16.0651267"><ele>7.0</ele><time>2026-05-03T07:20:40.482Z</time></trkpt><trkpt lat="39.1654117" lon="16.06511"><ele>7.0</ele><time>2026-05-03T07:20:41.482Z</time></trkpt><trkpt lat="39.165625" lon="16.0650933"><ele>7.0</ele><time>2026-05-03T07:20:42.482Z</time></trkpt><trkpt lat="39.1658417" lon="16.0650817"><ele>7.0</ele><time>2026-05-03T07:20:43.482Z</time></trkpt><trkpt lat="39.1660633" lon="16.0650667"><ele>7.0</ele><time>2026-05-03T07:20:44.482Z</time></trkpt><trkpt lat="39.1662833" lon="16.0650533"><ele>7.0</ele><time>2026-05-03T07:20:45.483Z</time></trkpt><trkpt lat="39.1665067" lon="16.0650367"><ele>6.5</ele><time>2026-05-03T07:20:46.481Z</time></trkpt><trkpt lat="39.1667317" lon="16.0650183"><ele>6.0</ele><time>2026-05-03T07:20:47.481Z</time></trkpt><trkpt lat="39.1669583" lon="16.0649983"><ele>6.0</ele><time>2026-05-03T07:20:48.482Z</time></trkpt><trkpt lat="39.1671867" lon="16.06498"><ele>6.0</ele><time>2026-05-03T07:20:49.482Z</time></trkpt><trkpt lat="39.167415" lon="16.0649583"><ele>5.5</ele><time>2026-05-03T07:20:50.482Z</time></trkpt><trkpt lat="39.16764" lon="16.064945"><ele>5.0</ele><time>2026-05-03T07:20:51.484Z</time></trkpt><trkpt lat="39.167865" lon="16.0649283"><ele>5.0</ele><time>2026-05-03T07:20:52.482Z</time></trkpt><trkpt lat="39.168085" lon="16.064915"><ele>5.0</ele><time>2026-05-03T07:20:53.484Z</time></trkpt><trkpt lat="39.1683033" lon="16.0649"><ele>5.0</ele><time>2026-05-03T07:20:54.481Z</time></trkpt><trkpt lat="39.1685167" lon="16.064885"><ele>5.666666666666667</ele><time>2026-05-03T07:20:55.483Z</time></trkpt><trkpt lat="39.168725" lon="16.064865"><ele>6.333333333333334</ele><time>2026-05-03T07:20:56.482Z</time></trkpt><trkpt lat="39.16893" lon="16.0648483"><ele>7.0</ele><time>2026-05-03T07:20:57.482Z</time></trkpt><trkpt lat="39.16913" lon="16.0648383"><ele>7.333333333333334</ele><time>2026-05-03T07:20:58.48Z</time></trkpt><trkpt lat="39.1693267" lon="16.0648283"><ele>7.666666666666666</ele><time>2026-05-03T07:20:59.481Z</time></trkpt><trkpt lat="39.1695167" lon="16.0648167"><ele>8.0</ele><time>2026-05-03T07:21:00.481Z</time></trkpt><trkpt lat="39.16971" lon="16.0648133"><ele>7.333333333333333</ele><time>2026-05-03T07:21:01.482Z</time></trkpt><trkpt lat="39.169905" lon="16.0648183"><ele>6.666666666666666</ele><time>2026-05-03T07:21:02.483Z</time></trkpt><trkpt lat="39.1701033" lon="16.06484"><ele>6.0</ele><time>2026-05-03T07:21:03.482Z</time></trkpt><trkpt lat="39.1703033" lon="16.0648683"><ele>6.0</ele><time>2026-05-03T07:21:04.48Z</time></trkpt><trkpt lat="39.1705067" lon="16.064905"><ele>6.0</ele><time>2026-05-03T07:21:05.481Z</time></trkpt><trkpt lat="39.17071" lon="16.06494"><ele>6.0</ele><time>2026-05-03T07:21:06.482Z</time></trkpt><trkpt lat="39.1709117" lon="16.0649717"><ele>6.666666666666666</ele><time>2026-05-03T07:21:07.482Z</time></trkpt><trkpt lat="39.17111" lon="16.0650017"><ele>7.333333333333333</ele><time>2026-05-03T07:21:08.481Z</time></trkpt><trkpt lat="39.1713067" lon="16.065035"><ele>8.0</ele><time>2026-05-03T07:21:09.482Z</time></trkpt><trkpt lat="39.1715033" lon="16.0650667"><ele>7.666666666666666</ele><time>2026-05-03T07:21:10.481Z</time></trkpt><trkpt lat="39.1717017" lon="16.0651017"><ele>7.333333333333334</ele><time>2026-05-03T07:21:11.481Z</time></trkpt><trkpt lat="39.1719033" lon="16.065135"><ele>7.0</ele><time>2026-05-03T07:21:12.481Z</time></trkpt><trkpt lat="39.1721017" lon="16.0651667"><ele>7.0</ele><time>2026-05-03T07:21:13.483Z</time></trkpt><trkpt lat="39.1722983" lon="16.0652017"><ele>7.0</ele><time>2026-05-03T07:21:14.484Z</time></trkpt><trkpt lat="39.1724917" lon="16.0652383"><ele>7.0</ele><time>2026-05-03T07:21:15.482Z</time></trkpt><trkpt lat="39.17268" lon="16.06528"><ele>7.333333333333334</ele><time>2026-05-03T07:21:16.482Z</time></trkpt><trkpt lat="39.17286" lon="16.06532"><ele>7.666666666666666</ele><time>2026-05-03T07:21:17.481Z</time></trkpt><trkpt lat="39.1730383" lon="16.065355"><ele>8.0</ele><time>2026-05-03T07:21:18.483Z</time></trkpt><trkpt lat="39.17322" lon="16.06539"><ele>10.0</ele><time>2026-05-03T07:21:19.483Z</time></trkpt><trkpt lat="39.173405" lon="16.065425"><ele>12.0</ele><time>2026-05-03T07:21:20.483Z</time></trkpt><trkpt lat="39.17396" lon="16.06554"><ele>11.666666666666666</ele><time>2026-05-03T07:21:23.482Z</time></trkpt><trkpt lat="39.1741583" lon="16.06557"><ele>11.333333333333332</ele><time>2026-05-03T07:21:24.481Z</time></trkpt><trkpt lat="39.174365" lon="16.06559"><ele>11.0</ele><time>2026-05-03T07:21:25.483Z</time></trkpt><trkpt lat="39.1745817" lon="16.0655983"><ele>11.0</ele><time>2026-05-03T07:21:26.483Z</time></trkpt><trkpt lat="39.174805" lon="16.065595"><ele>11.0</ele><time>2026-05-03T07:21:27.482Z</time></trkpt><trkpt lat="39.1750283" lon="16.0655833"><ele>11.0</ele><time>2026-05-03T07:21:28.481Z</time></trkpt><trkpt lat="39.1752533" lon="16.0655667"><ele>10.0</ele><time>2026-05-03T07:21:29.482Z</time></trkpt><trkpt lat="39.17548" lon="16.0655533"><ele>9.0</ele><time>2026-05-03T07:21:30.481Z</time></trkpt><trkpt lat="39.17571" lon="16.0655383"><ele>8.0</ele><time>2026-05-03T07:21:31.481Z</time></trkpt><trkpt lat="39.1759383" lon="16.0655233"><ele>7.0</ele><time>2026-05-03T07:21:32.482Z</time></trkpt><trkpt lat="39.1761617" lon="16.0655067"><ele>7.0</ele><time>2026-05-03T07:21:33.482Z</time></trkpt><trkpt lat="39.17638" lon="16.06549"><ele>7.0</ele><time>2026-05-03T07:21:34.481Z</time></trkpt><trkpt lat="39.1765983" lon="16.065475"><ele>7.0</ele><time>2026-05-03T07:21:35.482Z</time></trkpt><trkpt lat="39.17682" lon="16.06546"><ele>7.333333333333334</ele><time>2026-05-03T07:21:36.481Z</time></trkpt><trkpt lat="39.1770433" lon="16.0654467"><ele>7.666666666666666</ele><time>2026-05-03T07:21:37.481Z</time></trkpt><trkpt lat="39.1772683" lon="16.0654317"><ele>8.0</ele><time>2026-05-03T07:21:38.482Z</time></trkpt><trkpt lat="39.177495" lon="16.0654183"><ele>7.0</ele><time>2026-05-03T07:21:39.481Z</time></trkpt><trkpt lat="39.1777217" lon="16.0654033"><ele>6.0</ele><time>2026-05-03T07:21:40.482Z</time></trkpt><trkpt lat="39.17795" lon="16.0653867"><ele>6.0</ele><time>2026-05-03T07:21:41.481Z</time></trkpt><trkpt lat="39.1781783" lon="16.06537"><ele>6.0</ele><time>2026-05-03T07:21:42.48Z</time></trkpt><trkpt lat="39.1784067" lon="16.0653517"><ele>6.0</ele><time>2026-05-03T07:21:43.482Z</time></trkpt><trkpt lat="39.1786383" lon="16.06533"><ele>6.0</ele><time>2026-05-03T07:21:44.482Z</time></trkpt><trkpt lat="39.1788667" lon="16.06531"><ele>6.0</ele><time>2026-05-03T07:21:45.48Z</time></trkpt><trkpt lat="39.1790967" lon="16.0652967"><ele>6.0</ele><time>2026-05-03T07:21:46.482Z</time></trkpt><trkpt lat="39.179325" lon="16.0652767"><ele>6.0</ele><time>2026-05-03T07:21:47.482Z</time></trkpt><trkpt lat="39.1795483" lon="16.0652567"><ele>6.0</ele><time>2026-05-03T07:21:48.483Z</time></trkpt><trkpt lat="39.1797717" lon="16.0652383"><ele>6.0</ele><time>2026-05-03T07:21:49.481Z</time></trkpt><trkpt lat="39.179995" lon="16.06522"><ele>6.666666666666666</ele><time>2026-05-03T07:21:50.482Z</time></trkpt><trkpt lat="39.1802167" lon="16.0652"><ele>7.333333333333333</ele><time>2026-05-03T07:21:51.481Z</time></trkpt><trkpt lat="39.1804383" lon="16.0651817"><ele>8.0</ele><time>2026-05-03T07:21:52.481Z</time></trkpt><trkpt lat="39.1806617" lon="16.0651667"><ele>9.333333333333332</ele><time>2026-05-03T07:21:53.481Z</time></trkpt><trkpt lat="39.18088" lon="16.065155"><ele>10.666666666666666</ele><time>2026-05-03T07:21:54.481Z</time></trkpt><trkpt lat="39.1810967" lon="16.065145"><ele>12.0</ele><time>2026-05-03T07:21:55.481Z</time></trkpt><trkpt lat="39.1813183" lon="16.0651317"><ele>15.0</ele><time>2026-05-03T07:21:56.482Z</time></trkpt><trkpt lat="39.1819867" lon="16.0651067"><ele>15.0</ele><time>2026-05-03T07:21:59.48Z</time></trkpt><trkpt lat="39.1821833" lon="16.0651067"><ele>15.0</ele><time>2026-05-03T07:22:00.48Z</time></trkpt><trkpt lat="39.18238" lon="16.0650933"><ele>15.0</ele><time>2026-05-03T07:22:01.481Z</time></trkpt><trkpt lat="39.1825617" lon="16.06507"><ele>13.0</ele><time>2026-05-03T07:22:02.482Z</time></trkpt><trkpt lat="39.1827383" lon="16.0650533"><ele>11.0</ele><time>2026-05-03T07:22:03.482Z</time></trkpt><trkpt lat="39.182925" lon="16.0650367"><ele>9.0</ele><time>2026-05-03T07:22:04.481Z</time></trkpt><trkpt lat="39.1831117" lon="16.0650167"><ele>9.666666666666666</ele><time>2026-05-03T07:22:05.48Z</time></trkpt><trkpt lat="39.1833017" lon="16.0649983"><ele>10.333333333333332</ele><time>2026-05-03T07:22:06.481Z</time></trkpt><trkpt lat="39.1834933" lon="16.06498"><ele>11.0</ele><time>2026-05-03T07:22:07.483Z</time></trkpt><trkpt lat="39.1836917" lon="16.064965"><ele>11.0</ele><time>2026-05-03T07:22:08.482Z</time></trkpt><trkpt lat="39.1838883" lon="16.064955"><ele>11.0</ele><time>2026-05-03T07:22:09.482Z</time></trkpt><trkpt lat="39.18409" lon="16.0649467"><ele>11.0</ele><time>2026-05-03T07:22:10.482Z</time></trkpt><trkpt lat="39.18429" lon="16.064915"><ele>10.666666666666666</ele><time>2026-05-03T07:22:11.482Z</time></trkpt><trkpt lat="39.184485" lon="16.0648933"><ele>10.333333333333334</ele><time>2026-05-03T07:22:12.482Z</time></trkpt><trkpt lat="39.1846967" lon="16.0648667"><ele>10.0</ele><time>2026-05-03T07:22:13.483Z</time></trkpt><trkpt lat="39.1849" lon="16.064845"><ele>9.0</ele><time>2026-05-03T07:22:14.482Z</time></trkpt><trkpt lat="39.1851017" lon="16.06482"><ele>8.0</ele><time>2026-05-03T07:22:15.481Z</time></trkpt><trkpt lat="39.185305" lon="16.0647933"><ele>7.0</ele><time>2026-05-03T07:22:16.48Z</time></trkpt><trkpt lat="39.1855117" lon="16.0647583"><ele>6.666666666666667</ele><time>2026-05-03T07:22:17.481Z</time></trkpt><trkpt lat="39.1857217" lon="16.0647217"><ele>6.333333333333334</ele><time>2026-05-03T07:22:18.481Z</time></trkpt><trkpt lat="39.185935" lon="16.0646917"><ele>6.0</ele><time>2026-05-03T07:22:19.482Z</time></trkpt><trkpt lat="39.1861467" lon="16.064665"><ele>6.0</ele><time>2026-05-03T07:22:20.482Z</time></trkpt><trkpt lat="39.1863583" lon="16.0646367"><ele>6.0</ele><time>2026-05-03T07:22:21.481Z</time></trkpt><trkpt lat="39.1865733" lon="16.064605"><ele>6.0</ele><time>2026-05-03T07:22:22.482Z</time></trkpt><trkpt lat="39.1867883" lon="16.0645733"><ele>6.333333333333334</ele><time>2026-05-03T07:22:23.483Z</time></trkpt><trkpt lat="39.187005" lon="16.0645367"><ele>6.666666666666667</ele><time>2026-05-03T07:22:24.482Z</time></trkpt><trkpt lat="39.1872233" lon="16.0645"><ele>7.0</ele><time>2026-05-03T07:22:25.481Z</time></trkpt><trkpt lat="39.1874383" lon="16.064465"><ele>7.333333333333334</ele><time>2026-05-03T07:22:26.481Z</time></trkpt><trkpt lat="39.18765" lon="16.0644333"><ele>7.666666666666666</ele><time>2026-05-03T07:22:27.481Z</time></trkpt><trkpt lat="39.1878617" lon="16.064405"><ele>8.0</ele><time>2026-05-03T07:22:28.482Z</time></trkpt><trkpt lat="39.1880733" lon="16.064375"><ele>8.333333333333332</ele><time>2026-05-03T07:22:29.482Z</time></trkpt><trkpt lat="39.1882817" lon="16.064345"><ele>8.666666666666666</ele><time>2026-05-03T07:22:30.48Z</time></trkpt><trkpt lat="39.188485" lon="16.0643117"><ele>9.0</ele><time>2026-05-03T07:22:31.481Z</time></trkpt><trkpt lat="39.1886833" lon="16.06428"><ele>9.0</ele><time>2026-05-03T07:22:32.481Z</time></trkpt><trkpt lat="39.18888" lon="16.0642517"><ele>9.0</ele><time>2026-05-03T07:22:33.482Z</time></trkpt><trkpt lat="39.1890783" lon="16.0642267"><ele>9.0</ele><time>2026-05-03T07:22:34.481Z</time></trkpt><trkpt lat="39.1892767" lon="16.0641967"><ele>8.0</ele><time>2026-05-03T07:22:35.482Z</time></trkpt><trkpt lat="39.18947" lon="16.06417"><ele>7.0</ele><time>2026-05-03T07:22:36.481Z</time></trkpt><trkpt lat="39.1898767" lon="16.0641083"><ele>7.0</ele><time>2026-05-03T07:22:38.483Z</time></trkpt><trkpt lat="39.1900667" lon="16.0640983"><ele>7.0</ele><time>2026-05-03T07:22:39.481Z</time></trkpt><trkpt lat="39.190275" lon="16.0640783"><ele>7.0</ele><time>2026-05-03T07:22:40.482Z</time></trkpt><trkpt lat="39.190485" lon="16.06405"><ele>7.0</ele><time>2026-05-03T07:22:41.482Z</time></trkpt><trkpt lat="39.1906983" lon="16.0640167"><ele>7.0</ele><time>2026-05-03T07:22:42.482Z</time></trkpt><trkpt lat="39.1909167" lon="16.0639767"><ele>7.0</ele><time>2026-05-03T07:22:43.48Z</time></trkpt><trkpt lat="39.19113" lon="16.0639367"><ele>7.0</ele><time>2026-05-03T07:22:44.482Z</time></trkpt><trkpt lat="39.1913367" lon="16.0639033"><ele>7.0</ele><time>2026-05-03T07:22:45.481Z</time></trkpt><trkpt lat="39.191535" lon="16.0638733"><ele>7.0</ele><time>2026-05-03T07:22:46.481Z</time></trkpt><trkpt lat="39.1917167" lon="16.06385"><ele>6.333333333333334</ele><time>2026-05-03T07:22:47.483Z</time></trkpt><trkpt lat="39.1918867" lon="16.06383"><ele>5.666666666666667</ele><time>2026-05-03T07:22:48.48Z</time></trkpt><trkpt lat="39.1920417" lon="16.06381"><ele>5.0</ele><time>2026-05-03T07:22:49.482Z</time></trkpt><trkpt lat="39.1921867" lon="16.063785"><ele>5.0</ele><time>2026-05-03T07:22:50.482Z</time></trkpt><trkpt lat="39.19233" lon="16.06376"><ele>5.0</ele><time>2026-05-03T07:22:51.482Z</time></trkpt><trkpt lat="39.1924783" lon="16.063735"><ele>5.0</ele><time>2026-05-03T07:22:52.482Z</time></trkpt><trkpt lat="39.1926283" lon="16.0637117"><ele>5.0</ele><time>2026-05-03T07:22:53.483Z</time></trkpt><trkpt lat="39.19278" lon="16.0636883"><ele>5.333333333333334</ele><time>2026-05-03T07:22:54.482Z</time></trkpt><trkpt lat="39.1929283" lon="16.0636633"><ele>5.666666666666667</ele><time>2026-05-03T07:22:55.482Z</time></trkpt><trkpt lat="39.19308" lon="16.0636367"><ele>6.0</ele><time>2026-05-03T07:22:56.483Z</time></trkpt><trkpt lat="39.1932333" lon="16.0636083"><ele>6.0</ele><time>2026-05-03T07:22:57.482Z</time></trkpt><trkpt lat="39.1933933" lon="16.0635817"><ele>6.0</ele><time>2026-05-03T07:22:58.482Z</time></trkpt><trkpt lat="39.1935567" lon="16.0635567"><ele>6.0</ele><time>2026-05-03T07:22:59.483Z</time></trkpt><trkpt lat="39.1937233" lon="16.06354"><ele>6.0</ele><time>2026-05-03T07:23:00.482Z</time></trkpt><trkpt lat="39.1938917" lon="16.0635217"><ele>6.0</ele><time>2026-05-03T07:23:01.481Z</time></trkpt><trkpt lat="39.19406" lon="16.0635083"><ele>6.0</ele><time>2026-05-03T07:23:02.483Z</time></trkpt><trkpt lat="39.19423" lon="16.0634967"><ele>6.333333333333334</ele><time>2026-05-03T07:23:03.482Z</time></trkpt><trkpt lat="39.1943983" lon="16.0634883"><ele>6.666666666666667</ele><time>2026-05-03T07:23:04.482Z</time></trkpt><trkpt lat="39.1945633" lon="16.0634783"><ele>7.0</ele><time>2026-05-03T07:23:05.482Z</time></trkpt><trkpt lat="39.19473" lon="16.06347"><ele>6.666666666666667</ele><time>2026-05-03T07:23:06.482Z</time></trkpt><trkpt lat="39.1948983" lon="16.0634567"><ele>6.333333333333334</ele><time>2026-05-03T07:23:07.482Z</time></trkpt><trkpt lat="39.1950683" lon="16.0634467"><ele>6.0</ele><time>2026-05-03T07:23:08.481Z</time></trkpt><trkpt lat="39.1952417" lon="16.063435"><ele>6.0</ele><time>2026-05-03T07:23:09.482Z</time></trkpt><trkpt lat="39.195415" lon="16.063425"><ele>6.0</ele><time>2026-05-03T07:23:10.481Z</time></trkpt><trkpt lat="39.1955933" lon="16.0634133"><ele>6.0</ele><time>2026-05-03T07:23:11.482Z</time></trkpt><trkpt lat="39.1957783" lon="16.0634"><ele>5.666666666666667</ele><time>2026-05-03T07:23:12.48Z</time></trkpt><trkpt lat="39.195965" lon="16.06339"><ele>5.333333333333334</ele><time>2026-05-03T07:23:13.482Z</time></trkpt><trkpt lat="39.1961517" lon="16.0633733"><ele>5.0</ele><time>2026-05-03T07:23:14.482Z</time></trkpt><trkpt lat="39.196335" lon="16.0633567"><ele>5.0</ele><time>2026-05-03T07:23:15.482Z</time></trkpt><trkpt lat="39.1965217" lon="16.0633417"><ele>5.0</ele><time>2026-05-03T07:23:16.482Z</time></trkpt><trkpt lat="39.196705" lon="16.0633267"><ele>5.0</ele><time>2026-05-03T07:23:17.482Z</time></trkpt><trkpt lat="39.1968917" lon="16.0633117"><ele>5.0</ele><time>2026-05-03T07:23:18.481Z</time></trkpt><trkpt lat="39.1970767" lon="16.063295"><ele>5.0</ele><time>2026-05-03T07:23:19.483Z</time></trkpt><trkpt lat="39.1972633" lon="16.0632683"><ele>5.0</ele><time>2026-05-03T07:23:20.483Z</time></trkpt><trkpt lat="39.1974517" lon="16.063235"><ele>5.333333333333334</ele><time>2026-05-03T07:23:21.481Z</time></trkpt><trkpt lat="39.1976417" lon="16.0631967"><ele>5.666666666666667</ele><time>2026-05-03T07:23:22.481Z</time></trkpt><trkpt lat="39.1978333" lon="16.06315"><ele>6.0</ele><time>2026-05-03T07:23:23.482Z</time></trkpt><trkpt lat="39.19803" lon="16.0631017"><ele>6.666666666666666</ele><time>2026-05-03T07:23:24.482Z</time></trkpt><trkpt lat="39.19823" lon="16.0630533"><ele>7.333333333333333</ele><time>2026-05-03T07:23:25.482Z</time></trkpt><trkpt lat="39.1984283" lon="16.0630083"><ele>8.0</ele><time>2026-05-03T07:23:26.482Z</time></trkpt><trkpt lat="39.19862" lon="16.062965"><ele>8.0</ele><time>2026-05-03T07:23:27.481Z</time></trkpt><trkpt lat="39.1988033" lon="16.0629183"><ele>8.0</ele><time>2026-05-03T07:23:28.481Z</time></trkpt><trkpt lat="39.1989583" lon="16.0628767"><ele>8.0</ele><time>2026-05-03T07:23:29.483Z</time></trkpt><trkpt lat="39.1990967" lon="16.062845"><ele>9.5</ele><time>2026-05-03T07:23:30.482Z</time></trkpt><trkpt lat="39.1992283" lon="16.0628167"><ele>11.0</ele><time>2026-05-03T07:23:31.482Z</time></trkpt><trkpt lat="39.19936" lon="16.06279"><ele>12.5</ele><time>2026-05-03T07:23:32.483Z</time></trkpt><trkpt lat="39.1994917" lon="16.062765"><ele>14.0</ele><time>2026-05-03T07:23:33.481Z</time></trkpt><trkpt lat="39.1996217" lon="16.0627333"><ele>14.0</ele><time>2026-05-03T07:23:34.481Z</time></trkpt><trkpt lat="39.19976" lon="16.0626983"><ele>14.0</ele><time>2026-05-03T07:23:35.483Z</time></trkpt><trkpt lat="39.1999067" lon="16.0626617"><ele>14.0</ele><time>2026-05-03T07:23:36.481Z</time></trkpt><trkpt lat="39.20006" lon="16.062625"><ele>14.0</ele><time>2026-05-03T07:23:37.483Z</time></trkpt><trkpt lat="39.20022" lon="16.062585"><ele>15.0</ele><time>2026-05-03T07:23:38.482Z</time></trkpt><trkpt lat="39.2003867" lon="16.0625433"><ele>16.0</ele><time>2026-05-03T07:23:39.482Z</time></trkpt><trkpt lat="39.200555" lon="16.0625017"><ele>17.0</ele><time>2026-05-03T07:23:40.482Z</time></trkpt><trkpt lat="39.20072" lon="16.0624617"><ele>16.0</ele><time>2026-05-03T07:23:41.482Z</time></trkpt><trkpt lat="39.2008783" lon="16.0624283"><ele>15.0</ele><time>2026-05-03T07:23:42.482Z</time></trkpt><trkpt lat="39.2010283" lon="16.0623917"><ele>14.0</ele><time>2026-05-03T07:23:43.481Z</time></trkpt><trkpt lat="39.2011817" lon="16.0623583"><ele>14.0</ele><time>2026-05-03T07:23:44.482Z</time></trkpt><trkpt lat="39.20134" lon="16.062325"><ele>14.0</ele><time>2026-05-03T07:23:45.482Z</time></trkpt><trkpt lat="39.2015033" lon="16.0622933"><ele>14.0</ele><time>2026-05-03T07:23:46.482Z</time></trkpt><trkpt lat="39.2016667" lon="16.0622667"><ele>15.0</ele><time>2026-05-03T07:23:47.482Z</time></trkpt><trkpt lat="39.2018267" lon="16.06225"><ele>16.0</ele><time>2026-05-03T07:23:48.484Z</time></trkpt><trkpt lat="39.201985" lon="16.0622367"><ele>17.0</ele><time>2026-05-03T07:23:49.483Z</time></trkpt><trkpt lat="39.2021433" lon="16.06223"><ele>17.0</ele><time>2026-05-03T07:23:50.483Z</time></trkpt><trkpt lat="39.2023067" lon="16.0622283"><ele>17.0</ele><time>2026-05-03T07:23:51.484Z</time></trkpt><trkpt lat="39.2024733" lon="16.0622283"><ele>17.0</ele><time>2026-05-03T07:23:52.483Z</time></trkpt><trkpt lat="39.202645" lon="16.0622233"><ele>17.0</ele><time>2026-05-03T07:23:53.489Z</time></trkpt><trkpt lat="39.20282" lon="16.0622217"><ele>17.0</ele><time>2026-05-03T07:23:54.482Z</time></trkpt><trkpt lat="39.2029983" lon="16.062225"><ele>17.0</ele><time>2026-05-03T07:23:55.483Z</time></trkpt><trkpt lat="39.203185" lon="16.0622283"><ele>16.0</ele><time>2026-05-03T07:23:56.482Z</time></trkpt><trkpt lat="39.20337" lon="16.0622333"><ele>15.0</ele><time>2026-05-03T07:23:57.482Z</time></trkpt><trkpt lat="39.2035533" lon="16.0622333"><ele>14.0</ele><time>2026-05-03T07:23:58.481Z</time></trkpt><trkpt lat="39.2037317" lon="16.06223"><ele>14.0</ele><time>2026-05-03T07:23:59.482Z</time></trkpt><trkpt lat="39.2039083" lon="16.0622267"><ele>14.0</ele><time>2026-05-03T07:24:00.482Z</time></trkpt><trkpt lat="39.2040733" lon="16.0622267"><ele>14.0</ele><time>2026-05-03T07:24:01.481Z</time></trkpt><trkpt lat="39.204215" lon="16.0622317"><ele>14.0</ele><time>2026-05-03T07:24:02.481Z</time></trkpt><trkpt lat="39.2043333" lon="16.062235"><ele>13.999999999999998</ele><time>2026-05-03T07:24:03.483Z</time></trkpt><trkpt lat="39.20444" lon="16.0622333"><ele>13.999999999999998</ele><time>2026-05-03T07:24:04.481Z</time></trkpt><trkpt lat="39.204545" lon="16.06223"><ele>14.0</ele><time>2026-05-03T07:24:05.482Z</time></trkpt><trkpt lat="39.2046533" lon="16.0622283"><ele>14.0</ele><time>2026-05-03T07:24:06.483Z</time></trkpt><trkpt lat="39.20477" lon="16.0622267"><ele>13.75</ele><time>2026-05-03T07:24:07.481Z</time></trkpt><trkpt lat="39.2049" lon="16.062225"><ele>13.5</ele><time>2026-05-03T07:24:08.482Z</time></trkpt><trkpt lat="39.2050433" lon="16.0622217"><ele>13.25</ele><time>2026-05-03T07:24:09.482Z</time></trkpt><trkpt lat="39.205195" lon="16.0622217"><ele>13.0</ele><time>2026-05-03T07:24:10.48Z</time></trkpt><trkpt lat="39.20536" lon="16.0622217"><ele>13.0</ele><time>2026-05-03T07:24:11.482Z</time></trkpt><trkpt lat="39.205535" lon="16.062225"><ele>13.0</ele><time>2026-05-03T07:24:12.483Z</time></trkpt><trkpt lat="39.2057217" lon="16.0622367"><ele>13.0</ele><time>2026-05-03T07:24:13.482Z</time></trkpt><trkpt lat="39.2059167" lon="16.0622517"><ele>12.333333333333332</ele><time>2026-05-03T07:24:14.482Z</time></trkpt><trkpt lat="39.206125" lon="16.0622767"><ele>11.666666666666666</ele><time>2026-05-03T07:24:15.483Z</time></trkpt><trkpt lat="39.2063433" lon="16.06231"><ele>11.0</ele><time>2026-05-03T07:24:16.482Z</time></trkpt><trkpt lat="39.2065717" lon="16.0623483"><ele>9.5</ele><time>2026-05-03T07:24:17.482Z</time></trkpt><trkpt lat="39.2068083" lon="16.0623883"><ele>8.0</ele><time>2026-05-03T07:24:18.483Z</time></trkpt><trkpt lat="39.207055" lon="16.0624333"><ele>7.5</ele><time>2026-05-03T07:24:19.484Z</time></trkpt><trkpt lat="39.2072967" lon="16.0624783"><ele>7.0</ele><time>2026-05-03T07:24:20.485Z</time></trkpt><trkpt lat="39.2075317" lon="16.0625217"><ele>7.0</ele><time>2026-05-03T07:24:21.484Z</time></trkpt><trkpt lat="39.2077633" lon="16.062565"><ele>7.0</ele><time>2026-05-03T07:24:22.484Z</time></trkpt><trkpt lat="39.20799" lon="16.0626083"><ele>7.666666666666667</ele><time>2026-05-03T07:24:23.484Z</time></trkpt><trkpt lat="39.2082117" lon="16.0626467"><ele>8.333333333333334</ele><time>2026-05-03T07:24:24.481Z</time></trkpt><trkpt lat="39.2084283" lon="16.0626833"><ele>9.0</ele><time>2026-05-03T07:24:25.482Z</time></trkpt><trkpt lat="39.2086367" lon="16.0627217"><ele>9.0</ele><time>2026-05-03T07:24:26.484Z</time></trkpt><trkpt lat="39.208835" lon="16.06276"><ele>9.0</ele><time>2026-05-03T07:24:27.482Z</time></trkpt><trkpt lat="39.209025" lon="16.0627933"><ele>9.0</ele><time>2026-05-03T07:24:28.483Z</time></trkpt><trkpt lat="39.2092067" lon="16.06282"><ele>8.666666666666666</ele><time>2026-05-03T07:24:29.482Z</time></trkpt><trkpt lat="39.209385" lon="16.0628317"><ele>8.333333333333332</ele><time>2026-05-03T07:24:30.482Z</time></trkpt><trkpt lat="39.2095667" lon="16.062835"><ele>8.0</ele><time>2026-05-03T07:24:31.482Z</time></trkpt><trkpt lat="39.2097467" lon="16.06283"><ele>7.666666666666666</ele><time>2026-05-03T07:24:32.483Z</time></trkpt><trkpt lat="39.2099217" lon="16.0628267"><ele>7.333333333333334</ele><time>2026-05-03T07:24:33.482Z</time></trkpt><trkpt lat="39.2100867" lon="16.062825"><ele>7.0</ele><time>2026-05-03T07:24:34.483Z</time></trkpt><trkpt lat="39.210245" lon="16.06282"><ele>7.0</ele><time>2026-05-03T07:24:35.481Z</time></trkpt><trkpt lat="39.2103983" lon="16.0628167"><ele>7.0</ele><time>2026-05-03T07:24:36.482Z</time></trkpt><trkpt lat="39.2105467" lon="16.0628033"><ele>7.0</ele><time>2026-05-03T07:24:37.482Z</time></trkpt><trkpt lat="39.2106967" lon="16.0627983"><ele>7.333333333333334</ele><time>2026-05-03T07:24:38.482Z</time></trkpt><trkpt lat="39.210855" lon="16.0627917"><ele>7.666666666666666</ele><time>2026-05-03T07:24:39.481Z</time></trkpt><trkpt lat="39.2110183" lon="16.0627817"><ele>8.0</ele><time>2026-05-03T07:24:40.482Z</time></trkpt><trkpt lat="39.2111867" lon="16.0627733"><ele>8.0</ele><time>2026-05-03T07:24:41.48Z</time></trkpt><trkpt lat="39.211365" lon="16.0627583"><ele>8.0</ele><time>2026-05-03T07:24:42.482Z</time></trkpt><trkpt lat="39.2115483" lon="16.062745"><ele>8.0</ele><time>2026-05-03T07:24:43.482Z</time></trkpt><trkpt lat="39.2117367" lon="16.0627317"><ele>7.666666666666666</ele><time>2026-05-03T07:24:44.483Z</time></trkpt><trkpt lat="39.2119267" lon="16.0627217"><ele>7.333333333333334</ele><time>2026-05-03T07:24:45.483Z</time></trkpt><trkpt lat="39.212115" lon="16.0627133"><ele>7.0</ele><time>2026-05-03T07:24:46.481Z</time></trkpt><trkpt lat="39.2123033" lon="16.0627067"><ele>6.666666666666667</ele><time>2026-05-03T07:24:47.482Z</time></trkpt><trkpt lat="39.2124967" lon="16.0626967"><ele>6.333333333333334</ele><time>2026-05-03T07:24:48.482Z</time></trkpt><trkpt lat="39.2127017" lon="16.0626867"><ele>6.0</ele><time>2026-05-03T07:24:49.483Z</time></trkpt><trkpt lat="39.21292" lon="16.0626733"><ele>6.0</ele><time>2026-05-03T07:24:50.485Z</time></trkpt><trkpt lat="39.2131467" lon="16.0626583"><ele>6.0</ele><time>2026-05-03T07:24:51.484Z</time></trkpt><trkpt lat="39.2133817" lon="16.062645"><ele>6.5</ele><time>2026-05-03T07:24:52.484Z</time></trkpt><trkpt lat="39.2136167" lon="16.062635"><ele>7.0</ele><time>2026-05-03T07:24:53.485Z</time></trkpt><trkpt lat="39.2138367" lon="16.0626233"><ele>7.666666666666667</ele><time>2026-05-03T07:24:54.481Z</time></trkpt><trkpt lat="39.2140417" lon="16.062615"><ele>8.333333333333334</ele><time>2026-05-03T07:24:55.483Z</time></trkpt><trkpt lat="39.2142383" lon="16.062605"><ele>9.0</ele><time>2026-05-03T07:24:56.482Z</time></trkpt><trkpt lat="39.214435" lon="16.0625983"><ele>9.0</ele><time>2026-05-03T07:24:57.482Z</time></trkpt><trkpt lat="39.214625" lon="16.0625917"><ele>9.0</ele><time>2026-05-03T07:24:58.481Z</time></trkpt><trkpt lat="39.21482" lon="16.0625817"><ele>9.0</ele><time>2026-05-03T07:24:59.483Z</time></trkpt><trkpt lat="39.2150217" lon="16.0625717"><ele>8.0</ele><time>2026-05-03T07:25:00.483Z</time></trkpt><trkpt lat="39.2152333" lon="16.0625583"><ele>7.0</ele><time>2026-05-03T07:25:01.482Z</time></trkpt><trkpt lat="39.2154583" lon="16.06254"><ele>6.0</ele><time>2026-05-03T07:25:02.483Z</time></trkpt><trkpt lat="39.2156983" lon="16.0625133"><ele>6.0</ele><time>2026-05-03T07:25:03.482Z</time></trkpt><trkpt lat="39.2159433" lon="16.0624983"><ele>6.0</ele><time>2026-05-03T07:25:04.482Z</time></trkpt><trkpt lat="39.2161733" lon="16.0624917"><ele>6.0</ele><time>2026-05-03T07:25:05.482Z</time></trkpt><trkpt lat="39.216385" lon="16.0624817"><ele>6.0</ele><time>2026-05-03T07:25:06.482Z</time></trkpt><trkpt lat="39.216585" lon="16.06247"><ele>6.0</ele><time>2026-05-03T07:25:07.481Z</time></trkpt><trkpt lat="39.2167717" lon="16.0624533"><ele>6.0</ele><time>2026-05-03T07:25:08.482Z</time></trkpt><trkpt lat="39.2169517" lon="16.06243"><ele>6.0</ele><time>2026-05-03T07:25:09.482Z</time></trkpt><trkpt lat="39.2171367" lon="16.06239"><ele>6.0</ele><time>2026-05-03T07:25:10.482Z</time></trkpt><trkpt lat="39.2173333" lon="16.062325"><ele>6.0</ele><time>2026-05-03T07:25:11.482Z</time></trkpt><trkpt lat="39.2175467" lon="16.0622517"><ele>6.0</ele><time>2026-05-03T07:25:12.481Z</time></trkpt><trkpt lat="39.2177717" lon="16.06218"><ele>6.0</ele><time>2026-05-03T07:25:13.482Z</time></trkpt><trkpt lat="39.2180083" lon="16.0621083"><ele>6.0</ele><time>2026-05-03T07:25:14.482Z</time></trkpt><trkpt lat="39.21825" lon="16.062035"><ele>7.0</ele><time>2026-05-03T07:25:15.482Z</time></trkpt><trkpt lat="39.2184983" lon="16.0619533"><ele>8.0</ele><time>2026-05-03T07:25:16.481Z</time></trkpt><trkpt lat="39.2187467" lon="16.0618667"><ele>10.5</ele><time>2026-05-03T07:25:17.482Z</time></trkpt><trkpt lat="39.21899" lon="16.061785"><ele>13.0</ele><time>2026-05-03T07:25:18.484Z</time></trkpt><trkpt lat="39.2192233" lon="16.0617067"><ele>13.0</ele><time>2026-05-03T07:25:19.484Z</time></trkpt><trkpt lat="39.21945" lon="16.0616267"><ele>13.0</ele><time>2026-05-03T07:25:20.491Z</time></trkpt><trkpt lat="39.219675" lon="16.0615467"><ele>12.5</ele><time>2026-05-03T07:25:21.484Z</time></trkpt><trkpt lat="39.2198967" lon="16.0614733"><ele>12.0</ele><time>2026-05-03T07:25:22.484Z</time></trkpt><trkpt lat="39.2201117" lon="16.061405"><ele>12.0</ele><time>2026-05-03T07:25:23.484Z</time></trkpt><trkpt lat="39.2203283" lon="16.0613383"><ele>12.0</ele><time>2026-05-03T07:25:24.483Z</time></trkpt><trkpt lat="39.2205433" lon="16.06127"><ele>12.0</ele><time>2026-05-03T07:25:25.482Z</time></trkpt><trkpt lat="39.22075" lon="16.061205"><ele>11.0</ele><time>2026-05-03T07:25:26.483Z</time></trkpt><trkpt lat="39.22094" lon="16.0611433"><ele>10.0</ele><time>2026-05-03T07:25:27.484Z</time></trkpt><trkpt lat="39.2211083" lon="16.0610867"><ele>9.0</ele><time>2026-05-03T07:25:28.484Z</time></trkpt><trkpt lat="39.2212533" lon="16.061045"><ele>9.0</ele><time>2026-05-03T07:25:29.485Z</time></trkpt><trkpt lat="39.2213733" lon="16.0610117"><ele>9.0</ele><time>2026-05-03T07:25:30.483Z</time></trkpt><trkpt lat="39.221485" lon="16.0609767"><ele>9.0</ele><time>2026-05-03T07:25:31.482Z</time></trkpt><trkpt lat="39.2215933" lon="16.0609467"><ele>9.0</ele><time>2026-05-03T07:25:32.483Z</time></trkpt><trkpt lat="39.2217" lon="16.060915"><ele>9.75</ele><time>2026-05-03T07:25:33.481Z</time></trkpt><trkpt lat="39.2218083" lon="16.0608833"><ele>10.5</ele><time>2026-05-03T07:25:34.481Z</time></trkpt><trkpt lat="39.22193" lon="16.060855"><ele>11.25</ele><time>2026-05-03T07:25:35.483Z</time></trkpt><trkpt lat="39.22206" lon="16.0608317"><ele>12.0</ele><time>2026-05-03T07:25:36.482Z</time></trkpt><trkpt lat="39.222195" lon="16.0608067"><ele>11.666666666666666</ele><time>2026-05-03T07:25:37.482Z</time></trkpt><trkpt lat="39.2223383" lon="16.0607833"><ele>11.333333333333332</ele><time>2026-05-03T07:25:38.482Z</time></trkpt><trkpt lat="39.2224933" lon="16.0607633"><ele>11.0</ele><time>2026-05-03T07:25:39.483Z</time></trkpt><trkpt lat="39.222665" lon="16.0607433"><ele>10.666666666666666</ele><time>2026-05-03T07:25:40.481Z</time></trkpt><trkpt lat="39.2228483" lon="16.06073"><ele>10.333333333333334</ele><time>2026-05-03T07:25:41.482Z</time></trkpt><trkpt lat="39.22304" lon="16.0607133"><ele>10.0</ele><time>2026-05-03T07:25:42.48Z</time></trkpt><trkpt lat="39.2232333" lon="16.060695"><ele>9.666666666666668</ele><time>2026-05-03T07:25:43.481Z</time></trkpt><trkpt lat="39.2234267" lon="16.0606783"><ele>9.333333333333334</ele><time>2026-05-03T07:25:44.482Z</time></trkpt><trkpt lat="39.22362" lon="16.0606633"><ele>9.0</ele><time>2026-05-03T07:25:45.481Z</time></trkpt><trkpt lat="39.2238117" lon="16.06065"><ele>9.0</ele><time>2026-05-03T07:25:46.483Z</time></trkpt><trkpt lat="39.22401" lon="16.0606333"><ele>9.0</ele><time>2026-05-03T07:25:47.482Z</time></trkpt><trkpt lat="39.2242183" lon="16.0606133"><ele>9.0</ele><time>2026-05-03T07:25:48.482Z</time></trkpt><trkpt lat="39.224435" lon="16.0605967"><ele>9.0</ele><time>2026-05-03T07:25:49.481Z</time></trkpt><trkpt lat="39.2246583" lon="16.0605833"><ele>9.0</ele><time>2026-05-03T07:25:50.482Z</time></trkpt><trkpt lat="39.224885" lon="16.060575"><ele>8.333333333333334</ele><time>2026-05-03T07:25:51.482Z</time></trkpt><trkpt lat="39.2251117" lon="16.0605633"><ele>7.666666666666667</ele><time>2026-05-03T07:25:52.481Z</time></trkpt><trkpt lat="39.2253333" lon="16.060555"><ele>7.0</ele><time>2026-05-03T07:25:53.481Z</time></trkpt><trkpt lat="39.2255483" lon="16.060545"><ele>6.666666666666667</ele><time>2026-05-03T07:25:54.482Z</time></trkpt><trkpt lat="39.2257567" lon="16.0605317"><ele>6.333333333333334</ele><time>2026-05-03T07:25:55.482Z</time></trkpt><trkpt lat="39.2259633" lon="16.0605217"><ele>6.0</ele><time>2026-05-03T07:25:56.483Z</time></trkpt><trkpt lat="39.22617" lon="16.060505"><ele>6.0</ele><time>2026-05-03T07:25:57.483Z</time></trkpt><trkpt lat="39.2263833" lon="16.060485"><ele>6.0</ele><time>2026-05-03T07:25:58.483Z</time></trkpt><trkpt lat="39.2266083" lon="16.0604567"><ele>6.0</ele><time>2026-05-03T07:25:59.481Z</time></trkpt><trkpt lat="39.2268517" lon="16.060435"><ele>6.0</ele><time>2026-05-03T07:26:00.482Z</time></trkpt><trkpt lat="39.227115" lon="16.06042"><ele>6.0</ele><time>2026-05-03T07:26:01.483Z</time></trkpt><trkpt lat="39.2274" lon="16.0604067"><ele>6.0</ele><time>2026-05-03T07:26:02.483Z</time></trkpt><trkpt lat="39.2277" lon="16.060395"><ele>6.0</ele><time>2026-05-03T07:26:03.481Z</time></trkpt><trkpt lat="39.228" lon="16.06038"><ele>6.5</ele><time>2026-05-03T07:26:04.482Z</time></trkpt><trkpt lat="39.2283017" lon="16.0603683"><ele>7.0</ele><time>2026-05-03T07:26:05.482Z</time></trkpt><trkpt lat="39.2286083" lon="16.0603533"><ele>7.0</ele><time>2026-05-03T07:26:06.482Z</time></trkpt><trkpt lat="39.228915" lon="16.06034"><ele>7.0</ele><time>2026-05-03T07:26:07.481Z</time></trkpt><trkpt lat="39.2292217" lon="16.0603283"><ele>7.0</ele><time>2026-05-03T07:26:08.483Z</time></trkpt><trkpt lat="39.2295233" lon="16.0603117"><ele>7.0</ele><time>2026-05-03T07:26:09.483Z</time></trkpt><trkpt lat="39.2298217" lon="16.0602883"><ele>7.0</ele><time>2026-05-03T07:26:10.483Z</time></trkpt><trkpt lat="39.2301217" lon="16.0602617"><ele>7.0</ele><time>2026-05-03T07:26:11.483Z</time></trkpt><trkpt lat="39.230425" lon="16.06024"><ele>6.5</ele><time>2026-05-03T07:26:12.483Z</time></trkpt><trkpt lat="39.2307267" lon="16.0602233"><ele>6.0</ele><time>2026-05-03T07:26:13.482Z</time></trkpt><trkpt lat="39.2310233" lon="16.0602133"><ele>6.0</ele><time>2026-05-03T07:26:14.482Z</time></trkpt><trkpt lat="39.2313133" lon="16.0602"><ele>6.0</ele><time>2026-05-03T07:26:15.482Z</time></trkpt><trkpt lat="39.2316" lon="16.0601883"><ele>6.5</ele><time>2026-05-03T07:26:16.482Z</time></trkpt><trkpt lat="39.231885" lon="16.060175"><ele>7.0</ele><time>2026-05-03T07:26:17.482Z</time></trkpt><trkpt lat="39.2321683" lon="16.0601583"><ele>6.5</ele><time>2026-05-03T07:26:18.482Z</time></trkpt><trkpt lat="39.23245" lon="16.06014"><ele>6.0</ele><time>2026-05-03T07:26:19.482Z</time></trkpt><trkpt lat="39.2327317" lon="16.06012"><ele>6.0</ele><time>2026-05-03T07:26:20.482Z</time></trkpt><trkpt lat="39.233015" lon="16.0600917"><ele>6.0</ele><time>2026-05-03T07:26:21.481Z</time></trkpt><trkpt lat="39.2333" lon="16.0600633"><ele>6.0</ele><time>2026-05-03T07:26:22.482Z</time></trkpt><trkpt lat="39.2335833" lon="16.060025"><ele>6.0</ele><time>2026-05-03T07:26:23.482Z</time></trkpt><trkpt lat="39.23386" lon="16.0599833"><ele>5.0</ele><time>2026-05-03T07:26:24.482Z</time></trkpt><trkpt lat="39.2341317" lon="16.0599383"><ele>4.0</ele><time>2026-05-03T07:26:25.481Z</time></trkpt><trkpt lat="39.2344017" lon="16.059895"><ele>4.0</ele><time>2026-05-03T07:26:26.482Z</time></trkpt><trkpt lat="39.2346667" lon="16.059855"><ele>4.0</ele><time>2026-05-03T07:26:27.482Z</time></trkpt><trkpt lat="39.2349267" lon="16.0598233"><ele>4.0</ele><time>2026-05-03T07:26:28.482Z</time></trkpt><trkpt lat="39.2351867" lon="16.0597983"><ele>4.0</ele><time>2026-05-03T07:26:29.481Z</time></trkpt><trkpt lat="39.2354483" lon="16.059785"><ele>4.0</ele><time>2026-05-03T07:26:30.482Z</time></trkpt><trkpt lat="39.23571" lon="16.0597767"><ele>4.0</ele><time>2026-05-03T07:26:31.485Z</time></trkpt><trkpt lat="39.235975" lon="16.05977"><ele>4.0</ele><time>2026-05-03T07:26:32.484Z</time></trkpt><trkpt lat="39.23624" lon="16.059765"><ele>4.0</ele><time>2026-05-03T07:26:33.486Z</time></trkpt><trkpt lat="39.2365083" lon="16.0597583"><ele>4.5</ele><time>2026-05-03T07:26:34.484Z</time></trkpt><trkpt lat="39.2367767" lon="16.0597533"><ele>5.0</ele><time>2026-05-03T07:26:35.485Z</time></trkpt><trkpt lat="39.23704" lon="16.0597467"><ele>5.0</ele><time>2026-05-03T07:26:36.484Z</time></trkpt><trkpt lat="39.237295" lon="16.0597433"><ele>5.0</ele><time>2026-05-03T07:26:37.482Z</time></trkpt><trkpt lat="39.2375383" lon="16.0597383"><ele>5.0</ele><time>2026-05-03T07:26:38.482Z</time></trkpt><trkpt lat="39.2377733" lon="16.059735"><ele>5.0</ele><time>2026-05-03T07:26:39.482Z</time></trkpt><trkpt lat="39.238005" lon="16.0597433"><ele>5.0</ele><time>2026-05-03T07:26:40.484Z</time></trkpt><trkpt lat="39.2382333" lon="16.0597667"><ele>5.0</ele><time>2026-05-03T07:26:41.482Z</time></trkpt><trkpt lat="39.2384583" lon="16.059805"><ele>5.0</ele><time>2026-05-03T07:26:42.482Z</time></trkpt><trkpt lat="39.23868" lon="16.0598517"><ele>5.0</ele><time>2026-05-03T07:26:43.483Z</time></trkpt><trkpt lat="39.238895" lon="16.0599083"><ele>5.0</ele><time>2026-05-03T07:26:44.487Z</time></trkpt><trkpt lat="39.2391067" lon="16.059985"><ele>5.333333333333334</ele><time>2026-05-03T07:26:45.483Z</time></trkpt><trkpt lat="39.239315" lon="16.0600783"><ele>5.666666666666667</ele><time>2026-05-03T07:26:46.481Z</time></trkpt><trkpt lat="39.2395183" lon="16.0601833"><ele>6.0</ele><time>2026-05-03T07:26:47.482Z</time></trkpt><trkpt lat="39.2397167" lon="16.0602983"><ele>7.0</ele><time>2026-05-03T07:26:48.482Z</time></trkpt><trkpt lat="39.2399067" lon="16.0604183"><ele>8.0</ele><time>2026-05-03T07:26:49.482Z</time></trkpt><trkpt lat="39.24009" lon="16.06055"><ele>9.0</ele><time>2026-05-03T07:26:50.482Z</time></trkpt><trkpt lat="39.2402683" lon="16.06069"><ele>9.666666666666666</ele><time>2026-05-03T07:26:51.482Z</time></trkpt><trkpt lat="39.240445" lon="16.0608383"><ele>10.333333333333332</ele><time>2026-05-03T07:26:52.482Z</time></trkpt><trkpt lat="39.2406233" lon="16.060995"><ele>11.0</ele><time>2026-05-03T07:26:53.482Z</time></trkpt><trkpt lat="39.240805" lon="16.0611533"><ele>11.666666666666666</ele><time>2026-05-03T07:26:54.482Z</time></trkpt><trkpt lat="39.2409917" lon="16.06131"><ele>12.333333333333332</ele><time>2026-05-03T07:26:55.482Z</time></trkpt><trkpt lat="39.2411767" lon="16.0614667"><ele>13.0</ele><time>2026-05-03T07:26:56.483Z</time></trkpt><trkpt lat="39.2413617" lon="16.0616267"><ele>12.666666666666666</ele><time>2026-05-03T07:26:57.481Z</time></trkpt><trkpt lat="39.2415433" lon="16.061785"><ele>12.333333333333332</ele><time>2026-05-03T07:26:58.484Z</time></trkpt><trkpt lat="39.2417283" lon="16.0619433"><ele>12.0</ele><time>2026-05-03T07:26:59.484Z</time></trkpt><trkpt lat="39.2419167" lon="16.0621033"><ele>12.0</ele><time>2026-05-03T07:27:00.484Z</time></trkpt><trkpt lat="39.242105" lon="16.0622583"><ele>12.0</ele><time>2026-05-03T07:27:01.481Z</time></trkpt><trkpt lat="39.2423017" lon="16.0624083"><ele>14.0</ele><time>2026-05-03T07:27:02.482Z</time></trkpt><trkpt lat="39.2425083" lon="16.0625367"><ele>16.0</ele><time>2026-05-03T07:27:03.482Z</time></trkpt><trkpt lat="39.242725" lon="16.0626383"><ele>16.0</ele><time>2026-05-03T07:27:04.482Z</time></trkpt><trkpt lat="39.2429467" lon="16.0627217"><ele>16.0</ele><time>2026-05-03T07:27:05.482Z</time></trkpt><trkpt lat="39.24317" lon="16.0627867"><ele>14.5</ele><time>2026-05-03T07:27:06.482Z</time></trkpt><trkpt lat="39.2433983" lon="16.0628267"><ele>13.0</ele><time>2026-05-03T07:27:07.483Z</time></trkpt><trkpt lat="39.2436317" lon="16.062845"><ele>13.0</ele><time>2026-05-03T07:27:08.483Z</time></trkpt><trkpt lat="39.2438733" lon="16.062845"><ele>13.0</ele><time>2026-05-03T07:27:09.481Z</time></trkpt><trkpt lat="39.2441217" lon="16.0628383"><ele>13.5</ele><time>2026-05-03T07:27:10.482Z</time></trkpt><trkpt lat="39.24437" lon="16.0628417"><ele>14.0</ele><time>2026-05-03T07:27:11.481Z</time></trkpt><trkpt lat="39.24461" lon="16.0628467"><ele>15.0</ele><time>2026-05-03T07:27:12.481Z</time></trkpt><trkpt lat="39.24485" lon="16.0628517"><ele>16.0</ele><time>2026-05-03T07:27:13.483Z</time></trkpt><trkpt lat="39.2450883" lon="16.0628517"><ele>16.0</ele><time>2026-05-03T07:27:14.483Z</time></trkpt><trkpt lat="39.2453283" lon="16.0628467"><ele>16.0</ele><time>2026-05-03T07:27:15.483Z</time></trkpt><trkpt lat="39.2455733" lon="16.06284"><ele>14.0</ele><time>2026-05-03T07:27:16.481Z</time></trkpt><trkpt lat="39.2458117" lon="16.062825"><ele>12.0</ele><time>2026-05-03T07:27:17.481Z</time></trkpt><trkpt lat="39.2460483" lon="16.0627917"><ele>12.0</ele><time>2026-05-03T07:27:18.482Z</time></trkpt><trkpt lat="39.246285" lon="16.0627383"><ele>12.0</ele><time>2026-05-03T07:27:19.482Z</time></trkpt><trkpt lat="39.2465283" lon="16.0626717"><ele>15.0</ele><time>2026-05-03T07:27:20.481Z</time></trkpt><trkpt lat="39.2467733" lon="16.062585"><ele>18.0</ele><time>2026-05-03T07:27:21.481Z</time></trkpt><trkpt lat="39.2470133" lon="16.0624833"><ele>15.0</ele><time>2026-05-03T07:27:22.482Z</time></trkpt><trkpt lat="39.2472467" lon="16.0623733"><ele>12.0</ele><time>2026-05-03T07:27:23.482Z</time></trkpt><trkpt lat="39.2474717" lon="16.06225"><ele>12.0</ele><time>2026-05-03T07:27:24.482Z</time></trkpt><trkpt lat="39.2476967" lon="16.062125"><ele>12.0</ele><time>2026-05-03T07:27:25.483Z</time></trkpt><trkpt lat="39.2479233" lon="16.061995"><ele>17.0</ele><time>2026-05-03T07:27:26.485Z</time></trkpt><trkpt lat="39.24815" lon="16.06186"><ele>22.0</ele><time>2026-05-03T07:27:27.481Z</time></trkpt><trkpt lat="39.2483817" lon="16.0617167"><ele>17.0</ele><time>2026-05-03T07:27:28.483Z</time></trkpt><trkpt lat="39.2486117" lon="16.0615667"><ele>12.0</ele><time>2026-05-03T07:27:29.482Z</time></trkpt><trkpt lat="39.2488483" lon="16.0614383"><ele>10.5</ele><time>2026-05-03T07:27:30.482Z</time></trkpt><trkpt lat="39.2490783" lon="16.0613183"><ele>9.0</ele><time>2026-05-03T07:27:31.481Z</time></trkpt><trkpt lat="39.2493133" lon="16.06119"><ele>9.0</ele><time>2026-05-03T07:27:32.482Z</time></trkpt><trkpt lat="39.2495533" lon="16.06105"><ele>9.0</ele><time>2026-05-03T07:27:33.482Z</time></trkpt><trkpt lat="39.2497933" lon="16.0609117"><ele>8.5</ele><time>2026-05-03T07:27:34.482Z</time></trkpt><trkpt lat="39.25003" lon="16.0607833"><ele>8.0</ele><time>2026-05-03T07:27:35.481Z</time></trkpt><trkpt lat="39.25026" lon="16.0606617"><ele>6.5</ele><time>2026-05-03T07:27:36.481Z</time></trkpt><trkpt lat="39.2504833" lon="16.06055"><ele>5.0</ele><time>2026-05-03T07:27:37.481Z</time></trkpt><trkpt lat="39.250705" lon="16.060445"><ele>5.0</ele><time>2026-05-03T07:27:38.482Z</time></trkpt><trkpt lat="39.2509333" lon="16.0603533"><ele>5.0</ele><time>2026-05-03T07:27:39.482Z</time></trkpt><trkpt lat="39.2511683" lon="16.0602767"><ele>5.0</ele><time>2026-05-03T07:27:40.481Z</time></trkpt><trkpt lat="39.2514083" lon="16.0602117"><ele>5.0</ele><time>2026-05-03T07:27:41.481Z</time></trkpt><trkpt lat="39.251655" lon="16.060155"><ele>4.5</ele><time>2026-05-03T07:27:42.484Z</time></trkpt><trkpt lat="39.2519083" lon="16.0601117"><ele>4.0</ele><time>2026-05-03T07:27:43.484Z</time></trkpt><trkpt lat="39.252165" lon="16.0600833"><ele>4.0</ele><time>2026-05-03T07:27:44.484Z</time></trkpt><trkpt lat="39.252425" lon="16.0600683"><ele>4.0</ele><time>2026-05-03T07:27:45.481Z</time></trkpt><trkpt lat="39.2526867" lon="16.0600583"><ele>4.0</ele><time>2026-05-03T07:27:46.483Z</time></trkpt><trkpt lat="39.2529483" lon="16.06005"><ele>4.0</ele><time>2026-05-03T07:27:47.482Z</time></trkpt><trkpt lat="39.2532083" lon="16.0600417"><ele>4.0</ele><time>2026-05-03T07:27:48.483Z</time></trkpt><trkpt lat="39.253465" lon="16.0600333"><ele>4.0</ele><time>2026-05-03T07:27:49.483Z</time></trkpt><trkpt lat="39.253715" lon="16.060025"><ele>5.0</ele><time>2026-05-03T07:27:50.483Z</time></trkpt><trkpt lat="39.2539583" lon="16.0600183"><ele>6.0</ele><time>2026-05-03T07:27:51.484Z</time></trkpt><trkpt lat="39.2541983" lon="16.06001"><ele>6.0</ele><time>2026-05-03T07:27:52.483Z</time></trkpt><trkpt lat="39.2544333" lon="16.0600017"><ele>6.0</ele><time>2026-05-03T07:27:53.483Z</time></trkpt><trkpt lat="39.2546633" lon="16.0599933"><ele>7.0</ele><time>2026-05-03T07:27:54.483Z</time></trkpt><trkpt lat="39.2548867" lon="16.0599883"><ele>8.0</ele><time>2026-05-03T07:27:55.484Z</time></trkpt><trkpt lat="39.2551083" lon="16.0599817"><ele>9.0</ele><time>2026-05-03T07:27:56.484Z</time></trkpt><trkpt lat="39.25533" lon="16.0599767"><ele>9.0</ele><time>2026-05-03T07:27:57.483Z</time></trkpt><trkpt lat="39.2555583" lon="16.0599717"><ele>9.0</ele><time>2026-05-03T07:27:58.484Z</time></trkpt><trkpt lat="39.25579" lon="16.05996"><ele>6.5</ele><time>2026-05-03T07:27:59.482Z</time></trkpt><trkpt lat="39.2560267" lon="16.0599433"><ele>4.0</ele><time>2026-05-03T07:28:00.481Z</time></trkpt><trkpt lat="39.2562733" lon="16.05992"><ele>4.0</ele><time>2026-05-03T07:28:01.483Z</time></trkpt><trkpt lat="39.2565333" lon="16.0599033"><ele>4.0</ele><time>2026-05-03T07:28:02.482Z</time></trkpt><trkpt lat="39.2567933" lon="16.0598917"><ele>4.0</ele><time>2026-05-03T07:28:03.487Z</time></trkpt><trkpt lat="39.257045" lon="16.0598883"><ele>4.0</ele><time>2026-05-03T07:28:04.482Z</time></trkpt><trkpt lat="39.257285" lon="16.0598883"><ele>5.0</ele><time>2026-05-03T07:28:05.481Z</time></trkpt><trkpt lat="39.25751" lon="16.059885"><ele>6.0</ele><time>2026-05-03T07:28:06.481Z</time></trkpt><trkpt lat="39.25772" lon="16.0598833"><ele>7.0</ele><time>2026-05-03T07:28:07.482Z</time></trkpt><trkpt lat="39.257925" lon="16.05988"><ele>7.666666666666667</ele><time>2026-05-03T07:28:08.482Z</time></trkpt><trkpt lat="39.258125" lon="16.0598817"><ele>8.333333333333334</ele><time>2026-05-03T07:28:09.482Z</time></trkpt><trkpt lat="39.25832" lon="16.0598767"><ele>9.0</ele><time>2026-05-03T07:28:10.481Z</time></trkpt><trkpt lat="39.2585183" lon="16.0598733"><ele>9.0</ele><time>2026-05-03T07:28:11.482Z</time></trkpt><trkpt lat="39.258725" lon="16.059865"><ele>9.0</ele><time>2026-05-03T07:28:12.481Z</time></trkpt><trkpt lat="39.2589383" lon="16.0598533"><ele>9.0</ele><time>2026-05-03T07:28:13.482Z</time></trkpt><trkpt lat="39.2591617" lon="16.0598417"><ele>8.5</ele><time>2026-05-03T07:28:14.482Z</time></trkpt><trkpt lat="39.2593917" lon="16.05984"><ele>8.0</ele><time>2026-05-03T07:28:15.482Z</time></trkpt><trkpt lat="39.25962" lon="16.0598383"><ele>7.5</ele><time>2026-05-03T07:28:16.481Z</time></trkpt><trkpt lat="39.2598483" lon="16.0598333"><ele>7.0</ele><time>2026-05-03T07:28:17.482Z</time></trkpt><trkpt lat="39.26008" lon="16.0598233"><ele>7.0</ele><time>2026-05-03T07:28:18.48Z</time></trkpt><trkpt lat="39.2603133" lon="16.0598133"><ele>7.0</ele><time>2026-05-03T07:28:19.484Z</time></trkpt><trkpt lat="39.2605483" lon="16.0598033"><ele>5.5</ele><time>2026-05-03T07:28:20.489Z</time></trkpt><trkpt lat="39.2607833" lon="16.0597967"><ele>4.0</ele><time>2026-05-03T07:28:21.484Z</time></trkpt><trkpt lat="39.2610283" lon="16.0597867"><ele>4.0</ele><time>2026-05-03T07:28:22.483Z</time></trkpt><trkpt lat="39.26128" lon="16.0597783"><ele>4.0</ele><time>2026-05-03T07:28:23.483Z</time></trkpt><trkpt lat="39.2615367" lon="16.0597767"><ele>4.5</ele><time>2026-05-03T07:28:24.484Z</time></trkpt><trkpt lat="39.2617967" lon="16.0597867"><ele>5.0</ele><time>2026-05-03T07:28:25.484Z</time></trkpt><trkpt lat="39.2620583" lon="16.0598017"><ele>6.0</ele><time>2026-05-03T07:28:26.484Z</time></trkpt><trkpt lat="39.2623217" lon="16.0598117"><ele>7.0</ele><time>2026-05-03T07:28:27.483Z</time></trkpt><trkpt lat="39.26259" lon="16.0598217"><ele>7.0</ele><time>2026-05-03T07:28:28.483Z</time></trkpt><trkpt lat="39.2628633" lon="16.0598283"><ele>7.0</ele><time>2026-05-03T07:28:29.482Z</time></trkpt><trkpt lat="39.26314" lon="16.05983"><ele>7.5</ele><time>2026-05-03T07:28:30.482Z</time></trkpt><trkpt lat="39.2634183" lon="16.0598367"><ele>8.0</ele><time>2026-05-03T07:28:31.482Z</time></trkpt><trkpt lat="39.2637017" lon="16.05984"><ele>7.0</ele><time>2026-05-03T07:28:32.483Z</time></trkpt><trkpt lat="39.2639867" lon="16.0598433"><ele>6.0</ele><time>2026-05-03T07:28:33.48Z</time></trkpt><trkpt lat="39.2642767" lon="16.0598467"><ele>6.0</ele><time>2026-05-03T07:28:34.482Z</time></trkpt><trkpt lat="39.2645683" lon="16.0598467"><ele>6.0</ele><time>2026-05-03T07:28:35.483Z</time></trkpt><trkpt lat="39.2648633" lon="16.05985"><ele>6.0</ele><time>2026-05-03T07:28:36.482Z</time></trkpt><trkpt lat="39.2651583" lon="16.059855"><ele>6.0</ele><time>2026-05-03T07:28:37.483Z</time></trkpt><trkpt lat="39.2654433" lon="16.05986"><ele>5.5</ele><time>2026-05-03T07:28:38.483Z</time></trkpt><trkpt lat="39.265715" lon="16.0598583"><ele>5.0</ele><time>2026-05-03T07:28:39.481Z</time></trkpt><trkpt lat="39.2659733" lon="16.0598567"><ele>5.0</ele><time>2026-05-03T07:28:40.485Z</time></trkpt><trkpt lat="39.26622" lon="16.059855"><ele>5.0</ele><time>2026-05-03T07:28:41.481Z</time></trkpt><trkpt lat="39.2664633" lon="16.059855"><ele>5.0</ele><time>2026-05-03T07:28:42.481Z</time></trkpt><trkpt lat="39.2667083" lon="16.0598517"><ele>5.0</ele><time>2026-05-03T07:28:43.483Z</time></trkpt><trkpt lat="39.266955" lon="16.0598467"><ele>5.0</ele><time>2026-05-03T07:28:44.483Z</time></trkpt><trkpt lat="39.2672" lon="16.0598283"><ele>5.0</ele><time>2026-05-03T07:28:45.482Z</time></trkpt><trkpt lat="39.2674483" lon="16.0598067"><ele>5.5</ele><time>2026-05-03T07:28:46.483Z</time></trkpt><trkpt lat="39.2676983" lon="16.0597733"><ele>6.0</ele><time>2026-05-03T07:28:47.482Z</time></trkpt><trkpt lat="39.2679483" lon="16.059725"><ele>6.0</ele><time>2026-05-03T07:28:48.482Z</time></trkpt><trkpt lat="39.2681983" lon="16.059665"><ele>6.0</ele><time>2026-05-03T07:28:49.483Z</time></trkpt><trkpt lat="39.2684483" lon="16.0595983"><ele>6.0</ele><time>2026-05-03T07:28:50.483Z</time></trkpt><trkpt lat="39.2687" lon="16.0595283"><ele>6.0</ele><time>2026-05-03T07:28:51.482Z</time></trkpt><trkpt lat="39.2689517" lon="16.059455"><ele>6.5</ele><time>2026-05-03T07:28:52.484Z</time></trkpt><trkpt lat="39.2692" lon="16.0593867"><ele>7.0</ele><time>2026-05-03T07:28:53.484Z</time></trkpt><trkpt lat="39.26944" lon="16.0593183"><ele>7.0</ele><time>2026-05-03T07:28:54.484Z</time></trkpt><trkpt lat="39.2696767" lon="16.05925"><ele>7.0</ele><time>2026-05-03T07:28:55.484Z</time></trkpt><trkpt lat="39.2699067" lon="16.0591833"><ele>6.5</ele><time>2026-05-03T07:28:56.487Z</time></trkpt><trkpt lat="39.2701283" lon="16.0591167"><ele>6.0</ele><time>2026-05-03T07:28:57.484Z</time></trkpt><trkpt lat="39.2703483" lon="16.0590517"><ele>6.0</ele><time>2026-05-03T07:28:58.483Z</time></trkpt><trkpt lat="39.27057" lon="16.0589833"><ele>6.0</ele><time>2026-05-03T07:28:59.483Z</time></trkpt><trkpt lat="39.2707967" lon="16.058915"><ele>7.0</ele><time>2026-05-03T07:29:00.482Z</time></trkpt><trkpt lat="39.2710217" lon="16.0588583"><ele>8.0</ele><time>2026-05-03T07:29:01.483Z</time></trkpt><trkpt lat="39.2712517" lon="16.0588083"><ele>8.5</ele><time>2026-05-03T07:29:02.483Z</time></trkpt><trkpt lat="39.271485" lon="16.0587683"><ele>9.0</ele><time>2026-05-03T07:29:03.483Z</time></trkpt><trkpt lat="39.2717233" lon="16.05873"><ele>9.0</ele><time>2026-05-03T07:29:04.486Z</time></trkpt><trkpt lat="39.2719617" lon="16.05869"><ele>9.0</ele><time>2026-05-03T07:29:05.483Z</time></trkpt><trkpt lat="39.2721983" lon="16.0586533"><ele>9.5</ele><time>2026-05-03T07:29:06.483Z</time></trkpt><trkpt lat="39.2724367" lon="16.0586133"><ele>10.0</ele><time>2026-05-03T07:29:07.483Z</time></trkpt><trkpt lat="39.2726783" lon="16.0585683"><ele>10.0</ele><time>2026-05-03T07:29:08.482Z</time></trkpt><trkpt lat="39.2729217" lon="16.0585283"><ele>10.0</ele><time>2026-05-03T07:29:09.481Z</time></trkpt><trkpt lat="39.273165" lon="16.0584917"><ele>8.0</ele><time>2026-05-03T07:29:10.481Z</time></trkpt><trkpt lat="39.2734083" lon="16.0584517"><ele>6.0</ele><time>2026-05-03T07:29:11.483Z</time></trkpt><trkpt lat="39.2736517" lon="16.0584117"><ele>6.0</ele><time>2026-05-03T07:29:12.482Z</time></trkpt><trkpt lat="39.2738967" lon="16.058375"><ele>6.0</ele><time>2026-05-03T07:29:13.481Z</time></trkpt><trkpt lat="39.274145" lon="16.0583383"><ele>6.0</ele><time>2026-05-03T07:29:14.482Z</time></trkpt><trkpt lat="39.2743933" lon="16.0582967"><ele>6.0</ele><time>2026-05-03T07:29:15.482Z</time></trkpt><trkpt lat="39.274635" lon="16.058255"><ele>7.0</ele><time>2026-05-03T07:29:16.482Z</time></trkpt><trkpt lat="39.2748717" lon="16.0582117"><ele>8.0</ele><time>2026-05-03T07:29:17.483Z</time></trkpt><trkpt lat="39.275105" lon="16.0581717"><ele>8.0</ele><time>2026-05-03T07:29:18.484Z</time></trkpt><trkpt lat="39.2753333" lon="16.05813"><ele>8.0</ele><time>2026-05-03T07:29:19.485Z</time></trkpt><trkpt lat="39.2755583" lon="16.05809"><ele>8.0</ele><time>2026-05-03T07:29:20.485Z</time></trkpt><trkpt lat="39.2757783" lon="16.0580517"><ele>8.0</ele><time>2026-05-03T07:29:21.484Z</time></trkpt><trkpt lat="39.275995" lon="16.0580133"><ele>8.0</ele><time>2026-05-03T07:29:22.485Z</time></trkpt><trkpt lat="39.2762083" lon="16.0579767"><ele>8.0</ele><time>2026-05-03T07:29:23.483Z</time></trkpt><trkpt lat="39.2764233" lon="16.05794"><ele>8.0</ele><time>2026-05-03T07:29:24.482Z</time></trkpt><trkpt lat="39.2766417" lon="16.0579"><ele>8.0</ele><time>2026-05-03T07:29:25.482Z</time></trkpt><trkpt lat="39.2768617" lon="16.0578683"><ele>8.0</ele><time>2026-05-03T07:29:26.483Z</time></trkpt><trkpt lat="39.2770817" lon="16.0578317"><ele>8.0</ele><time>2026-05-03T07:29:27.481Z</time></trkpt><trkpt lat="39.277305" lon="16.0577933"><ele>8.0</ele><time>2026-05-03T07:29:28.481Z</time></trkpt><trkpt lat="39.27753" lon="16.0577517"><ele>7.5</ele><time>2026-05-03T07:29:29.481Z</time></trkpt><trkpt lat="39.2777583" lon="16.0577117"><ele>7.0</ele><time>2026-05-03T07:29:30.482Z</time></trkpt><trkpt lat="39.2779883" lon="16.0576717"><ele>7.5</ele><time>2026-05-03T07:29:31.482Z</time></trkpt><trkpt lat="39.27822" lon="16.0576317"><ele>8.0</ele><time>2026-05-03T07:29:32.483Z</time></trkpt><trkpt lat="39.278455" lon="16.0575917"><ele>8.0</ele><time>2026-05-03T07:29:33.484Z</time></trkpt><trkpt lat="39.278695" lon="16.057555"><ele>8.0</ele><time>2026-05-03T07:29:34.483Z</time></trkpt><trkpt lat="39.278935" lon="16.0575117"><ele>8.0</ele><time>2026-05-03T07:29:35.485Z</time></trkpt><trkpt lat="39.2791767" lon="16.05747"><ele>8.0</ele><time>2026-05-03T07:29:36.484Z</time></trkpt><trkpt lat="39.2794183" lon="16.0574283"><ele>8.0</ele><time>2026-05-03T07:29:37.484Z</time></trkpt><trkpt lat="39.27966" lon="16.05739"><ele>8.0</ele><time>2026-05-03T07:29:38.485Z</time></trkpt><trkpt lat="39.2798967" lon="16.0573517"><ele>8.0</ele><time>2026-05-03T07:29:39.484Z</time></trkpt><trkpt lat="39.2801333" lon="16.057315"><ele>8.0</ele><time>2026-05-03T07:29:40.484Z</time></trkpt><trkpt lat="39.2803683" lon="16.0572883"><ele>8.0</ele><time>2026-05-03T07:29:41.483Z</time></trkpt><trkpt lat="39.2805983" lon="16.0572783"><ele>8.0</ele><time>2026-05-03T07:29:42.484Z</time></trkpt><trkpt lat="39.280825" lon="16.0572833"><ele>8.0</ele><time>2026-05-03T07:29:43.484Z</time></trkpt><trkpt lat="39.28105" lon="16.057295"><ele>8.0</ele><time>2026-05-03T07:29:44.485Z</time></trkpt><trkpt lat="39.28127" lon="16.0573083"><ele>8.0</ele><time>2026-05-03T07:29:45.481Z</time></trkpt><trkpt lat="39.28149" lon="16.0573267"><ele>8.0</ele><time>2026-05-03T07:29:46.482Z</time></trkpt><trkpt lat="39.2817067" lon="16.0573467"><ele>8.0</ele><time>2026-05-03T07:29:47.482Z</time></trkpt><trkpt lat="39.281925" lon="16.057365"><ele>8.0</ele><time>2026-05-03T07:29:48.481Z</time></trkpt><trkpt lat="39.2821433" lon="16.057385"><ele>7.666666666666666</ele><time>2026-05-03T07:29:49.482Z</time></trkpt><trkpt lat="39.2823633" lon="16.0574033"><ele>7.333333333333334</ele><time>2026-05-03T07:29:50.483Z</time></trkpt><trkpt lat="39.2825833" lon="16.0574217"><ele>7.0</ele><time>2026-05-03T07:29:51.483Z</time></trkpt><trkpt lat="39.282805" lon="16.057435"><ele>7.0</ele><time>2026-05-03T07:29:52.485Z</time></trkpt><trkpt lat="39.283025" lon="16.0574483"><ele>7.0</ele><time>2026-05-03T07:29:53.485Z</time></trkpt><trkpt lat="39.2832433" lon="16.05746"><ele>7.0</ele><time>2026-05-03T07:29:54.484Z</time></trkpt><trkpt lat="39.283455" lon="16.0574767"><ele>7.333333333333334</ele><time>2026-05-03T07:29:55.482Z</time></trkpt><trkpt lat="39.2836617" lon="16.0574917"><ele>7.666666666666666</ele><time>2026-05-03T07:29:56.482Z</time></trkpt><trkpt lat="39.2838567" lon="16.0575033"><ele>8.0</ele><time>2026-05-03T07:29:57.483Z</time></trkpt><trkpt lat="39.2840417" lon="16.0575117"><ele>8.333333333333332</ele><time>2026-05-03T07:29:58.484Z</time></trkpt><trkpt lat="39.28421" lon="16.05752"><ele>8.666666666666666</ele><time>2026-05-03T07:29:59.483Z</time></trkpt><trkpt lat="39.2843683" lon="16.0575283"><ele>9.0</ele><time>2026-05-03T07:30:00.483Z</time></trkpt><trkpt lat="39.284525" lon="16.05754"><ele>9.0</ele><time>2026-05-03T07:30:01.484Z</time></trkpt><trkpt lat="39.2846817" lon="16.05755"><ele>9.0</ele><time>2026-05-03T07:30:02.484Z</time></trkpt><trkpt lat="39.28484" lon="16.0575633"><ele>9.0</ele><time>2026-05-03T07:30:03.483Z</time></trkpt><trkpt lat="39.2850017" lon="16.0575733"><ele>9.333333333333334</ele><time>2026-05-03T07:30:04.485Z</time></trkpt><trkpt lat="39.28516" lon="16.0575833"><ele>9.666666666666668</ele><time>2026-05-03T07:30:05.484Z</time></trkpt><trkpt lat="39.2853183" lon="16.0575867"><ele>10.0</ele><time>2026-05-03T07:30:06.483Z</time></trkpt><trkpt lat="39.2854767" lon="16.0575917"><ele>11.333333333333334</ele><time>2026-05-03T07:30:07.484Z</time></trkpt><trkpt lat="39.28564" lon="16.0575933"><ele>12.666666666666668</ele><time>2026-05-03T07:30:08.484Z</time></trkpt><trkpt lat="39.285805" lon="16.0575967"><ele>14.0</ele><time>2026-05-03T07:30:09.483Z</time></trkpt><trkpt lat="39.2859767" lon="16.0576033"><ele>14.0</ele><time>2026-05-03T07:30:10.483Z</time></trkpt><trkpt lat="39.2861517" lon="16.0576117"><ele>14.0</ele><time>2026-05-03T07:30:11.483Z</time></trkpt><trkpt lat="39.2863233" lon="16.0576233"><ele>14.0</ele><time>2026-05-03T07:30:12.482Z</time></trkpt><trkpt lat="39.2865033" lon="16.05764"><ele>13.666666666666668</ele><time>2026-05-03T07:30:13.481Z</time></trkpt><trkpt lat="39.286685" lon="16.0576583"><ele>13.333333333333332</ele><time>2026-05-03T07:30:14.482Z</time></trkpt><trkpt lat="39.28687" lon="16.0576733"><ele>13.0</ele><time>2026-05-03T07:30:15.482Z</time></trkpt><trkpt lat="39.28705" lon="16.0576933"><ele>13.0</ele><time>2026-05-03T07:30:16.482Z</time></trkpt><trkpt lat="39.2872233" lon="16.057715"><ele>13.0</ele><time>2026-05-03T07:30:17.482Z</time></trkpt><trkpt lat="39.2873867" lon="16.0577367"><ele>13.0</ele><time>2026-05-03T07:30:18.482Z</time></trkpt><trkpt lat="39.2875417" lon="16.0577533"><ele>13.0</ele><time>2026-05-03T07:30:19.481Z</time></trkpt><trkpt lat="39.28769" lon="16.0577683"><ele>13.0</ele><time>2026-05-03T07:30:20.483Z</time></trkpt><trkpt lat="39.287835" lon="16.0577767"><ele>13.0</ele><time>2026-05-03T07:30:21.481Z</time></trkpt><trkpt lat="39.2879883" lon="16.0577883"><ele>13.0</ele><time>2026-05-03T07:30:22.481Z</time></trkpt><trkpt lat="39.2881517" lon="16.0577983"><ele>13.0</ele><time>2026-05-03T07:30:23.482Z</time></trkpt><trkpt lat="39.2883233" lon="16.0578067"><ele>13.0</ele><time>2026-05-03T07:30:24.482Z</time></trkpt><trkpt lat="39.2885033" lon="16.0578167"><ele>13.0</ele><time>2026-05-03T07:30:25.482Z</time></trkpt><trkpt lat="39.2886783" lon="16.0578267"><ele>13.0</ele><time>2026-05-03T07:30:26.482Z</time></trkpt><trkpt lat="39.2888467" lon="16.0578383"><ele>13.0</ele><time>2026-05-03T07:30:27.482Z</time></trkpt><trkpt lat="39.28901" lon="16.0578483"><ele>13.0</ele><time>2026-05-03T07:30:28.483Z</time></trkpt><trkpt lat="39.2891683" lon="16.0578517"><ele>14.0</ele><time>2026-05-03T07:30:29.482Z</time></trkpt><trkpt lat="39.289325" lon="16.057845"><ele>15.0</ele><time>2026-05-03T07:30:30.481Z</time></trkpt><trkpt lat="39.2894817" lon="16.057835"><ele>16.0</ele><time>2026-05-03T07:30:31.483Z</time></trkpt><trkpt lat="39.289645" lon="16.0578017"><ele>17.333333333333332</ele><time>2026-05-03T07:30:32.484Z</time></trkpt><trkpt lat="39.2898233" lon="16.0577483"><ele>18.666666666666668</ele><time>2026-05-03T07:30:33.483Z</time></trkpt><trkpt lat="39.2900183" lon="16.057685"><ele>20.0</ele><time>2026-05-03T07:30:34.484Z</time></trkpt><trkpt lat="39.29023" lon="16.0576133"><ele>20.0</ele><time>2026-05-03T07:30:35.485Z</time></trkpt><trkpt lat="39.290455" lon="16.0575367"><ele>20.0</ele><time>2026-05-03T07:30:36.484Z</time></trkpt><trkpt lat="39.2906867" lon="16.0574533"><ele>18.0</ele><time>2026-05-03T07:30:37.484Z</time></trkpt><trkpt lat="39.2909233" lon="16.0573633"><ele>16.0</ele><time>2026-05-03T07:30:38.483Z</time></trkpt><trkpt lat="39.2911633" lon="16.0572683"><ele>16.0</ele><time>2026-05-03T07:30:39.484Z</time></trkpt><trkpt lat="39.2913967" lon="16.0571733"><ele>16.0</ele><time>2026-05-03T07:30:40.483Z</time></trkpt><trkpt lat="39.2916233" lon="16.05708"><ele>20.333333333333332</ele><time>2026-05-03T07:30:41.484Z</time></trkpt><trkpt lat="39.2918367" lon="16.0569917"><ele>24.666666666666664</ele><time>2026-05-03T07:30:42.485Z</time></trkpt><trkpt lat="39.29204" lon="16.0569133"><ele>29.0</ele><time>2026-05-03T07:30:43.485Z</time></trkpt><trkpt lat="39.2922383" lon="16.0568417"><ele>30.333333333333332</ele><time>2026-05-03T07:30:44.482Z</time></trkpt><trkpt lat="39.29242" lon="16.0567717"><ele>31.666666666666664</ele><time>2026-05-03T07:30:45.483Z</time></trkpt><trkpt lat="39.2926067" lon="16.0567133"><ele>33.0</ele><time>2026-05-03T07:30:46.481Z</time></trkpt><trkpt lat="39.2928017" lon="16.05666"><ele>30.666666666666664</ele><time>2026-05-03T07:30:47.482Z</time></trkpt><trkpt lat="39.2930033" lon="16.056605"><ele>28.333333333333332</ele><time>2026-05-03T07:30:48.482Z</time></trkpt><trkpt lat="39.2932117" lon="16.0565517"><ele>26.0</ele><time>2026-05-03T07:30:49.482Z</time></trkpt><trkpt lat="39.29343" lon="16.05651"><ele>26.0</ele><time>2026-05-03T07:30:50.482Z</time></trkpt><trkpt lat="39.2936567" lon="16.0564767"><ele>26.0</ele><time>2026-05-03T07:30:51.483Z</time></trkpt><trkpt lat="39.29389" lon="16.0564433"><ele>28.0</ele><time>2026-05-03T07:30:52.482Z</time></trkpt><trkpt lat="39.2941267" lon="16.05641"><ele>30.0</ele><time>2026-05-03T07:30:53.484Z</time></trkpt><trkpt lat="39.2943617" lon="16.05638"><ele>30.0</ele><time>2026-05-03T07:30:54.481Z</time></trkpt><trkpt lat="39.2946" lon="16.056345"><ele>30.0</ele><time>2026-05-03T07:30:55.482Z</time></trkpt><trkpt lat="39.294835" lon="16.0563"><ele>32.0</ele><time>2026-05-03T07:30:56.482Z</time></trkpt><trkpt lat="39.2950733" lon="16.0562517"><ele>34.0</ele><time>2026-05-03T07:30:57.481Z</time></trkpt><trkpt lat="39.2953133" lon="16.056195"><ele>34.0</ele><time>2026-05-03T07:30:58.483Z</time></trkpt><trkpt lat="39.295555" lon="16.0561417"><ele>34.0</ele><time>2026-05-03T07:30:59.483Z</time></trkpt><trkpt lat="39.2957983" lon="16.0560933"><ele>36.5</ele><time>2026-05-03T07:31:00.482Z</time></trkpt><trkpt lat="39.2960433" lon="16.0560417"><ele>39.0</ele><time>2026-05-03T07:31:01.483Z</time></trkpt><trkpt lat="39.2962883" lon="16.05599"><ele>41.0</ele><time>2026-05-03T07:31:02.483Z</time></trkpt><trkpt lat="39.2965283" lon="16.0559433"><ele>43.0</ele><time>2026-05-03T07:31:03.482Z</time></trkpt><trkpt lat="39.29676" lon="16.055895"><ele>43.0</ele><time>2026-05-03T07:31:04.484Z</time></trkpt><trkpt lat="39.2969783" lon="16.0558483"><ele>43.0</ele><time>2026-05-03T07:31:05.484Z</time></trkpt><trkpt lat="39.2971833" lon="16.0557967"><ele>43.0</ele><time>2026-05-03T07:31:06.484Z</time></trkpt><trkpt lat="39.2973833" lon="16.05573"><ele>41.333333333333336</ele><time>2026-05-03T07:31:07.484Z</time></trkpt><trkpt lat="39.2975817" lon="16.05565"><ele>39.666666666666664</ele><time>2026-05-03T07:31:08.483Z</time></trkpt><trkpt lat="39.29778" lon="16.0555567"><ele>38.0</ele><time>2026-05-03T07:31:09.484Z</time></trkpt><trkpt lat="39.2979767" lon="16.055455"><ele>40.33333333333333</ele><time>2026-05-03T07:31:10.482Z</time></trkpt><trkpt lat="39.2981767" lon="16.0553467"><ele>42.666666666666664</ele><time>2026-05-03T07:31:11.483Z</time></trkpt><trkpt lat="39.2983733" lon="16.0552367"><ele>45.0</ele><time>2026-05-03T07:31:12.482Z</time></trkpt><trkpt lat="39.2985667" lon="16.05513"><ele>45.0</ele><time>2026-05-03T07:31:13.482Z</time></trkpt><trkpt lat="39.2987533" lon="16.0550283"><ele>45.0</ele><time>2026-05-03T07:31:14.483Z</time></trkpt><trkpt lat="39.2989283" lon="16.0549317"><ele>45.0</ele><time>2026-05-03T07:31:15.482Z</time></trkpt><trkpt lat="39.299095" lon="16.0548383"><ele>42.0</ele><time>2026-05-03T07:31:16.482Z</time></trkpt><trkpt lat="39.2992533" lon="16.05475"><ele>39.0</ele><time>2026-05-03T07:31:17.482Z</time></trkpt><trkpt lat="39.2994017" lon="16.054665"><ele>36.0</ele><time>2026-05-03T07:31:18.482Z</time></trkpt><trkpt lat="39.2995483" lon="16.0545867"><ele>36.0</ele><time>2026-05-03T07:31:19.482Z</time></trkpt><trkpt lat="39.2996967" lon="16.0545133"><ele>36.0</ele><time>2026-05-03T07:31:20.483Z</time></trkpt><trkpt lat="39.2998467" lon="16.0544367"><ele>36.0</ele><time>2026-05-03T07:31:21.482Z</time></trkpt><trkpt lat="39.3000067" lon="16.05436"><ele>38.0</ele><time>2026-05-03T07:31:22.481Z</time></trkpt><trkpt lat="39.3001683" lon="16.054285"><ele>40.0</ele><time>2026-05-03T07:31:23.483Z</time></trkpt><trkpt lat="39.3003283" lon="16.054215"><ele>42.0</ele><time>2026-05-03T07:31:24.483Z</time></trkpt><trkpt lat="39.3004867" lon="16.0541467"><ele>39.666666666666664</ele><time>2026-05-03T07:31:25.485Z</time></trkpt><trkpt lat="39.3006383" lon="16.0540833"><ele>37.33333333333333</ele><time>2026-05-03T07:31:26.482Z</time></trkpt><trkpt lat="39.3007833" lon="16.054025"><ele>35.0</ele><time>2026-05-03T07:31:27.482Z</time></trkpt><trkpt lat="39.3009233" lon="16.05397"><ele>35.0</ele><time>2026-05-03T07:31:28.485Z</time></trkpt><trkpt lat="39.30106" lon="16.053915"><ele>35.0</ele><time>2026-05-03T07:31:29.484Z</time></trkpt><trkpt lat="39.3011983" lon="16.0538617"><ele>35.0</ele><time>2026-05-03T07:31:30.484Z</time></trkpt><trkpt lat="39.3013317" lon="16.0538083"><ele>35.0</ele><time>2026-05-03T07:31:31.484Z</time></trkpt><trkpt lat="39.30146" lon="16.0537533"><ele>36.25</ele><time>2026-05-03T07:31:32.485Z</time></trkpt><trkpt lat="39.3015917" lon="16.0536983"><ele>37.5</ele><time>2026-05-03T07:31:33.484Z</time></trkpt><trkpt lat="39.3017317" lon="16.0536417"><ele>38.75</ele><time>2026-05-03T07:31:34.484Z</time></trkpt><trkpt lat="39.3018733" lon="16.0535817"><ele>40.0</ele><time>2026-05-03T07:31:35.484Z</time></trkpt><trkpt lat="39.302015" lon="16.0535217"><ele>40.0</ele><time>2026-05-03T07:31:36.483Z</time></trkpt><trkpt lat="39.3021467" lon="16.0534667"><ele>40.0</ele><time>2026-05-03T07:31:37.483Z</time></trkpt><trkpt lat="39.30227" lon="16.0534167"><ele>40.0</ele><time>2026-05-03T07:31:38.486Z</time></trkpt><trkpt lat="39.3023883" lon="16.0533683"><ele>40.0</ele><time>2026-05-03T07:31:39.484Z</time></trkpt><trkpt lat="39.3025067" lon="16.0533233"><ele>39.5</ele><time>2026-05-03T07:31:40.484Z</time></trkpt><trkpt lat="39.3026267" lon="16.053275"><ele>39.0</ele><time>2026-05-03T07:31:41.484Z</time></trkpt><trkpt lat="39.3027533" lon="16.0532233"><ele>38.5</ele><time>2026-05-03T07:31:42.484Z</time></trkpt><trkpt lat="39.3028867" lon="16.0531683"><ele>38.0</ele><time>2026-05-03T07:31:43.484Z</time></trkpt><trkpt lat="39.3030267" lon="16.05311"><ele>40.666666666666664</ele><time>2026-05-03T07:31:44.481Z</time></trkpt><trkpt lat="39.30317" lon="16.0530517"><ele>43.333333333333336</ele><time>2026-05-03T07:31:45.482Z</time></trkpt><trkpt lat="39.3033133" lon="16.0529933"><ele>46.0</ele><time>2026-05-03T07:31:46.482Z</time></trkpt><trkpt lat="39.3034583" lon="16.05294"><ele>46.0</ele><time>2026-05-03T07:31:47.481Z</time></trkpt><trkpt lat="39.30361" lon="16.0528917"><ele>46.0</ele><time>2026-05-03T07:31:48.483Z</time></trkpt><trkpt lat="39.3037683" lon="16.0528517"><ele>46.0</ele><time>2026-05-03T07:31:49.482Z</time></trkpt><trkpt lat="39.3039233" lon="16.0528233"><ele>47.25</ele><time>2026-05-03T07:31:50.482Z</time></trkpt><trkpt lat="39.3040717" lon="16.0528083"><ele>48.5</ele><time>2026-05-03T07:31:51.482Z</time></trkpt><trkpt lat="39.3042133" lon="16.0527983"><ele>49.75</ele><time>2026-05-03T07:31:52.482Z</time></trkpt><trkpt lat="39.30435" lon="16.052795"><ele>51.0</ele><time>2026-05-03T07:31:53.482Z</time></trkpt><trkpt lat="39.304475" lon="16.0527967"><ele>51.0</ele><time>2026-05-03T07:31:54.482Z</time></trkpt><trkpt lat="39.3045933" lon="16.0528"><ele>51.0</ele><time>2026-05-03T07:31:55.482Z</time></trkpt><trkpt lat="39.3047167" lon="16.0528083"><ele>51.0</ele><time>2026-05-03T07:31:56.483Z</time></trkpt><trkpt lat="39.3048417" lon="16.0528183"><ele>51.0</ele><time>2026-05-03T07:31:57.482Z</time></trkpt><trkpt lat="39.3049817" lon="16.0528367"><ele>53.0</ele><time>2026-05-03T07:31:58.483Z</time></trkpt><trkpt lat="39.3051317" lon="16.0528683"><ele>55.0</ele><time>2026-05-03T07:31:59.483Z</time></trkpt><trkpt lat="39.3052817" lon="16.0529083"><ele>57.0</ele><time>2026-05-03T07:32:00.482Z</time></trkpt><trkpt lat="39.3054417" lon="16.0529583"><ele>57.0</ele><time>2026-05-03T07:32:01.483Z</time></trkpt><trkpt lat="39.305615" lon="16.0530117"><ele>57.0</ele><time>2026-05-03T07:32:02.482Z</time></trkpt><trkpt lat="39.3058" lon="16.0530733"><ele>57.0</ele><time>2026-05-03T07:32:03.482Z</time></trkpt><trkpt lat="39.3060033" lon="16.053135"><ele>57.0</ele><time>2026-05-03T07:32:04.481Z</time></trkpt><trkpt lat="39.30622" lon="16.0531933"><ele>57.0</ele><time>2026-05-03T07:32:05.481Z</time></trkpt><trkpt lat="39.3064567" lon="16.0532433"><ele>64.5</ele><time>2026-05-03T07:32:06.482Z</time></trkpt><trkpt lat="39.3067017" lon="16.05329"><ele>72.0</ele><time>2026-05-03T07:32:07.481Z</time></trkpt><trkpt lat="39.3069367" lon="16.05333"><ele>72.0</ele><time>2026-05-03T07:32:08.483Z</time></trkpt><trkpt lat="39.3071733" lon="16.0533717"><ele>72.0</ele><time>2026-05-03T07:32:09.481Z</time></trkpt><trkpt lat="39.3081333" lon="16.0535167"><ele>70.0</ele><time>2026-05-03T07:32:13.483Z</time></trkpt><trkpt lat="39.308395" lon="16.05325"><ele>68.0</ele><time>2026-05-03T07:32:14.482Z</time></trkpt><trkpt lat="39.3086017" lon="16.0530717"><ele>68.0</ele><time>2026-05-03T07:32:15.481Z</time></trkpt><trkpt lat="39.308835" lon="16.052995"><ele>68.0</ele><time>2026-05-03T07:32:16.482Z</time></trkpt><trkpt lat="39.3090667" lon="16.0529317"><ele>70.0</ele><time>2026-05-03T07:32:17.482Z</time></trkpt><trkpt lat="39.3092967" lon="16.0528883"><ele>72.0</ele><time>2026-05-03T07:32:18.482Z</time></trkpt><trkpt lat="39.3095233" lon="16.0528617"><ele>74.0</ele><time>2026-05-03T07:32:19.482Z</time></trkpt><trkpt lat="39.30975" lon="16.0528517"><ele>76.0</ele><time>2026-05-03T07:32:20.482Z</time></trkpt><trkpt lat="39.3099817" lon="16.052855"><ele>76.0</ele><time>2026-05-03T07:32:21.482Z</time></trkpt><trkpt lat="39.3102183" lon="16.0528667"><ele>76.0</ele><time>2026-05-03T07:32:22.481Z</time></trkpt><trkpt lat="39.31046" lon="16.0528783"><ele>75.0</ele><time>2026-05-03T07:32:23.481Z</time></trkpt><trkpt lat="39.3107067" lon="16.0528883"><ele>74.0</ele><time>2026-05-03T07:32:24.482Z</time></trkpt><trkpt lat="39.3109583" lon="16.0529"><ele>74.0</ele><time>2026-05-03T07:32:25.482Z</time></trkpt><trkpt lat="39.31121" lon="16.0529133"><ele>74.0</ele><time>2026-05-03T07:32:26.484Z</time></trkpt><trkpt lat="39.3114583" lon="16.0529267"><ele>75.0</ele><time>2026-05-03T07:32:27.483Z</time></trkpt><trkpt lat="39.3117033" lon="16.0529467"><ele>76.0</ele><time>2026-05-03T07:32:28.484Z</time></trkpt><trkpt lat="39.3119367" lon="16.0529683"><ele>76.0</ele><time>2026-05-03T07:32:29.485Z</time></trkpt><trkpt lat="39.3121567" lon="16.0529933"><ele>76.0</ele><time>2026-05-03T07:32:30.483Z</time></trkpt><trkpt lat="39.3123667" lon="16.053015"><ele>76.0</ele><time>2026-05-03T07:32:31.484Z</time></trkpt><trkpt lat="39.3125733" lon="16.0530367"><ele>75.33333333333333</ele><time>2026-05-03T07:32:32.484Z</time></trkpt><trkpt lat="39.3127733" lon="16.0530567"><ele>74.66666666666667</ele><time>2026-05-03T07:32:33.482Z</time></trkpt><trkpt lat="39.3129717" lon="16.05307"><ele>74.0</ele><time>2026-05-03T07:32:34.484Z</time></trkpt><trkpt lat="39.3131717" lon="16.0530833"><ele>73.33333333333334</ele><time>2026-05-03T07:32:35.484Z</time></trkpt><trkpt lat="39.3133717" lon="16.0530983"><ele>72.66666666666667</ele><time>2026-05-03T07:32:36.484Z</time></trkpt><trkpt lat="39.3135717" lon="16.05311"><ele>72.0</ele><time>2026-05-03T07:32:37.484Z</time></trkpt><trkpt lat="39.3137717" lon="16.053125"><ele>71.66666666666667</ele><time>2026-05-03T07:32:38.484Z</time></trkpt><trkpt lat="39.31397" lon="16.0531383"><ele>71.33333333333334</ele><time>2026-05-03T07:32:39.482Z</time></trkpt><trkpt lat="39.3141667" lon="16.0531533"><ele>71.0</ele><time>2026-05-03T07:32:40.482Z</time></trkpt><trkpt lat="39.314365" lon="16.0531667"><ele>71.0</ele><time>2026-05-03T07:32:41.48Z</time></trkpt><trkpt lat="39.3145633" lon="16.0531783"><ele>71.0</ele><time>2026-05-03T07:32:42.482Z</time></trkpt><trkpt lat="39.314765" lon="16.053195"><ele>71.0</ele><time>2026-05-03T07:32:43.482Z</time></trkpt><trkpt lat="39.3149667" lon="16.0532133"><ele>72.0</ele><time>2026-05-03T07:32:44.481Z</time></trkpt><trkpt lat="39.31517" lon="16.0532317"><ele>73.0</ele><time>2026-05-03T07:32:45.482Z</time></trkpt><trkpt lat="39.3153717" lon="16.0532467"><ele>74.0</ele><time>2026-05-03T07:32:46.482Z</time></trkpt><trkpt lat="39.3155733" lon="16.05326"><ele>74.0</ele><time>2026-05-03T07:32:47.482Z</time></trkpt><trkpt lat="39.3157717" lon="16.0532733"><ele>74.0</ele><time>2026-05-03T07:32:48.483Z</time></trkpt><trkpt lat="39.31597" lon="16.0532883"><ele>74.0</ele><time>2026-05-03T07:32:49.482Z</time></trkpt><trkpt lat="39.3161667" lon="16.053305"><ele>76.0</ele><time>2026-05-03T07:32:50.482Z</time></trkpt><trkpt lat="39.3163617" lon="16.0533233"><ele>78.0</ele><time>2026-05-03T07:32:51.486Z</time></trkpt><trkpt lat="39.3165567" lon="16.0533417"><ele>80.0</ele><time>2026-05-03T07:32:52.481Z</time></trkpt><trkpt lat="39.3167533" lon="16.0533583"><ele>80.0</ele><time>2026-05-03T07:32:53.481Z</time></trkpt><trkpt lat="39.3169483" lon="16.05337"><ele>80.0</ele><time>2026-05-03T07:32:54.481Z</time></trkpt><trkpt lat="39.3171483" lon="16.0533717"><ele>80.0</ele><time>2026-05-03T07:32:55.482Z</time></trkpt><trkpt lat="39.31735" lon="16.0533617"><ele>79.66666666666667</ele><time>2026-05-03T07:32:56.482Z</time></trkpt><trkpt lat="39.3175533" lon="16.0533333"><ele>79.33333333333333</ele><time>2026-05-03T07:32:57.482Z</time></trkpt><trkpt lat="39.31776" lon="16.0532833"><ele>79.0</ele><time>2026-05-03T07:32:58.482Z</time></trkpt><trkpt lat="39.3179683" lon="16.05321"><ele>77.66666666666666</ele><time>2026-05-03T07:32:59.482Z</time></trkpt><trkpt lat="39.3181783" lon="16.0531217"><ele>76.33333333333333</ele><time>2026-05-03T07:33:00.482Z</time></trkpt><trkpt lat="39.318385" lon="16.0530317"><ele>75.0</ele><time>2026-05-03T07:33:01.483Z</time></trkpt><trkpt lat="39.3185867" lon="16.05294"><ele>75.0</ele><time>2026-05-03T07:33:02.482Z</time></trkpt><trkpt lat="39.3187833" lon="16.05285"><ele>75.0</ele><time>2026-05-03T07:33:03.483Z</time></trkpt><trkpt lat="39.31898" lon="16.0527617"><ele>75.0</ele><time>2026-05-03T07:33:04.481Z</time></trkpt><trkpt lat="39.3191733" lon="16.05268"><ele>75.66666666666667</ele><time>2026-05-03T07:33:05.485Z</time></trkpt><trkpt lat="39.319355" lon="16.0525967"><ele>76.33333333333334</ele><time>2026-05-03T07:33:06.482Z</time></trkpt><trkpt lat="39.3195267" lon="16.0525117"><ele>77.0</ele><time>2026-05-03T07:33:07.483Z</time></trkpt><trkpt lat="39.319685" lon="16.0524267"><ele>76.0</ele><time>2026-05-03T07:33:08.484Z</time></trkpt><trkpt lat="39.319835" lon="16.0523483"><ele>75.0</ele><time>2026-05-03T07:33:09.482Z</time></trkpt><trkpt lat="39.31997" lon="16.0522817"><ele>74.0</ele><time>2026-05-03T07:33:10.484Z</time></trkpt><trkpt lat="39.32009" lon="16.0522317"><ele>73.0</ele><time>2026-05-03T07:33:11.484Z</time></trkpt><trkpt lat="39.3202017" lon="16.0522"><ele>73.0</ele><time>2026-05-03T07:33:12.484Z</time></trkpt><trkpt lat="39.32031" lon="16.0521917"><ele>73.0</ele><time>2026-05-03T07:33:13.484Z</time></trkpt><trkpt lat="39.3204133" lon="16.0521717"><ele>73.0</ele><time>2026-05-03T07:33:14.484Z</time></trkpt><trkpt lat="39.320505" lon="16.05212"><ele>73.0</ele><time>2026-05-03T07:33:15.483Z</time></trkpt><trkpt lat="39.320595" lon="16.0520483"><ele>73.0</ele><time>2026-05-03T07:33:16.482Z</time></trkpt><trkpt lat="39.320705" lon="16.0519917"><ele>71.0</ele><time>2026-05-03T07:33:17.482Z</time></trkpt><trkpt lat="39.3208517" lon="16.0519533"><ele>69.0</ele><time>2026-05-03T07:33:18.482Z</time></trkpt><trkpt lat="39.3210217" lon="16.051925"><ele>67.0</ele><time>2026-05-03T07:33:19.483Z</time></trkpt><trkpt lat="39.3212083" lon="16.051885"><ele>64.66666666666666</ele><time>2026-05-03T07:33:20.484Z</time></trkpt><trkpt lat="39.3214033" lon="16.0518283"><ele>62.33333333333333</ele><time>2026-05-03T07:33:21.482Z</time></trkpt><trkpt lat="39.3215967" lon="16.05177"><ele>60.0</ele><time>2026-05-03T07:33:22.484Z</time></trkpt><trkpt lat="39.3217817" lon="16.0517117"><ele>60.0</ele><time>2026-05-03T07:33:23.482Z</time></trkpt><trkpt lat="39.32196" lon="16.0516567"><ele>60.0</ele><time>2026-05-03T07:33:24.482Z</time></trkpt><trkpt lat="39.32213" lon="16.0515983"><ele>60.0</ele><time>2026-05-03T07:33:25.482Z</time></trkpt><trkpt lat="39.3222933" lon="16.0515317"><ele>57.66666666666667</ele><time>2026-05-03T07:33:26.483Z</time></trkpt><trkpt lat="39.3224517" lon="16.05145"><ele>55.333333333333336</ele><time>2026-05-03T07:33:27.486Z</time></trkpt><trkpt lat="39.3226083" lon="16.0513483"><ele>53.0</ele><time>2026-05-03T07:33:28.482Z</time></trkpt><trkpt lat="39.322765" lon="16.0512333"><ele>53.0</ele><time>2026-05-03T07:33:29.483Z</time></trkpt><trkpt lat="39.3229283" lon="16.051115"><ele>53.0</ele><time>2026-05-03T07:33:30.482Z</time></trkpt><trkpt lat="39.3230967" lon="16.0509917"><ele>53.0</ele><time>2026-05-03T07:33:31.483Z</time></trkpt><trkpt lat="39.32327" lon="16.0508683"><ele>50.333333333333336</ele><time>2026-05-03T07:33:32.483Z</time></trkpt><trkpt lat="39.3234467" lon="16.0507383"><ele>47.66666666666667</ele><time>2026-05-03T07:33:33.483Z</time></trkpt><trkpt lat="39.323625" lon="16.0506017"><ele>45.0</ele><time>2026-05-03T07:33:34.482Z</time></trkpt><trkpt lat="39.3237967" lon="16.0504583"><ele>47.66666666666667</ele><time>2026-05-03T07:33:35.483Z</time></trkpt><trkpt lat="39.3239633" lon="16.0503133"><ele>50.333333333333336</ele><time>2026-05-03T07:33:36.484Z</time></trkpt><trkpt lat="39.3241217" lon="16.0501667"><ele>53.0</ele><time>2026-05-03T07:33:37.485Z</time></trkpt><trkpt lat="39.3242767" lon="16.050015"><ele>50.333333333333336</ele><time>2026-05-03T07:33:38.482Z</time></trkpt><trkpt lat="39.324425" lon="16.04986"><ele>47.66666666666667</ele><time>2026-05-03T07:33:39.481Z</time></trkpt><trkpt lat="39.32457" lon="16.0496967"><ele>45.0</ele><time>2026-05-03T07:33:40.482Z</time></trkpt><trkpt lat="39.3247133" lon="16.0495267"><ele>45.333333333333336</ele><time>2026-05-03T07:33:41.481Z</time></trkpt><trkpt lat="39.3248567" lon="16.0493567"><ele>45.66666666666667</ele><time>2026-05-03T07:33:42.481Z</time></trkpt><trkpt lat="39.3250033" lon="16.0491883"><ele>46.0</ele><time>2026-05-03T07:33:43.483Z</time></trkpt><trkpt lat="39.3251533" lon="16.0490217"><ele>46.0</ele><time>2026-05-03T07:33:44.482Z</time></trkpt><trkpt lat="39.3253083" lon="16.0488583"><ele>46.0</ele><time>2026-05-03T07:33:45.482Z</time></trkpt><trkpt lat="39.3254717" lon="16.048705"><ele>46.0</ele><time>2026-05-03T07:33:46.481Z</time></trkpt><trkpt lat="39.325635" lon="16.048565"><ele>43.66666666666667</ele><time>2026-05-03T07:33:47.482Z</time></trkpt><trkpt lat="39.3258033" lon="16.0484467"><ele>41.333333333333336</ele><time>2026-05-03T07:33:48.482Z</time></trkpt><trkpt lat="39.3259767" lon="16.0483483"><ele>39.0</ele><time>2026-05-03T07:33:49.482Z</time></trkpt><trkpt lat="39.3261533" lon="16.0482617"><ele>39.0</ele><time>2026-05-03T07:33:50.484Z</time></trkpt><trkpt lat="39.3263233" lon="16.04819"><ele>39.0</ele><time>2026-05-03T07:33:51.481Z</time></trkpt><trkpt lat="39.326485" lon="16.0481317"><ele>39.0</ele><time>2026-05-03T07:33:52.482Z</time></trkpt><trkpt lat="39.3266467" lon="16.048085"><ele>40.333333333333336</ele><time>2026-05-03T07:33:53.481Z</time></trkpt><trkpt lat="39.3268217" lon="16.0480383"><ele>41.66666666666667</ele><time>2026-05-03T07:33:54.482Z</time></trkpt><trkpt lat="39.3270033" lon="16.047995"><ele>43.0</ele><time>2026-05-03T07:33:55.482Z</time></trkpt><trkpt lat="39.3271967" lon="16.04795"><ele>43.333333333333336</ele><time>2026-05-03T07:33:56.482Z</time></trkpt><trkpt lat="39.3274" lon="16.0479017"><ele>43.666666666666664</ele><time>2026-05-03T07:33:57.482Z</time></trkpt><trkpt lat="39.32761" lon="16.0478517"><ele>44.0</ele><time>2026-05-03T07:33:58.483Z</time></trkpt><trkpt lat="39.3278233" lon="16.0477983"><ele>44.0</ele><time>2026-05-03T07:33:59.481Z</time></trkpt><trkpt lat="39.3280433" lon="16.0477417"><ele>44.0</ele><time>2026-05-03T07:34:00.483Z</time></trkpt><trkpt lat="39.32827" lon="16.0476867"><ele>45.5</ele><time>2026-05-03T07:34:01.483Z</time></trkpt><trkpt lat="39.3285017" lon="16.0476267"><ele>47.0</ele><time>2026-05-03T07:34:02.482Z</time></trkpt><trkpt lat="39.3287367" lon="16.0475683"><ele>49.5</ele><time>2026-05-03T07:34:03.482Z</time></trkpt><trkpt lat="39.3289683" lon="16.0475083"><ele>52.0</ele><time>2026-05-03T07:34:04.482Z</time></trkpt><trkpt lat="39.3292033" lon="16.0474467"><ele>45.5</ele><time>2026-05-03T07:34:05.483Z</time></trkpt><trkpt lat="39.32944" lon="16.0473833"><ele>39.0</ele><time>2026-05-03T07:34:06.484Z</time></trkpt><trkpt lat="39.3296783" lon="16.0473233"><ele>45.0</ele><time>2026-05-03T07:34:07.483Z</time></trkpt><trkpt lat="39.3299183" lon="16.0472633"><ele>51.0</ele><time>2026-05-03T07:34:08.484Z</time></trkpt><trkpt lat="39.330165" lon="16.0472067"><ele>51.0</ele><time>2026-05-03T07:34:09.482Z</time></trkpt><trkpt lat="39.3304133" lon="16.0471483"><ele>51.0</ele><time>2026-05-03T07:34:10.484Z</time></trkpt><trkpt lat="39.330655" lon="16.047085"><ele>57.0</ele><time>2026-05-03T07:34:11.484Z</time></trkpt><trkpt lat="39.33089" lon="16.0470217"><ele>63.0</ele><time>2026-05-03T07:34:12.483Z</time></trkpt><trkpt lat="39.3311217" lon="16.0469633"><ele>63.0</ele><time>2026-05-03T07:34:13.483Z</time></trkpt><trkpt lat="39.3313533" lon="16.046905"><ele>63.0</ele><time>2026-05-03T07:34:14.485Z</time></trkpt><trkpt lat="39.3315817" lon="16.0468467"><ele>64.0</ele><time>2026-05-03T07:34:15.482Z</time></trkpt><trkpt lat="39.331805" lon="16.0467917"><ele>65.0</ele><time>2026-05-03T07:34:16.486Z</time></trkpt><trkpt lat="39.3320233" lon="16.0467383"><ele>66.0</ele><time>2026-05-03T07:34:17.482Z</time></trkpt><trkpt lat="39.3322417" lon="16.0466833"><ele>63.66666666666667</ele><time>2026-05-03T07:34:18.483Z</time></trkpt><trkpt lat="39.33246" lon="16.04663"><ele>61.333333333333336</ele><time>2026-05-03T07:34:19.482Z</time></trkpt><trkpt lat="39.3326817" lon="16.0465717"><ele>59.0</ele><time>2026-05-03T07:34:20.482Z</time></trkpt><trkpt lat="39.332905" lon="16.0465133"><ele>63.0</ele><time>2026-05-03T07:34:21.481Z</time></trkpt><trkpt lat="39.3331317" lon="16.0464583"><ele>67.0</ele><time>2026-05-03T07:34:22.483Z</time></trkpt><trkpt lat="39.3333583" lon="16.0464017"><ele>67.0</ele><time>2026-05-03T07:34:23.482Z</time></trkpt><trkpt lat="39.3335867" lon="16.0463417"><ele>67.0</ele><time>2026-05-03T07:34:24.483Z</time></trkpt><trkpt lat="39.333815" lon="16.046285"><ele>68.5</ele><time>2026-05-03T07:34:25.483Z</time></trkpt><trkpt lat="39.3340417" lon="16.0462267"><ele>70.0</ele><time>2026-05-03T07:34:26.484Z</time></trkpt><trkpt lat="39.3342683" lon="16.0461667"><ele>70.0</ele><time>2026-05-03T07:34:27.482Z</time></trkpt><trkpt lat="39.3344967" lon="16.04611"><ele>70.0</ele><time>2026-05-03T07:34:28.483Z</time></trkpt><trkpt lat="39.3347267" lon="16.0460583"><ele>75.0</ele><time>2026-05-03T07:34:29.482Z</time></trkpt><trkpt lat="39.3349567" lon="16.0460083"><ele>80.0</ele><time>2026-05-03T07:34:30.483Z</time></trkpt><trkpt lat="39.33519" lon="16.0459533"><ele>80.0</ele><time>2026-05-03T07:34:31.482Z</time></trkpt><trkpt lat="39.3354217" lon="16.045895"><ele>80.0</ele><time>2026-05-03T07:34:32.483Z</time></trkpt><trkpt lat="39.3356567" lon="16.0458283"><ele>73.5</ele><time>2026-05-03T07:34:33.482Z</time></trkpt><trkpt lat="39.3358933" lon="16.0457633"><ele>67.0</ele><time>2026-05-03T07:34:34.482Z</time></trkpt><trkpt lat="39.3361367" lon="16.0457017"><ele>67.0</ele><time>2026-05-03T07:34:35.481Z</time></trkpt><trkpt lat="39.3363833" lon="16.0456433"><ele>67.0</ele><time>2026-05-03T07:34:36.482Z</time></trkpt><trkpt lat="39.3366283" lon="16.04558"><ele>62.5</ele><time>2026-05-03T07:34:37.484Z</time></trkpt><trkpt lat="39.3368617" lon="16.0455217"><ele>58.0</ele><time>2026-05-03T07:34:38.484Z</time></trkpt><trkpt lat="39.3370783" lon="16.045465"><ele>57.666666666666664</ele><time>2026-05-03T07:34:39.484Z</time></trkpt><trkpt lat="39.3372767" lon="16.0454117"><ele>57.33333333333333</ele><time>2026-05-03T07:34:40.484Z</time></trkpt><trkpt lat="39.3374467" lon="16.0453683"><ele>57.0</ele><time>2026-05-03T07:34:41.485Z</time></trkpt><trkpt lat="39.337605" lon="16.0453317"><ele>57.0</ele><time>2026-05-03T07:34:42.483Z</time></trkpt><trkpt lat="39.3377567" lon="16.0452967"><ele>57.0</ele><time>2026-05-03T07:34:43.484Z</time></trkpt><trkpt lat="39.3378967" lon="16.0452583"><ele>57.0</ele><time>2026-05-03T07:34:44.483Z</time></trkpt><trkpt lat="39.33803" lon="16.045225"><ele>57.0</ele><time>2026-05-03T07:34:45.481Z</time></trkpt><trkpt lat="39.3381667" lon="16.0451883"><ele>58.0</ele><time>2026-05-03T07:34:46.482Z</time></trkpt><trkpt lat="39.3383183" lon="16.0451467"><ele>59.0</ele><time>2026-05-03T07:34:47.482Z</time></trkpt><trkpt lat="39.338485" lon="16.0451017"><ele>60.0</ele><time>2026-05-03T07:34:48.483Z</time></trkpt><trkpt lat="39.338655" lon="16.0450567"><ele>60.0</ele><time>2026-05-03T07:34:49.484Z</time></trkpt><trkpt lat="39.3388217" lon="16.0450167"><ele>60.0</ele><time>2026-05-03T07:34:50.484Z</time></trkpt><trkpt lat="39.3389883" lon="16.0449783"><ele>60.0</ele><time>2026-05-03T07:34:51.483Z</time></trkpt><trkpt lat="39.3391583" lon="16.0449367"><ele>59.0</ele><time>2026-05-03T07:34:52.483Z</time></trkpt><trkpt lat="39.3393283" lon="16.0448933"><ele>58.0</ele><time>2026-05-03T07:34:53.484Z</time></trkpt><trkpt lat="39.3394967" lon="16.0448517"><ele>57.0</ele><time>2026-05-03T07:34:54.483Z</time></trkpt><trkpt lat="39.339665" lon="16.0448117"><ele>58.33333333333333</ele><time>2026-05-03T07:34:55.484Z</time></trkpt><trkpt lat="39.33983" lon="16.0447717"><ele>59.666666666666664</ele><time>2026-05-03T07:34:56.485Z</time></trkpt><trkpt lat="39.3399967" lon="16.04473"><ele>61.0</ele><time>2026-05-03T07:34:57.484Z</time></trkpt><trkpt lat="39.3401633" lon="16.0446867"><ele>61.0</ele><time>2026-05-03T07:34:58.484Z</time></trkpt><trkpt lat="39.3403267" lon="16.0446433"><ele>61.0</ele><time>2026-05-03T07:34:59.485Z</time></trkpt><trkpt lat="39.34049" lon="16.0446033"><ele>61.0</ele><time>2026-05-03T07:35:00.483Z</time></trkpt><trkpt lat="39.3406567" lon="16.0445667"><ele>64.0</ele><time>2026-05-03T07:35:01.485Z</time></trkpt><trkpt lat="39.340825" lon="16.0445317"><ele>67.0</ele><time>2026-05-03T07:35:02.485Z</time></trkpt><trkpt lat="39.3409983" lon="16.0445017"><ele>70.0</ele><time>2026-05-03T07:35:03.484Z</time></trkpt><trkpt lat="39.3411817" lon="16.0444733"><ele>70.0</ele><time>2026-05-03T07:35:04.484Z</time></trkpt><trkpt lat="39.341375" lon="16.0444517"><ele>70.0</ele><time>2026-05-03T07:35:05.483Z</time></trkpt><trkpt lat="39.3415767" lon="16.0444417"><ele>70.0</ele><time>2026-05-03T07:35:06.481Z</time></trkpt><trkpt lat="39.34179" lon="16.0444433"><ele>69.0</ele><time>2026-05-03T07:35:07.482Z</time></trkpt><trkpt lat="39.3420133" lon="16.0444583"><ele>68.0</ele><time>2026-05-03T07:35:08.482Z</time></trkpt><trkpt lat="39.3422433" lon="16.044485"><ele>65.5</ele><time>2026-05-03T07:35:09.483Z</time></trkpt><trkpt lat="39.3424733" lon="16.0445167"><ele>63.0</ele><time>2026-05-03T07:35:10.482Z</time></trkpt><trkpt lat="39.3427067" lon="16.0445483"><ele>63.0</ele><time>2026-05-03T07:35:11.482Z</time></trkpt><trkpt lat="39.34294" lon="16.044585"><ele>63.0</ele><time>2026-05-03T07:35:12.484Z</time></trkpt><trkpt lat="39.3431667" lon="16.044625"><ele>63.0</ele><time>2026-05-03T07:35:13.482Z</time></trkpt><trkpt lat="39.3433867" lon="16.0446583"><ele>63.0</ele><time>2026-05-03T07:35:14.482Z</time></trkpt><trkpt lat="39.3436" lon="16.0446983"><ele>63.0</ele><time>2026-05-03T07:35:15.483Z</time></trkpt><trkpt lat="39.3438083" lon="16.0447233"><ele>64.0</ele><time>2026-05-03T07:35:16.483Z</time></trkpt><trkpt lat="39.3440067" lon="16.044745"><ele>65.0</ele><time>2026-05-03T07:35:17.482Z</time></trkpt><trkpt lat="39.3442" lon="16.0447583"><ele>66.0</ele><time>2026-05-03T07:35:18.484Z</time></trkpt><trkpt lat="39.3443917" lon="16.04476"><ele>66.0</ele><time>2026-05-03T07:35:19.483Z</time></trkpt><trkpt lat="39.34458" lon="16.0447533"><ele>66.0</ele><time>2026-05-03T07:35:20.483Z</time></trkpt><trkpt lat="39.3447683" lon="16.0447433"><ele>66.0</ele><time>2026-05-03T07:35:21.483Z</time></trkpt><trkpt lat="39.3449583" lon="16.04472"><ele>66.66666666666667</ele><time>2026-05-03T07:35:22.483Z</time></trkpt><trkpt lat="39.3451517" lon="16.04469"><ele>67.33333333333334</ele><time>2026-05-03T07:35:23.484Z</time></trkpt><trkpt lat="39.3453467" lon="16.0446583"><ele>68.0</ele><time>2026-05-03T07:35:24.481Z</time></trkpt><trkpt lat="39.3455467" lon="16.044625"><ele>70.66666666666667</ele><time>2026-05-03T07:35:25.483Z</time></trkpt><trkpt lat="39.3457467" lon="16.0445917"><ele>73.33333333333333</ele><time>2026-05-03T07:35:26.481Z</time></trkpt><trkpt lat="39.3459483" lon="16.0445583"><ele>76.0</ele><time>2026-05-03T07:35:27.484Z</time></trkpt><trkpt lat="39.3461517" lon="16.0445233"><ele>76.0</ele><time>2026-05-03T07:35:28.482Z</time></trkpt><trkpt lat="39.3463483" lon="16.0444933"><ele>76.0</ele><time>2026-05-03T07:35:29.482Z</time></trkpt><trkpt lat="39.3465317" lon="16.0444683"><ele>76.0</ele><time>2026-05-03T07:35:30.482Z</time></trkpt><trkpt lat="39.3466967" lon="16.0444483"><ele>78.66666666666666</ele><time>2026-05-03T07:35:31.482Z</time></trkpt><trkpt lat="39.3468483" lon="16.0444317"><ele>81.33333333333333</ele><time>2026-05-03T07:35:32.482Z</time></trkpt><trkpt lat="39.347" lon="16.04441"><ele>84.0</ele><time>2026-05-03T07:35:33.483Z</time></trkpt><trkpt lat="39.34716" lon="16.044385"><ele>85.66666666666667</ele><time>2026-05-03T07:35:34.481Z</time></trkpt><trkpt lat="39.3473233" lon="16.04436"><ele>87.33333333333334</ele><time>2026-05-03T07:35:35.481Z</time></trkpt><trkpt lat="39.347495" lon="16.0443367"><ele>89.0</ele><time>2026-05-03T07:35:36.482Z</time></trkpt><trkpt lat="39.34767" lon="16.0443217"><ele>89.0</ele><time>2026-05-03T07:35:37.482Z</time></trkpt><trkpt lat="39.34785" lon="16.0443233"><ele>89.0</ele><time>2026-05-03T07:35:38.483Z</time></trkpt><trkpt lat="39.3480283" lon="16.0443433"><ele>89.0</ele><time>2026-05-03T07:35:39.482Z</time></trkpt><trkpt lat="39.3482067" lon="16.04438"><ele>90.33333333333334</ele><time>2026-05-03T07:35:40.482Z</time></trkpt><trkpt lat="39.3483817" lon="16.044425"><ele>91.66666666666667</ele><time>2026-05-03T07:35:41.482Z</time></trkpt><trkpt lat="39.3485533" lon="16.0444683"><ele>93.0</ele><time>2026-05-03T07:35:42.482Z</time></trkpt><trkpt lat="39.348735" lon="16.044515"><ele>94.33333333333334</ele><time>2026-05-03T07:35:43.482Z</time></trkpt><trkpt lat="39.3489183" lon="16.04457"><ele>95.66666666666667</ele><time>2026-05-03T07:35:44.483Z</time></trkpt><trkpt lat="39.3491017" lon="16.04463"><ele>97.0</ele><time>2026-05-03T07:35:45.481Z</time></trkpt><trkpt lat="39.3492883" lon="16.0446967"><ele>97.0</ele><time>2026-05-03T07:35:46.483Z</time></trkpt><trkpt lat="39.349485" lon="16.0447617"><ele>97.0</ele><time>2026-05-03T07:35:47.482Z</time></trkpt><trkpt lat="39.3496833" lon="16.044825"><ele>97.0</ele><time>2026-05-03T07:35:48.484Z</time></trkpt><trkpt lat="39.3498817" lon="16.0448933"><ele>97.66666666666667</ele><time>2026-05-03T07:35:49.483Z</time></trkpt><trkpt lat="39.35008" lon="16.0449617"><ele>98.33333333333334</ele><time>2026-05-03T07:35:50.484Z</time></trkpt><trkpt lat="39.3502733" lon="16.0450283"><ele>99.0</ele><time>2026-05-03T07:35:51.484Z</time></trkpt><trkpt lat="39.35047" lon="16.0450983"><ele>99.66666666666666</ele><time>2026-05-03T07:35:52.484Z</time></trkpt><trkpt lat="39.3506683" lon="16.0451683"><ele>100.33333333333333</ele><time>2026-05-03T07:35:53.484Z</time></trkpt><trkpt lat="39.3508717" lon="16.0452383"><ele>101.0</ele><time>2026-05-03T07:35:54.482Z</time></trkpt><trkpt lat="39.3510833" lon="16.0453083"><ele>101.0</ele><time>2026-05-03T07:35:55.482Z</time></trkpt><trkpt lat="39.3512933" lon="16.0453817"><ele>101.0</ele><time>2026-05-03T07:35:56.484Z</time></trkpt><trkpt lat="39.3515033" lon="16.045455"><ele>101.0</ele><time>2026-05-03T07:35:57.482Z</time></trkpt><trkpt lat="39.35171" lon="16.045525"><ele>102.33333333333333</ele><time>2026-05-03T07:35:58.482Z</time></trkpt><trkpt lat="39.3519167" lon="16.0455867"><ele>103.66666666666666</ele><time>2026-05-03T07:35:59.482Z</time></trkpt><trkpt lat="39.352125" lon="16.0456367"><ele>105.0</ele><time>2026-05-03T07:36:00.481Z</time></trkpt><trkpt lat="39.3523267" lon="16.0456817"><ele>107.0</ele><time>2026-05-03T07:36:01.482Z</time></trkpt><trkpt lat="39.352525" lon="16.0457217"><ele>109.0</ele><time>2026-05-03T07:36:02.487Z</time></trkpt><trkpt lat="39.3527133" lon="16.045765"><ele>111.0</ele><time>2026-05-03T07:36:03.482Z</time></trkpt><trkpt lat="39.3528883" lon="16.0458033"><ele>114.66666666666666</ele><time>2026-05-03T07:36:04.483Z</time></trkpt><trkpt lat="39.3530533" lon="16.045835"><ele>118.33333333333333</ele><time>2026-05-03T07:36:05.483Z</time></trkpt><trkpt lat="39.3532133" lon="16.0458633"><ele>122.0</ele><time>2026-05-03T07:36:06.482Z</time></trkpt><trkpt lat="39.3533583" lon="16.04589"><ele>122.0</ele><time>2026-05-03T07:36:07.482Z</time></trkpt><trkpt lat="39.3534933" lon="16.0459133"><ele>122.0</ele><time>2026-05-03T07:36:08.482Z</time></trkpt><trkpt lat="39.353615" lon="16.0459367"><ele>122.0</ele><time>2026-05-03T07:36:09.482Z</time></trkpt><trkpt lat="39.353735" lon="16.0459583"><ele>122.0</ele><time>2026-05-03T07:36:10.483Z</time></trkpt><trkpt lat="39.353855" lon="16.04598"><ele>122.75</ele><time>2026-05-03T07:36:11.482Z</time></trkpt><trkpt lat="39.353975" lon="16.046005"><ele>123.5</ele><time>2026-05-03T07:36:12.483Z</time></trkpt><trkpt lat="39.3541017" lon="16.0460233"><ele>124.25</ele><time>2026-05-03T07:36:13.482Z</time></trkpt><trkpt lat="39.3542367" lon="16.04605"><ele>125.0</ele><time>2026-05-03T07:36:14.483Z</time></trkpt><trkpt lat="39.3543833" lon="16.04607"><ele>125.0</ele><time>2026-05-03T07:36:15.483Z</time></trkpt><trkpt lat="39.3545367" lon="16.04609"><ele>125.0</ele><time>2026-05-03T07:36:16.482Z</time></trkpt><trkpt lat="39.354695" lon="16.0461033"><ele>125.0</ele><time>2026-05-03T07:36:17.483Z</time></trkpt><trkpt lat="39.3548517" lon="16.046095"><ele>124.75</ele><time>2026-05-03T07:36:18.482Z</time></trkpt><trkpt lat="39.355005" lon="16.0460733"><ele>124.5</ele><time>2026-05-03T07:36:19.483Z</time></trkpt><trkpt lat="39.3551517" lon="16.0460367"><ele>124.25</ele><time>2026-05-03T07:36:20.483Z</time></trkpt><trkpt lat="39.3552883" lon="16.0459967"><ele>124.0</ele><time>2026-05-03T07:36:21.482Z</time></trkpt><trkpt lat="39.3554117" lon="16.0459483"><ele>124.0</ele><time>2026-05-03T07:36:22.482Z</time></trkpt><trkpt lat="39.355525" lon="16.0458917"><ele>124.0</ele><time>2026-05-03T07:36:23.483Z</time></trkpt><trkpt lat="39.355635" lon="16.0458317"><ele>124.0</ele><time>2026-05-03T07:36:24.481Z</time></trkpt><trkpt lat="39.3557467" lon="16.0457733"><ele>124.0</ele><time>2026-05-03T07:36:25.482Z</time></trkpt><trkpt lat="39.3558533" lon="16.0457183"><ele>121.80000000000001</ele><time>2026-05-03T07:36:26.483Z</time></trkpt><trkpt lat="39.3559567" lon="16.0456717"><ele>119.60000000000001</ele><time>2026-05-03T07:36:27.482Z</time></trkpt><trkpt lat="39.3560567" lon="16.0456267"><ele>117.4</ele><time>2026-05-03T07:36:28.482Z</time></trkpt><trkpt lat="39.3561533" lon="16.0455833"><ele>115.2</ele><time>2026-05-03T07:36:29.481Z</time></trkpt><trkpt lat="39.3562433" lon="16.0455433"><ele>113.0</ele><time>2026-05-03T07:36:30.481Z</time></trkpt><trkpt lat="39.3563217" lon="16.0455067"><ele>115.80000000000001</ele><time>2026-05-03T07:36:31.481Z</time></trkpt><trkpt lat="39.3563817" lon="16.0454817"><ele>118.60000000000001</ele><time>2026-05-03T07:36:32.482Z</time></trkpt><trkpt lat="39.356475" lon="16.04544"><ele>121.39999999999999</ele><time>2026-05-03T07:36:34.483Z</time></trkpt><trkpt lat="39.3565833" lon="16.0454133"><ele>124.19999999999999</ele><time>2026-05-03T07:36:36.482Z</time></trkpt><trkpt lat="39.3566983" lon="16.0454583"><ele>127.0</ele><time>2026-05-03T07:36:38.483Z</time></trkpt><trkpt lat="39.3568133" lon="16.04547"><ele>127.00000000000001</ele><time>2026-05-03T07:36:40.482Z</time></trkpt><trkpt lat="39.356875" lon="16.04543"><ele>127.0</ele><time>2026-05-03T07:36:41.482Z</time></trkpt><trkpt lat="39.3569383" lon="16.0453717"><ele>127.0</ele><time>2026-05-03T07:36:42.481Z</time></trkpt><trkpt lat="39.3570033" lon="16.0453017"><ele>127.0</ele><time>2026-05-03T07:36:43.481Z</time></trkpt><trkpt lat="39.3570833" lon="16.0452317"><ele>127.00000000000001</ele><time>2026-05-03T07:36:44.483Z</time></trkpt><trkpt lat="39.3571817" lon="16.0451767"><ele>127.0</ele><time>2026-05-03T07:36:45.482Z</time></trkpt><trkpt lat="39.3572967" lon="16.0451367"><ele>130.25</ele><time>2026-05-03T07:36:46.482Z</time></trkpt><trkpt lat="39.3574217" lon="16.0451033"><ele>133.5</ele><time>2026-05-03T07:36:47.482Z</time></trkpt><trkpt lat="39.357565" lon="16.0450717"><ele>136.75</ele><time>2026-05-03T07:36:48.482Z</time></trkpt><trkpt lat="39.3577183" lon="16.045035"><ele>140.0</ele><time>2026-05-03T07:36:49.481Z</time></trkpt><trkpt lat="39.3579067" lon="16.0450767"><ele>134.5</ele><time>2026-05-03T07:36:50.482Z</time></trkpt><trkpt lat="39.3581367" lon="16.04516"><ele>129.0</ele><time>2026-05-03T07:36:51.481Z</time></trkpt><trkpt lat="39.358395" lon="16.0452217"><ele>129.0</ele><time>2026-05-03T07:36:52.483Z</time></trkpt><trkpt lat="39.3586467" lon="16.0452767"><ele>129.0</ele><time>2026-05-03T07:36:53.482Z</time></trkpt><trkpt lat="39.3588833" lon="16.0453217"><ele>131.0</ele><time>2026-05-03T07:36:54.481Z</time></trkpt><trkpt lat="39.3591017" lon="16.0453583"><ele>133.0</ele><time>2026-05-03T07:36:55.483Z</time></trkpt><trkpt lat="39.359305" lon="16.0453883"><ele>135.0</ele><time>2026-05-03T07:36:56.482Z</time></trkpt><trkpt lat="39.3595017" lon="16.04542"><ele>138.33333333333334</ele><time>2026-05-03T07:36:57.481Z</time></trkpt><trkpt lat="39.3597067" lon="16.0454467"><ele>141.66666666666669</ele><time>2026-05-03T07:36:58.482Z</time></trkpt><trkpt lat="39.3599167" lon="16.0454733"><ele>145.0</ele><time>2026-05-03T07:36:59.483Z</time></trkpt><trkpt lat="39.3601333" lon="16.0454867"><ele>145.0</ele><time>2026-05-03T07:37:00.482Z</time></trkpt><trkpt lat="39.3603583" lon="16.0454783"><ele>145.0</ele><time>2026-05-03T07:37:01.481Z</time></trkpt><trkpt lat="39.3606" lon="16.04546"><ele>146.5</ele><time>2026-05-03T07:37:02.482Z</time></trkpt><trkpt lat="39.3608567" lon="16.045435"><ele>148.0</ele><time>2026-05-03T07:37:03.481Z</time></trkpt><trkpt lat="39.361135" lon="16.0454033"><ele>150.5</ele><time>2026-05-03T07:37:04.481Z</time></trkpt><trkpt lat="39.3614167" lon="16.0453733"><ele>153.0</ele><time>2026-05-03T07:37:05.481Z</time></trkpt><trkpt lat="39.3616817" lon="16.045345"><ele>153.0</ele><time>2026-05-03T07:37:06.482Z</time></trkpt><trkpt lat="39.3619317" lon="16.0453117"><ele>153.0</ele><time>2026-05-03T07:37:07.482Z</time></trkpt><trkpt lat="39.362175" lon="16.0452767"><ele>154.5</ele><time>2026-05-03T07:37:08.484Z</time></trkpt><trkpt lat="39.3624133" lon="16.04524"><ele>156.0</ele><time>2026-05-03T07:37:09.483Z</time></trkpt><trkpt lat="39.3626433" lon="16.0452117"><ele>156.0</ele><time>2026-05-03T07:37:10.482Z</time></trkpt><trkpt lat="39.362865" lon="16.0451767"><ele>156.0</ele><time>2026-05-03T07:37:11.482Z</time></trkpt><trkpt lat="39.36308" lon="16.0451233"><ele>156.0</ele><time>2026-05-03T07:37:12.48Z</time></trkpt><trkpt lat="39.3632883" lon="16.0450483"><ele>150.66666666666666</ele><time>2026-05-03T07:37:13.483Z</time></trkpt><trkpt lat="39.3634933" lon="16.044955"><ele>145.33333333333331</ele><time>2026-05-03T07:37:14.482Z</time></trkpt><trkpt lat="39.3637" lon="16.0448583"><ele>140.0</ele><time>2026-05-03T07:37:15.481Z</time></trkpt><trkpt lat="39.3639033" lon="16.04476"><ele>140.0</ele><time>2026-05-03T07:37:16.482Z</time></trkpt><trkpt lat="39.3641067" lon="16.0446633"><ele>140.0</ele><time>2026-05-03T07:37:17.482Z</time></trkpt><trkpt lat="39.3643033" lon="16.0445667"><ele>140.0</ele><time>2026-05-03T07:37:18.483Z</time></trkpt><trkpt lat="39.364495" lon="16.0444733"><ele>140.0</ele><time>2026-05-03T07:37:19.483Z</time></trkpt><trkpt lat="39.36468" lon="16.04438"><ele>140.0</ele><time>2026-05-03T07:37:20.482Z</time></trkpt><trkpt lat="39.364865" lon="16.04429"><ele>140.0</ele><time>2026-05-03T07:37:21.482Z</time></trkpt><trkpt lat="39.36505" lon="16.0441967"><ele>140.66666666666666</ele><time>2026-05-03T07:37:22.481Z</time></trkpt><trkpt lat="39.3652233" lon="16.0440967"><ele>141.33333333333334</ele><time>2026-05-03T07:37:23.483Z</time></trkpt><trkpt lat="39.365395" lon="16.0439983"><ele>142.0</ele><time>2026-05-03T07:37:24.481Z</time></trkpt><trkpt lat="39.36556" lon="16.0438883"><ele>143.33333333333334</ele><time>2026-05-03T07:37:25.482Z</time></trkpt><trkpt lat="39.3657233" lon="16.0437717"><ele>144.66666666666666</ele><time>2026-05-03T07:37:26.482Z</time></trkpt><trkpt lat="39.365875" lon="16.0436483"><ele>146.0</ele><time>2026-05-03T07:37:27.482Z</time></trkpt><trkpt lat="39.3660217" lon="16.04353"><ele>146.0</ele><time>2026-05-03T07:37:28.481Z</time></trkpt><trkpt lat="39.3661567" lon="16.0434167"><ele>146.0</ele><time>2026-05-03T07:37:29.482Z</time></trkpt><trkpt lat="39.366285" lon="16.0433167"><ele>146.0</ele><time>2026-05-03T07:37:30.481Z</time></trkpt><trkpt lat="39.3664" lon="16.0432267"><ele>146.0</ele><time>2026-05-03T07:37:31.482Z</time></trkpt><trkpt lat="39.3665133" lon="16.04314"><ele>144.8</ele><time>2026-05-03T07:37:32.482Z</time></trkpt><trkpt lat="39.3666133" lon="16.0430633"><ele>143.6</ele><time>2026-05-03T07:37:33.481Z</time></trkpt><trkpt lat="39.3666983" lon="16.043005"><ele>142.4</ele><time>2026-05-03T07:37:34.481Z</time></trkpt><trkpt lat="39.3667833" lon="16.0429833"><ele>141.2</ele><time>2026-05-03T07:37:35.482Z</time></trkpt><trkpt lat="39.366865" lon="16.0429933"><ele>140.0</ele><time>2026-05-03T07:37:36.482Z</time></trkpt><trkpt lat="39.3669433" lon="16.0430267"><ele>140.0</ele><time>2026-05-03T07:37:37.482Z</time></trkpt><trkpt lat="39.3670217" lon="16.0430717"><ele>140.0</ele><time>2026-05-03T07:37:38.483Z</time></trkpt><trkpt lat="39.367095" lon="16.0431167"><ele>140.0</ele><time>2026-05-03T07:37:39.482Z</time></trkpt><trkpt lat="39.367155" lon="16.0431533"><ele>140.0</ele><time>2026-05-03T07:37:40.482Z</time></trkpt><trkpt lat="39.367245" lon="16.0431967"><ele>140.0</ele><time>2026-05-03T07:37:42.482Z</time></trkpt><trkpt lat="39.367335" lon="16.0432067"><ele>140.0</ele><time>2026-05-03T07:37:54.48Z</time></trkpt><trkpt lat="39.367425" lon="16.0432283"><ele>139.33333333333331</ele><time>2026-05-03T07:37:56.481Z</time></trkpt><trkpt lat="39.3675333" lon="16.0432767"><ele>138.66666666666666</ele><time>2026-05-03T07:37:58.482Z</time></trkpt><trkpt lat="39.3676167" lon="16.0433067"><ele>138.0</ele><time>2026-05-03T07:38:00.481Z</time></trkpt><trkpt lat="39.3676833" lon="16.043335"><ele>137.33333333333334</ele><time>2026-05-03T07:38:02.483Z</time></trkpt><trkpt lat="39.3677583" lon="16.0433633"><ele>136.66666666666669</ele><time>2026-05-03T07:38:04.481Z</time></trkpt><trkpt lat="39.36783" lon="16.0434017"><ele>136.0</ele><time>2026-05-03T07:38:06.483Z</time></trkpt><trkpt lat="39.367835" lon="16.04351"><ele>139.5</ele><time>2026-05-03T07:38:09.481Z</time></trkpt><trkpt lat="39.3677167" lon="16.0435417"><ele>143.0</ele><time>2026-05-03T07:38:11.483Z</time></trkpt><trkpt lat="39.367625" lon="16.0435367"><ele>146.5</ele><time>2026-05-03T07:38:12.482Z</time></trkpt><trkpt lat="39.367515" lon="16.0435167"><ele>150.0</ele><time>2026-05-03T07:38:13.482Z</time></trkpt><trkpt lat="39.367385" lon="16.043475"><ele>150.0</ele><time>2026-05-03T07:38:14.482Z</time></trkpt><trkpt lat="39.36725" lon="16.0434317"><ele>150.0</ele><time>2026-05-03T07:38:15.482Z</time></trkpt><trkpt lat="39.36711" lon="16.0433983"><ele>150.0</ele><time>2026-05-03T07:38:16.481Z</time></trkpt><trkpt lat="39.3669633" lon="16.0433733"><ele>150.0</ele><time>2026-05-03T07:38:17.482Z</time></trkpt><trkpt lat="39.3668217" lon="16.0433767"><ele>149.5</ele><time>2026-05-03T07:38:18.481Z</time></trkpt><trkpt lat="39.3666833" lon="16.0434017"><ele>149.0</ele><time>2026-05-03T07:38:19.482Z</time></trkpt><trkpt lat="39.366555" lon="16.043445"><ele>148.5</ele><time>2026-05-03T07:38:20.482Z</time></trkpt><trkpt lat="39.3664383" lon="16.0434883"><ele>148.0</ele><time>2026-05-03T07:38:21.481Z</time></trkpt><trkpt lat="39.3663417" lon="16.043535"><ele>147.66666666666669</ele><time>2026-05-03T07:38:22.481Z</time></trkpt><trkpt lat="39.3662667" lon="16.0435933"><ele>147.33333333333334</ele><time>2026-05-03T07:38:23.481Z</time></trkpt><trkpt lat="39.3662183" lon="16.04367"><ele>147.0</ele><time>2026-05-03T07:38:24.482Z</time></trkpt><trkpt lat="39.3661983" lon="16.043755"><ele>146.66666666666666</ele><time>2026-05-03T07:38:25.482Z</time></trkpt><trkpt lat="39.3662167" lon="16.04384"><ele>146.33333333333331</ele><time>2026-05-03T07:38:26.482Z</time></trkpt><trkpt lat="39.3662667" lon="16.0439117"><ele>146.0</ele><time>2026-05-03T07:38:27.482Z</time></trkpt><trkpt lat="39.36635" lon="16.0439517"><ele>146.5</ele><time>2026-05-03T07:38:28.482Z</time></trkpt><trkpt lat="39.3664517" lon="16.04397"><ele>147.0</ele><time>2026-05-03T07:38:29.482Z</time></trkpt><trkpt lat="39.3665683" lon="16.0439817"><ele>147.5</ele><time>2026-05-03T07:38:30.481Z</time></trkpt><trkpt lat="39.3666883" lon="16.043995"><ele>148.0</ele><time>2026-05-03T07:38:31.482Z</time></trkpt><trkpt lat="39.366815" lon="16.044015"><ele>148.0</ele><time>2026-05-03T07:38:32.481Z</time></trkpt><trkpt lat="39.36695" lon="16.04404"><ele>148.0</ele><time>2026-05-03T07:38:33.483Z</time></trkpt><trkpt lat="39.367085" lon="16.044065"><ele>148.0</ele><time>2026-05-03T07:38:34.481Z</time></trkpt><trkpt lat="39.3672067" lon="16.0440633"><ele>148.0</ele><time>2026-05-03T07:38:35.482Z</time></trkpt><trkpt lat="39.36731" lon="16.0440417"><ele>148.4</ele><time>2026-05-03T07:38:36.482Z</time></trkpt><trkpt lat="39.3674067" lon="16.0440017"><ele>148.8</ele><time>2026-05-03T07:38:37.482Z</time></trkpt><trkpt lat="39.3675" lon="16.0439483"><ele>149.2</ele><time>2026-05-03T07:38:38.482Z</time></trkpt><trkpt lat="39.3675833" lon="16.0438917"><ele>149.6</ele><time>2026-05-03T07:38:39.481Z</time></trkpt><trkpt lat="39.3676583" lon="16.0438483"><ele>150.0</ele><time>2026-05-03T07:38:40.482Z</time></trkpt><trkpt lat="39.367725" lon="16.0438217"><ele>150.0</ele><time>2026-05-03T07:38:41.482Z</time></trkpt><trkpt lat="39.36781" lon="16.04387"><ele>150.0</ele><time>2026-05-03T07:38:43.482Z</time></trkpt><trkpt lat="39.3677667" lon="16.044005"><ele>150.0</ele><time>2026-05-03T07:38:45.481Z</time></trkpt><trkpt lat="39.3676933" lon="16.0440667"><ele>150.0</ele><time>2026-05-03T07:38:46.482Z</time></trkpt><trkpt lat="39.3675967" lon="16.0441217"><ele>150.0</ele><time>2026-05-03T07:38:47.481Z</time></trkpt><trkpt lat="39.3674783" lon="16.0441867"><ele>153.8</ele><time>2026-05-03T07:38:48.482Z</time></trkpt><trkpt lat="39.3673633" lon="16.0442483"><ele>157.6</ele><time>2026-05-03T07:38:49.481Z</time></trkpt><trkpt lat="39.3672467" lon="16.0442967"><ele>161.39999999999998</ele><time>2026-05-03T07:38:50.483Z</time></trkpt><trkpt lat="39.3671383" lon="16.04433"><ele>165.2</ele><time>2026-05-03T07:38:51.482Z</time></trkpt><trkpt lat="39.36705" lon="16.044345"><ele>169.0</ele><time>2026-05-03T07:38:52.481Z</time></trkpt><trkpt lat="39.3669767" lon="16.0443483"><ele>169.0</ele><time>2026-05-03T07:38:53.481Z</time></trkpt><trkpt lat="39.3669017" lon="16.0443533"><ele>169.0</ele><time>2026-05-03T07:38:55.481Z</time></trkpt><trkpt lat="39.3668267" lon="16.0444383"><ele>169.0</ele><time>2026-05-03T07:39:17.482Z</time></trkpt><trkpt lat="39.3668717" lon="16.044505"><ele>169.0</ele><time>2026-05-03T07:39:20.482Z</time></trkpt><trkpt lat="39.3669767" lon="16.0445283"><ele>169.0</ele><time>2026-05-03T07:39:29.482Z</time></trkpt><trkpt lat="39.36708" lon="16.0445317"><ele>169.0</ele><time>2026-05-03T07:39:32.481Z</time></trkpt><trkpt lat="39.3671933" lon="16.0445233"><ele>169.0</ele><time>2026-05-03T07:39:34.482Z</time></trkpt><trkpt lat="39.3672633" lon="16.0445117"><ele>169.0</ele><time>2026-05-03T07:39:35.481Z</time></trkpt><trkpt lat="39.3673333" lon="16.0445033"><ele>169.0</ele><time>2026-05-03T07:39:36.482Z</time></trkpt><trkpt lat="39.3674033" lon="16.0444983"><ele>169.0</ele><time>2026-05-03T07:39:37.482Z</time></trkpt><trkpt lat="39.3674683" lon="16.0444983"><ele>169.0</ele><time>2026-05-03T07:39:38.483Z</time></trkpt><trkpt lat="39.3675683" lon="16.0444983"><ele>170.16666666666669</ele><time>2026-05-03T07:39:40.482Z</time></trkpt><trkpt lat="39.3676367" lon="16.0445133"><ele>171.33333333333334</ele><time>2026-05-03T07:39:42.48Z</time></trkpt><trkpt lat="39.3677267" lon="16.0445467"><ele>172.5</ele><time>2026-05-03T07:39:45.481Z</time></trkpt><trkpt lat="39.3678033" lon="16.04459"><ele>173.66666666666666</ele><time>2026-05-03T07:39:48.481Z</time></trkpt><trkpt lat="39.3678767" lon="16.0446533"><ele>174.83333333333331</ele><time>2026-05-03T07:39:51.483Z</time></trkpt><trkpt lat="39.3679317" lon="16.0446983"><ele>176.0</ele><time>2026-05-03T07:39:54.482Z</time></trkpt><trkpt lat="39.3680067" lon="16.0447283"><ele>177.5</ele><time>2026-05-03T07:39:58.482Z</time></trkpt><trkpt lat="39.3680767" lon="16.0447083"><ele>179.0</ele><time>2026-05-03T07:40:04.482Z</time></trkpt><trkpt lat="39.3681617" lon="16.0447833"><ele>180.5</ele><time>2026-05-03T07:43:35.481Z</time></trkpt><trkpt lat="39.368225" lon="16.04489"><ele>182.0</ele><time>2026-05-03T07:43:46.481Z</time></trkpt><trkpt lat="39.3682817" lon="16.0449417"><ele>183.5</ele><time>2026-05-03T07:43:51.482Z</time></trkpt><trkpt lat="39.3683217" lon="16.0450133"><ele>185.0</ele><time>2026-05-03T07:43:57.482Z</time></trkpt><trkpt lat="39.3683783" lon="16.0450667"><ele>184.99999999999997</ele><time>2026-05-03T07:44:03.482Z</time></trkpt><trkpt lat="39.36845" lon="16.04511"><ele>185.0</ele><time>2026-05-03T07:44:11.483Z</time></trkpt><trkpt lat="39.3685033" lon="16.045155"><ele>185.0</ele><time>2026-05-03T07:44:16.481Z</time></trkpt><trkpt lat="39.3685683" lon="16.0451833"><ele>185.0</ele><time>2026-05-03T07:44:22.482Z</time></trkpt><trkpt lat="39.3686409" lon="16.0452258"><ele>185.0</ele><time>2026-05-03T07:44:37.566Z</time></trkpt><trkpt lat="39.3687124" lon="16.0452496"><ele>184.99999999999997</ele><time>2026-05-03T07:44:46.467Z</time></trkpt><trkpt lat="39.3687733" lon="16.0452823"><ele>185.0</ele><time>2026-05-03T07:44:51.495Z</time></trkpt><trkpt lat="39.3688368" lon="16.0453378"><ele>183.99999999999997</ele><time>2026-05-03T07:45:00.556Z</time></trkpt><trkpt lat="39.3688929" lon="16.0453802"><ele>183.0</ele><time>2026-05-03T07:45:05.49Z</time></trkpt><trkpt lat="39.3689683" lon="16.0454142"><ele>182.0</ele><time>2026-05-03T07:45:09.516Z</time></trkpt><trkpt lat="39.3690355" lon="16.0454345"><ele>181.0</ele><time>2026-05-03T07:45:15.545Z</time></trkpt><trkpt lat="39.3690948" lon="16.0454859"><ele>180.0</ele><time>2026-05-03T07:45:23.511Z</time></trkpt><trkpt lat="39.3691548" lon="16.0455236"><ele>178.99999999999997</ele><time>2026-05-03T07:45:32.563Z</time></trkpt><trkpt lat="39.3692211" lon="16.045483"><ele>178.0</ele><time>2026-05-03T07:45:54.521Z</time></trkpt><trkpt lat="39.3692301" lon="16.0453987"><ele>178.0</ele><time>2026-05-03T07:46:03.447Z</time></trkpt><trkpt lat="39.3691691" lon="16.0453671"><ele>178.0</ele><time>2026-05-03T07:46:13.304Z</time></trkpt><trkpt lat="39.3691461" lon="16.0452887"><ele>178.0</ele><time>2026-05-03T07:46:27.126Z</time></trkpt><trkpt lat="39.3692705" lon="16.0458539"><ele>178.0</ele><time>2026-05-03T07:46:52.969Z</time></trkpt><trkpt lat="39.3691578" lon="16.0457965"><ele>178.0</ele><time>2026-05-03T07:47:01.481Z</time></trkpt><trkpt lat="39.3690726" lon="16.0458123"><ele>178.0</ele><time>2026-05-03T07:47:14.483Z</time></trkpt><trkpt lat="39.3690059" lon="16.0458172"><ele>178.0</ele><time>2026-05-03T07:47:21.556Z</time></trkpt><trkpt lat="39.3689491" lon="16.0457684"><ele>178.0</ele><time>2026-05-03T07:47:27.455Z</time></trkpt><trkpt lat="39.3690299" lon="16.0458287"><ele>178.0</ele><time>2026-05-03T07:48:09.554Z</time></trkpt><trkpt lat="39.3690704" lon="16.0459692"><ele>179.5</ele><time>2026-05-03T07:48:20.414Z</time></trkpt><trkpt lat="39.3690891" lon="16.046053"><ele>181.0</ele><time>2026-05-03T07:48:23.455Z</time></trkpt><trkpt lat="39.3691484" lon="16.0461022"><ele>182.5</ele><time>2026-05-03T07:48:29.48Z</time></trkpt><trkpt lat="39.3691691" lon="16.0461928"><ele>184.0</ele><time>2026-05-03T07:48:39.478Z</time></trkpt><trkpt lat="39.369111" lon="16.0462479"><ele>185.5</ele><time>2026-05-03T07:49:10.553Z</time></trkpt><trkpt lat="39.3689856" lon="16.0463186"><ele>187.0</ele><time>2026-05-03T07:49:17.5Z</time></trkpt><trkpt lat="39.3689227" lon="16.046351"><ele>187.0</ele><time>2026-05-03T07:49:18.505Z</time></trkpt><trkpt lat="39.3690078" lon="16.0463622"><ele>187.0</ele><time>2026-05-03T07:50:06.533Z</time></trkpt><trkpt lat="39.3690582" lon="16.0463109"><ele>187.0</ele><time>2026-05-03T07:50:12.573Z</time></trkpt><trkpt lat="39.3691505" lon="16.0460399"><ele>187.0</ele><time>2026-05-03T07:50:20.527Z</time></trkpt><trkpt lat="39.3690946" lon="16.0459903"><ele>187.0</ele><time>2026-05-03T07:50:29.414Z</time></trkpt><trkpt lat="39.3690964" lon="16.0458571"><ele>185.7142857142857</ele><time>2026-05-03T07:50:40.481Z</time></trkpt><trkpt lat="39.3691203" lon="16.0457817"><ele>184.42857142857144</ele><time>2026-05-03T07:50:45.507Z</time></trkpt><trkpt lat="39.3691145" lon="16.0456937"><ele>183.14285714285714</ele><time>2026-05-03T07:50:57.413Z</time></trkpt><trkpt lat="39.3691179" lon="16.0456008"><ele>181.85714285714283</ele><time>2026-05-03T07:51:01.515Z</time></trkpt><trkpt lat="39.3690864" lon="16.045507"><ele>180.57142857142856</ele><time>2026-05-03T07:51:07.556Z</time></trkpt><trkpt lat="39.3690653" lon="16.0454192"><ele>179.28571428571428</ele><time>2026-05-03T07:51:14.503Z</time></trkpt><trkpt lat="39.3690225" lon="16.0453433"><ele>178.0</ele><time>2026-05-03T07:51:22.559Z</time></trkpt><trkpt lat="39.3689658" lon="16.0452623"><ele>177.99999999999997</ele><time>2026-05-03T07:51:25.58Z</time></trkpt><trkpt lat="39.3689066" lon="16.0452331"><ele>178.0</ele><time>2026-05-03T07:51:31.52Z</time></trkpt><trkpt lat="39.3688437" lon="16.0452178"><ele>178.0</ele><time>2026-05-03T07:51:36.374Z</time></trkpt><trkpt lat="39.3687669" lon="16.0451794"><ele>178.0</ele><time>2026-05-03T07:51:44.574Z</time></trkpt><trkpt lat="39.3687049" lon="16.045153"><ele>178.0</ele><time>2026-05-03T07:51:55.394Z</time></trkpt><trkpt lat="39.3686494" lon="16.0450924"><ele>177.99999999999997</ele><time>2026-05-03T07:51:59.51Z</time></trkpt><trkpt lat="39.3685914" lon="16.0450592"><ele>178.0</ele><time>2026-05-03T07:52:04.544Z</time></trkpt><trkpt lat="39.3685227" lon="16.0450361"><ele>179.16666666666669</ele><time>2026-05-03T07:52:09.482Z</time></trkpt><trkpt lat="39.3684585" lon="16.0450369"><ele>180.33333333333334</ele><time>2026-05-03T07:52:15.454Z</time></trkpt><trkpt lat="39.3683882" lon="16.0450268"><ele>181.5</ele><time>2026-05-03T07:52:20.553Z</time></trkpt><trkpt lat="39.3683094" lon="16.044938"><ele>182.66666666666666</ele><time>2026-05-03T07:52:26.525Z</time></trkpt><trkpt lat="39.3682167" lon="16.0448695"><ele>183.83333333333331</ele><time>2026-05-03T07:52:40.556Z</time></trkpt><trkpt lat="39.3681813" lon="16.0447848"><ele>185.0</ele><time>2026-05-03T07:52:46.53Z</time></trkpt><trkpt lat="39.3683098" lon="16.0448624"><ele>185.0</ele><time>2026-05-03T07:53:07.575Z</time></trkpt><trkpt lat="39.3683517" lon="16.0449361"><ele>185.0</ele><time>2026-05-03T07:53:17.542Z</time></trkpt><trkpt lat="39.3684528" lon="16.0449664"><ele>185.0</ele><time>2026-05-03T07:53:35.565Z</time></trkpt><trkpt lat="39.3685257" lon="16.0449643"><ele>185.0</ele><time>2026-05-03T07:55:18.256Z</time></trkpt><trkpt lat="39.3684452" lon="16.0449531"><ele>185.0</ele><time>2026-05-03T07:55:27.527Z</time></trkpt><trkpt lat="39.3683836" lon="16.0449287"><ele>185.0</ele><time>2026-05-03T07:55:44.544Z</time></trkpt><trkpt lat="39.3683356" lon="16.0448753"><ele>183.5</ele><time>2026-05-03T07:55:57.533Z</time></trkpt><trkpt lat="39.368269" lon="16.0448352"><ele>182.0</ele><time>2026-05-03T07:55:58.54Z</time></trkpt><trkpt lat="39.3682107" lon="16.0447868"><ele>180.5</ele><time>2026-05-03T07:56:03.482Z</time></trkpt><trkpt lat="39.368155" lon="16.0447274"><ele>179.0</ele><time>2026-05-03T07:56:57.543Z</time></trkpt><trkpt lat="39.3680667" lon="16.0446183"><ele>177.5</ele><time>2026-05-03T08:04:13.482Z</time></trkpt><trkpt lat="39.3680167" lon="16.0445567"><ele>176.0</ele><time>2026-05-03T08:04:18.481Z</time></trkpt><trkpt lat="39.367985" lon="16.0444833"><ele>176.0</ele><time>2026-05-03T08:04:21.481Z</time></trkpt><trkpt lat="39.36793" lon="16.0444133"><ele>176.0</ele><time>2026-05-03T08:04:24.48Z</time></trkpt><trkpt lat="39.3678617" lon="16.04441"><ele>176.0</ele><time>2026-05-03T08:04:27.48Z</time></trkpt><trkpt lat="39.3677983" lon="16.0443883"><ele>176.0</ele><time>2026-05-03T08:04:30.482Z</time></trkpt><trkpt lat="39.367725" lon="16.0443783"><ele>176.0</ele><time>2026-05-03T08:04:33.481Z</time></trkpt><trkpt lat="39.3676267" lon="16.04434"><ele>176.0</ele><time>2026-05-03T08:04:36.483Z</time></trkpt><trkpt lat="39.3675433" lon="16.0443133"><ele>176.0</ele><time>2026-05-03T08:04:38.483Z</time></trkpt><trkpt lat="39.36747" lon="16.0443133"><ele>176.0</ele><time>2026-05-03T08:04:40.481Z</time></trkpt><trkpt lat="39.3673917" lon="16.04433"><ele>176.0</ele><time>2026-05-03T08:04:43.482Z</time></trkpt><trkpt lat="39.3673083" lon="16.0443667"><ele>176.0</ele><time>2026-05-03T08:04:52.483Z</time></trkpt><trkpt lat="39.3672433" lon="16.0443833"><ele>176.0</ele><time>2026-05-03T08:04:56.483Z</time></trkpt><trkpt lat="39.3671817" lon="16.0444033"><ele>176.0</ele><time>2026-05-03T08:04:59.484Z</time></trkpt><trkpt lat="39.36711" lon="16.04445"><ele>174.83333333333331</ele><time>2026-05-03T08:05:02.482Z</time></trkpt><trkpt lat="39.36704" lon="16.0444683"><ele>173.66666666666666</ele><time>2026-05-03T08:05:05.483Z</time></trkpt><trkpt lat="39.3669633" lon="16.0444667"><ele>172.5</ele><time>2026-05-03T08:05:09.482Z</time></trkpt><trkpt lat="39.3668983" lon="16.04446"><ele>171.33333333333334</ele><time>2026-05-03T08:05:12.482Z</time></trkpt><trkpt lat="39.366815" lon="16.0444583"><ele>170.16666666666669</ele><time>2026-05-03T08:05:17.481Z</time></trkpt><trkpt lat="39.3667267" lon="16.0444567"><ele>169.0</ele><time>2026-05-03T08:05:20.483Z</time></trkpt><trkpt lat="39.3666467" lon="16.0444383"><ele>169.0</ele><time>2026-05-03T08:05:23.482Z</time></trkpt><trkpt lat="39.3665783" lon="16.0444167"><ele>169.0</ele><time>2026-05-03T08:05:27.48Z</time></trkpt><trkpt lat="39.36649" lon="16.044405"><ele>169.0</ele><time>2026-05-03T08:05:39.482Z</time></trkpt><trkpt lat="39.3664167" lon="16.0444233"><ele>169.0</ele><time>2026-05-03T08:05:45.482Z</time></trkpt><trkpt lat="39.3663417" lon="16.044435"><ele>169.0</ele><time>2026-05-03T08:05:49.482Z</time></trkpt><trkpt lat="39.3662733" lon="16.0444567"><ele>169.0</ele><time>2026-05-03T08:05:55.482Z</time></trkpt><trkpt lat="39.366185" lon="16.04447"><ele>166.6</ele><time>2026-05-03T08:05:59.481Z</time></trkpt><trkpt lat="39.3660867" lon="16.0445017"><ele>164.2</ele><time>2026-05-03T08:06:02.483Z</time></trkpt><trkpt lat="39.365985" lon="16.044545"><ele>161.79999999999998</ele><time>2026-05-03T08:06:04.483Z</time></trkpt><trkpt lat="39.3658667" lon="16.044585"><ele>159.39999999999998</ele><time>2026-05-03T08:06:06.481Z</time></trkpt><trkpt lat="39.3658033" lon="16.044605"><ele>157.0</ele><time>2026-05-03T08:06:07.483Z</time></trkpt><trkpt lat="39.3657367" lon="16.044615"><ele>157.0</ele><time>2026-05-03T08:06:08.482Z</time></trkpt><trkpt lat="39.365665" lon="16.04462"><ele>157.0</ele><time>2026-05-03T08:06:09.482Z</time></trkpt><trkpt lat="39.36559" lon="16.0446233"><ele>157.0</ele><time>2026-05-03T08:06:10.481Z</time></trkpt><trkpt lat="39.3655133" lon="16.0446233"><ele>157.0</ele><time>2026-05-03T08:06:11.482Z</time></trkpt><trkpt lat="39.3654383" lon="16.04461"><ele>157.0</ele><time>2026-05-03T08:06:12.481Z</time></trkpt><trkpt lat="39.365365" lon="16.04459"><ele>157.0</ele><time>2026-05-03T08:06:13.481Z</time></trkpt><trkpt lat="39.3652883" lon="16.0445617"><ele>156.42857142857142</ele><time>2026-05-03T08:06:14.482Z</time></trkpt><trkpt lat="39.365215" lon="16.0445233"><ele>155.85714285714286</ele><time>2026-05-03T08:06:15.482Z</time></trkpt><trkpt lat="39.365145" lon="16.044485"><ele>155.28571428571428</ele><time>2026-05-03T08:06:16.481Z</time></trkpt><trkpt lat="39.365075" lon="16.0444633"><ele>154.71428571428572</ele><time>2026-05-03T08:06:17.482Z</time></trkpt><trkpt lat="39.3650033" lon="16.04446"><ele>154.14285714285714</ele><time>2026-05-03T08:06:18.481Z</time></trkpt><trkpt lat="39.3649367" lon="16.0444783"><ele>153.57142857142856</ele><time>2026-05-03T08:06:19.482Z</time></trkpt><trkpt lat="39.364875" lon="16.0445167"><ele>153.0</ele><time>2026-05-03T08:06:20.482Z</time></trkpt><trkpt lat="39.3648117" lon="16.0445667"><ele>153.0</ele><time>2026-05-03T08:06:21.482Z</time></trkpt><trkpt lat="39.36475" lon="16.0446233"><ele>153.0</ele><time>2026-05-03T08:06:22.481Z</time></trkpt><trkpt lat="39.3646883" lon="16.044675"><ele>153.0</ele><time>2026-05-03T08:06:23.482Z</time></trkpt><trkpt lat="39.36463" lon="16.0447217"><ele>153.0</ele><time>2026-05-03T08:06:24.48Z</time></trkpt><trkpt lat="39.3645767" lon="16.0447667"><ele>153.0</ele><time>2026-05-03T08:06:25.481Z</time></trkpt><trkpt lat="39.3644833" lon="16.04483"><ele>153.0</ele><time>2026-05-03T08:06:27.482Z</time></trkpt><trkpt lat="39.3644217" lon="16.0448533"><ele>150.83333333333334</ele><time>2026-05-03T08:06:30.482Z</time></trkpt><trkpt lat="39.364355" lon="16.0448517"><ele>148.66666666666666</ele><time>2026-05-03T08:06:33.482Z</time></trkpt><trkpt lat="39.3642633" lon="16.0448383"><ele>146.5</ele><time>2026-05-03T08:06:36.481Z</time></trkpt><trkpt lat="39.3641733" lon="16.0448183"><ele>144.33333333333331</ele><time>2026-05-03T08:06:38.483Z</time></trkpt><trkpt lat="39.3640817" lon="16.0447967"><ele>142.16666666666666</ele><time>2026-05-03T08:06:40.484Z</time></trkpt><trkpt lat="39.363995" lon="16.0447567"><ele>140.0</ele><time>2026-05-03T08:06:42.482Z</time></trkpt><trkpt lat="39.3639217" lon="16.044685"><ele>139.33333333333331</ele><time>2026-05-03T08:06:44.482Z</time></trkpt><trkpt lat="39.363855" lon="16.0445767"><ele>138.66666666666666</ele><time>2026-05-03T08:06:46.482Z</time></trkpt><trkpt lat="39.3637983" lon="16.04449"><ele>138.0</ele><time>2026-05-03T08:06:48.482Z</time></trkpt><trkpt lat="39.3637333" lon="16.0444333"><ele>137.33333333333334</ele><time>2026-05-03T08:06:50.483Z</time></trkpt><trkpt lat="39.363665" lon="16.0443967"><ele>136.66666666666669</ele><time>2026-05-03T08:06:52.482Z</time></trkpt><trkpt lat="39.36358" lon="16.0443817"><ele>136.0</ele><time>2026-05-03T08:06:55.481Z</time></trkpt><trkpt lat="39.36349" lon="16.04438"><ele>136.0</ele><time>2026-05-03T08:06:58.483Z</time></trkpt><trkpt lat="39.3634133" lon="16.0443383"><ele>136.0</ele><time>2026-05-03T08:07:00.483Z</time></trkpt><trkpt lat="39.3633517" lon="16.0442567"><ele>136.0</ele><time>2026-05-03T08:07:02.483Z</time></trkpt><trkpt lat="39.3633367" lon="16.0441367"><ele>136.0</ele><time>2026-05-03T08:07:04.482Z</time></trkpt><trkpt lat="39.3633067" lon="16.0440183"><ele>136.0</ele><time>2026-05-03T08:07:06.481Z</time></trkpt><trkpt lat="39.3632233" lon="16.0439333"><ele>133.6</ele><time>2026-05-03T08:07:08.483Z</time></trkpt><trkpt lat="39.3631133" lon="16.0438883"><ele>131.2</ele><time>2026-05-03T08:07:10.481Z</time></trkpt><trkpt lat="39.363" lon="16.0438367"><ele>128.8</ele><time>2026-05-03T08:07:12.482Z</time></trkpt><trkpt lat="39.362935" lon="16.043805"><ele>126.4</ele><time>2026-05-03T08:07:13.483Z</time></trkpt><trkpt lat="39.3628633" lon="16.0437667"><ele>124.0</ele><time>2026-05-03T08:07:14.485Z</time></trkpt><trkpt lat="39.3627883" lon="16.0437283"><ele>123.66666666666667</ele><time>2026-05-03T08:07:15.482Z</time></trkpt><trkpt lat="39.3627133" lon="16.0436917"><ele>123.33333333333334</ele><time>2026-05-03T08:07:16.481Z</time></trkpt><trkpt lat="39.3626383" lon="16.0436667"><ele>123.0</ele><time>2026-05-03T08:07:17.482Z</time></trkpt><trkpt lat="39.3625683" lon="16.04365"><ele>122.66666666666666</ele><time>2026-05-03T08:07:18.482Z</time></trkpt><trkpt lat="39.3625017" lon="16.0436383"><ele>122.33333333333333</ele><time>2026-05-03T08:07:19.481Z</time></trkpt><trkpt lat="39.362385" lon="16.0436233"><ele>122.0</ele><time>2026-05-03T08:07:21.482Z</time></trkpt><trkpt lat="39.3623033" lon="16.0435933"><ele>121.99999999999999</ele><time>2026-05-03T08:07:23.483Z</time></trkpt><trkpt lat="39.36226" lon="16.04352"><ele>122.0</ele><time>2026-05-03T08:07:26.481Z</time></trkpt><trkpt lat="39.3622717" lon="16.0434267"><ele>122.0</ele><time>2026-05-03T08:07:29.482Z</time></trkpt><trkpt lat="39.36237" lon="16.0434133"><ele>122.0</ele><time>2026-05-03T08:07:32.482Z</time></trkpt><trkpt lat="39.36244" lon="16.0434083"><ele>121.99999999999999</ele><time>2026-05-03T08:07:33.482Z</time></trkpt><trkpt lat="39.36252" lon="16.0433933"><ele>122.0</ele><time>2026-05-03T08:07:34.482Z</time></trkpt><trkpt lat="39.3626133" lon="16.0433767"><ele>122.0</ele><time>2026-05-03T08:07:35.483Z</time></trkpt><trkpt lat="39.3627067" lon="16.0433583"><ele>121.99999999999999</ele><time>2026-05-03T08:07:36.482Z</time></trkpt><trkpt lat="39.3627883" lon="16.0433283"><ele>121.99999999999999</ele><time>2026-05-03T08:07:37.482Z</time></trkpt><trkpt lat="39.362865" lon="16.0432867"><ele>122.0</ele><time>2026-05-03T08:07:38.481Z</time></trkpt><trkpt lat="39.3629367" lon="16.04322"><ele>122.0</ele><time>2026-05-03T08:07:39.482Z</time></trkpt><trkpt lat="39.3630083" lon="16.0431233"><ele>121.8</ele><time>2026-05-03T08:07:40.483Z</time></trkpt><trkpt lat="39.3630783" lon="16.0430033"><ele>121.6</ele><time>2026-05-03T08:07:41.483Z</time></trkpt><trkpt lat="39.363145" lon="16.042885"><ele>121.39999999999999</ele><time>2026-05-03T08:07:42.482Z</time></trkpt><trkpt lat="39.3632033" lon="16.0427817"><ele>121.19999999999999</ele><time>2026-05-03T08:07:43.482Z</time></trkpt><trkpt lat="39.3632517" lon="16.042695"><ele>121.0</ele><time>2026-05-03T08:07:44.483Z</time></trkpt><trkpt lat="39.3632867" lon="16.0426167"><ele>121.0</ele><time>2026-05-03T08:07:45.483Z</time></trkpt><trkpt lat="39.363295" lon="16.0425317"><ele>120.99999999999999</ele><time>2026-05-03T08:07:46.482Z</time></trkpt><trkpt lat="39.363275" lon="16.0424383"><ele>121.0</ele><time>2026-05-03T08:07:47.482Z</time></trkpt><trkpt lat="39.3632467" lon="16.04234"><ele>121.0</ele><time>2026-05-03T08:07:48.482Z</time></trkpt><trkpt lat="39.3632167" lon="16.0422483"><ele>120.99999999999999</ele><time>2026-05-03T08:07:49.483Z</time></trkpt><trkpt lat="39.3631933" lon="16.0421633"><ele>121.0</ele><time>2026-05-03T08:07:50.482Z</time></trkpt><trkpt lat="39.363175" lon="16.0420833"><ele>121.0</ele><time>2026-05-03T08:07:51.481Z</time></trkpt><trkpt lat="39.36316" lon="16.041995"><ele>121.00000000000001</ele><time>2026-05-03T08:07:52.482Z</time></trkpt><trkpt lat="39.3631433" lon="16.041905"><ele>121.0</ele><time>2026-05-03T08:07:53.482Z</time></trkpt><trkpt lat="39.3631367" lon="16.0418133"><ele>121.0</ele><time>2026-05-03T08:07:54.481Z</time></trkpt><trkpt lat="39.3631417" lon="16.04173"><ele>121.0</ele><time>2026-05-03T08:07:55.482Z</time></trkpt><trkpt lat="39.3631883" lon="16.0416183"><ele>121.00000000000001</ele><time>2026-05-03T08:07:57.483Z</time></trkpt><trkpt lat="39.3632883" lon="16.0415983"><ele>121.0</ele><time>2026-05-03T08:07:59.483Z</time></trkpt><trkpt lat="39.3633717" lon="16.0416167"><ele>121.0</ele><time>2026-05-03T08:08:00.483Z</time></trkpt><trkpt lat="39.3634733" lon="16.0416567"><ele>121.0</ele><time>2026-05-03T08:08:01.483Z</time></trkpt><trkpt lat="39.3635767" lon="16.0416883"><ele>121.0</ele><time>2026-05-03T08:08:02.483Z</time></trkpt><trkpt lat="39.3636833" lon="16.0417117"><ele>121.0</ele><time>2026-05-03T08:08:03.483Z</time></trkpt><trkpt lat="39.3637983" lon="16.0417467"><ele>121.0</ele><time>2026-05-03T08:08:04.482Z</time></trkpt><trkpt lat="39.3639233" lon="16.041775"><ele>121.6</ele><time>2026-05-03T08:08:05.482Z</time></trkpt><trkpt lat="39.364035" lon="16.0417983"><ele>122.19999999999999</ele><time>2026-05-03T08:08:06.482Z</time></trkpt><trkpt lat="39.3641367" lon="16.041815"><ele>122.80000000000001</ele><time>2026-05-03T08:08:07.482Z</time></trkpt><trkpt lat="39.3642383" lon="16.041825"><ele>123.4</ele><time>2026-05-03T08:08:08.482Z</time></trkpt><trkpt lat="39.364345" lon="16.0418483"><ele>124.0</ele><time>2026-05-03T08:08:09.482Z</time></trkpt><trkpt lat="39.3644567" lon="16.041865"><ele>124.0</ele><time>2026-05-03T08:08:10.481Z</time></trkpt><trkpt lat="39.3645733" lon="16.0418833"><ele>124.0</ele><time>2026-05-03T08:08:11.482Z</time></trkpt><trkpt lat="39.3646867" lon="16.0419033"><ele>124.0</ele><time>2026-05-03T08:08:12.483Z</time></trkpt><trkpt lat="39.364785" lon="16.0419317"><ele>124.0</ele><time>2026-05-03T08:08:13.483Z</time></trkpt><trkpt lat="39.36487" lon="16.04195"><ele>124.0</ele><time>2026-05-03T08:08:14.482Z</time></trkpt><trkpt lat="39.3649517" lon="16.0419633"><ele>124.80000000000001</ele><time>2026-05-03T08:08:15.481Z</time></trkpt><trkpt lat="39.36504" lon="16.041985"><ele>125.60000000000001</ele><time>2026-05-03T08:08:16.483Z</time></trkpt><trkpt lat="39.3651333" lon="16.0420083"><ele>126.4</ele><time>2026-05-03T08:08:17.482Z</time></trkpt><trkpt lat="39.36523" lon="16.04203"><ele>127.2</ele><time>2026-05-03T08:08:18.483Z</time></trkpt><trkpt lat="39.3653317" lon="16.0420433"><ele>128.0</ele><time>2026-05-03T08:08:19.483Z</time></trkpt><trkpt lat="39.3654383" lon="16.0420717"><ele>128.0</ele><time>2026-05-03T08:08:20.482Z</time></trkpt><trkpt lat="39.3655417" lon="16.042095"><ele>128.0</ele><time>2026-05-03T08:08:21.483Z</time></trkpt><trkpt lat="39.3656483" lon="16.0421317"><ele>128.0</ele><time>2026-05-03T08:08:22.483Z</time></trkpt><trkpt lat="39.3657567" lon="16.0421767"><ele>128.0</ele><time>2026-05-03T08:08:23.482Z</time></trkpt><trkpt lat="39.3658617" lon="16.04223"><ele>128.0</ele><time>2026-05-03T08:08:24.482Z</time></trkpt><trkpt lat="39.3659567" lon="16.042285"><ele>128.0</ele><time>2026-05-03T08:08:25.481Z</time></trkpt><trkpt lat="39.3660383" lon="16.0423517"><ele>128.0</ele><time>2026-05-03T08:08:26.483Z</time></trkpt><trkpt lat="39.3661133" lon="16.0424217"><ele>128.0</ele><time>2026-05-03T08:08:27.482Z</time></trkpt><trkpt lat="39.3661933" lon="16.04249"><ele>128.0</ele><time>2026-05-03T08:08:28.482Z</time></trkpt><trkpt lat="39.3662783" lon="16.0425617"><ele>128.0</ele><time>2026-05-03T08:08:29.482Z</time></trkpt><trkpt lat="39.36637" lon="16.0426217"><ele>131.0</ele><time>2026-05-03T08:08:30.482Z</time></trkpt><trkpt lat="39.3664717" lon="16.0426833"><ele>134.0</ele><time>2026-05-03T08:08:31.482Z</time></trkpt><trkpt lat="39.366585" lon="16.04275"><ele>137.0</ele><time>2026-05-03T08:08:32.483Z</time></trkpt><trkpt lat="39.3667067" lon="16.0428033"><ele>140.0</ele><time>2026-05-03T08:08:33.482Z</time></trkpt><trkpt lat="39.3668417" lon="16.042855"><ele>140.0</ele><time>2026-05-03T08:08:34.481Z</time></trkpt><trkpt lat="39.3669667" lon="16.042915"><ele>140.0</ele><time>2026-05-03T08:08:35.482Z</time></trkpt><trkpt lat="39.3670633" lon="16.0429733"><ele>140.0</ele><time>2026-05-03T08:08:36.482Z</time></trkpt><trkpt lat="39.367145" lon="16.0430033"><ele>140.0</ele><time>2026-05-03T08:08:37.482Z</time></trkpt><trkpt lat="39.3672167" lon="16.043015"><ele>140.0</ele><time>2026-05-03T08:08:38.481Z</time></trkpt><trkpt lat="39.3672967" lon="16.0429533"><ele>139.42857142857142</ele><time>2026-05-03T08:08:40.485Z</time></trkpt><trkpt lat="39.3673067" lon="16.0428483"><ele>138.85714285714286</ele><time>2026-05-03T08:08:41.481Z</time></trkpt><trkpt lat="39.367305" lon="16.0427467"><ele>138.28571428571428</ele><time>2026-05-03T08:08:42.481Z</time></trkpt><trkpt lat="39.3672917" lon="16.042655"><ele>137.71428571428572</ele><time>2026-05-03T08:08:43.481Z</time></trkpt><trkpt lat="39.3672867" lon="16.0425683"><ele>137.14285714285714</ele><time>2026-05-03T08:08:44.482Z</time></trkpt><trkpt lat="39.3672917" lon="16.04248"><ele>136.57142857142856</ele><time>2026-05-03T08:08:45.481Z</time></trkpt><trkpt lat="39.3673133" lon="16.04239"><ele>136.0</ele><time>2026-05-03T08:08:46.481Z</time></trkpt><trkpt lat="39.3673583" lon="16.0422967"><ele>135.25</ele><time>2026-05-03T08:08:47.482Z</time></trkpt><trkpt lat="39.3674233" lon="16.0422033"><ele>134.5</ele><time>2026-05-03T08:08:48.482Z</time></trkpt><trkpt lat="39.36752" lon="16.04211"><ele>133.75</ele><time>2026-05-03T08:08:49.481Z</time></trkpt><trkpt lat="39.3676217" lon="16.0420167"><ele>133.0</ele><time>2026-05-03T08:08:50.481Z</time></trkpt><trkpt lat="39.3677333" lon="16.0419183"><ele>133.0</ele><time>2026-05-03T08:08:51.48Z</time></trkpt><trkpt lat="39.36784" lon="16.0418167"><ele>133.0</ele><time>2026-05-03T08:08:52.48Z</time></trkpt><trkpt lat="39.3679517" lon="16.0417117"><ele>133.0</ele><time>2026-05-03T08:08:53.48Z</time></trkpt><trkpt lat="39.3680617" lon="16.041605"><ele>133.0</ele><time>2026-05-03T08:08:54.48Z</time></trkpt><trkpt lat="39.3681667" lon="16.0415017"><ele>132.6</ele><time>2026-05-03T08:08:55.482Z</time></trkpt><trkpt lat="39.3682583" lon="16.0414"><ele>132.20000000000002</ele><time>2026-05-03T08:08:56.481Z</time></trkpt><trkpt lat="39.3683383" lon="16.0413083"><ele>131.8</ele><time>2026-05-03T08:08:57.48Z</time></trkpt><trkpt lat="39.36841" lon="16.0412217"><ele>131.4</ele><time>2026-05-03T08:08:58.482Z</time></trkpt><trkpt lat="39.3684917" lon="16.0411333"><ele>131.0</ele><time>2026-05-03T08:08:59.484Z</time></trkpt><trkpt lat="39.3685817" lon="16.0410267"><ele>131.0</ele><time>2026-05-03T08:09:00.484Z</time></trkpt><trkpt lat="39.3686867" lon="16.0408967"><ele>131.0</ele><time>2026-05-03T08:09:01.484Z</time></trkpt><trkpt lat="39.368805" lon="16.0407417"><ele>131.0</ele><time>2026-05-03T08:09:02.487Z</time></trkpt><trkpt lat="39.368935" lon="16.04056"><ele>129.33333333333331</ele><time>2026-05-03T08:09:03.483Z</time></trkpt><trkpt lat="39.3690683" lon="16.0403533"><ele>127.66666666666666</ele><time>2026-05-03T08:09:04.484Z</time></trkpt><trkpt lat="39.3691983" lon="16.0401367"><ele>126.0</ele><time>2026-05-03T08:09:05.483Z</time></trkpt><trkpt lat="39.369325" lon="16.0399167"><ele>125.0</ele><time>2026-05-03T08:09:06.482Z</time></trkpt><trkpt lat="39.3694583" lon="16.0396933"><ele>124.0</ele><time>2026-05-03T08:09:07.484Z</time></trkpt><trkpt lat="39.3695917" lon="16.039465"><ele>123.0</ele><time>2026-05-03T08:09:08.484Z</time></trkpt><trkpt lat="39.3697283" lon="16.0392383"><ele>121.0</ele><time>2026-05-03T08:09:09.482Z</time></trkpt><trkpt lat="39.3698617" lon="16.0390083"><ele>119.0</ele><time>2026-05-03T08:09:10.484Z</time></trkpt><trkpt lat="39.37" lon="16.0387883"><ele>117.0</ele><time>2026-05-03T08:09:11.481Z</time></trkpt><trkpt lat="39.3701383" lon="16.0385717"><ele>117.0</ele><time>2026-05-03T08:09:12.481Z</time></trkpt><trkpt lat="39.3702733" lon="16.03836"><ele>117.0</ele><time>2026-05-03T08:09:13.481Z</time></trkpt><trkpt lat="39.370405" lon="16.038155"><ele>117.0</ele><time>2026-05-03T08:09:14.481Z</time></trkpt><trkpt lat="39.370535" lon="16.0379617"><ele>115.66666666666666</ele><time>2026-05-03T08:09:15.482Z</time></trkpt><trkpt lat="39.3706617" lon="16.0377767"><ele>114.33333333333333</ele><time>2026-05-03T08:09:16.481Z</time></trkpt><trkpt lat="39.3707833" lon="16.0376033"><ele>113.0</ele><time>2026-05-03T08:09:17.481Z</time></trkpt><trkpt lat="39.3709067" lon="16.0374367"><ele>109.66666666666666</ele><time>2026-05-03T08:09:18.481Z</time></trkpt><trkpt lat="39.37103" lon="16.0372667"><ele>106.33333333333334</ele><time>2026-05-03T08:09:19.481Z</time></trkpt><trkpt lat="39.3711517" lon="16.0370967"><ele>103.0</ele><time>2026-05-03T08:09:20.481Z</time></trkpt><trkpt lat="39.37127" lon="16.0369317"><ele>102.33333333333334</ele><time>2026-05-03T08:09:21.481Z</time></trkpt><trkpt lat="39.3713883" lon="16.0367683"><ele>101.66666666666666</ele><time>2026-05-03T08:09:22.482Z</time></trkpt><trkpt lat="39.37151" lon="16.036605"><ele>101.0</ele><time>2026-05-03T08:09:23.481Z</time></trkpt><trkpt lat="39.3716367" lon="16.0364317"><ele>101.0</ele><time>2026-05-03T08:09:24.482Z</time></trkpt><trkpt lat="39.3717717" lon="16.03624"><ele>101.0</ele><time>2026-05-03T08:09:25.481Z</time></trkpt><trkpt lat="39.3719233" lon="16.0360283"><ele>101.0</ele><time>2026-05-03T08:09:26.482Z</time></trkpt><trkpt lat="39.372085" lon="16.0358033"><ele>98.5</ele><time>2026-05-03T08:09:27.481Z</time></trkpt><trkpt lat="39.3722533" lon="16.0355733"><ele>96.0</ele><time>2026-05-03T08:09:28.483Z</time></trkpt><trkpt lat="39.37242" lon="16.0353467"><ele>96.0</ele><time>2026-05-03T08:09:29.481Z</time></trkpt><trkpt lat="39.3725867" lon="16.03512"><ele>96.0</ele><time>2026-05-03T08:09:30.481Z</time></trkpt><trkpt lat="39.3727533" lon="16.0348917"><ele>94.0</ele><time>2026-05-03T08:09:31.483Z</time></trkpt><trkpt lat="39.3729133" lon="16.0346633"><ele>92.0</ele><time>2026-05-03T08:09:32.482Z</time></trkpt><trkpt lat="39.3730717" lon="16.0344417"><ele>92.0</ele><time>2026-05-03T08:09:33.481Z</time></trkpt><trkpt lat="39.3732267" lon="16.03423"><ele>92.0</ele><time>2026-05-03T08:09:34.482Z</time></trkpt><trkpt lat="39.3733733" lon="16.0340333"><ele>92.0</ele><time>2026-05-03T08:09:35.482Z</time></trkpt><trkpt lat="39.3735183" lon="16.0338483"><ele>92.66666666666667</ele><time>2026-05-03T08:09:36.482Z</time></trkpt><trkpt lat="39.3736567" lon="16.03367"><ele>93.33333333333333</ele><time>2026-05-03T08:09:37.482Z</time></trkpt><trkpt lat="39.3737983" lon="16.0335133"><ele>94.0</ele><time>2026-05-03T08:09:38.483Z</time></trkpt><trkpt lat="39.3739367" lon="16.0333683"><ele>92.0</ele><time>2026-05-03T08:09:39.481Z</time></trkpt><trkpt lat="39.3740833" lon="16.0332567"><ele>90.0</ele><time>2026-05-03T08:09:40.482Z</time></trkpt><trkpt lat="39.3742317" lon="16.0331583"><ele>88.0</ele><time>2026-05-03T08:09:41.481Z</time></trkpt><trkpt lat="39.3743883" lon="16.0330667"><ele>88.0</ele><time>2026-05-03T08:09:42.482Z</time></trkpt><trkpt lat="39.374555" lon="16.032985"><ele>88.0</ele><time>2026-05-03T08:09:43.482Z</time></trkpt><trkpt lat="39.3747283" lon="16.0329017"><ele>88.0</ele><time>2026-05-03T08:09:44.482Z</time></trkpt><trkpt lat="39.3749283" lon="16.0328283"><ele>88.5</ele><time>2026-05-03T08:09:45.482Z</time></trkpt><trkpt lat="39.3751483" lon="16.03276"><ele>89.0</ele><time>2026-05-03T08:09:46.481Z</time></trkpt><trkpt lat="39.375385" lon="16.0326867"><ele>88.5</ele><time>2026-05-03T08:09:47.481Z</time></trkpt><trkpt lat="39.37563" lon="16.032615"><ele>88.0</ele><time>2026-05-03T08:09:48.482Z</time></trkpt><trkpt lat="39.3758767" lon="16.0325383"><ele>80.5</ele><time>2026-05-03T08:09:49.482Z</time></trkpt><trkpt lat="39.3761217" lon="16.0324583"><ele>73.0</ele><time>2026-05-03T08:09:50.482Z</time></trkpt><trkpt lat="39.3763633" lon="16.032375"><ele>72.5</ele><time>2026-05-03T08:09:51.482Z</time></trkpt><trkpt lat="39.3765933" lon="16.0322917"><ele>72.0</ele><time>2026-05-03T08:09:52.482Z</time></trkpt><trkpt lat="39.3768117" lon="16.0322033"><ele>72.0</ele><time>2026-05-03T08:09:53.481Z</time></trkpt><trkpt lat="39.377015" lon="16.0320983"><ele>72.0</ele><time>2026-05-03T08:09:54.482Z</time></trkpt><trkpt lat="39.3772083" lon="16.03197"><ele>72.0</ele><time>2026-05-03T08:09:55.481Z</time></trkpt><trkpt lat="39.3773917" lon="16.03182"><ele>73.33333333333333</ele><time>2026-05-03T08:09:56.481Z</time></trkpt><trkpt lat="39.377565" lon="16.0316483"><ele>74.66666666666666</ele><time>2026-05-03T08:09:57.482Z</time></trkpt><trkpt lat="39.3777233" lon="16.0314483"><ele>76.0</ele><time>2026-05-03T08:09:58.482Z</time></trkpt><trkpt lat="39.3778717" lon="16.03123"><ele>75.0</ele><time>2026-05-03T08:09:59.482Z</time></trkpt><trkpt lat="39.3780133" lon="16.0309983"><ele>74.0</ele><time>2026-05-03T08:10:00.484Z</time></trkpt><trkpt lat="39.3781483" lon="16.0307583"><ele>74.0</ele><time>2026-05-03T08:10:01.481Z</time></trkpt><trkpt lat="39.37828" lon="16.0305133"><ele>74.0</ele><time>2026-05-03T08:10:02.483Z</time></trkpt><trkpt lat="39.3784217" lon="16.0302733"><ele>74.0</ele><time>2026-05-03T08:10:03.482Z</time></trkpt><trkpt lat="39.37858" lon="16.0300567"><ele>74.0</ele><time>2026-05-03T08:10:04.482Z</time></trkpt><trkpt lat="39.3787483" lon="16.0298633"><ele>72.33333333333334</ele><time>2026-05-03T08:10:05.482Z</time></trkpt><trkpt lat="39.3789233" lon="16.0296983"><ele>70.66666666666667</ele><time>2026-05-03T08:10:06.482Z</time></trkpt><trkpt lat="39.3791083" lon="16.02956"><ele>69.0</ele><time>2026-05-03T08:10:07.482Z</time></trkpt><trkpt lat="39.379295" lon="16.02944"><ele>69.0</ele><time>2026-05-03T08:10:08.482Z</time></trkpt><trkpt lat="39.3794883" lon="16.02935"><ele>69.0</ele><time>2026-05-03T08:10:09.482Z</time></trkpt><trkpt lat="39.3796767" lon="16.0292867"><ele>69.0</ele><time>2026-05-03T08:10:10.481Z</time></trkpt><trkpt lat="39.3798667" lon="16.0292467"><ele>67.66666666666667</ele><time>2026-05-03T08:10:11.482Z</time></trkpt><trkpt lat="39.3800617" lon="16.02921"><ele>66.33333333333334</ele><time>2026-05-03T08:10:12.482Z</time></trkpt><trkpt lat="39.38026" lon="16.0291917"><ele>65.0</ele><time>2026-05-03T08:10:13.481Z</time></trkpt><trkpt lat="39.3804633" lon="16.0291717"><ele>62.333333333333336</ele><time>2026-05-03T08:10:14.482Z</time></trkpt><trkpt lat="39.3806633" lon="16.0291433"><ele>59.66666666666667</ele><time>2026-05-03T08:10:15.482Z</time></trkpt><trkpt lat="39.3808583" lon="16.0291067"><ele>57.0</ele><time>2026-05-03T08:10:16.484Z</time></trkpt><trkpt lat="39.38104" lon="16.0290567"><ele>56.75</ele><time>2026-05-03T08:10:17.482Z</time></trkpt><trkpt lat="39.3812067" lon="16.0290017"><ele>56.5</ele><time>2026-05-03T08:10:18.481Z</time></trkpt><trkpt lat="39.3813517" lon="16.0289433"><ele>56.25</ele><time>2026-05-03T08:10:19.486Z</time></trkpt><trkpt lat="39.3814683" lon="16.0288933"><ele>56.0</ele><time>2026-05-03T08:10:20.482Z</time></trkpt><trkpt lat="39.3815717" lon="16.0288517"><ele>56.0</ele><time>2026-05-03T08:10:21.482Z</time></trkpt><trkpt lat="39.38167" lon="16.0288383"><ele>55.99999999999999</ele><time>2026-05-03T08:10:22.482Z</time></trkpt><trkpt lat="39.3817617" lon="16.02884"><ele>55.99999999999999</ele><time>2026-05-03T08:10:23.485Z</time></trkpt><trkpt lat="39.3818467" lon="16.0288233"><ele>56.0</ele><time>2026-05-03T08:10:24.482Z</time></trkpt><trkpt lat="39.3819217" lon="16.0287767"><ele>56.0</ele><time>2026-05-03T08:10:25.482Z</time></trkpt><trkpt lat="39.38199" lon="16.028675"><ele>56.0</ele><time>2026-05-03T08:10:26.481Z</time></trkpt><trkpt lat="39.382065" lon="16.0285483"><ele>56.0</ele><time>2026-05-03T08:10:27.482Z</time></trkpt><trkpt lat="39.3821567" lon="16.0284133"><ele>56.0</ele><time>2026-05-03T08:10:28.482Z</time></trkpt><trkpt lat="39.3822617" lon="16.0282783"><ele>56.0</ele><time>2026-05-03T08:10:29.482Z</time></trkpt><trkpt lat="39.3823717" lon="16.0281433"><ele>55.0</ele><time>2026-05-03T08:10:30.484Z</time></trkpt><trkpt lat="39.3824767" lon="16.02801"><ele>54.0</ele><time>2026-05-03T08:10:31.482Z</time></trkpt><trkpt lat="39.3825833" lon="16.0278783"><ele>53.0</ele><time>2026-05-03T08:10:32.483Z</time></trkpt><trkpt lat="39.3826883" lon="16.0277433"><ele>52.0</ele><time>2026-05-03T08:10:33.482Z</time></trkpt><trkpt lat="39.3828017" lon="16.0276033"><ele>53.0</ele><time>2026-05-03T08:10:34.481Z</time></trkpt><trkpt lat="39.3829167" lon="16.027455"><ele>54.0</ele><time>2026-05-03T08:10:35.482Z</time></trkpt><trkpt lat="39.383035" lon="16.0273"><ele>55.0</ele><time>2026-05-03T08:10:36.481Z</time></trkpt><trkpt lat="39.3831567" lon="16.0271367"><ele>52.666666666666664</ele><time>2026-05-03T08:10:37.482Z</time></trkpt><trkpt lat="39.3832833" lon="16.0269717"><ele>50.33333333333333</ele><time>2026-05-03T08:10:38.482Z</time></trkpt><trkpt lat="39.3834133" lon="16.0268067"><ele>48.0</ele><time>2026-05-03T08:10:39.482Z</time></trkpt><trkpt lat="39.3835433" lon="16.0266367"><ele>47.333333333333336</ele><time>2026-05-03T08:10:40.48Z</time></trkpt><trkpt lat="39.3836733" lon="16.026465"><ele>46.66666666666667</ele><time>2026-05-03T08:10:41.481Z</time></trkpt><trkpt lat="39.3837983" lon="16.0262917"><ele>46.0</ele><time>2026-05-03T08:10:42.482Z</time></trkpt><trkpt lat="39.3839267" lon="16.0261167"><ele>44.66666666666667</ele><time>2026-05-03T08:10:43.482Z</time></trkpt><trkpt lat="39.3840533" lon="16.025945"><ele>43.333333333333336</ele><time>2026-05-03T08:10:44.484Z</time></trkpt><trkpt lat="39.3841733" lon="16.025775"><ele>42.0</ele><time>2026-05-03T08:10:45.482Z</time></trkpt><trkpt lat="39.3842883" lon="16.0256067"><ele>40.0</ele><time>2026-05-03T08:10:46.482Z</time></trkpt><trkpt lat="39.3843967" lon="16.02544"><ele>38.0</ele><time>2026-05-03T08:10:47.482Z</time></trkpt><trkpt lat="39.3845033" lon="16.0252783"><ele>36.0</ele><time>2026-05-03T08:10:48.481Z</time></trkpt><trkpt lat="39.3846017" lon="16.0251183"><ele>34.666666666666664</ele><time>2026-05-03T08:10:49.483Z</time></trkpt><trkpt lat="39.3847017" lon="16.0249583"><ele>33.33333333333333</ele><time>2026-05-03T08:10:50.483Z</time></trkpt><trkpt lat="39.3848" lon="16.0247983"><ele>32.0</ele><time>2026-05-03T08:10:51.482Z</time></trkpt><trkpt lat="39.3848983" lon="16.0246467"><ele>32.0</ele><time>2026-05-03T08:10:52.482Z</time></trkpt><trkpt lat="39.38499" lon="16.0245033"><ele>32.0</ele><time>2026-05-03T08:10:53.482Z</time></trkpt><trkpt lat="39.38508" lon="16.0243633"><ele>32.0</ele><time>2026-05-03T08:10:54.483Z</time></trkpt><trkpt lat="39.3851683" lon="16.02423"><ele>32.0</ele><time>2026-05-03T08:10:55.481Z</time></trkpt><trkpt lat="39.385255" lon="16.0241033"><ele>31.0</ele><time>2026-05-03T08:10:56.483Z</time></trkpt><trkpt lat="39.38534" lon="16.0239767"><ele>30.0</ele><time>2026-05-03T08:10:57.482Z</time></trkpt><trkpt lat="39.385425" lon="16.0238517"><ele>29.0</ele><time>2026-05-03T08:10:58.481Z</time></trkpt><trkpt lat="39.3855117" lon="16.0237217"><ele>28.0</ele><time>2026-05-03T08:10:59.481Z</time></trkpt><trkpt lat="39.385595" lon="16.0235883"><ele>28.0</ele><time>2026-05-03T08:11:00.482Z</time></trkpt><trkpt lat="39.385675" lon="16.0234583"><ele>28.0</ele><time>2026-05-03T08:11:01.482Z</time></trkpt><trkpt lat="39.3857567" lon="16.023335"><ele>28.0</ele><time>2026-05-03T08:11:02.482Z</time></trkpt><trkpt lat="39.3858383" lon="16.0232167"><ele>28.0</ele><time>2026-05-03T08:11:03.482Z</time></trkpt><trkpt lat="39.385925" lon="16.0231017"><ele>28.25</ele><time>2026-05-03T08:11:04.481Z</time></trkpt><trkpt lat="39.38602" lon="16.0229933"><ele>28.5</ele><time>2026-05-03T08:11:05.481Z</time></trkpt><trkpt lat="39.3861233" lon="16.0228783"><ele>28.75</ele><time>2026-05-03T08:11:06.482Z</time></trkpt><trkpt lat="39.3862367" lon="16.022765"><ele>29.0</ele><time>2026-05-03T08:11:07.482Z</time></trkpt><trkpt lat="39.3863567" lon="16.0226567"><ele>29.0</ele><time>2026-05-03T08:11:08.483Z</time></trkpt><trkpt lat="39.3864767" lon="16.0225617"><ele>29.0</ele><time>2026-05-03T08:11:09.481Z</time></trkpt><trkpt lat="39.3865933" lon="16.0224717"><ele>29.0</ele><time>2026-05-03T08:11:10.482Z</time></trkpt><trkpt lat="39.3867067" lon="16.0223917"><ele>29.0</ele><time>2026-05-03T08:11:11.481Z</time></trkpt><trkpt lat="39.3868167" lon="16.022315"><ele>25.25</ele><time>2026-05-03T08:11:12.482Z</time></trkpt><trkpt lat="39.386925" lon="16.0222483"><ele>21.5</ele><time>2026-05-03T08:11:13.481Z</time></trkpt><trkpt lat="39.3870333" lon="16.0221783"><ele>17.75</ele><time>2026-05-03T08:11:14.482Z</time></trkpt><trkpt lat="39.3871517" lon="16.0221033"><ele>14.0</ele><time>2026-05-03T08:11:15.482Z</time></trkpt><trkpt lat="39.387275" lon="16.0220267"><ele>14.0</ele><time>2026-05-03T08:11:16.482Z</time></trkpt><trkpt lat="39.3874017" lon="16.0219467"><ele>14.0</ele><time>2026-05-03T08:11:17.485Z</time></trkpt><trkpt lat="39.38753" lon="16.0218633"><ele>14.0</ele><time>2026-05-03T08:11:18.483Z</time></trkpt><trkpt lat="39.38766" lon="16.0217733"><ele>14.0</ele><time>2026-05-03T08:11:19.482Z</time></trkpt><trkpt lat="39.387795" lon="16.0216817"><ele>11.666666666666668</ele><time>2026-05-03T08:11:20.483Z</time></trkpt><trkpt lat="39.38794" lon="16.0215833"><ele>9.333333333333334</ele><time>2026-05-03T08:11:21.48Z</time></trkpt><trkpt lat="39.3880917" lon="16.02148"><ele>7.0</ele><time>2026-05-03T08:11:22.482Z</time></trkpt><trkpt lat="39.38825" lon="16.0213733"><ele>7.0</ele><time>2026-05-03T08:11:23.483Z</time></trkpt><trkpt lat="39.3884183" lon="16.021265"><ele>7.0</ele><time>2026-05-03T08:11:24.483Z</time></trkpt><trkpt lat="39.3885917" lon="16.0211533"><ele>7.0</ele><time>2026-05-03T08:11:25.482Z</time></trkpt><trkpt lat="39.3887717" lon="16.021035"><ele>6.666666666666667</ele><time>2026-05-03T08:11:26.482Z</time></trkpt><trkpt lat="39.3889567" lon="16.020915"><ele>6.333333333333334</ele><time>2026-05-03T08:11:27.482Z</time></trkpt><trkpt lat="39.3891433" lon="16.0207917"><ele>6.0</ele><time>2026-05-03T08:11:28.482Z</time></trkpt><trkpt lat="39.38933" lon="16.0206667"><ele>6.0</ele><time>2026-05-03T08:11:29.481Z</time></trkpt><trkpt lat="39.3895167" lon="16.0205433"><ele>6.0</ele><time>2026-05-03T08:11:30.482Z</time></trkpt><trkpt lat="39.3896967" lon="16.020425"><ele>6.0</ele><time>2026-05-03T08:11:31.482Z</time></trkpt><trkpt lat="39.38987" lon="16.020315"><ele>5.666666666666667</ele><time>2026-05-03T08:11:32.483Z</time></trkpt><trkpt lat="39.39004" lon="16.0202033"><ele>5.333333333333334</ele><time>2026-05-03T08:11:33.482Z</time></trkpt><trkpt lat="39.3902033" lon="16.0200983"><ele>5.0</ele><time>2026-05-03T08:11:34.481Z</time></trkpt><trkpt lat="39.3903617" lon="16.0199983"><ele>6.333333333333334</ele><time>2026-05-03T08:11:35.481Z</time></trkpt><trkpt lat="39.3905133" lon="16.0199017"><ele>7.666666666666667</ele><time>2026-05-03T08:11:36.482Z</time></trkpt><trkpt lat="39.390665" lon="16.0198017"><ele>9.0</ele><time>2026-05-03T08:11:37.482Z</time></trkpt><trkpt lat="39.390825" lon="16.01969"><ele>9.0</ele><time>2026-05-03T08:11:38.483Z</time></trkpt><trkpt lat="39.391" lon="16.0195667"><ele>9.0</ele><time>2026-05-03T08:11:39.482Z</time></trkpt><trkpt lat="39.3911833" lon="16.019435"><ele>9.0</ele><time>2026-05-03T08:11:40.481Z</time></trkpt><trkpt lat="39.3913783" lon="16.019305"><ele>8.333333333333334</ele><time>2026-05-03T08:11:41.482Z</time></trkpt><trkpt lat="39.3915717" lon="16.0191767"><ele>7.666666666666667</ele><time>2026-05-03T08:11:42.482Z</time></trkpt><trkpt lat="39.391765" lon="16.019055"><ele>7.0</ele><time>2026-05-03T08:11:43.482Z</time></trkpt><trkpt lat="39.3919583" lon="16.0189383"><ele>7.0</ele><time>2026-05-03T08:11:44.483Z</time></trkpt><trkpt lat="39.3921433" lon="16.0188217"><ele>7.0</ele><time>2026-05-03T08:11:45.482Z</time></trkpt><trkpt lat="39.3923233" lon="16.018705"><ele>7.0</ele><time>2026-05-03T08:11:46.481Z</time></trkpt><trkpt lat="39.3925017" lon="16.0185917"><ele>6.666666666666667</ele><time>2026-05-03T08:11:47.483Z</time></trkpt><trkpt lat="39.3926817" lon="16.0184833"><ele>6.333333333333334</ele><time>2026-05-03T08:11:48.481Z</time></trkpt><trkpt lat="39.3928667" lon="16.0183833"><ele>6.0</ele><time>2026-05-03T08:11:49.483Z</time></trkpt><trkpt lat="39.39306" lon="16.0182917"><ele>6.0</ele><time>2026-05-03T08:11:50.482Z</time></trkpt><trkpt lat="39.3932583" lon="16.0182033"><ele>6.0</ele><time>2026-05-03T08:11:51.483Z</time></trkpt><trkpt lat="39.393465" lon="16.0181217"><ele>6.0</ele><time>2026-05-03T08:11:52.482Z</time></trkpt><trkpt lat="39.39368" lon="16.0180467"><ele>6.5</ele><time>2026-05-03T08:11:53.483Z</time></trkpt><trkpt lat="39.3939033" lon="16.0179717"><ele>7.0</ele><time>2026-05-03T08:11:54.483Z</time></trkpt><trkpt lat="39.3941383" lon="16.0178917"><ele>7.0</ele><time>2026-05-03T08:11:55.482Z</time></trkpt><trkpt lat="39.3943867" lon="16.0178067"><ele>7.0</ele><time>2026-05-03T08:11:56.483Z</time></trkpt><trkpt lat="39.3946383" lon="16.0177217"><ele>7.5</ele><time>2026-05-03T08:11:57.481Z</time></trkpt><trkpt lat="39.394885" lon="16.01764"><ele>8.0</ele><time>2026-05-03T08:11:58.481Z</time></trkpt><trkpt lat="39.3951317" lon="16.01756"><ele>6.5</ele><time>2026-05-03T08:11:59.481Z</time></trkpt><trkpt lat="39.395375" lon="16.01748"><ele>5.0</ele><time>2026-05-03T08:12:00.482Z</time></trkpt><trkpt lat="39.3956167" lon="16.0174033"><ele>5.0</ele><time>2026-05-03T08:12:01.483Z</time></trkpt><trkpt lat="39.3958533" lon="16.017325"><ele>5.0</ele><time>2026-05-03T08:12:02.483Z</time></trkpt><trkpt lat="39.39608" lon="16.0172467"><ele>5.0</ele><time>2026-05-03T08:12:03.481Z</time></trkpt><trkpt lat="39.396305" lon="16.0171683"><ele>5.0</ele><time>2026-05-03T08:12:04.482Z</time></trkpt><trkpt lat="39.3965267" lon="16.0170867"><ele>5.666666666666667</ele><time>2026-05-03T08:12:05.482Z</time></trkpt><trkpt lat="39.3967417" lon="16.0170017"><ele>6.333333333333334</ele><time>2026-05-03T08:12:06.482Z</time></trkpt><trkpt lat="39.3969517" lon="16.016915"><ele>7.0</ele><time>2026-05-03T08:12:07.482Z</time></trkpt><trkpt lat="39.3971583" lon="16.016825"><ele>6.0</ele><time>2026-05-03T08:12:08.483Z</time></trkpt><trkpt lat="39.3973633" lon="16.0167383"><ele>5.0</ele><time>2026-05-03T08:12:09.481Z</time></trkpt><trkpt lat="39.3975633" lon="16.0166567"><ele>4.0</ele><time>2026-05-03T08:12:10.483Z</time></trkpt><trkpt lat="39.39776" lon="16.0165767"><ele>4.0</ele><time>2026-05-03T08:12:11.483Z</time></trkpt><trkpt lat="39.397955" lon="16.0164967"><ele>4.0</ele><time>2026-05-03T08:12:12.482Z</time></trkpt><trkpt lat="39.3981433" lon="16.016415"><ele>4.0</ele><time>2026-05-03T08:12:13.482Z</time></trkpt><trkpt lat="39.3983283" lon="16.0163367"><ele>5.666666666666666</ele><time>2026-05-03T08:12:14.483Z</time></trkpt><trkpt lat="39.3985133" lon="16.0162583"><ele>7.333333333333333</ele><time>2026-05-03T08:12:15.482Z</time></trkpt><trkpt lat="39.3986983" lon="16.0161783"><ele>9.0</ele><time>2026-05-03T08:12:16.482Z</time></trkpt><trkpt lat="39.398885" lon="16.0161"><ele>10.666666666666668</ele><time>2026-05-03T08:12:17.482Z</time></trkpt><trkpt lat="39.3990767" lon="16.0160217"><ele>12.333333333333334</ele><time>2026-05-03T08:12:18.481Z</time></trkpt><trkpt lat="39.3992683" lon="16.0159417"><ele>14.0</ele><time>2026-05-03T08:12:19.483Z</time></trkpt><trkpt lat="39.399465" lon="16.0158567"><ele>11.666666666666668</ele><time>2026-05-03T08:12:20.483Z</time></trkpt><trkpt lat="39.399665" lon="16.0157717"><ele>9.333333333333334</ele><time>2026-05-03T08:12:21.482Z</time></trkpt><trkpt lat="39.3998683" lon="16.015685"><ele>7.0</ele><time>2026-05-03T08:12:22.482Z</time></trkpt><trkpt lat="39.40007" lon="16.0156"><ele>7.0</ele><time>2026-05-03T08:12:23.482Z</time></trkpt><trkpt lat="39.4002733" lon="16.0155117"><ele>7.0</ele><time>2026-05-03T08:12:24.481Z</time></trkpt><trkpt lat="39.4004767" lon="16.0154267"><ele>7.0</ele><time>2026-05-03T08:12:25.481Z</time></trkpt><trkpt lat="39.4006833" lon="16.0153383"><ele>8.333333333333334</ele><time>2026-05-03T08:12:26.482Z</time></trkpt><trkpt lat="39.40089" lon="16.01525"><ele>9.666666666666666</ele><time>2026-05-03T08:12:27.482Z</time></trkpt><trkpt lat="39.401095" lon="16.0151633"><ele>11.0</ele><time>2026-05-03T08:12:28.481Z</time></trkpt><trkpt lat="39.4013" lon="16.015075"><ele>12.666666666666666</ele><time>2026-05-03T08:12:29.483Z</time></trkpt><trkpt lat="39.401505" lon="16.0149883"><ele>14.333333333333332</ele><time>2026-05-03T08:12:30.483Z</time></trkpt><trkpt lat="39.4017117" lon="16.0149"><ele>16.0</ele><time>2026-05-03T08:12:31.482Z</time></trkpt><trkpt lat="39.4019183" lon="16.0148117"><ele>13.666666666666666</ele><time>2026-05-03T08:12:32.483Z</time></trkpt><trkpt lat="39.4021283" lon="16.0147233"><ele>11.333333333333332</ele><time>2026-05-03T08:12:33.482Z</time></trkpt><trkpt lat="39.4023383" lon="16.0146333"><ele>9.0</ele><time>2026-05-03T08:12:34.481Z</time></trkpt><trkpt lat="39.4025517" lon="16.0145433"><ele>9.0</ele><time>2026-05-03T08:12:35.481Z</time></trkpt><trkpt lat="39.402765" lon="16.0144633"><ele>9.0</ele><time>2026-05-03T08:12:36.482Z</time></trkpt><trkpt lat="39.4029867" lon="16.0143983"><ele>9.0</ele><time>2026-05-03T08:12:37.481Z</time></trkpt><trkpt lat="39.403215" lon="16.0143583"><ele>9.666666666666666</ele><time>2026-05-03T08:12:38.483Z</time></trkpt><trkpt lat="39.4034417" lon="16.01435"><ele>10.333333333333332</ele><time>2026-05-03T08:12:39.48Z</time></trkpt><trkpt lat="39.4036617" lon="16.0143667"><ele>11.0</ele><time>2026-05-03T08:12:40.481Z</time></trkpt><trkpt lat="39.4038833" lon="16.014395"><ele>12.0</ele><time>2026-05-03T08:12:41.48Z</time></trkpt><trkpt lat="39.404105" lon="16.014425"><ele>13.0</ele><time>2026-05-03T08:12:42.482Z</time></trkpt><trkpt lat="39.4043267" lon="16.0144533"><ele>14.0</ele><time>2026-05-03T08:12:43.482Z</time></trkpt><trkpt lat="39.40455" lon="16.0144783"><ele>15.666666666666668</ele><time>2026-05-03T08:12:44.482Z</time></trkpt><trkpt lat="39.4047733" lon="16.0145017"><ele>17.333333333333332</ele><time>2026-05-03T08:12:45.481Z</time></trkpt><trkpt lat="39.4049967" lon="16.0145267"><ele>19.0</ele><time>2026-05-03T08:12:46.482Z</time></trkpt><trkpt lat="39.4052183" lon="16.0145517"><ele>19.0</ele><time>2026-05-03T08:12:47.482Z</time></trkpt><trkpt lat="39.40544" lon="16.01458"><ele>19.0</ele><time>2026-05-03T08:12:48.483Z</time></trkpt><trkpt lat="39.4056633" lon="16.01461"><ele>19.0</ele><time>2026-05-03T08:12:49.482Z</time></trkpt><trkpt lat="39.4058867" lon="16.0146367"><ele>18.666666666666664</ele><time>2026-05-03T08:12:50.483Z</time></trkpt><trkpt lat="39.4061083" lon="16.014665"><ele>18.333333333333332</ele><time>2026-05-03T08:12:51.482Z</time></trkpt><trkpt lat="39.40633" lon="16.0146967"><ele>18.0</ele><time>2026-05-03T08:12:52.481Z</time></trkpt><trkpt lat="39.406555" lon="16.0147267"><ele>18.0</ele><time>2026-05-03T08:12:53.482Z</time></trkpt><trkpt lat="39.406775" lon="16.0147583"><ele>18.0</ele><time>2026-05-03T08:12:54.487Z</time></trkpt><trkpt lat="39.4069983" lon="16.0147883"><ele>18.0</ele><time>2026-05-03T08:12:55.481Z</time></trkpt><trkpt lat="39.4072317" lon="16.0148183"><ele>20.0</ele><time>2026-05-03T08:12:56.483Z</time></trkpt><trkpt lat="39.4074683" lon="16.0148467"><ele>22.0</ele><time>2026-05-03T08:12:57.481Z</time></trkpt><trkpt lat="39.4077017" lon="16.0148783"><ele>22.0</ele><time>2026-05-03T08:12:58.482Z</time></trkpt><trkpt lat="39.40793" lon="16.0149083"><ele>22.0</ele><time>2026-05-03T08:12:59.483Z</time></trkpt><trkpt lat="39.4081533" lon="16.0149383"><ele>23.0</ele><time>2026-05-03T08:13:00.482Z</time></trkpt><trkpt lat="39.408375" lon="16.0149667"><ele>24.0</ele><time>2026-05-03T08:13:01.482Z</time></trkpt><trkpt lat="39.4085933" lon="16.015"><ele>25.0</ele><time>2026-05-03T08:13:02.482Z</time></trkpt><trkpt lat="39.4088083" lon="16.01503"><ele>28.0</ele><time>2026-05-03T08:13:03.482Z</time></trkpt><trkpt lat="39.4090217" lon="16.015055"><ele>31.0</ele><time>2026-05-03T08:13:04.482Z</time></trkpt><trkpt lat="39.409235" lon="16.0150717"><ele>34.0</ele><time>2026-05-03T08:13:05.482Z</time></trkpt><trkpt lat="39.409445" lon="16.015085"><ele>34.0</ele><time>2026-05-03T08:13:06.482Z</time></trkpt><trkpt lat="39.409655" lon="16.0150833"><ele>34.0</ele><time>2026-05-03T08:13:07.481Z</time></trkpt><trkpt lat="39.4098633" lon="16.01507"><ele>34.0</ele><time>2026-05-03T08:13:08.483Z</time></trkpt><trkpt lat="39.4100717" lon="16.015045"><ele>34.0</ele><time>2026-05-03T08:13:09.483Z</time></trkpt><trkpt lat="39.410275" lon="16.0150117"><ele>34.0</ele><time>2026-05-03T08:13:10.482Z</time></trkpt><trkpt lat="39.410475" lon="16.0149783"><ele>34.0</ele><time>2026-05-03T08:13:11.482Z</time></trkpt><trkpt lat="39.4106683" lon="16.0149433"><ele>29.666666666666668</ele><time>2026-05-03T08:13:12.483Z</time></trkpt><trkpt lat="39.4108583" lon="16.0149067"><ele>25.333333333333336</ele><time>2026-05-03T08:13:13.482Z</time></trkpt><trkpt lat="39.41105" lon="16.0148683"><ele>21.0</ele><time>2026-05-03T08:13:14.483Z</time></trkpt><trkpt lat="39.41124" lon="16.0148283"><ele>22.333333333333336</ele><time>2026-05-03T08:13:15.482Z</time></trkpt><trkpt lat="39.4114317" lon="16.01479"><ele>23.666666666666668</ele><time>2026-05-03T08:13:16.483Z</time></trkpt><trkpt lat="39.4116233" lon="16.0147533"><ele>25.0</ele><time>2026-05-03T08:13:17.482Z</time></trkpt><trkpt lat="39.4118183" lon="16.014715"><ele>25.0</ele><time>2026-05-03T08:13:18.482Z</time></trkpt><trkpt lat="39.4120133" lon="16.0146783"><ele>25.0</ele><time>2026-05-03T08:13:19.482Z</time></trkpt><trkpt lat="39.4122067" lon="16.0146383"><ele>25.0</ele><time>2026-05-03T08:13:20.483Z</time></trkpt><trkpt lat="39.4123983" lon="16.0146"><ele>26.333333333333336</ele><time>2026-05-03T08:13:21.481Z</time></trkpt><trkpt lat="39.412585" lon="16.0145633"><ele>27.666666666666664</ele><time>2026-05-03T08:13:22.483Z</time></trkpt><trkpt lat="39.4127617" lon="16.0145267"><ele>29.0</ele><time>2026-05-03T08:13:23.483Z</time></trkpt><trkpt lat="39.41293" lon="16.0144917"><ele>30.0</ele><time>2026-05-03T08:13:24.483Z</time></trkpt><trkpt lat="39.4130967" lon="16.0144467"><ele>31.0</ele><time>2026-05-03T08:13:25.482Z</time></trkpt><trkpt lat="39.4132617" lon="16.0143983"><ele>32.0</ele><time>2026-05-03T08:13:26.482Z</time></trkpt><trkpt lat="39.4134283" lon="16.0143367"><ele>32.0</ele><time>2026-05-03T08:13:27.484Z</time></trkpt><trkpt lat="39.413595" lon="16.0142583"><ele>32.0</ele><time>2026-05-03T08:13:28.482Z</time></trkpt><trkpt lat="39.413765" lon="16.01416"><ele>32.0</ele><time>2026-05-03T08:13:29.482Z</time></trkpt><trkpt lat="39.4139367" lon="16.01405"><ele>31.333333333333332</ele><time>2026-05-03T08:13:30.483Z</time></trkpt><trkpt lat="39.4141133" lon="16.0139333"><ele>30.666666666666664</ele><time>2026-05-03T08:13:31.482Z</time></trkpt><trkpt lat="39.4142867" lon="16.0138117"><ele>30.0</ele><time>2026-05-03T08:13:32.483Z</time></trkpt><trkpt lat="39.4144583" lon="16.01369"><ele>30.0</ele><time>2026-05-03T08:13:33.483Z</time></trkpt><trkpt lat="39.4146267" lon="16.0135717"><ele>30.0</ele><time>2026-05-03T08:13:34.484Z</time></trkpt><trkpt lat="39.4147917" lon="16.0134567"><ele>30.0</ele><time>2026-05-03T08:13:35.482Z</time></trkpt><trkpt lat="39.4149583" lon="16.01334"><ele>29.666666666666664</ele><time>2026-05-03T08:13:36.482Z</time></trkpt><trkpt lat="39.415125" lon="16.0132233"><ele>29.333333333333332</ele><time>2026-05-03T08:13:37.483Z</time></trkpt><trkpt lat="39.41529" lon="16.0131067"><ele>29.0</ele><time>2026-05-03T08:13:38.483Z</time></trkpt><trkpt lat="39.415455" lon="16.0129833"><ele>30.666666666666664</ele><time>2026-05-03T08:13:39.482Z</time></trkpt><trkpt lat="39.4156217" lon="16.0128567"><ele>32.333333333333336</ele><time>2026-05-03T08:13:40.482Z</time></trkpt><trkpt lat="39.4157883" lon="16.0127283"><ele>34.0</ele><time>2026-05-03T08:13:41.483Z</time></trkpt><trkpt lat="39.4159567" lon="16.0125883"><ele>31.666666666666668</ele><time>2026-05-03T08:13:42.483Z</time></trkpt><trkpt lat="39.41612" lon="16.012445"><ele>29.333333333333336</ele><time>2026-05-03T08:13:43.482Z</time></trkpt><trkpt lat="39.4162883" lon="16.0122883"><ele>27.0</ele><time>2026-05-03T08:13:44.482Z</time></trkpt><trkpt lat="39.4164617" lon="16.0121267"><ele>27.0</ele><time>2026-05-03T08:13:45.482Z</time></trkpt><trkpt lat="39.41664" lon="16.0119567"><ele>27.0</ele><time>2026-05-03T08:13:46.483Z</time></trkpt><trkpt lat="39.4168233" lon="16.0117767"><ele>26.5</ele><time>2026-05-03T08:13:47.481Z</time></trkpt><trkpt lat="39.4170067" lon="16.0115917"><ele>26.0</ele><time>2026-05-03T08:13:48.481Z</time></trkpt><trkpt lat="39.4171967" lon="16.0114017"><ele>26.0</ele><time>2026-05-03T08:13:49.481Z</time></trkpt><trkpt lat="39.4173933" lon="16.0112"><ele>26.0</ele><time>2026-05-03T08:13:50.483Z</time></trkpt><trkpt lat="39.417595" lon="16.0109933"><ele>23.5</ele><time>2026-05-03T08:13:51.483Z</time></trkpt><trkpt lat="39.4178" lon="16.01079"><ele>21.0</ele><time>2026-05-03T08:13:52.482Z</time></trkpt><trkpt lat="39.4179983" lon="16.0105883"><ele>19.5</ele><time>2026-05-03T08:13:53.481Z</time></trkpt><trkpt lat="39.4182" lon="16.0103883"><ele>18.0</ele><time>2026-05-03T08:13:54.482Z</time></trkpt><trkpt lat="39.4184033" lon="16.0101883"><ele>15.5</ele><time>2026-05-03T08:13:55.482Z</time></trkpt><trkpt lat="39.418605" lon="16.009985"><ele>13.0</ele><time>2026-05-03T08:13:56.483Z</time></trkpt><trkpt lat="39.41881" lon="16.0097817"><ele>11.5</ele><time>2026-05-03T08:13:57.481Z</time></trkpt><trkpt lat="39.4190133" lon="16.0095783"><ele>10.0</ele><time>2026-05-03T08:13:58.482Z</time></trkpt><trkpt lat="39.419215" lon="16.009375"><ele>10.0</ele><time>2026-05-03T08:13:59.482Z</time></trkpt><trkpt lat="39.4194217" lon="16.0091733"><ele>10.0</ele><time>2026-05-03T08:14:00.481Z</time></trkpt><trkpt lat="39.41963" lon="16.00897"><ele>9.0</ele><time>2026-05-03T08:14:01.482Z</time></trkpt><trkpt lat="39.4198367" lon="16.0087667"><ele>8.0</ele><time>2026-05-03T08:14:02.483Z</time></trkpt><trkpt lat="39.420045" lon="16.0085617"><ele>8.0</ele><time>2026-05-03T08:14:03.482Z</time></trkpt><trkpt lat="39.4202567" lon="16.0083567"><ele>8.0</ele><time>2026-05-03T08:14:04.483Z</time></trkpt><trkpt lat="39.420465" lon="16.0081483"><ele>7.5</ele><time>2026-05-03T08:14:05.482Z</time></trkpt><trkpt lat="39.4206733" lon="16.0079383"><ele>7.0</ele><time>2026-05-03T08:14:06.482Z</time></trkpt><trkpt lat="39.4208817" lon="16.0077283"><ele>7.0</ele><time>2026-05-03T08:14:07.482Z</time></trkpt><trkpt lat="39.4210883" lon="16.00752"><ele>7.0</ele><time>2026-05-03T08:14:08.483Z</time></trkpt><trkpt lat="39.4212883" lon="16.00732"><ele>7.5</ele><time>2026-05-03T08:14:09.482Z</time></trkpt><trkpt lat="39.421475" lon="16.0071333"><ele>8.0</ele><time>2026-05-03T08:14:10.482Z</time></trkpt><trkpt lat="39.421655" lon="16.0069567"><ele>8.0</ele><time>2026-05-03T08:14:11.482Z</time></trkpt><trkpt lat="39.4218317" lon="16.0067883"><ele>8.0</ele><time>2026-05-03T08:14:12.482Z</time></trkpt><trkpt lat="39.4220033" lon="16.0066317"><ele>8.0</ele><time>2026-05-03T08:14:13.482Z</time></trkpt><trkpt lat="39.4221733" lon="16.006495"><ele>8.666666666666666</ele><time>2026-05-03T08:14:14.482Z</time></trkpt><trkpt lat="39.422345" lon="16.006375"><ele>9.333333333333334</ele><time>2026-05-03T08:14:15.482Z</time></trkpt><trkpt lat="39.4225167" lon="16.00627"><ele>10.0</ele><time>2026-05-03T08:14:16.483Z</time></trkpt><trkpt lat="39.42269" lon="16.00617"><ele>10.0</ele><time>2026-05-03T08:14:17.482Z</time></trkpt><trkpt lat="39.42286" lon="16.006075"><ele>10.0</ele><time>2026-05-03T08:14:18.481Z</time></trkpt><trkpt lat="39.42303" lon="16.0059833"><ele>10.0</ele><time>2026-05-03T08:14:19.482Z</time></trkpt><trkpt lat="39.4231983" lon="16.0058917"><ele>10.0</ele><time>2026-05-03T08:14:20.482Z</time></trkpt><trkpt lat="39.4233667" lon="16.0057983"><ele>10.0</ele><time>2026-05-03T08:14:21.482Z</time></trkpt><trkpt lat="39.4235333" lon="16.005705"><ele>10.0</ele><time>2026-05-03T08:14:22.481Z</time></trkpt><trkpt lat="39.4237033" lon="16.005605"><ele>10.333333333333334</ele><time>2026-05-03T08:14:23.482Z</time></trkpt><trkpt lat="39.4238733" lon="16.0055"><ele>10.666666666666666</ele><time>2026-05-03T08:14:24.482Z</time></trkpt><trkpt lat="39.4240583" lon="16.0053933"><ele>11.0</ele><time>2026-05-03T08:14:25.482Z</time></trkpt><trkpt lat="39.42426" lon="16.00529"><ele>11.0</ele><time>2026-05-03T08:14:26.483Z</time></trkpt><trkpt lat="39.4244683" lon="16.0051867"><ele>11.0</ele><time>2026-05-03T08:14:27.481Z</time></trkpt><trkpt lat="39.4246833" lon="16.005085"><ele>10.0</ele><time>2026-05-03T08:14:28.482Z</time></trkpt><trkpt lat="39.4249067" lon="16.0049833"><ele>9.0</ele><time>2026-05-03T08:14:29.482Z</time></trkpt><trkpt lat="39.4251333" lon="16.0048867"><ele>9.0</ele><time>2026-05-03T08:14:30.482Z</time></trkpt><trkpt lat="39.4253633" lon="16.0047933"><ele>9.0</ele><time>2026-05-03T08:14:31.481Z</time></trkpt><trkpt lat="39.425595" lon="16.004705"><ele>9.5</ele><time>2026-05-03T08:14:32.484Z</time></trkpt><trkpt lat="39.4258233" lon="16.0046167"><ele>10.0</ele><time>2026-05-03T08:14:33.481Z</time></trkpt><trkpt lat="39.42605" lon="16.0045283"><ele>10.0</ele><time>2026-05-03T08:14:34.483Z</time></trkpt><trkpt lat="39.4262717" lon="16.0044367"><ele>10.0</ele><time>2026-05-03T08:14:35.482Z</time></trkpt><trkpt lat="39.4264883" lon="16.0043517"><ele>10.0</ele><time>2026-05-03T08:14:36.483Z</time></trkpt><trkpt lat="39.4267017" lon="16.0042667"><ele>10.0</ele><time>2026-05-03T08:14:37.482Z</time></trkpt><trkpt lat="39.426915" lon="16.0041817"><ele>10.0</ele><time>2026-05-03T08:14:38.483Z</time></trkpt><trkpt lat="39.42713" lon="16.0040983"><ele>8.5</ele><time>2026-05-03T08:14:39.483Z</time></trkpt><trkpt lat="39.427345" lon="16.0040133"><ele>7.0</ele><time>2026-05-03T08:14:40.481Z</time></trkpt><trkpt lat="39.4275633" lon="16.0039267"><ele>7.0</ele><time>2026-05-03T08:14:41.483Z</time></trkpt><trkpt lat="39.427785" lon="16.00384"><ele>7.0</ele><time>2026-05-03T08:14:42.482Z</time></trkpt><trkpt lat="39.4280083" lon="16.00375"><ele>7.5</ele><time>2026-05-03T08:14:43.482Z</time></trkpt><trkpt lat="39.4282333" lon="16.0036633"><ele>8.0</ele><time>2026-05-03T08:14:44.486Z</time></trkpt><trkpt lat="39.42846" lon="16.00358"><ele>8.0</ele><time>2026-05-03T08:14:45.483Z</time></trkpt><trkpt lat="39.4286833" lon="16.003505"><ele>8.0</ele><time>2026-05-03T08:14:46.482Z</time></trkpt><trkpt lat="39.4289067" lon="16.0034383"><ele>8.0</ele><time>2026-05-03T08:14:47.483Z</time></trkpt><trkpt lat="39.4291233" lon="16.00338"><ele>8.0</ele><time>2026-05-03T08:14:48.482Z</time></trkpt><trkpt lat="39.4293367" lon="16.0033183"><ele>8.0</ele><time>2026-05-03T08:14:49.483Z</time></trkpt><trkpt lat="39.42954" lon="16.003265"><ele>8.0</ele><time>2026-05-03T08:14:50.483Z</time></trkpt><trkpt lat="39.4297333" lon="16.0032167"><ele>8.0</ele><time>2026-05-03T08:14:51.483Z</time></trkpt><trkpt lat="39.429915" lon="16.0031667"><ele>8.0</ele><time>2026-05-03T08:14:52.482Z</time></trkpt><trkpt lat="39.4300883" lon="16.00312"><ele>8.0</ele><time>2026-05-03T08:14:53.483Z</time></trkpt><trkpt lat="39.4302567" lon="16.0030767"><ele>8.0</ele><time>2026-05-03T08:14:54.482Z</time></trkpt><trkpt lat="39.430425" lon="16.0030267"><ele>8.0</ele><time>2026-05-03T08:14:55.483Z</time></trkpt><trkpt lat="39.4306" lon="16.002965"><ele>8.0</ele><time>2026-05-03T08:14:56.483Z</time></trkpt><trkpt lat="39.4307867" lon="16.0028833"><ele>8.0</ele><time>2026-05-03T08:14:57.481Z</time></trkpt><trkpt lat="39.4309867" lon="16.0027883"><ele>8.0</ele><time>2026-05-03T08:14:58.484Z</time></trkpt><trkpt lat="39.4312" lon="16.0026783"><ele>7.0</ele><time>2026-05-03T08:14:59.482Z</time></trkpt><trkpt lat="39.431425" lon="16.00256"><ele>6.0</ele><time>2026-05-03T08:15:00.483Z</time></trkpt><trkpt lat="39.4316567" lon="16.00244"><ele>6.0</ele><time>2026-05-03T08:15:01.483Z</time></trkpt><trkpt lat="39.431895" lon="16.0023167"><ele>6.0</ele><time>2026-05-03T08:15:02.483Z</time></trkpt><trkpt lat="39.4321383" lon="16.00219"><ele>6.5</ele><time>2026-05-03T08:15:03.483Z</time></trkpt><trkpt lat="39.43238" lon="16.00206"><ele>7.0</ele><time>2026-05-03T08:15:04.483Z</time></trkpt><trkpt lat="39.4326233" lon="16.0019267"><ele>7.0</ele><time>2026-05-03T08:15:05.483Z</time></trkpt><trkpt lat="39.432865" lon="16.00179"><ele>7.0</ele><time>2026-05-03T08:15:06.482Z</time></trkpt><trkpt lat="39.4331033" lon="16.0016517"><ele>7.0</ele><time>2026-05-03T08:15:07.481Z</time></trkpt><trkpt lat="39.4333417" lon="16.0015133"><ele>7.0</ele><time>2026-05-03T08:15:08.483Z</time></trkpt><trkpt lat="39.4335717" lon="16.0013733"><ele>7.0</ele><time>2026-05-03T08:15:09.484Z</time></trkpt><trkpt lat="39.433795" lon="16.00123"><ele>7.0</ele><time>2026-05-03T08:15:10.482Z</time></trkpt><trkpt lat="39.43401" lon="16.0010833"><ele>7.0</ele><time>2026-05-03T08:15:11.482Z</time></trkpt><trkpt lat="39.4342267" lon="16.0009383"><ele>7.0</ele><time>2026-05-03T08:15:12.483Z</time></trkpt><trkpt lat="39.43444" lon="16.0008"><ele>7.5</ele><time>2026-05-03T08:15:13.481Z</time></trkpt><trkpt lat="39.4346517" lon="16.000665"><ele>8.0</ele><time>2026-05-03T08:15:14.482Z</time></trkpt><trkpt lat="39.434865" lon="16.0005367"><ele>8.0</ele><time>2026-05-03T08:15:15.482Z</time></trkpt><trkpt lat="39.4350817" lon="16.0004183"><ele>8.0</ele><time>2026-05-03T08:15:16.483Z</time></trkpt><trkpt lat="39.4352983" lon="16.0003033"><ele>8.5</ele><time>2026-05-03T08:15:17.482Z</time></trkpt><trkpt lat="39.435515" lon="16.0001933"><ele>9.0</ele><time>2026-05-03T08:15:18.482Z</time></trkpt><trkpt lat="39.435735" lon="16.000085"><ele>9.0</ele><time>2026-05-03T08:15:19.483Z</time></trkpt><trkpt lat="39.4359517" lon="15.9999717"><ele>9.0</ele><time>2026-05-03T08:15:20.482Z</time></trkpt><trkpt lat="39.4361683" lon="15.9998583"><ele>9.0</ele><time>2026-05-03T08:15:21.482Z</time></trkpt><trkpt lat="39.4363867" lon="15.9997433"><ele>9.0</ele><time>2026-05-03T08:15:22.483Z</time></trkpt><trkpt lat="39.4366083" lon="15.9996317"><ele>9.0</ele><time>2026-05-03T08:15:23.483Z</time></trkpt><trkpt lat="39.4368333" lon="15.99952"><ele>9.0</ele><time>2026-05-03T08:15:24.482Z</time></trkpt><trkpt lat="39.43706" lon="15.9994083"><ele>8.0</ele><time>2026-05-03T08:15:25.483Z</time></trkpt><trkpt lat="39.43729" lon="15.9992967"><ele>7.0</ele><time>2026-05-03T08:15:26.484Z</time></trkpt><trkpt lat="39.4375217" lon="15.9991817"><ele>7.0</ele><time>2026-05-03T08:15:27.482Z</time></trkpt><trkpt lat="39.4377533" lon="15.9990683"><ele>7.0</ele><time>2026-05-03T08:15:28.482Z</time></trkpt><trkpt lat="39.4379867" lon="15.998955"><ele>7.0</ele><time>2026-05-03T08:15:29.483Z</time></trkpt><trkpt lat="39.43822" lon="15.9988417"><ele>7.0</ele><time>2026-05-03T08:15:30.483Z</time></trkpt><trkpt lat="39.4384483" lon="15.9987333"><ele>7.0</ele><time>2026-05-03T08:15:31.486Z</time></trkpt><trkpt lat="39.4386783" lon="15.99863"><ele>7.0</ele><time>2026-05-03T08:15:32.483Z</time></trkpt><trkpt lat="39.4389083" lon="15.99853"><ele>7.0</ele><time>2026-05-03T08:15:33.482Z</time></trkpt><trkpt lat="39.4391383" lon="15.9984333"><ele>7.0</ele><time>2026-05-03T08:15:34.483Z</time></trkpt><trkpt lat="39.439365" lon="15.9983333"><ele>7.0</ele><time>2026-05-03T08:15:35.482Z</time></trkpt><trkpt lat="39.4395917" lon="15.998235"><ele>7.0</ele><time>2026-05-03T08:15:36.483Z</time></trkpt><trkpt lat="39.4398167" lon="15.9981367"><ele>6.0</ele><time>2026-05-03T08:15:37.483Z</time></trkpt><trkpt lat="39.440045" lon="15.9980333"><ele>5.0</ele><time>2026-05-03T08:15:38.484Z</time></trkpt><trkpt lat="39.440275" lon="15.9979333"><ele>4.5</ele><time>2026-05-03T08:15:39.482Z</time></trkpt><trkpt lat="39.440505" lon="15.9978367"><ele>4.0</ele><time>2026-05-03T08:15:40.482Z</time></trkpt><trkpt lat="39.4407367" lon="15.99774"><ele>4.0</ele><time>2026-05-03T08:15:41.482Z</time></trkpt><trkpt lat="39.4409633" lon="15.9976417"><ele>4.0</ele><time>2026-05-03T08:15:42.483Z</time></trkpt><trkpt lat="39.4411833" lon="15.9975483"><ele>4.666666666666666</ele><time>2026-05-03T08:15:43.482Z</time></trkpt><trkpt lat="39.4413917" lon="15.997455"><ele>5.333333333333333</ele><time>2026-05-03T08:15:44.482Z</time></trkpt><trkpt lat="39.4415917" lon="15.997365"><ele>6.0</ele><time>2026-05-03T08:15:45.481Z</time></trkpt><trkpt lat="39.44179" lon="15.9972717"><ele>6.0</ele><time>2026-05-03T08:15:46.483Z</time></trkpt><trkpt lat="39.4419867" lon="15.99717"><ele>6.0</ele><time>2026-05-03T08:15:47.482Z</time></trkpt><trkpt lat="39.4421867" lon="15.9970583"><ele>6.0</ele><time>2026-05-03T08:15:48.482Z</time></trkpt><trkpt lat="39.44239" lon="15.9969417"><ele>6.0</ele><time>2026-05-03T08:15:49.483Z</time></trkpt><trkpt lat="39.4426" lon="15.996815"><ele>6.0</ele><time>2026-05-03T08:15:50.485Z</time></trkpt><trkpt lat="39.4428183" lon="15.9966783"><ele>6.0</ele><time>2026-05-03T08:15:51.483Z</time></trkpt><trkpt lat="39.443045" lon="15.996535"><ele>6.0</ele><time>2026-05-03T08:15:52.482Z</time></trkpt><trkpt lat="39.443275" lon="15.9963883"><ele>6.0</ele><time>2026-05-03T08:15:53.483Z</time></trkpt><trkpt lat="39.443505" lon="15.9962367"><ele>6.0</ele><time>2026-05-03T08:15:54.483Z</time></trkpt><trkpt lat="39.4437333" lon="15.9960867"><ele>6.5</ele><time>2026-05-03T08:15:55.483Z</time></trkpt><trkpt lat="39.4439567" lon="15.9959367"><ele>7.0</ele><time>2026-05-03T08:15:56.483Z</time></trkpt><trkpt lat="39.44418" lon="15.9957967"><ele>7.0</ele><time>2026-05-03T08:15:57.482Z</time></trkpt><trkpt lat="39.4444067" lon="15.9956733"><ele>7.0</ele><time>2026-05-03T08:15:58.483Z</time></trkpt><trkpt lat="39.4446367" lon="15.9955717"><ele>8.0</ele><time>2026-05-03T08:15:59.482Z</time></trkpt><trkpt lat="39.4448617" lon="15.9954867"><ele>9.0</ele><time>2026-05-03T08:16:00.482Z</time></trkpt><trkpt lat="39.445085" lon="15.99541"><ele>9.0</ele><time>2026-05-03T08:16:01.482Z</time></trkpt><trkpt lat="39.4453117" lon="15.9953367"><ele>9.0</ele><time>2026-05-03T08:16:02.483Z</time></trkpt><trkpt lat="39.44554" lon="15.99526"><ele>8.5</ele><time>2026-05-03T08:16:03.482Z</time></trkpt><trkpt lat="39.44577" lon="15.9951817"><ele>8.0</ele><time>2026-05-03T08:16:04.483Z</time></trkpt><trkpt lat="39.4460017" lon="15.995105"><ele>8.0</ele><time>2026-05-03T08:16:05.481Z</time></trkpt><trkpt lat="39.4462367" lon="15.9950283"><ele>8.0</ele><time>2026-05-03T08:16:06.483Z</time></trkpt><trkpt lat="39.446475" lon="15.99495"><ele>8.0</ele><time>2026-05-03T08:16:07.481Z</time></trkpt><trkpt lat="39.4467117" lon="15.9948683"><ele>8.0</ele><time>2026-05-03T08:16:08.483Z</time></trkpt><trkpt lat="39.4469517" lon="15.9947817"><ele>8.5</ele><time>2026-05-03T08:16:09.482Z</time></trkpt><trkpt lat="39.4471883" lon="15.994685"><ele>9.0</ele><time>2026-05-03T08:16:10.483Z</time></trkpt><trkpt lat="39.4474217" lon="15.9945733"><ele>9.0</ele><time>2026-05-03T08:16:11.481Z</time></trkpt><trkpt lat="39.4476483" lon="15.9944467"><ele>9.0</ele><time>2026-05-03T08:16:12.482Z</time></trkpt><trkpt lat="39.4478717" lon="15.9943167"><ele>11.5</ele><time>2026-05-03T08:16:13.482Z</time></trkpt><trkpt lat="39.4480933" lon="15.994185"><ele>14.0</ele><time>2026-05-03T08:16:14.484Z</time></trkpt><trkpt lat="39.448315" lon="15.9940517"><ele>14.0</ele><time>2026-05-03T08:16:15.481Z</time></trkpt><trkpt lat="39.4485367" lon="15.9939233"><ele>14.0</ele><time>2026-05-03T08:16:16.482Z</time></trkpt><trkpt lat="39.4487567" lon="15.9937967"><ele>20.5</ele><time>2026-05-03T08:16:17.482Z</time></trkpt><trkpt lat="39.448975" lon="15.99367"><ele>27.0</ele><time>2026-05-03T08:16:18.482Z</time></trkpt><trkpt lat="39.4491933" lon="15.9935433"><ele>27.0</ele><time>2026-05-03T08:16:19.483Z</time></trkpt><trkpt lat="39.4494133" lon="15.9934133"><ele>27.0</ele><time>2026-05-03T08:16:20.482Z</time></trkpt><trkpt lat="39.4496417" lon="15.9932833"><ele>49.0</ele><time>2026-05-03T08:16:21.482Z</time></trkpt><trkpt lat="39.4498733" lon="15.9931633"><ele>71.0</ele><time>2026-05-03T08:16:22.482Z</time></trkpt><trkpt lat="39.4501033" lon="15.9930367"><ele>14.0</ele><time>2026-05-03T08:16:23.482Z</time></trkpt><trkpt lat="39.4479873" lon="15.9937037"><ele>56.0</ele><time>2026-05-03T08:16:35.528Z</time></trkpt><trkpt lat="39.4616367" lon="15.9860583"><ele>56.0</ele><time>2026-05-03T08:17:14.483Z</time></trkpt><trkpt lat="39.4618817" lon="15.985895"><ele>56.0</ele><time>2026-05-03T08:17:15.481Z</time></trkpt><trkpt lat="39.4621133" lon="15.985735"><ele>55.0</ele><time>2026-05-03T08:17:16.482Z</time></trkpt><trkpt lat="39.4623417" lon="15.98557"><ele>54.0</ele><time>2026-05-03T08:17:17.483Z</time></trkpt><trkpt lat="39.4625633" lon="15.9854"><ele>54.0</ele><time>2026-05-03T08:17:18.482Z</time></trkpt><trkpt lat="39.4627867" lon="15.9852333"><ele>54.0</ele><time>2026-05-03T08:17:19.483Z</time></trkpt><trkpt lat="39.4630083" lon="15.985065"><ele>47.0</ele><time>2026-05-03T08:17:20.483Z</time></trkpt><trkpt lat="39.46323" lon="15.9848967"><ele>40.0</ele><time>2026-05-03T08:17:21.483Z</time></trkpt><trkpt lat="39.4634567" lon="15.9847283"><ele>40.0</ele><time>2026-05-03T08:17:22.482Z</time></trkpt><trkpt lat="39.4636833" lon="15.9845633"><ele>40.0</ele><time>2026-05-03T08:17:23.483Z</time></trkpt><trkpt lat="39.4639133" lon="15.9844"><ele>38.5</ele><time>2026-05-03T08:17:24.482Z</time></trkpt><trkpt lat="39.464145" lon="15.98424"><ele>37.0</ele><time>2026-05-03T08:17:25.482Z</time></trkpt><trkpt lat="39.4643733" lon="15.984075"><ele>37.0</ele><time>2026-05-03T08:17:26.481Z</time></trkpt><trkpt lat="39.4646067" lon="15.9839117"><ele>37.0</ele><time>2026-05-03T08:17:27.483Z</time></trkpt><trkpt lat="39.464835" lon="15.98374"><ele>43.5</ele><time>2026-05-03T08:17:28.482Z</time></trkpt><trkpt lat="39.4650633" lon="15.9835717"><ele>50.0</ele><time>2026-05-03T08:17:29.481Z</time></trkpt><trkpt lat="39.465295" lon="15.9834033"><ele>48.0</ele><time>2026-05-03T08:17:30.482Z</time></trkpt><trkpt lat="39.4655283" lon="15.9832317"><ele>46.0</ele><time>2026-05-03T08:17:31.483Z</time></trkpt><trkpt lat="39.4657617" lon="15.9830567"><ele>46.0</ele><time>2026-05-03T08:17:32.483Z</time></trkpt><trkpt lat="39.4660017" lon="15.9828833"><ele>46.0</ele><time>2026-05-03T08:17:33.483Z</time></trkpt><trkpt lat="39.46624" lon="15.9827083"><ele>40.5</ele><time>2026-05-03T08:17:34.482Z</time></trkpt><trkpt lat="39.46648" lon="15.982535"><ele>35.0</ele><time>2026-05-03T08:17:35.483Z</time></trkpt><trkpt lat="39.4667217" lon="15.9823617"><ele>35.0</ele><time>2026-05-03T08:17:36.481Z</time></trkpt><trkpt lat="39.4669667" lon="15.982195"><ele>35.0</ele><time>2026-05-03T08:17:37.483Z</time></trkpt><trkpt lat="39.467205" lon="15.9820333"><ele>49.0</ele><time>2026-05-03T08:17:38.483Z</time></trkpt><trkpt lat="39.4674433" lon="15.981875"><ele>63.0</ele><time>2026-05-03T08:17:39.482Z</time></trkpt><trkpt lat="39.4676783" lon="15.9817217"><ele>67.5</ele><time>2026-05-03T08:17:40.482Z</time></trkpt><trkpt lat="39.4679117" lon="15.98157"><ele>72.0</ele><time>2026-05-03T08:17:41.482Z</time></trkpt><trkpt lat="39.4681433" lon="15.9814233"><ele>72.0</ele><time>2026-05-03T08:17:42.482Z</time></trkpt><trkpt lat="39.4683733" lon="15.98128"><ele>72.0</ele><time>2026-05-03T08:17:43.482Z</time></trkpt><trkpt lat="39.4686017" lon="15.9811417"><ele>41.0</ele><time>2026-05-03T08:17:44.484Z</time></trkpt><trkpt lat="39.4715917" lon="15.9793767"><ele>41.0</ele><time>2026-05-03T08:17:57.485Z</time></trkpt><trkpt lat="39.4718283" lon="15.979205"><ele>41.0</ele><time>2026-05-03T08:17:58.481Z</time></trkpt><trkpt lat="39.4720533" lon="15.9790333"><ele>41.5</ele><time>2026-05-03T08:17:59.481Z</time></trkpt><trkpt lat="39.4722617" lon="15.9788483"><ele>42.0</ele><time>2026-05-03T08:18:00.48Z</time></trkpt><trkpt lat="39.472465" lon="15.9786483"><ele>42.0</ele><time>2026-05-03T08:18:01.48Z</time></trkpt><trkpt lat="39.4726583" lon="15.97843"><ele>42.0</ele><time>2026-05-03T08:18:02.482Z</time></trkpt><trkpt lat="39.47284" lon="15.9781983"><ele>52.0</ele><time>2026-05-03T08:18:03.48Z</time></trkpt><trkpt lat="39.4730067" lon="15.9779583"><ele>62.0</ele><time>2026-05-03T08:18:04.482Z</time></trkpt><trkpt lat="39.4731567" lon="15.9777167"><ele>60.5</ele><time>2026-05-03T08:18:05.482Z</time></trkpt><trkpt lat="39.4733083" lon="15.977475"><ele>59.0</ele><time>2026-05-03T08:18:06.481Z</time></trkpt><trkpt lat="39.4742483" lon="15.96611"><ele>59.0</ele><time>2026-05-03T08:18:41.481Z</time></trkpt><trkpt lat="39.4743467" lon="15.9658683"><ele>59.0</ele><time>2026-05-03T08:18:42.481Z</time></trkpt><trkpt lat="39.47447" lon="15.9656317"><ele>59.0</ele><time>2026-05-03T08:18:43.481Z</time></trkpt><trkpt lat="39.4745983" lon="15.9653967"><ele>63.5</ele><time>2026-05-03T08:18:44.481Z</time></trkpt><trkpt lat="39.4747283" lon="15.9651583"><ele>68.0</ele><time>2026-05-03T08:18:45.481Z</time></trkpt><trkpt lat="39.4748617" lon="15.9649117"><ele>56.5</ele><time>2026-05-03T08:18:46.48Z</time></trkpt><trkpt lat="39.4749933" lon="15.96466"><ele>45.0</ele><time>2026-05-03T08:18:47.481Z</time></trkpt><trkpt lat="39.4751317" lon="15.9644133"><ele>39.0</ele><time>2026-05-03T08:18:48.48Z</time></trkpt><trkpt lat="39.475275" lon="15.96417"><ele>33.0</ele><time>2026-05-03T08:18:49.482Z</time></trkpt><trkpt lat="39.475425" lon="15.9639333"><ele>51.5</ele><time>2026-05-03T08:18:50.482Z</time></trkpt><trkpt lat="39.47558" lon="15.963705"><ele>70.0</ele><time>2026-05-03T08:18:51.482Z</time></trkpt><trkpt lat="39.4757317" lon="15.96348"><ele>63.0</ele><time>2026-05-03T08:18:52.481Z</time></trkpt><trkpt lat="39.4758833" lon="15.963255"><ele>56.0</ele><time>2026-05-03T08:18:53.482Z</time></trkpt><trkpt lat="39.4760367" lon="15.963025"><ele>57.0</ele><time>2026-05-03T08:18:54.48Z</time></trkpt><trkpt lat="39.47629" lon="15.96279"><ele>58.0</ele><time>2026-05-03T08:18:55.481Z</time></trkpt><trkpt lat="39.4765467" lon="15.9626533"><ele>58.0</ele><time>2026-05-03T08:18:56.481Z</time></trkpt><trkpt lat="39.4767833" lon="15.962545"><ele>58.0</ele><time>2026-05-03T08:18:57.48Z</time></trkpt><trkpt lat="39.477" lon="15.962445"><ele>51.0</ele><time>2026-05-03T08:18:58.482Z</time></trkpt><trkpt lat="39.47721" lon="15.96236"><ele>44.0</ele><time>2026-05-03T08:18:59.48Z</time></trkpt><trkpt lat="39.4773983" lon="15.9622767"><ele>37.0</ele><time>2026-05-03T08:19:00.481Z</time></trkpt><trkpt lat="39.477565" lon="15.9622033"><ele>37.0</ele><time>2026-05-03T08:19:01.482Z</time></trkpt><trkpt lat="39.4777" lon="15.9621417"><ele>37.0</ele><time>2026-05-03T08:19:02.482Z</time></trkpt><trkpt lat="39.4778033" lon="15.9620933"><ele>37.0</ele><time>2026-05-03T08:19:03.48Z</time></trkpt><trkpt lat="39.4778933" lon="15.9620483"><ele>37.0</ele><time>2026-05-03T08:19:04.482Z</time></trkpt><trkpt lat="39.4779717" lon="15.962005"><ele>37.0</ele><time>2026-05-03T08:19:05.48Z</time></trkpt><trkpt lat="39.47804" lon="15.9619633"><ele>39.400000000000006</ele><time>2026-05-03T08:19:06.482Z</time></trkpt><trkpt lat="39.4781033" lon="15.9619267"><ele>41.800000000000004</ele><time>2026-05-03T08:19:07.481Z</time></trkpt><trkpt lat="39.4782183" lon="15.9618683"><ele>44.2</ele><time>2026-05-03T08:19:09.48Z</time></trkpt><trkpt lat="39.478295" lon="15.9618317"><ele>46.6</ele><time>2026-05-03T08:19:11.48Z</time></trkpt><trkpt lat="39.4784367" lon="15.9617783"><ele>49.0</ele><time>2026-05-03T08:19:57.481Z</time></trkpt><trkpt lat="39.4785617" lon="15.9617283"><ele>47.83333333333333</ele><time>2026-05-03T08:19:59.483Z</time></trkpt><trkpt lat="39.478645" lon="15.961685"><ele>46.666666666666664</ele><time>2026-05-03T08:20:00.481Z</time></trkpt><trkpt lat="39.4787283" lon="15.96164"><ele>45.5</ele><time>2026-05-03T08:20:01.482Z</time></trkpt><trkpt lat="39.478805" lon="15.9616033"><ele>44.33333333333333</ele><time>2026-05-03T08:20:02.481Z</time></trkpt><trkpt lat="39.4788883" lon="15.9615617"><ele>43.166666666666664</ele><time>2026-05-03T08:20:03.48Z</time></trkpt><trkpt lat="39.47898" lon="15.9615183"><ele>42.0</ele><time>2026-05-03T08:20:04.481Z</time></trkpt><trkpt lat="39.479085" lon="15.961465"><ele>42.0</ele><time>2026-05-03T08:20:05.481Z</time></trkpt><trkpt lat="39.4791967" lon="15.961405"><ele>42.0</ele><time>2026-05-03T08:20:06.481Z</time></trkpt><trkpt lat="39.4793" lon="15.9613517"><ele>42.0</ele><time>2026-05-03T08:20:07.481Z</time></trkpt><trkpt lat="39.479405" lon="15.9612917"><ele>42.0</ele><time>2026-05-03T08:20:08.482Z</time></trkpt><trkpt lat="39.47952" lon="15.96123"><ele>44.0</ele><time>2026-05-03T08:20:09.481Z</time></trkpt><trkpt lat="39.4796417" lon="15.961165"><ele>46.0</ele><time>2026-05-03T08:20:10.482Z</time></trkpt><trkpt lat="39.4797683" lon="15.9610933"><ele>48.0</ele><time>2026-05-03T08:20:11.482Z</time></trkpt><trkpt lat="39.4799" lon="15.9610183"><ele>50.0</ele><time>2026-05-03T08:20:12.482Z</time></trkpt><trkpt lat="39.4800317" lon="15.9609383"><ele>47.66666666666667</ele><time>2026-05-03T08:20:13.481Z</time></trkpt><trkpt lat="39.480165" lon="15.9608533"><ele>45.333333333333336</ele><time>2026-05-03T08:20:14.481Z</time></trkpt><trkpt lat="39.4803067" lon="15.9607633"><ele>43.0</ele><time>2026-05-03T08:20:15.481Z</time></trkpt><trkpt lat="39.48045" lon="15.96067"><ele>43.0</ele><time>2026-05-03T08:20:16.481Z</time></trkpt><trkpt lat="39.480595" lon="15.9605733"><ele>43.0</ele><time>2026-05-03T08:20:17.48Z</time></trkpt><trkpt lat="39.4807433" lon="15.96047"><ele>43.0</ele><time>2026-05-03T08:20:18.482Z</time></trkpt><trkpt lat="39.48089" lon="15.9603667"><ele>43.0</ele><time>2026-05-03T08:20:19.48Z</time></trkpt><trkpt lat="39.4810467" lon="15.96026"><ele>43.0</ele><time>2026-05-03T08:20:20.481Z</time></trkpt><trkpt lat="39.4812017" lon="15.9601517"><ele>43.0</ele><time>2026-05-03T08:20:21.482Z</time></trkpt><trkpt lat="39.4813667" lon="15.9600367"><ele>38.0</ele><time>2026-05-03T08:20:22.482Z</time></trkpt><trkpt lat="39.4815367" lon="15.959915"><ele>33.0</ele><time>2026-05-03T08:20:23.48Z</time></trkpt><trkpt lat="39.4817067" lon="15.9598017"><ele>28.0</ele><time>2026-05-03T08:20:24.482Z</time></trkpt><trkpt lat="39.4818733" lon="15.959685"><ele>28.0</ele><time>2026-05-03T08:20:25.481Z</time></trkpt><trkpt lat="39.4820383" lon="15.9595667"><ele>28.0</ele><time>2026-05-03T08:20:26.482Z</time></trkpt><trkpt lat="39.482215" lon="15.9594467"><ele>28.0</ele><time>2026-05-03T08:20:27.48Z</time></trkpt><trkpt lat="39.4823933" lon="15.9593217"><ele>24.666666666666668</ele><time>2026-05-03T08:20:28.481Z</time></trkpt><trkpt lat="39.4825767" lon="15.9591933"><ele>21.333333333333336</ele><time>2026-05-03T08:20:29.482Z</time></trkpt><trkpt lat="39.4827667" lon="15.9590583"><ele>18.0</ele><time>2026-05-03T08:20:30.482Z</time></trkpt><trkpt lat="39.482965" lon="15.95892"><ele>18.0</ele><time>2026-05-03T08:20:31.482Z</time></trkpt><trkpt lat="39.4831683" lon="15.9587733"><ele>18.0</ele><time>2026-05-03T08:20:32.482Z</time></trkpt><trkpt lat="39.4833817" lon="15.958625"><ele>18.0</ele><time>2026-05-03T08:20:33.482Z</time></trkpt><trkpt lat="39.483595" lon="15.958475"><ele>18.0</ele><time>2026-05-03T08:20:34.481Z</time></trkpt><trkpt lat="39.4838083" lon="15.958325"><ele>15.0</ele><time>2026-05-03T08:20:35.483Z</time></trkpt><trkpt lat="39.4840267" lon="15.958175"><ele>12.0</ele><time>2026-05-03T08:20:36.481Z</time></trkpt><trkpt lat="39.4842433" lon="15.9580367"><ele>12.0</ele><time>2026-05-03T08:20:37.481Z</time></trkpt><trkpt lat="39.4844583" lon="15.9579133"><ele>12.0</ele><time>2026-05-03T08:20:38.482Z</time></trkpt><trkpt lat="39.4846683" lon="15.9578"><ele>11.333333333333334</ele><time>2026-05-03T08:20:39.481Z</time></trkpt><trkpt lat="39.4848733" lon="15.9576967"><ele>10.666666666666668</ele><time>2026-05-03T08:20:40.481Z</time></trkpt><trkpt lat="39.485075" lon="15.9575933"><ele>10.0</ele><time>2026-05-03T08:20:41.48Z</time></trkpt><trkpt lat="39.485275" lon="15.9574867"><ele>13.666666666666668</ele><time>2026-05-03T08:20:42.481Z</time></trkpt><trkpt lat="39.48547" lon="15.95738"><ele>17.333333333333332</ele><time>2026-05-03T08:20:43.482Z</time></trkpt><trkpt lat="39.4856667" lon="15.95727"><ele>21.0</ele><time>2026-05-03T08:20:44.482Z</time></trkpt><trkpt lat="39.48586" lon="15.9571617"><ele>21.0</ele><time>2026-05-03T08:20:45.482Z</time></trkpt><trkpt lat="39.4860467" lon="15.9570367"><ele>21.0</ele><time>2026-05-03T08:20:46.481Z</time></trkpt><trkpt lat="39.48623" lon="15.9569"><ele>21.0</ele><time>2026-05-03T08:20:47.481Z</time></trkpt><trkpt lat="39.4864067" lon="15.95675"><ele>23.0</ele><time>2026-05-03T08:20:48.481Z</time></trkpt><trkpt lat="39.4865817" lon="15.9565883"><ele>25.0</ele><time>2026-05-03T08:20:49.482Z</time></trkpt><trkpt lat="39.4867517" lon="15.9564167"><ele>27.0</ele><time>2026-05-03T08:20:50.482Z</time></trkpt><trkpt lat="39.4869217" lon="15.9562383"><ele>27.0</ele><time>2026-05-03T08:20:51.482Z</time></trkpt><trkpt lat="39.4870883" lon="15.9560633"><ele>27.0</ele><time>2026-05-03T08:20:52.482Z</time></trkpt><trkpt lat="39.48725" lon="15.9558983"><ele>27.0</ele><time>2026-05-03T08:20:53.482Z</time></trkpt><trkpt lat="39.4873967" lon="15.9557233"><ele>28.333333333333336</ele><time>2026-05-03T08:20:54.481Z</time></trkpt><trkpt lat="39.4875483" lon="15.9555567"><ele>29.666666666666668</ele><time>2026-05-03T08:20:55.482Z</time></trkpt><trkpt lat="39.4877033" lon="15.9554033"><ele>31.0</ele><time>2026-05-03T08:20:56.481Z</time></trkpt><trkpt lat="39.48787" lon="15.9552667"><ele>29.0</ele><time>2026-05-03T08:20:57.483Z</time></trkpt><trkpt lat="39.488045" lon="15.9551583"><ele>27.0</ele><time>2026-05-03T08:20:58.481Z</time></trkpt><trkpt lat="39.488225" lon="15.9550667"><ele>25.0</ele><time>2026-05-03T08:20:59.482Z</time></trkpt><trkpt lat="39.4884117" lon="15.954985"><ele>25.0</ele><time>2026-05-03T08:21:00.482Z</time></trkpt><trkpt lat="39.4885983" lon="15.954915"><ele>25.0</ele><time>2026-05-03T08:21:01.481Z</time></trkpt><trkpt lat="39.488785" lon="15.95485"><ele>25.0</ele><time>2026-05-03T08:21:02.482Z</time></trkpt><trkpt lat="39.48897" lon="15.9547833"><ele>30.333333333333336</ele><time>2026-05-03T08:21:03.482Z</time></trkpt><trkpt lat="39.48915" lon="15.9547183"><ele>35.666666666666664</ele><time>2026-05-03T08:21:04.482Z</time></trkpt><trkpt lat="39.489325" lon="15.95465"><ele>41.0</ele><time>2026-05-03T08:21:05.482Z</time></trkpt><trkpt lat="39.4895033" lon="15.954575"><ele>47.0</ele><time>2026-05-03T08:21:06.481Z</time></trkpt><trkpt lat="39.4896917" lon="15.9544933"><ele>53.0</ele><time>2026-05-03T08:21:07.481Z</time></trkpt><trkpt lat="39.4898933" lon="15.9543967"><ele>59.0</ele><time>2026-05-03T08:21:08.482Z</time></trkpt><trkpt lat="39.4901233" lon="15.9543"><ele>45.5</ele><time>2026-05-03T08:21:09.481Z</time></trkpt><trkpt lat="39.49037" lon="15.954195"><ele>32.0</ele><time>2026-05-03T08:21:10.482Z</time></trkpt><trkpt lat="39.49063" lon="15.954085"><ele>32.0</ele><time>2026-05-03T08:21:11.481Z</time></trkpt><trkpt lat="39.490905" lon="15.9539733"><ele>32.0</ele><time>2026-05-03T08:21:12.481Z</time></trkpt><trkpt lat="39.4911817" lon="15.9538617"><ele>37.5</ele><time>2026-05-03T08:21:13.482Z</time></trkpt><trkpt lat="39.49146" lon="15.9537483"><ele>43.0</ele><time>2026-05-03T08:21:14.481Z</time></trkpt><trkpt lat="39.4917317" lon="15.9536267"><ele>43.0</ele><time>2026-05-03T08:21:15.481Z</time></trkpt><trkpt lat="39.4919817" lon="15.9534967"><ele>43.0</ele><time>2026-05-03T08:21:16.48Z</time></trkpt><trkpt lat="39.4922217" lon="15.95337"><ele>35.5</ele><time>2026-05-03T08:21:17.482Z</time></trkpt><trkpt lat="39.49245" lon="15.9532467"><ele>28.0</ele><time>2026-05-03T08:21:18.481Z</time></trkpt><trkpt lat="39.4926783" lon="15.9531367"><ele>28.0</ele><time>2026-05-03T08:21:19.481Z</time></trkpt><trkpt lat="39.4929017" lon="15.9530333"><ele>28.0</ele><time>2026-05-03T08:21:20.482Z</time></trkpt><trkpt lat="39.4931283" lon="15.9529317"><ele>37.0</ele><time>2026-05-03T08:21:21.48Z</time></trkpt><trkpt lat="39.493355" lon="15.9528317"><ele>46.0</ele><time>2026-05-03T08:21:22.481Z</time></trkpt><trkpt lat="39.4935867" lon="15.95273"><ele>54.5</ele><time>2026-05-03T08:21:23.482Z</time></trkpt><trkpt lat="39.493815" lon="15.9526233"><ele>63.0</ele><time>2026-05-03T08:21:24.48Z</time></trkpt><trkpt lat="39.4940467" lon="15.952515"><ele>43.0</ele><time>2026-05-03T08:21:25.483Z</time></trkpt><trkpt lat="39.4942767" lon="15.952415"><ele>23.0</ele><time>2026-05-03T08:21:26.482Z</time></trkpt><trkpt lat="39.4945033" lon="15.9523167"><ele>30.5</ele><time>2026-05-03T08:21:27.482Z</time></trkpt><trkpt lat="39.4947283" lon="15.9522217"><ele>38.0</ele><time>2026-05-03T08:21:28.482Z</time></trkpt><trkpt lat="39.49495" lon="15.952125"><ele>38.0</ele><time>2026-05-03T08:21:29.483Z</time></trkpt><trkpt lat="39.49517" lon="15.952025"><ele>38.0</ele><time>2026-05-03T08:21:30.481Z</time></trkpt><trkpt lat="39.49539" lon="15.9519217"><ele>40.5</ele><time>2026-05-03T08:21:31.482Z</time></trkpt><trkpt lat="39.4956117" lon="15.9518083"><ele>43.0</ele><time>2026-05-03T08:21:32.482Z</time></trkpt><trkpt lat="39.4958367" lon="15.9516867"><ele>30.0</ele><time>2026-05-03T08:21:33.482Z</time></trkpt><trkpt lat="39.4960617" lon="15.951555"><ele>17.0</ele><time>2026-05-03T08:21:34.482Z</time></trkpt><trkpt lat="39.4962883" lon="15.95142"><ele>17.0</ele><time>2026-05-03T08:21:35.481Z</time></trkpt><trkpt lat="39.4965167" lon="15.95128"><ele>17.0</ele><time>2026-05-03T08:21:36.481Z</time></trkpt><trkpt lat="39.4967433" lon="15.951135"><ele>17.0</ele><time>2026-05-03T08:21:37.481Z</time></trkpt><trkpt lat="39.49697" lon="15.950995"><ele>17.0</ele><time>2026-05-03T08:21:38.481Z</time></trkpt><trkpt lat="39.4971933" lon="15.950855"><ele>16.5</ele><time>2026-05-03T08:21:39.482Z</time></trkpt><trkpt lat="39.49742" lon="15.9507183"><ele>16.0</ele><time>2026-05-03T08:21:40.48Z</time></trkpt><trkpt lat="39.4976417" lon="15.950575"><ele>16.0</ele><time>2026-05-03T08:21:41.482Z</time></trkpt><trkpt lat="39.4978667" lon="15.95044"><ele>16.0</ele><time>2026-05-03T08:21:42.481Z</time></trkpt><trkpt lat="39.4980917" lon="15.9502967"><ele>16.0</ele><time>2026-05-03T08:21:43.482Z</time></trkpt><trkpt lat="39.498315" lon="15.9501617"><ele>16.0</ele><time>2026-05-03T08:21:44.483Z</time></trkpt><trkpt lat="39.4985367" lon="15.9500233"><ele>13.5</ele><time>2026-05-03T08:21:45.481Z</time></trkpt><trkpt lat="39.498755" lon="15.9498867"><ele>11.0</ele><time>2026-05-03T08:21:46.481Z</time></trkpt><trkpt lat="39.4989767" lon="15.94975"><ele>11.0</ele><time>2026-05-03T08:21:47.481Z</time></trkpt><trkpt lat="39.4991983" lon="15.9496133"><ele>11.0</ele><time>2026-05-03T08:21:48.481Z</time></trkpt><trkpt lat="39.4994217" lon="15.949475"><ele>12.0</ele><time>2026-05-03T08:21:49.48Z</time></trkpt><trkpt lat="39.4996433" lon="15.9493383"><ele>13.0</ele><time>2026-05-03T08:21:50.481Z</time></trkpt><trkpt lat="39.4998617" lon="15.9492033"><ele>13.0</ele><time>2026-05-03T08:21:51.482Z</time></trkpt><trkpt lat="39.5000817" lon="15.9490683"><ele>13.0</ele><time>2026-05-03T08:21:52.481Z</time></trkpt><trkpt lat="39.5002983" lon="15.9489317"><ele>18.5</ele><time>2026-05-03T08:21:53.483Z</time></trkpt><trkpt lat="39.50051" lon="15.9487967"><ele>24.0</ele><time>2026-05-03T08:21:54.48Z</time></trkpt><trkpt lat="39.5007183" lon="15.9486633"><ele>24.0</ele><time>2026-05-03T08:21:55.48Z</time></trkpt><trkpt lat="39.500925" lon="15.9485267"><ele>24.0</ele><time>2026-05-03T08:21:56.482Z</time></trkpt><trkpt lat="39.5011367" lon="15.9483917"><ele>20.0</ele><time>2026-05-03T08:21:57.482Z</time></trkpt><trkpt lat="39.5013467" lon="15.94826"><ele>16.0</ele><time>2026-05-03T08:21:58.482Z</time></trkpt><trkpt lat="39.50156" lon="15.94813"><ele>16.0</ele><time>2026-05-03T08:21:59.481Z</time></trkpt><trkpt lat="39.5017733" lon="15.9479967"><ele>16.0</ele><time>2026-05-03T08:22:00.481Z</time></trkpt><trkpt lat="39.5019883" lon="15.9478633"><ele>18.5</ele><time>2026-05-03T08:22:01.481Z</time></trkpt><trkpt lat="39.5022033" lon="15.9477283"><ele>21.0</ele><time>2026-05-03T08:22:02.481Z</time></trkpt><trkpt lat="39.5024267" lon="15.947595"><ele>17.0</ele><time>2026-05-03T08:22:03.481Z</time></trkpt><trkpt lat="39.502645" lon="15.9474567"><ele>13.0</ele><time>2026-05-03T08:22:04.481Z</time></trkpt><trkpt lat="39.502865" lon="15.9473083"><ele>13.5</ele><time>2026-05-03T08:22:05.481Z</time></trkpt><trkpt lat="39.503085" lon="15.9471617"><ele>14.0</ele><time>2026-05-03T08:22:06.482Z</time></trkpt><trkpt lat="39.5033067" lon="15.94701"><ele>14.0</ele><time>2026-05-03T08:22:07.482Z</time></trkpt><trkpt lat="39.5035283" lon="15.9468567"><ele>14.0</ele><time>2026-05-03T08:22:08.481Z</time></trkpt><trkpt lat="39.5037483" lon="15.9467017"><ele>13.5</ele><time>2026-05-03T08:22:09.482Z</time></trkpt><trkpt lat="39.503965" lon="15.94655"><ele>13.0</ele><time>2026-05-03T08:22:10.481Z</time></trkpt><trkpt lat="39.504185" lon="15.9464"><ele>13.0</ele><time>2026-05-03T08:22:11.482Z</time></trkpt><trkpt lat="39.5044083" lon="15.94625"><ele>13.0</ele><time>2026-05-03T08:22:12.48Z</time></trkpt><trkpt lat="39.5046317" lon="15.9461033"><ele>12.5</ele><time>2026-05-03T08:22:13.482Z</time></trkpt><trkpt lat="39.5048533" lon="15.945955"><ele>12.0</ele><time>2026-05-03T08:22:14.483Z</time></trkpt><trkpt lat="39.505075" lon="15.9458083"><ele>11.0</ele><time>2026-05-03T08:22:15.481Z</time></trkpt><trkpt lat="39.5052983" lon="15.945675"><ele>10.0</ele><time>2026-05-03T08:22:16.482Z</time></trkpt><trkpt lat="39.505525" lon="15.9455583"><ele>10.0</ele><time>2026-05-03T08:22:17.481Z</time></trkpt><trkpt lat="39.5057567" lon="15.9454583"><ele>10.0</ele><time>2026-05-03T08:22:18.482Z</time></trkpt><trkpt lat="39.50599" lon="15.9453733"><ele>10.0</ele><time>2026-05-03T08:22:19.482Z</time></trkpt><trkpt lat="39.5062283" lon="15.9453067"><ele>10.0</ele><time>2026-05-03T08:22:20.483Z</time></trkpt><trkpt lat="39.5064733" lon="15.94526"><ele>12.0</ele><time>2026-05-03T08:22:21.482Z</time></trkpt><trkpt lat="39.50672" lon="15.9452217"><ele>14.0</ele><time>2026-05-03T08:22:22.481Z</time></trkpt><trkpt lat="39.5069683" lon="15.94519"><ele>15.0</ele><time>2026-05-03T08:22:23.482Z</time></trkpt><trkpt lat="39.50721" lon="15.9451617"><ele>16.0</ele><time>2026-05-03T08:22:24.484Z</time></trkpt><trkpt lat="39.5074533" lon="15.9451367"><ele>16.0</ele><time>2026-05-03T08:22:25.484Z</time></trkpt><trkpt lat="39.5076867" lon="15.94511"><ele>16.0</ele><time>2026-05-03T08:22:26.481Z</time></trkpt><trkpt lat="39.5079117" lon="15.9450833"><ele>17.0</ele><time>2026-05-03T08:22:27.482Z</time></trkpt><trkpt lat="39.508135" lon="15.9450533"><ele>18.0</ele><time>2026-05-03T08:22:28.483Z</time></trkpt><trkpt lat="39.5083583" lon="15.9450217"><ele>19.0</ele><time>2026-05-03T08:22:29.481Z</time></trkpt><trkpt lat="39.5085833" lon="15.944995"><ele>16.0</ele><time>2026-05-03T08:22:30.483Z</time></trkpt><trkpt lat="39.5088083" lon="15.9449683"><ele>13.0</ele><time>2026-05-03T08:22:31.483Z</time></trkpt><trkpt lat="39.5090333" lon="15.94494"><ele>13.0</ele><time>2026-05-03T08:22:32.482Z</time></trkpt><trkpt lat="39.50926" lon="15.944905"><ele>13.0</ele><time>2026-05-03T08:22:33.481Z</time></trkpt><trkpt lat="39.5094867" lon="15.9448633"><ele>19.0</ele><time>2026-05-03T08:22:34.482Z</time></trkpt><trkpt lat="39.5097133" lon="15.9448167"><ele>25.0</ele><time>2026-05-03T08:22:35.482Z</time></trkpt><trkpt lat="39.5099367" lon="15.9447567"><ele>25.0</ele><time>2026-05-03T08:22:36.482Z</time></trkpt><trkpt lat="39.5101567" lon="15.94468"><ele>25.0</ele><time>2026-05-03T08:22:37.483Z</time></trkpt><trkpt lat="39.5103717" lon="15.9445783"><ele>30.5</ele><time>2026-05-03T08:22:38.482Z</time></trkpt><trkpt lat="39.5105783" lon="15.94445"><ele>36.0</ele><time>2026-05-03T08:22:39.481Z</time></trkpt><trkpt lat="39.5107783" lon="15.9443017"><ele>23.5</ele><time>2026-05-03T08:22:40.482Z</time></trkpt><trkpt lat="39.5109717" lon="15.9441367"><ele>11.0</ele><time>2026-05-03T08:22:41.483Z</time></trkpt><trkpt lat="39.5111567" lon="15.9439533"><ele>17.5</ele><time>2026-05-03T08:22:42.481Z</time></trkpt><trkpt lat="39.51133" lon="15.943755"><ele>24.0</ele><time>2026-05-03T08:22:43.481Z</time></trkpt><trkpt lat="39.511495" lon="15.9435517"><ele>20.333333333333332</ele><time>2026-05-03T08:22:44.481Z</time></trkpt><trkpt lat="39.5116567" lon="15.94335"><ele>16.666666666666664</ele><time>2026-05-03T08:22:45.481Z</time></trkpt><trkpt lat="39.511805" lon="15.9431633"><ele>13.0</ele><time>2026-05-03T08:22:46.481Z</time></trkpt><trkpt lat="39.5119517" lon="15.9429767"><ele>12.333333333333332</ele><time>2026-05-03T08:22:47.482Z</time></trkpt><trkpt lat="39.5121033" lon="15.9427917"><ele>11.666666666666666</ele><time>2026-05-03T08:22:48.482Z</time></trkpt><trkpt lat="39.51225" lon="15.94261"><ele>11.0</ele><time>2026-05-03T08:22:49.483Z</time></trkpt><trkpt lat="39.5123933" lon="15.94243"><ele>11.0</ele><time>2026-05-03T08:22:50.483Z</time></trkpt><trkpt lat="39.5125417" lon="15.9422533"><ele>11.0</ele><time>2026-05-03T08:22:51.481Z</time></trkpt><trkpt lat="39.5126883" lon="15.942075"><ele>11.0</ele><time>2026-05-03T08:22:52.481Z</time></trkpt><trkpt lat="39.5128367" lon="15.9418933"><ele>11.666666666666666</ele><time>2026-05-03T08:22:53.483Z</time></trkpt><trkpt lat="39.5129883" lon="15.94171"><ele>12.333333333333332</ele><time>2026-05-03T08:22:54.481Z</time></trkpt><trkpt lat="39.5131417" lon="15.9415167"><ele>13.0</ele><time>2026-05-03T08:22:55.481Z</time></trkpt><trkpt lat="39.5132983" lon="15.9413167"><ele>13.0</ele><time>2026-05-03T08:22:56.482Z</time></trkpt><trkpt lat="39.51346" lon="15.9411133"><ele>13.0</ele><time>2026-05-03T08:22:57.482Z</time></trkpt><trkpt lat="39.5136217" lon="15.940905"><ele>22.0</ele><time>2026-05-03T08:22:58.482Z</time></trkpt><trkpt lat="39.5137833" lon="15.9407017"><ele>31.0</ele><time>2026-05-03T08:22:59.481Z</time></trkpt><trkpt lat="39.513945" lon="15.9404983"><ele>31.0</ele><time>2026-05-03T08:23:00.482Z</time></trkpt><trkpt lat="39.5141017" lon="15.9402967"><ele>31.0</ele><time>2026-05-03T08:23:01.48Z</time></trkpt><trkpt lat="39.514245" lon="15.940085"><ele>31.0</ele><time>2026-05-03T08:23:02.481Z</time></trkpt><trkpt lat="39.514375" lon="15.93985"><ele>22.5</ele><time>2026-05-03T08:23:03.482Z</time></trkpt><trkpt lat="39.5144967" lon="15.9395933"><ele>14.0</ele><time>2026-05-03T08:23:04.482Z</time></trkpt><trkpt lat="39.514615" lon="15.9393233"><ele>19.5</ele><time>2026-05-03T08:23:05.481Z</time></trkpt><trkpt lat="39.51473" lon="15.9390467"><ele>25.0</ele><time>2026-05-03T08:23:06.481Z</time></trkpt><trkpt lat="39.5148433" lon="15.93877"><ele>25.0</ele><time>2026-05-03T08:23:07.482Z</time></trkpt><trkpt lat="39.514955" lon="15.9385"><ele>25.0</ele><time>2026-05-03T08:23:08.48Z</time></trkpt><trkpt lat="39.51507" lon="15.9382317"><ele>19.5</ele><time>2026-05-03T08:23:09.482Z</time></trkpt><trkpt lat="39.515195" lon="15.9379667"><ele>14.0</ele><time>2026-05-03T08:23:10.482Z</time></trkpt><trkpt lat="39.5153383" lon="15.937715"><ele>16.5</ele><time>2026-05-03T08:23:11.481Z</time></trkpt><trkpt lat="39.5155" lon="15.9374733"><ele>19.0</ele><time>2026-05-03T08:23:12.481Z</time></trkpt><trkpt lat="39.515675" lon="15.93724"><ele>19.0</ele><time>2026-05-03T08:23:13.481Z</time></trkpt><trkpt lat="39.515855" lon="15.9370067"><ele>19.0</ele><time>2026-05-03T08:23:14.482Z</time></trkpt><trkpt lat="39.5160317" lon="15.93677"><ele>19.0</ele><time>2026-05-03T08:23:15.481Z</time></trkpt><trkpt lat="39.5162067" lon="15.9365333"><ele>19.0</ele><time>2026-05-03T08:23:16.481Z</time></trkpt><trkpt lat="39.5163767" lon="15.9363"><ele>19.0</ele><time>2026-05-03T08:23:17.481Z</time></trkpt><trkpt lat="39.5165417" lon="15.9360733"><ele>19.0</ele><time>2026-05-03T08:23:18.482Z</time></trkpt><trkpt lat="39.5167017" lon="15.9358517"><ele>14.5</ele><time>2026-05-03T08:23:19.481Z</time></trkpt><trkpt lat="39.5168633" lon="15.935635"><ele>10.0</ele><time>2026-05-03T08:23:20.482Z</time></trkpt><trkpt lat="39.5170233" lon="15.9354183"><ele>11.0</ele><time>2026-05-03T08:23:21.481Z</time></trkpt><trkpt lat="39.5171867" lon="15.9352067"><ele>12.0</ele><time>2026-05-03T08:23:22.482Z</time></trkpt><trkpt lat="39.5173533" lon="15.935"><ele>12.0</ele><time>2026-05-03T08:23:23.483Z</time></trkpt><trkpt lat="39.5175283" lon="15.9348017"><ele>12.0</ele><time>2026-05-03T08:23:24.482Z</time></trkpt><trkpt lat="39.51771" lon="15.9346133"><ele>12.0</ele><time>2026-05-03T08:23:25.482Z</time></trkpt><trkpt lat="39.5179" lon="15.934435"><ele>12.0</ele><time>2026-05-03T08:23:26.481Z</time></trkpt><trkpt lat="39.5180933" lon="15.9342633"><ele>12.0</ele><time>2026-05-03T08:23:27.482Z</time></trkpt><trkpt lat="39.5182933" lon="15.9340983"><ele>12.0</ele><time>2026-05-03T08:23:28.481Z</time></trkpt><trkpt lat="39.518485" lon="15.933935"><ele>12.0</ele><time>2026-05-03T08:23:29.482Z</time></trkpt><trkpt lat="39.5186733" lon="15.9337717"><ele>12.0</ele><time>2026-05-03T08:23:30.482Z</time></trkpt><trkpt lat="39.5188633" lon="15.9336067"><ele>12.0</ele><time>2026-05-03T08:23:31.482Z</time></trkpt><trkpt lat="39.5190517" lon="15.9334367"><ele>12.0</ele><time>2026-05-03T08:23:32.482Z</time></trkpt><trkpt lat="39.5192417" lon="15.933265"><ele>12.0</ele><time>2026-05-03T08:23:33.482Z</time></trkpt><trkpt lat="39.5194333" lon="15.9330967"><ele>12.0</ele><time>2026-05-03T08:23:34.482Z</time></trkpt><trkpt lat="39.5196333" lon="15.93294"><ele>13.0</ele><time>2026-05-03T08:23:35.482Z</time></trkpt><trkpt lat="39.5198333" lon="15.932795"><ele>14.0</ele><time>2026-05-03T08:23:36.48Z</time></trkpt><trkpt lat="39.52003" lon="15.9326733"><ele>15.0</ele><time>2026-05-03T08:23:37.48Z</time></trkpt><trkpt lat="39.5202233" lon="15.9325667"><ele>13.333333333333334</ele><time>2026-05-03T08:23:38.481Z</time></trkpt><trkpt lat="39.520415" lon="15.9324617"><ele>11.666666666666668</ele><time>2026-05-03T08:23:39.481Z</time></trkpt><trkpt lat="39.5206117" lon="15.93236"><ele>10.0</ele><time>2026-05-03T08:23:40.481Z</time></trkpt><trkpt lat="39.520815" lon="15.93226"><ele>10.0</ele><time>2026-05-03T08:23:41.483Z</time></trkpt><trkpt lat="39.5210283" lon="15.9321583"><ele>10.0</ele><time>2026-05-03T08:23:42.482Z</time></trkpt><trkpt lat="39.5212467" lon="15.9320483"><ele>8.5</ele><time>2026-05-03T08:23:43.482Z</time></trkpt><trkpt lat="39.5214717" lon="15.9319383"><ele>7.0</ele><time>2026-05-03T08:23:44.482Z</time></trkpt><trkpt lat="39.5217017" lon="15.9318233"><ele>8.5</ele><time>2026-05-03T08:23:45.481Z</time></trkpt><trkpt lat="39.5219417" lon="15.931705"><ele>10.0</ele><time>2026-05-03T08:23:46.482Z</time></trkpt><trkpt lat="39.5221817" lon="15.9315817"><ele>11.0</ele><time>2026-05-03T08:23:47.483Z</time></trkpt><trkpt lat="39.5224183" lon="15.9314483"><ele>12.0</ele><time>2026-05-03T08:23:48.482Z</time></trkpt><trkpt lat="39.52265" lon="15.9313017"><ele>12.0</ele><time>2026-05-03T08:23:49.483Z</time></trkpt><trkpt lat="39.5228733" lon="15.9311433"><ele>12.0</ele><time>2026-05-03T08:23:50.483Z</time></trkpt><trkpt lat="39.5230983" lon="15.93098"><ele>11.0</ele><time>2026-05-03T08:23:51.482Z</time></trkpt><trkpt lat="39.5233133" lon="15.9308183"><ele>10.0</ele><time>2026-05-03T08:23:52.481Z</time></trkpt><trkpt lat="39.5235267" lon="15.9306583"><ele>10.0</ele><time>2026-05-03T08:23:53.482Z</time></trkpt><trkpt lat="39.5237283" lon="15.9304983"><ele>10.0</ele><time>2026-05-03T08:23:54.482Z</time></trkpt><trkpt lat="39.52393" lon="15.9303317"><ele>10.5</ele><time>2026-05-03T08:23:55.481Z</time></trkpt><trkpt lat="39.5241317" lon="15.93016"><ele>11.0</ele><time>2026-05-03T08:23:56.483Z</time></trkpt><trkpt lat="39.5243383" lon="15.9299783"><ele>11.0</ele><time>2026-05-03T08:23:57.483Z</time></trkpt><trkpt lat="39.524545" lon="15.9297983"><ele>11.0</ele><time>2026-05-03T08:23:58.481Z</time></trkpt><trkpt lat="39.52476" lon="15.9296133"><ele>12.5</ele><time>2026-05-03T08:23:59.482Z</time></trkpt><trkpt lat="39.524975" lon="15.929425"><ele>14.0</ele><time>2026-05-03T08:24:00.482Z</time></trkpt><trkpt lat="39.5251917" lon="15.929235"><ele>12.5</ele><time>2026-05-03T08:24:01.482Z</time></trkpt><trkpt lat="39.525405" lon="15.9290433"><ele>11.0</ele><time>2026-05-03T08:24:02.482Z</time></trkpt><trkpt lat="39.5256167" lon="15.9288567"><ele>11.0</ele><time>2026-05-03T08:24:03.482Z</time></trkpt><trkpt lat="39.5258283" lon="15.9286733"><ele>11.0</ele><time>2026-05-03T08:24:04.483Z</time></trkpt><trkpt lat="39.5260367" lon="15.92849"><ele>12.5</ele><time>2026-05-03T08:24:05.481Z</time></trkpt><trkpt lat="39.526245" lon="15.9283067"><ele>14.0</ele><time>2026-05-03T08:24:06.482Z</time></trkpt><trkpt lat="39.52645" lon="15.9281267"><ele>14.0</ele><time>2026-05-03T08:24:07.481Z</time></trkpt><trkpt lat="39.526655" lon="15.9279467"><ele>14.0</ele><time>2026-05-03T08:24:08.481Z</time></trkpt><trkpt lat="39.52686" lon="15.9277717"><ele>14.0</ele><time>2026-05-03T08:24:09.481Z</time></trkpt><trkpt lat="39.5270583" lon="15.9275967"><ele>14.0</ele><time>2026-05-03T08:24:10.482Z</time></trkpt><trkpt lat="39.527255" lon="15.9274267"><ele>14.5</ele><time>2026-05-03T08:24:11.482Z</time></trkpt><trkpt lat="39.5274433" lon="15.9272617"><ele>15.0</ele><time>2026-05-03T08:24:12.481Z</time></trkpt><trkpt lat="39.527635" lon="15.9270983"><ele>15.0</ele><time>2026-05-03T08:24:13.483Z</time></trkpt><trkpt lat="39.52782" lon="15.9269367"><ele>15.0</ele><time>2026-05-03T08:24:14.482Z</time></trkpt><trkpt lat="39.5280033" lon="15.9267767"><ele>15.0</ele><time>2026-05-03T08:24:15.482Z</time></trkpt><trkpt lat="39.5281817" lon="15.9266233"><ele>17.333333333333332</ele><time>2026-05-03T08:24:16.481Z</time></trkpt><trkpt lat="39.5283567" lon="15.926465"><ele>19.666666666666664</ele><time>2026-05-03T08:24:17.483Z</time></trkpt><trkpt lat="39.5285283" lon="15.9262983"><ele>22.0</ele><time>2026-05-03T08:24:18.483Z</time></trkpt><trkpt lat="39.5286967" lon="15.92612"><ele>28.0</ele><time>2026-05-03T08:24:19.482Z</time></trkpt><trkpt lat="39.5288567" lon="15.9259233"><ele>34.0</ele><time>2026-05-03T08:24:20.481Z</time></trkpt><trkpt lat="39.5290133" lon="15.92571"><ele>40.0</ele><time>2026-05-03T08:24:21.482Z</time></trkpt><trkpt lat="39.5291667" lon="15.9254783"><ele>40.0</ele><time>2026-05-03T08:24:22.482Z</time></trkpt><trkpt lat="39.5293067" lon="15.92522"><ele>40.0</ele><time>2026-05-03T08:24:23.483Z</time></trkpt><trkpt lat="39.529435" lon="15.924945"><ele>31.5</ele><time>2026-05-03T08:24:24.483Z</time></trkpt><trkpt lat="39.5295417" lon="15.9246417"><ele>23.0</ele><time>2026-05-03T08:24:25.483Z</time></trkpt><trkpt lat="39.5296367" lon="15.924325"><ele>38.0</ele><time>2026-05-03T08:24:26.482Z</time></trkpt><trkpt lat="39.52972" lon="15.92401"><ele>53.0</ele><time>2026-05-03T08:24:27.482Z</time></trkpt><trkpt lat="39.5298017" lon="15.9237017"><ele>53.0</ele><time>2026-05-03T08:24:28.482Z</time></trkpt><trkpt lat="39.52989" lon="15.9234033"><ele>53.0</ele><time>2026-05-03T08:24:29.482Z</time></trkpt><trkpt lat="39.5299867" lon="15.9231067"><ele>48.0</ele><time>2026-05-03T08:24:30.482Z</time></trkpt><trkpt lat="39.5300883" lon="15.9228117"><ele>43.0</ele><time>2026-05-03T08:24:31.482Z</time></trkpt><trkpt lat="39.5302" lon="15.922515"><ele>36.5</ele><time>2026-05-03T08:24:32.482Z</time></trkpt><trkpt lat="39.5303183" lon="15.9222183"><ele>30.0</ele><time>2026-05-03T08:24:33.482Z</time></trkpt><trkpt lat="39.5304433" lon="15.9219267"><ele>45.0</ele><time>2026-05-03T08:24:34.481Z</time></trkpt><trkpt lat="39.5305733" lon="15.9216433"><ele>60.0</ele><time>2026-05-03T08:24:35.483Z</time></trkpt><trkpt lat="39.5307117" lon="15.92137"><ele>60.0</ele><time>2026-05-03T08:24:36.482Z</time></trkpt><trkpt lat="39.53085" lon="15.9211017"><ele>60.0</ele><time>2026-05-03T08:24:37.481Z</time></trkpt><trkpt lat="39.5309883" lon="15.92083"><ele>59.5</ele><time>2026-05-03T08:24:38.482Z</time></trkpt><trkpt lat="39.5311267" lon="15.920555"><ele>59.0</ele><time>2026-05-03T08:24:39.482Z</time></trkpt><trkpt lat="39.531415" lon="15.92001"><ele>66.0</ele><time>2026-05-03T08:24:41.483Z</time></trkpt><trkpt lat="39.5315933" lon="15.9197583"><ele>73.0</ele><time>2026-05-03T08:24:42.481Z</time></trkpt><trkpt lat="39.5317217" lon="15.9194633"><ele>68.0</ele><time>2026-05-03T08:24:43.482Z</time></trkpt><trkpt lat="39.5318717" lon="15.9191717"><ele>63.0</ele><time>2026-05-03T08:24:44.483Z</time></trkpt><trkpt lat="39.5320433" lon="15.9189017"><ele>63.5</ele><time>2026-05-03T08:24:45.482Z</time></trkpt><trkpt lat="39.5322133" lon="15.918635"><ele>64.0</ele><time>2026-05-03T08:24:46.482Z</time></trkpt><trkpt lat="39.532375" lon="15.9183683"><ele>51.5</ele><time>2026-05-03T08:24:47.482Z</time></trkpt><trkpt lat="39.5325367" lon="15.918095"><ele>39.0</ele><time>2026-05-03T08:24:48.481Z</time></trkpt><trkpt lat="39.5326967" lon="15.9178183"><ele>33.5</ele><time>2026-05-03T08:24:49.481Z</time></trkpt><trkpt lat="39.5328583" lon="15.9175383"><ele>28.0</ele><time>2026-05-03T08:24:50.483Z</time></trkpt><trkpt lat="39.53302" lon="15.9172583"><ele>28.0</ele><time>2026-05-03T08:24:51.482Z</time></trkpt><trkpt lat="39.5331833" lon="15.9169783"><ele>28.0</ele><time>2026-05-03T08:24:52.481Z</time></trkpt><trkpt lat="39.533345" lon="15.9166983"><ele>33.0</ele><time>2026-05-03T08:24:53.482Z</time></trkpt><trkpt lat="39.5335017" lon="15.916425"><ele>38.0</ele><time>2026-05-03T08:24:54.482Z</time></trkpt><trkpt lat="39.533655" lon="15.9161583"><ele>57.0</ele><time>2026-05-03T08:24:55.482Z</time></trkpt><trkpt lat="39.5338083" lon="15.9159033"><ele>76.0</ele><time>2026-05-03T08:24:56.483Z</time></trkpt><trkpt lat="39.533975" lon="15.9156633"><ele>76.0</ele><time>2026-05-03T08:24:57.481Z</time></trkpt><trkpt lat="39.534155" lon="15.91544"><ele>76.0</ele><time>2026-05-03T08:24:58.482Z</time></trkpt><trkpt lat="39.5343517" lon="15.915235"><ele>79.5</ele><time>2026-05-03T08:24:59.482Z</time></trkpt><trkpt lat="39.5345683" lon="15.9150483"><ele>83.0</ele><time>2026-05-03T08:25:00.482Z</time></trkpt><trkpt lat="39.5347933" lon="15.9148767"><ele>83.0</ele><time>2026-05-03T08:25:01.482Z</time></trkpt><trkpt lat="39.535015" lon="15.9147183"><ele>83.0</ele><time>2026-05-03T08:25:02.483Z</time></trkpt><trkpt lat="39.5352317" lon="15.91456"><ele>84.0</ele><time>2026-05-03T08:25:03.48Z</time></trkpt><trkpt lat="39.5354333" lon="15.9143983"><ele>85.0</ele><time>2026-05-03T08:25:04.481Z</time></trkpt><trkpt lat="39.5356217" lon="15.9142317"><ele>85.0</ele><time>2026-05-03T08:25:05.481Z</time></trkpt><trkpt lat="39.5357967" lon="15.91406"><ele>85.0</ele><time>2026-05-03T08:25:06.482Z</time></trkpt><trkpt lat="39.53595" lon="15.9138733"><ele>85.0</ele><time>2026-05-03T08:25:07.482Z</time></trkpt><trkpt lat="39.5360967" lon="15.9136683"><ele>90.33333333333333</ele><time>2026-05-03T08:25:08.481Z</time></trkpt><trkpt lat="39.5362317" lon="15.9134483"><ele>95.66666666666666</ele><time>2026-05-03T08:25:09.481Z</time></trkpt><trkpt lat="39.5363617" lon="15.91321"><ele>101.0</ele><time>2026-05-03T08:25:10.48Z</time></trkpt><trkpt lat="39.536485" lon="15.912955"><ele>101.0</ele><time>2026-05-03T08:25:11.486Z</time></trkpt><trkpt lat="39.5366117" lon="15.9126917"><ele>101.0</ele><time>2026-05-03T08:25:12.482Z</time></trkpt><trkpt lat="39.5367383" lon="15.9124267"><ele>93.0</ele><time>2026-05-03T08:25:13.482Z</time></trkpt><trkpt lat="39.5368617" lon="15.9121683"><ele>85.0</ele><time>2026-05-03T08:25:14.482Z</time></trkpt><trkpt lat="39.536985" lon="15.9119283"><ele>91.33333333333333</ele><time>2026-05-03T08:25:15.482Z</time></trkpt><trkpt lat="39.537095" lon="15.9116983"><ele>97.66666666666666</ele><time>2026-05-03T08:25:16.482Z</time></trkpt><trkpt lat="39.5371967" lon="15.911465"><ele>104.0</ele><time>2026-05-03T08:25:17.482Z</time></trkpt><trkpt lat="39.5372933" lon="15.91121"><ele>104.0</ele><time>2026-05-03T08:25:18.481Z</time></trkpt><trkpt lat="39.5373867" lon="15.910935"><ele>104.0</ele><time>2026-05-03T08:25:19.481Z</time></trkpt><trkpt lat="39.5374783" lon="15.9106467"><ele>102.5</ele><time>2026-05-03T08:25:20.481Z</time></trkpt><trkpt lat="39.537565" lon="15.9103417"><ele>101.0</ele><time>2026-05-03T08:25:21.482Z</time></trkpt><trkpt lat="39.5376583" lon="15.9100267"><ele>97.0</ele><time>2026-05-03T08:25:22.481Z</time></trkpt><trkpt lat="39.5377567" lon="15.9097083"><ele>93.0</ele><time>2026-05-03T08:25:23.483Z</time></trkpt><trkpt lat="39.5378583" lon="15.9093917"><ele>103.0</ele><time>2026-05-03T08:25:24.482Z</time></trkpt><trkpt lat="39.5379567" lon="15.90907"><ele>113.0</ele><time>2026-05-03T08:25:25.482Z</time></trkpt><trkpt lat="39.5380517" lon="15.9087467"><ele>113.0</ele><time>2026-05-03T08:25:26.482Z</time></trkpt><trkpt lat="39.5381483" lon="15.90843"><ele>113.0</ele><time>2026-05-03T08:25:27.481Z</time></trkpt><trkpt lat="39.538245" lon="15.9081217"><ele>112.0</ele><time>2026-05-03T08:25:28.481Z</time></trkpt><trkpt lat="39.53834" lon="15.9078183"><ele>111.0</ele><time>2026-05-03T08:25:29.482Z</time></trkpt><trkpt lat="39.538435" lon="15.9075183"><ele>111.0</ele><time>2026-05-03T08:25:30.482Z</time></trkpt><trkpt lat="39.5385283" lon="15.90722"><ele>111.0</ele><time>2026-05-03T08:25:31.481Z</time></trkpt><trkpt lat="39.5386083" lon="15.9069317"><ele>103.5</ele><time>2026-05-03T08:25:32.482Z</time></trkpt><trkpt lat="39.5386717" lon="15.9066433"><ele>96.0</ele><time>2026-05-03T08:25:33.482Z</time></trkpt><trkpt lat="39.5387217" lon="15.906355"><ele>116.5</ele><time>2026-05-03T08:25:34.481Z</time></trkpt><trkpt lat="39.5387533" lon="15.9060617"><ele>137.0</ele><time>2026-05-03T08:25:35.482Z</time></trkpt><trkpt lat="39.538775" lon="15.9057567"><ele>137.5</ele><time>2026-05-03T08:25:36.482Z</time></trkpt><trkpt lat="39.538785" lon="15.9054483"><ele>138.0</ele><time>2026-05-03T08:25:37.482Z</time></trkpt><trkpt lat="39.5387917" lon="15.90514"><ele>135.5</ele><time>2026-05-03T08:25:38.482Z</time></trkpt><trkpt lat="39.5387933" lon="15.9048267"><ele>133.0</ele><time>2026-05-03T08:25:39.482Z</time></trkpt><trkpt lat="39.5387933" lon="15.90451"><ele>135.0</ele><time>2026-05-03T08:25:40.482Z</time></trkpt><trkpt lat="39.53879" lon="15.9041883"><ele>137.0</ele><time>2026-05-03T08:25:41.481Z</time></trkpt><trkpt lat="39.5387867" lon="15.9038683"><ele>137.0</ele><time>2026-05-03T08:25:42.482Z</time></trkpt><trkpt lat="39.53878" lon="15.90355"><ele>137.0</ele><time>2026-05-03T08:25:43.482Z</time></trkpt><trkpt lat="39.53878" lon="15.9032317"><ele>133.0</ele><time>2026-05-03T08:25:44.482Z</time></trkpt><trkpt lat="39.538775" lon="15.902915"><ele>129.0</ele><time>2026-05-03T08:25:45.481Z</time></trkpt><trkpt lat="39.5387683" lon="15.9026017"><ele>124.5</ele><time>2026-05-03T08:25:46.481Z</time></trkpt><trkpt lat="39.53876" lon="15.902285"><ele>120.0</ele><time>2026-05-03T08:25:47.482Z</time></trkpt><trkpt lat="39.538755" lon="15.9019667"><ele>118.5</ele><time>2026-05-03T08:25:48.481Z</time></trkpt><trkpt lat="39.53876" lon="15.9016483"><ele>117.0</ele><time>2026-05-03T08:25:49.482Z</time></trkpt><trkpt lat="39.538785" lon="15.9013317"><ele>117.0</ele><time>2026-05-03T08:25:50.482Z</time></trkpt><trkpt lat="39.5388233" lon="15.901015"><ele>117.0</ele><time>2026-05-03T08:25:51.482Z</time></trkpt><trkpt lat="39.53888" lon="15.9007067"><ele>118.5</ele><time>2026-05-03T08:25:52.482Z</time></trkpt><trkpt lat="39.5389433" lon="15.9004033"><ele>120.0</ele><time>2026-05-03T08:25:53.489Z</time></trkpt><trkpt lat="39.5390133" lon="15.9000983"><ele>115.5</ele><time>2026-05-03T08:25:54.482Z</time></trkpt><trkpt lat="39.5390733" lon="15.8997917"><ele>111.0</ele><time>2026-05-03T08:25:55.482Z</time></trkpt><trkpt lat="39.539125" lon="15.8994817"><ele>107.0</ele><time>2026-05-03T08:25:56.482Z</time></trkpt><trkpt lat="39.5391617" lon="15.8991733"><ele>103.0</ele><time>2026-05-03T08:25:57.482Z</time></trkpt><trkpt lat="39.5391967" lon="15.8988667"><ele>103.0</ele><time>2026-05-03T08:25:58.482Z</time></trkpt><trkpt lat="39.539225" lon="15.8985767"><ele>103.0</ele><time>2026-05-03T08:25:59.483Z</time></trkpt><trkpt lat="39.5392517" lon="15.8982933"><ele>103.0</ele><time>2026-05-03T08:26:00.481Z</time></trkpt><trkpt lat="39.539285" lon="15.8980217"><ele>99.66666666666667</ele><time>2026-05-03T08:26:01.481Z</time></trkpt><trkpt lat="39.5393133" lon="15.8977467"><ele>96.33333333333334</ele><time>2026-05-03T08:26:02.483Z</time></trkpt><trkpt lat="39.5393417" lon="15.8974617"><ele>93.0</ele><time>2026-05-03T08:26:03.482Z</time></trkpt><trkpt lat="39.5393717" lon="15.897175"><ele>87.0</ele><time>2026-05-03T08:26:04.483Z</time></trkpt><trkpt lat="39.5394133" lon="15.8968867"><ele>81.0</ele><time>2026-05-03T08:26:05.483Z</time></trkpt><trkpt lat="39.5394733" lon="15.896595"><ele>100.0</ele><time>2026-05-03T08:26:06.482Z</time></trkpt><trkpt lat="39.5395517" lon="15.8963033"><ele>119.0</ele><time>2026-05-03T08:26:07.482Z</time></trkpt><trkpt lat="39.539655" lon="15.8960083"><ele>113.5</ele><time>2026-05-03T08:26:08.481Z</time></trkpt><trkpt lat="39.5397783" lon="15.89572"><ele>108.0</ele><time>2026-05-03T08:26:09.482Z</time></trkpt><trkpt lat="39.5399233" lon="15.8954467"><ele>108.0</ele><time>2026-05-03T08:26:10.483Z</time></trkpt><trkpt lat="39.5400933" lon="15.89519"><ele>108.0</ele><time>2026-05-03T08:26:11.481Z</time></trkpt><trkpt lat="39.540285" lon="15.894955"><ele>107.5</ele><time>2026-05-03T08:26:12.482Z</time></trkpt><trkpt lat="39.54049" lon="15.89474"><ele>107.0</ele><time>2026-05-03T08:26:13.482Z</time></trkpt><trkpt lat="39.5407033" lon="15.8945417"><ele>107.0</ele><time>2026-05-03T08:26:14.482Z</time></trkpt><trkpt lat="39.5409183" lon="15.8943517"><ele>107.0</ele><time>2026-05-03T08:26:15.481Z</time></trkpt><trkpt lat="39.5411317" lon="15.8941633"><ele>101.0</ele><time>2026-05-03T08:26:16.483Z</time></trkpt><trkpt lat="39.5413383" lon="15.89397"><ele>95.0</ele><time>2026-05-03T08:26:17.482Z</time></trkpt><trkpt lat="39.541535" lon="15.8937583"><ele>95.0</ele><time>2026-05-03T08:26:18.482Z</time></trkpt><trkpt lat="39.5417167" lon="15.89352"><ele>95.0</ele><time>2026-05-03T08:26:19.483Z</time></trkpt><trkpt lat="39.54189" lon="15.8932683"><ele>72.0</ele><time>2026-05-03T08:26:20.481Z</time></trkpt><trkpt lat="39.5420517" lon="15.893005"><ele>49.0</ele><time>2026-05-03T08:26:21.482Z</time></trkpt><trkpt lat="39.5422117" lon="15.892735"><ele>48.5</ele><time>2026-05-03T08:26:22.482Z</time></trkpt><trkpt lat="39.54237" lon="15.8924683"><ele>48.0</ele><time>2026-05-03T08:26:23.482Z</time></trkpt><trkpt lat="39.5425367" lon="15.8921983"><ele>48.0</ele><time>2026-05-03T08:26:24.482Z</time></trkpt><trkpt lat="39.5427017" lon="15.8919317"><ele>48.0</ele><time>2026-05-03T08:26:25.483Z</time></trkpt><trkpt lat="39.5428617" lon="15.891665"><ele>68.0</ele><time>2026-05-03T08:26:26.481Z</time></trkpt><trkpt lat="39.5430217" lon="15.8913967"><ele>88.0</ele><time>2026-05-03T08:26:27.482Z</time></trkpt><trkpt lat="39.54318" lon="15.89113"><ele>82.0</ele><time>2026-05-03T08:26:28.482Z</time></trkpt><trkpt lat="39.5433417" lon="15.8908633"><ele>76.0</ele><time>2026-05-03T08:26:29.482Z</time></trkpt><trkpt lat="39.5435017" lon="15.8905967"><ele>76.0</ele><time>2026-05-03T08:26:30.481Z</time></trkpt><trkpt lat="39.5436617" lon="15.89033"><ele>76.0</ele><time>2026-05-03T08:26:31.482Z</time></trkpt><trkpt lat="39.5438183" lon="15.8900633"><ele>76.5</ele><time>2026-05-03T08:26:32.482Z</time></trkpt><trkpt lat="39.5439683" lon="15.8897917"><ele>77.0</ele><time>2026-05-03T08:26:33.481Z</time></trkpt><trkpt lat="39.544115" lon="15.8895133"><ele>69.0</ele><time>2026-05-03T08:26:34.482Z</time></trkpt><trkpt lat="39.544245" lon="15.8892217"><ele>61.0</ele><time>2026-05-03T08:26:35.482Z</time></trkpt><trkpt lat="39.5443567" lon="15.8889167"><ele>61.0</ele><time>2026-05-03T08:26:36.482Z</time></trkpt><trkpt lat="39.5444533" lon="15.8886"><ele>61.0</ele><time>2026-05-03T08:26:37.482Z</time></trkpt><trkpt lat="39.5445317" lon="15.88828"><ele>69.5</ele><time>2026-05-03T08:26:38.483Z</time></trkpt><trkpt lat="39.5446033" lon="15.8879567"><ele>78.0</ele><time>2026-05-03T08:26:39.482Z</time></trkpt><trkpt lat="39.5446733" lon="15.8876333"><ele>74.5</ele><time>2026-05-03T08:26:40.482Z</time></trkpt><trkpt lat="39.5447517" lon="15.8873167"><ele>71.0</ele><time>2026-05-03T08:26:41.481Z</time></trkpt><trkpt lat="39.544835" lon="15.8870117"><ele>68.5</ele><time>2026-05-03T08:26:42.482Z</time></trkpt><trkpt lat="39.5449333" lon="15.8867217"><ele>66.0</ele><time>2026-05-03T08:26:43.482Z</time></trkpt><trkpt lat="39.54505" lon="15.8864417"><ele>66.0</ele><time>2026-05-03T08:26:44.483Z</time></trkpt><trkpt lat="39.5451817" lon="15.8861833"><ele>66.0</ele><time>2026-05-03T08:26:45.481Z</time></trkpt><trkpt lat="39.5453167" lon="15.8859383"><ele>74.0</ele><time>2026-05-03T08:26:46.483Z</time></trkpt><trkpt lat="39.5464017" lon="15.8840033"><ele>74.0</ele><time>2026-05-03T08:26:55.482Z</time></trkpt><trkpt lat="39.5465517" lon="15.88382"><ele>74.0</ele><time>2026-05-03T08:26:56.482Z</time></trkpt><trkpt lat="39.546685" lon="15.8836633"><ele>74.0</ele><time>2026-05-03T08:26:57.482Z</time></trkpt><trkpt lat="39.5468233" lon="15.883505"><ele>76.0</ele><time>2026-05-03T08:26:58.483Z</time></trkpt><trkpt lat="39.546975" lon="15.8833633"><ele>78.0</ele><time>2026-05-03T08:26:59.482Z</time></trkpt><trkpt lat="39.5471233" lon="15.8832333"><ele>80.0</ele><time>2026-05-03T08:27:00.481Z</time></trkpt><trkpt lat="39.5472783" lon="15.8831283"><ele>80.0</ele><time>2026-05-03T08:27:01.482Z</time></trkpt><trkpt lat="39.54744" lon="15.883025"><ele>80.0</ele><time>2026-05-03T08:27:02.482Z</time></trkpt><trkpt lat="39.547615" lon="15.8829183"><ele>80.0</ele><time>2026-05-03T08:27:03.481Z</time></trkpt><trkpt lat="39.5477983" lon="15.882805"><ele>76.33333333333334</ele><time>2026-05-03T08:27:04.481Z</time></trkpt><trkpt lat="39.54799" lon="15.88268"><ele>72.66666666666667</ele><time>2026-05-03T08:27:05.482Z</time></trkpt><trkpt lat="39.5481983" lon="15.8825483"><ele>69.0</ele><time>2026-05-03T08:27:06.481Z</time></trkpt><trkpt lat="39.5484083" lon="15.88241"><ele>69.0</ele><time>2026-05-03T08:27:07.483Z</time></trkpt><trkpt lat="39.5486167" lon="15.8822883"><ele>69.0</ele><time>2026-05-03T08:27:08.483Z</time></trkpt><trkpt lat="39.5488167" lon="15.8821767"><ele>69.0</ele><time>2026-05-03T08:27:09.513Z</time></trkpt><trkpt lat="39.5490033" lon="15.8820683"><ele>65.0</ele><time>2026-05-03T08:27:10.482Z</time></trkpt><trkpt lat="39.5491767" lon="15.8819633"><ele>61.0</ele><time>2026-05-03T08:27:11.481Z</time></trkpt><trkpt lat="39.54934" lon="15.8818583"><ele>57.0</ele><time>2026-05-03T08:27:12.482Z</time></trkpt><trkpt lat="39.5494917" lon="15.88176"><ele>61.66666666666667</ele><time>2026-05-03T08:27:13.481Z</time></trkpt><trkpt lat="39.549645" lon="15.881665"><ele>66.33333333333334</ele><time>2026-05-03T08:27:14.482Z</time></trkpt><trkpt lat="39.5497967" lon="15.8815717"><ele>71.0</ele><time>2026-05-03T08:27:15.481Z</time></trkpt><trkpt lat="39.5499483" lon="15.8814883"><ele>71.0</ele><time>2026-05-03T08:27:16.482Z</time></trkpt><trkpt lat="39.550105" lon="15.881415"><ele>71.0</ele><time>2026-05-03T08:27:17.481Z</time></trkpt><trkpt lat="39.550275" lon="15.8813533"><ele>71.0</ele><time>2026-05-03T08:27:18.483Z</time></trkpt><trkpt lat="39.5504567" lon="15.8813017"><ele>74.33333333333334</ele><time>2026-05-03T08:27:19.482Z</time></trkpt><trkpt lat="39.5506483" lon="15.8812617"><ele>77.66666666666667</ele><time>2026-05-03T08:27:20.481Z</time></trkpt><trkpt lat="39.5508533" lon="15.8812333"><ele>81.0</ele><time>2026-05-03T08:27:21.482Z</time></trkpt><trkpt lat="39.551075" lon="15.8812217"><ele>85.5</ele><time>2026-05-03T08:27:22.481Z</time></trkpt><trkpt lat="39.5513117" lon="15.8812233"><ele>90.0</ele><time>2026-05-03T08:27:23.482Z</time></trkpt><trkpt lat="39.5515533" lon="15.881235"><ele>90.0</ele><time>2026-05-03T08:27:24.482Z</time></trkpt><trkpt lat="39.5517867" lon="15.88125"><ele>90.0</ele><time>2026-05-03T08:27:25.483Z</time></trkpt><trkpt lat="39.55201" lon="15.881265"><ele>89.0</ele><time>2026-05-03T08:27:26.482Z</time></trkpt><trkpt lat="39.552225" lon="15.881275"><ele>88.0</ele><time>2026-05-03T08:27:27.481Z</time></trkpt><trkpt lat="39.5524283" lon="15.8812833"><ele>87.0</ele><time>2026-05-03T08:27:28.481Z</time></trkpt><trkpt lat="39.5526167" lon="15.8812867"><ele>87.0</ele><time>2026-05-03T08:27:29.483Z</time></trkpt><trkpt lat="39.552795" lon="15.8812817"><ele>87.0</ele><time>2026-05-03T08:27:30.483Z</time></trkpt><trkpt lat="39.55296" lon="15.8812683"><ele>87.0</ele><time>2026-05-03T08:27:31.482Z</time></trkpt><trkpt lat="39.5531217" lon="15.88124"><ele>85.66666666666667</ele><time>2026-05-03T08:27:32.483Z</time></trkpt><trkpt lat="39.55328" lon="15.8811983"><ele>84.33333333333334</ele><time>2026-05-03T08:27:33.482Z</time></trkpt><trkpt lat="39.5534467" lon="15.881145"><ele>83.0</ele><time>2026-05-03T08:27:34.481Z</time></trkpt><trkpt lat="39.5536183" lon="15.8810833"><ele>79.33333333333334</ele><time>2026-05-03T08:27:35.482Z</time></trkpt><trkpt lat="39.553785" lon="15.881005"><ele>75.66666666666667</ele><time>2026-05-03T08:27:36.481Z</time></trkpt><trkpt lat="39.5539467" lon="15.8809267"><ele>72.0</ele><time>2026-05-03T08:27:37.48Z</time></trkpt><trkpt lat="39.5541" lon="15.8808517"><ele>72.0</ele><time>2026-05-03T08:27:38.482Z</time></trkpt><trkpt lat="39.5542467" lon="15.880775"><ele>72.0</ele><time>2026-05-03T08:27:39.482Z</time></trkpt><trkpt lat="39.5543817" lon="15.8806983"><ele>72.0</ele><time>2026-05-03T08:27:40.481Z</time></trkpt><trkpt lat="39.55452" lon="15.8806133"><ele>73.33333333333333</ele><time>2026-05-03T08:27:41.482Z</time></trkpt><trkpt lat="39.5546583" lon="15.8805117"><ele>74.66666666666666</ele><time>2026-05-03T08:27:42.481Z</time></trkpt><trkpt lat="39.5548017" lon="15.8803817"><ele>76.0</ele><time>2026-05-03T08:27:43.483Z</time></trkpt><trkpt lat="39.554955" lon="15.8802183"><ele>67.5</ele><time>2026-05-03T08:27:44.482Z</time></trkpt><trkpt lat="39.555125" lon="15.8800333"><ele>59.0</ele><time>2026-05-03T08:27:45.483Z</time></trkpt><trkpt lat="39.555315" lon="15.8798367"><ele>68.0</ele><time>2026-05-03T08:27:46.481Z</time></trkpt><trkpt lat="39.55551" lon="15.8796467"><ele>77.0</ele><time>2026-05-03T08:27:47.482Z</time></trkpt><trkpt lat="39.555705" lon="15.8794583"><ele>77.0</ele><time>2026-05-03T08:27:48.48Z</time></trkpt><trkpt lat="39.5558983" lon="15.8792683"><ele>77.0</ele><time>2026-05-03T08:27:49.482Z</time></trkpt><trkpt lat="39.5560917" lon="15.8790717"><ele>85.5</ele><time>2026-05-03T08:27:50.482Z</time></trkpt><trkpt lat="39.5562867" lon="15.8788683"><ele>94.0</ele><time>2026-05-03T08:27:51.481Z</time></trkpt><trkpt lat="39.5564833" lon="15.8786683"><ele>65.0</ele><time>2026-05-03T08:27:52.482Z</time></trkpt><trkpt lat="39.5568383" lon="15.87828"><ele>65.0</ele><time>2026-05-03T08:27:54.483Z</time></trkpt><trkpt lat="39.5570183" lon="15.878095"><ele>65.0</ele><time>2026-05-03T08:27:55.481Z</time></trkpt><trkpt lat="39.5572033" lon="15.8779533"><ele>65.0</ele><time>2026-05-03T08:27:56.482Z</time></trkpt><trkpt lat="39.557415" lon="15.8778117"><ele>63.5</ele><time>2026-05-03T08:27:57.483Z</time></trkpt><trkpt lat="39.5576367" lon="15.8777033"><ele>62.0</ele><time>2026-05-03T08:27:58.482Z</time></trkpt><trkpt lat="39.5578717" lon="15.877615"><ele>55.5</ele><time>2026-05-03T08:27:59.482Z</time></trkpt><trkpt lat="39.5581117" lon="15.87753"><ele>49.0</ele><time>2026-05-03T08:28:00.481Z</time></trkpt><trkpt lat="39.558355" lon="15.877445"><ele>49.0</ele><time>2026-05-03T08:28:01.482Z</time></trkpt><trkpt lat="39.5586017" lon="15.8773533"><ele>49.0</ele><time>2026-05-03T08:28:02.482Z</time></trkpt><trkpt lat="39.5588533" lon="15.8772633"><ele>48.5</ele><time>2026-05-03T08:28:03.483Z</time></trkpt><trkpt lat="39.5591033" lon="15.8771733"><ele>48.0</ele><time>2026-05-03T08:28:04.482Z</time></trkpt><trkpt lat="39.5593567" lon="15.87708"><ele>49.0</ele><time>2026-05-03T08:28:05.483Z</time></trkpt><trkpt lat="39.5596133" lon="15.876985"><ele>50.0</ele><time>2026-05-03T08:28:06.482Z</time></trkpt><trkpt lat="39.5598733" lon="15.8768917"><ele>50.0</ele><time>2026-05-03T08:28:07.483Z</time></trkpt><trkpt lat="39.5601333" lon="15.8768017"><ele>50.0</ele><time>2026-05-03T08:28:08.482Z</time></trkpt><trkpt lat="39.5603933" lon="15.8767083"><ele>45.0</ele><time>2026-05-03T08:28:09.482Z</time></trkpt><trkpt lat="39.5606517" lon="15.8766133"><ele>40.0</ele><time>2026-05-03T08:28:10.482Z</time></trkpt><trkpt lat="39.56091" lon="15.8765183"><ele>40.0</ele><time>2026-05-03T08:28:11.481Z</time></trkpt><trkpt lat="39.5611667" lon="15.8764283"><ele>40.0</ele><time>2026-05-03T08:28:12.481Z</time></trkpt><trkpt lat="39.5614217" lon="15.8763383"><ele>38.5</ele><time>2026-05-03T08:28:13.483Z</time></trkpt><trkpt lat="39.5616717" lon="15.87625"><ele>37.0</ele><time>2026-05-03T08:28:14.482Z</time></trkpt><trkpt lat="39.561915" lon="15.8761633"><ele>40.5</ele><time>2026-05-03T08:28:15.481Z</time></trkpt><trkpt lat="39.562155" lon="15.8760733"><ele>44.0</ele><time>2026-05-03T08:28:16.481Z</time></trkpt><trkpt lat="39.5623933" lon="15.875985"><ele>44.0</ele><time>2026-05-03T08:28:17.482Z</time></trkpt><trkpt lat="39.5626317" lon="15.8758967"><ele>44.0</ele><time>2026-05-03T08:28:18.482Z</time></trkpt><trkpt lat="39.5628717" lon="15.8758067"><ele>44.0</ele><time>2026-05-03T08:28:19.483Z</time></trkpt><trkpt lat="39.5631133" lon="15.8757183"><ele>44.0</ele><time>2026-05-03T08:28:20.483Z</time></trkpt><trkpt lat="39.5633567" lon="15.8756367"><ele>44.0</ele><time>2026-05-03T08:28:21.483Z</time></trkpt><trkpt lat="39.5636033" lon="15.87556"><ele>44.0</ele><time>2026-05-03T08:28:22.481Z</time></trkpt><trkpt lat="39.563855" lon="15.87549"><ele>46.0</ele><time>2026-05-03T08:28:23.482Z</time></trkpt><trkpt lat="39.564105" lon="15.875425"><ele>48.0</ele><time>2026-05-03T08:28:24.483Z</time></trkpt><trkpt lat="39.5643567" lon="15.8753633"><ele>50.0</ele><time>2026-05-03T08:28:25.483Z</time></trkpt><trkpt lat="39.5646" lon="15.8753"><ele>52.0</ele><time>2026-05-03T08:28:26.482Z</time></trkpt><trkpt lat="39.5648333" lon="15.8752333"><ele>52.0</ele><time>2026-05-03T08:28:27.483Z</time></trkpt><trkpt lat="39.5650667" lon="15.8751733"><ele>52.0</ele><time>2026-05-03T08:28:28.481Z</time></trkpt><trkpt lat="39.5652917" lon="15.8751167"><ele>45.5</ele><time>2026-05-03T08:28:29.483Z</time></trkpt><trkpt lat="39.56552" lon="15.8750533"><ele>39.0</ele><time>2026-05-03T08:28:30.482Z</time></trkpt><trkpt lat="39.5657483" lon="15.8749917"><ele>39.0</ele><time>2026-05-03T08:28:31.483Z</time></trkpt><trkpt lat="39.5659767" lon="15.8749283"><ele>39.0</ele><time>2026-05-03T08:28:32.483Z</time></trkpt><trkpt lat="39.5661983" lon="15.8748533"><ele>40.5</ele><time>2026-05-03T08:28:33.481Z</time></trkpt><trkpt lat="39.56642" lon="15.874765"><ele>42.0</ele><time>2026-05-03T08:28:34.482Z</time></trkpt><trkpt lat="39.5666283" lon="15.8746467"><ele>42.0</ele><time>2026-05-03T08:28:35.483Z</time></trkpt><trkpt lat="39.5668267" lon="15.8745083"><ele>42.0</ele><time>2026-05-03T08:28:36.482Z</time></trkpt><trkpt lat="39.5670133" lon="15.8743617"><ele>42.0</ele><time>2026-05-03T08:28:37.482Z</time></trkpt><trkpt lat="39.567185" lon="15.8742033"><ele>36.0</ele><time>2026-05-03T08:28:38.482Z</time></trkpt><trkpt lat="39.5673567" lon="15.8740367"><ele>30.0</ele><time>2026-05-03T08:28:39.482Z</time></trkpt><trkpt lat="39.5675233" lon="15.8738783"><ele>24.0</ele><time>2026-05-03T08:28:40.48Z</time></trkpt><trkpt lat="39.5676867" lon="15.87373"><ele>24.0</ele><time>2026-05-03T08:28:41.481Z</time></trkpt><trkpt lat="39.5678517" lon="15.873595"><ele>24.0</ele><time>2026-05-03T08:28:42.482Z</time></trkpt><trkpt lat="39.56802" lon="15.8734817"><ele>24.0</ele><time>2026-05-03T08:28:43.483Z</time></trkpt><trkpt lat="39.5681933" lon="15.8733883"><ele>25.666666666666664</ele><time>2026-05-03T08:28:44.482Z</time></trkpt><trkpt lat="39.568365" lon="15.873315"><ele>27.333333333333332</ele><time>2026-05-03T08:28:45.482Z</time></trkpt><trkpt lat="39.5685317" lon="15.8732467"><ele>29.0</ele><time>2026-05-03T08:28:46.482Z</time></trkpt><trkpt lat="39.5687" lon="15.8731867"><ele>29.333333333333332</ele><time>2026-05-03T08:28:47.482Z</time></trkpt><trkpt lat="39.5688617" lon="15.8731283"><ele>29.666666666666664</ele><time>2026-05-03T08:28:48.482Z</time></trkpt><trkpt lat="39.569015" lon="15.8730767"><ele>30.0</ele><time>2026-05-03T08:28:49.483Z</time></trkpt><trkpt lat="39.5691567" lon="15.8730317"><ele>30.0</ele><time>2026-05-03T08:28:50.482Z</time></trkpt><trkpt lat="39.56929" lon="15.872985"><ele>30.0</ele><time>2026-05-03T08:28:51.481Z</time></trkpt><trkpt lat="39.5694217" lon="15.872935"><ele>30.0</ele><time>2026-05-03T08:28:52.482Z</time></trkpt><trkpt lat="39.5695617" lon="15.8728867"><ele>30.0</ele><time>2026-05-03T08:28:53.482Z</time></trkpt><trkpt lat="39.5697117" lon="15.8728317"><ele>30.666666666666664</ele><time>2026-05-03T08:28:54.482Z</time></trkpt><trkpt lat="39.5698733" lon="15.8727717"><ele>31.333333333333332</ele><time>2026-05-03T08:28:55.483Z</time></trkpt><trkpt lat="39.5700517" lon="15.8727017"><ele>32.0</ele><time>2026-05-03T08:28:56.482Z</time></trkpt><trkpt lat="39.5702467" lon="15.8726233"><ele>30.0</ele><time>2026-05-03T08:28:57.483Z</time></trkpt><trkpt lat="39.5704567" lon="15.8725517"><ele>28.0</ele><time>2026-05-03T08:28:58.481Z</time></trkpt><trkpt lat="39.570665" lon="15.8724917"><ele>26.0</ele><time>2026-05-03T08:28:59.482Z</time></trkpt><trkpt lat="39.5708617" lon="15.8724383"><ele>26.0</ele><time>2026-05-03T08:29:00.483Z</time></trkpt><trkpt lat="39.57105" lon="15.8723817"><ele>26.0</ele><time>2026-05-03T08:29:01.481Z</time></trkpt><trkpt lat="39.5712417" lon="15.872325"><ele>26.0</ele><time>2026-05-03T08:29:02.482Z</time></trkpt><trkpt lat="39.5714367" lon="15.8722583"><ele>26.333333333333332</ele><time>2026-05-03T08:29:03.483Z</time></trkpt><trkpt lat="39.5716383" lon="15.87219"><ele>26.666666666666664</ele><time>2026-05-03T08:29:04.482Z</time></trkpt><trkpt lat="39.57184" lon="15.87212"><ele>27.0</ele><time>2026-05-03T08:29:05.481Z</time></trkpt><trkpt lat="39.5720433" lon="15.8720467"><ele>27.0</ele><time>2026-05-03T08:29:06.482Z</time></trkpt><trkpt lat="39.5722483" lon="15.8719767"><ele>27.0</ele><time>2026-05-03T08:29:07.482Z</time></trkpt><trkpt lat="39.57245" lon="15.8719083"><ele>27.0</ele><time>2026-05-03T08:29:08.483Z</time></trkpt><trkpt lat="39.572655" lon="15.8718383"><ele>27.0</ele><time>2026-05-03T08:29:09.482Z</time></trkpt><trkpt lat="39.5728683" lon="15.8717667"><ele>27.0</ele><time>2026-05-03T08:29:10.483Z</time></trkpt><trkpt lat="39.573085" lon="15.8716983"><ele>27.0</ele><time>2026-05-03T08:29:11.483Z</time></trkpt><trkpt lat="39.5732967" lon="15.8716283"><ele>27.0</ele><time>2026-05-03T08:29:12.482Z</time></trkpt><trkpt lat="39.5735017" lon="15.8715567"><ele>27.0</ele><time>2026-05-03T08:29:13.482Z</time></trkpt><trkpt lat="39.573705" lon="15.871485"><ele>27.0</ele><time>2026-05-03T08:29:14.483Z</time></trkpt><trkpt lat="39.57391" lon="15.871415"><ele>26.666666666666664</ele><time>2026-05-03T08:29:15.482Z</time></trkpt><trkpt lat="39.5741183" lon="15.8713433"><ele>26.333333333333332</ele><time>2026-05-03T08:29:16.482Z</time></trkpt><trkpt lat="39.574325" lon="15.8712717"><ele>26.0</ele><time>2026-05-03T08:29:17.483Z</time></trkpt><trkpt lat="39.5745333" lon="15.8712033"><ele>27.0</ele><time>2026-05-03T08:29:18.482Z</time></trkpt><trkpt lat="39.5747383" lon="15.8711367"><ele>28.0</ele><time>2026-05-03T08:29:19.483Z</time></trkpt><trkpt lat="39.5749467" lon="15.8710667"><ele>29.0</ele><time>2026-05-03T08:29:20.484Z</time></trkpt><trkpt lat="39.5751517" lon="15.8709933"><ele>29.0</ele><time>2026-05-03T08:29:21.482Z</time></trkpt><trkpt lat="39.5753633" lon="15.8709167"><ele>29.0</ele><time>2026-05-03T08:29:22.481Z</time></trkpt><trkpt lat="39.5755767" lon="15.870835"><ele>29.0</ele><time>2026-05-03T08:29:23.483Z</time></trkpt><trkpt lat="39.5757917" lon="15.8707533"><ele>29.0</ele><time>2026-05-03T08:29:24.482Z</time></trkpt><trkpt lat="39.576005" lon="15.87066"><ele>29.0</ele><time>2026-05-03T08:29:25.481Z</time></trkpt><trkpt lat="39.576215" lon="15.8705667"><ele>29.0</ele><time>2026-05-03T08:29:26.482Z</time></trkpt><trkpt lat="39.5764217" lon="15.8704733"><ele>30.666666666666664</ele><time>2026-05-03T08:29:27.482Z</time></trkpt><trkpt lat="39.5766233" lon="15.870375"><ele>32.333333333333336</ele><time>2026-05-03T08:29:28.481Z</time></trkpt><trkpt lat="39.5768217" lon="15.870275"><ele>34.0</ele><time>2026-05-03T08:29:29.483Z</time></trkpt><trkpt lat="39.5770183" lon="15.87018"><ele>31.0</ele><time>2026-05-03T08:29:30.482Z</time></trkpt><trkpt lat="39.5772133" lon="15.8700867"><ele>28.0</ele><time>2026-05-03T08:29:31.482Z</time></trkpt><trkpt lat="39.5774" lon="15.8699967"><ele>25.0</ele><time>2026-05-03T08:29:32.483Z</time></trkpt><trkpt lat="39.5775867" lon="15.86991"><ele>25.0</ele><time>2026-05-03T08:29:33.482Z</time></trkpt><trkpt lat="39.5777733" lon="15.869825"><ele>25.0</ele><time>2026-05-03T08:29:34.482Z</time></trkpt><trkpt lat="39.5779633" lon="15.8697483"><ele>25.0</ele><time>2026-05-03T08:29:35.483Z</time></trkpt><trkpt lat="39.5781617" lon="15.8696867"><ele>29.0</ele><time>2026-05-03T08:29:36.483Z</time></trkpt><trkpt lat="39.5783683" lon="15.8696333"><ele>33.0</ele><time>2026-05-03T08:29:37.482Z</time></trkpt><trkpt lat="39.5785817" lon="15.8695917"><ele>37.0</ele><time>2026-05-03T08:29:38.482Z</time></trkpt><trkpt lat="39.5788033" lon="15.8695667"><ele>38.66666666666667</ele><time>2026-05-03T08:29:39.482Z</time></trkpt><trkpt lat="39.579025" lon="15.8695567"><ele>40.333333333333336</ele><time>2026-05-03T08:29:40.483Z</time></trkpt><trkpt lat="39.5792483" lon="15.8695583"><ele>42.0</ele><time>2026-05-03T08:29:41.482Z</time></trkpt><trkpt lat="39.5794717" lon="15.8695683"><ele>41.333333333333336</ele><time>2026-05-03T08:29:42.482Z</time></trkpt><trkpt lat="39.579695" lon="15.86958"><ele>40.66666666666667</ele><time>2026-05-03T08:29:43.481Z</time></trkpt><trkpt lat="39.57992" lon="15.86959"><ele>40.0</ele><time>2026-05-03T08:29:44.482Z</time></trkpt><trkpt lat="39.58014" lon="15.8695967"><ele>39.66666666666667</ele><time>2026-05-03T08:29:45.481Z</time></trkpt><trkpt lat="39.5803567" lon="15.8696083"><ele>39.333333333333336</ele><time>2026-05-03T08:29:46.483Z</time></trkpt><trkpt lat="39.580565" lon="15.8696183"><ele>39.0</ele><time>2026-05-03T08:29:47.482Z</time></trkpt><trkpt lat="39.58077" lon="15.8696333"><ele>39.0</ele><time>2026-05-03T08:29:48.481Z</time></trkpt><trkpt lat="39.580975" lon="15.869645"><ele>39.0</ele><time>2026-05-03T08:29:49.481Z</time></trkpt><trkpt lat="39.58118" lon="15.8696583"><ele>39.0</ele><time>2026-05-03T08:29:50.484Z</time></trkpt><trkpt lat="39.5813867" lon="15.869675"><ele>38.666666666666664</ele><time>2026-05-03T08:29:51.481Z</time></trkpt><trkpt lat="39.5815933" lon="15.8696933"><ele>38.33333333333333</ele><time>2026-05-03T08:29:52.482Z</time></trkpt><trkpt lat="39.5818" lon="15.8697117"><ele>38.0</ele><time>2026-05-03T08:29:53.483Z</time></trkpt><trkpt lat="39.5820033" lon="15.8697267"><ele>38.33333333333333</ele><time>2026-05-03T08:29:54.483Z</time></trkpt><trkpt lat="39.58221" lon="15.8697417"><ele>38.666666666666664</ele><time>2026-05-03T08:29:55.483Z</time></trkpt><trkpt lat="39.58242" lon="15.86976"><ele>39.0</ele><time>2026-05-03T08:29:56.483Z</time></trkpt><trkpt lat="39.5826283" lon="15.8697783"><ele>39.0</ele><time>2026-05-03T08:29:57.482Z</time></trkpt><trkpt lat="39.5828467" lon="15.8698"><ele>39.0</ele><time>2026-05-03T08:29:58.487Z</time></trkpt><trkpt lat="39.5830617" lon="15.8698333"><ele>39.0</ele><time>2026-05-03T08:29:59.482Z</time></trkpt><trkpt lat="39.583275" lon="15.8698817"><ele>39.666666666666664</ele><time>2026-05-03T08:30:00.483Z</time></trkpt><trkpt lat="39.58348" lon="15.869935"><ele>40.33333333333333</ele><time>2026-05-03T08:30:01.482Z</time></trkpt><trkpt lat="39.5836767" lon="15.8699967"><ele>41.0</ele><time>2026-05-03T08:30:02.482Z</time></trkpt><trkpt lat="39.5838683" lon="15.870055"><ele>50.33333333333333</ele><time>2026-05-03T08:30:03.482Z</time></trkpt><trkpt lat="39.5840583" lon="15.8701167"><ele>59.666666666666664</ele><time>2026-05-03T08:30:04.482Z</time></trkpt><trkpt lat="39.5842467" lon="15.8701817"><ele>69.0</ele><time>2026-05-03T08:30:05.483Z</time></trkpt><trkpt lat="39.58444" lon="15.8702433"><ele>64.0</ele><time>2026-05-03T08:30:06.483Z</time></trkpt><trkpt lat="39.5846333" lon="15.8703"><ele>59.0</ele><time>2026-05-03T08:30:07.482Z</time></trkpt><trkpt lat="39.5848283" lon="15.8703533"><ele>54.0</ele><time>2026-05-03T08:30:08.483Z</time></trkpt><trkpt lat="39.5850167" lon="15.8704017"><ele>54.0</ele><time>2026-05-03T08:30:09.482Z</time></trkpt><trkpt lat="39.5851983" lon="15.870435"><ele>54.0</ele><time>2026-05-03T08:30:10.482Z</time></trkpt><trkpt lat="39.5853667" lon="15.87047"><ele>54.0</ele><time>2026-05-03T08:30:11.484Z</time></trkpt><trkpt lat="39.5855383" lon="15.8704983"><ele>46.333333333333336</ele><time>2026-05-03T08:30:12.483Z</time></trkpt><trkpt lat="39.5857183" lon="15.8705133"><ele>38.66666666666667</ele><time>2026-05-03T08:30:13.482Z</time></trkpt><trkpt lat="39.585905" lon="15.87052"><ele>31.0</ele><time>2026-05-03T08:30:14.482Z</time></trkpt><trkpt lat="39.58609" lon="15.8705183"><ele>30.0</ele><time>2026-05-03T08:30:15.482Z</time></trkpt><trkpt lat="39.5862633" lon="15.8705067"><ele>29.0</ele><time>2026-05-03T08:30:16.482Z</time></trkpt><trkpt lat="39.5864217" lon="15.87049"><ele>28.0</ele><time>2026-05-03T08:30:17.483Z</time></trkpt><trkpt lat="39.58657" lon="15.870465"><ele>28.0</ele><time>2026-05-03T08:30:18.482Z</time></trkpt><trkpt lat="39.5867117" lon="15.8704367"><ele>28.0</ele><time>2026-05-03T08:30:19.482Z</time></trkpt><trkpt lat="39.5868517" lon="15.8704"><ele>28.0</ele><time>2026-05-03T08:30:20.483Z</time></trkpt><trkpt lat="39.5869967" lon="15.8703583"><ele>28.0</ele><time>2026-05-03T08:30:21.481Z</time></trkpt><trkpt lat="39.587145" lon="15.87031"><ele>28.333333333333336</ele><time>2026-05-03T08:30:22.483Z</time></trkpt><trkpt lat="39.5872983" lon="15.87025"><ele>28.666666666666664</ele><time>2026-05-03T08:30:23.483Z</time></trkpt><trkpt lat="39.587455" lon="15.8701717"><ele>29.0</ele><time>2026-05-03T08:30:24.481Z</time></trkpt><trkpt lat="39.587615" lon="15.8700867"><ele>31.0</ele><time>2026-05-03T08:30:25.483Z</time></trkpt><trkpt lat="39.58778" lon="15.8699933"><ele>33.0</ele><time>2026-05-03T08:30:26.483Z</time></trkpt><trkpt lat="39.58795" lon="15.8698933"><ele>35.0</ele><time>2026-05-03T08:30:27.483Z</time></trkpt><trkpt lat="39.5881233" lon="15.869785"><ele>35.666666666666664</ele><time>2026-05-03T08:30:28.483Z</time></trkpt><trkpt lat="39.588305" lon="15.8696717"><ele>36.333333333333336</ele><time>2026-05-03T08:30:29.482Z</time></trkpt><trkpt lat="39.5884833" lon="15.8695583"><ele>37.0</ele><time>2026-05-03T08:30:30.483Z</time></trkpt><trkpt lat="39.5886633" lon="15.8694433"><ele>37.66666666666667</ele><time>2026-05-03T08:30:31.483Z</time></trkpt><trkpt lat="39.5888417" lon="15.8693317"><ele>38.333333333333336</ele><time>2026-05-03T08:30:32.483Z</time></trkpt><trkpt lat="39.5890233" lon="15.8692233"><ele>39.0</ele><time>2026-05-03T08:30:33.483Z</time></trkpt><trkpt lat="39.5892" lon="15.8691083"><ele>39.0</ele><time>2026-05-03T08:30:34.482Z</time></trkpt><trkpt lat="39.5893767" lon="15.8689967"><ele>39.0</ele><time>2026-05-03T08:30:35.482Z</time></trkpt><trkpt lat="39.58955" lon="15.8688817"><ele>39.0</ele><time>2026-05-03T08:30:36.483Z</time></trkpt><trkpt lat="39.5897283" lon="15.86877"><ele>41.666666666666664</ele><time>2026-05-03T08:30:37.482Z</time></trkpt><trkpt lat="39.5899083" lon="15.868665"><ele>44.33333333333333</ele><time>2026-05-03T08:30:38.483Z</time></trkpt><trkpt lat="39.5900917" lon="15.86857"><ele>47.0</ele><time>2026-05-03T08:30:39.482Z</time></trkpt><trkpt lat="39.5902767" lon="15.868485"><ele>45.0</ele><time>2026-05-03T08:30:40.483Z</time></trkpt><trkpt lat="39.5904717" lon="15.8684083"><ele>43.0</ele><time>2026-05-03T08:30:41.483Z</time></trkpt><trkpt lat="39.590675" lon="15.8683433"><ele>41.0</ele><time>2026-05-03T08:30:42.482Z</time></trkpt><trkpt lat="39.590885" lon="15.8682783"><ele>41.0</ele><time>2026-05-03T08:30:43.483Z</time></trkpt><trkpt lat="39.5910983" lon="15.868215"><ele>41.0</ele><time>2026-05-03T08:30:44.481Z</time></trkpt><trkpt lat="39.5913167" lon="15.868155"><ele>41.0</ele><time>2026-05-03T08:30:45.482Z</time></trkpt><trkpt lat="39.59153" lon="15.8680933"><ele>41.666666666666664</ele><time>2026-05-03T08:30:46.482Z</time></trkpt><trkpt lat="39.5917417" lon="15.8680283"><ele>42.333333333333336</ele><time>2026-05-03T08:30:47.483Z</time></trkpt><trkpt lat="39.5919517" lon="15.867955"><ele>43.0</ele><time>2026-05-03T08:30:48.483Z</time></trkpt><trkpt lat="39.5921567" lon="15.8678683"><ele>42.0</ele><time>2026-05-03T08:30:49.482Z</time></trkpt><trkpt lat="39.59236" lon="15.86776"><ele>41.0</ele><time>2026-05-03T08:30:50.482Z</time></trkpt><trkpt lat="39.5925583" lon="15.867635"><ele>40.0</ele><time>2026-05-03T08:30:51.482Z</time></trkpt><trkpt lat="39.5927467" lon="15.8674967"><ele>43.333333333333336</ele><time>2026-05-03T08:30:52.482Z</time></trkpt><trkpt lat="39.592925" lon="15.8673417"><ele>46.66666666666667</ele><time>2026-05-03T08:30:53.481Z</time></trkpt><trkpt lat="39.59309" lon="15.8671717"><ele>50.0</ele><time>2026-05-03T08:30:54.482Z</time></trkpt><trkpt lat="39.593245" lon="15.8669917"><ele>50.0</ele><time>2026-05-03T08:30:55.483Z</time></trkpt><trkpt lat="39.5933883" lon="15.8667967"><ele>50.0</ele><time>2026-05-03T08:30:56.482Z</time></trkpt><trkpt lat="39.5935217" lon="15.8665933"><ele>50.0</ele><time>2026-05-03T08:30:57.482Z</time></trkpt><trkpt lat="39.5936433" lon="15.866395"><ele>50.0</ele><time>2026-05-03T08:30:58.481Z</time></trkpt><trkpt lat="39.59376" lon="15.8662067"><ele>50.0</ele><time>2026-05-03T08:30:59.482Z</time></trkpt><trkpt lat="39.5938717" lon="15.8660233"><ele>50.0</ele><time>2026-05-03T08:31:00.483Z</time></trkpt><trkpt lat="39.5939767" lon="15.86585"><ele>46.66666666666667</ele><time>2026-05-03T08:31:01.483Z</time></trkpt><trkpt lat="39.5940783" lon="15.865685"><ele>43.333333333333336</ele><time>2026-05-03T08:31:02.483Z</time></trkpt><trkpt lat="39.5941733" lon="15.8655217"><ele>40.0</ele><time>2026-05-03T08:31:03.482Z</time></trkpt><trkpt lat="39.5942683" lon="15.8653617"><ele>40.0</ele><time>2026-05-03T08:31:04.483Z</time></trkpt><trkpt lat="39.5943733" lon="15.8651967"><ele>40.0</ele><time>2026-05-03T08:31:05.482Z</time></trkpt><trkpt lat="39.5944917" lon="15.865035"><ele>40.0</ele><time>2026-05-03T08:31:06.482Z</time></trkpt><trkpt lat="39.594625" lon="15.8648767"><ele>42.0</ele><time>2026-05-03T08:31:07.482Z</time></trkpt><trkpt lat="39.5947717" lon="15.8647267"><ele>44.0</ele><time>2026-05-03T08:31:08.483Z</time></trkpt><trkpt lat="39.5949233" lon="15.8645883"><ele>46.0</ele><time>2026-05-03T08:31:09.482Z</time></trkpt><trkpt lat="39.5950783" lon="15.8644567"><ele>46.0</ele><time>2026-05-03T08:31:10.484Z</time></trkpt><trkpt lat="39.5952333" lon="15.8643317"><ele>46.0</ele><time>2026-05-03T08:31:11.566Z</time></trkpt><trkpt lat="39.5953883" lon="15.864205"><ele>46.0</ele><time>2026-05-03T08:31:12.482Z</time></trkpt><trkpt lat="39.5955417" lon="15.86407"><ele>46.333333333333336</ele><time>2026-05-03T08:31:13.481Z</time></trkpt><trkpt lat="39.5956967" lon="15.86394"><ele>46.666666666666664</ele><time>2026-05-03T08:31:14.482Z</time></trkpt><trkpt lat="39.5958533" lon="15.8638167"><ele>47.0</ele><time>2026-05-03T08:31:15.481Z</time></trkpt><trkpt lat="39.5960167" lon="15.8637083"><ele>46.0</ele><time>2026-05-03T08:31:16.483Z</time></trkpt><trkpt lat="39.5961883" lon="15.8636217"><ele>45.0</ele><time>2026-05-03T08:31:17.482Z</time></trkpt><trkpt lat="39.596365" lon="15.863555"><ele>44.0</ele><time>2026-05-03T08:31:18.481Z</time></trkpt><trkpt lat="39.5965433" lon="15.8635"><ele>44.0</ele><time>2026-05-03T08:31:19.485Z</time></trkpt><trkpt lat="39.5967233" lon="15.8634583"><ele>44.0</ele><time>2026-05-03T08:31:20.481Z</time></trkpt><trkpt lat="39.5969117" lon="15.8634267"><ele>44.0</ele><time>2026-05-03T08:31:21.481Z</time></trkpt><trkpt lat="39.5970967" lon="15.863395"><ele>38.33333333333333</ele><time>2026-05-03T08:31:22.481Z</time></trkpt><trkpt lat="39.597275" lon="15.8633633"><ele>32.666666666666664</ele><time>2026-05-03T08:31:23.482Z</time></trkpt><trkpt lat="39.59745" lon="15.8633333"><ele>27.0</ele><time>2026-05-03T08:31:24.486Z</time></trkpt><trkpt lat="39.59762" lon="15.863305"><ele>27.0</ele><time>2026-05-03T08:31:25.483Z</time></trkpt><trkpt lat="39.5977833" lon="15.8632767"><ele>27.0</ele><time>2026-05-03T08:31:26.482Z</time></trkpt><trkpt lat="39.5979433" lon="15.8632483"><ele>27.0</ele><time>2026-05-03T08:31:27.481Z</time></trkpt><trkpt lat="39.5980983" lon="15.8632183"><ele>27.666666666666664</ele><time>2026-05-03T08:31:28.483Z</time></trkpt><trkpt lat="39.5982517" lon="15.8631867"><ele>28.333333333333332</ele><time>2026-05-03T08:31:29.482Z</time></trkpt><trkpt lat="39.5984033" lon="15.8631583"><ele>29.0</ele><time>2026-05-03T08:31:30.482Z</time></trkpt><trkpt lat="39.5985483" lon="15.8631317"><ele>29.5</ele><time>2026-05-03T08:31:31.483Z</time></trkpt><trkpt lat="39.59869" lon="15.8631083"><ele>30.0</ele><time>2026-05-03T08:31:32.482Z</time></trkpt><trkpt lat="39.598825" lon="15.8630833"><ele>30.5</ele><time>2026-05-03T08:31:33.483Z</time></trkpt><trkpt lat="39.5989583" lon="15.8630583"><ele>31.0</ele><time>2026-05-03T08:31:34.483Z</time></trkpt><trkpt lat="39.5990917" lon="15.8630333"><ele>31.0</ele><time>2026-05-03T08:31:35.482Z</time></trkpt><trkpt lat="39.5992267" lon="15.8630033"><ele>31.0</ele><time>2026-05-03T08:31:36.482Z</time></trkpt><trkpt lat="39.5993633" lon="15.8629733"><ele>31.0</ele><time>2026-05-03T08:31:37.482Z</time></trkpt><trkpt lat="39.5995033" lon="15.8629417"><ele>31.0</ele><time>2026-05-03T08:31:38.483Z</time></trkpt><trkpt lat="39.5996433" lon="15.86291"><ele>32.0</ele><time>2026-05-03T08:31:39.482Z</time></trkpt><trkpt lat="39.5997867" lon="15.86288"><ele>33.0</ele><time>2026-05-03T08:31:40.483Z</time></trkpt><trkpt lat="39.5999367" lon="15.8628433"><ele>34.0</ele><time>2026-05-03T08:31:41.483Z</time></trkpt><trkpt lat="39.6000883" lon="15.86281"><ele>34.0</ele><time>2026-05-03T08:31:42.482Z</time></trkpt><trkpt lat="39.6002483" lon="15.8627733"><ele>34.0</ele><time>2026-05-03T08:31:43.482Z</time></trkpt><trkpt lat="39.6004133" lon="15.862735"><ele>34.0</ele><time>2026-05-03T08:31:44.484Z</time></trkpt><trkpt lat="39.60058" lon="15.862695"><ele>32.66666666666667</ele><time>2026-05-03T08:31:45.481Z</time></trkpt><trkpt lat="39.6007567" lon="15.862655"><ele>31.333333333333336</ele><time>2026-05-03T08:31:46.481Z</time></trkpt><trkpt lat="39.6009333" lon="15.8626083"><ele>30.0</ele><time>2026-05-03T08:31:47.483Z</time></trkpt><trkpt lat="39.601115" lon="15.86256"><ele>33.0</ele><time>2026-05-03T08:31:48.481Z</time></trkpt><trkpt lat="39.6013017" lon="15.862515"><ele>36.0</ele><time>2026-05-03T08:31:49.482Z</time></trkpt><trkpt lat="39.6014883" lon="15.8624683"><ele>39.0</ele><time>2026-05-03T08:31:50.482Z</time></trkpt><trkpt lat="39.6016767" lon="15.862425"><ele>39.0</ele><time>2026-05-03T08:31:51.482Z</time></trkpt><trkpt lat="39.60186" lon="15.8623817"><ele>39.0</ele><time>2026-05-03T08:31:52.482Z</time></trkpt><trkpt lat="39.6020433" lon="15.86234"><ele>39.0</ele><time>2026-05-03T08:31:53.483Z</time></trkpt><trkpt lat="39.6022267" lon="15.8622967"><ele>41.333333333333336</ele><time>2026-05-03T08:31:54.482Z</time></trkpt><trkpt lat="39.6024117" lon="15.8622567"><ele>43.66666666666667</ele><time>2026-05-03T08:31:55.483Z</time></trkpt><trkpt lat="39.6025983" lon="15.862215"><ele>46.0</ele><time>2026-05-03T08:31:56.482Z</time></trkpt><trkpt lat="39.6027883" lon="15.862175"><ele>48.333333333333336</ele><time>2026-05-03T08:31:57.482Z</time></trkpt><trkpt lat="39.6029767" lon="15.8621367"><ele>50.66666666666667</ele><time>2026-05-03T08:31:58.483Z</time></trkpt><trkpt lat="39.60317" lon="15.8621"><ele>53.0</ele><time>2026-05-03T08:31:59.484Z</time></trkpt><trkpt lat="39.6033667" lon="15.8620617"><ele>53.0</ele><time>2026-05-03T08:32:00.483Z</time></trkpt><trkpt lat="39.60357" lon="15.86202"><ele>53.0</ele><time>2026-05-03T08:32:01.482Z</time></trkpt><trkpt lat="39.6037783" lon="15.86197"><ele>53.0</ele><time>2026-05-03T08:32:02.482Z</time></trkpt><trkpt lat="39.604" lon="15.8619183"><ele>56.5</ele><time>2026-05-03T08:32:03.483Z</time></trkpt><trkpt lat="39.6042317" lon="15.8618717"><ele>60.0</ele><time>2026-05-03T08:32:04.483Z</time></trkpt><trkpt lat="39.6044733" lon="15.8618283"><ele>59.0</ele><time>2026-05-03T08:32:05.483Z</time></trkpt><trkpt lat="39.604725" lon="15.861785"><ele>58.0</ele><time>2026-05-03T08:32:06.482Z</time></trkpt><trkpt lat="39.6049817" lon="15.8617367"><ele>52.0</ele><time>2026-05-03T08:32:07.483Z</time></trkpt><trkpt lat="39.6052417" lon="15.861685"><ele>46.0</ele><time>2026-05-03T08:32:08.482Z</time></trkpt><trkpt lat="39.6055117" lon="15.8616333"><ele>38.0</ele><time>2026-05-03T08:32:09.482Z</time></trkpt><trkpt lat="39.60578" lon="15.8615817"><ele>30.0</ele><time>2026-05-03T08:32:10.482Z</time></trkpt><trkpt lat="39.6060317" lon="15.861535"><ele>32.0</ele><time>2026-05-03T08:32:11.482Z</time></trkpt><trkpt lat="39.6062683" lon="15.86149"><ele>34.0</ele><time>2026-05-03T08:32:12.482Z</time></trkpt><trkpt lat="39.6064917" lon="15.861445"><ele>34.0</ele><time>2026-05-03T08:32:13.483Z</time></trkpt><trkpt lat="39.6067033" lon="15.8614"><ele>34.0</ele><time>2026-05-03T08:32:14.483Z</time></trkpt><trkpt lat="39.6069133" lon="15.8613567"><ele>34.0</ele><time>2026-05-03T08:32:15.483Z</time></trkpt><trkpt lat="39.60712" lon="15.8613133"><ele>38.333333333333336</ele><time>2026-05-03T08:32:16.481Z</time></trkpt><trkpt lat="39.6073267" lon="15.8612717"><ele>42.666666666666664</ele><time>2026-05-03T08:32:17.483Z</time></trkpt><trkpt lat="39.6075333" lon="15.8612317"><ele>47.0</ele><time>2026-05-03T08:32:18.482Z</time></trkpt><trkpt lat="39.6077367" lon="15.86119"><ele>50.0</ele><time>2026-05-03T08:32:19.482Z</time></trkpt><trkpt lat="39.6079383" lon="15.86115"><ele>53.0</ele><time>2026-05-03T08:32:20.483Z</time></trkpt><trkpt lat="39.6081383" lon="15.8611067"><ele>56.0</ele><time>2026-05-03T08:32:21.482Z</time></trkpt><trkpt lat="39.6083383" lon="15.8610667"><ele>56.0</ele><time>2026-05-03T08:32:22.484Z</time></trkpt><trkpt lat="39.6085333" lon="15.8610267"><ele>56.0</ele><time>2026-05-03T08:32:23.481Z</time></trkpt><trkpt lat="39.6087283" lon="15.8609867"><ele>56.0</ele><time>2026-05-03T08:32:24.482Z</time></trkpt><trkpt lat="39.6089217" lon="15.8609467"><ele>58.66666666666667</ele><time>2026-05-03T08:32:25.481Z</time></trkpt><trkpt lat="39.6091167" lon="15.8609067"><ele>61.33333333333333</ele><time>2026-05-03T08:32:26.482Z</time></trkpt><trkpt lat="39.609315" lon="15.8608683"><ele>64.0</ele><time>2026-05-03T08:32:27.482Z</time></trkpt><trkpt lat="39.6095167" lon="15.8608333"><ele>64.0</ele><time>2026-05-03T08:32:28.482Z</time></trkpt><trkpt lat="39.6097183" lon="15.860795"><ele>64.0</ele><time>2026-05-03T08:32:29.483Z</time></trkpt><trkpt lat="39.609925" lon="15.8607567"><ele>64.0</ele><time>2026-05-03T08:32:30.482Z</time></trkpt><trkpt lat="39.6101317" lon="15.860715"><ele>62.666666666666664</ele><time>2026-05-03T08:32:31.484Z</time></trkpt><trkpt lat="39.6103417" lon="15.8606683"><ele>61.33333333333333</ele><time>2026-05-03T08:32:32.482Z</time></trkpt><trkpt lat="39.6105517" lon="15.8606217"><ele>60.0</ele><time>2026-05-03T08:32:33.481Z</time></trkpt><trkpt lat="39.6107667" lon="15.8605783"><ele>60.0</ele><time>2026-05-03T08:32:34.483Z</time></trkpt><trkpt lat="39.6109867" lon="15.8605367"><ele>60.0</ele><time>2026-05-03T08:32:35.482Z</time></trkpt><trkpt lat="39.6112183" lon="15.8604867"><ele>52.5</ele><time>2026-05-03T08:32:36.481Z</time></trkpt><trkpt lat="39.6114583" lon="15.86043"><ele>45.0</ele><time>2026-05-03T08:32:37.484Z</time></trkpt><trkpt lat="39.6117183" lon="15.8603717"><ele>45.0</ele><time>2026-05-03T08:32:38.483Z</time></trkpt><trkpt lat="39.611995" lon="15.8603083"><ele>45.0</ele><time>2026-05-03T08:32:39.482Z</time></trkpt><trkpt lat="39.6122867" lon="15.8602467"><ele>45.0</ele><time>2026-05-03T08:32:40.482Z</time></trkpt><trkpt lat="39.61258" lon="15.86019"><ele>45.0</ele><time>2026-05-03T08:32:41.483Z</time></trkpt><trkpt lat="39.61286" lon="15.86014"><ele>55.5</ele><time>2026-05-03T08:32:42.481Z</time></trkpt><trkpt lat="39.6131217" lon="15.860095"><ele>66.0</ele><time>2026-05-03T08:32:43.483Z</time></trkpt><trkpt lat="39.6133717" lon="15.8600517"><ele>66.0</ele><time>2026-05-03T08:32:44.483Z</time></trkpt><trkpt lat="39.61361" lon="15.8600033"><ele>66.0</ele><time>2026-05-03T08:32:45.483Z</time></trkpt><trkpt lat="39.6138383" lon="15.859945"><ele>71.5</ele><time>2026-05-03T08:32:46.483Z</time></trkpt><trkpt lat="39.61406" lon="15.8598783"><ele>77.0</ele><time>2026-05-03T08:32:47.484Z</time></trkpt><trkpt lat="39.6142783" lon="15.859785"><ele>80.5</ele><time>2026-05-03T08:32:48.481Z</time></trkpt><trkpt lat="39.6145017" lon="15.8596683"><ele>84.0</ele><time>2026-05-03T08:32:49.483Z</time></trkpt><trkpt lat="39.6147267" lon="15.85953"><ele>84.0</ele><time>2026-05-03T08:32:50.483Z</time></trkpt><trkpt lat="39.6149517" lon="15.8593883"><ele>84.0</ele><time>2026-05-03T08:32:51.483Z</time></trkpt><trkpt lat="39.61518" lon="15.859235"><ele>82.5</ele><time>2026-05-03T08:32:52.481Z</time></trkpt><trkpt lat="39.6154017" lon="15.8590867"><ele>81.0</ele><time>2026-05-03T08:32:53.483Z</time></trkpt><trkpt lat="39.61562" lon="15.8589483"><ele>81.0</ele><time>2026-05-03T08:32:54.482Z</time></trkpt><trkpt lat="39.6158333" lon="15.8588083"><ele>81.0</ele><time>2026-05-03T08:32:55.482Z</time></trkpt><trkpt lat="39.6160383" lon="15.8586667"><ele>83.0</ele><time>2026-05-03T08:32:56.482Z</time></trkpt><trkpt lat="39.61624" lon="15.85853"><ele>85.0</ele><time>2026-05-03T08:32:57.482Z</time></trkpt><trkpt lat="39.616445" lon="15.8583917"><ele>81.0</ele><time>2026-05-03T08:32:58.482Z</time></trkpt><trkpt lat="39.61665" lon="15.8582533"><ele>77.0</ele><time>2026-05-03T08:32:59.482Z</time></trkpt><trkpt lat="39.6168533" lon="15.85813"><ele>76.66666666666667</ele><time>2026-05-03T08:33:00.482Z</time></trkpt><trkpt lat="39.617055" lon="15.8580133"><ele>76.33333333333333</ele><time>2026-05-03T08:33:01.482Z</time></trkpt><trkpt lat="39.6172617" lon="15.8579017"><ele>76.0</ele><time>2026-05-03T08:33:02.481Z</time></trkpt><trkpt lat="39.61747" lon="15.8577967"><ele>76.0</ele><time>2026-05-03T08:33:03.482Z</time></trkpt><trkpt lat="39.61769" lon="15.85771"><ele>76.0</ele><time>2026-05-03T08:33:04.482Z</time></trkpt><trkpt lat="39.61792" lon="15.8576367"><ele>72.5</ele><time>2026-05-03T08:33:05.483Z</time></trkpt><trkpt lat="39.6181533" lon="15.8575767"><ele>69.0</ele><time>2026-05-03T08:33:06.481Z</time></trkpt><trkpt lat="39.6183917" lon="15.8575317"><ele>69.0</ele><time>2026-05-03T08:33:07.481Z</time></trkpt><trkpt lat="39.6186317" lon="15.8575033"><ele>69.0</ele><time>2026-05-03T08:33:08.484Z</time></trkpt><trkpt lat="39.6188717" lon="15.8574883"><ele>67.0</ele><time>2026-05-03T08:33:09.482Z</time></trkpt><trkpt lat="39.6191083" lon="15.8574733"><ele>65.0</ele><time>2026-05-03T08:33:10.482Z</time></trkpt><trkpt lat="39.6193433" lon="15.857465"><ele>62.5</ele><time>2026-05-03T08:33:11.483Z</time></trkpt><trkpt lat="39.6195717" lon="15.8574683"><ele>60.0</ele><time>2026-05-03T08:33:12.482Z</time></trkpt><trkpt lat="39.619805" lon="15.8574667"><ele>60.0</ele><time>2026-05-03T08:33:13.482Z</time></trkpt><trkpt lat="39.6200417" lon="15.857465"><ele>60.0</ele><time>2026-05-03T08:33:14.483Z</time></trkpt><trkpt lat="39.6202867" lon="15.8574617"><ele>56.0</ele><time>2026-05-03T08:33:15.482Z</time></trkpt><trkpt lat="39.620535" lon="15.8574567"><ele>52.0</ele><time>2026-05-03T08:33:16.481Z</time></trkpt><trkpt lat="39.620775" lon="15.8574483"><ele>52.0</ele><time>2026-05-03T08:33:17.482Z</time></trkpt><trkpt lat="39.6210133" lon="15.8574417"><ele>52.0</ele><time>2026-05-03T08:33:18.483Z</time></trkpt><trkpt lat="39.62125" lon="15.8574383"><ele>48.0</ele><time>2026-05-03T08:33:19.482Z</time></trkpt><trkpt lat="39.6214867" lon="15.8574283"><ele>44.0</ele><time>2026-05-03T08:33:20.483Z</time></trkpt><trkpt lat="39.6217267" lon="15.857415"><ele>44.0</ele><time>2026-05-03T08:33:21.482Z</time></trkpt><trkpt lat="39.6219617" lon="15.8573867"><ele>44.0</ele><time>2026-05-03T08:33:22.482Z</time></trkpt><trkpt lat="39.622195" lon="15.8573283"><ele>43.5</ele><time>2026-05-03T08:33:23.482Z</time></trkpt><trkpt lat="39.6224267" lon="15.85724"><ele>43.0</ele><time>2026-05-03T08:33:24.482Z</time></trkpt><trkpt lat="39.62266" lon="15.857125"><ele>38.0</ele><time>2026-05-03T08:33:25.482Z</time></trkpt><trkpt lat="39.6228917" lon="15.8569917"><ele>33.0</ele><time>2026-05-03T08:33:26.482Z</time></trkpt><trkpt lat="39.6231183" lon="15.8568517"><ele>32.0</ele><time>2026-05-03T08:33:27.483Z</time></trkpt><trkpt lat="39.6233367" lon="15.856715"><ele>31.0</ele><time>2026-05-03T08:33:28.483Z</time></trkpt><trkpt lat="39.6235467" lon="15.8565767"><ele>34.5</ele><time>2026-05-03T08:33:29.482Z</time></trkpt><trkpt lat="39.6237467" lon="15.8564217"><ele>38.0</ele><time>2026-05-03T08:33:30.482Z</time></trkpt><trkpt lat="39.6239367" lon="15.85624"><ele>38.0</ele><time>2026-05-03T08:33:31.481Z</time></trkpt><trkpt lat="39.6241267" lon="15.856035"><ele>38.0</ele><time>2026-05-03T08:33:32.483Z</time></trkpt><trkpt lat="39.624315" lon="15.8558117"><ele>33.0</ele><time>2026-05-03T08:33:33.481Z</time></trkpt><trkpt lat="39.6245" lon="15.8555833"><ele>28.0</ele><time>2026-05-03T08:33:34.482Z</time></trkpt><trkpt lat="39.624685" lon="15.8553567"><ele>28.0</ele><time>2026-05-03T08:33:35.484Z</time></trkpt><trkpt lat="39.62486" lon="15.8551383"><ele>28.0</ele><time>2026-05-03T08:33:36.483Z</time></trkpt><trkpt lat="39.6250317" lon="15.85493"><ele>29.0</ele><time>2026-05-03T08:33:37.484Z</time></trkpt><trkpt lat="39.6252" lon="15.8547233"><ele>30.0</ele><time>2026-05-03T08:33:38.483Z</time></trkpt><trkpt lat="39.6253617" lon="15.8545183"><ele>31.666666666666664</ele><time>2026-05-03T08:33:39.482Z</time></trkpt><trkpt lat="39.6255217" lon="15.854315"><ele>33.33333333333333</ele><time>2026-05-03T08:33:40.482Z</time></trkpt><trkpt lat="39.6256817" lon="15.85411"><ele>35.0</ele><time>2026-05-03T08:33:41.483Z</time></trkpt><trkpt lat="39.6258433" lon="15.853905"><ele>39.5</ele><time>2026-05-03T08:33:42.481Z</time></trkpt><trkpt lat="39.6260083" lon="15.8537017"><ele>44.0</ele><time>2026-05-03T08:33:43.482Z</time></trkpt><trkpt lat="39.626175" lon="15.8534917"><ele>45.5</ele><time>2026-05-03T08:33:44.481Z</time></trkpt><trkpt lat="39.62634" lon="15.8532767"><ele>47.0</ele><time>2026-05-03T08:33:45.482Z</time></trkpt><trkpt lat="39.62651" lon="15.8530617"><ele>47.0</ele><time>2026-05-03T08:33:46.483Z</time></trkpt><trkpt lat="39.6266767" lon="15.8528483"><ele>47.0</ele><time>2026-05-03T08:33:47.482Z</time></trkpt><trkpt lat="39.62684" lon="15.8526317"><ele>48.0</ele><time>2026-05-03T08:33:48.482Z</time></trkpt><trkpt lat="39.6270133" lon="15.8524167"><ele>49.0</ele><time>2026-05-03T08:33:49.482Z</time></trkpt><trkpt lat="39.62719" lon="15.8521967"><ele>49.0</ele><time>2026-05-03T08:33:50.485Z</time></trkpt><trkpt lat="39.6273633" lon="15.8519783"><ele>49.0</ele><time>2026-05-03T08:33:51.482Z</time></trkpt><trkpt lat="39.6275317" lon="15.8517517"><ele>47.0</ele><time>2026-05-03T08:33:52.482Z</time></trkpt><trkpt lat="39.6276917" lon="15.851515"><ele>45.0</ele><time>2026-05-03T08:33:53.481Z</time></trkpt><trkpt lat="39.627845" lon="15.8512733"><ele>45.0</ele><time>2026-05-03T08:33:54.481Z</time></trkpt><trkpt lat="39.6279867" lon="15.85102"><ele>45.0</ele><time>2026-05-03T08:33:55.484Z</time></trkpt><trkpt lat="39.6281167" lon="15.85076"><ele>44.0</ele><time>2026-05-03T08:33:56.483Z</time></trkpt><trkpt lat="39.6282383" lon="15.85051"><ele>43.0</ele><time>2026-05-03T08:33:57.482Z</time></trkpt><trkpt lat="39.62835" lon="15.8502567"><ele>41.66666666666667</ele><time>2026-05-03T08:33:58.482Z</time></trkpt><trkpt lat="39.628455" lon="15.85"><ele>40.333333333333336</ele><time>2026-05-03T08:33:59.482Z</time></trkpt><trkpt lat="39.6285583" lon="15.8497467"><ele>39.0</ele><time>2026-05-03T08:34:00.481Z</time></trkpt><trkpt lat="39.6286617" lon="15.84949"><ele>36.666666666666664</ele><time>2026-05-03T08:34:01.48Z</time></trkpt><trkpt lat="39.6287583" lon="15.8492417"><ele>34.33333333333333</ele><time>2026-05-03T08:34:02.482Z</time></trkpt><trkpt lat="39.6288533" lon="15.8490033"><ele>32.0</ele><time>2026-05-03T08:34:03.482Z</time></trkpt><trkpt lat="39.628945" lon="15.848775"><ele>32.0</ele><time>2026-05-03T08:34:04.483Z</time></trkpt><trkpt lat="39.629035" lon="15.848555"><ele>32.0</ele><time>2026-05-03T08:34:05.482Z</time></trkpt><trkpt lat="39.6291217" lon="15.84834"><ele>32.0</ele><time>2026-05-03T08:34:06.481Z</time></trkpt><trkpt lat="39.6292083" lon="15.8481317"><ele>31.333333333333332</ele><time>2026-05-03T08:34:07.483Z</time></trkpt><trkpt lat="39.6292883" lon="15.847925"><ele>30.666666666666664</ele><time>2026-05-03T08:34:08.481Z</time></trkpt><trkpt lat="39.6293717" lon="15.8477217"><ele>30.0</ele><time>2026-05-03T08:34:09.481Z</time></trkpt><trkpt lat="39.6294533" lon="15.84752"><ele>26.666666666666668</ele><time>2026-05-03T08:34:10.482Z</time></trkpt><trkpt lat="39.6295317" lon="15.8473217"><ele>23.333333333333336</ele><time>2026-05-03T08:34:11.482Z</time></trkpt><trkpt lat="39.6296167" lon="15.84713"><ele>20.0</ele><time>2026-05-03T08:34:12.481Z</time></trkpt><trkpt lat="39.6296917" lon="15.84694"><ele>19.666666666666668</ele><time>2026-05-03T08:34:13.481Z</time></trkpt><trkpt lat="39.62976" lon="15.8467567"><ele>19.333333333333332</ele><time>2026-05-03T08:34:14.483Z</time></trkpt><trkpt lat="39.6298317" lon="15.8465667"><ele>19.0</ele><time>2026-05-03T08:34:15.482Z</time></trkpt><trkpt lat="39.6299117" lon="15.84637"><ele>19.0</ele><time>2026-05-03T08:34:16.483Z</time></trkpt><trkpt lat="39.63" lon="15.8461583"><ele>19.0</ele><time>2026-05-03T08:34:17.482Z</time></trkpt><trkpt lat="39.6300867" lon="15.8459433"><ele>19.0</ele><time>2026-05-03T08:34:18.482Z</time></trkpt><trkpt lat="39.63018" lon="15.8457333"><ele>17.666666666666664</ele><time>2026-05-03T08:34:19.483Z</time></trkpt><trkpt lat="39.6302833" lon="15.8455317"><ele>16.333333333333332</ele><time>2026-05-03T08:34:20.484Z</time></trkpt><trkpt lat="39.630405" lon="15.8453367"><ele>15.0</ele><time>2026-05-03T08:34:21.482Z</time></trkpt><trkpt lat="39.6305383" lon="15.8451533"><ele>13.666666666666666</ele><time>2026-05-03T08:34:22.483Z</time></trkpt><trkpt lat="39.6306833" lon="15.8449833"><ele>12.333333333333332</ele><time>2026-05-03T08:34:23.481Z</time></trkpt><trkpt lat="39.6308367" lon="15.844825"><ele>11.0</ele><time>2026-05-03T08:34:24.481Z</time></trkpt><trkpt lat="39.630995" lon="15.8446783"><ele>10.666666666666666</ele><time>2026-05-03T08:34:25.483Z</time></trkpt><trkpt lat="39.63116" lon="15.844555"><ele>10.333333333333334</ele><time>2026-05-03T08:34:26.483Z</time></trkpt><trkpt lat="39.631325" lon="15.8444517"><ele>10.0</ele><time>2026-05-03T08:34:27.481Z</time></trkpt><trkpt lat="39.631485" lon="15.8443667"><ele>10.0</ele><time>2026-05-03T08:34:28.481Z</time></trkpt><trkpt lat="39.6316267" lon="15.8443"><ele>10.0</ele><time>2026-05-03T08:34:29.483Z</time></trkpt><trkpt lat="39.6317467" lon="15.8442483"><ele>10.0</ele><time>2026-05-03T08:34:30.482Z</time></trkpt><trkpt lat="39.6318567" lon="15.8442"><ele>10.0</ele><time>2026-05-03T08:34:31.482Z</time></trkpt><trkpt lat="39.6319633" lon="15.84415"><ele>9.75</ele><time>2026-05-03T08:34:32.482Z</time></trkpt><trkpt lat="39.6320683" lon="15.8441017"><ele>9.5</ele><time>2026-05-03T08:34:33.483Z</time></trkpt><trkpt lat="39.63218" lon="15.8440533"><ele>9.25</ele><time>2026-05-03T08:34:34.482Z</time></trkpt><trkpt lat="39.6322983" lon="15.844005"><ele>9.0</ele><time>2026-05-03T08:34:35.482Z</time></trkpt><trkpt lat="39.63243" lon="15.8439483"><ele>9.0</ele><time>2026-05-03T08:34:36.481Z</time></trkpt><trkpt lat="39.63258" lon="15.84388"><ele>9.0</ele><time>2026-05-03T08:34:37.482Z</time></trkpt><trkpt lat="39.63274" lon="15.84382"><ele>9.0</ele><time>2026-05-03T08:34:38.484Z</time></trkpt><trkpt lat="39.632915" lon="15.8437667"><ele>9.0</ele><time>2026-05-03T08:34:39.482Z</time></trkpt><trkpt lat="39.633095" lon="15.8437217"><ele>9.0</ele><time>2026-05-03T08:34:40.482Z</time></trkpt><trkpt lat="39.6332817" lon="15.8436783"><ele>9.0</ele><time>2026-05-03T08:34:41.483Z</time></trkpt><trkpt lat="39.6334717" lon="15.8436317"><ele>10.333333333333332</ele><time>2026-05-03T08:34:42.481Z</time></trkpt><trkpt lat="39.63366" lon="15.8435817"><ele>11.666666666666666</ele><time>2026-05-03T08:34:43.483Z</time></trkpt><trkpt lat="39.6338467" lon="15.8435317"><ele>13.0</ele><time>2026-05-03T08:34:44.483Z</time></trkpt><trkpt lat="39.634035" lon="15.8434817"><ele>11.666666666666666</ele><time>2026-05-03T08:34:45.482Z</time></trkpt><trkpt lat="39.634215" lon="15.8434333"><ele>10.333333333333332</ele><time>2026-05-03T08:34:46.483Z</time></trkpt><trkpt lat="39.634385" lon="15.8433917"><ele>9.0</ele><time>2026-05-03T08:34:47.482Z</time></trkpt><trkpt lat="39.6345467" lon="15.84335"><ele>9.0</ele><time>2026-05-03T08:34:48.482Z</time></trkpt><trkpt lat="39.6346983" lon="15.84331"><ele>9.0</ele><time>2026-05-03T08:34:49.483Z</time></trkpt><trkpt lat="39.6348417" lon="15.8432667"><ele>9.0</ele><time>2026-05-03T08:34:50.482Z</time></trkpt><trkpt lat="39.63498" lon="15.8432183"><ele>9.0</ele><time>2026-05-03T08:34:51.483Z</time></trkpt><trkpt lat="39.6351233" lon="15.8431683"><ele>9.0</ele><time>2026-05-03T08:34:52.483Z</time></trkpt><trkpt lat="39.6352733" lon="15.8431217"><ele>9.0</ele><time>2026-05-03T08:34:53.482Z</time></trkpt><trkpt lat="39.6354283" lon="15.8430783"><ele>9.0</ele><time>2026-05-03T08:34:54.482Z</time></trkpt><trkpt lat="39.6355917" lon="15.843035"><ele>9.666666666666666</ele><time>2026-05-03T08:34:55.481Z</time></trkpt><trkpt lat="39.6357517" lon="15.84299"><ele>10.333333333333332</ele><time>2026-05-03T08:34:56.483Z</time></trkpt><trkpt lat="39.635915" lon="15.8429467"><ele>11.0</ele><time>2026-05-03T08:34:57.481Z</time></trkpt><trkpt lat="39.6360767" lon="15.8429033"><ele>11.333333333333332</ele><time>2026-05-03T08:34:58.483Z</time></trkpt><trkpt lat="39.6362383" lon="15.8428567"><ele>11.666666666666666</ele><time>2026-05-03T08:34:59.483Z</time></trkpt><trkpt lat="39.6363967" lon="15.84281"><ele>12.0</ele><time>2026-05-03T08:35:00.483Z</time></trkpt><trkpt lat="39.6365617" lon="15.8427683"><ele>12.0</ele><time>2026-05-03T08:35:01.483Z</time></trkpt><trkpt lat="39.6367333" lon="15.8427317"><ele>12.0</ele><time>2026-05-03T08:35:02.484Z</time></trkpt><trkpt lat="39.6369083" lon="15.8426933"><ele>12.0</ele><time>2026-05-03T08:35:03.481Z</time></trkpt><trkpt lat="39.6370817" lon="15.8426583"><ele>10.333333333333334</ele><time>2026-05-03T08:35:04.482Z</time></trkpt><trkpt lat="39.637255" lon="15.8426267"><ele>8.666666666666668</ele><time>2026-05-03T08:35:05.483Z</time></trkpt><trkpt lat="39.6374283" lon="15.8425967"><ele>7.0</ele><time>2026-05-03T08:35:06.483Z</time></trkpt><trkpt lat="39.6375967" lon="15.8425783"><ele>7.0</ele><time>2026-05-03T08:35:07.483Z</time></trkpt><trkpt lat="39.6377567" lon="15.8425667"><ele>7.0</ele><time>2026-05-03T08:35:08.482Z</time></trkpt><trkpt lat="39.63791" lon="15.842555"><ele>7.0</ele><time>2026-05-03T08:35:09.483Z</time></trkpt><trkpt lat="39.63805" lon="15.8425383"><ele>8.25</ele><time>2026-05-03T08:35:10.482Z</time></trkpt><trkpt lat="39.6381767" lon="15.842525"><ele>9.5</ele><time>2026-05-03T08:35:11.482Z</time></trkpt><trkpt lat="39.6382883" lon="15.8425083"><ele>10.75</ele><time>2026-05-03T08:35:12.483Z</time></trkpt><trkpt lat="39.6384017" lon="15.8424933"><ele>12.0</ele><time>2026-05-03T08:35:13.481Z</time></trkpt><trkpt lat="39.6385233" lon="15.842475"><ele>12.0</ele><time>2026-05-03T08:35:14.481Z</time></trkpt><trkpt lat="39.6386583" lon="15.84245"><ele>12.0</ele><time>2026-05-03T08:35:15.481Z</time></trkpt><trkpt lat="39.6388" lon="15.8424183"><ele>12.0</ele><time>2026-05-03T08:35:16.481Z</time></trkpt><trkpt lat="39.63894" lon="15.8423783"><ele>12.0</ele><time>2026-05-03T08:35:17.482Z</time></trkpt><trkpt lat="39.639075" lon="15.8423367"><ele>12.0</ele><time>2026-05-03T08:35:18.481Z</time></trkpt><trkpt lat="39.6392033" lon="15.84229"><ele>12.0</ele><time>2026-05-03T08:35:19.482Z</time></trkpt><trkpt lat="39.6393183" lon="15.8422433"><ele>12.0</ele><time>2026-05-03T08:35:20.482Z</time></trkpt><trkpt lat="39.6394183" lon="15.8422"><ele>12.0</ele><time>2026-05-03T08:35:21.481Z</time></trkpt><trkpt lat="39.6395117" lon="15.8421617"><ele>12.0</ele><time>2026-05-03T08:35:22.481Z</time></trkpt><trkpt lat="39.6395983" lon="15.8421267"><ele>12.0</ele><time>2026-05-03T08:35:23.481Z</time></trkpt><trkpt lat="39.6396767" lon="15.8420967"><ele>12.0</ele><time>2026-05-03T08:35:24.482Z</time></trkpt><trkpt lat="39.639755" lon="15.8420633"><ele>12.0</ele><time>2026-05-03T08:35:25.482Z</time></trkpt><trkpt lat="39.6398333" lon="15.8420217"><ele>12.0</ele><time>2026-05-03T08:35:26.481Z</time></trkpt><trkpt lat="39.6399217" lon="15.8419717"><ele>12.0</ele><time>2026-05-03T08:35:27.482Z</time></trkpt><trkpt lat="39.6400233" lon="15.8419183"><ele>12.0</ele><time>2026-05-03T08:35:28.483Z</time></trkpt><trkpt lat="39.64013" lon="15.8418633"><ele>12.0</ele><time>2026-05-03T08:35:29.482Z</time></trkpt><trkpt lat="39.64024" lon="15.84181"><ele>12.0</ele><time>2026-05-03T08:35:30.483Z</time></trkpt><trkpt lat="39.6403517" lon="15.8417583"><ele>12.0</ele><time>2026-05-03T08:35:31.482Z</time></trkpt><trkpt lat="39.6404633" lon="15.8417033"><ele>11.5</ele><time>2026-05-03T08:35:32.483Z</time></trkpt><trkpt lat="39.6405783" lon="15.8416467"><ele>11.0</ele><time>2026-05-03T08:35:33.484Z</time></trkpt><trkpt lat="39.6406917" lon="15.841595"><ele>10.5</ele><time>2026-05-03T08:35:34.482Z</time></trkpt><trkpt lat="39.6408083" lon="15.84154"><ele>10.0</ele><time>2026-05-03T08:35:35.483Z</time></trkpt><trkpt lat="39.6409317" lon="15.841485"><ele>10.0</ele><time>2026-05-03T08:35:36.483Z</time></trkpt><trkpt lat="39.6410567" lon="15.8414283"><ele>10.0</ele><time>2026-05-03T08:35:37.482Z</time></trkpt><trkpt lat="39.64119" lon="15.84137"><ele>10.0</ele><time>2026-05-03T08:35:38.483Z</time></trkpt><trkpt lat="39.6413317" lon="15.8413067"><ele>10.0</ele><time>2026-05-03T08:35:39.481Z</time></trkpt><trkpt lat="39.6414817" lon="15.8412333"><ele>11.0</ele><time>2026-05-03T08:35:40.482Z</time></trkpt><trkpt lat="39.6416417" lon="15.8411583"><ele>12.0</ele><time>2026-05-03T08:35:41.483Z</time></trkpt><trkpt lat="39.6418" lon="15.8410833"><ele>13.0</ele><time>2026-05-03T08:35:42.482Z</time></trkpt><trkpt lat="39.6419583" lon="15.8410133"><ele>13.333333333333332</ele><time>2026-05-03T08:35:43.481Z</time></trkpt><trkpt lat="39.64211" lon="15.8409467"><ele>13.666666666666668</ele><time>2026-05-03T08:35:44.482Z</time></trkpt><trkpt lat="39.642255" lon="15.84088"><ele>14.0</ele><time>2026-05-03T08:35:45.481Z</time></trkpt><trkpt lat="39.642395" lon="15.84081"><ele>14.0</ele><time>2026-05-03T08:35:46.48Z</time></trkpt><trkpt lat="39.642535" lon="15.8407417"><ele>14.0</ele><time>2026-05-03T08:35:47.482Z</time></trkpt><trkpt lat="39.642675" lon="15.840675"><ele>14.0</ele><time>2026-05-03T08:35:48.481Z</time></trkpt><trkpt lat="39.6428167" lon="15.840615"><ele>14.0</ele><time>2026-05-03T08:35:49.482Z</time></trkpt><trkpt lat="39.64296" lon="15.8405583"><ele>14.5</ele><time>2026-05-03T08:35:50.482Z</time></trkpt><trkpt lat="39.6430983" lon="15.840505"><ele>15.0</ele><time>2026-05-03T08:35:51.48Z</time></trkpt><trkpt lat="39.6432283" lon="15.8404533"><ele>15.5</ele><time>2026-05-03T08:35:52.482Z</time></trkpt><trkpt lat="39.6433517" lon="15.8404067"><ele>16.0</ele><time>2026-05-03T08:35:53.481Z</time></trkpt><trkpt lat="39.6434717" lon="15.8403667"><ele>16.0</ele><time>2026-05-03T08:35:54.481Z</time></trkpt><trkpt lat="39.6435833" lon="15.8403367"><ele>16.0</ele><time>2026-05-03T08:35:55.482Z</time></trkpt><trkpt lat="39.6436967" lon="15.8403083"><ele>16.0</ele><time>2026-05-03T08:35:56.481Z</time></trkpt><trkpt lat="39.643815" lon="15.8402783"><ele>16.0</ele><time>2026-05-03T08:35:57.482Z</time></trkpt><trkpt lat="39.6439383" lon="15.84025"><ele>16.25</ele><time>2026-05-03T08:35:58.48Z</time></trkpt><trkpt lat="39.64407" lon="15.8402217"><ele>16.5</ele><time>2026-05-03T08:35:59.482Z</time></trkpt><trkpt lat="39.6442133" lon="15.8401983"><ele>16.75</ele><time>2026-05-03T08:36:00.481Z</time></trkpt><trkpt lat="39.6443617" lon="15.840175"><ele>17.0</ele><time>2026-05-03T08:36:01.482Z</time></trkpt><trkpt lat="39.64451" lon="15.8401517"><ele>15.333333333333334</ele><time>2026-05-03T08:36:02.481Z</time></trkpt><trkpt lat="39.6446633" lon="15.8401283"><ele>13.666666666666668</ele><time>2026-05-03T08:36:03.481Z</time></trkpt><trkpt lat="39.6448217" lon="15.840105"><ele>12.0</ele><time>2026-05-03T08:36:04.48Z</time></trkpt><trkpt lat="39.644985" lon="15.8400833"><ele>12.0</ele><time>2026-05-03T08:36:05.482Z</time></trkpt><trkpt lat="39.645155" lon="15.84006"><ele>12.0</ele><time>2026-05-03T08:36:06.481Z</time></trkpt><trkpt lat="39.6453283" lon="15.8400383"><ele>12.0</ele><time>2026-05-03T08:36:07.482Z</time></trkpt><trkpt lat="39.6455017" lon="15.8400183"><ele>11.666666666666666</ele><time>2026-05-03T08:36:08.483Z</time></trkpt><trkpt lat="39.6456733" lon="15.8399983"><ele>11.333333333333332</ele><time>2026-05-03T08:36:09.48Z</time></trkpt><trkpt lat="39.64584" lon="15.8399767"><ele>11.0</ele><time>2026-05-03T08:36:10.481Z</time></trkpt><trkpt lat="39.6460067" lon="15.8399567"><ele>12.333333333333332</ele><time>2026-05-03T08:36:11.482Z</time></trkpt><trkpt lat="39.6461667" lon="15.8399417"><ele>13.666666666666666</ele><time>2026-05-03T08:36:12.482Z</time></trkpt><trkpt lat="39.6463183" lon="15.8399317"><ele>15.0</ele><time>2026-05-03T08:36:13.483Z</time></trkpt><trkpt lat="39.6464733" lon="15.8399217"><ele>15.0</ele><time>2026-05-03T08:36:14.481Z</time></trkpt><trkpt lat="39.6466383" lon="15.8399133"><ele>15.0</ele><time>2026-05-03T08:36:15.482Z</time></trkpt><trkpt lat="39.6468183" lon="15.83991"><ele>15.0</ele><time>2026-05-03T08:36:16.482Z</time></trkpt><trkpt lat="39.64702" lon="15.8399083"><ele>13.666666666666666</ele><time>2026-05-03T08:36:17.483Z</time></trkpt><trkpt lat="39.64723" lon="15.8399117"><ele>12.333333333333332</ele><time>2026-05-03T08:36:18.482Z</time></trkpt><trkpt lat="39.6474517" lon="15.8399267"><ele>11.0</ele><time>2026-05-03T08:36:19.481Z</time></trkpt><trkpt lat="39.647675" lon="15.8399433"><ele>11.333333333333332</ele><time>2026-05-03T08:36:20.482Z</time></trkpt><trkpt lat="39.6478933" lon="15.8399483"><ele>11.666666666666666</ele><time>2026-05-03T08:36:21.482Z</time></trkpt><trkpt lat="39.6481067" lon="15.83995"><ele>12.0</ele><time>2026-05-03T08:36:22.482Z</time></trkpt><trkpt lat="39.64831" lon="15.8399533"><ele>12.0</ele><time>2026-05-03T08:36:23.483Z</time></trkpt><trkpt lat="39.6485033" lon="15.839955"><ele>12.0</ele><time>2026-05-03T08:36:24.482Z</time></trkpt><trkpt lat="39.6486833" lon="15.8399617"><ele>12.0</ele><time>2026-05-03T08:36:25.483Z</time></trkpt><trkpt lat="39.6488533" lon="15.839965"><ele>12.0</ele><time>2026-05-03T08:36:26.482Z</time></trkpt><trkpt lat="39.6490083" lon="15.8399667"><ele>12.0</ele><time>2026-05-03T08:36:27.481Z</time></trkpt><trkpt lat="39.6491433" lon="15.839965"><ele>12.0</ele><time>2026-05-03T08:36:28.481Z</time></trkpt><trkpt lat="39.649265" lon="15.8399683"><ele>12.0</ele><time>2026-05-03T08:36:29.481Z</time></trkpt><trkpt lat="39.649375" lon="15.8399733"><ele>12.5</ele><time>2026-05-03T08:36:30.481Z</time></trkpt><trkpt lat="39.6494817" lon="15.8399767"><ele>13.0</ele><time>2026-05-03T08:36:31.482Z</time></trkpt><trkpt lat="39.649595" lon="15.8399733"><ele>13.5</ele><time>2026-05-03T08:36:32.481Z</time></trkpt><trkpt lat="39.649725" lon="15.8399667"><ele>14.0</ele><time>2026-05-03T08:36:33.482Z</time></trkpt><trkpt lat="39.649875" lon="15.8399583"><ele>14.0</ele><time>2026-05-03T08:36:34.481Z</time></trkpt><trkpt lat="39.650045" lon="15.8399617"><ele>14.0</ele><time>2026-05-03T08:36:35.482Z</time></trkpt><trkpt lat="39.650225" lon="15.839965"><ele>14.0</ele><time>2026-05-03T08:36:36.484Z</time></trkpt><trkpt lat="39.6504133" lon="15.839965"><ele>14.0</ele><time>2026-05-03T08:36:37.482Z</time></trkpt><trkpt lat="39.65061" lon="15.8399617"><ele>14.0</ele><time>2026-05-03T08:36:38.482Z</time></trkpt><trkpt lat="39.6508117" lon="15.83995"><ele>14.0</ele><time>2026-05-03T08:36:39.481Z</time></trkpt><trkpt lat="39.6510167" lon="15.8399167"><ele>16.0</ele><time>2026-05-03T08:36:40.481Z</time></trkpt><trkpt lat="39.6512217" lon="15.83987"><ele>18.0</ele><time>2026-05-03T08:36:41.48Z</time></trkpt><trkpt lat="39.6514283" lon="15.83981"><ele>20.0</ele><time>2026-05-03T08:36:42.482Z</time></trkpt><trkpt lat="39.6516383" lon="15.8397383"><ele>20.0</ele><time>2026-05-03T08:36:43.482Z</time></trkpt><trkpt lat="39.6518467" lon="15.8396533"><ele>20.0</ele><time>2026-05-03T08:36:44.482Z</time></trkpt><trkpt lat="39.6520533" lon="15.8395567"><ele>20.0</ele><time>2026-05-03T08:36:45.481Z</time></trkpt><trkpt lat="39.65226" lon="15.8394417"><ele>21.0</ele><time>2026-05-03T08:36:46.482Z</time></trkpt><trkpt lat="39.652465" lon="15.8393117"><ele>22.0</ele><time>2026-05-03T08:36:47.482Z</time></trkpt><trkpt lat="39.65266" lon="15.8391667"><ele>20.0</ele><time>2026-05-03T08:36:48.483Z</time></trkpt><trkpt lat="39.6528433" lon="15.839005"><ele>18.0</ele><time>2026-05-03T08:36:49.481Z</time></trkpt><trkpt lat="39.65302" lon="15.8388367"><ele>16.0</ele><time>2026-05-03T08:36:50.483Z</time></trkpt><trkpt lat="39.6531867" lon="15.8386717"><ele>16.0</ele><time>2026-05-03T08:36:51.482Z</time></trkpt><trkpt lat="39.6533483" lon="15.83851"><ele>16.0</ele><time>2026-05-03T08:36:52.481Z</time></trkpt><trkpt lat="39.6535033" lon="15.838355"><ele>16.0</ele><time>2026-05-03T08:36:53.482Z</time></trkpt><trkpt lat="39.6536583" lon="15.8382067"><ele>17.0</ele><time>2026-05-03T08:36:54.481Z</time></trkpt><trkpt lat="39.6538133" lon="15.8380583"><ele>18.0</ele><time>2026-05-03T08:36:55.482Z</time></trkpt><trkpt lat="39.6539617" lon="15.83791"><ele>19.0</ele><time>2026-05-03T08:36:56.482Z</time></trkpt><trkpt lat="39.654105" lon="15.8377617"><ele>21.333333333333332</ele><time>2026-05-03T08:36:57.481Z</time></trkpt><trkpt lat="39.6542467" lon="15.83761"><ele>23.666666666666664</ele><time>2026-05-03T08:36:58.482Z</time></trkpt><trkpt lat="39.6543933" lon="15.8374633"><ele>26.0</ele><time>2026-05-03T08:36:59.482Z</time></trkpt><trkpt lat="39.6545417" lon="15.8373183"><ele>26.0</ele><time>2026-05-03T08:37:00.482Z</time></trkpt><trkpt lat="39.6546917" lon="15.8371717"><ele>26.0</ele><time>2026-05-03T08:37:01.482Z</time></trkpt><trkpt lat="39.654845" lon="15.8370317"><ele>26.0</ele><time>2026-05-03T08:37:02.483Z</time></trkpt><trkpt lat="39.65501" lon="15.8369017"><ele>24.333333333333332</ele><time>2026-05-03T08:37:03.48Z</time></trkpt><trkpt lat="39.6551883" lon="15.83678"><ele>22.666666666666664</ele><time>2026-05-03T08:37:04.481Z</time></trkpt><trkpt lat="39.6553767" lon="15.8366633"><ele>21.0</ele><time>2026-05-03T08:37:05.482Z</time></trkpt><trkpt lat="39.655575" lon="15.8365533"><ele>21.0</ele><time>2026-05-03T08:37:06.48Z</time></trkpt><trkpt lat="39.6557783" lon="15.8364433"><ele>21.0</ele><time>2026-05-03T08:37:07.481Z</time></trkpt><trkpt lat="39.65599" lon="15.8363417"><ele>21.0</ele><time>2026-05-03T08:37:08.482Z</time></trkpt><trkpt lat="39.6562117" lon="15.8362483"><ele>24.5</ele><time>2026-05-03T08:37:09.481Z</time></trkpt><trkpt lat="39.6564383" lon="15.8361633"><ele>28.0</ele><time>2026-05-03T08:37:10.481Z</time></trkpt><trkpt lat="39.65667" lon="15.8360867"><ele>28.0</ele><time>2026-05-03T08:37:11.481Z</time></trkpt><trkpt lat="39.6569033" lon="15.8360267"><ele>28.0</ele><time>2026-05-03T08:37:12.482Z</time></trkpt><trkpt lat="39.6571383" lon="15.8359967"><ele>29.5</ele><time>2026-05-03T08:37:13.482Z</time></trkpt><trkpt lat="39.65737" lon="15.8359917"><ele>31.0</ele><time>2026-05-03T08:37:14.482Z</time></trkpt><trkpt lat="39.6575967" lon="15.8360017"><ele>28.333333333333336</ele><time>2026-05-03T08:37:15.482Z</time></trkpt><trkpt lat="39.6578133" lon="15.836015"><ele>25.666666666666668</ele><time>2026-05-03T08:37:16.48Z</time></trkpt><trkpt lat="39.6580183" lon="15.8360217"><ele>23.0</ele><time>2026-05-03T08:37:17.482Z</time></trkpt><trkpt lat="39.65822" lon="15.83603"><ele>23.0</ele><time>2026-05-03T08:37:18.482Z</time></trkpt><trkpt lat="39.6584183" lon="15.8360367"><ele>23.0</ele><time>2026-05-03T08:37:19.482Z</time></trkpt><trkpt lat="39.6586183" lon="15.836045"><ele>23.0</ele><time>2026-05-03T08:37:20.482Z</time></trkpt><trkpt lat="39.6588167" lon="15.8360533"><ele>21.0</ele><time>2026-05-03T08:37:21.482Z</time></trkpt><trkpt lat="39.6590083" lon="15.8360617"><ele>19.0</ele><time>2026-05-03T08:37:22.48Z</time></trkpt><trkpt lat="39.6591967" lon="15.8360683"><ele>17.0</ele><time>2026-05-03T08:37:23.482Z</time></trkpt><trkpt lat="39.6593817" lon="15.836075"><ele>16.333333333333336</ele><time>2026-05-03T08:37:24.482Z</time></trkpt><trkpt lat="39.6595633" lon="15.8360833"><ele>15.666666666666668</ele><time>2026-05-03T08:37:25.482Z</time></trkpt><trkpt lat="39.6597467" lon="15.8360933"><ele>15.0</ele><time>2026-05-03T08:37:26.481Z</time></trkpt><trkpt lat="39.6599283" lon="15.8361017"><ele>15.0</ele><time>2026-05-03T08:37:27.481Z</time></trkpt><trkpt lat="39.6601133" lon="15.8361117"><ele>15.0</ele><time>2026-05-03T08:37:28.48Z</time></trkpt><trkpt lat="39.6603033" lon="15.8361183"><ele>15.0</ele><time>2026-05-03T08:37:29.481Z</time></trkpt><trkpt lat="39.660495" lon="15.836125"><ele>17.0</ele><time>2026-05-03T08:37:30.482Z</time></trkpt><trkpt lat="39.66069" lon="15.83613"><ele>19.0</ele><time>2026-05-03T08:37:31.481Z</time></trkpt><trkpt lat="39.6608833" lon="15.8361367"><ele>21.0</ele><time>2026-05-03T08:37:32.482Z</time></trkpt><trkpt lat="39.6610767" lon="15.8361433"><ele>23.0</ele><time>2026-05-03T08:37:33.482Z</time></trkpt><trkpt lat="39.6612683" lon="15.83615"><ele>25.0</ele><time>2026-05-03T08:37:34.482Z</time></trkpt><trkpt lat="39.6614583" lon="15.836155"><ele>27.0</ele><time>2026-05-03T08:37:35.483Z</time></trkpt><trkpt lat="39.66165" lon="15.8361583"><ele>27.0</ele><time>2026-05-03T08:37:36.482Z</time></trkpt><trkpt lat="39.6618433" lon="15.836165"><ele>27.0</ele><time>2026-05-03T08:37:37.483Z</time></trkpt><trkpt lat="39.6620383" lon="15.8361683"><ele>27.0</ele><time>2026-05-03T08:37:38.482Z</time></trkpt><trkpt lat="39.6622333" lon="15.8361617"><ele>24.666666666666668</ele><time>2026-05-03T08:37:39.481Z</time></trkpt><trkpt lat="39.6624317" lon="15.83614"><ele>22.333333333333336</ele><time>2026-05-03T08:37:40.481Z</time></trkpt><trkpt lat="39.66263" lon="15.8361017"><ele>20.0</ele><time>2026-05-03T08:37:41.482Z</time></trkpt><trkpt lat="39.6628267" lon="15.8360433"><ele>19.0</ele><time>2026-05-03T08:37:42.482Z</time></trkpt><trkpt lat="39.66302" lon="15.83597"><ele>18.0</ele><time>2026-05-03T08:37:43.481Z</time></trkpt><trkpt lat="39.6632067" lon="15.8358767"><ele>17.0</ele><time>2026-05-03T08:37:44.481Z</time></trkpt><trkpt lat="39.6633933" lon="15.835765"><ele>17.0</ele><time>2026-05-03T08:37:45.482Z</time></trkpt><trkpt lat="39.6635717" lon="15.8356383"><ele>17.0</ele><time>2026-05-03T08:37:46.48Z</time></trkpt><trkpt lat="39.6637467" lon="15.8354933"><ele>17.0</ele><time>2026-05-03T08:37:47.482Z</time></trkpt><trkpt lat="39.6639217" lon="15.8353417"><ele>16.666666666666668</ele><time>2026-05-03T08:37:48.482Z</time></trkpt><trkpt lat="39.664105" lon="15.8351967"><ele>16.333333333333332</ele><time>2026-05-03T08:37:49.483Z</time></trkpt><trkpt lat="39.6642883" lon="15.8350517"><ele>16.0</ele><time>2026-05-03T08:37:50.482Z</time></trkpt><trkpt lat="39.6644733" lon="15.834905"><ele>16.0</ele><time>2026-05-03T08:37:51.482Z</time></trkpt><trkpt lat="39.6646583" lon="15.834755"><ele>16.0</ele><time>2026-05-03T08:37:52.481Z</time></trkpt><trkpt lat="39.664845" lon="15.834605"><ele>16.0</ele><time>2026-05-03T08:37:53.48Z</time></trkpt><trkpt lat="39.66503" lon="15.8344567"><ele>16.0</ele><time>2026-05-03T08:37:54.482Z</time></trkpt><trkpt lat="39.66521" lon="15.8343167"><ele>16.0</ele><time>2026-05-03T08:37:55.482Z</time></trkpt><trkpt lat="39.665385" lon="15.8341833"><ele>16.0</ele><time>2026-05-03T08:37:56.482Z</time></trkpt><trkpt lat="39.6655583" lon="15.83405"><ele>20.666666666666664</ele><time>2026-05-03T08:37:57.481Z</time></trkpt><trkpt lat="39.66574" lon="15.8339233"><ele>25.333333333333332</ele><time>2026-05-03T08:37:58.482Z</time></trkpt><trkpt lat="39.6659233" lon="15.8338083"><ele>30.0</ele><time>2026-05-03T08:37:59.482Z</time></trkpt><trkpt lat="39.66612" lon="15.833715"><ele>37.66666666666667</ele><time>2026-05-03T08:38:00.481Z</time></trkpt><trkpt lat="39.66632" lon="15.8336333"><ele>45.333333333333336</ele><time>2026-05-03T08:38:01.483Z</time></trkpt><trkpt lat="39.6665283" lon="15.8335667"><ele>53.0</ele><time>2026-05-03T08:38:02.482Z</time></trkpt><trkpt lat="39.6667433" lon="15.8335017"><ele>41.0</ele><time>2026-05-03T08:38:03.481Z</time></trkpt><trkpt lat="39.666965" lon="15.833445"><ele>29.0</ele><time>2026-05-03T08:38:04.481Z</time></trkpt><trkpt lat="39.6671867" lon="15.833385"><ele>29.0</ele><time>2026-05-03T08:38:05.481Z</time></trkpt><trkpt lat="39.6674033" lon="15.8333167"><ele>29.0</ele><time>2026-05-03T08:38:06.481Z</time></trkpt><trkpt lat="39.6676117" lon="15.8332467"><ele>29.0</ele><time>2026-05-03T08:38:07.481Z</time></trkpt><trkpt lat="39.6678083" lon="15.833185"><ele>28.666666666666664</ele><time>2026-05-03T08:38:08.481Z</time></trkpt><trkpt lat="39.6679983" lon="15.8331333"><ele>28.333333333333336</ele><time>2026-05-03T08:38:09.482Z</time></trkpt><trkpt lat="39.66818" lon="15.8330767"><ele>28.0</ele><time>2026-05-03T08:38:10.481Z</time></trkpt><trkpt lat="39.6683633" lon="15.8330117"><ele>28.0</ele><time>2026-05-03T08:38:11.482Z</time></trkpt><trkpt lat="39.6685467" lon="15.8329433"><ele>28.0</ele><time>2026-05-03T08:38:12.481Z</time></trkpt><trkpt lat="39.6687333" lon="15.8328633"><ele>28.0</ele><time>2026-05-03T08:38:13.481Z</time></trkpt><trkpt lat="39.6689183" lon="15.8327667"><ele>27.333333333333336</ele><time>2026-05-03T08:38:14.481Z</time></trkpt><trkpt lat="39.6691017" lon="15.8326517"><ele>26.666666666666664</ele><time>2026-05-03T08:38:15.481Z</time></trkpt><trkpt lat="39.66928" lon="15.8325167"><ele>26.0</ele><time>2026-05-03T08:38:16.481Z</time></trkpt><trkpt lat="39.669455" lon="15.8323683"><ele>28.666666666666664</ele><time>2026-05-03T08:38:17.482Z</time></trkpt><trkpt lat="39.6696267" lon="15.8322083"><ele>31.333333333333336</ele><time>2026-05-03T08:38:18.482Z</time></trkpt><trkpt lat="39.6697933" lon="15.832045"><ele>34.0</ele><time>2026-05-03T08:38:19.481Z</time></trkpt><trkpt lat="39.6699633" lon="15.8318817"><ele>34.0</ele><time>2026-05-03T08:38:20.482Z</time></trkpt><trkpt lat="39.6701333" lon="15.83172"><ele>34.0</ele><time>2026-05-03T08:38:21.481Z</time></trkpt><trkpt lat="39.6703" lon="15.8315583"><ele>34.0</ele><time>2026-05-03T08:38:22.481Z</time></trkpt><trkpt lat="39.6704633" lon="15.8314033"><ele>34.0</ele><time>2026-05-03T08:38:23.482Z</time></trkpt><trkpt lat="39.6706183" lon="15.831255"><ele>34.0</ele><time>2026-05-03T08:38:24.482Z</time></trkpt><trkpt lat="39.67077" lon="15.83111"><ele>34.0</ele><time>2026-05-03T08:38:25.482Z</time></trkpt><trkpt lat="39.6709217" lon="15.8309667"><ele>36.0</ele><time>2026-05-03T08:38:26.482Z</time></trkpt><trkpt lat="39.6710783" lon="15.830825"><ele>38.0</ele><time>2026-05-03T08:38:27.481Z</time></trkpt><trkpt lat="39.6712333" lon="15.8306783"><ele>40.0</ele><time>2026-05-03T08:38:28.482Z</time></trkpt><trkpt lat="39.6713933" lon="15.8305283"><ele>40.0</ele><time>2026-05-03T08:38:29.482Z</time></trkpt><trkpt lat="39.6715583" lon="15.830375"><ele>40.0</ele><time>2026-05-03T08:38:30.481Z</time></trkpt><trkpt lat="39.6717317" lon="15.8302267"><ele>40.0</ele><time>2026-05-03T08:38:31.482Z</time></trkpt><trkpt lat="39.67191" lon="15.83009"><ele>40.0</ele><time>2026-05-03T08:38:32.482Z</time></trkpt><trkpt lat="39.672095" lon="15.8299733"><ele>40.0</ele><time>2026-05-03T08:38:33.481Z</time></trkpt><trkpt lat="39.6722867" lon="15.8298717"><ele>40.0</ele><time>2026-05-03T08:38:34.482Z</time></trkpt><trkpt lat="39.6724867" lon="15.8297833"><ele>40.0</ele><time>2026-05-03T08:38:35.482Z</time></trkpt><trkpt lat="39.67269" lon="15.829705"><ele>40.0</ele><time>2026-05-03T08:38:36.482Z</time></trkpt><trkpt lat="39.672895" lon="15.82963"><ele>40.0</ele><time>2026-05-03T08:38:37.481Z</time></trkpt><trkpt lat="39.6731033" lon="15.8295533"><ele>39.0</ele><time>2026-05-03T08:38:38.482Z</time></trkpt><trkpt lat="39.67331" lon="15.8294733"><ele>38.0</ele><time>2026-05-03T08:38:39.48Z</time></trkpt><trkpt lat="39.6735067" lon="15.8293867"><ele>37.0</ele><time>2026-05-03T08:38:40.484Z</time></trkpt><trkpt lat="39.6736867" lon="15.8292933"><ele>35.66666666666667</ele><time>2026-05-03T08:38:41.482Z</time></trkpt><trkpt lat="39.6738533" lon="15.8291917"><ele>34.333333333333336</ele><time>2026-05-03T08:38:42.482Z</time></trkpt><trkpt lat="39.6740067" lon="15.829085"><ele>33.0</ele><time>2026-05-03T08:38:43.482Z</time></trkpt><trkpt lat="39.6741517" lon="15.828965"><ele>33.0</ele><time>2026-05-03T08:38:44.482Z</time></trkpt><trkpt lat="39.6742917" lon="15.82883"><ele>33.0</ele><time>2026-05-03T08:38:45.481Z</time></trkpt><trkpt lat="39.674425" lon="15.8286817"><ele>33.0</ele><time>2026-05-03T08:38:46.481Z</time></trkpt><trkpt lat="39.6745533" lon="15.8285217"><ele>33.333333333333336</ele><time>2026-05-03T08:38:47.481Z</time></trkpt><trkpt lat="39.674675" lon="15.8283583"><ele>33.66666666666667</ele><time>2026-05-03T08:38:48.48Z</time></trkpt><trkpt lat="39.6747917" lon="15.828195"><ele>34.0</ele><time>2026-05-03T08:38:49.481Z</time></trkpt><trkpt lat="39.6749083" lon="15.8280317"><ele>34.0</ele><time>2026-05-03T08:38:50.482Z</time></trkpt><trkpt lat="39.6750283" lon="15.8278667"><ele>34.0</ele><time>2026-05-03T08:38:51.481Z</time></trkpt><trkpt lat="39.6751433" lon="15.827705"><ele>34.0</ele><time>2026-05-03T08:38:52.481Z</time></trkpt><trkpt lat="39.67526" lon="15.8275467"><ele>34.0</ele><time>2026-05-03T08:38:53.482Z</time></trkpt><trkpt lat="39.675375" lon="15.8273833"><ele>34.0</ele><time>2026-05-03T08:38:54.481Z</time></trkpt><trkpt lat="39.6754883" lon="15.8272167"><ele>34.0</ele><time>2026-05-03T08:38:55.481Z</time></trkpt><trkpt lat="39.6756" lon="15.8270567"><ele>34.0</ele><time>2026-05-03T08:38:56.481Z</time></trkpt><trkpt lat="39.6757067" lon="15.8269033"><ele>34.0</ele><time>2026-05-03T08:38:57.482Z</time></trkpt><trkpt lat="39.67581" lon="15.8267517"><ele>34.0</ele><time>2026-05-03T08:38:58.481Z</time></trkpt><trkpt lat="39.6759167" lon="15.8265983"><ele>31.666666666666668</ele><time>2026-05-03T08:38:59.48Z</time></trkpt><trkpt lat="39.6760283" lon="15.82644"><ele>29.333333333333336</ele><time>2026-05-03T08:39:00.481Z</time></trkpt><trkpt lat="39.6761433" lon="15.8262717"><ele>27.0</ele><time>2026-05-03T08:39:01.482Z</time></trkpt><trkpt lat="39.676265" lon="15.826095"><ele>26.0</ele><time>2026-05-03T08:39:02.481Z</time></trkpt><trkpt lat="39.6763867" lon="15.8259167"><ele>25.0</ele><time>2026-05-03T08:39:03.481Z</time></trkpt><trkpt lat="39.6765067" lon="15.8257417"><ele>24.0</ele><time>2026-05-03T08:39:04.482Z</time></trkpt><trkpt lat="39.6766317" lon="15.8255683"><ele>24.0</ele><time>2026-05-03T08:39:05.481Z</time></trkpt><trkpt lat="39.676755" lon="15.8253867"><ele>24.0</ele><time>2026-05-03T08:39:06.48Z</time></trkpt><trkpt lat="39.67688" lon="15.8252017"><ele>24.0</ele><time>2026-05-03T08:39:07.481Z</time></trkpt><trkpt lat="39.6770067" lon="15.8250167"><ele>25.0</ele><time>2026-05-03T08:39:08.482Z</time></trkpt><trkpt lat="39.6771317" lon="15.82483"><ele>26.0</ele><time>2026-05-03T08:39:09.481Z</time></trkpt><trkpt lat="39.6772567" lon="15.8246467"><ele>27.0</ele><time>2026-05-03T08:39:10.482Z</time></trkpt><trkpt lat="39.6773833" lon="15.8244617"><ele>26.666666666666664</ele><time>2026-05-03T08:39:11.483Z</time></trkpt><trkpt lat="39.67751" lon="15.82427"><ele>26.333333333333332</ele><time>2026-05-03T08:39:12.482Z</time></trkpt><trkpt lat="39.67764" lon="15.8240767"><ele>26.0</ele><time>2026-05-03T08:39:13.482Z</time></trkpt><trkpt lat="39.6777667" lon="15.8239017"><ele>28.0</ele><time>2026-05-03T08:39:14.482Z</time></trkpt><trkpt lat="39.6778867" lon="15.8237533"><ele>30.0</ele><time>2026-05-03T08:39:15.482Z</time></trkpt><trkpt lat="39.678" lon="15.823625"><ele>32.0</ele><time>2026-05-03T08:39:16.482Z</time></trkpt><trkpt lat="39.6781133" lon="15.823505"><ele>30.5</ele><time>2026-05-03T08:39:17.482Z</time></trkpt><trkpt lat="39.6782267" lon="15.8233883"><ele>29.0</ele><time>2026-05-03T08:39:18.482Z</time></trkpt><trkpt lat="39.678345" lon="15.8232733"><ele>27.5</ele><time>2026-05-03T08:39:19.482Z</time></trkpt><trkpt lat="39.6784617" lon="15.82316"><ele>26.0</ele><time>2026-05-03T08:39:20.482Z</time></trkpt><trkpt lat="39.6785833" lon="15.8230417"><ele>25.0</ele><time>2026-05-03T08:39:21.482Z</time></trkpt><trkpt lat="39.6787133" lon="15.8229183"><ele>24.0</ele><time>2026-05-03T08:39:22.483Z</time></trkpt><trkpt lat="39.67885" lon="15.8227867"><ele>23.0</ele><time>2026-05-03T08:39:23.483Z</time></trkpt><trkpt lat="39.678995" lon="15.8226483"><ele>23.0</ele><time>2026-05-03T08:39:24.481Z</time></trkpt><trkpt lat="39.6791467" lon="15.8225083"><ele>23.0</ele><time>2026-05-03T08:39:25.483Z</time></trkpt><trkpt lat="39.67931" lon="15.8223667"><ele>23.0</ele><time>2026-05-03T08:39:26.483Z</time></trkpt><trkpt lat="39.6794733" lon="15.8222233"><ele>23.0</ele><time>2026-05-03T08:39:27.482Z</time></trkpt><trkpt lat="39.67963" lon="15.8220817"><ele>23.0</ele><time>2026-05-03T08:39:28.482Z</time></trkpt><trkpt lat="39.6797783" lon="15.821945"><ele>23.0</ele><time>2026-05-03T08:39:29.482Z</time></trkpt><trkpt lat="39.679915" lon="15.8218167"><ele>23.0</ele><time>2026-05-03T08:39:30.483Z</time></trkpt><trkpt lat="39.68005" lon="15.8216967"><ele>23.0</ele><time>2026-05-03T08:39:31.483Z</time></trkpt><trkpt lat="39.6801867" lon="15.8215717"><ele>23.0</ele><time>2026-05-03T08:39:32.483Z</time></trkpt><trkpt lat="39.6803283" lon="15.821445"><ele>29.666666666666668</ele><time>2026-05-03T08:39:33.482Z</time></trkpt><trkpt lat="39.6804717" lon="15.8213217"><ele>36.333333333333336</ele><time>2026-05-03T08:39:34.481Z</time></trkpt><trkpt lat="39.680625" lon="15.821205"><ele>43.0</ele><time>2026-05-03T08:39:35.481Z</time></trkpt><trkpt lat="39.680785" lon="15.8210933"><ele>43.0</ele><time>2026-05-03T08:39:36.482Z</time></trkpt><trkpt lat="39.6809567" lon="15.8209883"><ele>43.0</ele><time>2026-05-03T08:39:37.481Z</time></trkpt><trkpt lat="39.6811267" lon="15.8208967"><ele>43.0</ele><time>2026-05-03T08:39:38.481Z</time></trkpt><trkpt lat="39.681295" lon="15.8208167"><ele>39.333333333333336</ele><time>2026-05-03T08:39:39.482Z</time></trkpt><trkpt lat="39.68146" lon="15.8207467"><ele>35.666666666666664</ele><time>2026-05-03T08:39:40.482Z</time></trkpt><trkpt lat="39.681635" lon="15.820685"><ele>32.0</ele><time>2026-05-03T08:39:41.483Z</time></trkpt><trkpt lat="39.6818117" lon="15.8206333"><ele>31.0</ele><time>2026-05-03T08:39:42.482Z</time></trkpt><trkpt lat="39.6819933" lon="15.8205833"><ele>30.0</ele><time>2026-05-03T08:39:43.482Z</time></trkpt><trkpt lat="39.68217" lon="15.820525"><ele>29.0</ele><time>2026-05-03T08:39:44.481Z</time></trkpt><trkpt lat="39.6823383" lon="15.8204683"><ele>29.0</ele><time>2026-05-03T08:39:45.482Z</time></trkpt><trkpt lat="39.682505" lon="15.8204133"><ele>29.0</ele><time>2026-05-03T08:39:46.481Z</time></trkpt><trkpt lat="39.6826683" lon="15.82036"><ele>29.0</ele><time>2026-05-03T08:39:47.482Z</time></trkpt><trkpt lat="39.6828183" lon="15.8203117"><ele>29.0</ele><time>2026-05-03T08:39:48.482Z</time></trkpt><trkpt lat="39.68295" lon="15.82027"><ele>29.0</ele><time>2026-05-03T08:39:49.481Z</time></trkpt><trkpt lat="39.68307" lon="15.82023"><ele>29.0</ele><time>2026-05-03T08:39:50.483Z</time></trkpt><trkpt lat="39.6831917" lon="15.8201867"><ele>29.0</ele><time>2026-05-03T08:39:51.482Z</time></trkpt><trkpt lat="39.6833183" lon="15.8201417"><ele>26.75</ele><time>2026-05-03T08:39:52.482Z</time></trkpt><trkpt lat="39.6834483" lon="15.8201"><ele>24.5</ele><time>2026-05-03T08:39:53.483Z</time></trkpt><trkpt lat="39.68358" lon="15.8200567"><ele>22.25</ele><time>2026-05-03T08:39:54.482Z</time></trkpt><trkpt lat="39.6837133" lon="15.8200117"><ele>20.0</ele><time>2026-05-03T08:39:55.482Z</time></trkpt><trkpt lat="39.6838467" lon="15.8199683"><ele>20.0</ele><time>2026-05-03T08:39:56.482Z</time></trkpt><trkpt lat="39.68397" lon="15.8199283"><ele>20.0</ele><time>2026-05-03T08:39:57.481Z</time></trkpt><trkpt lat="39.68409" lon="15.81989"><ele>20.0</ele><time>2026-05-03T08:39:58.481Z</time></trkpt><trkpt lat="39.684205" lon="15.8198517"><ele>20.0</ele><time>2026-05-03T08:39:59.482Z</time></trkpt><trkpt lat="39.6843183" lon="15.8198183"><ele>20.75</ele><time>2026-05-03T08:40:00.484Z</time></trkpt><trkpt lat="39.68443" lon="15.8197817"><ele>21.5</ele><time>2026-05-03T08:40:01.482Z</time></trkpt><trkpt lat="39.6845467" lon="15.8197433"><ele>22.25</ele><time>2026-05-03T08:40:02.483Z</time></trkpt><trkpt lat="39.6846683" lon="15.8197033"><ele>23.0</ele><time>2026-05-03T08:40:03.482Z</time></trkpt><trkpt lat="39.6847917" lon="15.81966"><ele>23.0</ele><time>2026-05-03T08:40:04.481Z</time></trkpt><trkpt lat="39.6849167" lon="15.8196167"><ele>23.0</ele><time>2026-05-03T08:40:05.483Z</time></trkpt><trkpt lat="39.6850483" lon="15.819575"><ele>23.0</ele><time>2026-05-03T08:40:06.482Z</time></trkpt><trkpt lat="39.6851817" lon="15.8195283"><ele>23.0</ele><time>2026-05-03T08:40:07.483Z</time></trkpt><trkpt lat="39.6853117" lon="15.819485"><ele>23.75</ele><time>2026-05-03T08:40:08.484Z</time></trkpt><trkpt lat="39.6854433" lon="15.8194417"><ele>24.5</ele><time>2026-05-03T08:40:09.482Z</time></trkpt><trkpt lat="39.685575" lon="15.8193967"><ele>25.25</ele><time>2026-05-03T08:40:10.482Z</time></trkpt><trkpt lat="39.6857067" lon="15.8193517"><ele>26.0</ele><time>2026-05-03T08:40:11.482Z</time></trkpt><trkpt lat="39.685835" lon="15.81931"><ele>24.5</ele><time>2026-05-03T08:40:12.481Z</time></trkpt><trkpt lat="39.68596" lon="15.8192767"><ele>23.0</ele><time>2026-05-03T08:40:13.482Z</time></trkpt><trkpt lat="39.6860767" lon="15.81924"><ele>21.5</ele><time>2026-05-03T08:40:14.482Z</time></trkpt><trkpt lat="39.6861917" lon="15.8192"><ele>20.0</ele><time>2026-05-03T08:40:15.481Z</time></trkpt><trkpt lat="39.6863067" lon="15.8191617"><ele>20.0</ele><time>2026-05-03T08:40:16.483Z</time></trkpt><trkpt lat="39.6864217" lon="15.8191217"><ele>20.0</ele><time>2026-05-03T08:40:17.481Z</time></trkpt><trkpt lat="39.6865367" lon="15.8190817"><ele>20.0</ele><time>2026-05-03T08:40:18.483Z</time></trkpt><trkpt lat="39.6866533" lon="15.8190383"><ele>20.0</ele><time>2026-05-03T08:40:19.482Z</time></trkpt><trkpt lat="39.68677" lon="15.818995"><ele>20.0</ele><time>2026-05-03T08:40:20.482Z</time></trkpt><trkpt lat="39.6868867" lon="15.8189467"><ele>20.0</ele><time>2026-05-03T08:40:21.483Z</time></trkpt><trkpt lat="39.6870017" lon="15.8189017"><ele>20.0</ele><time>2026-05-03T08:40:22.482Z</time></trkpt><trkpt lat="39.6871117" lon="15.8188617"><ele>20.0</ele><time>2026-05-03T08:40:23.482Z</time></trkpt><trkpt lat="39.687215" lon="15.8188233"><ele>20.0</ele><time>2026-05-03T08:40:24.482Z</time></trkpt><trkpt lat="39.6873133" lon="15.818785"><ele>20.0</ele><time>2026-05-03T08:40:25.483Z</time></trkpt><trkpt lat="39.6874133" lon="15.818745"><ele>20.0</ele><time>2026-05-03T08:40:26.483Z</time></trkpt><trkpt lat="39.68751" lon="15.8187033"><ele>20.0</ele><time>2026-05-03T08:40:27.481Z</time></trkpt><trkpt lat="39.6876117" lon="15.8186633"><ele>20.0</ele><time>2026-05-03T08:40:28.482Z</time></trkpt><trkpt lat="39.68771" lon="15.818625"><ele>20.75</ele><time>2026-05-03T08:40:29.482Z</time></trkpt><trkpt lat="39.68781" lon="15.8185867"><ele>21.5</ele><time>2026-05-03T08:40:30.481Z</time></trkpt><trkpt lat="39.68792" lon="15.8185417"><ele>22.25</ele><time>2026-05-03T08:40:31.484Z</time></trkpt><trkpt lat="39.6880333" lon="15.818495"><ele>23.0</ele><time>2026-05-03T08:40:32.483Z</time></trkpt><trkpt lat="39.6881483" lon="15.8184533"><ele>22.0</ele><time>2026-05-03T08:40:33.484Z</time></trkpt><trkpt lat="39.6882617" lon="15.8184083"><ele>21.0</ele><time>2026-05-03T08:40:34.482Z</time></trkpt><trkpt lat="39.688375" lon="15.8183683"><ele>20.0</ele><time>2026-05-03T08:40:35.482Z</time></trkpt><trkpt lat="39.68848" lon="15.81833"><ele>19.0</ele><time>2026-05-03T08:40:36.482Z</time></trkpt><trkpt lat="39.6885767" lon="15.818295"><ele>18.0</ele><time>2026-05-03T08:40:37.481Z</time></trkpt><trkpt lat="39.688665" lon="15.8182617"><ele>18.0</ele><time>2026-05-03T08:40:38.484Z</time></trkpt><trkpt lat="39.68875" lon="15.81823"><ele>18.0</ele><time>2026-05-03T08:40:39.482Z</time></trkpt><trkpt lat="39.688835" lon="15.8181967"><ele>18.0</ele><time>2026-05-03T08:40:40.483Z</time></trkpt><trkpt lat="39.68892" lon="15.81816"><ele>18.0</ele><time>2026-05-03T08:40:41.483Z</time></trkpt><trkpt lat="39.68901" lon="15.8181217"><ele>18.0</ele><time>2026-05-03T08:40:42.481Z</time></trkpt><trkpt lat="39.6891017" lon="15.8180817"><ele>18.0</ele><time>2026-05-03T08:40:43.482Z</time></trkpt><trkpt lat="39.6891917" lon="15.8180417"><ele>18.0</ele><time>2026-05-03T08:40:44.482Z</time></trkpt><trkpt lat="39.6892717" lon="15.8180083"><ele>18.0</ele><time>2026-05-03T08:40:45.483Z</time></trkpt><trkpt lat="39.6893433" lon="15.8179833"><ele>18.0</ele><time>2026-05-03T08:40:46.482Z</time></trkpt><trkpt lat="39.6894483" lon="15.8179633"><ele>18.0</ele><time>2026-05-03T08:40:48.483Z</time></trkpt><trkpt lat="39.6895483" lon="15.8179683"><ele>19.0</ele><time>2026-05-03T08:40:50.482Z</time></trkpt><trkpt lat="39.689665" lon="15.8179183"><ele>20.0</ele><time>2026-05-03T08:40:52.483Z</time></trkpt><trkpt lat="39.68973" lon="15.81787"><ele>21.0</ele><time>2026-05-03T08:40:53.483Z</time></trkpt><trkpt lat="39.6898033" lon="15.8178183"><ele>22.0</ele><time>2026-05-03T08:40:54.482Z</time></trkpt><trkpt lat="39.689895" lon="15.8177733"><ele>23.0</ele><time>2026-05-03T08:40:55.481Z</time></trkpt><trkpt lat="39.6900033" lon="15.8177317"><ele>23.0</ele><time>2026-05-03T08:40:56.483Z</time></trkpt><trkpt lat="39.6901183" lon="15.8176917"><ele>23.0</ele><time>2026-05-03T08:40:57.482Z</time></trkpt><trkpt lat="39.6902283" lon="15.81765"><ele>23.0</ele><time>2026-05-03T08:40:58.483Z</time></trkpt><trkpt lat="39.6903283" lon="15.8176117"><ele>23.0</ele><time>2026-05-03T08:40:59.482Z</time></trkpt><trkpt lat="39.6904233" lon="15.8175717"><ele>23.0</ele><time>2026-05-03T08:41:00.482Z</time></trkpt><trkpt lat="39.6905217" lon="15.8175367"><ele>21.599999999999998</ele><time>2026-05-03T08:41:01.482Z</time></trkpt><trkpt lat="39.6906267" lon="15.8174983"><ele>20.2</ele><time>2026-05-03T08:41:02.483Z</time></trkpt><trkpt lat="39.690735" lon="15.8174583"><ele>18.8</ele><time>2026-05-03T08:41:03.481Z</time></trkpt><trkpt lat="39.6908417" lon="15.8174133"><ele>17.4</ele><time>2026-05-03T08:41:04.483Z</time></trkpt><trkpt lat="39.6909417" lon="15.8173717"><ele>16.0</ele><time>2026-05-03T08:41:05.482Z</time></trkpt><trkpt lat="39.6910383" lon="15.8173333"><ele>16.166666666666664</ele><time>2026-05-03T08:41:06.483Z</time></trkpt><trkpt lat="39.69112" lon="15.817305"><ele>16.333333333333332</ele><time>2026-05-03T08:41:07.482Z</time></trkpt><trkpt lat="39.6911917" lon="15.8172783"><ele>16.5</ele><time>2026-05-03T08:41:08.483Z</time></trkpt><trkpt lat="39.6912567" lon="15.8172533"><ele>16.666666666666668</ele><time>2026-05-03T08:41:09.482Z</time></trkpt><trkpt lat="39.6913633" lon="15.8172483"><ele>16.833333333333336</ele><time>2026-05-03T08:41:11.482Z</time></trkpt><trkpt lat="39.6914367" lon="15.8172933"><ele>17.0</ele><time>2026-05-03T08:41:13.482Z</time></trkpt><trkpt lat="39.691485" lon="15.8173467"><ele>17.0</ele><time>2026-05-03T08:41:15.482Z</time></trkpt><trkpt lat="39.6915433" lon="15.8173883"><ele>17.0</ele><time>2026-05-03T08:41:18.482Z</time></trkpt><trkpt lat="39.6916017" lon="15.8174233"><ele>17.0</ele><time>2026-05-03T08:41:21.482Z</time></trkpt><trkpt lat="39.6916617" lon="15.81745"><ele>17.0</ele><time>2026-05-03T08:41:24.483Z</time></trkpt><trkpt lat="39.6917483" lon="15.817365"><ele>17.0</ele><time>2026-05-03T08:48:05.48Z</time></trkpt><trkpt lat="39.69179" lon="15.8172967"><ele>17.0</ele><time>2026-05-03T08:48:17.482Z</time></trkpt><trkpt lat="39.691795" lon="15.8171933"><ele>17.0</ele><time>2026-05-03T08:49:01.482Z</time></trkpt><trkpt lat="39.6918233" lon="15.817105"><ele>17.0</ele><time>2026-05-03T08:49:04.481Z</time></trkpt><trkpt lat="39.6918817" lon="15.817035"><ele>17.0</ele><time>2026-05-03T08:49:09.481Z</time></trkpt><trkpt lat="39.6919533" lon="15.8169983"><ele>17.0</ele><time>2026-05-03T08:49:10.481Z</time></trkpt><trkpt lat="39.6920517" lon="15.8169533"><ele>17.0</ele><time>2026-05-03T08:49:11.481Z</time></trkpt><trkpt lat="39.6921667" lon="15.8169017"><ele>18.25</ele><time>2026-05-03T08:49:12.482Z</time></trkpt><trkpt lat="39.692285" lon="15.816845"><ele>19.5</ele><time>2026-05-03T08:49:13.483Z</time></trkpt><trkpt lat="39.692405" lon="15.8167933"><ele>20.75</ele><time>2026-05-03T08:49:14.482Z</time></trkpt><trkpt lat="39.692525" lon="15.8167417"><ele>22.0</ele><time>2026-05-03T08:49:15.482Z</time></trkpt><trkpt lat="39.6926383" lon="15.8166917"><ele>20.8</ele><time>2026-05-03T08:49:16.482Z</time></trkpt><trkpt lat="39.6927483" lon="15.8166467"><ele>19.6</ele><time>2026-05-03T08:49:17.482Z</time></trkpt><trkpt lat="39.69285" lon="15.8166133"><ele>18.400000000000002</ele><time>2026-05-03T08:49:18.482Z</time></trkpt><trkpt lat="39.6929433" lon="15.8165767"><ele>17.200000000000003</ele><time>2026-05-03T08:49:19.483Z</time></trkpt><trkpt lat="39.69303" lon="15.8165417"><ele>16.0</ele><time>2026-05-03T08:49:20.483Z</time></trkpt><trkpt lat="39.6931217" lon="15.8165"><ele>16.0</ele><time>2026-05-03T08:49:21.481Z</time></trkpt><trkpt lat="39.69322" lon="15.8164567"><ele>16.0</ele><time>2026-05-03T08:49:22.481Z</time></trkpt><trkpt lat="39.6933317" lon="15.8164133"><ele>16.0</ele><time>2026-05-03T08:49:23.483Z</time></trkpt><trkpt lat="39.69346" lon="15.8163633"><ele>16.0</ele><time>2026-05-03T08:49:24.482Z</time></trkpt><trkpt lat="39.693595" lon="15.8163117"><ele>16.0</ele><time>2026-05-03T08:49:25.482Z</time></trkpt><trkpt lat="39.6937367" lon="15.816255"><ele>16.0</ele><time>2026-05-03T08:49:26.481Z</time></trkpt><trkpt lat="39.693885" lon="15.8161967"><ele>16.0</ele><time>2026-05-03T08:49:27.483Z</time></trkpt><trkpt lat="39.6940383" lon="15.8161383"><ele>16.0</ele><time>2026-05-03T08:49:28.482Z</time></trkpt><trkpt lat="39.6941833" lon="15.81608"><ele>16.0</ele><time>2026-05-03T08:49:29.482Z</time></trkpt><trkpt lat="39.6943217" lon="15.8160233"><ele>16.0</ele><time>2026-05-03T08:49:30.482Z</time></trkpt><trkpt lat="39.6944617" lon="15.8159667"><ele>16.0</ele><time>2026-05-03T08:49:31.482Z</time></trkpt><trkpt lat="39.694605" lon="15.8159083"><ele>16.666666666666664</ele><time>2026-05-03T08:49:32.482Z</time></trkpt><trkpt lat="39.6947567" lon="15.81585"><ele>17.333333333333332</ele><time>2026-05-03T08:49:33.483Z</time></trkpt><trkpt lat="39.6949083" lon="15.8157933"><ele>18.0</ele><time>2026-05-03T08:49:34.482Z</time></trkpt><trkpt lat="39.6950683" lon="15.81573"><ele>18.0</ele><time>2026-05-03T08:49:35.483Z</time></trkpt><trkpt lat="39.69523" lon="15.815665"><ele>18.0</ele><time>2026-05-03T08:49:36.481Z</time></trkpt><trkpt lat="39.6953967" lon="15.8155983"><ele>18.0</ele><time>2026-05-03T08:49:37.482Z</time></trkpt><trkpt lat="39.6955617" lon="15.815535"><ele>20.333333333333336</ele><time>2026-05-03T08:49:38.482Z</time></trkpt><trkpt lat="39.69573" lon="15.815465"><ele>22.666666666666668</ele><time>2026-05-03T08:49:39.482Z</time></trkpt><trkpt lat="39.6959" lon="15.8153983"><ele>25.0</ele><time>2026-05-03T08:49:40.481Z</time></trkpt><trkpt lat="39.6960733" lon="15.8153267"><ele>25.333333333333336</ele><time>2026-05-03T08:49:41.483Z</time></trkpt><trkpt lat="39.6962483" lon="15.815255"><ele>25.666666666666664</ele><time>2026-05-03T08:49:42.481Z</time></trkpt><trkpt lat="39.6964317" lon="15.8151817"><ele>26.0</ele><time>2026-05-03T08:49:43.483Z</time></trkpt><trkpt lat="39.6966167" lon="15.8151083"><ele>22.666666666666664</ele><time>2026-05-03T08:49:44.481Z</time></trkpt><trkpt lat="39.6968033" lon="15.8150367"><ele>19.333333333333332</ele><time>2026-05-03T08:49:45.481Z</time></trkpt><trkpt lat="39.6969917" lon="15.8149667"><ele>16.0</ele><time>2026-05-03T08:49:46.48Z</time></trkpt><trkpt lat="39.6971783" lon="15.8148967"><ele>16.0</ele><time>2026-05-03T08:49:47.481Z</time></trkpt><trkpt lat="39.6973633" lon="15.8148233"><ele>16.0</ele><time>2026-05-03T08:49:48.482Z</time></trkpt><trkpt lat="39.6975483" lon="15.81475"><ele>16.0</ele><time>2026-05-03T08:49:49.484Z</time></trkpt><trkpt lat="39.6977417" lon="15.8146783"><ele>16.333333333333332</ele><time>2026-05-03T08:49:50.482Z</time></trkpt><trkpt lat="39.6979333" lon="15.814605"><ele>16.666666666666668</ele><time>2026-05-03T08:49:51.482Z</time></trkpt><trkpt lat="39.6981233" lon="15.8145333"><ele>17.0</ele><time>2026-05-03T08:49:52.481Z</time></trkpt><trkpt lat="39.6983167" lon="15.8144617"><ele>17.0</ele><time>2026-05-03T08:49:53.482Z</time></trkpt><trkpt lat="39.6985067" lon="15.8143917"><ele>17.0</ele><time>2026-05-03T08:49:54.481Z</time></trkpt><trkpt lat="39.698695" lon="15.8143183"><ele>17.0</ele><time>2026-05-03T08:49:55.482Z</time></trkpt><trkpt lat="39.6988883" lon="15.8142467"><ele>16.0</ele><time>2026-05-03T08:49:56.482Z</time></trkpt><trkpt lat="39.699085" lon="15.8141883"><ele>15.0</ele><time>2026-05-03T08:49:57.483Z</time></trkpt><trkpt lat="39.6992917" lon="15.8141433"><ele>14.0</ele><time>2026-05-03T08:49:58.482Z</time></trkpt><trkpt lat="39.699505" lon="15.8141083"><ele>14.0</ele><time>2026-05-03T08:49:59.482Z</time></trkpt><trkpt lat="39.6997167" lon="15.8140817"><ele>14.0</ele><time>2026-05-03T08:50:00.482Z</time></trkpt><trkpt lat="39.6999317" lon="15.8140667"><ele>14.0</ele><time>2026-05-03T08:50:01.483Z</time></trkpt><trkpt lat="39.7001467" lon="15.8140567"><ele>15.0</ele><time>2026-05-03T08:50:02.484Z</time></trkpt><trkpt lat="39.7003617" lon="15.8140517"><ele>16.0</ele><time>2026-05-03T08:50:03.483Z</time></trkpt><trkpt lat="39.70058" lon="15.8140567"><ele>17.0</ele><time>2026-05-03T08:50:04.484Z</time></trkpt><trkpt lat="39.700795" lon="15.8140617"><ele>17.0</ele><time>2026-05-03T08:50:05.483Z</time></trkpt><trkpt lat="39.7010017" lon="15.81407"><ele>17.0</ele><time>2026-05-03T08:50:06.484Z</time></trkpt><trkpt lat="39.7011967" lon="15.8140767"><ele>17.0</ele><time>2026-05-03T08:50:07.485Z</time></trkpt><trkpt lat="39.7013817" lon="15.8140833"><ele>18.0</ele><time>2026-05-03T08:50:08.483Z</time></trkpt><trkpt lat="39.70156" lon="15.8140883"><ele>19.0</ele><time>2026-05-03T08:50:09.482Z</time></trkpt><trkpt lat="39.7017283" lon="15.814095"><ele>20.0</ele><time>2026-05-03T08:50:10.482Z</time></trkpt><trkpt lat="39.70189" lon="15.8141033"><ele>19.0</ele><time>2026-05-03T08:50:11.482Z</time></trkpt><trkpt lat="39.7020433" lon="15.81411"><ele>18.0</ele><time>2026-05-03T08:50:12.482Z</time></trkpt><trkpt lat="39.7021867" lon="15.8141133"><ele>17.0</ele><time>2026-05-03T08:50:13.482Z</time></trkpt><trkpt lat="39.7023283" lon="15.814115"><ele>16.0</ele><time>2026-05-03T08:50:14.482Z</time></trkpt><trkpt lat="39.7024733" lon="15.8141117"><ele>16.0</ele><time>2026-05-03T08:50:15.482Z</time></trkpt><trkpt lat="39.7026183" lon="15.8141067"><ele>16.0</ele><time>2026-05-03T08:50:16.482Z</time></trkpt><trkpt lat="39.70276" lon="15.8141017"><ele>16.0</ele><time>2026-05-03T08:50:17.481Z</time></trkpt><trkpt lat="39.7029067" lon="15.8141033"><ele>16.0</ele><time>2026-05-03T08:50:18.481Z</time></trkpt><trkpt lat="39.7030583" lon="15.814105"><ele>15.333333333333332</ele><time>2026-05-03T08:50:19.482Z</time></trkpt><trkpt lat="39.7032183" lon="15.81411"><ele>14.666666666666668</ele><time>2026-05-03T08:50:20.483Z</time></trkpt><trkpt lat="39.7033867" lon="15.8141117"><ele>14.0</ele><time>2026-05-03T08:50:21.481Z</time></trkpt><trkpt lat="39.70356" lon="15.8141167"><ele>14.0</ele><time>2026-05-03T08:50:22.482Z</time></trkpt><trkpt lat="39.70373" lon="15.8141233"><ele>14.0</ele><time>2026-05-03T08:50:23.481Z</time></trkpt><trkpt lat="39.70389" lon="15.81413"><ele>14.0</ele><time>2026-05-03T08:50:24.484Z</time></trkpt><trkpt lat="39.7040467" lon="15.8141367"><ele>14.0</ele><time>2026-05-03T08:50:25.483Z</time></trkpt><trkpt lat="39.7042" lon="15.81414"><ele>14.0</ele><time>2026-05-03T08:50:26.484Z</time></trkpt><trkpt lat="39.7043517" lon="15.8141467"><ele>14.0</ele><time>2026-05-03T08:50:27.484Z</time></trkpt><trkpt lat="39.704495" lon="15.8141533"><ele>14.0</ele><time>2026-05-03T08:50:28.482Z</time></trkpt><trkpt lat="39.7046283" lon="15.81416"><ele>14.0</ele><time>2026-05-03T08:50:29.482Z</time></trkpt><trkpt lat="39.70475" lon="15.814165"><ele>14.0</ele><time>2026-05-03T08:50:30.481Z</time></trkpt><trkpt lat="39.7048717" lon="15.8141717"><ele>14.0</ele><time>2026-05-03T08:50:31.482Z</time></trkpt><trkpt lat="39.7049933" lon="15.8141717"><ele>14.0</ele><time>2026-05-03T08:50:32.481Z</time></trkpt><trkpt lat="39.7051167" lon="15.81417"><ele>14.5</ele><time>2026-05-03T08:50:33.482Z</time></trkpt><trkpt lat="39.7052467" lon="15.81416"><ele>15.0</ele><time>2026-05-03T08:50:34.482Z</time></trkpt><trkpt lat="39.7053917" lon="15.814145"><ele>15.5</ele><time>2026-05-03T08:50:35.483Z</time></trkpt><trkpt lat="39.7055533" lon="15.814125"><ele>16.0</ele><time>2026-05-03T08:50:36.481Z</time></trkpt><trkpt lat="39.7057183" lon="15.8141067"><ele>16.0</ele><time>2026-05-03T08:50:37.483Z</time></trkpt><trkpt lat="39.705875" lon="15.814095"><ele>16.0</ele><time>2026-05-03T08:50:38.482Z</time></trkpt><trkpt lat="39.70602" lon="15.8140817"><ele>16.0</ele><time>2026-05-03T08:50:39.483Z</time></trkpt><trkpt lat="39.7061617" lon="15.8140633"><ele>16.0</ele><time>2026-05-03T08:50:40.482Z</time></trkpt><trkpt lat="39.7063083" lon="15.8140433"><ele>14.666666666666666</ele><time>2026-05-03T08:50:41.482Z</time></trkpt><trkpt lat="39.7064683" lon="15.8140233"><ele>13.333333333333332</ele><time>2026-05-03T08:50:42.481Z</time></trkpt><trkpt lat="39.7066467" lon="15.814"><ele>12.0</ele><time>2026-05-03T08:50:43.482Z</time></trkpt><trkpt lat="39.70684" lon="15.8139767"><ele>12.0</ele><time>2026-05-03T08:50:44.481Z</time></trkpt><trkpt lat="39.7070517" lon="15.813955"><ele>12.0</ele><time>2026-05-03T08:50:45.482Z</time></trkpt><trkpt lat="39.7072867" lon="15.813935"><ele>12.0</ele><time>2026-05-03T08:50:46.482Z</time></trkpt><trkpt lat="39.7075283" lon="15.8139133"><ele>12.5</ele><time>2026-05-03T08:50:47.481Z</time></trkpt><trkpt lat="39.70776" lon="15.8138867"><ele>13.0</ele><time>2026-05-03T08:50:48.481Z</time></trkpt><trkpt lat="39.7079833" lon="15.8138617"><ele>13.0</ele><time>2026-05-03T08:50:49.482Z</time></trkpt><trkpt lat="39.7082" lon="15.8138333"><ele>13.0</ele><time>2026-05-03T08:50:50.481Z</time></trkpt><trkpt lat="39.708415" lon="15.8138067"><ele>13.0</ele><time>2026-05-03T08:50:51.481Z</time></trkpt><trkpt lat="39.70863" lon="15.8137767"><ele>15.0</ele><time>2026-05-03T08:50:52.482Z</time></trkpt><trkpt lat="39.7088417" lon="15.8137517"><ele>17.0</ele><time>2026-05-03T08:50:53.483Z</time></trkpt><trkpt lat="39.7090483" lon="15.813725"><ele>19.0</ele><time>2026-05-03T08:50:54.483Z</time></trkpt><trkpt lat="39.7092533" lon="15.813695"><ele>24.333333333333332</ele><time>2026-05-03T08:50:55.485Z</time></trkpt><trkpt lat="39.70946" lon="15.8136617"><ele>29.666666666666664</ele><time>2026-05-03T08:50:56.484Z</time></trkpt><trkpt lat="39.7096767" lon="15.813625"><ele>35.0</ele><time>2026-05-03T08:50:57.483Z</time></trkpt><trkpt lat="39.7099067" lon="15.8135833"><ele>35.0</ele><time>2026-05-03T08:50:58.484Z</time></trkpt><trkpt lat="39.7101483" lon="15.81353"><ele>35.0</ele><time>2026-05-03T08:50:59.482Z</time></trkpt><trkpt lat="39.710395" lon="15.81346"><ele>31.5</ele><time>2026-05-03T08:51:00.48Z</time></trkpt><trkpt lat="39.710645" lon="15.81337"><ele>28.0</ele><time>2026-05-03T08:51:01.483Z</time></trkpt><trkpt lat="39.7108917" lon="15.8132767"><ele>31.5</ele><time>2026-05-03T08:51:02.482Z</time></trkpt><trkpt lat="39.7111267" lon="15.8131683"><ele>35.0</ele><time>2026-05-03T08:51:03.482Z</time></trkpt><trkpt lat="39.711345" lon="15.8130483"><ele>35.0</ele><time>2026-05-03T08:51:04.481Z</time></trkpt><trkpt lat="39.7115367" lon="15.8129217"><ele>35.0</ele><time>2026-05-03T08:51:05.481Z</time></trkpt><trkpt lat="39.711705" lon="15.81279"><ele>35.0</ele><time>2026-05-03T08:51:06.481Z</time></trkpt><trkpt lat="39.7118533" lon="15.81266"><ele>34.4</ele><time>2026-05-03T08:51:07.481Z</time></trkpt><trkpt lat="39.71197" lon="15.81255"><ele>33.8</ele><time>2026-05-03T08:51:08.482Z</time></trkpt><trkpt lat="39.712055" lon="15.8124633"><ele>33.2</ele><time>2026-05-03T08:51:09.483Z</time></trkpt><trkpt lat="39.71212" lon="15.8123967"><ele>32.6</ele><time>2026-05-03T08:51:10.481Z</time></trkpt><trkpt lat="39.712175" lon="15.812345"><ele>32.0</ele><time>2026-05-03T08:51:11.481Z</time></trkpt><trkpt lat="39.71223" lon="15.8123"><ele>32.0</ele><time>2026-05-03T08:51:12.482Z</time></trkpt><trkpt lat="39.71233" lon="15.8122033"><ele>32.0</ele><time>2026-05-03T08:51:14.481Z</time></trkpt><trkpt lat="39.7123883" lon="15.81214"><ele>32.0</ele><time>2026-05-03T08:51:15.481Z</time></trkpt><trkpt lat="39.7124567" lon="15.8120783"><ele>32.0</ele><time>2026-05-03T08:51:16.481Z</time></trkpt><trkpt lat="39.7125417" lon="15.8120267"><ele>32.0</ele><time>2026-05-03T08:51:17.482Z</time></trkpt><trkpt lat="39.7126533" lon="15.81198"><ele>34.33333333333333</ele><time>2026-05-03T08:51:18.48Z</time></trkpt><trkpt lat="39.71279" lon="15.811935"><ele>36.666666666666664</ele><time>2026-05-03T08:51:19.482Z</time></trkpt><trkpt lat="39.712955" lon="15.81189"><ele>39.0</ele><time>2026-05-03T08:51:20.481Z</time></trkpt><trkpt lat="39.7131483" lon="15.8118517"><ele>37.0</ele><time>2026-05-03T08:51:21.481Z</time></trkpt><trkpt lat="39.7133717" lon="15.8118133"><ele>35.0</ele><time>2026-05-03T08:51:22.481Z</time></trkpt><trkpt lat="39.71362" lon="15.8117717"><ele>35.0</ele><time>2026-05-03T08:51:23.483Z</time></trkpt><trkpt lat="39.7138817" lon="15.81172"><ele>35.0</ele><time>2026-05-03T08:51:24.481Z</time></trkpt><trkpt lat="39.7141433" lon="15.8116683"><ele>35.0</ele><time>2026-05-03T08:51:25.483Z</time></trkpt><trkpt lat="39.7144017" lon="15.81162"><ele>35.0</ele><time>2026-05-03T08:51:26.483Z</time></trkpt><trkpt lat="39.71465" lon="15.81157"><ele>36.0</ele><time>2026-05-03T08:51:27.482Z</time></trkpt><trkpt lat="39.7148917" lon="15.8115367"><ele>37.0</ele><time>2026-05-03T08:51:28.482Z</time></trkpt><trkpt lat="39.7151267" lon="15.8115133"><ele>36.0</ele><time>2026-05-03T08:51:29.483Z</time></trkpt><trkpt lat="39.715355" lon="15.8115033"><ele>35.0</ele><time>2026-05-03T08:51:30.482Z</time></trkpt><trkpt lat="39.7155817" lon="15.811505"><ele>35.0</ele><time>2026-05-03T08:51:31.483Z</time></trkpt><trkpt lat="39.7158" lon="15.81151"><ele>35.0</ele><time>2026-05-03T08:51:32.482Z</time></trkpt><trkpt lat="39.71601" lon="15.8115283"><ele>35.0</ele><time>2026-05-03T08:51:33.514Z</time></trkpt><trkpt lat="39.71621" lon="15.811555"><ele>33.0</ele><time>2026-05-03T08:51:34.481Z</time></trkpt><trkpt lat="39.7164067" lon="15.8115867"><ele>31.0</ele><time>2026-05-03T08:51:35.482Z</time></trkpt><trkpt lat="39.716605" lon="15.8116233"><ele>29.0</ele><time>2026-05-03T08:51:36.481Z</time></trkpt><trkpt lat="39.7168067" lon="15.8116667"><ele>26.333333333333332</ele><time>2026-05-03T08:51:37.482Z</time></trkpt><trkpt lat="39.7170067" lon="15.8117017"><ele>23.666666666666664</ele><time>2026-05-03T08:51:38.481Z</time></trkpt><trkpt lat="39.7172083" lon="15.811735"><ele>21.0</ele><time>2026-05-03T08:51:39.481Z</time></trkpt><trkpt lat="39.7174083" lon="15.811765"><ele>21.0</ele><time>2026-05-03T08:51:40.482Z</time></trkpt><trkpt lat="39.7176017" lon="15.811795"><ele>21.0</ele><time>2026-05-03T08:51:41.483Z</time></trkpt><trkpt lat="39.717805" lon="15.8118233"><ele>21.0</ele><time>2026-05-03T08:51:42.481Z</time></trkpt><trkpt lat="39.7180117" lon="15.81185"><ele>16.333333333333332</ele><time>2026-05-03T08:51:43.482Z</time></trkpt><trkpt lat="39.7182217" lon="15.8118783"><ele>11.666666666666668</ele><time>2026-05-03T08:51:44.482Z</time></trkpt><trkpt lat="39.7184367" lon="15.8119083"><ele>7.0</ele><time>2026-05-03T08:51:45.482Z</time></trkpt><trkpt lat="39.7186583" lon="15.811935"><ele>5.0</ele><time>2026-05-03T08:51:46.482Z</time></trkpt><trkpt lat="39.7188817" lon="15.8119583"><ele>3.0</ele><time>2026-05-03T08:51:47.483Z</time></trkpt><trkpt lat="39.7191083" lon="15.8119733"><ele>3.0</ele><time>2026-05-03T08:51:48.482Z</time></trkpt><trkpt lat="39.7193367" lon="15.811985"><ele>3.0</ele><time>2026-05-03T08:51:49.483Z</time></trkpt><trkpt lat="39.7195667" lon="15.8119917"><ele>3.333333333333333</ele><time>2026-05-03T08:51:50.483Z</time></trkpt><trkpt lat="39.7197917" lon="15.8119917"><ele>3.6666666666666665</ele><time>2026-05-03T08:51:51.482Z</time></trkpt><trkpt lat="39.7200117" lon="15.8119917"><ele>4.0</ele><time>2026-05-03T08:51:52.483Z</time></trkpt><trkpt lat="39.7202333" lon="15.8119867"><ele>3.333333333333333</ele><time>2026-05-03T08:51:53.483Z</time></trkpt><trkpt lat="39.720455" lon="15.8119733"><ele>2.6666666666666665</ele><time>2026-05-03T08:51:54.483Z</time></trkpt><trkpt lat="39.7206767" lon="15.8119517"><ele>2.0</ele><time>2026-05-03T08:51:55.484Z</time></trkpt><trkpt lat="39.7209017" lon="15.8119233"><ele>1.5</ele><time>2026-05-03T08:51:56.484Z</time></trkpt><trkpt lat="39.7211267" lon="15.8118933"><ele>1.0</ele><time>2026-05-03T08:51:57.483Z</time></trkpt><trkpt lat="39.7213517" lon="15.81186"><ele>1.0</ele><time>2026-05-03T08:51:58.483Z</time></trkpt><trkpt lat="39.7215817" lon="15.811825"><ele>1.0</ele><time>2026-05-03T08:51:59.483Z</time></trkpt><trkpt lat="39.7218117" lon="15.8117917"><ele>1.5</ele><time>2026-05-03T08:52:00.483Z</time></trkpt><trkpt lat="39.722045" lon="15.8117583"><ele>2.0</ele><time>2026-05-03T08:52:01.484Z</time></trkpt><trkpt lat="39.7222833" lon="15.811725"><ele>2.0</ele><time>2026-05-03T08:52:02.483Z</time></trkpt><trkpt lat="39.7225217" lon="15.81169"><ele>2.0</ele><time>2026-05-03T08:52:03.483Z</time></trkpt><trkpt lat="39.722765" lon="15.8116567"><ele>2.0</ele><time>2026-05-03T08:52:04.483Z</time></trkpt><trkpt lat="39.7230117" lon="15.8116183"><ele>2.0</ele><time>2026-05-03T08:52:05.483Z</time></trkpt><trkpt lat="39.72326" lon="15.8115817"><ele>2.0</ele><time>2026-05-03T08:52:06.482Z</time></trkpt><trkpt lat="39.7235067" lon="15.8115467"><ele>2.0</ele><time>2026-05-03T08:52:07.483Z</time></trkpt><trkpt lat="39.7237533" lon="15.8115117"><ele>2.5</ele><time>2026-05-03T08:52:08.484Z</time></trkpt><trkpt lat="39.7240033" lon="15.8114783"><ele>3.0</ele><time>2026-05-03T08:52:09.482Z</time></trkpt><trkpt lat="39.7242517" lon="15.811445"><ele>3.5</ele><time>2026-05-03T08:52:10.482Z</time></trkpt><trkpt lat="39.7245033" lon="15.811415"><ele>4.0</ele><time>2026-05-03T08:52:11.483Z</time></trkpt><trkpt lat="39.724755" lon="15.8113833"><ele>4.0</ele><time>2026-05-03T08:52:12.482Z</time></trkpt><trkpt lat="39.725005" lon="15.81135"><ele>4.0</ele><time>2026-05-03T08:52:13.483Z</time></trkpt><trkpt lat="39.7252567" lon="15.811315"><ele>3.5</ele><time>2026-05-03T08:52:14.482Z</time></trkpt><trkpt lat="39.7255083" lon="15.8112767"><ele>3.0</ele><time>2026-05-03T08:52:15.481Z</time></trkpt><trkpt lat="39.72576" lon="15.81124"><ele>3.0</ele><time>2026-05-03T08:52:16.482Z</time></trkpt><trkpt lat="39.7260067" lon="15.811205"><ele>3.0</ele><time>2026-05-03T08:52:17.482Z</time></trkpt><trkpt lat="39.7262533" lon="15.8111717"><ele>3.5</ele><time>2026-05-03T08:52:18.482Z</time></trkpt><trkpt lat="39.7264983" lon="15.8111367"><ele>4.0</ele><time>2026-05-03T08:52:19.482Z</time></trkpt><trkpt lat="39.7267417" lon="15.8111"><ele>2.5</ele><time>2026-05-03T08:52:20.484Z</time></trkpt><trkpt lat="39.726985" lon="15.811065"><ele>1.0</ele><time>2026-05-03T08:52:21.483Z</time></trkpt><trkpt lat="39.7272267" lon="15.8110317"><ele>1.0</ele><time>2026-05-03T08:52:22.484Z</time></trkpt><trkpt lat="39.7274633" lon="15.8109983"><ele>1.0</ele><time>2026-05-03T08:52:23.483Z</time></trkpt><trkpt lat="39.727695" lon="15.8109667"><ele>2.0</ele><time>2026-05-03T08:52:24.483Z</time></trkpt><trkpt lat="39.727925" lon="15.810935"><ele>3.0</ele><time>2026-05-03T08:52:25.482Z</time></trkpt><trkpt lat="39.7281533" lon="15.8109067"><ele>3.0</ele><time>2026-05-03T08:52:26.484Z</time></trkpt><trkpt lat="39.7283817" lon="15.8108767"><ele>3.0</ele><time>2026-05-03T08:52:27.483Z</time></trkpt><trkpt lat="39.7286033" lon="15.810845"><ele>3.0</ele><time>2026-05-03T08:52:28.483Z</time></trkpt><trkpt lat="39.7288117" lon="15.8108117"><ele>3.0</ele><time>2026-05-03T08:52:29.483Z</time></trkpt><trkpt lat="39.7290117" lon="15.8107783"><ele>3.0</ele><time>2026-05-03T08:52:30.482Z</time></trkpt><trkpt lat="39.7292017" lon="15.8107467"><ele>3.0</ele><time>2026-05-03T08:52:31.484Z</time></trkpt><trkpt lat="39.7293817" lon="15.8107167"><ele>3.0</ele><time>2026-05-03T08:52:32.483Z</time></trkpt><trkpt lat="39.729545" lon="15.8106833"><ele>3.0</ele><time>2026-05-03T08:52:33.483Z</time></trkpt><trkpt lat="39.7296983" lon="15.810655"><ele>2.75</ele><time>2026-05-03T08:52:34.483Z</time></trkpt><trkpt lat="39.72984" lon="15.8106267"><ele>2.5</ele><time>2026-05-03T08:52:35.483Z</time></trkpt><trkpt lat="39.7299783" lon="15.8105933"><ele>2.25</ele><time>2026-05-03T08:52:36.482Z</time></trkpt><trkpt lat="39.7301167" lon="15.8105567"><ele>2.0</ele><time>2026-05-03T08:52:37.484Z</time></trkpt><trkpt lat="39.7302483" lon="15.8105167"><ele>2.4000000000000004</ele><time>2026-05-03T08:52:38.484Z</time></trkpt><trkpt lat="39.730365" lon="15.8104767"><ele>2.8000000000000003</ele><time>2026-05-03T08:52:39.482Z</time></trkpt><trkpt lat="39.7304633" lon="15.8104417"><ele>3.2</ele><time>2026-05-03T08:52:40.483Z</time></trkpt><trkpt lat="39.7305483" lon="15.8104117"><ele>3.6</ele><time>2026-05-03T08:52:41.481Z</time></trkpt><trkpt lat="39.7306233" lon="15.8103867"><ele>4.0</ele><time>2026-05-03T08:52:42.482Z</time></trkpt><trkpt lat="39.7306983" lon="15.8103683"><ele>3.9999999999999996</ele><time>2026-05-03T08:52:43.483Z</time></trkpt><trkpt lat="39.730775" lon="15.8103567"><ele>4.0</ele><time>2026-05-03T08:52:44.483Z</time></trkpt><trkpt lat="39.7308517" lon="15.8103483"><ele>4.0</ele><time>2026-05-03T08:52:45.482Z</time></trkpt><trkpt lat="39.7309317" lon="15.810345"><ele>4.0</ele><time>2026-05-03T08:52:46.483Z</time></trkpt><trkpt lat="39.7310133" lon="15.81034"><ele>3.9999999999999996</ele><time>2026-05-03T08:52:47.484Z</time></trkpt><trkpt lat="39.73109" lon="15.81031"><ele>4.0</ele><time>2026-05-03T08:52:48.483Z</time></trkpt><trkpt lat="39.7311683" lon="15.8102633"><ele>4.0</ele><time>2026-05-03T08:52:49.485Z</time></trkpt><trkpt lat="39.7312517" lon="15.81022"><ele>4.0</ele><time>2026-05-03T08:52:50.484Z</time></trkpt><trkpt lat="39.7313467" lon="15.810185"><ele>4.0</ele><time>2026-05-03T08:52:51.484Z</time></trkpt><trkpt lat="39.7314467" lon="15.8101517"><ele>4.0</ele><time>2026-05-03T08:52:52.483Z</time></trkpt><trkpt lat="39.7315533" lon="15.810115"><ele>4.0</ele><time>2026-05-03T08:52:53.484Z</time></trkpt><trkpt lat="39.73166" lon="15.8100817"><ele>4.2</ele><time>2026-05-03T08:52:54.483Z</time></trkpt><trkpt lat="39.7317667" lon="15.81005"><ele>4.4</ele><time>2026-05-03T08:52:55.484Z</time></trkpt><trkpt lat="39.7318717" lon="15.8100217"><ele>4.6</ele><time>2026-05-03T08:52:56.483Z</time></trkpt><trkpt lat="39.73198" lon="15.8099917"><ele>4.8</ele><time>2026-05-03T08:52:57.484Z</time></trkpt><trkpt lat="39.732095" lon="15.8099583"><ele>5.0</ele><time>2026-05-03T08:52:58.484Z</time></trkpt><trkpt lat="39.732215" lon="15.8099233"><ele>5.0</ele><time>2026-05-03T08:52:59.484Z</time></trkpt><trkpt lat="39.7323417" lon="15.809885"><ele>5.0</ele><time>2026-05-03T08:53:00.484Z</time></trkpt><trkpt lat="39.7324767" lon="15.8098433"><ele>5.0</ele><time>2026-05-03T08:53:01.484Z</time></trkpt><trkpt lat="39.7326333" lon="15.8097983"><ele>5.0</ele><time>2026-05-03T08:53:02.486Z</time></trkpt><trkpt lat="39.7328133" lon="15.809745"><ele>5.0</ele><time>2026-05-03T08:53:03.483Z</time></trkpt><trkpt lat="39.7330167" lon="15.8096867"><ele>5.0</ele><time>2026-05-03T08:53:04.484Z</time></trkpt><trkpt lat="39.7332367" lon="15.80962"><ele>5.0</ele><time>2026-05-03T08:53:05.483Z</time></trkpt><trkpt lat="39.7334833" lon="15.809555"><ele>4.5</ele><time>2026-05-03T08:53:06.484Z</time></trkpt><trkpt lat="39.7337433" lon="15.8094967"><ele>4.0</ele><time>2026-05-03T08:53:07.483Z</time></trkpt><trkpt lat="39.7340017" lon="15.80944"><ele>4.0</ele><time>2026-05-03T08:53:08.483Z</time></trkpt><trkpt lat="39.7342617" lon="15.8093783"><ele>4.0</ele><time>2026-05-03T08:53:09.483Z</time></trkpt><trkpt lat="39.7345217" lon="15.8093117"><ele>4.5</ele><time>2026-05-03T08:53:10.482Z</time></trkpt><trkpt lat="39.7347883" lon="15.80925"><ele>5.0</ele><time>2026-05-03T08:53:11.484Z</time></trkpt><trkpt lat="39.7350583" lon="15.8091917"><ele>4.5</ele><time>2026-05-03T08:53:12.485Z</time></trkpt><trkpt lat="39.7353317" lon="15.8091383"><ele>4.0</ele><time>2026-05-03T08:53:13.484Z</time></trkpt><trkpt lat="39.7356067" lon="15.8090917"><ele>4.0</ele><time>2026-05-03T08:53:14.484Z</time></trkpt><trkpt lat="39.7358867" lon="15.8090467"><ele>4.0</ele><time>2026-05-03T08:53:15.483Z</time></trkpt><trkpt lat="39.7361683" lon="15.809"><ele>3.5</ele><time>2026-05-03T08:53:16.482Z</time></trkpt><trkpt lat="39.7364467" lon="15.8089567"><ele>3.0</ele><time>2026-05-03T08:53:17.481Z</time></trkpt><trkpt lat="39.73672" lon="15.8089183"><ele>4.0</ele><time>2026-05-03T08:53:18.482Z</time></trkpt><trkpt lat="39.7369867" lon="15.8088833"><ele>5.0</ele><time>2026-05-03T08:53:19.484Z</time></trkpt><trkpt lat="39.737255" lon="15.8088517"><ele>5.0</ele><time>2026-05-03T08:53:20.484Z</time></trkpt><trkpt lat="39.737525" lon="15.8088183"><ele>5.0</ele><time>2026-05-03T08:53:21.482Z</time></trkpt><trkpt lat="39.7377917" lon="15.8087883"><ele>4.0</ele><time>2026-05-03T08:53:22.484Z</time></trkpt><trkpt lat="39.7380517" lon="15.80876"><ele>3.0</ele><time>2026-05-03T08:53:23.484Z</time></trkpt><trkpt lat="39.7383" lon="15.80873"><ele>3.0</ele><time>2026-05-03T08:53:24.484Z</time></trkpt><trkpt lat="39.738535" lon="15.8087033"><ele>3.0</ele><time>2026-05-03T08:53:25.484Z</time></trkpt><trkpt lat="39.7387583" lon="15.8086783"><ele>2.6666666666666665</ele><time>2026-05-03T08:53:26.484Z</time></trkpt><trkpt lat="39.7389717" lon="15.8086517"><ele>2.333333333333333</ele><time>2026-05-03T08:53:27.483Z</time></trkpt><trkpt lat="39.739175" lon="15.80863"><ele>2.0</ele><time>2026-05-03T08:53:28.484Z</time></trkpt><trkpt lat="39.73937" lon="15.8086033"><ele>2.0</ele><time>2026-05-03T08:53:29.484Z</time></trkpt><trkpt lat="39.73956" lon="15.808585"><ele>2.0</ele><time>2026-05-03T08:53:30.483Z</time></trkpt><trkpt lat="39.739745" lon="15.8085733"><ele>2.0</ele><time>2026-05-03T08:53:31.483Z</time></trkpt><trkpt lat="39.7399233" lon="15.8085667"><ele>2.0</ele><time>2026-05-03T08:53:32.484Z</time></trkpt><trkpt lat="39.7401" lon="15.808565"><ele>2.0</ele><time>2026-05-03T08:53:33.483Z</time></trkpt><trkpt lat="39.7402817" lon="15.8085617"><ele>2.0</ele><time>2026-05-03T08:53:34.484Z</time></trkpt><trkpt lat="39.7404733" lon="15.8085467"><ele>2.0</ele><time>2026-05-03T08:53:35.484Z</time></trkpt><trkpt lat="39.74068" lon="15.80852"><ele>2.0</ele><time>2026-05-03T08:53:36.484Z</time></trkpt><trkpt lat="39.7408967" lon="15.8084883"><ele>2.0</ele><time>2026-05-03T08:53:37.484Z</time></trkpt><trkpt lat="39.7411267" lon="15.8084483"><ele>2.5</ele><time>2026-05-03T08:53:38.483Z</time></trkpt><trkpt lat="39.7413683" lon="15.8084067"><ele>3.0</ele><time>2026-05-03T08:53:39.483Z</time></trkpt><trkpt lat="39.7416183" lon="15.8083617"><ele>3.0</ele><time>2026-05-03T08:53:40.483Z</time></trkpt><trkpt lat="39.7418683" lon="15.8083117"><ele>3.0</ele><time>2026-05-03T08:53:41.483Z</time></trkpt><trkpt lat="39.7421183" lon="15.8082617"><ele>3.0</ele><time>2026-05-03T08:53:42.481Z</time></trkpt><trkpt lat="39.7423633" lon="15.80821"><ele>3.0</ele><time>2026-05-03T08:53:43.483Z</time></trkpt><trkpt lat="39.7426017" lon="15.8081483"><ele>2.0</ele><time>2026-05-03T08:53:44.484Z</time></trkpt><trkpt lat="39.7428317" lon="15.808085"><ele>1.0</ele><time>2026-05-03T08:53:45.481Z</time></trkpt><trkpt lat="39.7430583" lon="15.8080217"><ele>1.0</ele><time>2026-05-03T08:53:46.482Z</time></trkpt><trkpt lat="39.7432767" lon="15.8079583"><ele>1.0</ele><time>2026-05-03T08:53:47.483Z</time></trkpt><trkpt lat="39.7434883" lon="15.8078983"><ele>1.0</ele><time>2026-05-03T08:53:48.483Z</time></trkpt><trkpt lat="39.74369" lon="15.8078417"><ele>1.6666666666666665</ele><time>2026-05-03T08:53:49.483Z</time></trkpt><trkpt lat="39.74388" lon="15.807785"><ele>2.3333333333333335</ele><time>2026-05-03T08:53:50.484Z</time></trkpt><trkpt lat="39.74406" lon="15.8077267"><ele>3.0</ele><time>2026-05-03T08:53:51.482Z</time></trkpt><trkpt lat="39.7442267" lon="15.8076717"><ele>3.333333333333333</ele><time>2026-05-03T08:53:52.482Z</time></trkpt><trkpt lat="39.7443817" lon="15.80762"><ele>3.6666666666666665</ele><time>2026-05-03T08:53:53.483Z</time></trkpt><trkpt lat="39.7445283" lon="15.80757"><ele>4.0</ele><time>2026-05-03T08:53:54.482Z</time></trkpt><trkpt lat="39.7446667" lon="15.807525"><ele>4.0</ele><time>2026-05-03T08:53:55.483Z</time></trkpt><trkpt lat="39.7447933" lon="15.8074883"><ele>4.0</ele><time>2026-05-03T08:53:56.483Z</time></trkpt><trkpt lat="39.7449133" lon="15.8074517"><ele>4.0</ele><time>2026-05-03T08:53:57.482Z</time></trkpt><trkpt lat="39.7450217" lon="15.8074183"><ele>4.0</ele><time>2026-05-03T08:53:58.482Z</time></trkpt><trkpt lat="39.745125" lon="15.80739"><ele>4.0</ele><time>2026-05-03T08:53:59.482Z</time></trkpt><trkpt lat="39.745225" lon="15.8073633"><ele>4.0</ele><time>2026-05-03T08:54:00.483Z</time></trkpt><trkpt lat="39.745325" lon="15.807335"><ele>4.0</ele><time>2026-05-03T08:54:01.482Z</time></trkpt><trkpt lat="39.7454267" lon="15.807305"><ele>4.0</ele><time>2026-05-03T08:54:02.484Z</time></trkpt><trkpt lat="39.74553" lon="15.8072717"><ele>4.0</ele><time>2026-05-03T08:54:03.482Z</time></trkpt><trkpt lat="39.7456333" lon="15.80724"><ele>4.0</ele><time>2026-05-03T08:54:04.482Z</time></trkpt><trkpt lat="39.7457317" lon="15.807205"><ele>4.0</ele><time>2026-05-03T08:54:05.482Z</time></trkpt><trkpt lat="39.7458267" lon="15.807175"><ele>4.0</ele><time>2026-05-03T08:54:06.483Z</time></trkpt><trkpt lat="39.7459183" lon="15.807145"><ele>4.0</ele><time>2026-05-03T08:54:07.483Z</time></trkpt><trkpt lat="39.74601" lon="15.8071117"><ele>4.0</ele><time>2026-05-03T08:54:08.482Z</time></trkpt><trkpt lat="39.746105" lon="15.8070767"><ele>3.833333333333333</ele><time>2026-05-03T08:54:09.482Z</time></trkpt><trkpt lat="39.746195" lon="15.807045"><ele>3.6666666666666665</ele><time>2026-05-03T08:54:10.483Z</time></trkpt><trkpt lat="39.74628" lon="15.8070167"><ele>3.5</ele><time>2026-05-03T08:54:11.483Z</time></trkpt><trkpt lat="39.7463633" lon="15.80699"><ele>3.333333333333333</ele><time>2026-05-03T08:54:12.483Z</time></trkpt><trkpt lat="39.7464483" lon="15.806965"><ele>3.1666666666666665</ele><time>2026-05-03T08:54:13.482Z</time></trkpt><trkpt lat="39.7465383" lon="15.8069383"><ele>3.0</ele><time>2026-05-03T08:54:14.484Z</time></trkpt><trkpt lat="39.7466317" lon="15.8069117"><ele>3.0</ele><time>2026-05-03T08:54:15.487Z</time></trkpt><trkpt lat="39.7467267" lon="15.8068867"><ele>3.0</ele><time>2026-05-03T08:54:16.483Z</time></trkpt><trkpt lat="39.7468233" lon="15.80686"><ele>3.0</ele><time>2026-05-03T08:54:17.482Z</time></trkpt><trkpt lat="39.746925" lon="15.80683"><ele>3.0</ele><time>2026-05-03T08:54:18.483Z</time></trkpt><trkpt lat="39.7470317" lon="15.806795"><ele>3.0</ele><time>2026-05-03T08:54:19.482Z</time></trkpt><trkpt lat="39.74715" lon="15.8067567"><ele>3.25</ele><time>2026-05-03T08:54:20.483Z</time></trkpt><trkpt lat="39.7472783" lon="15.806715"><ele>3.5</ele><time>2026-05-03T08:54:21.482Z</time></trkpt><trkpt lat="39.7474167" lon="15.806675"><ele>3.75</ele><time>2026-05-03T08:54:22.483Z</time></trkpt><trkpt lat="39.7475583" lon="15.8066283"><ele>4.0</ele><time>2026-05-03T08:54:23.482Z</time></trkpt><trkpt lat="39.74771" lon="15.8065767"><ele>4.333333333333333</ele><time>2026-05-03T08:54:24.481Z</time></trkpt><trkpt lat="39.7478683" lon="15.8065233"><ele>4.666666666666667</ele><time>2026-05-03T08:54:25.483Z</time></trkpt><trkpt lat="39.7480317" lon="15.8064733"><ele>5.0</ele><time>2026-05-03T08:54:26.482Z</time></trkpt><trkpt lat="39.748195" lon="15.8064267"><ele>5.0</ele><time>2026-05-03T08:54:27.483Z</time></trkpt><trkpt lat="39.748355" lon="15.8063833"><ele>5.0</ele><time>2026-05-03T08:54:28.482Z</time></trkpt><trkpt lat="39.7485083" lon="15.8063383"><ele>5.0</ele><time>2026-05-03T08:54:29.483Z</time></trkpt><trkpt lat="39.7486417" lon="15.8062983"><ele>4.75</ele><time>2026-05-03T08:54:30.482Z</time></trkpt><trkpt lat="39.74876" lon="15.8062533"><ele>4.5</ele><time>2026-05-03T08:54:31.483Z</time></trkpt><trkpt lat="39.748875" lon="15.8062067"><ele>4.25</ele><time>2026-05-03T08:54:32.484Z</time></trkpt><trkpt lat="39.7490033" lon="15.806165"><ele>4.0</ele><time>2026-05-03T08:54:33.483Z</time></trkpt><trkpt lat="39.7491383" lon="15.8061267"><ele>4.0</ele><time>2026-05-03T08:54:34.484Z</time></trkpt><trkpt lat="39.7492783" lon="15.8060883"><ele>4.0</ele><time>2026-05-03T08:54:35.482Z</time></trkpt><trkpt lat="39.7494183" lon="15.8060467"><ele>4.0</ele><time>2026-05-03T08:54:36.482Z</time></trkpt><trkpt lat="39.7495633" lon="15.8060067"><ele>4.0</ele><time>2026-05-03T08:54:37.482Z</time></trkpt><trkpt lat="39.7497067" lon="15.8059667"><ele>3.75</ele><time>2026-05-03T08:54:38.482Z</time></trkpt><trkpt lat="39.7498467" lon="15.805925"><ele>3.5</ele><time>2026-05-03T08:54:39.481Z</time></trkpt><trkpt lat="39.74998" lon="15.8058883"><ele>3.25</ele><time>2026-05-03T08:54:40.483Z</time></trkpt><trkpt lat="39.7501033" lon="15.80585"><ele>3.0</ele><time>2026-05-03T08:54:41.484Z</time></trkpt><trkpt lat="39.7502183" lon="15.8058133"><ele>3.0</ele><time>2026-05-03T08:54:42.485Z</time></trkpt><trkpt lat="39.7503317" lon="15.805775"><ele>3.0</ele><time>2026-05-03T08:54:43.483Z</time></trkpt><trkpt lat="39.75045" lon="15.8057367"><ele>3.0</ele><time>2026-05-03T08:54:44.485Z</time></trkpt><trkpt lat="39.7505733" lon="15.8056983"><ele>3.0</ele><time>2026-05-03T08:54:45.483Z</time></trkpt><trkpt lat="39.7506933" lon="15.8056567"><ele>3.0</ele><time>2026-05-03T08:54:46.483Z</time></trkpt><trkpt lat="39.75081" lon="15.8056167"><ele>3.0</ele><time>2026-05-03T08:54:47.482Z</time></trkpt><trkpt lat="39.7509233" lon="15.80558"><ele>3.0</ele><time>2026-05-03T08:54:48.481Z</time></trkpt><trkpt lat="39.7510333" lon="15.8055433"><ele>3.0</ele><time>2026-05-03T08:54:49.482Z</time></trkpt><trkpt lat="39.751145" lon="15.8055067"><ele>3.25</ele><time>2026-05-03T08:54:50.483Z</time></trkpt><trkpt lat="39.7512567" lon="15.8054633"><ele>3.5</ele><time>2026-05-03T08:54:51.483Z</time></trkpt><trkpt lat="39.7513733" lon="15.80542"><ele>3.75</ele><time>2026-05-03T08:54:52.482Z</time></trkpt><trkpt lat="39.751495" lon="15.8053717"><ele>4.0</ele><time>2026-05-03T08:54:53.483Z</time></trkpt><trkpt lat="39.7516167" lon="15.8053183"><ele>4.0</ele><time>2026-05-03T08:54:54.483Z</time></trkpt><trkpt lat="39.75174" lon="15.805265"><ele>4.0</ele><time>2026-05-03T08:54:55.483Z</time></trkpt><trkpt lat="39.7518633" lon="15.8052133"><ele>4.0</ele><time>2026-05-03T08:54:56.482Z</time></trkpt><trkpt lat="39.7519833" lon="15.8051683"><ele>4.0</ele><time>2026-05-03T08:54:57.482Z</time></trkpt><trkpt lat="39.752095" lon="15.805125"><ele>4.0</ele><time>2026-05-03T08:54:58.483Z</time></trkpt><trkpt lat="39.7521983" lon="15.8050867"><ele>4.0</ele><time>2026-05-03T08:54:59.483Z</time></trkpt><trkpt lat="39.752295" lon="15.80505"><ele>4.0</ele><time>2026-05-03T08:55:00.482Z</time></trkpt><trkpt lat="39.7523833" lon="15.805015"><ele>4.0</ele><time>2026-05-03T08:55:01.484Z</time></trkpt><trkpt lat="39.7524683" lon="15.8049817"><ele>4.0</ele><time>2026-05-03T08:55:02.483Z</time></trkpt><trkpt lat="39.7525467" lon="15.8049567"><ele>3.9999999999999996</ele><time>2026-05-03T08:55:03.483Z</time></trkpt><trkpt lat="39.752615" lon="15.80493"><ele>4.0</ele><time>2026-05-03T08:55:04.483Z</time></trkpt><trkpt lat="39.7526817" lon="15.8048983"><ele>4.0</ele><time>2026-05-03T08:55:05.484Z</time></trkpt><trkpt lat="39.7527467" lon="15.8048733"><ele>4.0</ele><time>2026-05-03T08:55:06.482Z</time></trkpt><trkpt lat="39.7528383" lon="15.804845"><ele>3.9999999999999996</ele><time>2026-05-03T08:55:08.483Z</time></trkpt><trkpt lat="39.7529233" lon="15.8048183"><ele>4.0</ele><time>2026-05-03T08:55:13.483Z</time></trkpt><trkpt lat="39.7530183" lon="15.8047883"><ele>3.9999999999999996</ele><time>2026-05-03T08:55:15.484Z</time></trkpt><trkpt lat="39.753085" lon="15.8047683"><ele>4.0</ele><time>2026-05-03T08:55:16.482Z</time></trkpt><trkpt lat="39.7531667" lon="15.8047433"><ele>4.0</ele><time>2026-05-03T08:55:17.483Z</time></trkpt><trkpt lat="39.75325" lon="15.8047167"><ele>4.0</ele><time>2026-05-03T08:55:18.483Z</time></trkpt><trkpt lat="39.7533333" lon="15.804685"><ele>3.9999999999999996</ele><time>2026-05-03T08:55:19.483Z</time></trkpt><trkpt lat="39.753425" lon="15.8046483"><ele>4.0</ele><time>2026-05-03T08:55:20.483Z</time></trkpt><trkpt lat="39.7535217" lon="15.8046083"><ele>4.0</ele><time>2026-05-03T08:55:21.482Z</time></trkpt><trkpt lat="39.7536217" lon="15.804565"><ele>4.0</ele><time>2026-05-03T08:55:22.482Z</time></trkpt><trkpt lat="39.7537283" lon="15.8045183"><ele>4.0</ele><time>2026-05-03T08:55:23.482Z</time></trkpt><trkpt lat="39.7538467" lon="15.8044733"><ele>4.0</ele><time>2026-05-03T08:55:24.483Z</time></trkpt><trkpt lat="39.7539683" lon="15.804425"><ele>4.0</ele><time>2026-05-03T08:55:25.484Z</time></trkpt><trkpt lat="39.7540917" lon="15.804375"><ele>4.0</ele><time>2026-05-03T08:55:26.485Z</time></trkpt><trkpt lat="39.7542133" lon="15.8043233"><ele>4.0</ele><time>2026-05-03T08:55:27.484Z</time></trkpt><trkpt lat="39.7543333" lon="15.8042767"><ele>4.0</ele><time>2026-05-03T08:55:28.484Z</time></trkpt><trkpt lat="39.75445" lon="15.8042333"><ele>4.0</ele><time>2026-05-03T08:55:29.484Z</time></trkpt><trkpt lat="39.754565" lon="15.8041883"><ele>4.0</ele><time>2026-05-03T08:55:30.484Z</time></trkpt><trkpt lat="39.7546717" lon="15.8041467"><ele>4.0</ele><time>2026-05-03T08:55:31.483Z</time></trkpt><trkpt lat="39.7547817" lon="15.80411"><ele>4.0</ele><time>2026-05-03T08:55:32.484Z</time></trkpt><trkpt lat="39.75489" lon="15.8040717"><ele>4.0</ele><time>2026-05-03T08:55:33.485Z</time></trkpt><trkpt lat="39.7549967" lon="15.804035"><ele>4.0</ele><time>2026-05-03T08:55:34.483Z</time></trkpt><trkpt lat="39.755105" lon="15.803995"><ele>4.0</ele><time>2026-05-03T08:55:35.483Z</time></trkpt><trkpt lat="39.75522" lon="15.8039483"><ele>4.0</ele><time>2026-05-03T08:55:36.483Z</time></trkpt><trkpt lat="39.7553383" lon="15.8038967"><ele>4.0</ele><time>2026-05-03T08:55:37.484Z</time></trkpt><trkpt lat="39.755455" lon="15.8038433"><ele>4.0</ele><time>2026-05-03T08:55:38.485Z</time></trkpt><trkpt lat="39.7555767" lon="15.8037883"><ele>4.0</ele><time>2026-05-03T08:55:39.484Z</time></trkpt><trkpt lat="39.7557083" lon="15.8037317"><ele>4.0</ele><time>2026-05-03T08:55:40.483Z</time></trkpt><trkpt lat="39.7558533" lon="15.8036783"><ele>4.0</ele><time>2026-05-03T08:55:41.485Z</time></trkpt><trkpt lat="39.7560083" lon="15.803625"><ele>4.0</ele><time>2026-05-03T08:55:42.485Z</time></trkpt><trkpt lat="39.7561733" lon="15.80357"><ele>4.0</ele><time>2026-05-03T08:55:43.485Z</time></trkpt><trkpt lat="39.7563433" lon="15.8035083"><ele>4.333333333333333</ele><time>2026-05-03T08:55:44.483Z</time></trkpt><trkpt lat="39.7565233" lon="15.8034433"><ele>4.666666666666667</ele><time>2026-05-03T08:55:45.483Z</time></trkpt><trkpt lat="39.7567" lon="15.8033783"><ele>5.0</ele><time>2026-05-03T08:55:46.481Z</time></trkpt><trkpt lat="39.75687" lon="15.803315"><ele>5.0</ele><time>2026-05-03T08:55:47.482Z</time></trkpt><trkpt lat="39.7570383" lon="15.8032483"><ele>5.0</ele><time>2026-05-03T08:55:48.482Z</time></trkpt><trkpt lat="39.7572117" lon="15.8031817"><ele>5.0</ele><time>2026-05-03T08:55:49.482Z</time></trkpt><trkpt lat="39.757385" lon="15.8031117"><ele>5.0</ele><time>2026-05-03T08:55:50.482Z</time></trkpt><trkpt lat="39.7575583" lon="15.8030433"><ele>5.0</ele><time>2026-05-03T08:55:51.482Z</time></trkpt><trkpt lat="39.7577333" lon="15.8029783"><ele>5.0</ele><time>2026-05-03T08:55:52.481Z</time></trkpt><trkpt lat="39.7579033" lon="15.8029117"><ele>5.0</ele><time>2026-05-03T08:55:53.481Z</time></trkpt><trkpt lat="39.7580717" lon="15.802845"><ele>5.0</ele><time>2026-05-03T08:55:54.481Z</time></trkpt><trkpt lat="39.7582333" lon="15.8027817"><ele>5.0</ele><time>2026-05-03T08:55:55.483Z</time></trkpt><trkpt lat="39.7583933" lon="15.80272"><ele>4.666666666666667</ele><time>2026-05-03T08:55:56.484Z</time></trkpt><trkpt lat="39.7585583" lon="15.80266"><ele>4.333333333333333</ele><time>2026-05-03T08:55:57.483Z</time></trkpt><trkpt lat="39.7587233" lon="15.8026"><ele>4.0</ele><time>2026-05-03T08:55:58.483Z</time></trkpt><trkpt lat="39.7588817" lon="15.8025417"><ele>4.0</ele><time>2026-05-03T08:55:59.485Z</time></trkpt><trkpt lat="39.7590433" lon="15.802485"><ele>4.0</ele><time>2026-05-03T08:56:00.482Z</time></trkpt><trkpt lat="39.7592017" lon="15.8024283"><ele>4.0</ele><time>2026-05-03T08:56:01.482Z</time></trkpt><trkpt lat="39.7593583" lon="15.80237"><ele>4.0</ele><time>2026-05-03T08:56:02.482Z</time></trkpt><trkpt lat="39.7595133" lon="15.8023167"><ele>4.0</ele><time>2026-05-03T08:56:03.482Z</time></trkpt><trkpt lat="39.7596767" lon="15.8022667"><ele>4.0</ele><time>2026-05-03T08:56:04.482Z</time></trkpt><trkpt lat="39.7598467" lon="15.802225"><ele>4.0</ele><time>2026-05-03T08:56:05.481Z</time></trkpt><trkpt lat="39.7600167" lon="15.8021833"><ele>4.0</ele><time>2026-05-03T08:56:06.481Z</time></trkpt><trkpt lat="39.7601833" lon="15.8021433"><ele>4.0</ele><time>2026-05-03T08:56:07.483Z</time></trkpt><trkpt lat="39.7603417" lon="15.8021017"><ele>4.25</ele><time>2026-05-03T08:56:08.481Z</time></trkpt><trkpt lat="39.76049" lon="15.8020667"><ele>4.5</ele><time>2026-05-03T08:56:09.482Z</time></trkpt><trkpt lat="39.76063" lon="15.8020317"><ele>4.75</ele><time>2026-05-03T08:56:10.482Z</time></trkpt><trkpt lat="39.7607733" lon="15.8019933"><ele>5.0</ele><time>2026-05-03T08:56:11.483Z</time></trkpt><trkpt lat="39.76092" lon="15.8019617"><ele>5.0</ele><time>2026-05-03T08:56:12.482Z</time></trkpt><trkpt lat="39.7610733" lon="15.801935"><ele>5.0</ele><time>2026-05-03T08:56:13.482Z</time></trkpt><trkpt lat="39.761225" lon="15.80191"><ele>5.0</ele><time>2026-05-03T08:56:14.483Z</time></trkpt><trkpt lat="39.7613767" lon="15.8018883"><ele>5.0</ele><time>2026-05-03T08:56:15.482Z</time></trkpt><trkpt lat="39.7615283" lon="15.8018583"><ele>5.0</ele><time>2026-05-03T08:56:16.482Z</time></trkpt><trkpt lat="39.7616833" lon="15.801825"><ele>5.0</ele><time>2026-05-03T08:56:17.482Z</time></trkpt><trkpt lat="39.7618383" lon="15.80179"><ele>4.666666666666667</ele><time>2026-05-03T08:56:18.482Z</time></trkpt><trkpt lat="39.7619917" lon="15.801755"><ele>4.333333333333333</ele><time>2026-05-03T08:56:19.483Z</time></trkpt><trkpt lat="39.762145" lon="15.80172"><ele>4.0</ele><time>2026-05-03T08:56:20.484Z</time></trkpt><trkpt lat="39.762295" lon="15.8016883"><ele>4.0</ele><time>2026-05-03T08:56:21.484Z</time></trkpt><trkpt lat="39.7624367" lon="15.801655"><ele>4.0</ele><time>2026-05-03T08:56:22.483Z</time></trkpt><trkpt lat="39.762575" lon="15.8016283"><ele>4.0</ele><time>2026-05-03T08:56:23.485Z</time></trkpt><trkpt lat="39.7627117" lon="15.8016"><ele>4.0</ele><time>2026-05-03T08:56:24.482Z</time></trkpt><trkpt lat="39.7628567" lon="15.8015733"><ele>3.333333333333333</ele><time>2026-05-03T08:56:25.481Z</time></trkpt><trkpt lat="39.7630067" lon="15.8015483"><ele>2.6666666666666665</ele><time>2026-05-03T08:56:26.483Z</time></trkpt><trkpt lat="39.76316" lon="15.80152"><ele>2.0</ele><time>2026-05-03T08:56:27.482Z</time></trkpt><trkpt lat="39.7633167" lon="15.8014867"><ele>2.0</ele><time>2026-05-03T08:56:28.483Z</time></trkpt><trkpt lat="39.763475" lon="15.80145"><ele>2.0</ele><time>2026-05-03T08:56:29.484Z</time></trkpt><trkpt lat="39.763635" lon="15.8014167"><ele>2.0</ele><time>2026-05-03T08:56:30.486Z</time></trkpt><trkpt lat="39.7637967" lon="15.80139"><ele>2.0</ele><time>2026-05-03T08:56:31.484Z</time></trkpt><trkpt lat="39.76396" lon="15.8013633"><ele>2.0</ele><time>2026-05-03T08:56:32.484Z</time></trkpt><trkpt lat="39.764125" lon="15.80133"><ele>2.0</ele><time>2026-05-03T08:56:33.484Z</time></trkpt><trkpt lat="39.764295" lon="15.80129"><ele>1.6666666666666665</ele><time>2026-05-03T08:56:34.483Z</time></trkpt><trkpt lat="39.7644683" lon="15.8012483"><ele>1.3333333333333333</ele><time>2026-05-03T08:56:35.484Z</time></trkpt><trkpt lat="39.7646467" lon="15.8012033"><ele>1.0</ele><time>2026-05-03T08:56:36.483Z</time></trkpt><trkpt lat="39.7648333" lon="15.8011567"><ele>1.0</ele><time>2026-05-03T08:56:37.484Z</time></trkpt><trkpt lat="39.765025" lon="15.8011167"><ele>1.0</ele><time>2026-05-03T08:56:38.484Z</time></trkpt><trkpt lat="39.76522" lon="15.8010817"><ele>1.0</ele><time>2026-05-03T08:56:39.484Z</time></trkpt><trkpt lat="39.7654233" lon="15.8010467"><ele>1.3333333333333333</ele><time>2026-05-03T08:56:40.483Z</time></trkpt><trkpt lat="39.7656267" lon="15.80101"><ele>1.6666666666666665</ele><time>2026-05-03T08:56:41.484Z</time></trkpt><trkpt lat="39.76583" lon="15.8009683"><ele>2.0</ele><time>2026-05-03T08:56:42.483Z</time></trkpt><trkpt lat="39.7660267" lon="15.8009283"><ele>2.0</ele><time>2026-05-03T08:56:43.482Z</time></trkpt><trkpt lat="39.7662217" lon="15.8008833"><ele>2.0</ele><time>2026-05-03T08:56:44.483Z</time></trkpt><trkpt lat="39.7664167" lon="15.800835"><ele>2.0</ele><time>2026-05-03T08:56:45.483Z</time></trkpt><trkpt lat="39.7666083" lon="15.80079"><ele>2.0</ele><time>2026-05-03T08:56:46.482Z</time></trkpt><trkpt lat="39.7668" lon="15.8007467"><ele>2.0</ele><time>2026-05-03T08:56:47.481Z</time></trkpt><trkpt lat="39.7669917" lon="15.8007"><ele>2.0</ele><time>2026-05-03T08:56:48.481Z</time></trkpt><trkpt lat="39.7671883" lon="15.8006533"><ele>2.0</ele><time>2026-05-03T08:56:49.482Z</time></trkpt><trkpt lat="39.767385" lon="15.8006133"><ele>2.0</ele><time>2026-05-03T08:56:50.481Z</time></trkpt><trkpt lat="39.7675767" lon="15.800575"><ele>2.0</ele><time>2026-05-03T08:56:51.481Z</time></trkpt><trkpt lat="39.7677583" lon="15.8005433"><ele>2.0</ele><time>2026-05-03T08:56:52.482Z</time></trkpt><trkpt lat="39.7679317" lon="15.8005133"><ele>2.0</ele><time>2026-05-03T08:56:53.481Z</time></trkpt><trkpt lat="39.7680983" lon="15.800485"><ele>2.0</ele><time>2026-05-03T08:56:54.481Z</time></trkpt><trkpt lat="39.76826" lon="15.8004517"><ele>2.0</ele><time>2026-05-03T08:56:55.484Z</time></trkpt><trkpt lat="39.76842" lon="15.8004183"><ele>2.0</ele><time>2026-05-03T08:56:56.486Z</time></trkpt><trkpt lat="39.7685817" lon="15.8003833"><ele>2.0</ele><time>2026-05-03T08:56:57.483Z</time></trkpt><trkpt lat="39.7687433" lon="15.8003483"><ele>2.0</ele><time>2026-05-03T08:56:58.484Z</time></trkpt><trkpt lat="39.7689083" lon="15.800315"><ele>2.0</ele><time>2026-05-03T08:56:59.484Z</time></trkpt><trkpt lat="39.7690733" lon="15.8002817"><ele>2.0</ele><time>2026-05-03T08:57:00.484Z</time></trkpt><trkpt lat="39.769245" lon="15.80024"><ele>1.3333333333333333</ele><time>2026-05-03T08:57:01.485Z</time></trkpt><trkpt lat="39.7694283" lon="15.8001917"><ele>0.6666666666666666</ele><time>2026-05-03T08:57:02.484Z</time></trkpt><trkpt lat="39.769625" lon="15.8001367"><ele>0.0</ele><time>2026-05-03T08:57:03.483Z</time></trkpt><trkpt lat="39.7698333" lon="15.8000817"><ele>0.0</ele><time>2026-05-03T08:57:04.484Z</time></trkpt><trkpt lat="39.7700517" lon="15.8000267"><ele>0.0</ele><time>2026-05-03T08:57:05.483Z</time></trkpt><trkpt lat="39.7702767" lon="15.7999683"><ele>0.0</ele><time>2026-05-03T08:57:06.484Z</time></trkpt><trkpt lat="39.7705017" lon="15.7999033"><ele>0.0</ele><time>2026-05-03T08:57:07.485Z</time></trkpt><trkpt lat="39.7707267" lon="15.7998283"><ele>0.0</ele><time>2026-05-03T08:57:08.483Z</time></trkpt><trkpt lat="39.7709533" lon="15.7997517"><ele>0.0</ele><time>2026-05-03T08:57:09.482Z</time></trkpt><trkpt lat="39.77117" lon="15.7996717"><ele>0.0</ele><time>2026-05-03T08:57:10.484Z</time></trkpt><trkpt lat="39.7713767" lon="15.7995933"><ele>0.0</ele><time>2026-05-03T08:57:11.485Z</time></trkpt><trkpt lat="39.7715733" lon="15.7995183"><ele>0.0</ele><time>2026-05-03T08:57:12.483Z</time></trkpt><trkpt lat="39.7717617" lon="15.79945"><ele>0.6666666666666666</ele><time>2026-05-03T08:57:13.485Z</time></trkpt><trkpt lat="39.7719483" lon="15.7993817"><ele>1.3333333333333333</ele><time>2026-05-03T08:57:14.483Z</time></trkpt><trkpt lat="39.77213" lon="15.7993167"><ele>2.0</ele><time>2026-05-03T08:57:15.482Z</time></trkpt><trkpt lat="39.77231" lon="15.79925"><ele>2.0</ele><time>2026-05-03T08:57:16.481Z</time></trkpt><trkpt lat="39.7724933" lon="15.7991867"><ele>2.0</ele><time>2026-05-03T08:57:17.482Z</time></trkpt><trkpt lat="39.772675" lon="15.7991183"><ele>2.0</ele><time>2026-05-03T08:57:18.482Z</time></trkpt><trkpt lat="39.7728583" lon="15.7990483"><ele>2.0</ele><time>2026-05-03T08:57:19.482Z</time></trkpt><trkpt lat="39.7730417" lon="15.7989767"><ele>2.0</ele><time>2026-05-03T08:57:20.481Z</time></trkpt><trkpt lat="39.7732267" lon="15.798905"><ele>2.0</ele><time>2026-05-03T08:57:21.481Z</time></trkpt><trkpt lat="39.7734133" lon="15.7988383"><ele>2.0</ele><time>2026-05-03T08:57:22.481Z</time></trkpt><trkpt lat="39.7736017" lon="15.7987717"><ele>2.0</ele><time>2026-05-03T08:57:23.482Z</time></trkpt><trkpt lat="39.7737933" lon="15.798705"><ele>2.0</ele><time>2026-05-03T08:57:24.48Z</time></trkpt><trkpt lat="39.77399" lon="15.7986383"><ele>2.0</ele><time>2026-05-03T08:57:25.485Z</time></trkpt><trkpt lat="39.7741867" lon="15.7985683"><ele>2.0</ele><time>2026-05-03T08:57:26.484Z</time></trkpt><trkpt lat="39.77438" lon="15.7984967"><ele>2.0</ele><time>2026-05-03T08:57:27.484Z</time></trkpt><trkpt lat="39.77457" lon="15.7984267"><ele>2.0</ele><time>2026-05-03T08:57:28.484Z</time></trkpt><trkpt lat="39.7747567" lon="15.7983583"><ele>2.0</ele><time>2026-05-03T08:57:29.485Z</time></trkpt><trkpt lat="39.774935" lon="15.7982933"><ele>2.0</ele><time>2026-05-03T08:57:30.483Z</time></trkpt><trkpt lat="39.775105" lon="15.7982283"><ele>2.0</ele><time>2026-05-03T08:57:31.485Z</time></trkpt><trkpt lat="39.77527" lon="15.7981667"><ele>2.0</ele><time>2026-05-03T08:57:32.485Z</time></trkpt><trkpt lat="39.7754333" lon="15.798105"><ele>2.0</ele><time>2026-05-03T08:57:33.484Z</time></trkpt><trkpt lat="39.7756" lon="15.7980417"><ele>2.0</ele><time>2026-05-03T08:57:34.484Z</time></trkpt><trkpt lat="39.7757667" lon="15.7979817"><ele>2.0</ele><time>2026-05-03T08:57:35.485Z</time></trkpt><trkpt lat="39.7759367" lon="15.7979167"><ele>2.0</ele><time>2026-05-03T08:57:36.484Z</time></trkpt><trkpt lat="39.776115" lon="15.79785"><ele>1.6666666666666665</ele><time>2026-05-03T08:57:37.486Z</time></trkpt><trkpt lat="39.7763017" lon="15.797775"><ele>1.3333333333333333</ele><time>2026-05-03T08:57:38.483Z</time></trkpt><trkpt lat="39.7765017" lon="15.7976967"><ele>1.0</ele><time>2026-05-03T08:57:39.484Z</time></trkpt><trkpt lat="39.7767167" lon="15.797615"><ele>0.5</ele><time>2026-05-03T08:57:40.484Z</time></trkpt><trkpt lat="39.776945" lon="15.7975383"><ele>0.0</ele><time>2026-05-03T08:57:41.485Z</time></trkpt><trkpt lat="39.7771783" lon="15.7974633"><ele>0.0</ele><time>2026-05-03T08:57:42.483Z</time></trkpt><trkpt lat="39.777415" lon="15.797385"><ele>0.0</ele><time>2026-05-03T08:57:43.484Z</time></trkpt><trkpt lat="39.7776517" lon="15.7973017"><ele>0.0</ele><time>2026-05-03T08:57:44.485Z</time></trkpt><trkpt lat="39.7778867" lon="15.7972133"><ele>0.0</ele><time>2026-05-03T08:57:45.482Z</time></trkpt><trkpt lat="39.77812" lon="15.797125"><ele>0.0</ele><time>2026-05-03T08:57:46.482Z</time></trkpt><trkpt lat="39.77835" lon="15.7970367"><ele>0.0</ele><time>2026-05-03T08:57:47.481Z</time></trkpt><trkpt lat="39.7785833" lon="15.79695"><ele>0.0</ele><time>2026-05-03T08:57:48.482Z</time></trkpt><trkpt lat="39.77881" lon="15.7968667"><ele>0.0</ele><time>2026-05-03T08:57:49.481Z</time></trkpt><trkpt lat="39.77903" lon="15.7967833"><ele>0.5</ele><time>2026-05-03T08:57:50.482Z</time></trkpt><trkpt lat="39.77925" lon="15.7967067"><ele>1.0</ele><time>2026-05-03T08:57:51.482Z</time></trkpt><trkpt lat="39.7794683" lon="15.7966333"><ele>1.0</ele><time>2026-05-03T08:57:52.481Z</time></trkpt><trkpt lat="39.77969" lon="15.79656"><ele>1.0</ele><time>2026-05-03T08:57:53.482Z</time></trkpt><trkpt lat="39.7799133" lon="15.7964833"><ele>1.0</ele><time>2026-05-03T08:57:54.481Z</time></trkpt><trkpt lat="39.78013" lon="15.7964033"><ele>1.0</ele><time>2026-05-03T08:57:55.482Z</time></trkpt><trkpt lat="39.7803383" lon="15.7963233"><ele>1.0</ele><time>2026-05-03T08:57:56.481Z</time></trkpt><trkpt lat="39.7805433" lon="15.7962467"><ele>1.3333333333333333</ele><time>2026-05-03T08:57:57.482Z</time></trkpt><trkpt lat="39.78074" lon="15.796175"><ele>1.6666666666666665</ele><time>2026-05-03T08:57:58.482Z</time></trkpt><trkpt lat="39.7809267" lon="15.796105"><ele>2.0</ele><time>2026-05-03T08:57:59.484Z</time></trkpt><trkpt lat="39.78111" lon="15.79604"><ele>2.333333333333333</ele><time>2026-05-03T08:58:00.481Z</time></trkpt><trkpt lat="39.7812933" lon="15.795975"><ele>2.6666666666666665</ele><time>2026-05-03T08:58:01.48Z</time></trkpt><trkpt lat="39.78147" lon="15.7959117"><ele>3.0</ele><time>2026-05-03T08:58:02.481Z</time></trkpt><trkpt lat="39.7816417" lon="15.7958517"><ele>3.0</ele><time>2026-05-03T08:58:03.482Z</time></trkpt><trkpt lat="39.7818" lon="15.7957983"><ele>3.0</ele><time>2026-05-03T08:58:04.482Z</time></trkpt><trkpt lat="39.781945" lon="15.795755"><ele>3.0</ele><time>2026-05-03T08:58:05.482Z</time></trkpt><trkpt lat="39.7820667" lon="15.7957217"><ele>3.0</ele><time>2026-05-03T08:58:06.483Z</time></trkpt><trkpt lat="39.7821767" lon="15.795705"><ele>2.6666666666666665</ele><time>2026-05-03T08:58:07.482Z</time></trkpt><trkpt lat="39.7822683" lon="15.79571"><ele>2.3333333333333335</ele><time>2026-05-03T08:58:08.482Z</time></trkpt><trkpt lat="39.7823467" lon="15.7957267"><ele>2.0</ele><time>2026-05-03T08:58:09.482Z</time></trkpt><trkpt lat="39.7824183" lon="15.795755"><ele>1.6666666666666665</ele><time>2026-05-03T08:58:10.481Z</time></trkpt><trkpt lat="39.782485" lon="15.7957883"><ele>1.3333333333333333</ele><time>2026-05-03T08:58:11.481Z</time></trkpt><trkpt lat="39.7825567" lon="15.7958267"><ele>1.0</ele><time>2026-05-03T08:58:12.481Z</time></trkpt><trkpt lat="39.7826367" lon="15.79586"><ele>0.8</ele><time>2026-05-03T08:58:13.487Z</time></trkpt><trkpt lat="39.7827183" lon="15.7958733"><ele>0.6000000000000001</ele><time>2026-05-03T08:58:14.482Z</time></trkpt><trkpt lat="39.7828083" lon="15.7958417"><ele>0.4</ele><time>2026-05-03T08:58:15.483Z</time></trkpt><trkpt lat="39.78289" lon="15.7957617"><ele>0.2</ele><time>2026-05-03T08:58:16.482Z</time></trkpt><trkpt lat="39.7829583" lon="15.7956533"><ele>0.0</ele><time>2026-05-03T08:58:17.482Z</time></trkpt><trkpt lat="39.7830317" lon="15.7955517"><ele>0.0</ele><time>2026-05-03T08:58:18.482Z</time></trkpt><trkpt lat="39.7831083" lon="15.7954733"><ele>0.0</ele><time>2026-05-03T08:58:19.481Z</time></trkpt><trkpt lat="39.783195" lon="15.79542"><ele>0.0</ele><time>2026-05-03T08:58:20.482Z</time></trkpt><trkpt lat="39.7832883" lon="15.7953767"><ele>0.0</ele><time>2026-05-03T08:58:21.481Z</time></trkpt><trkpt lat="39.7833817" lon="15.79533"><ele>0.0</ele><time>2026-05-03T08:58:22.482Z</time></trkpt><trkpt lat="39.783475" lon="15.795285"><ele>0.0</ele><time>2026-05-03T08:58:23.481Z</time></trkpt><trkpt lat="39.7835783" lon="15.7952467"><ele>0.0</ele><time>2026-05-03T08:58:24.481Z</time></trkpt><trkpt lat="39.78369" lon="15.7952117"><ele>0.0</ele><time>2026-05-03T08:58:25.482Z</time></trkpt><trkpt lat="39.7838117" lon="15.7951817"><ele>0.0</ele><time>2026-05-03T08:58:26.482Z</time></trkpt><trkpt lat="39.7839267" lon="15.79516"><ele>0.0</ele><time>2026-05-03T08:58:27.482Z</time></trkpt><trkpt lat="39.784025" lon="15.7951417"><ele>0.0</ele><time>2026-05-03T08:58:28.481Z</time></trkpt><trkpt lat="39.78411" lon="15.79513"><ele>0.0</ele><time>2026-05-03T08:58:29.481Z</time></trkpt><trkpt lat="39.78419" lon="15.7951183"><ele>0.0</ele><time>2026-05-03T08:58:30.481Z</time></trkpt><trkpt lat="39.7842717" lon="15.795105"><ele>0.0</ele><time>2026-05-03T08:58:31.482Z</time></trkpt><trkpt lat="39.784355" lon="15.7950833"><ele>0.0</ele><time>2026-05-03T08:58:32.481Z</time></trkpt><trkpt lat="39.7844383" lon="15.795065"><ele>-0.16666666666666666</ele><time>2026-05-03T08:58:33.481Z</time></trkpt><trkpt lat="39.7845217" lon="15.7950433"><ele>-0.3333333333333333</ele><time>2026-05-03T08:58:34.481Z</time></trkpt><trkpt lat="39.7846033" lon="15.7950267"><ele>-0.5</ele><time>2026-05-03T08:58:35.482Z</time></trkpt><trkpt lat="39.7846883" lon="15.7950133"><ele>-0.6666666666666666</ele><time>2026-05-03T08:58:36.482Z</time></trkpt><trkpt lat="39.7847733" lon="15.794995"><ele>-0.8333333333333333</ele><time>2026-05-03T08:58:37.481Z</time></trkpt><trkpt lat="39.78486" lon="15.794975"><ele>-1.0</ele><time>2026-05-03T08:58:38.482Z</time></trkpt><trkpt lat="39.7849467" lon="15.7949567"><ele>-0.9999999999999999</ele><time>2026-05-03T08:58:39.482Z</time></trkpt><trkpt lat="39.785035" lon="15.7949417"><ele>-1.0</ele><time>2026-05-03T08:58:40.482Z</time></trkpt><trkpt lat="39.7851233" lon="15.7949267"><ele>-1.0</ele><time>2026-05-03T08:58:41.482Z</time></trkpt><trkpt lat="39.78521" lon="15.7949083"><ele>-1.0</ele><time>2026-05-03T08:58:42.482Z</time></trkpt><trkpt lat="39.7852983" lon="15.7948933"><ele>-0.9999999999999999</ele><time>2026-05-03T08:58:43.482Z</time></trkpt><trkpt lat="39.7853833" lon="15.79488"><ele>-1.0</ele><time>2026-05-03T08:58:44.481Z</time></trkpt><trkpt lat="39.7854667" lon="15.7948633"><ele>-0.6666666666666666</ele><time>2026-05-03T08:58:45.483Z</time></trkpt><trkpt lat="39.78555" lon="15.7948483"><ele>-0.3333333333333333</ele><time>2026-05-03T08:58:46.482Z</time></trkpt><trkpt lat="39.7856333" lon="15.7948333"><ele>0.0</ele><time>2026-05-03T08:58:47.482Z</time></trkpt><trkpt lat="39.7857133" lon="15.79482"><ele>0.3333333333333333</ele><time>2026-05-03T08:58:48.482Z</time></trkpt><trkpt lat="39.7857967" lon="15.7948067"><ele>0.6666666666666666</ele><time>2026-05-03T08:58:49.484Z</time></trkpt><trkpt lat="39.7858783" lon="15.7947917"><ele>1.0</ele><time>2026-05-03T08:58:50.483Z</time></trkpt><trkpt lat="39.7859583" lon="15.7947783"><ele>1.1666666666666665</ele><time>2026-05-03T08:58:51.482Z</time></trkpt><trkpt lat="39.7860433" lon="15.7947617"><ele>1.3333333333333333</ele><time>2026-05-03T08:58:52.481Z</time></trkpt><trkpt lat="39.7861267" lon="15.7947433"><ele>1.5</ele><time>2026-05-03T08:58:53.482Z</time></trkpt><trkpt lat="39.7862117" lon="15.79473"><ele>1.6666666666666665</ele><time>2026-05-03T08:58:54.482Z</time></trkpt><trkpt lat="39.7862967" lon="15.7947133"><ele>1.8333333333333333</ele><time>2026-05-03T08:58:55.483Z</time></trkpt><trkpt lat="39.7863817" lon="15.7946983"><ele>2.0</ele><time>2026-05-03T08:58:56.482Z</time></trkpt><trkpt lat="39.7864683" lon="15.7946817"><ele>1.9999999999999998</ele><time>2026-05-03T08:58:57.482Z</time></trkpt><trkpt lat="39.786555" lon="15.7946633"><ele>2.0</ele><time>2026-05-03T08:58:58.482Z</time></trkpt><trkpt lat="39.7866417" lon="15.7946467"><ele>2.0</ele><time>2026-05-03T08:58:59.482Z</time></trkpt><trkpt lat="39.7867267" lon="15.79463"><ele>2.0</ele><time>2026-05-03T08:59:00.481Z</time></trkpt><trkpt lat="39.7868067" lon="15.7946183"><ele>1.9999999999999998</ele><time>2026-05-03T08:59:01.481Z</time></trkpt><trkpt lat="39.7868733" lon="15.794615"><ele>2.0</ele><time>2026-05-03T08:59:02.483Z</time></trkpt><trkpt lat="39.7869717" lon="15.7946417"><ele>1.8333333333333333</ele><time>2026-05-03T08:59:04.482Z</time></trkpt><trkpt lat="39.7870533" lon="15.794685"><ele>1.6666666666666665</ele><time>2026-05-03T09:01:38.482Z</time></trkpt><trkpt lat="39.7871267" lon="15.7946783"><ele>1.5</ele><time>2026-05-03T09:01:42.482Z</time></trkpt><trkpt lat="39.7871683" lon="15.7946133"><ele>1.3333333333333333</ele><time>2026-05-03T09:01:45.482Z</time></trkpt><trkpt lat="39.7872433" lon="15.7945433"><ele>1.1666666666666665</ele><time>2026-05-03T09:01:55.483Z</time></trkpt><trkpt lat="39.7873183" lon="15.7945283"><ele>1.0</ele><time>2026-05-03T09:01:56.487Z</time></trkpt><trkpt lat="39.7874133" lon="15.79451"><ele>1.0</ele><time>2026-05-03T09:01:57.482Z</time></trkpt><trkpt lat="39.7875283" lon="15.794485"><ele>1.0</ele><time>2026-05-03T09:01:58.483Z</time></trkpt><trkpt lat="39.787655" lon="15.79446"><ele>1.0</ele><time>2026-05-03T09:01:59.483Z</time></trkpt><trkpt lat="39.7877917" lon="15.7944333"><ele>1.0</ele><time>2026-05-03T09:02:00.482Z</time></trkpt><trkpt lat="39.7879333" lon="15.7944033"><ele>1.25</ele><time>2026-05-03T09:02:01.481Z</time></trkpt><trkpt lat="39.7880833" lon="15.7943733"><ele>1.5</ele><time>2026-05-03T09:02:02.483Z</time></trkpt><trkpt lat="39.7882317" lon="15.7943433"><ele>1.75</ele><time>2026-05-03T09:02:03.482Z</time></trkpt><trkpt lat="39.7883683" lon="15.7943167"><ele>2.0</ele><time>2026-05-03T09:02:04.484Z</time></trkpt><trkpt lat="39.7884983" lon="15.79429"><ele>2.0</ele><time>2026-05-03T09:02:05.485Z</time></trkpt><trkpt lat="39.7886233" lon="15.7942717"><ele>2.0</ele><time>2026-05-03T09:02:06.483Z</time></trkpt><trkpt lat="39.7887433" lon="15.7942483"><ele>2.0</ele><time>2026-05-03T09:02:07.482Z</time></trkpt><trkpt lat="39.78886" lon="15.7942283"><ele>2.0</ele><time>2026-05-03T09:02:08.483Z</time></trkpt><trkpt lat="39.7889717" lon="15.7942083"><ele>2.0</ele><time>2026-05-03T09:02:09.482Z</time></trkpt><trkpt lat="39.7890783" lon="15.7941917"><ele>2.0</ele><time>2026-05-03T09:02:10.481Z</time></trkpt><trkpt lat="39.7891767" lon="15.7941767"><ele>2.0</ele><time>2026-05-03T09:02:11.484Z</time></trkpt><trkpt lat="39.7892667" lon="15.7941583"><ele>2.0</ele><time>2026-05-03T09:02:12.483Z</time></trkpt><trkpt lat="39.78935" lon="15.794145"><ele>2.0</ele><time>2026-05-03T09:02:13.484Z</time></trkpt><trkpt lat="39.7894317" lon="15.7941317"><ele>2.0</ele><time>2026-05-03T09:02:14.482Z</time></trkpt><trkpt lat="39.7895167" lon="15.7941183"><ele>2.0</ele><time>2026-05-03T09:02:15.483Z</time></trkpt><trkpt lat="39.789605" lon="15.7941017"><ele>2.0</ele><time>2026-05-03T09:02:16.482Z</time></trkpt><trkpt lat="39.789695" lon="15.7940817"><ele>2.0</ele><time>2026-05-03T09:02:17.483Z</time></trkpt><trkpt lat="39.78979" lon="15.79406"><ele>2.0</ele><time>2026-05-03T09:02:18.482Z</time></trkpt><trkpt lat="39.7898917" lon="15.79404"><ele>2.0</ele><time>2026-05-03T09:02:19.482Z</time></trkpt><trkpt lat="39.7900017" lon="15.794015"><ele>2.0</ele><time>2026-05-03T09:02:20.483Z</time></trkpt><trkpt lat="39.7901167" lon="15.7939933"><ele>2.0</ele><time>2026-05-03T09:02:21.481Z</time></trkpt><trkpt lat="39.7902383" lon="15.79397"><ele>2.0</ele><time>2026-05-03T09:02:22.483Z</time></trkpt><trkpt lat="39.790365" lon="15.7939433"><ele>1.75</ele><time>2026-05-03T09:02:23.483Z</time></trkpt><trkpt lat="39.7904983" lon="15.79392"><ele>1.5</ele><time>2026-05-03T09:02:24.482Z</time></trkpt><trkpt lat="39.790635" lon="15.7938967"><ele>1.25</ele><time>2026-05-03T09:02:25.482Z</time></trkpt><trkpt lat="39.790775" lon="15.7938733"><ele>1.0</ele><time>2026-05-03T09:02:26.482Z</time></trkpt><trkpt lat="39.7909183" lon="15.79385"><ele>1.0</ele><time>2026-05-03T09:02:27.482Z</time></trkpt><trkpt lat="39.7910617" lon="15.7938167"><ele>1.0</ele><time>2026-05-03T09:02:28.482Z</time></trkpt><trkpt lat="39.7912083" lon="15.793785"><ele>1.0</ele><time>2026-05-03T09:02:29.483Z</time></trkpt><trkpt lat="39.791355" lon="15.79376"><ele>1.0</ele><time>2026-05-03T09:02:30.483Z</time></trkpt><trkpt lat="39.7915067" lon="15.79373"><ele>1.0</ele><time>2026-05-03T09:02:31.482Z</time></trkpt><trkpt lat="39.7916617" lon="15.7937"><ele>1.0</ele><time>2026-05-03T09:02:32.482Z</time></trkpt><trkpt lat="39.79182" lon="15.7936683"><ele>1.0</ele><time>2026-05-03T09:02:33.482Z</time></trkpt><trkpt lat="39.79198" lon="15.7936383"><ele>1.0</ele><time>2026-05-03T09:02:34.482Z</time></trkpt><trkpt lat="39.7921333" lon="15.7936067"><ele>1.0</ele><time>2026-05-03T09:02:35.483Z</time></trkpt><trkpt lat="39.7922867" lon="15.7935733"><ele>1.0</ele><time>2026-05-03T09:02:36.483Z</time></trkpt><trkpt lat="39.7924517" lon="15.793535"><ele>1.3333333333333333</ele><time>2026-05-03T09:02:37.483Z</time></trkpt><trkpt lat="39.7926367" lon="15.7934967"><ele>1.6666666666666665</ele><time>2026-05-03T09:02:38.484Z</time></trkpt><trkpt lat="39.79284" lon="15.793465"><ele>2.0</ele><time>2026-05-03T09:02:39.482Z</time></trkpt><trkpt lat="39.7930467" lon="15.7934367"><ele>2.0</ele><time>2026-05-03T09:02:40.483Z</time></trkpt><trkpt lat="39.7932533" lon="15.7934017"><ele>2.0</ele><time>2026-05-03T09:02:41.482Z</time></trkpt><trkpt lat="39.7934583" lon="15.7933617"><ele>2.0</ele><time>2026-05-03T09:02:42.483Z</time></trkpt><trkpt lat="39.793665" lon="15.79332"><ele>2.0</ele><time>2026-05-03T09:02:43.483Z</time></trkpt><trkpt lat="39.7938717" lon="15.7932817"><ele>2.0</ele><time>2026-05-03T09:02:44.483Z</time></trkpt><trkpt lat="39.7940783" lon="15.7932417"><ele>2.0</ele><time>2026-05-03T09:02:45.483Z</time></trkpt><trkpt lat="39.7942867" lon="15.7932017"><ele>2.333333333333333</ele><time>2026-05-03T09:02:46.483Z</time></trkpt><trkpt lat="39.7944933" lon="15.7931583"><ele>2.6666666666666665</ele><time>2026-05-03T09:02:47.483Z</time></trkpt><trkpt lat="39.7947033" lon="15.7931117"><ele>3.0</ele><time>2026-05-03T09:02:48.482Z</time></trkpt><trkpt lat="39.7949233" lon="15.793065"><ele>3.0</ele><time>2026-05-03T09:02:49.483Z</time></trkpt><trkpt lat="39.7951467" lon="15.79302"><ele>3.0</ele><time>2026-05-03T09:02:50.482Z</time></trkpt><trkpt lat="39.7953617" lon="15.7929833"><ele>3.0</ele><time>2026-05-03T09:02:51.483Z</time></trkpt><trkpt lat="39.7955617" lon="15.7929467"><ele>2.6666666666666665</ele><time>2026-05-03T09:02:52.484Z</time></trkpt><trkpt lat="39.7957533" lon="15.7929067"><ele>2.333333333333333</ele><time>2026-05-03T09:02:53.481Z</time></trkpt><trkpt lat="39.7959417" lon="15.7928667"><ele>2.0</ele><time>2026-05-03T09:02:54.482Z</time></trkpt><trkpt lat="39.7961333" lon="15.7928233"><ele>2.0</ele><time>2026-05-03T09:02:55.483Z</time></trkpt><trkpt lat="39.7963267" lon="15.7927783"><ele>2.0</ele><time>2026-05-03T09:02:56.483Z</time></trkpt><trkpt lat="39.7965217" lon="15.79273"><ele>2.0</ele><time>2026-05-03T09:02:57.482Z</time></trkpt><trkpt lat="39.7967183" lon="15.7926833"><ele>2.0</ele><time>2026-05-03T09:02:58.484Z</time></trkpt><trkpt lat="39.7969117" lon="15.792635"><ele>2.0</ele><time>2026-05-03T09:02:59.482Z</time></trkpt><trkpt lat="39.797105" lon="15.7925867"><ele>2.0</ele><time>2026-05-03T09:03:00.483Z</time></trkpt><trkpt lat="39.797295" lon="15.7925383"><ele>2.0</ele><time>2026-05-03T09:03:01.482Z</time></trkpt><trkpt lat="39.7974817" lon="15.7924883"><ele>2.0</ele><time>2026-05-03T09:03:02.483Z</time></trkpt><trkpt lat="39.7976617" lon="15.79244"><ele>2.0</ele><time>2026-05-03T09:03:03.482Z</time></trkpt><trkpt lat="39.79783" lon="15.79239"><ele>2.6666666666666665</ele><time>2026-05-03T09:03:04.483Z</time></trkpt><trkpt lat="39.7979867" lon="15.7923433"><ele>3.333333333333333</ele><time>2026-05-03T09:03:05.484Z</time></trkpt><trkpt lat="39.7981367" lon="15.7923"><ele>4.0</ele><time>2026-05-03T09:03:06.485Z</time></trkpt><trkpt lat="39.79828" lon="15.79226"><ele>4.0</ele><time>2026-05-03T09:03:07.483Z</time></trkpt><trkpt lat="39.7984167" lon="15.7922183"><ele>4.0</ele><time>2026-05-03T09:03:08.482Z</time></trkpt><trkpt lat="39.7985433" lon="15.7921817"><ele>4.0</ele><time>2026-05-03T09:03:09.482Z</time></trkpt><trkpt lat="39.79866" lon="15.7921467"><ele>4.0</ele><time>2026-05-03T09:03:10.481Z</time></trkpt><trkpt lat="39.79877" lon="15.792115"><ele>3.5</ele><time>2026-05-03T09:03:11.481Z</time></trkpt><trkpt lat="39.7988783" lon="15.7920833"><ele>3.0</ele><time>2026-05-03T09:03:12.483Z</time></trkpt><trkpt lat="39.7989917" lon="15.7920533"><ele>2.5</ele><time>2026-05-03T09:03:13.482Z</time></trkpt><trkpt lat="39.7991083" lon="15.79202"><ele>2.0</ele><time>2026-05-03T09:03:14.483Z</time></trkpt><trkpt lat="39.7992317" lon="15.7919867"><ele>2.0</ele><time>2026-05-03T09:03:15.482Z</time></trkpt><trkpt lat="39.7993583" lon="15.7919467"><ele>2.0</ele><time>2026-05-03T09:03:16.483Z</time></trkpt><trkpt lat="39.7994833" lon="15.7919083"><ele>2.0</ele><time>2026-05-03T09:03:17.483Z</time></trkpt><trkpt lat="39.7996083" lon="15.7918683"><ele>2.0</ele><time>2026-05-03T09:03:18.481Z</time></trkpt><trkpt lat="39.7997333" lon="15.7918333"><ele>2.5</ele><time>2026-05-03T09:03:19.484Z</time></trkpt><trkpt lat="39.79986" lon="15.7917933"><ele>3.0</ele><time>2026-05-03T09:03:20.482Z</time></trkpt><trkpt lat="39.799985" lon="15.7917533"><ele>3.5</ele><time>2026-05-03T09:03:21.483Z</time></trkpt><trkpt lat="39.8001117" lon="15.7917133"><ele>4.0</ele><time>2026-05-03T09:03:22.484Z</time></trkpt><trkpt lat="39.8002383" lon="15.7916717"><ele>4.5</ele><time>2026-05-03T09:03:23.484Z</time></trkpt><trkpt lat="39.8003667" lon="15.7916333"><ele>5.0</ele><time>2026-05-03T09:03:24.483Z</time></trkpt><trkpt lat="39.800495" lon="15.7915933"><ele>5.5</ele><time>2026-05-03T09:03:25.483Z</time></trkpt><trkpt lat="39.8006217" lon="15.7915567"><ele>6.0</ele><time>2026-05-03T09:03:26.484Z</time></trkpt><trkpt lat="39.80075" lon="15.7915167"><ele>6.0</ele><time>2026-05-03T09:03:27.482Z</time></trkpt><trkpt lat="39.8008767" lon="15.79148"><ele>6.0</ele><time>2026-05-03T09:03:28.483Z</time></trkpt><trkpt lat="39.8010033" lon="15.7914417"><ele>6.0</ele><time>2026-05-03T09:03:29.482Z</time></trkpt><trkpt lat="39.8011283" lon="15.7914017"><ele>6.0</ele><time>2026-05-03T09:03:30.482Z</time></trkpt><trkpt lat="39.801255" lon="15.7913633"><ele>6.0</ele><time>2026-05-03T09:03:31.484Z</time></trkpt><trkpt lat="39.80138" lon="15.7913233"><ele>6.0</ele><time>2026-05-03T09:03:32.483Z</time></trkpt><trkpt lat="39.8015033" lon="15.791285"><ele>6.0</ele><time>2026-05-03T09:03:33.481Z</time></trkpt><trkpt lat="39.8016233" lon="15.7912483"><ele>6.0</ele><time>2026-05-03T09:03:34.483Z</time></trkpt><trkpt lat="39.8017433" lon="15.791215"><ele>6.0</ele><time>2026-05-03T09:03:35.483Z</time></trkpt><trkpt lat="39.8018633" lon="15.79118"><ele>6.0</ele><time>2026-05-03T09:03:36.482Z</time></trkpt><trkpt lat="39.8019867" lon="15.7911417"><ele>6.0</ele><time>2026-05-03T09:03:37.483Z</time></trkpt><trkpt lat="39.8021117" lon="15.791105"><ele>6.0</ele><time>2026-05-03T09:03:38.483Z</time></trkpt><trkpt lat="39.8022383" lon="15.7910717"><ele>6.0</ele><time>2026-05-03T09:03:39.483Z</time></trkpt><trkpt lat="39.802365" lon="15.79104"><ele>6.0</ele><time>2026-05-03T09:03:40.484Z</time></trkpt><trkpt lat="39.80249" lon="15.7910083"><ele>6.0</ele><time>2026-05-03T09:03:41.483Z</time></trkpt><trkpt lat="39.8026167" lon="15.79098"><ele>6.0</ele><time>2026-05-03T09:03:42.482Z</time></trkpt><trkpt lat="39.8027467" lon="15.7909517"><ele>6.0</ele><time>2026-05-03T09:03:43.488Z</time></trkpt><trkpt lat="39.8028767" lon="15.7909183"><ele>6.0</ele><time>2026-05-03T09:03:44.486Z</time></trkpt><trkpt lat="39.80301" lon="15.79089"><ele>6.0</ele><time>2026-05-03T09:03:45.482Z</time></trkpt><trkpt lat="39.8031383" lon="15.790865"><ele>6.0</ele><time>2026-05-03T09:03:46.483Z</time></trkpt><trkpt lat="39.8032633" lon="15.7908433"><ele>6.0</ele><time>2026-05-03T09:03:47.482Z</time></trkpt><trkpt lat="39.8033833" lon="15.7908217"><ele>6.0</ele><time>2026-05-03T09:03:48.481Z</time></trkpt><trkpt lat="39.8035" lon="15.7908"><ele>6.0</ele><time>2026-05-03T09:03:49.483Z</time></trkpt><trkpt lat="39.8036133" lon="15.7907833"><ele>6.0</ele><time>2026-05-03T09:03:50.484Z</time></trkpt><trkpt lat="39.803725" lon="15.790765"><ele>6.0</ele><time>2026-05-03T09:03:51.483Z</time></trkpt><trkpt lat="39.8038367" lon="15.7907467"><ele>6.0</ele><time>2026-05-03T09:03:52.482Z</time></trkpt><trkpt lat="39.8039483" lon="15.790735"><ele>6.0</ele><time>2026-05-03T09:03:53.482Z</time></trkpt><trkpt lat="39.8040617" lon="15.7907167"><ele>6.0</ele><time>2026-05-03T09:03:54.482Z</time></trkpt><trkpt lat="39.80417" lon="15.7906983"><ele>6.0</ele><time>2026-05-03T09:03:55.484Z</time></trkpt><trkpt lat="39.8042767" lon="15.790685"><ele>5.3999999999999995</ele><time>2026-05-03T09:03:56.483Z</time></trkpt><trkpt lat="39.8043817" lon="15.7906717"><ele>4.8</ele><time>2026-05-03T09:03:57.481Z</time></trkpt><trkpt lat="39.8044833" lon="15.79066"><ele>4.199999999999999</ele><time>2026-05-03T09:03:58.482Z</time></trkpt><trkpt lat="39.8045833" lon="15.79065"><ele>3.5999999999999996</ele><time>2026-05-03T09:03:59.486Z</time></trkpt><trkpt lat="39.804685" lon="15.7906467"><ele>3.0</ele><time>2026-05-03T09:04:00.483Z</time></trkpt><trkpt lat="39.8047883" lon="15.7906417"><ele>3.0</ele><time>2026-05-03T09:04:01.483Z</time></trkpt><trkpt lat="39.804895" lon="15.7906283"><ele>3.0</ele><time>2026-05-03T09:04:02.482Z</time></trkpt><trkpt lat="39.8050033" lon="15.7906133"><ele>3.0</ele><time>2026-05-03T09:04:03.483Z</time></trkpt><trkpt lat="39.8051117" lon="15.7905983"><ele>3.0</ele><time>2026-05-03T09:04:04.483Z</time></trkpt><trkpt lat="39.8052267" lon="15.790585"><ele>3.0</ele><time>2026-05-03T09:04:05.483Z</time></trkpt><trkpt lat="39.8053417" lon="15.79057"><ele>3.25</ele><time>2026-05-03T09:04:06.483Z</time></trkpt><trkpt lat="39.8054583" lon="15.7905567"><ele>3.5</ele><time>2026-05-03T09:04:07.482Z</time></trkpt><trkpt lat="39.8055767" lon="15.7905433"><ele>3.75</ele><time>2026-05-03T09:04:08.483Z</time></trkpt><trkpt lat="39.8056983" lon="15.79053"><ele>4.0</ele><time>2026-05-03T09:04:09.482Z</time></trkpt><trkpt lat="39.8058217" lon="15.7905183"><ele>4.0</ele><time>2026-05-03T09:04:10.484Z</time></trkpt><trkpt lat="39.805945" lon="15.790505"><ele>4.0</ele><time>2026-05-03T09:04:11.481Z</time></trkpt><trkpt lat="39.80606" lon="15.7904933"><ele>4.0</ele><time>2026-05-03T09:04:12.482Z</time></trkpt><trkpt lat="39.806155" lon="15.790485"><ele>4.0</ele><time>2026-05-03T09:04:13.484Z</time></trkpt><trkpt lat="39.806225" lon="15.7904783"><ele>4.0</ele><time>2026-05-03T09:04:14.483Z</time></trkpt><trkpt lat="39.8063333" lon="15.7904733"><ele>4.0</ele><time>2026-05-03T09:04:16.482Z</time></trkpt><trkpt lat="39.8064533" lon="15.7904483"><ele>4.0</ele><time>2026-05-03T09:04:18.481Z</time></trkpt><trkpt lat="39.8065367" lon="15.7904383"><ele>4.0</ele><time>2026-05-03T09:04:19.482Z</time></trkpt><trkpt lat="39.80663" lon="15.7904267"><ele>4.0</ele><time>2026-05-03T09:04:20.482Z</time></trkpt><trkpt lat="39.806735" lon="15.7904133"><ele>4.0</ele><time>2026-05-03T09:04:21.482Z</time></trkpt><trkpt lat="39.8068517" lon="15.7903983"><ele>4.0</ele><time>2026-05-03T09:04:22.481Z</time></trkpt><trkpt lat="39.806975" lon="15.790385"><ele>4.0</ele><time>2026-05-03T09:04:23.482Z</time></trkpt><trkpt lat="39.8071067" lon="15.7903683"><ele>4.0</ele><time>2026-05-03T09:04:24.482Z</time></trkpt><trkpt lat="39.80724" lon="15.7903517"><ele>4.0</ele><time>2026-05-03T09:04:25.482Z</time></trkpt><trkpt lat="39.8073633" lon="15.7903367"><ele>3.9999999999999996</ele><time>2026-05-03T09:04:26.482Z</time></trkpt><trkpt lat="39.80746" lon="15.790325"><ele>4.0</ele><time>2026-05-03T09:04:27.482Z</time></trkpt><trkpt lat="39.8075283" lon="15.7903117"><ele>4.0</ele><time>2026-05-03T09:04:28.483Z</time></trkpt><trkpt lat="39.8076233" lon="15.7903067"><ele>4.0</ele><time>2026-05-03T09:04:30.481Z</time></trkpt><trkpt lat="39.80773" lon="15.7902983"><ele>3.9999999999999996</ele><time>2026-05-03T09:04:32.483Z</time></trkpt><trkpt lat="39.8077983" lon="15.790295"><ele>4.0</ele><time>2026-05-03T09:04:33.483Z</time></trkpt><trkpt lat="39.8078717" lon="15.7902883"><ele>4.333333333333333</ele><time>2026-05-03T09:04:34.482Z</time></trkpt><trkpt lat="39.8079533" lon="15.7902783"><ele>4.666666666666666</ele><time>2026-05-03T09:04:35.482Z</time></trkpt><trkpt lat="39.8080367" lon="15.7902733"><ele>5.0</ele><time>2026-05-03T09:04:36.483Z</time></trkpt><trkpt lat="39.8081167" lon="15.7902617"><ele>5.333333333333333</ele><time>2026-05-03T09:04:37.481Z</time></trkpt><trkpt lat="39.8081917" lon="15.790255"><ele>5.666666666666667</ele><time>2026-05-03T09:04:38.483Z</time></trkpt><trkpt lat="39.8082667" lon="15.790245"><ele>6.0</ele><time>2026-05-03T09:04:39.481Z</time></trkpt><trkpt lat="39.80834" lon="15.7902383"><ele>6.0</ele><time>2026-05-03T09:04:40.483Z</time></trkpt><trkpt lat="39.80841" lon="15.7902333"><ele>6.0</ele><time>2026-05-03T09:04:41.482Z</time></trkpt><trkpt lat="39.808475" lon="15.79023"><ele>6.0</ele><time>2026-05-03T09:04:42.483Z</time></trkpt><trkpt lat="39.80854" lon="15.790225"><ele>6.0</ele><time>2026-05-03T09:04:43.481Z</time></trkpt><trkpt lat="39.8086033" lon="15.7902133"><ele>6.0</ele><time>2026-05-03T09:04:44.482Z</time></trkpt><trkpt lat="39.8087183" lon="15.7902"><ele>6.0</ele><time>2026-05-03T09:04:46.482Z</time></trkpt><trkpt lat="39.8088183" lon="15.7901983"><ele>5.8</ele><time>2026-05-03T09:04:48.481Z</time></trkpt><trkpt lat="39.80891" lon="15.7901933"><ele>5.6</ele><time>2026-05-03T09:04:50.481Z</time></trkpt><trkpt lat="39.809005" lon="15.7901783"><ele>5.4</ele><time>2026-05-03T09:04:52.482Z</time></trkpt><trkpt lat="39.8091033" lon="15.7901617"><ele>5.2</ele><time>2026-05-03T09:04:54.482Z</time></trkpt><trkpt lat="39.8091983" lon="15.79015"><ele>5.0</ele><time>2026-05-03T09:04:56.482Z</time></trkpt><trkpt lat="39.80929" lon="15.7901367"><ele>5.5</ele><time>2026-05-03T09:04:58.482Z</time></trkpt><trkpt lat="39.809365" lon="15.79013"><ele>6.0</ele><time>2026-05-03T09:05:00.48Z</time></trkpt><trkpt lat="39.8094483" lon="15.7901283"><ele>6.5</ele><time>2026-05-03T09:05:03.48Z</time></trkpt><trkpt lat="39.809525" lon="15.79012"><ele>7.0</ele><time>2026-05-03T09:05:05.482Z</time></trkpt><trkpt lat="39.8096217" lon="15.7901233"><ele>7.499999999999999</ele><time>2026-05-03T09:05:07.482Z</time></trkpt><trkpt lat="39.809715" lon="15.79012"><ele>8.0</ele><time>2026-05-03T09:05:09.481Z</time></trkpt><trkpt lat="39.8097933" lon="15.7901117"><ele>7.999999999999999</ele><time>2026-05-03T09:05:11.482Z</time></trkpt><trkpt lat="39.8098733" lon="15.7901033"><ele>8.0</ele><time>2026-05-03T09:05:13.484Z</time></trkpt><trkpt lat="39.8099533" lon="15.7901017"><ele>8.0</ele><time>2026-05-03T09:05:15.482Z</time></trkpt><trkpt lat="39.8100267" lon="15.790095"><ele>8.0</ele><time>2026-05-03T09:05:17.481Z</time></trkpt><trkpt lat="39.8101033" lon="15.790095"><ele>7.999999999999999</ele><time>2026-05-03T09:05:19.484Z</time></trkpt><trkpt lat="39.810175" lon="15.7900833"><ele>8.0</ele><time>2026-05-03T09:05:21.483Z</time></trkpt><trkpt lat="39.8102583" lon="15.7900667"><ele>7.999999999999999</ele><time>2026-05-03T09:05:23.484Z</time></trkpt><trkpt lat="39.8103533" lon="15.7900483"><ele>8.0</ele><time>2026-05-03T09:05:25.483Z</time></trkpt><trkpt lat="39.8104483" lon="15.7900383"><ele>8.0</ele><time>2026-05-03T09:05:27.483Z</time></trkpt><trkpt lat="39.8105467" lon="15.7900333"><ele>8.0</ele><time>2026-05-03T09:05:29.482Z</time></trkpt><trkpt lat="39.81061" lon="15.7900267"><ele>7.999999999999999</ele><time>2026-05-03T09:05:30.482Z</time></trkpt><trkpt lat="39.8106733" lon="15.7900183"><ele>8.0</ele><time>2026-05-03T09:05:31.483Z</time></trkpt><trkpt lat="39.8107417" lon="15.7900117"><ele>7.999999999999999</ele><time>2026-05-03T09:05:32.482Z</time></trkpt><trkpt lat="39.81081" lon="15.79"><ele>8.0</ele><time>2026-05-03T09:05:33.482Z</time></trkpt><trkpt lat="39.8108983" lon="15.7899933"><ele>8.0</ele><time>2026-05-03T09:05:34.481Z</time></trkpt><trkpt lat="39.8109833" lon="15.789985"><ele>8.0</ele><time>2026-05-03T09:05:35.48Z</time></trkpt><trkpt lat="39.81106" lon="15.7899733"><ele>7.999999999999999</ele><time>2026-05-03T09:05:36.482Z</time></trkpt><trkpt lat="39.81113" lon="15.78997"><ele>8.0</ele><time>2026-05-03T09:05:37.482Z</time></trkpt><trkpt lat="39.811195" lon="15.7899633"><ele>7.4</ele><time>2026-05-03T09:05:38.484Z</time></trkpt><trkpt lat="39.8113183" lon="15.7899483"><ele>6.800000000000001</ele><time>2026-05-03T09:05:40.482Z</time></trkpt><trkpt lat="39.8113817" lon="15.7899417"><ele>6.2</ele><time>2026-05-03T09:05:41.481Z</time></trkpt><trkpt lat="39.81145" lon="15.789935"><ele>5.6</ele><time>2026-05-03T09:05:42.482Z</time></trkpt><trkpt lat="39.8115783" lon="15.789925"><ele>5.0</ele><time>2026-05-03T09:05:44.484Z</time></trkpt><trkpt lat="39.8116483" lon="15.7899267"><ele>5.0</ele><time>2026-05-03T09:05:45.484Z</time></trkpt><trkpt lat="39.8117117" lon="15.7899233"><ele>5.0</ele><time>2026-05-03T09:05:46.481Z</time></trkpt><trkpt lat="39.811775" lon="15.789915"><ele>5.0</ele><time>2026-05-03T09:05:47.482Z</time></trkpt><trkpt lat="39.8118467" lon="15.7899067"><ele>5.0</ele><time>2026-05-03T09:05:48.482Z</time></trkpt><trkpt lat="39.811925" lon="15.7898933"><ele>5.0</ele><time>2026-05-03T09:05:49.483Z</time></trkpt><trkpt lat="39.81201" lon="15.7898767"><ele>5.0</ele><time>2026-05-03T09:05:50.482Z</time></trkpt><trkpt lat="39.8121033" lon="15.78985"><ele>4.5</ele><time>2026-05-03T09:05:51.482Z</time></trkpt><trkpt lat="39.8122067" lon="15.7898183"><ele>4.0</ele><time>2026-05-03T09:05:52.481Z</time></trkpt><trkpt lat="39.81232" lon="15.7897817"><ele>3.5</ele><time>2026-05-03T09:05:53.482Z</time></trkpt><trkpt lat="39.8124433" lon="15.7897483"><ele>3.0</ele><time>2026-05-03T09:05:54.481Z</time></trkpt><trkpt lat="39.8125633" lon="15.7897117"><ele>3.25</ele><time>2026-05-03T09:05:55.481Z</time></trkpt><trkpt lat="39.8126817" lon="15.7896717"><ele>3.5</ele><time>2026-05-03T09:05:56.482Z</time></trkpt><trkpt lat="39.8127967" lon="15.78963"><ele>3.75</ele><time>2026-05-03T09:05:57.482Z</time></trkpt><trkpt lat="39.8129033" lon="15.789585"><ele>4.0</ele><time>2026-05-03T09:05:58.481Z</time></trkpt><trkpt lat="39.8129983" lon="15.7895367"><ele>3.9999999999999996</ele><time>2026-05-03T09:05:59.481Z</time></trkpt><trkpt lat="39.8130867" lon="15.78949"><ele>4.0</ele><time>2026-05-03T09:06:00.481Z</time></trkpt><trkpt lat="39.8131683" lon="15.789445"><ele>4.0</ele><time>2026-05-03T09:06:01.481Z</time></trkpt><trkpt lat="39.8132517" lon="15.789405"><ele>4.0</ele><time>2026-05-03T09:06:02.482Z</time></trkpt><trkpt lat="39.813335" lon="15.789365"><ele>3.9999999999999996</ele><time>2026-05-03T09:06:03.482Z</time></trkpt><trkpt lat="39.813415" lon="15.789325"><ele>4.0</ele><time>2026-05-03T09:06:04.481Z</time></trkpt><trkpt lat="39.81349" lon="15.78928"><ele>4.2</ele><time>2026-05-03T09:06:05.482Z</time></trkpt><trkpt lat="39.8135583" lon="15.7892383"><ele>4.4</ele><time>2026-05-03T09:06:06.481Z</time></trkpt><trkpt lat="39.8136217" lon="15.7891983"><ele>4.6</ele><time>2026-05-03T09:06:07.482Z</time></trkpt><trkpt lat="39.8136783" lon="15.78916"><ele>4.8</ele><time>2026-05-03T09:06:08.482Z</time></trkpt><trkpt lat="39.813785" lon="15.7890833"><ele>5.0</ele><time>2026-05-03T09:06:10.482Z</time></trkpt><trkpt lat="39.8139017" lon="15.788995"><ele>5.0</ele><time>2026-05-03T09:06:12.485Z</time></trkpt><trkpt lat="39.8139733" lon="15.788945"><ele>5.0</ele><time>2026-05-03T09:06:13.482Z</time></trkpt><trkpt lat="39.81405" lon="15.788895"><ele>5.0</ele><time>2026-05-03T09:06:14.482Z</time></trkpt><trkpt lat="39.81413" lon="15.7888467"><ele>5.0</ele><time>2026-05-03T09:06:15.483Z</time></trkpt><trkpt lat="39.8142133" lon="15.7887983"><ele>5.0</ele><time>2026-05-03T09:06:16.482Z</time></trkpt><trkpt lat="39.8143017" lon="15.7887483"><ele>5.0</ele><time>2026-05-03T09:06:17.482Z</time></trkpt><trkpt lat="39.814395" lon="15.7886917"><ele>4.75</ele><time>2026-05-03T09:06:18.481Z</time></trkpt><trkpt lat="39.8144967" lon="15.7886267"><ele>4.5</ele><time>2026-05-03T09:06:19.483Z</time></trkpt><trkpt lat="39.814605" lon="15.788555"><ele>4.25</ele><time>2026-05-03T09:06:20.483Z</time></trkpt><trkpt lat="39.8147133" lon="15.7884867"><ele>4.0</ele><time>2026-05-03T09:06:21.484Z</time></trkpt><trkpt lat="39.8148033" lon="15.7884317"><ele>3.9999999999999996</ele><time>2026-05-03T09:06:22.48Z</time></trkpt><trkpt lat="39.81488" lon="15.7883867"><ele>4.0</ele><time>2026-05-03T09:06:23.483Z</time></trkpt><trkpt lat="39.814955" lon="15.78834"><ele>4.0</ele><time>2026-05-03T09:06:24.482Z</time></trkpt><trkpt lat="39.8150367" lon="15.78829"><ele>4.0</ele><time>2026-05-03T09:06:25.486Z</time></trkpt><trkpt lat="39.8151167" lon="15.78824"><ele>3.9999999999999996</ele><time>2026-05-03T09:06:26.481Z</time></trkpt><trkpt lat="39.8151883" lon="15.7881967"><ele>4.0</ele><time>2026-05-03T09:06:27.482Z</time></trkpt><trkpt lat="39.8152533" lon="15.788155"><ele>4.5</ele><time>2026-05-03T09:06:28.482Z</time></trkpt><trkpt lat="39.8153183" lon="15.7881133"><ele>5.0</ele><time>2026-05-03T09:06:29.482Z</time></trkpt><trkpt lat="39.8153867" lon="15.7880667"><ele>5.5</ele><time>2026-05-03T09:06:30.482Z</time></trkpt><trkpt lat="39.8154583" lon="15.7880167"><ele>6.0</ele><time>2026-05-03T09:06:31.482Z</time></trkpt><trkpt lat="39.8155383" lon="15.787965"><ele>6.500000000000001</ele><time>2026-05-03T09:06:32.482Z</time></trkpt><trkpt lat="39.8156233" lon="15.7879117"><ele>7.0</ele><time>2026-05-03T09:06:33.481Z</time></trkpt><trkpt lat="39.8157133" lon="15.7878567"><ele>7.0</ele><time>2026-05-03T09:06:34.482Z</time></trkpt><trkpt lat="39.81581" lon="15.787795"><ele>7.0</ele><time>2026-05-03T09:06:35.483Z</time></trkpt><trkpt lat="39.8159133" lon="15.7877333"><ele>7.0</ele><time>2026-05-03T09:06:36.48Z</time></trkpt><trkpt lat="39.816015" lon="15.787665"><ele>7.0</ele><time>2026-05-03T09:06:37.482Z</time></trkpt><trkpt lat="39.8161267" lon="15.787595"><ele>9.0</ele><time>2026-05-03T09:06:38.481Z</time></trkpt><trkpt lat="39.816245" lon="15.7875317"><ele>11.0</ele><time>2026-05-03T09:06:39.481Z</time></trkpt><trkpt lat="39.8163683" lon="15.787485"><ele>13.0</ele><time>2026-05-03T09:06:40.481Z</time></trkpt><trkpt lat="39.8165017" lon="15.78746"><ele>15.0</ele><time>2026-05-03T09:06:41.481Z</time></trkpt><trkpt lat="39.8166433" lon="15.7874533"><ele>15.0</ele><time>2026-05-03T09:06:42.482Z</time></trkpt><trkpt lat="39.8167883" lon="15.78745"><ele>15.0</ele><time>2026-05-03T09:06:43.483Z</time></trkpt><trkpt lat="39.816925" lon="15.7874467"><ele>15.0</ele><time>2026-05-03T09:06:44.483Z</time></trkpt><trkpt lat="39.817055" lon="15.7874417"><ele>15.0</ele><time>2026-05-03T09:06:45.483Z</time></trkpt><trkpt lat="39.8171783" lon="15.7874383"><ele>17.5</ele><time>2026-05-03T09:06:46.481Z</time></trkpt><trkpt lat="39.8172983" lon="15.7874283"><ele>20.0</ele><time>2026-05-03T09:06:47.481Z</time></trkpt><trkpt lat="39.8174117" lon="15.7874033"><ele>22.5</ele><time>2026-05-03T09:06:48.482Z</time></trkpt><trkpt lat="39.8175267" lon="15.78737"><ele>25.0</ele><time>2026-05-03T09:06:49.482Z</time></trkpt><trkpt lat="39.81764" lon="15.78733"><ele>28.2</ele><time>2026-05-03T09:06:50.482Z</time></trkpt><trkpt lat="39.8177517" lon="15.7872783"><ele>31.4</ele><time>2026-05-03T09:06:51.481Z</time></trkpt><trkpt lat="39.8178583" lon="15.7872183"><ele>34.599999999999994</ele><time>2026-05-03T09:06:52.482Z</time></trkpt><trkpt lat="39.8179583" lon="15.7871567"><ele>37.8</ele><time>2026-05-03T09:06:53.481Z</time></trkpt><trkpt lat="39.8180483" lon="15.7871017"><ele>41.0</ele><time>2026-05-03T09:06:54.482Z</time></trkpt><trkpt lat="39.8181267" lon="15.7870583"><ele>41.0</ele><time>2026-05-03T09:06:55.483Z</time></trkpt><trkpt lat="39.818195" lon="15.7870183"><ele>41.0</ele><time>2026-05-03T09:06:56.482Z</time></trkpt><trkpt lat="39.8182517" lon="15.7869783"><ele>41.0</ele><time>2026-05-03T09:06:57.482Z</time></trkpt><trkpt lat="39.8183083" lon="15.786935"><ele>41.0</ele><time>2026-05-03T09:06:58.482Z</time></trkpt><trkpt lat="39.8183733" lon="15.78689"><ele>41.0</ele><time>2026-05-03T09:06:59.482Z</time></trkpt><trkpt lat="39.8184483" lon="15.7868317"><ele>41.0</ele><time>2026-05-03T09:07:00.48Z</time></trkpt><trkpt lat="39.81853" lon="15.7867583"><ele>41.25</ele><time>2026-05-03T09:07:01.482Z</time></trkpt><trkpt lat="39.8186133" lon="15.78668"><ele>41.5</ele><time>2026-05-03T09:07:02.482Z</time></trkpt><trkpt lat="39.8187033" lon="15.786585"><ele>41.75</ele><time>2026-05-03T09:07:03.482Z</time></trkpt><trkpt lat="39.8188067" lon="15.7864633"><ele>42.0</ele><time>2026-05-03T09:07:04.481Z</time></trkpt><trkpt lat="39.8189233" lon="15.7863217"><ele>42.0</ele><time>2026-05-03T09:07:05.482Z</time></trkpt><trkpt lat="39.819055" lon="15.78616"><ele>42.0</ele><time>2026-05-03T09:07:06.481Z</time></trkpt><trkpt lat="39.8192017" lon="15.7859833"><ele>42.0</ele><time>2026-05-03T09:07:07.483Z</time></trkpt><trkpt lat="39.819355" lon="15.7857933"><ele>42.0</ele><time>2026-05-03T09:07:08.481Z</time></trkpt><trkpt lat="39.819505" lon="15.7855933"><ele>42.0</ele><time>2026-05-03T09:07:09.481Z</time></trkpt><trkpt lat="39.8196633" lon="15.7853833"><ele>42.0</ele><time>2026-05-03T09:07:10.482Z</time></trkpt><trkpt lat="39.8198217" lon="15.7851517"><ele>42.0</ele><time>2026-05-03T09:07:11.482Z</time></trkpt><trkpt lat="39.81998" lon="15.784905"><ele>42.0</ele><time>2026-05-03T09:07:12.481Z</time></trkpt><trkpt lat="39.8201333" lon="15.7846517"><ele>47.5</ele><time>2026-05-03T09:07:13.482Z</time></trkpt><trkpt lat="39.8202833" lon="15.784395"><ele>53.0</ele><time>2026-05-03T09:07:14.483Z</time></trkpt><trkpt lat="39.8204283" lon="15.784135"><ele>53.0</ele><time>2026-05-03T09:07:15.482Z</time></trkpt><trkpt lat="39.8205733" lon="15.7838717"><ele>53.0</ele><time>2026-05-03T09:07:16.481Z</time></trkpt><trkpt lat="39.8207183" lon="15.7836117"><ele>57.5</ele><time>2026-05-03T09:07:17.481Z</time></trkpt><trkpt lat="39.8208683" lon="15.7833617"><ele>62.0</ele><time>2026-05-03T09:07:18.481Z</time></trkpt><trkpt lat="39.8210283" lon="15.7831283"><ele>62.0</ele><time>2026-05-03T09:07:19.484Z</time></trkpt><trkpt lat="39.8211983" lon="15.7829083"><ele>62.0</ele><time>2026-05-03T09:07:20.482Z</time></trkpt><trkpt lat="39.821375" lon="15.7826983"><ele>56.0</ele><time>2026-05-03T09:07:21.482Z</time></trkpt><trkpt lat="39.8215517" lon="15.7825"><ele>50.0</ele><time>2026-05-03T09:07:22.481Z</time></trkpt><trkpt lat="39.8217217" lon="15.782315"><ele>52.333333333333336</ele><time>2026-05-03T09:07:23.483Z</time></trkpt><trkpt lat="39.8218867" lon="15.7821417"><ele>54.66666666666667</ele><time>2026-05-03T09:07:24.482Z</time></trkpt><trkpt lat="39.8220467" lon="15.7819683"><ele>57.0</ele><time>2026-05-03T09:07:25.482Z</time></trkpt><trkpt lat="39.8222017" lon="15.7817967"><ele>57.0</ele><time>2026-05-03T09:07:26.484Z</time></trkpt><trkpt lat="39.822355" lon="15.7816317"><ele>57.0</ele><time>2026-05-03T09:07:27.482Z</time></trkpt><trkpt lat="39.8225033" lon="15.78147"><ele>57.0</ele><time>2026-05-03T09:07:28.482Z</time></trkpt><trkpt lat="39.8226483" lon="15.781315"><ele>59.66666666666667</ele><time>2026-05-03T09:07:29.481Z</time></trkpt><trkpt lat="39.82279" lon="15.781165"><ele>62.333333333333336</ele><time>2026-05-03T09:07:30.482Z</time></trkpt><trkpt lat="39.8229333" lon="15.7810217"><ele>65.0</ele><time>2026-05-03T09:07:31.481Z</time></trkpt><trkpt lat="39.823075" lon="15.7808767"><ele>65.0</ele><time>2026-05-03T09:07:32.483Z</time></trkpt><trkpt lat="39.823215" lon="15.7807283"><ele>65.0</ele><time>2026-05-03T09:07:33.481Z</time></trkpt><trkpt lat="39.823355" lon="15.78058"><ele>65.0</ele><time>2026-05-03T09:07:34.482Z</time></trkpt><trkpt lat="39.823495" lon="15.7804333"><ele>67.33333333333334</ele><time>2026-05-03T09:07:35.481Z</time></trkpt><trkpt lat="39.8236367" lon="15.7802867"><ele>69.66666666666667</ele><time>2026-05-03T09:07:36.482Z</time></trkpt><trkpt lat="39.8237817" lon="15.7801417"><ele>72.0</ele><time>2026-05-03T09:07:37.482Z</time></trkpt><trkpt lat="39.8239267" lon="15.77999"><ele>72.0</ele><time>2026-05-03T09:07:38.486Z</time></trkpt><trkpt lat="39.8240717" lon="15.779835"><ele>72.0</ele><time>2026-05-03T09:07:39.481Z</time></trkpt><trkpt lat="39.8242133" lon="15.779675"><ele>72.0</ele><time>2026-05-03T09:07:40.481Z</time></trkpt><trkpt lat="39.8243517" lon="15.77952"><ele>72.66666666666667</ele><time>2026-05-03T09:07:41.484Z</time></trkpt><trkpt lat="39.82449" lon="15.7793667"><ele>73.33333333333334</ele><time>2026-05-03T09:07:42.482Z</time></trkpt><trkpt lat="39.8246233" lon="15.7792133"><ele>74.0</ele><time>2026-05-03T09:07:43.483Z</time></trkpt><trkpt lat="39.8247567" lon="15.77907"><ele>74.0</ele><time>2026-05-03T09:07:44.483Z</time></trkpt><trkpt lat="39.8248817" lon="15.778925"><ele>74.0</ele><time>2026-05-03T09:07:45.485Z</time></trkpt><trkpt lat="39.8250067" lon="15.7787933"><ele>74.0</ele><time>2026-05-03T09:07:46.482Z</time></trkpt><trkpt lat="39.82513" lon="15.7786683"><ele>75.0</ele><time>2026-05-03T09:07:47.483Z</time></trkpt><trkpt lat="39.8252567" lon="15.7785483"><ele>76.0</ele><time>2026-05-03T09:07:48.482Z</time></trkpt><trkpt lat="39.8253867" lon="15.7784283"><ele>77.0</ele><time>2026-05-03T09:07:49.482Z</time></trkpt><trkpt lat="39.8255217" lon="15.7783183"><ele>77.0</ele><time>2026-05-03T09:07:50.482Z</time></trkpt><trkpt lat="39.8256667" lon="15.7782233"><ele>77.0</ele><time>2026-05-03T09:07:51.481Z</time></trkpt><trkpt lat="39.8258183" lon="15.7781367"><ele>77.0</ele><time>2026-05-03T09:07:52.481Z</time></trkpt><trkpt lat="39.825975" lon="15.7780617"><ele>80.33333333333334</ele><time>2026-05-03T09:07:53.482Z</time></trkpt><trkpt lat="39.826135" lon="15.778"><ele>83.66666666666667</ele><time>2026-05-03T09:07:54.482Z</time></trkpt><trkpt lat="39.8263017" lon="15.77795"><ele>87.0</ele><time>2026-05-03T09:07:55.482Z</time></trkpt><trkpt lat="39.82647" lon="15.7779133"><ele>87.0</ele><time>2026-05-03T09:07:56.481Z</time></trkpt><trkpt lat="39.82664" lon="15.7778883"><ele>87.0</ele><time>2026-05-03T09:07:57.482Z</time></trkpt><trkpt lat="39.82681" lon="15.7778733"><ele>87.0</ele><time>2026-05-03T09:07:58.482Z</time></trkpt><trkpt lat="39.8269783" lon="15.777875"><ele>88.0</ele><time>2026-05-03T09:07:59.484Z</time></trkpt><trkpt lat="39.8271433" lon="15.7778933"><ele>89.0</ele><time>2026-05-03T09:08:00.483Z</time></trkpt><trkpt lat="39.827305" lon="15.777925"><ele>90.0</ele><time>2026-05-03T09:08:01.482Z</time></trkpt><trkpt lat="39.827465" lon="15.7779733"><ele>90.0</ele><time>2026-05-03T09:08:02.482Z</time></trkpt><trkpt lat="39.8276183" lon="15.7780333"><ele>90.0</ele><time>2026-05-03T09:08:03.481Z</time></trkpt><trkpt lat="39.8277683" lon="15.7781017"><ele>90.0</ele><time>2026-05-03T09:08:04.483Z</time></trkpt><trkpt lat="39.8279133" lon="15.7781783"><ele>89.66666666666667</ele><time>2026-05-03T09:08:05.483Z</time></trkpt><trkpt lat="39.8280567" lon="15.7782683"><ele>89.33333333333334</ele><time>2026-05-03T09:08:06.481Z</time></trkpt><trkpt lat="39.8282017" lon="15.7783667"><ele>89.0</ele><time>2026-05-03T09:08:07.484Z</time></trkpt><trkpt lat="39.828345" lon="15.7784833"><ele>89.66666666666667</ele><time>2026-05-03T09:08:08.482Z</time></trkpt><trkpt lat="39.8284867" lon="15.7786167"><ele>90.33333333333333</ele><time>2026-05-03T09:08:09.483Z</time></trkpt><trkpt lat="39.828625" lon="15.7787683"><ele>91.0</ele><time>2026-05-03T09:08:10.482Z</time></trkpt><trkpt lat="39.8287567" lon="15.7789283"><ele>91.0</ele><time>2026-05-03T09:08:11.482Z</time></trkpt><trkpt lat="39.8288717" lon="15.7790933"><ele>91.0</ele><time>2026-05-03T09:08:12.481Z</time></trkpt><trkpt lat="39.82898" lon="15.77927"><ele>91.0</ele><time>2026-05-03T09:08:13.482Z</time></trkpt><trkpt lat="39.8290783" lon="15.779455"><ele>92.66666666666666</ele><time>2026-05-03T09:08:14.483Z</time></trkpt><trkpt lat="39.829175" lon="15.7796517"><ele>94.33333333333333</ele><time>2026-05-03T09:08:15.482Z</time></trkpt><trkpt lat="39.8292617" lon="15.7798533"><ele>96.0</ele><time>2026-05-03T09:08:16.483Z</time></trkpt><trkpt lat="39.82934" lon="15.7800667"><ele>91.66666666666667</ele><time>2026-05-03T09:08:17.482Z</time></trkpt><trkpt lat="39.8294033" lon="15.7802817"><ele>87.33333333333334</ele><time>2026-05-03T09:08:18.482Z</time></trkpt><trkpt lat="39.8294567" lon="15.7804883"><ele>83.0</ele><time>2026-05-03T09:08:19.482Z</time></trkpt><trkpt lat="39.8295067" lon="15.7806833"><ele>83.0</ele><time>2026-05-03T09:08:20.481Z</time></trkpt><trkpt lat="39.8295583" lon="15.780865"><ele>83.0</ele><time>2026-05-03T09:08:21.482Z</time></trkpt><trkpt lat="39.829605" lon="15.7810333"><ele>83.0</ele><time>2026-05-03T09:08:22.481Z</time></trkpt><trkpt lat="39.8296567" lon="15.781205"><ele>83.0</ele><time>2026-05-03T09:08:23.482Z</time></trkpt><trkpt lat="39.8297117" lon="15.781395"><ele>84.0</ele><time>2026-05-03T09:08:24.481Z</time></trkpt><trkpt lat="39.8297717" lon="15.7816"><ele>85.0</ele><time>2026-05-03T09:08:25.481Z</time></trkpt><trkpt lat="39.8298333" lon="15.78182"><ele>86.0</ele><time>2026-05-03T09:08:26.482Z</time></trkpt><trkpt lat="39.8299" lon="15.7820517"><ele>87.66666666666667</ele><time>2026-05-03T09:08:27.483Z</time></trkpt><trkpt lat="39.8299683" lon="15.7823"><ele>89.33333333333333</ele><time>2026-05-03T09:08:28.482Z</time></trkpt><trkpt lat="39.8300417" lon="15.7825617"><ele>91.0</ele><time>2026-05-03T09:08:29.481Z</time></trkpt><trkpt lat="39.8301183" lon="15.782835"><ele>92.0</ele><time>2026-05-03T09:08:30.482Z</time></trkpt><trkpt lat="39.8301983" lon="15.7831183"><ele>93.0</ele><time>2026-05-03T09:08:31.483Z</time></trkpt><trkpt lat="39.8302783" lon="15.7834017"><ele>95.33333333333334</ele><time>2026-05-03T09:08:32.482Z</time></trkpt><trkpt lat="39.8303533" lon="15.7836733"><ele>97.66666666666667</ele><time>2026-05-03T09:08:33.482Z</time></trkpt><trkpt lat="39.830425" lon="15.7839317"><ele>100.0</ele><time>2026-05-03T09:08:34.482Z</time></trkpt><trkpt lat="39.8304917" lon="15.7841783"><ele>102.33333333333334</ele><time>2026-05-03T09:08:35.482Z</time></trkpt><trkpt lat="39.8305517" lon="15.7844117"><ele>104.66666666666666</ele><time>2026-05-03T09:08:36.482Z</time></trkpt><trkpt lat="39.8306133" lon="15.7846367"><ele>107.0</ele><time>2026-05-03T09:08:37.482Z</time></trkpt><trkpt lat="39.830675" lon="15.78486"><ele>107.0</ele><time>2026-05-03T09:08:38.482Z</time></trkpt><trkpt lat="39.8307383" lon="15.7850833"><ele>107.0</ele><time>2026-05-03T09:08:39.482Z</time></trkpt><trkpt lat="39.8308017" lon="15.7853117"><ele>107.0</ele><time>2026-05-03T09:08:40.481Z</time></trkpt><trkpt lat="39.8308633" lon="15.7855483"><ele>106.0</ele><time>2026-05-03T09:08:41.481Z</time></trkpt><trkpt lat="39.8309267" lon="15.7857883"><ele>105.0</ele><time>2026-05-03T09:08:42.482Z</time></trkpt><trkpt lat="39.8309933" lon="15.7860317"><ele>104.0</ele><time>2026-05-03T09:08:43.481Z</time></trkpt><trkpt lat="39.831065" lon="15.7862767"><ele>104.0</ele><time>2026-05-03T09:08:44.481Z</time></trkpt><trkpt lat="39.8311367" lon="15.7865283"><ele>104.0</ele><time>2026-05-03T09:08:45.482Z</time></trkpt><trkpt lat="39.8312133" lon="15.7867817"><ele>104.0</ele><time>2026-05-03T09:08:46.482Z</time></trkpt><trkpt lat="39.8312883" lon="15.7870417"><ele>104.0</ele><time>2026-05-03T09:08:47.482Z</time></trkpt><trkpt lat="39.831365" lon="15.7873067"><ele>104.0</ele><time>2026-05-03T09:08:48.481Z</time></trkpt><trkpt lat="39.8314433" lon="15.78758"><ele>104.0</ele><time>2026-05-03T09:08:49.483Z</time></trkpt><trkpt lat="39.8315283" lon="15.78786"><ele>105.0</ele><time>2026-05-03T09:08:50.481Z</time></trkpt><trkpt lat="39.8316133" lon="15.7881517"><ele>106.0</ele><time>2026-05-03T09:08:51.482Z</time></trkpt><trkpt lat="39.831695" lon="15.788435"><ele>106.0</ele><time>2026-05-03T09:08:52.483Z</time></trkpt><trkpt lat="39.831775" lon="15.7887117"><ele>106.0</ele><time>2026-05-03T09:08:53.483Z</time></trkpt><trkpt lat="39.8318583" lon="15.7889817"><ele>105.33333333333334</ele><time>2026-05-03T09:08:54.483Z</time></trkpt><trkpt lat="39.8319467" lon="15.78924"><ele>104.66666666666666</ele><time>2026-05-03T09:08:55.481Z</time></trkpt><trkpt lat="39.8320417" lon="15.7894817"><ele>104.0</ele><time>2026-05-03T09:08:56.482Z</time></trkpt><trkpt lat="39.8321417" lon="15.789715"><ele>104.0</ele><time>2026-05-03T09:08:57.483Z</time></trkpt><trkpt lat="39.83225" lon="15.78994"><ele>104.0</ele><time>2026-05-03T09:08:58.482Z</time></trkpt><trkpt lat="39.8323633" lon="15.7901533"><ele>104.0</ele><time>2026-05-03T09:08:59.483Z</time></trkpt><trkpt lat="39.8324817" lon="15.7903567"><ele>103.66666666666666</ele><time>2026-05-03T09:09:00.483Z</time></trkpt><trkpt lat="39.8326" lon="15.7905433"><ele>103.33333333333334</ele><time>2026-05-03T09:09:01.483Z</time></trkpt><trkpt lat="39.8327183" lon="15.7907167"><ele>103.0</ele><time>2026-05-03T09:09:02.481Z</time></trkpt><trkpt lat="39.8328383" lon="15.790885"><ele>108.33333333333334</ele><time>2026-05-03T09:09:03.482Z</time></trkpt><trkpt lat="39.832965" lon="15.7910433"><ele>113.66666666666666</ele><time>2026-05-03T09:09:04.482Z</time></trkpt><trkpt lat="39.8330983" lon="15.79119"><ele>119.0</ele><time>2026-05-03T09:09:05.483Z</time></trkpt><trkpt lat="39.8332333" lon="15.7913367"><ele>119.0</ele><time>2026-05-03T09:09:06.482Z</time></trkpt><trkpt lat="39.83337" lon="15.7914767"><ele>119.0</ele><time>2026-05-03T09:09:07.483Z</time></trkpt><trkpt lat="39.83351" lon="15.791605"><ele>119.0</ele><time>2026-05-03T09:09:08.482Z</time></trkpt><trkpt lat="39.8336467" lon="15.791715"><ele>120.33333333333333</ele><time>2026-05-03T09:09:09.482Z</time></trkpt><trkpt lat="39.8337817" lon="15.7918167"><ele>121.66666666666666</ele><time>2026-05-03T09:09:10.483Z</time></trkpt><trkpt lat="39.83392" lon="15.79191"><ele>123.0</ele><time>2026-05-03T09:09:11.483Z</time></trkpt><trkpt lat="39.83406" lon="15.792"><ele>125.0</ele><time>2026-05-03T09:09:12.482Z</time></trkpt><trkpt lat="39.8342017" lon="15.792085"><ele>127.0</ele><time>2026-05-03T09:09:13.482Z</time></trkpt><trkpt lat="39.8343433" lon="15.792165"><ele>129.0</ele><time>2026-05-03T09:09:14.483Z</time></trkpt><trkpt lat="39.8344833" lon="15.79224"><ele>129.33333333333334</ele><time>2026-05-03T09:09:15.484Z</time></trkpt><trkpt lat="39.8346217" lon="15.7923117"><ele>129.66666666666669</ele><time>2026-05-03T09:09:16.481Z</time></trkpt><trkpt lat="39.8347667" lon="15.7923817"><ele>130.0</ele><time>2026-05-03T09:09:17.481Z</time></trkpt><trkpt lat="39.8349133" lon="15.7924517"><ele>130.0</ele><time>2026-05-03T09:09:18.483Z</time></trkpt><trkpt lat="39.8350733" lon="15.7925267"><ele>130.0</ele><time>2026-05-03T09:09:19.482Z</time></trkpt><trkpt lat="39.8352517" lon="15.7926117"><ele>130.0</ele><time>2026-05-03T09:09:20.483Z</time></trkpt><trkpt lat="39.835425" lon="15.792705"><ele>131.66666666666669</ele><time>2026-05-03T09:09:21.482Z</time></trkpt><trkpt lat="39.8355883" lon="15.7927967"><ele>133.33333333333334</ele><time>2026-05-03T09:09:22.483Z</time></trkpt><trkpt lat="39.8357367" lon="15.79288"><ele>135.0</ele><time>2026-05-03T09:09:23.482Z</time></trkpt><trkpt lat="39.83587" lon="15.792955"><ele>135.5</ele><time>2026-05-03T09:09:24.484Z</time></trkpt><trkpt lat="39.8359967" lon="15.7930283"><ele>136.0</ele><time>2026-05-03T09:09:25.483Z</time></trkpt><trkpt lat="39.8361167" lon="15.793095"><ele>136.5</ele><time>2026-05-03T09:09:26.484Z</time></trkpt><trkpt lat="39.8362383" lon="15.7931583"><ele>137.0</ele><time>2026-05-03T09:09:27.481Z</time></trkpt><trkpt lat="39.836365" lon="15.7932217"><ele>137.0</ele><time>2026-05-03T09:09:28.483Z</time></trkpt><trkpt lat="39.8365017" lon="15.793285"><ele>137.0</ele><time>2026-05-03T09:09:29.483Z</time></trkpt><trkpt lat="39.836655" lon="15.7933583"><ele>137.0</ele><time>2026-05-03T09:09:30.483Z</time></trkpt><trkpt lat="39.8368183" lon="15.79344"><ele>138.33333333333331</ele><time>2026-05-03T09:09:31.483Z</time></trkpt><trkpt lat="39.8369783" lon="15.7935233"><ele>139.66666666666666</ele><time>2026-05-03T09:09:32.483Z</time></trkpt><trkpt lat="39.8371283" lon="15.7936033"><ele>141.0</ele><time>2026-05-03T09:09:33.484Z</time></trkpt><trkpt lat="39.8372683" lon="15.79368"><ele>141.0</ele><time>2026-05-03T09:09:34.482Z</time></trkpt><trkpt lat="39.8374" lon="15.7937533"><ele>141.0</ele><time>2026-05-03T09:09:35.483Z</time></trkpt><trkpt lat="39.83752" lon="15.7938183"><ele>141.0</ele><time>2026-05-03T09:09:36.485Z</time></trkpt><trkpt lat="39.837635" lon="15.7938817"><ele>141.0</ele><time>2026-05-03T09:09:37.483Z</time></trkpt><trkpt lat="39.8377417" lon="15.7939367"><ele>140.8</ele><time>2026-05-03T09:09:38.484Z</time></trkpt><trkpt lat="39.8378467" lon="15.793985"><ele>140.6</ele><time>2026-05-03T09:09:39.483Z</time></trkpt><trkpt lat="39.837945" lon="15.794035"><ele>140.4</ele><time>2026-05-03T09:09:40.483Z</time></trkpt><trkpt lat="39.8380417" lon="15.794085"><ele>140.2</ele><time>2026-05-03T09:09:41.483Z</time></trkpt><trkpt lat="39.83814" lon="15.7941383"><ele>140.0</ele><time>2026-05-03T09:09:42.482Z</time></trkpt><trkpt lat="39.8382467" lon="15.7941917"><ele>140.0</ele><time>2026-05-03T09:09:43.483Z</time></trkpt><trkpt lat="39.8383567" lon="15.7942467"><ele>140.0</ele><time>2026-05-03T09:09:44.484Z</time></trkpt><trkpt lat="39.83847" lon="15.7943033"><ele>140.0</ele><time>2026-05-03T09:09:45.482Z</time></trkpt><trkpt lat="39.838585" lon="15.7943617"><ele>140.0</ele><time>2026-05-03T09:09:46.482Z</time></trkpt><trkpt lat="39.8386983" lon="15.7944267"><ele>141.0</ele><time>2026-05-03T09:09:47.482Z</time></trkpt><trkpt lat="39.8388083" lon="15.7944867"><ele>142.0</ele><time>2026-05-03T09:09:48.482Z</time></trkpt><trkpt lat="39.8389117" lon="15.7945417"><ele>143.0</ele><time>2026-05-03T09:09:49.482Z</time></trkpt><trkpt lat="39.8390067" lon="15.794595"><ele>144.0</ele><time>2026-05-03T09:09:50.482Z</time></trkpt><trkpt lat="39.8390967" lon="15.794645"><ele>145.0</ele><time>2026-05-03T09:09:51.483Z</time></trkpt><trkpt lat="39.8391933" lon="15.794695"><ele>145.0</ele><time>2026-05-03T09:09:52.482Z</time></trkpt><trkpt lat="39.839295" lon="15.7947417"><ele>145.0</ele><time>2026-05-03T09:09:53.482Z</time></trkpt><trkpt lat="39.839405" lon="15.7948"><ele>145.0</ele><time>2026-05-03T09:09:54.482Z</time></trkpt><trkpt lat="39.83952" lon="15.7948617"><ele>145.0</ele><time>2026-05-03T09:09:55.481Z</time></trkpt><trkpt lat="39.839635" lon="15.79493"><ele>145.25</ele><time>2026-05-03T09:09:56.484Z</time></trkpt><trkpt lat="39.8397467" lon="15.7949933"><ele>145.5</ele><time>2026-05-03T09:09:57.482Z</time></trkpt><trkpt lat="39.8398633" lon="15.7950567"><ele>145.75</ele><time>2026-05-03T09:09:58.483Z</time></trkpt><trkpt lat="39.8399833" lon="15.79512"><ele>146.0</ele><time>2026-05-03T09:09:59.482Z</time></trkpt><trkpt lat="39.8401117" lon="15.7951883"><ele>148.0</ele><time>2026-05-03T09:10:00.482Z</time></trkpt><trkpt lat="39.840245" lon="15.79526"><ele>150.0</ele><time>2026-05-03T09:10:01.483Z</time></trkpt><trkpt lat="39.8403833" lon="15.7953333"><ele>152.0</ele><time>2026-05-03T09:10:02.482Z</time></trkpt><trkpt lat="39.8405233" lon="15.7954033"><ele>154.0</ele><time>2026-05-03T09:10:03.481Z</time></trkpt><trkpt lat="39.84066" lon="15.7954717"><ele>154.0</ele><time>2026-05-03T09:10:04.484Z</time></trkpt><trkpt lat="39.8407967" lon="15.7955383"><ele>154.0</ele><time>2026-05-03T09:10:05.483Z</time></trkpt><trkpt lat="39.8409317" lon="15.7956083"><ele>154.0</ele><time>2026-05-03T09:10:06.482Z</time></trkpt><trkpt lat="39.841065" lon="15.795675"><ele>154.0</ele><time>2026-05-03T09:10:07.483Z</time></trkpt><trkpt lat="39.8412" lon="15.7957433"><ele>154.0</ele><time>2026-05-03T09:10:08.483Z</time></trkpt><trkpt lat="39.841335" lon="15.795815"><ele>154.0</ele><time>2026-05-03T09:10:09.482Z</time></trkpt><trkpt lat="39.841465" lon="15.7958867"><ele>154.0</ele><time>2026-05-03T09:10:10.483Z</time></trkpt><trkpt lat="39.8415917" lon="15.7959567"><ele>154.0</ele><time>2026-05-03T09:10:11.483Z</time></trkpt><trkpt lat="39.8417217" lon="15.7960233"><ele>154.75</ele><time>2026-05-03T09:10:12.484Z</time></trkpt><trkpt lat="39.8418483" lon="15.79609"><ele>155.5</ele><time>2026-05-03T09:10:13.482Z</time></trkpt><trkpt lat="39.8419767" lon="15.7961517"><ele>156.25</ele><time>2026-05-03T09:10:14.483Z</time></trkpt><trkpt lat="39.8421033" lon="15.7962083"><ele>157.0</ele><time>2026-05-03T09:10:15.481Z</time></trkpt><trkpt lat="39.8422317" lon="15.796265"><ele>157.0</ele><time>2026-05-03T09:10:16.482Z</time></trkpt><trkpt lat="39.8423633" lon="15.79632"><ele>157.0</ele><time>2026-05-03T09:10:17.483Z</time></trkpt><trkpt lat="39.84251" lon="15.7963733"><ele>157.0</ele><time>2026-05-03T09:10:18.481Z</time></trkpt><trkpt lat="39.8426667" lon="15.7964267"><ele>157.33333333333334</ele><time>2026-05-03T09:10:19.482Z</time></trkpt><trkpt lat="39.8428283" lon="15.7964833"><ele>157.66666666666666</ele><time>2026-05-03T09:10:20.483Z</time></trkpt><trkpt lat="39.84299" lon="15.7965367"><ele>158.0</ele><time>2026-05-03T09:10:21.482Z</time></trkpt><trkpt lat="39.84314" lon="15.7965883"><ele>158.0</ele><time>2026-05-03T09:10:22.483Z</time></trkpt><trkpt lat="39.843285" lon="15.7966267"><ele>158.0</ele><time>2026-05-03T09:10:23.483Z</time></trkpt><trkpt lat="39.843425" lon="15.7966617"><ele>158.0</ele><time>2026-05-03T09:10:24.481Z</time></trkpt><trkpt lat="39.8435533" lon="15.796695"><ele>158.0</ele><time>2026-05-03T09:10:25.483Z</time></trkpt><trkpt lat="39.8436783" lon="15.796725"><ele>157.5</ele><time>2026-05-03T09:10:26.484Z</time></trkpt><trkpt lat="39.8437983" lon="15.7967517"><ele>157.0</ele><time>2026-05-03T09:10:27.482Z</time></trkpt><trkpt lat="39.843915" lon="15.79678"><ele>156.5</ele><time>2026-05-03T09:10:28.481Z</time></trkpt><trkpt lat="39.8440217" lon="15.7968033"><ele>156.0</ele><time>2026-05-03T09:10:29.482Z</time></trkpt><trkpt lat="39.8441283" lon="15.7968283"><ele>156.5</ele><time>2026-05-03T09:10:30.482Z</time></trkpt><trkpt lat="39.8442433" lon="15.7968583"><ele>157.0</ele><time>2026-05-03T09:10:31.483Z</time></trkpt><trkpt lat="39.84437" lon="15.7968967"><ele>157.5</ele><time>2026-05-03T09:10:32.483Z</time></trkpt><trkpt lat="39.844505" lon="15.7969283"><ele>158.0</ele><time>2026-05-03T09:10:33.482Z</time></trkpt><trkpt lat="39.8446617" lon="15.79696"><ele>153.33333333333331</ele><time>2026-05-03T09:10:34.483Z</time></trkpt><trkpt lat="39.8448283" lon="15.7970017"><ele>148.66666666666666</ele><time>2026-05-03T09:10:35.483Z</time></trkpt><trkpt lat="39.8450017" lon="15.7970533"><ele>144.0</ele><time>2026-05-03T09:10:36.483Z</time></trkpt><trkpt lat="39.845185" lon="15.7971"><ele>138.66666666666666</ele><time>2026-05-03T09:10:37.482Z</time></trkpt><trkpt lat="39.8453833" lon="15.797145"><ele>133.33333333333331</ele><time>2026-05-03T09:10:38.484Z</time></trkpt><trkpt lat="39.8455967" lon="15.7971917"><ele>128.0</ele><time>2026-05-03T09:10:39.482Z</time></trkpt><trkpt lat="39.845825" lon="15.797245"><ele>122.5</ele><time>2026-05-03T09:10:40.481Z</time></trkpt><trkpt lat="39.8460617" lon="15.7973"><ele>117.0</ele><time>2026-05-03T09:10:41.484Z</time></trkpt><trkpt lat="39.8462983" lon="15.7973617"><ele>117.0</ele><time>2026-05-03T09:10:42.482Z</time></trkpt><trkpt lat="39.846525" lon="15.7974183"><ele>117.0</ele><time>2026-05-03T09:10:43.482Z</time></trkpt><trkpt lat="39.8467367" lon="15.7974683"><ele>117.0</ele><time>2026-05-03T09:10:44.482Z</time></trkpt><trkpt lat="39.8469367" lon="15.7975167"><ele>116.66666666666666</ele><time>2026-05-03T09:10:45.482Z</time></trkpt><trkpt lat="39.84713" lon="15.7975633"><ele>116.33333333333333</ele><time>2026-05-03T09:10:46.483Z</time></trkpt><trkpt lat="39.8473167" lon="15.7976067"><ele>116.0</ele><time>2026-05-03T09:10:47.483Z</time></trkpt><trkpt lat="39.8475067" lon="15.7976533"><ele>105.66666666666666</ele><time>2026-05-03T09:10:48.483Z</time></trkpt><trkpt lat="39.8477" lon="15.7977033"><ele>95.33333333333333</ele><time>2026-05-03T09:10:49.482Z</time></trkpt><trkpt lat="39.847905" lon="15.7977517"><ele>85.0</ele><time>2026-05-03T09:10:50.483Z</time></trkpt><trkpt lat="39.8481283" lon="15.7978"><ele>85.0</ele><time>2026-05-03T09:10:51.481Z</time></trkpt><trkpt lat="39.8483683" lon="15.7978517"><ele>85.0</ele><time>2026-05-03T09:10:52.483Z</time></trkpt><trkpt lat="39.8486167" lon="15.7979117"><ele>67.5</ele><time>2026-05-03T09:10:53.483Z</time></trkpt><trkpt lat="39.8488667" lon="15.797975"><ele>50.0</ele><time>2026-05-03T09:10:54.484Z</time></trkpt><trkpt lat="39.84911" lon="15.798035"><ele>62.0</ele><time>2026-05-03T09:10:55.483Z</time></trkpt><trkpt lat="39.849345" lon="15.7980917"><ele>74.0</ele><time>2026-05-03T09:10:56.483Z</time></trkpt><trkpt lat="39.8495717" lon="15.7981417"><ele>74.0</ele><time>2026-05-03T09:10:57.483Z</time></trkpt><trkpt lat="39.8497867" lon="15.7981983"><ele>74.0</ele><time>2026-05-03T09:10:58.482Z</time></trkpt><trkpt lat="39.8499967" lon="15.7982483"><ele>74.0</ele><time>2026-05-03T09:10:59.482Z</time></trkpt><trkpt lat="39.8501967" lon="15.798295"><ele>85.0</ele><time>2026-05-03T09:11:00.481Z</time></trkpt><trkpt lat="39.8503867" lon="15.798335"><ele>96.0</ele><time>2026-05-03T09:11:01.484Z</time></trkpt><trkpt lat="39.8505683" lon="15.7983617"><ele>107.0</ele><time>2026-05-03T09:11:02.483Z</time></trkpt><trkpt lat="39.850745" lon="15.798375"><ele>107.0</ele><time>2026-05-03T09:11:03.483Z</time></trkpt><trkpt lat="39.8509217" lon="15.7983683"><ele>107.0</ele><time>2026-05-03T09:11:04.482Z</time></trkpt><trkpt lat="39.8510967" lon="15.7983417"><ele>107.0</ele><time>2026-05-03T09:11:05.484Z</time></trkpt><trkpt lat="39.8512667" lon="15.798295"><ele>114.66666666666666</ele><time>2026-05-03T09:11:06.483Z</time></trkpt><trkpt lat="39.851435" lon="15.7982333"><ele>122.33333333333334</ele><time>2026-05-03T09:11:07.483Z</time></trkpt><trkpt lat="39.851605" lon="15.7981483"><ele>130.0</ele><time>2026-05-03T09:11:08.482Z</time></trkpt><trkpt lat="39.851775" lon="15.7980483"><ele>132.66666666666669</ele><time>2026-05-03T09:11:09.482Z</time></trkpt><trkpt lat="39.851945" lon="15.7979217"><ele>135.33333333333334</ele><time>2026-05-03T09:11:10.483Z</time></trkpt><trkpt lat="39.852115" lon="15.7977617"><ele>138.0</ele><time>2026-05-03T09:11:11.482Z</time></trkpt><trkpt lat="39.8522867" lon="15.7975717"><ele>138.0</ele><time>2026-05-03T09:11:12.482Z</time></trkpt><trkpt lat="39.8524683" lon="15.7973633"><ele>138.0</ele><time>2026-05-03T09:11:13.484Z</time></trkpt><trkpt lat="39.85266" lon="15.79715"><ele>138.5</ele><time>2026-05-03T09:11:14.483Z</time></trkpt><trkpt lat="39.8528667" lon="15.796935"><ele>139.0</ele><time>2026-05-03T09:11:15.483Z</time></trkpt><trkpt lat="39.853085" lon="15.79672"><ele>137.5</ele><time>2026-05-03T09:11:16.483Z</time></trkpt><trkpt lat="39.8533" lon="15.796505"><ele>136.0</ele><time>2026-05-03T09:11:17.483Z</time></trkpt><trkpt lat="39.8535067" lon="15.7963"><ele>136.0</ele><time>2026-05-03T09:11:18.482Z</time></trkpt><trkpt lat="39.8537117" lon="15.7961033"><ele>136.0</ele><time>2026-05-03T09:11:19.483Z</time></trkpt><trkpt lat="39.8539217" lon="15.7959333"><ele>134.0</ele><time>2026-05-03T09:11:20.482Z</time></trkpt><trkpt lat="39.8541383" lon="15.7957933"><ele>132.0</ele><time>2026-05-03T09:11:21.482Z</time></trkpt><trkpt lat="39.8543567" lon="15.7956883"><ele>132.0</ele><time>2026-05-03T09:11:22.483Z</time></trkpt><trkpt lat="39.85458" lon="15.7956133"><ele>132.0</ele><time>2026-05-03T09:11:23.484Z</time></trkpt><trkpt lat="39.8548017" lon="15.7955683"><ele>132.0</ele><time>2026-05-03T09:11:24.482Z</time></trkpt><trkpt lat="39.8550183" lon="15.795555"><ele>132.0</ele><time>2026-05-03T09:11:25.481Z</time></trkpt><trkpt lat="39.855225" lon="15.79557"><ele>132.0</ele><time>2026-05-03T09:11:26.483Z</time></trkpt><trkpt lat="39.855425" lon="15.79561"><ele>130.33333333333334</ele><time>2026-05-03T09:11:27.482Z</time></trkpt><trkpt lat="39.8556167" lon="15.7956683"><ele>128.66666666666669</ele><time>2026-05-03T09:11:28.482Z</time></trkpt><trkpt lat="39.8558017" lon="15.7957483"><ele>127.0</ele><time>2026-05-03T09:11:29.483Z</time></trkpt><trkpt lat="39.8559817" lon="15.7958533"><ele>116.66666666666667</ele><time>2026-05-03T09:11:30.484Z</time></trkpt><trkpt lat="39.856155" lon="15.7959683"><ele>106.33333333333334</ele><time>2026-05-03T09:11:31.483Z</time></trkpt><trkpt lat="39.8563283" lon="15.7960883"><ele>96.0</ele><time>2026-05-03T09:11:32.483Z</time></trkpt><trkpt lat="39.8565083" lon="15.7962117"><ele>95.66666666666667</ele><time>2026-05-03T09:11:33.483Z</time></trkpt><trkpt lat="39.8567017" lon="15.7963383"><ele>95.33333333333334</ele><time>2026-05-03T09:11:34.483Z</time></trkpt><trkpt lat="39.8569" lon="15.7964733"><ele>95.0</ele><time>2026-05-03T09:11:35.482Z</time></trkpt><trkpt lat="39.8570983" lon="15.7966183"><ele>97.33333333333334</ele><time>2026-05-03T09:11:36.483Z</time></trkpt><trkpt lat="39.857295" lon="15.7967567"><ele>99.66666666666667</ele><time>2026-05-03T09:11:37.484Z</time></trkpt><trkpt lat="39.85749" lon="15.79689"><ele>102.0</ele><time>2026-05-03T09:11:38.483Z</time></trkpt><trkpt lat="39.857675" lon="15.797025"><ele>102.0</ele><time>2026-05-03T09:11:39.483Z</time></trkpt><trkpt lat="39.857855" lon="15.797155"><ele>102.0</ele><time>2026-05-03T09:11:40.482Z</time></trkpt><trkpt lat="39.8580317" lon="15.7972783"><ele>102.0</ele><time>2026-05-03T09:11:41.483Z</time></trkpt><trkpt lat="39.8582083" lon="15.7974"><ele>102.0</ele><time>2026-05-03T09:11:42.483Z</time></trkpt><trkpt lat="39.8583833" lon="15.7975233"><ele>102.0</ele><time>2026-05-03T09:11:43.483Z</time></trkpt><trkpt lat="39.85856" lon="15.7976417"><ele>102.0</ele><time>2026-05-03T09:11:44.485Z</time></trkpt><trkpt lat="39.8587367" lon="15.7977583"><ele>108.0</ele><time>2026-05-03T09:11:45.483Z</time></trkpt><trkpt lat="39.8589183" lon="15.7978633"><ele>114.0</ele><time>2026-05-03T09:11:46.484Z</time></trkpt><trkpt lat="39.8591" lon="15.79795"><ele>120.0</ele><time>2026-05-03T09:11:47.484Z</time></trkpt><trkpt lat="39.85928" lon="15.798015"><ele>115.33333333333334</ele><time>2026-05-03T09:11:48.483Z</time></trkpt><trkpt lat="39.8594567" lon="15.798065"><ele>110.66666666666667</ele><time>2026-05-03T09:11:49.483Z</time></trkpt><trkpt lat="39.85963" lon="15.7981"><ele>106.0</ele><time>2026-05-03T09:11:50.484Z</time></trkpt><trkpt lat="39.8598017" lon="15.79812"><ele>106.0</ele><time>2026-05-03T09:11:51.482Z</time></trkpt><trkpt lat="39.859975" lon="15.79813"><ele>106.0</ele><time>2026-05-03T09:11:52.483Z</time></trkpt><trkpt lat="39.8601467" lon="15.7981217"><ele>106.0</ele><time>2026-05-03T09:11:53.482Z</time></trkpt><trkpt lat="39.8603167" lon="15.7981"><ele>109.33333333333334</ele><time>2026-05-03T09:11:54.482Z</time></trkpt><trkpt lat="39.8604883" lon="15.798065"><ele>112.66666666666666</ele><time>2026-05-03T09:11:55.48Z</time></trkpt><trkpt lat="39.86066" lon="15.7980117"><ele>116.0</ele><time>2026-05-03T09:11:56.482Z</time></trkpt><trkpt lat="39.8608283" lon="15.7979417"><ele>121.0</ele><time>2026-05-03T09:11:57.481Z</time></trkpt><trkpt lat="39.860995" lon="15.7978667"><ele>126.0</ele><time>2026-05-03T09:11:58.48Z</time></trkpt><trkpt lat="39.8611567" lon="15.7977833"><ele>131.0</ele><time>2026-05-03T09:11:59.482Z</time></trkpt><trkpt lat="39.8613133" lon="15.7977"><ele>128.0</ele><time>2026-05-03T09:12:00.482Z</time></trkpt><trkpt lat="39.86147" lon="15.7976117"><ele>125.0</ele><time>2026-05-03T09:12:01.481Z</time></trkpt><trkpt lat="39.8616233" lon="15.7975267"><ele>122.0</ele><time>2026-05-03T09:12:02.482Z</time></trkpt><trkpt lat="39.8617717" lon="15.79744"><ele>123.66666666666666</ele><time>2026-05-03T09:12:03.481Z</time></trkpt><trkpt lat="39.8619117" lon="15.797355"><ele>125.33333333333334</ele><time>2026-05-03T09:12:04.481Z</time></trkpt><trkpt lat="39.8620533" lon="15.7972667"><ele>127.0</ele><time>2026-05-03T09:12:05.481Z</time></trkpt><trkpt lat="39.8621983" lon="15.7971783"><ele>127.0</ele><time>2026-05-03T09:12:06.481Z</time></trkpt><trkpt lat="39.8623433" lon="15.797095"><ele>127.0</ele><time>2026-05-03T09:12:07.48Z</time></trkpt><trkpt lat="39.8624933" lon="15.79701"><ele>127.0</ele><time>2026-05-03T09:12:08.485Z</time></trkpt><trkpt lat="39.8626567" lon="15.7969233"><ele>125.33333333333334</ele><time>2026-05-03T09:12:09.482Z</time></trkpt><trkpt lat="39.8628317" lon="15.7968467"><ele>123.66666666666666</ele><time>2026-05-03T09:12:10.482Z</time></trkpt><trkpt lat="39.8630183" lon="15.796795"><ele>122.0</ele><time>2026-05-03T09:12:11.482Z</time></trkpt><trkpt lat="39.8632167" lon="15.796755"><ele>122.0</ele><time>2026-05-03T09:12:12.482Z</time></trkpt><trkpt lat="39.86342" lon="15.7967217"><ele>122.0</ele><time>2026-05-03T09:12:13.482Z</time></trkpt><trkpt lat="39.8636267" lon="15.7966967"><ele>122.0</ele><time>2026-05-03T09:12:14.482Z</time></trkpt><trkpt lat="39.8638417" lon="15.7966717"><ele>121.5</ele><time>2026-05-03T09:12:15.481Z</time></trkpt><trkpt lat="39.8640667" lon="15.7966533"><ele>121.0</ele><time>2026-05-03T09:12:16.48Z</time></trkpt><trkpt lat="39.864295" lon="15.7966333"><ele>120.0</ele><time>2026-05-03T09:12:17.481Z</time></trkpt><trkpt lat="39.8645217" lon="15.79662"><ele>119.0</ele><time>2026-05-03T09:12:18.482Z</time></trkpt><trkpt lat="39.8647417" lon="15.7966083"><ele>118.0</ele><time>2026-05-03T09:12:19.482Z</time></trkpt><trkpt lat="39.8649517" lon="15.7965967"><ele>116.33333333333334</ele><time>2026-05-03T09:12:20.482Z</time></trkpt><trkpt lat="39.8651483" lon="15.7965883"><ele>114.66666666666666</ele><time>2026-05-03T09:12:21.482Z</time></trkpt><trkpt lat="39.8653367" lon="15.7965783"><ele>113.0</ele><time>2026-05-03T09:12:22.482Z</time></trkpt><trkpt lat="39.8655183" lon="15.796565"><ele>113.0</ele><time>2026-05-03T09:12:23.482Z</time></trkpt><trkpt lat="39.8656967" lon="15.7965517"><ele>113.0</ele><time>2026-05-03T09:12:24.481Z</time></trkpt><trkpt lat="39.8658717" lon="15.7965417"><ele>113.0</ele><time>2026-05-03T09:12:25.48Z</time></trkpt><trkpt lat="39.8660483" lon="15.7965317"><ele>111.66666666666666</ele><time>2026-05-03T09:12:26.481Z</time></trkpt><trkpt lat="39.8662267" lon="15.7965217"><ele>110.33333333333334</ele><time>2026-05-03T09:12:27.482Z</time></trkpt><trkpt lat="39.8664067" lon="15.7965117"><ele>109.0</ele><time>2026-05-03T09:12:28.482Z</time></trkpt><trkpt lat="39.8665933" lon="15.7965"><ele>106.66666666666667</ele><time>2026-05-03T09:12:29.481Z</time></trkpt><trkpt lat="39.8667917" lon="15.7964883"><ele>104.33333333333334</ele><time>2026-05-03T09:12:30.48Z</time></trkpt><trkpt lat="39.8670067" lon="15.79647"><ele>102.0</ele><time>2026-05-03T09:12:31.481Z</time></trkpt><trkpt lat="39.86724" lon="15.79645"><ele>102.0</ele><time>2026-05-03T09:12:32.482Z</time></trkpt><trkpt lat="39.867485" lon="15.7964333"><ele>102.0</ele><time>2026-05-03T09:12:33.481Z</time></trkpt><trkpt lat="39.8677283" lon="15.796415"><ele>105.0</ele><time>2026-05-03T09:12:34.482Z</time></trkpt><trkpt lat="39.8679683" lon="15.7963883"><ele>108.0</ele><time>2026-05-03T09:12:35.482Z</time></trkpt><trkpt lat="39.8682017" lon="15.7963367"><ele>108.0</ele><time>2026-05-03T09:12:36.48Z</time></trkpt><trkpt lat="39.868425" lon="15.796265"><ele>108.0</ele><time>2026-05-03T09:12:37.483Z</time></trkpt><trkpt lat="39.8686433" lon="15.796185"><ele>103.0</ele><time>2026-05-03T09:12:38.481Z</time></trkpt><trkpt lat="39.8688583" lon="15.7961067"><ele>98.0</ele><time>2026-05-03T09:12:39.481Z</time></trkpt><trkpt lat="39.86907" lon="15.7960333"><ele>93.0</ele><time>2026-05-03T09:12:40.482Z</time></trkpt><trkpt lat="39.8692683" lon="15.7959617"><ele>88.0</ele><time>2026-05-03T09:12:41.482Z</time></trkpt><trkpt lat="39.8694583" lon="15.7958933"><ele>83.0</ele><time>2026-05-03T09:12:42.481Z</time></trkpt><trkpt lat="39.8696383" lon="15.7958267"><ele>78.0</ele><time>2026-05-03T09:12:43.48Z</time></trkpt><trkpt lat="39.8698133" lon="15.7957633"><ele>78.0</ele><time>2026-05-03T09:12:44.482Z</time></trkpt><trkpt lat="39.86999" lon="15.7956933"><ele>78.0</ele><time>2026-05-03T09:12:45.482Z</time></trkpt><trkpt lat="39.87017" lon="15.795625"><ele>78.0</ele><time>2026-05-03T09:12:46.482Z</time></trkpt><trkpt lat="39.8703483" lon="15.7955617"><ele>85.33333333333334</ele><time>2026-05-03T09:12:47.482Z</time></trkpt><trkpt lat="39.8705217" lon="15.7955017"><ele>92.66666666666667</ele><time>2026-05-03T09:12:48.482Z</time></trkpt><trkpt lat="39.870685" lon="15.795445"><ele>100.0</ele><time>2026-05-03T09:12:49.482Z</time></trkpt><trkpt lat="39.8708417" lon="15.7953917"><ele>102.75</ele><time>2026-05-03T09:12:50.481Z</time></trkpt><trkpt lat="39.8709917" lon="15.7953417"><ele>105.5</ele><time>2026-05-03T09:12:51.482Z</time></trkpt><trkpt lat="39.8711317" lon="15.7952933"><ele>108.25</ele><time>2026-05-03T09:12:52.482Z</time></trkpt><trkpt lat="39.8712683" lon="15.7952517"><ele>111.0</ele><time>2026-05-03T09:12:53.482Z</time></trkpt><trkpt lat="39.8714033" lon="15.7952167"><ele>111.0</ele><time>2026-05-03T09:12:54.482Z</time></trkpt><trkpt lat="39.8715383" lon="15.79519"><ele>111.0</ele><time>2026-05-03T09:12:55.481Z</time></trkpt><trkpt lat="39.8716733" lon="15.7951717"><ele>111.0</ele><time>2026-05-03T09:12:56.481Z</time></trkpt><trkpt lat="39.8718133" lon="15.7951583"><ele>111.0</ele><time>2026-05-03T09:12:57.481Z</time></trkpt><trkpt lat="39.871955" lon="15.795145"><ele>110.25</ele><time>2026-05-03T09:12:58.481Z</time></trkpt><trkpt lat="39.8720917" lon="15.7951333"><ele>109.5</ele><time>2026-05-03T09:12:59.482Z</time></trkpt><trkpt lat="39.8722267" lon="15.795125"><ele>108.75</ele><time>2026-05-03T09:13:00.481Z</time></trkpt><trkpt lat="39.872375" lon="15.7951183"><ele>108.0</ele><time>2026-05-03T09:13:01.482Z</time></trkpt><trkpt lat="39.872535" lon="15.795115"><ele>109.33333333333334</ele><time>2026-05-03T09:13:02.483Z</time></trkpt><trkpt lat="39.8727083" lon="15.7951117"><ele>110.66666666666667</ele><time>2026-05-03T09:13:03.482Z</time></trkpt><trkpt lat="39.87289" lon="15.7951167"><ele>112.0</ele><time>2026-05-03T09:13:04.482Z</time></trkpt><trkpt lat="39.8730817" lon="15.7951217"><ele>112.0</ele><time>2026-05-03T09:13:05.48Z</time></trkpt><trkpt lat="39.8732783" lon="15.7951317"><ele>112.0</ele><time>2026-05-03T09:13:06.48Z</time></trkpt><trkpt lat="39.8734783" lon="15.795145"><ele>112.0</ele><time>2026-05-03T09:13:07.482Z</time></trkpt><trkpt lat="39.87367" lon="15.795155"><ele>113.0</ele><time>2026-05-03T09:13:08.482Z</time></trkpt><trkpt lat="39.873855" lon="15.79516"><ele>114.0</ele><time>2026-05-03T09:13:09.482Z</time></trkpt><trkpt lat="39.8740333" lon="15.79516"><ele>115.0</ele><time>2026-05-03T09:13:10.482Z</time></trkpt><trkpt lat="39.87421" lon="15.7951617"><ele>116.0</ele><time>2026-05-03T09:13:11.482Z</time></trkpt><trkpt lat="39.8743883" lon="15.79517"><ele>117.0</ele><time>2026-05-03T09:13:12.481Z</time></trkpt><trkpt lat="39.8745667" lon="15.7951733"><ele>118.0</ele><time>2026-05-03T09:13:13.481Z</time></trkpt><trkpt lat="39.8747433" lon="15.7951767"><ele>119.66666666666667</ele><time>2026-05-03T09:13:14.483Z</time></trkpt><trkpt lat="39.874915" lon="15.7951783"><ele>121.33333333333334</ele><time>2026-05-03T09:13:15.481Z</time></trkpt><trkpt lat="39.8750867" lon="15.7951783"><ele>123.0</ele><time>2026-05-03T09:13:16.482Z</time></trkpt><trkpt lat="39.87526" lon="15.79518"><ele>124.0</ele><time>2026-05-03T09:13:17.486Z</time></trkpt><trkpt lat="39.8754383" lon="15.7951817"><ele>125.0</ele><time>2026-05-03T09:13:18.482Z</time></trkpt><trkpt lat="39.8756233" lon="15.795185"><ele>126.0</ele><time>2026-05-03T09:13:19.483Z</time></trkpt><trkpt lat="39.8758133" lon="15.7951917"><ele>126.33333333333334</ele><time>2026-05-03T09:13:20.483Z</time></trkpt><trkpt lat="39.8760017" lon="15.7951983"><ele>126.66666666666667</ele><time>2026-05-03T09:13:21.482Z</time></trkpt><trkpt lat="39.8761833" lon="15.795205"><ele>127.0</ele><time>2026-05-03T09:13:22.483Z</time></trkpt><trkpt lat="39.8763633" lon="15.795215"><ele>127.0</ele><time>2026-05-03T09:13:23.481Z</time></trkpt><trkpt lat="39.8765417" lon="15.795225"><ele>127.0</ele><time>2026-05-03T09:13:24.482Z</time></trkpt><trkpt lat="39.8767217" lon="15.795235"><ele>127.0</ele><time>2026-05-03T09:13:25.482Z</time></trkpt><trkpt lat="39.8769017" lon="15.795245"><ele>127.0</ele><time>2026-05-03T09:13:26.482Z</time></trkpt><trkpt lat="39.8770817" lon="15.7952517"><ele>127.0</ele><time>2026-05-03T09:13:27.481Z</time></trkpt><trkpt lat="39.8772667" lon="15.7952517"><ele>127.0</ele><time>2026-05-03T09:13:28.48Z</time></trkpt><trkpt lat="39.8774533" lon="15.7952467"><ele>127.66666666666667</ele><time>2026-05-03T09:13:29.48Z</time></trkpt><trkpt lat="39.8776467" lon="15.7952383"><ele>128.33333333333334</ele><time>2026-05-03T09:13:30.482Z</time></trkpt><trkpt lat="39.8778417" lon="15.7952217"><ele>129.0</ele><time>2026-05-03T09:13:31.482Z</time></trkpt><trkpt lat="39.87804" lon="15.7951917"><ele>128.33333333333334</ele><time>2026-05-03T09:13:32.483Z</time></trkpt><trkpt lat="39.8782433" lon="15.7951483"><ele>127.66666666666667</ele><time>2026-05-03T09:13:33.482Z</time></trkpt><trkpt lat="39.8784533" lon="15.7950967"><ele>127.0</ele><time>2026-05-03T09:13:34.481Z</time></trkpt><trkpt lat="39.87867" lon="15.795045"><ele>127.0</ele><time>2026-05-03T09:13:35.482Z</time></trkpt><trkpt lat="39.8788917" lon="15.7949883"><ele>127.0</ele><time>2026-05-03T09:13:36.482Z</time></trkpt><trkpt lat="39.87912" lon="15.7949333"><ele>129.0</ele><time>2026-05-03T09:13:37.481Z</time></trkpt><trkpt lat="39.8793533" lon="15.7948767"><ele>131.0</ele><time>2026-05-03T09:13:38.482Z</time></trkpt><trkpt lat="39.8795883" lon="15.7948283"><ele>131.0</ele><time>2026-05-03T09:13:39.482Z</time></trkpt><trkpt lat="39.8798133" lon="15.794785"><ele>131.0</ele><time>2026-05-03T09:13:40.481Z</time></trkpt><trkpt lat="39.8800283" lon="15.79474"><ele>131.0</ele><time>2026-05-03T09:13:41.482Z</time></trkpt><trkpt lat="39.8802333" lon="15.7946933"><ele>133.0</ele><time>2026-05-03T09:13:42.482Z</time></trkpt><trkpt lat="39.8804283" lon="15.7946467"><ele>135.0</ele><time>2026-05-03T09:13:43.481Z</time></trkpt><trkpt lat="39.8806083" lon="15.7946"><ele>137.0</ele><time>2026-05-03T09:13:44.481Z</time></trkpt><trkpt lat="39.880775" lon="15.7945583"><ele>139.0</ele><time>2026-05-03T09:13:45.482Z</time></trkpt><trkpt lat="39.8809333" lon="15.7945217"><ele>141.0</ele><time>2026-05-03T09:13:46.481Z</time></trkpt><trkpt lat="39.8810833" lon="15.7944917"><ele>143.0</ele><time>2026-05-03T09:13:47.482Z</time></trkpt><trkpt lat="39.8812333" lon="15.794455"><ele>143.0</ele><time>2026-05-03T09:13:48.481Z</time></trkpt><trkpt lat="39.881395" lon="15.79441"><ele>143.0</ele><time>2026-05-03T09:13:49.483Z</time></trkpt><trkpt lat="39.88157" lon="15.7943633"><ele>143.0</ele><time>2026-05-03T09:13:50.482Z</time></trkpt><trkpt lat="39.8817533" lon="15.79431"><ele>141.0</ele><time>2026-05-03T09:13:51.481Z</time></trkpt><trkpt lat="39.8819517" lon="15.7942533"><ele>139.0</ele><time>2026-05-03T09:13:52.482Z</time></trkpt><trkpt lat="39.8821583" lon="15.794205"><ele>137.0</ele><time>2026-05-03T09:13:53.481Z</time></trkpt><trkpt lat="39.8823667" lon="15.7941633"><ele>137.0</ele><time>2026-05-03T09:13:54.482Z</time></trkpt><trkpt lat="39.8825733" lon="15.79412"><ele>137.0</ele><time>2026-05-03T09:13:55.482Z</time></trkpt><trkpt lat="39.8827767" lon="15.7940767"><ele>137.0</ele><time>2026-05-03T09:13:56.481Z</time></trkpt><trkpt lat="39.8829833" lon="15.7940383"><ele>138.33333333333331</ele><time>2026-05-03T09:13:57.482Z</time></trkpt><trkpt lat="39.8831933" lon="15.794005"><ele>139.66666666666666</ele><time>2026-05-03T09:13:58.482Z</time></trkpt><trkpt lat="39.8834117" lon="15.7939783"><ele>141.0</ele><time>2026-05-03T09:13:59.482Z</time></trkpt><trkpt lat="39.8836467" lon="15.79395"><ele>134.0</ele><time>2026-05-03T09:14:00.48Z</time></trkpt><trkpt lat="39.88389" lon="15.7939267"><ele>127.0</ele><time>2026-05-03T09:14:01.481Z</time></trkpt><trkpt lat="39.884125" lon="15.7939017"><ele>127.0</ele><time>2026-05-03T09:14:02.483Z</time></trkpt><trkpt lat="39.8843433" lon="15.79388"><ele>127.0</ele><time>2026-05-03T09:14:03.482Z</time></trkpt><trkpt lat="39.8845483" lon="15.79386"><ele>127.0</ele><time>2026-05-03T09:14:04.483Z</time></trkpt><trkpt lat="39.8847483" lon="15.7938433"><ele>127.0</ele><time>2026-05-03T09:14:05.482Z</time></trkpt><trkpt lat="39.8849433" lon="15.79382"><ele>127.0</ele><time>2026-05-03T09:14:06.482Z</time></trkpt><trkpt lat="39.8851333" lon="15.7937967"><ele>127.0</ele><time>2026-05-03T09:14:07.483Z</time></trkpt><trkpt lat="39.8853183" lon="15.7937767"><ele>135.0</ele><time>2026-05-03T09:14:08.483Z</time></trkpt><trkpt lat="39.8855" lon="15.793755"><ele>143.0</ele><time>2026-05-03T09:14:09.482Z</time></trkpt><trkpt lat="39.88568" lon="15.7937317"><ele>151.0</ele><time>2026-05-03T09:14:10.482Z</time></trkpt><trkpt lat="39.88587" lon="15.793705"><ele>155.0</ele><time>2026-05-03T09:14:11.482Z</time></trkpt><trkpt lat="39.8860783" lon="15.79368"><ele>159.0</ele><time>2026-05-03T09:14:12.482Z</time></trkpt><trkpt lat="39.8863" lon="15.7936583"><ele>163.0</ele><time>2026-05-03T09:14:13.483Z</time></trkpt><trkpt lat="39.8865267" lon="15.7936367"><ele>165.0</ele><time>2026-05-03T09:14:14.481Z</time></trkpt><trkpt lat="39.8867667" lon="15.7935967"><ele>167.0</ele><time>2026-05-03T09:14:15.481Z</time></trkpt><trkpt lat="39.8870133" lon="15.7935383"><ele>158.0</ele><time>2026-05-03T09:14:16.48Z</time></trkpt><trkpt lat="39.8872667" lon="15.79346"><ele>149.0</ele><time>2026-05-03T09:14:17.482Z</time></trkpt><trkpt lat="39.88753" lon="15.79336"><ele>152.5</ele><time>2026-05-03T09:14:18.486Z</time></trkpt><trkpt lat="39.8877933" lon="15.793245"><ele>156.0</ele><time>2026-05-03T09:14:19.482Z</time></trkpt><trkpt lat="39.888055" lon="15.79313"><ele>156.0</ele><time>2026-05-03T09:14:20.483Z</time></trkpt><trkpt lat="39.8883183" lon="15.7930083"><ele>156.0</ele><time>2026-05-03T09:14:21.482Z</time></trkpt><trkpt lat="39.8885817" lon="15.79289"><ele>155.0</ele><time>2026-05-03T09:14:22.482Z</time></trkpt><trkpt lat="39.8888367" lon="15.7927767"><ele>154.0</ele><time>2026-05-03T09:14:23.482Z</time></trkpt><trkpt lat="39.8890767" lon="15.7926717"><ele>154.0</ele><time>2026-05-03T09:14:24.481Z</time></trkpt><trkpt lat="39.889305" lon="15.7925717"><ele>154.0</ele><time>2026-05-03T09:14:25.481Z</time></trkpt><trkpt lat="39.889525" lon="15.7924733"><ele>154.0</ele><time>2026-05-03T09:14:26.483Z</time></trkpt><trkpt lat="39.8897333" lon="15.7923717"><ele>154.0</ele><time>2026-05-03T09:14:27.482Z</time></trkpt><trkpt lat="39.8899267" lon="15.7922633"><ele>154.0</ele><time>2026-05-03T09:14:28.481Z</time></trkpt><trkpt lat="39.8901033" lon="15.792145"><ele>152.0</ele><time>2026-05-03T09:14:29.481Z</time></trkpt><trkpt lat="39.89027" lon="15.7920183"><ele>150.0</ele><time>2026-05-03T09:14:30.483Z</time></trkpt><trkpt lat="39.8904333" lon="15.7918783"><ele>148.0</ele><time>2026-05-03T09:14:31.482Z</time></trkpt><trkpt lat="39.890595" lon="15.7917217"><ele>148.0</ele><time>2026-05-03T09:14:32.482Z</time></trkpt><trkpt lat="39.8907617" lon="15.79155"><ele>148.0</ele><time>2026-05-03T09:14:33.482Z</time></trkpt><trkpt lat="39.8909333" lon="15.7913683"><ele>148.0</ele><time>2026-05-03T09:14:34.483Z</time></trkpt><trkpt lat="39.89111" lon="15.7911733"><ele>146.5</ele><time>2026-05-03T09:14:35.482Z</time></trkpt><trkpt lat="39.8912917" lon="15.79096"><ele>145.0</ele><time>2026-05-03T09:14:36.482Z</time></trkpt><trkpt lat="39.8914767" lon="15.7907417"><ele>145.0</ele><time>2026-05-03T09:14:37.482Z</time></trkpt><trkpt lat="39.8916633" lon="15.790515"><ele>145.0</ele><time>2026-05-03T09:14:38.483Z</time></trkpt><trkpt lat="39.8918517" lon="15.7902867"><ele>149.5</ele><time>2026-05-03T09:14:39.482Z</time></trkpt><trkpt lat="39.8920433" lon="15.7900583"><ele>154.0</ele><time>2026-05-03T09:14:40.483Z</time></trkpt><trkpt lat="39.8922367" lon="15.7898317"><ele>154.0</ele><time>2026-05-03T09:14:41.483Z</time></trkpt><trkpt lat="39.8924333" lon="15.7896067"><ele>154.0</ele><time>2026-05-03T09:14:42.482Z</time></trkpt><trkpt lat="39.8926333" lon="15.789385"><ele>158.0</ele><time>2026-05-03T09:14:43.482Z</time></trkpt><trkpt lat="39.8928317" lon="15.7891683"><ele>162.0</ele><time>2026-05-03T09:14:44.483Z</time></trkpt><trkpt lat="39.8930233" lon="15.7889583"><ele>162.0</ele><time>2026-05-03T09:14:45.481Z</time></trkpt><trkpt lat="39.893205" lon="15.7887517"><ele>162.0</ele><time>2026-05-03T09:14:46.481Z</time></trkpt><trkpt lat="39.8933833" lon="15.7885483"><ele>165.0</ele><time>2026-05-03T09:14:47.481Z</time></trkpt><trkpt lat="39.8935567" lon="15.7883517"><ele>168.0</ele><time>2026-05-03T09:14:48.481Z</time></trkpt><trkpt lat="39.8937367" lon="15.7881583"><ele>168.0</ele><time>2026-05-03T09:14:49.482Z</time></trkpt><trkpt lat="39.8939217" lon="15.78798"><ele>168.0</ele><time>2026-05-03T09:14:50.483Z</time></trkpt><trkpt lat="39.8941183" lon="15.787825"><ele>162.0</ele><time>2026-05-03T09:14:51.483Z</time></trkpt><trkpt lat="39.8943233" lon="15.7876983"><ele>156.0</ele><time>2026-05-03T09:14:52.483Z</time></trkpt><trkpt lat="39.8945317" lon="15.787595"><ele>156.0</ele><time>2026-05-03T09:14:53.482Z</time></trkpt><trkpt lat="39.894745" lon="15.7875117"><ele>156.0</ele><time>2026-05-03T09:14:54.482Z</time></trkpt><trkpt lat="39.8949617" lon="15.7874517"><ele>156.0</ele><time>2026-05-03T09:14:55.481Z</time></trkpt><trkpt lat="39.895185" lon="15.787415"><ele>158.33333333333334</ele><time>2026-05-03T09:14:56.483Z</time></trkpt><trkpt lat="39.8954067" lon="15.7874017"><ele>160.66666666666669</ele><time>2026-05-03T09:14:57.482Z</time></trkpt><trkpt lat="39.8956267" lon="15.7874083"><ele>163.0</ele><time>2026-05-03T09:14:58.481Z</time></trkpt><trkpt lat="39.8958433" lon="15.7874433"><ele>161.66666666666669</ele><time>2026-05-03T09:14:59.482Z</time></trkpt><trkpt lat="39.8960583" lon="15.7875"><ele>160.33333333333334</ele><time>2026-05-03T09:15:00.482Z</time></trkpt><trkpt lat="39.89628" lon="15.7875717"><ele>159.0</ele><time>2026-05-03T09:15:01.483Z</time></trkpt><trkpt lat="39.896505" lon="15.7876517"><ele>177.0</ele><time>2026-05-03T09:15:02.483Z</time></trkpt><trkpt lat="39.8967367" lon="15.787735"><ele>195.0</ele><time>2026-05-03T09:15:03.481Z</time></trkpt><trkpt lat="39.8969633" lon="15.787825"><ele>195.0</ele><time>2026-05-03T09:15:04.483Z</time></trkpt><trkpt lat="39.897195" lon="15.7879167"><ele>195.0</ele><time>2026-05-03T09:15:05.483Z</time></trkpt><trkpt lat="39.9023967" lon="15.7911533"><ele>168.0</ele><time>2026-05-03T09:15:27.485Z</time></trkpt><trkpt lat="39.902645" lon="15.7911867"><ele>141.0</ele><time>2026-05-03T09:15:28.481Z</time></trkpt><trkpt lat="39.90289" lon="15.79119"><ele>141.0</ele><time>2026-05-03T09:15:29.482Z</time></trkpt><trkpt lat="39.90313" lon="15.79117"><ele>141.0</ele><time>2026-05-03T09:15:30.48Z</time></trkpt><trkpt lat="39.9033733" lon="15.7911217"><ele>138.0</ele><time>2026-05-03T09:15:31.481Z</time></trkpt><trkpt lat="39.9036133" lon="15.791045"><ele>135.0</ele><time>2026-05-03T09:15:32.482Z</time></trkpt><trkpt lat="39.903845" lon="15.7909533"><ele>136.0</ele><time>2026-05-03T09:15:33.482Z</time></trkpt><trkpt lat="39.904075" lon="15.7908467"><ele>137.0</ele><time>2026-05-03T09:15:34.483Z</time></trkpt><trkpt lat="39.9043067" lon="15.79073"><ele>137.0</ele><time>2026-05-03T09:15:35.481Z</time></trkpt><trkpt lat="39.90454" lon="15.79061"><ele>137.0</ele><time>2026-05-03T09:15:36.482Z</time></trkpt><trkpt lat="39.90478" lon="15.79049"><ele>137.0</ele><time>2026-05-03T09:15:37.482Z</time></trkpt><trkpt lat="39.90502" lon="15.79037"><ele>137.0</ele><time>2026-05-03T09:15:38.482Z</time></trkpt><trkpt lat="39.905265" lon="15.790255"><ele>131.5</ele><time>2026-05-03T09:15:39.482Z</time></trkpt><trkpt lat="39.9055167" lon="15.7901417"><ele>126.0</ele><time>2026-05-03T09:15:40.482Z</time></trkpt><trkpt lat="39.9057717" lon="15.7900267"><ele>128.5</ele><time>2026-05-03T09:15:41.482Z</time></trkpt><trkpt lat="39.9060317" lon="15.7899183"><ele>131.0</ele><time>2026-05-03T09:15:42.483Z</time></trkpt><trkpt lat="39.906295" lon="15.7898083"><ele>131.0</ele><time>2026-05-03T09:15:43.481Z</time></trkpt><trkpt lat="39.9065583" lon="15.789695"><ele>131.0</ele><time>2026-05-03T09:15:44.483Z</time></trkpt><trkpt lat="39.90682" lon="15.789585"><ele>128.5</ele><time>2026-05-03T09:15:45.482Z</time></trkpt><trkpt lat="39.90708" lon="15.7894667"><ele>126.0</ele><time>2026-05-03T09:15:46.482Z</time></trkpt><trkpt lat="39.907335" lon="15.7893433"><ele>114.5</ele><time>2026-05-03T09:15:47.482Z</time></trkpt><trkpt lat="39.907585" lon="15.78922"><ele>103.0</ele><time>2026-05-03T09:15:48.482Z</time></trkpt><trkpt lat="39.9078333" lon="15.789105"><ele>103.0</ele><time>2026-05-03T09:15:49.482Z</time></trkpt><trkpt lat="39.908075" lon="15.7889933"><ele>103.0</ele><time>2026-05-03T09:15:50.483Z</time></trkpt><trkpt lat="39.908315" lon="15.7888867"><ele>106.0</ele><time>2026-05-03T09:15:51.483Z</time></trkpt><trkpt lat="39.9085533" lon="15.788775"><ele>109.0</ele><time>2026-05-03T09:15:52.482Z</time></trkpt><trkpt lat="39.9087883" lon="15.7886683"><ele>109.0</ele><time>2026-05-03T09:15:53.483Z</time></trkpt><trkpt lat="39.9090217" lon="15.788565"><ele>109.0</ele><time>2026-05-03T09:15:54.482Z</time></trkpt><trkpt lat="39.9092533" lon="15.788455"><ele>113.0</ele><time>2026-05-03T09:15:55.481Z</time></trkpt><trkpt lat="39.9094783" lon="15.7883383"><ele>117.0</ele><time>2026-05-03T09:15:56.483Z</time></trkpt><trkpt lat="39.9096967" lon="15.788195"><ele>117.0</ele><time>2026-05-03T09:15:57.482Z</time></trkpt><trkpt lat="39.9099033" lon="15.7880217"><ele>117.0</ele><time>2026-05-03T09:15:58.481Z</time></trkpt><trkpt lat="39.910105" lon="15.7878217"><ele>110.0</ele><time>2026-05-03T09:15:59.481Z</time></trkpt><trkpt lat="39.9102983" lon="15.7876067"><ele>103.0</ele><time>2026-05-03T09:16:00.482Z</time></trkpt><trkpt lat="39.9104917" lon="15.78738"><ele>103.0</ele><time>2026-05-03T09:16:01.481Z</time></trkpt><trkpt lat="39.910685" lon="15.787155"><ele>103.0</ele><time>2026-05-03T09:16:02.483Z</time></trkpt><trkpt lat="39.9108767" lon="15.7869317"><ele>106.5</ele><time>2026-05-03T09:16:03.482Z</time></trkpt><trkpt lat="39.9110717" lon="15.7867083"><ele>110.0</ele><time>2026-05-03T09:16:04.482Z</time></trkpt><trkpt lat="39.9112683" lon="15.786485"><ele>110.0</ele><time>2026-05-03T09:16:05.481Z</time></trkpt><trkpt lat="39.9114633" lon="15.7862667"><ele>110.0</ele><time>2026-05-03T09:16:06.481Z</time></trkpt><trkpt lat="39.911655" lon="15.7860517"><ele>108.5</ele><time>2026-05-03T09:16:07.481Z</time></trkpt><trkpt lat="39.911845" lon="15.785845"><ele>107.0</ele><time>2026-05-03T09:16:08.482Z</time></trkpt><trkpt lat="39.9120283" lon="15.7856367"><ele>107.0</ele><time>2026-05-03T09:16:09.481Z</time></trkpt><trkpt lat="39.9122033" lon="15.78543"><ele>107.0</ele><time>2026-05-03T09:16:10.482Z</time></trkpt><trkpt lat="39.9123767" lon="15.7852233"><ele>103.5</ele><time>2026-05-03T09:16:11.485Z</time></trkpt><trkpt lat="39.91254" lon="15.7850083"><ele>100.0</ele><time>2026-05-03T09:16:12.482Z</time></trkpt><trkpt lat="39.9126933" lon="15.7847833"><ele>100.0</ele><time>2026-05-03T09:16:13.481Z</time></trkpt><trkpt lat="39.9128433" lon="15.7845483"><ele>100.0</ele><time>2026-05-03T09:16:14.482Z</time></trkpt><trkpt lat="39.9129867" lon="15.784295"><ele>94.0</ele><time>2026-05-03T09:16:15.482Z</time></trkpt><trkpt lat="39.91312" lon="15.7840317"><ele>88.0</ele><time>2026-05-03T09:16:16.481Z</time></trkpt><trkpt lat="39.9132433" lon="15.7837617"><ele>83.0</ele><time>2026-05-03T09:16:17.483Z</time></trkpt><trkpt lat="39.9133617" lon="15.7834867"><ele>78.0</ele><time>2026-05-03T09:16:18.484Z</time></trkpt><trkpt lat="39.9134767" lon="15.783215"><ele>78.0</ele><time>2026-05-03T09:16:19.482Z</time></trkpt><trkpt lat="39.9135917" lon="15.7829483"><ele>78.0</ele><time>2026-05-03T09:16:20.482Z</time></trkpt><trkpt lat="39.9137067" lon="15.7826817"><ele>79.5</ele><time>2026-05-03T09:16:21.482Z</time></trkpt><trkpt lat="39.9138233" lon="15.7824167"><ele>81.0</ele><time>2026-05-03T09:16:22.482Z</time></trkpt><trkpt lat="39.9139367" lon="15.7821517"><ele>81.0</ele><time>2026-05-03T09:16:23.481Z</time></trkpt><trkpt lat="39.9140517" lon="15.7818867"><ele>81.0</ele><time>2026-05-03T09:16:24.483Z</time></trkpt><trkpt lat="39.9141667" lon="15.781625"><ele>93.0</ele><time>2026-05-03T09:16:25.482Z</time></trkpt><trkpt lat="39.9142817" lon="15.7813667"><ele>105.0</ele><time>2026-05-03T09:16:26.483Z</time></trkpt><trkpt lat="39.9143983" lon="15.78111"><ele>95.5</ele><time>2026-05-03T09:16:27.482Z</time></trkpt><trkpt lat="39.9145217" lon="15.78086"><ele>86.0</ele><time>2026-05-03T09:16:28.483Z</time></trkpt><trkpt lat="39.914655" lon="15.780615"><ele>86.0</ele><time>2026-05-03T09:16:29.483Z</time></trkpt><trkpt lat="39.9147967" lon="15.78037"><ele>86.0</ele><time>2026-05-03T09:16:30.482Z</time></trkpt><trkpt lat="39.91495" lon="15.78014"><ele>87.0</ele><time>2026-05-03T09:16:31.482Z</time></trkpt><trkpt lat="39.9151033" lon="15.7799167"><ele>88.0</ele><time>2026-05-03T09:16:32.482Z</time></trkpt><trkpt lat="39.915255" lon="15.7796967"><ele>88.0</ele><time>2026-05-03T09:16:33.482Z</time></trkpt><trkpt lat="39.9154033" lon="15.7794767"><ele>88.0</ele><time>2026-05-03T09:16:34.483Z</time></trkpt><trkpt lat="39.91555" lon="15.7792517"><ele>83.0</ele><time>2026-05-03T09:16:35.483Z</time></trkpt><trkpt lat="39.9156983" lon="15.7790217"><ele>78.0</ele><time>2026-05-03T09:16:36.483Z</time></trkpt><trkpt lat="39.9158467" lon="15.77879"><ele>86.0</ele><time>2026-05-03T09:16:37.482Z</time></trkpt><trkpt lat="39.916" lon="15.7785617"><ele>94.0</ele><time>2026-05-03T09:16:38.483Z</time></trkpt><trkpt lat="39.9161567" lon="15.77833"><ele>94.0</ele><time>2026-05-03T09:16:39.482Z</time></trkpt><trkpt lat="39.916315" lon="15.7780983"><ele>94.0</ele><time>2026-05-03T09:16:40.483Z</time></trkpt><trkpt lat="39.9164733" lon="15.7778667"><ele>65.0</ele><time>2026-05-03T09:16:41.48Z</time></trkpt><trkpt lat="39.917235" lon="15.7767817"><ele>65.0</ele><time>2026-05-03T09:16:46.482Z</time></trkpt><trkpt lat="39.91737" lon="15.77648"><ele>65.0</ele><time>2026-05-03T09:16:47.483Z</time></trkpt><trkpt lat="39.9175167" lon="15.7762467"><ele>65.0</ele><time>2026-05-03T09:16:48.483Z</time></trkpt><trkpt lat="39.917675" lon="15.7760317"><ele>65.0</ele><time>2026-05-03T09:16:49.483Z</time></trkpt><trkpt lat="39.91784" lon="15.7758133"><ele>60.5</ele><time>2026-05-03T09:16:50.482Z</time></trkpt><trkpt lat="39.9180133" lon="15.775595"><ele>56.0</ele><time>2026-05-03T09:16:51.482Z</time></trkpt><trkpt lat="39.9181917" lon="15.775385"><ele>54.5</ele><time>2026-05-03T09:16:52.483Z</time></trkpt><trkpt lat="39.9183867" lon="15.7751733"><ele>53.0</ele><time>2026-05-03T09:16:53.482Z</time></trkpt><trkpt lat="39.9185817" lon="15.7749683"><ele>53.0</ele><time>2026-05-03T09:16:54.481Z</time></trkpt><trkpt lat="39.91877" lon="15.7747717"><ele>53.0</ele><time>2026-05-03T09:16:55.482Z</time></trkpt><trkpt lat="39.9189533" lon="15.77458"><ele>53.0</ele><time>2026-05-03T09:16:56.483Z</time></trkpt><trkpt lat="39.91913" lon="15.774395"><ele>53.0</ele><time>2026-05-03T09:16:57.483Z</time></trkpt><trkpt lat="39.9193033" lon="15.7742117"><ele>62.5</ele><time>2026-05-03T09:16:58.481Z</time></trkpt><trkpt lat="39.9194817" lon="15.7740267"><ele>72.0</ele><time>2026-05-03T09:16:59.482Z</time></trkpt><trkpt lat="39.9196567" lon="15.7738433"><ele>72.0</ele><time>2026-05-03T09:17:00.483Z</time></trkpt><trkpt lat="39.9198333" lon="15.7736617"><ele>72.0</ele><time>2026-05-03T09:17:01.484Z</time></trkpt><trkpt lat="39.92108" lon="15.7724167"><ele>58.0</ele><time>2026-05-03T09:17:09.482Z</time></trkpt><trkpt lat="39.9212767" lon="15.7722133"><ele>44.0</ele><time>2026-05-03T09:17:10.482Z</time></trkpt><trkpt lat="39.9214133" lon="15.7720333"><ele>30.0</ele><time>2026-05-03T09:17:11.483Z</time></trkpt><trkpt lat="39.92154" lon="15.77189"><ele>26.666666666666668</ele><time>2026-05-03T09:17:12.483Z</time></trkpt><trkpt lat="39.9216633" lon="15.7717583"><ele>23.333333333333336</ele><time>2026-05-03T09:17:13.482Z</time></trkpt><trkpt lat="39.9217783" lon="15.77163"><ele>20.0</ele><time>2026-05-03T09:17:14.483Z</time></trkpt><trkpt lat="39.9218967" lon="15.771505"><ele>20.0</ele><time>2026-05-03T09:17:15.482Z</time></trkpt><trkpt lat="39.9220133" lon="15.7713833"><ele>20.0</ele><time>2026-05-03T09:17:16.482Z</time></trkpt><trkpt lat="39.922125" lon="15.771265"><ele>20.0</ele><time>2026-05-03T09:17:17.483Z</time></trkpt><trkpt lat="39.9222417" lon="15.7711433"><ele>20.0</ele><time>2026-05-03T09:17:18.482Z</time></trkpt><trkpt lat="39.9223617" lon="15.771015"><ele>19.666666666666668</ele><time>2026-05-03T09:17:19.483Z</time></trkpt><trkpt lat="39.9224833" lon="15.770885"><ele>19.333333333333332</ele><time>2026-05-03T09:17:20.483Z</time></trkpt><trkpt lat="39.9226" lon="15.7707617"><ele>19.0</ele><time>2026-05-03T09:17:21.482Z</time></trkpt><trkpt lat="39.9227133" lon="15.7706433"><ele>18.75</ele><time>2026-05-03T09:17:22.482Z</time></trkpt><trkpt lat="39.9228233" lon="15.7705283"><ele>18.5</ele><time>2026-05-03T09:17:23.481Z</time></trkpt><trkpt lat="39.922935" lon="15.7704083"><ele>18.25</ele><time>2026-05-03T09:17:24.483Z</time></trkpt><trkpt lat="39.9230417" lon="15.7702967"><ele>18.0</ele><time>2026-05-03T09:17:25.481Z</time></trkpt><trkpt lat="39.9231383" lon="15.7702017"><ele>18.0</ele><time>2026-05-03T09:17:26.483Z</time></trkpt><trkpt lat="39.9232283" lon="15.77011"><ele>18.0</ele><time>2026-05-03T09:17:27.481Z</time></trkpt><trkpt lat="39.9233217" lon="15.770015"><ele>18.0</ele><time>2026-05-03T09:17:28.481Z</time></trkpt><trkpt lat="39.92342" lon="15.7699083"><ele>18.0</ele><time>2026-05-03T09:17:29.481Z</time></trkpt><trkpt lat="39.9235217" lon="15.7697967"><ele>18.0</ele><time>2026-05-03T09:17:30.481Z</time></trkpt><trkpt lat="39.9236283" lon="15.7696883"><ele>18.0</ele><time>2026-05-03T09:17:31.483Z</time></trkpt><trkpt lat="39.9237383" lon="15.76958"><ele>18.0</ele><time>2026-05-03T09:17:32.483Z</time></trkpt><trkpt lat="39.9238483" lon="15.7694683"><ele>18.0</ele><time>2026-05-03T09:17:33.482Z</time></trkpt><trkpt lat="39.9239633" lon="15.7693583"><ele>17.5</ele><time>2026-05-03T09:17:34.484Z</time></trkpt><trkpt lat="39.9240783" lon="15.769255"><ele>17.0</ele><time>2026-05-03T09:17:35.483Z</time></trkpt><trkpt lat="39.9241917" lon="15.769155"><ele>16.5</ele><time>2026-05-03T09:17:36.484Z</time></trkpt><trkpt lat="39.9243083" lon="15.7690583"><ele>16.0</ele><time>2026-05-03T09:17:37.483Z</time></trkpt><trkpt lat="39.92443" lon="15.768965"><ele>16.0</ele><time>2026-05-03T09:17:38.483Z</time></trkpt><trkpt lat="39.9245583" lon="15.768875"><ele>16.0</ele><time>2026-05-03T09:17:39.481Z</time></trkpt><trkpt lat="39.9246883" lon="15.7687933"><ele>16.0</ele><time>2026-05-03T09:17:40.483Z</time></trkpt><trkpt lat="39.92482" lon="15.7687167"><ele>16.0</ele><time>2026-05-03T09:17:41.482Z</time></trkpt><trkpt lat="39.924955" lon="15.7686467"><ele>16.0</ele><time>2026-05-03T09:17:42.482Z</time></trkpt><trkpt lat="39.9250917" lon="15.7685833"><ele>16.0</ele><time>2026-05-03T09:17:43.483Z</time></trkpt><trkpt lat="39.92523" lon="15.7685233"><ele>16.0</ele><time>2026-05-03T09:17:44.483Z</time></trkpt><trkpt lat="39.9253733" lon="15.768465"><ele>16.0</ele><time>2026-05-03T09:17:45.481Z</time></trkpt><trkpt lat="39.9255183" lon="15.7684167"><ele>16.0</ele><time>2026-05-03T09:17:46.482Z</time></trkpt><trkpt lat="39.925665" lon="15.768375"><ele>16.0</ele><time>2026-05-03T09:17:47.483Z</time></trkpt><trkpt lat="39.9258067" lon="15.7683417"><ele>16.0</ele><time>2026-05-03T09:17:48.483Z</time></trkpt><trkpt lat="39.9259383" lon="15.7683117"><ele>16.0</ele><time>2026-05-03T09:17:49.483Z</time></trkpt><trkpt lat="39.926065" lon="15.7682883"><ele>16.0</ele><time>2026-05-03T09:17:50.483Z</time></trkpt><trkpt lat="39.9261867" lon="15.7682667"><ele>16.0</ele><time>2026-05-03T09:17:51.482Z</time></trkpt><trkpt lat="39.9263167" lon="15.7682517"><ele>16.0</ele><time>2026-05-03T09:17:52.482Z</time></trkpt><trkpt lat="39.926455" lon="15.76824"><ele>16.0</ele><time>2026-05-03T09:17:53.487Z</time></trkpt><trkpt lat="39.9266017" lon="15.7682333"><ele>15.333333333333332</ele><time>2026-05-03T09:17:54.483Z</time></trkpt><trkpt lat="39.9267583" lon="15.7682367"><ele>14.666666666666668</ele><time>2026-05-03T09:17:55.481Z</time></trkpt><trkpt lat="39.92692" lon="15.768245"><ele>14.0</ele><time>2026-05-03T09:17:56.482Z</time></trkpt><trkpt lat="39.927095" lon="15.76826"><ele>14.0</ele><time>2026-05-03T09:17:57.482Z</time></trkpt><trkpt lat="39.9272867" lon="15.768275"><ele>14.0</ele><time>2026-05-03T09:17:58.481Z</time></trkpt><trkpt lat="39.9275" lon="15.768295"><ele>14.0</ele><time>2026-05-03T09:17:59.481Z</time></trkpt><trkpt lat="39.92773" lon="15.7683167"><ele>14.0</ele><time>2026-05-03T09:18:00.483Z</time></trkpt><trkpt lat="39.9279717" lon="15.7683417"><ele>14.0</ele><time>2026-05-03T09:18:01.481Z</time></trkpt><trkpt lat="39.9282117" lon="15.7683633"><ele>13.5</ele><time>2026-05-03T09:18:02.484Z</time></trkpt><trkpt lat="39.9284467" lon="15.7683867"><ele>13.0</ele><time>2026-05-03T09:18:03.483Z</time></trkpt><trkpt lat="39.9286733" lon="15.76841"><ele>13.0</ele><time>2026-05-03T09:18:04.482Z</time></trkpt><trkpt lat="39.9288933" lon="15.76843"><ele>13.0</ele><time>2026-05-03T09:18:05.481Z</time></trkpt><trkpt lat="39.9291117" lon="15.7684533"><ele>13.0</ele><time>2026-05-03T09:18:06.482Z</time></trkpt><trkpt lat="39.9293267" lon="15.7684717"><ele>13.666666666666666</ele><time>2026-05-03T09:18:07.484Z</time></trkpt><trkpt lat="39.92953" lon="15.768485"><ele>14.333333333333332</ele><time>2026-05-03T09:18:08.483Z</time></trkpt><trkpt lat="39.9297167" lon="15.7684967"><ele>15.0</ele><time>2026-05-03T09:18:09.483Z</time></trkpt><trkpt lat="39.9298883" lon="15.76851"><ele>15.0</ele><time>2026-05-03T09:18:10.484Z</time></trkpt><trkpt lat="39.9300533" lon="15.768525"><ele>15.0</ele><time>2026-05-03T09:18:11.481Z</time></trkpt><trkpt lat="39.9302133" lon="15.7685483"><ele>15.0</ele><time>2026-05-03T09:18:12.482Z</time></trkpt><trkpt lat="39.9303717" lon="15.7685783"><ele>17.0</ele><time>2026-05-03T09:18:13.482Z</time></trkpt><trkpt lat="39.93053" lon="15.7686"><ele>19.0</ele><time>2026-05-03T09:18:14.482Z</time></trkpt><trkpt lat="39.9306833" lon="15.7686283"><ele>21.0</ele><time>2026-05-03T09:18:15.481Z</time></trkpt><trkpt lat="39.9308317" lon="15.76866"><ele>20.0</ele><time>2026-05-03T09:18:16.483Z</time></trkpt><trkpt lat="39.9309717" lon="15.76869"><ele>19.0</ele><time>2026-05-03T09:18:17.483Z</time></trkpt><trkpt lat="39.9311033" lon="15.7687233"><ele>18.0</ele><time>2026-05-03T09:18:18.482Z</time></trkpt><trkpt lat="39.9312317" lon="15.7687533"><ele>17.0</ele><time>2026-05-03T09:18:19.482Z</time></trkpt><trkpt lat="39.9313583" lon="15.7687833"><ele>17.0</ele><time>2026-05-03T09:18:20.483Z</time></trkpt><trkpt lat="39.931485" lon="15.7688183"><ele>17.0</ele><time>2026-05-03T09:18:21.481Z</time></trkpt><trkpt lat="39.9316117" lon="15.76885"><ele>17.0</ele><time>2026-05-03T09:18:22.483Z</time></trkpt><trkpt lat="39.9317233" lon="15.7688767"><ele>17.0</ele><time>2026-05-03T09:18:23.482Z</time></trkpt><trkpt lat="39.931825" lon="15.7689033"><ele>16.6</ele><time>2026-05-03T09:18:24.481Z</time></trkpt><trkpt lat="39.9319217" lon="15.7689267"><ele>16.2</ele><time>2026-05-03T09:18:25.482Z</time></trkpt><trkpt lat="39.9320217" lon="15.7689517"><ele>15.8</ele><time>2026-05-03T09:18:26.483Z</time></trkpt><trkpt lat="39.9321317" lon="15.7689817"><ele>15.4</ele><time>2026-05-03T09:18:27.482Z</time></trkpt><trkpt lat="39.9322483" lon="15.7690167"><ele>15.0</ele><time>2026-05-03T09:18:28.483Z</time></trkpt><trkpt lat="39.9323667" lon="15.769055"><ele>15.0</ele><time>2026-05-03T09:18:29.481Z</time></trkpt><trkpt lat="39.9324883" lon="15.7690883"><ele>15.0</ele><time>2026-05-03T09:18:30.483Z</time></trkpt><trkpt lat="39.932615" lon="15.769115"><ele>15.0</ele><time>2026-05-03T09:18:31.483Z</time></trkpt><trkpt lat="39.932745" lon="15.7691467"><ele>15.0</ele><time>2026-05-03T09:18:32.483Z</time></trkpt><trkpt lat="39.9328767" lon="15.76918"><ele>15.25</ele><time>2026-05-03T09:18:33.481Z</time></trkpt><trkpt lat="39.933015" lon="15.769215"><ele>15.5</ele><time>2026-05-03T09:18:34.482Z</time></trkpt><trkpt lat="39.93316" lon="15.7692533"><ele>15.75</ele><time>2026-05-03T09:18:35.481Z</time></trkpt><trkpt lat="39.9333067" lon="15.7692933"><ele>16.0</ele><time>2026-05-03T09:18:36.483Z</time></trkpt><trkpt lat="39.93345" lon="15.7693333"><ele>17.0</ele><time>2026-05-03T09:18:37.482Z</time></trkpt><trkpt lat="39.9335933" lon="15.7693717"><ele>18.0</ele><time>2026-05-03T09:18:38.483Z</time></trkpt><trkpt lat="39.9337367" lon="15.7694183"><ele>19.0</ele><time>2026-05-03T09:18:39.483Z</time></trkpt><trkpt lat="39.933885" lon="15.7694617"><ele>20.0</ele><time>2026-05-03T09:18:40.482Z</time></trkpt><trkpt lat="39.9340383" lon="15.769505"><ele>20.0</ele><time>2026-05-03T09:18:41.482Z</time></trkpt><trkpt lat="39.9342017" lon="15.7695467"><ele>20.0</ele><time>2026-05-03T09:18:42.483Z</time></trkpt><trkpt lat="39.9343683" lon="15.7695883"><ele>20.0</ele><time>2026-05-03T09:18:43.482Z</time></trkpt><trkpt lat="39.93454" lon="15.7696283"><ele>20.0</ele><time>2026-05-03T09:18:44.484Z</time></trkpt><trkpt lat="39.9347183" lon="15.76965"><ele>20.0</ele><time>2026-05-03T09:18:45.481Z</time></trkpt><trkpt lat="39.9349033" lon="15.7696517"><ele>20.0</ele><time>2026-05-03T09:18:46.483Z</time></trkpt><trkpt lat="39.9350917" lon="15.7696317"><ele>19.333333333333336</ele><time>2026-05-03T09:18:47.482Z</time></trkpt><trkpt lat="39.9352833" lon="15.76959"><ele>18.666666666666668</ele><time>2026-05-03T09:18:48.482Z</time></trkpt><trkpt lat="39.9354717" lon="15.76953"><ele>18.0</ele><time>2026-05-03T09:18:49.482Z</time></trkpt><trkpt lat="39.9356483" lon="15.7694567"><ele>18.0</ele><time>2026-05-03T09:18:50.484Z</time></trkpt><trkpt lat="39.9358167" lon="15.7693633"><ele>18.0</ele><time>2026-05-03T09:18:51.482Z</time></trkpt><trkpt lat="39.9359767" lon="15.769255"><ele>18.0</ele><time>2026-05-03T09:18:52.483Z</time></trkpt><trkpt lat="39.9361267" lon="15.7691333"><ele>18.0</ele><time>2026-05-03T09:18:53.482Z</time></trkpt><trkpt lat="39.936265" lon="15.7689983"><ele>18.0</ele><time>2026-05-03T09:18:54.483Z</time></trkpt><trkpt lat="39.9363983" lon="15.7688567"><ele>18.0</ele><time>2026-05-03T09:18:55.483Z</time></trkpt><trkpt lat="39.9365283" lon="15.7687067"><ele>18.0</ele><time>2026-05-03T09:18:56.484Z</time></trkpt><trkpt lat="39.9366583" lon="15.7685583"><ele>18.0</ele><time>2026-05-03T09:18:57.482Z</time></trkpt><trkpt lat="39.9367883" lon="15.7684133"><ele>18.0</ele><time>2026-05-03T09:18:58.482Z</time></trkpt><trkpt lat="39.936915" lon="15.76827"><ele>18.0</ele><time>2026-05-03T09:18:59.482Z</time></trkpt><trkpt lat="39.9370433" lon="15.76813"><ele>18.0</ele><time>2026-05-03T09:19:00.483Z</time></trkpt><trkpt lat="39.9371683" lon="15.7679883"><ele>18.0</ele><time>2026-05-03T09:19:01.482Z</time></trkpt><trkpt lat="39.937285" lon="15.7678533"><ele>18.0</ele><time>2026-05-03T09:19:02.484Z</time></trkpt><trkpt lat="39.9373967" lon="15.7677267"><ele>18.0</ele><time>2026-05-03T09:19:03.482Z</time></trkpt><trkpt lat="39.937505" lon="15.7676033"><ele>18.0</ele><time>2026-05-03T09:19:04.483Z</time></trkpt><trkpt lat="39.9376117" lon="15.7674817"><ele>18.0</ele><time>2026-05-03T09:19:05.482Z</time></trkpt><trkpt lat="39.9377217" lon="15.76736"><ele>19.0</ele><time>2026-05-03T09:19:06.483Z</time></trkpt><trkpt lat="39.9378367" lon="15.767235"><ele>20.0</ele><time>2026-05-03T09:19:07.483Z</time></trkpt><trkpt lat="39.93795" lon="15.7671067"><ele>21.0</ele><time>2026-05-03T09:19:08.483Z</time></trkpt><trkpt lat="39.9380633" lon="15.7669783"><ele>21.75</ele><time>2026-05-03T09:19:09.482Z</time></trkpt><trkpt lat="39.9381717" lon="15.7668567"><ele>22.5</ele><time>2026-05-03T09:19:10.484Z</time></trkpt><trkpt lat="39.93828" lon="15.7667383"><ele>23.25</ele><time>2026-05-03T09:19:11.482Z</time></trkpt><trkpt lat="39.93839" lon="15.7666167"><ele>24.0</ele><time>2026-05-03T09:19:12.482Z</time></trkpt><trkpt lat="39.9385017" lon="15.7665067"><ele>24.5</ele><time>2026-05-03T09:19:13.482Z</time></trkpt><trkpt lat="39.938615" lon="15.7664317"><ele>25.0</ele><time>2026-05-03T09:19:14.483Z</time></trkpt><trkpt lat="39.9387283" lon="15.7663917"><ele>25.5</ele><time>2026-05-03T09:19:15.482Z</time></trkpt><trkpt lat="39.938835" lon="15.7663733"><ele>26.0</ele><time>2026-05-03T09:19:16.481Z</time></trkpt><trkpt lat="39.93894" lon="15.76636"><ele>26.0</ele><time>2026-05-03T09:19:17.482Z</time></trkpt><trkpt lat="39.9390483" lon="15.7663433"><ele>26.0</ele><time>2026-05-03T09:19:18.482Z</time></trkpt><trkpt lat="39.9391567" lon="15.766335"><ele>26.0</ele><time>2026-05-03T09:19:19.486Z</time></trkpt><trkpt lat="39.939265" lon="15.766345"><ele>26.0</ele><time>2026-05-03T09:19:20.482Z</time></trkpt><trkpt lat="39.9393617" lon="15.7663817"><ele>26.0</ele><time>2026-05-03T09:19:21.481Z</time></trkpt><trkpt lat="39.9394383" lon="15.7664417"><ele>25.499999999999996</ele><time>2026-05-03T09:19:22.483Z</time></trkpt><trkpt lat="39.93949" lon="15.7665283"><ele>25.0</ele><time>2026-05-03T09:19:23.482Z</time></trkpt><trkpt lat="39.9395117" lon="15.7666333"><ele>24.5</ele><time>2026-05-03T09:19:24.482Z</time></trkpt><trkpt lat="39.939475" lon="15.76674"><ele>24.0</ele><time>2026-05-03T09:19:25.483Z</time></trkpt><trkpt lat="39.9394183" lon="15.7668383"><ele>23.5</ele><time>2026-05-03T09:19:26.482Z</time></trkpt><trkpt lat="39.9393317" lon="15.7668817"><ele>23.0</ele><time>2026-05-03T09:19:27.481Z</time></trkpt><trkpt lat="39.9392433" lon="15.766895"><ele>22.75</ele><time>2026-05-03T09:19:28.483Z</time></trkpt><trkpt lat="39.9391417" lon="15.7668917"><ele>22.5</ele><time>2026-05-03T09:19:29.482Z</time></trkpt><trkpt lat="39.9390033" lon="15.76686"><ele>22.25</ele><time>2026-05-03T09:19:30.481Z</time></trkpt><trkpt lat="39.938845" lon="15.7668083"><ele>22.0</ele><time>2026-05-03T09:19:31.482Z</time></trkpt><trkpt lat="39.938675" lon="15.7667333"><ele>22.666666666666664</ele><time>2026-05-03T09:19:32.484Z</time></trkpt><trkpt lat="39.9385133" lon="15.7666617"><ele>23.333333333333332</ele><time>2026-05-03T09:19:33.483Z</time></trkpt><trkpt lat="39.9383583" lon="15.766595"><ele>24.0</ele><time>2026-05-03T09:19:34.482Z</time></trkpt><trkpt lat="39.9382133" lon="15.76653"><ele>24.0</ele><time>2026-05-03T09:19:35.482Z</time></trkpt><trkpt lat="39.9380817" lon="15.766475"><ele>24.0</ele><time>2026-05-03T09:19:36.483Z</time></trkpt><trkpt lat="39.9379683" lon="15.76643"><ele>24.0</ele><time>2026-05-03T09:19:37.483Z</time></trkpt><trkpt lat="39.9378683" lon="15.7663933"><ele>24.0</ele><time>2026-05-03T09:19:38.484Z</time></trkpt><trkpt lat="39.9377767" lon="15.7663583"><ele>24.0</ele><time>2026-05-03T09:19:39.482Z</time></trkpt><trkpt lat="39.9376917" lon="15.7663317"><ele>24.0</ele><time>2026-05-03T09:19:40.482Z</time></trkpt><trkpt lat="39.9376167" lon="15.7663033"><ele>24.0</ele><time>2026-05-03T09:19:41.482Z</time></trkpt><trkpt lat="39.9375417" lon="15.7662683"><ele>24.0</ele><time>2026-05-03T09:19:42.483Z</time></trkpt><trkpt lat="39.9374517" lon="15.76622"><ele>24.0</ele><time>2026-05-03T09:19:43.482Z</time></trkpt><trkpt lat="39.93735" lon="15.7661633"><ele>23.6</ele><time>2026-05-03T09:19:44.483Z</time></trkpt><trkpt lat="39.9372433" lon="15.766105"><ele>23.2</ele><time>2026-05-03T09:19:45.482Z</time></trkpt><trkpt lat="39.9371417" lon="15.7660533"><ele>22.8</ele><time>2026-05-03T09:19:46.483Z</time></trkpt><trkpt lat="39.937045" lon="15.766"><ele>22.400000000000002</ele><time>2026-05-03T09:19:47.482Z</time></trkpt><trkpt lat="39.93695" lon="15.7659517"><ele>22.0</ele><time>2026-05-03T09:19:48.482Z</time></trkpt><trkpt lat="39.9368733" lon="15.76591"><ele>23.166666666666664</ele><time>2026-05-03T09:19:49.482Z</time></trkpt><trkpt lat="39.93678" lon="15.7658483"><ele>24.333333333333332</ele><time>2026-05-03T09:19:51.482Z</time></trkpt><trkpt lat="39.9367267" lon="15.7658"><ele>25.5</ele><time>2026-05-03T09:19:53.483Z</time></trkpt><trkpt lat="39.936645" lon="15.7657433"><ele>26.666666666666664</ele><time>2026-05-03T09:19:56.484Z</time></trkpt><trkpt lat="39.9365667" lon="15.7656783"><ele>27.833333333333332</ele><time>2026-05-03T09:19:59.481Z</time></trkpt><trkpt lat="39.9365017" lon="15.7656283"><ele>29.0</ele><time>2026-05-03T09:20:02.484Z</time></trkpt><trkpt lat="39.9365333" lon="15.7657083"><ele>29.000000000000004</ele><time>2026-05-03T09:20:07.482Z</time></trkpt><trkpt lat="39.936605" lon="15.76575"><ele>29.0</ele><time>2026-05-03T09:20:09.481Z</time></trkpt><trkpt lat="39.936655" lon="15.765825"><ele>29.000000000000004</ele><time>2026-05-03T09:20:11.482Z</time></trkpt><trkpt lat="39.9366167" lon="15.7659117"><ele>29.000000000000004</ele><time>2026-05-03T09:20:14.482Z</time></trkpt><trkpt lat="39.9365517" lon="15.765915"><ele>29.0</ele><time>2026-05-03T09:20:16.483Z</time></trkpt><trkpt lat="39.9364883" lon="15.7659117"><ele>29.000000000000004</ele><time>2026-05-03T09:20:18.483Z</time></trkpt><trkpt lat="39.9364133" lon="15.7659033"><ele>29.000000000000004</ele><time>2026-05-03T09:20:20.482Z</time></trkpt><trkpt lat="39.9362767" lon="15.76588"><ele>29.0</ele><time>2026-05-03T09:20:22.482Z</time></trkpt><trkpt lat="39.9361833" lon="15.7658633"><ele>29.0</ele><time>2026-05-03T09:20:23.483Z</time></trkpt><trkpt lat="39.9360867" lon="15.765845"><ele>29.0</ele><time>2026-05-03T09:20:24.482Z</time></trkpt><trkpt lat="39.935975" lon="15.7658167"><ele>29.0</ele><time>2026-05-03T09:20:25.486Z</time></trkpt><trkpt lat="39.9358483" lon="15.7657767"><ele>29.0</ele><time>2026-05-03T09:20:26.483Z</time></trkpt><trkpt lat="39.9357233" lon="15.7657267"><ele>26.75</ele><time>2026-05-03T09:20:27.482Z</time></trkpt><trkpt lat="39.9355933" lon="15.7656733"><ele>24.5</ele><time>2026-05-03T09:20:28.482Z</time></trkpt><trkpt lat="39.9354583" lon="15.7656183"><ele>22.25</ele><time>2026-05-03T09:20:29.482Z</time></trkpt><trkpt lat="39.9353183" lon="15.76556"><ele>20.0</ele><time>2026-05-03T09:20:30.482Z</time></trkpt><trkpt lat="39.9351767" lon="15.765505"><ele>18.666666666666668</ele><time>2026-05-03T09:20:31.483Z</time></trkpt><trkpt lat="39.9350333" lon="15.7654517"><ele>17.333333333333332</ele><time>2026-05-03T09:20:32.483Z</time></trkpt><trkpt lat="39.9348867" lon="15.7653983"><ele>16.0</ele><time>2026-05-03T09:20:33.483Z</time></trkpt><trkpt lat="39.93474" lon="15.7653433"><ele>16.0</ele><time>2026-05-03T09:20:34.482Z</time></trkpt><trkpt lat="39.9345983" lon="15.7652883"><ele>16.0</ele><time>2026-05-03T09:20:35.482Z</time></trkpt><trkpt lat="39.9344617" lon="15.765245"><ele>16.0</ele><time>2026-05-03T09:20:36.482Z</time></trkpt><trkpt lat="39.9343217" lon="15.7652117"><ele>16.0</ele><time>2026-05-03T09:20:37.483Z</time></trkpt><trkpt lat="39.9341867" lon="15.7651783"><ele>16.400000000000002</ele><time>2026-05-03T09:20:38.482Z</time></trkpt><trkpt lat="39.93407" lon="15.7651433"><ele>16.8</ele><time>2026-05-03T09:20:39.483Z</time></trkpt><trkpt lat="39.9339817" lon="15.7651117"><ele>17.200000000000003</ele><time>2026-05-03T09:20:40.483Z</time></trkpt><trkpt lat="39.9339133" lon="15.7650867"><ele>17.6</ele><time>2026-05-03T09:20:41.483Z</time></trkpt><trkpt lat="39.9338417" lon="15.7650383"><ele>18.0</ele><time>2026-05-03T09:20:43.482Z</time></trkpt><trkpt lat="39.9339067" lon="15.765125"><ele>18.0</ele><time>2026-05-03T09:20:56.483Z</time></trkpt><trkpt lat="39.934045" lon="15.76516"><ele>18.0</ele><time>2026-05-03T09:20:58.482Z</time></trkpt><trkpt lat="39.9341383" lon="15.765185"><ele>18.0</ele><time>2026-05-03T09:20:59.482Z</time></trkpt><trkpt lat="39.9342383" lon="15.7652167"><ele>18.0</ele><time>2026-05-03T09:21:00.483Z</time></trkpt><trkpt lat="39.93434" lon="15.7652517"><ele>18.0</ele><time>2026-05-03T09:21:01.482Z</time></trkpt><trkpt lat="39.9344467" lon="15.7653033"><ele>17.5</ele><time>2026-05-03T09:21:02.483Z</time></trkpt><trkpt lat="39.9345617" lon="15.76536"><ele>17.0</ele><time>2026-05-03T09:21:03.482Z</time></trkpt><trkpt lat="39.93468" lon="15.765415"><ele>16.5</ele><time>2026-05-03T09:21:04.483Z</time></trkpt><trkpt lat="39.9348083" lon="15.7654667"><ele>16.0</ele><time>2026-05-03T09:21:05.483Z</time></trkpt><trkpt lat="39.9349433" lon="15.76552"><ele>17.0</ele><time>2026-05-03T09:21:06.482Z</time></trkpt><trkpt lat="39.9350817" lon="15.7655683"><ele>18.0</ele><time>2026-05-03T09:21:07.483Z</time></trkpt><trkpt lat="39.93522" lon="15.7656167"><ele>19.0</ele><time>2026-05-03T09:21:08.484Z</time></trkpt><trkpt lat="39.9353617" lon="15.7656667"><ele>20.0</ele><time>2026-05-03T09:21:09.483Z</time></trkpt><trkpt lat="39.9355117" lon="15.7657167"><ele>20.0</ele><time>2026-05-03T09:21:10.483Z</time></trkpt><trkpt lat="39.9356683" lon="15.765765"><ele>20.0</ele><time>2026-05-03T09:21:11.482Z</time></trkpt><trkpt lat="39.9358333" lon="15.7658167"><ele>20.0</ele><time>2026-05-03T09:21:12.484Z</time></trkpt><trkpt lat="39.936" lon="15.76586"><ele>22.25</ele><time>2026-05-03T09:21:13.483Z</time></trkpt><trkpt lat="39.9361633" lon="15.765895"><ele>24.5</ele><time>2026-05-03T09:21:14.483Z</time></trkpt><trkpt lat="39.93631" lon="15.76592"><ele>26.75</ele><time>2026-05-03T09:21:15.483Z</time></trkpt><trkpt lat="39.936435" lon="15.7659433"><ele>29.0</ele><time>2026-05-03T09:21:16.482Z</time></trkpt><trkpt lat="39.93653" lon="15.765965"><ele>29.0</ele><time>2026-05-03T09:21:17.483Z</time></trkpt><trkpt lat="39.9366" lon="15.7659867"><ele>29.0</ele><time>2026-05-03T09:21:18.483Z</time></trkpt><trkpt lat="39.93669" lon="15.7659817"><ele>29.0</ele><time>2026-05-03T09:21:20.484Z</time></trkpt><trkpt lat="39.9367117" lon="15.765875"><ele>29.0</ele><time>2026-05-03T09:21:22.482Z</time></trkpt><trkpt lat="39.9366467" lon="15.765735"><ele>29.0</ele><time>2026-05-03T09:21:24.482Z</time></trkpt><trkpt lat="39.9365833" lon="15.765665"><ele>28.999999999999996</ele><time>2026-05-03T09:21:25.483Z</time></trkpt><trkpt lat="39.9364967" lon="15.765595"><ele>29.0</ele><time>2026-05-03T09:21:26.482Z</time></trkpt><trkpt lat="39.93642" lon="15.7655283"><ele>29.0</ele><time>2026-05-03T09:21:27.483Z</time></trkpt><trkpt lat="39.93636" lon="15.76548"><ele>29.0</ele><time>2026-05-03T09:21:28.483Z</time></trkpt><trkpt lat="39.936295" lon="15.765405"><ele>28.999999999999996</ele><time>2026-05-03T09:21:30.483Z</time></trkpt><trkpt lat="39.9362533" lon="15.7653167"><ele>29.0</ele><time>2026-05-03T09:21:33.482Z</time></trkpt><trkpt lat="39.9362317" lon="15.76521"><ele>29.571428571428577</ele><time>2026-05-03T09:21:35.483Z</time></trkpt><trkpt lat="39.9362233" lon="15.765125"><ele>30.142857142857146</ele><time>2026-05-03T09:21:36.484Z</time></trkpt><trkpt lat="39.9362267" lon="15.7650317"><ele>30.714285714285715</ele><time>2026-05-03T09:21:37.482Z</time></trkpt><trkpt lat="39.9362433" lon="15.7649333"><ele>31.28571428571429</ele><time>2026-05-03T09:21:38.483Z</time></trkpt><trkpt lat="39.9362633" lon="15.764835"><ele>31.85714285714286</ele><time>2026-05-03T09:21:39.481Z</time></trkpt><trkpt lat="39.9362867" lon="15.7647367"><ele>32.42857142857143</ele><time>2026-05-03T09:21:40.483Z</time></trkpt><trkpt lat="39.93631" lon="15.7646417"><ele>33.0</ele><time>2026-05-03T09:21:41.483Z</time></trkpt><trkpt lat="39.9363333" lon="15.764545"><ele>33.0</ele><time>2026-05-03T09:21:42.482Z</time></trkpt><trkpt lat="39.9363567" lon="15.76445"><ele>33.0</ele><time>2026-05-03T09:21:43.482Z</time></trkpt><trkpt lat="39.9363817" lon="15.76436"><ele>33.0</ele><time>2026-05-03T09:21:44.483Z</time></trkpt><trkpt lat="39.9364183" lon="15.764275"><ele>33.0</ele><time>2026-05-03T09:21:45.482Z</time></trkpt><trkpt lat="39.9364617" lon="15.7641917"><ele>33.0</ele><time>2026-05-03T09:21:46.482Z</time></trkpt><trkpt lat="39.93651" lon="15.7641133"><ele>33.0</ele><time>2026-05-03T09:21:47.481Z</time></trkpt><trkpt lat="39.93656" lon="15.7640317"><ele>32.5</ele><time>2026-05-03T09:21:48.482Z</time></trkpt><trkpt lat="39.9366117" lon="15.7639483"><ele>32.0</ele><time>2026-05-03T09:21:49.483Z</time></trkpt><trkpt lat="39.9366667" lon="15.763865"><ele>31.5</ele><time>2026-05-03T09:21:50.482Z</time></trkpt><trkpt lat="39.9367217" lon="15.7637883"><ele>31.0</ele><time>2026-05-03T09:21:51.483Z</time></trkpt><trkpt lat="39.93678" lon="15.763725"><ele>30.5</ele><time>2026-05-03T09:21:52.482Z</time></trkpt><trkpt lat="39.936845" lon="15.763665"><ele>30.0</ele><time>2026-05-03T09:21:53.482Z</time></trkpt><trkpt lat="39.9369167" lon="15.7636117"><ele>30.4</ele><time>2026-05-03T09:21:54.482Z</time></trkpt><trkpt lat="39.9369967" lon="15.7635617"><ele>30.8</ele><time>2026-05-03T09:21:55.482Z</time></trkpt><trkpt lat="39.9370867" lon="15.7635167"><ele>31.200000000000003</ele><time>2026-05-03T09:21:56.483Z</time></trkpt><trkpt lat="39.93719" lon="15.763475"><ele>31.6</ele><time>2026-05-03T09:21:57.482Z</time></trkpt><trkpt lat="39.9373" lon="15.763435"><ele>32.0</ele><time>2026-05-03T09:21:58.483Z</time></trkpt><trkpt lat="39.9374133" lon="15.7633933"><ele>32.0</ele><time>2026-05-03T09:21:59.483Z</time></trkpt><trkpt lat="39.9375217" lon="15.7633533"><ele>32.0</ele><time>2026-05-03T09:22:00.483Z</time></trkpt><trkpt lat="39.93763" lon="15.7633233"><ele>32.0</ele><time>2026-05-03T09:22:01.482Z</time></trkpt><trkpt lat="39.93774" lon="15.763305"><ele>32.0</ele><time>2026-05-03T09:22:02.484Z</time></trkpt><trkpt lat="39.937855" lon="15.7633083"><ele>32.0</ele><time>2026-05-03T09:22:03.483Z</time></trkpt><trkpt lat="39.9379717" lon="15.7633417"><ele>33.2</ele><time>2026-05-03T09:22:04.482Z</time></trkpt><trkpt lat="39.9380833" lon="15.7633917"><ele>34.400000000000006</ele><time>2026-05-03T09:22:05.483Z</time></trkpt><trkpt lat="39.9381883" lon="15.7634383"><ele>35.599999999999994</ele><time>2026-05-03T09:22:06.483Z</time></trkpt><trkpt lat="39.9382917" lon="15.7634483"><ele>36.8</ele><time>2026-05-03T09:22:07.483Z</time></trkpt><trkpt lat="39.9383917" lon="15.7634267"><ele>38.0</ele><time>2026-05-03T09:22:08.486Z</time></trkpt><trkpt lat="39.938485" lon="15.7633517"><ele>39.5</ele><time>2026-05-03T09:22:09.482Z</time></trkpt><trkpt lat="39.9385683" lon="15.7632367"><ele>41.0</ele><time>2026-05-03T09:22:10.482Z</time></trkpt><trkpt lat="39.9386467" lon="15.763105"><ele>42.5</ele><time>2026-05-03T09:22:11.484Z</time></trkpt><trkpt lat="39.9387217" lon="15.7629617"><ele>44.0</ele><time>2026-05-03T09:22:12.482Z</time></trkpt><trkpt lat="39.938795" lon="15.7628217"><ele>43.400000000000006</ele><time>2026-05-03T09:22:13.484Z</time></trkpt><trkpt lat="39.9388533" lon="15.76269"><ele>42.8</ele><time>2026-05-03T09:22:14.484Z</time></trkpt><trkpt lat="39.9389083" lon="15.7625667"><ele>42.2</ele><time>2026-05-03T09:22:15.481Z</time></trkpt><trkpt lat="39.9389583" lon="15.7624417"><ele>41.599999999999994</ele><time>2026-05-03T09:22:16.481Z</time></trkpt><trkpt lat="39.9390033" lon="15.7623117"><ele>41.0</ele><time>2026-05-03T09:22:17.482Z</time></trkpt><trkpt lat="39.9390383" lon="15.7621717"><ele>41.0</ele><time>2026-05-03T09:22:18.481Z</time></trkpt><trkpt lat="39.9390583" lon="15.76202"><ele>41.0</ele><time>2026-05-03T09:22:19.482Z</time></trkpt><trkpt lat="39.9390667" lon="15.7618617"><ele>41.0</ele><time>2026-05-03T09:22:20.482Z</time></trkpt><trkpt lat="39.9390717" lon="15.7617033"><ele>41.0</ele><time>2026-05-03T09:22:21.481Z</time></trkpt><trkpt lat="39.9390733" lon="15.761555"><ele>41.4</ele><time>2026-05-03T09:22:22.483Z</time></trkpt><trkpt lat="39.939075" lon="15.7614267"><ele>41.8</ele><time>2026-05-03T09:22:23.483Z</time></trkpt><trkpt lat="39.939075" lon="15.76132"><ele>42.199999999999996</ele><time>2026-05-03T09:22:24.483Z</time></trkpt><trkpt lat="39.9391017" lon="15.7611567"><ele>42.599999999999994</ele><time>2026-05-03T09:22:38.483Z</time></trkpt><trkpt lat="39.9391" lon="15.761065"><ele>43.0</ele><time>2026-05-03T09:22:39.482Z</time></trkpt><trkpt lat="39.9390833" lon="15.7609467"><ele>44.0</ele><time>2026-05-03T09:22:40.483Z</time></trkpt><trkpt lat="39.9390517" lon="15.7608033"><ele>45.0</ele><time>2026-05-03T09:22:41.481Z</time></trkpt><trkpt lat="39.93902" lon="15.7606467"><ele>46.0</ele><time>2026-05-03T09:22:42.482Z</time></trkpt><trkpt lat="39.938985" lon="15.7604733"><ele>47.0</ele><time>2026-05-03T09:22:43.484Z</time></trkpt><trkpt lat="39.9389483" lon="15.7602933"><ele>49.25</ele><time>2026-05-03T09:22:44.482Z</time></trkpt><trkpt lat="39.9389083" lon="15.7601033"><ele>51.5</ele><time>2026-05-03T09:22:45.483Z</time></trkpt><trkpt lat="39.9388667" lon="15.7599133"><ele>53.75</ele><time>2026-05-03T09:22:46.482Z</time></trkpt><trkpt lat="39.93883" lon="15.75973"><ele>56.0</ele><time>2026-05-03T09:22:47.483Z</time></trkpt><trkpt lat="39.9388033" lon="15.759555"><ele>56.0</ele><time>2026-05-03T09:22:48.483Z</time></trkpt><trkpt lat="39.938785" lon="15.7593883"><ele>56.0</ele><time>2026-05-03T09:22:49.483Z</time></trkpt><trkpt lat="39.93877" lon="15.7592283"><ele>56.0</ele><time>2026-05-03T09:22:50.483Z</time></trkpt><trkpt lat="39.9387633" lon="15.7590817"><ele>56.0</ele><time>2026-05-03T09:22:51.483Z</time></trkpt><trkpt lat="39.9387533" lon="15.7589533"><ele>56.8</ele><time>2026-05-03T09:22:52.483Z</time></trkpt><trkpt lat="39.93875" lon="15.758835"><ele>57.599999999999994</ele><time>2026-05-03T09:22:53.484Z</time></trkpt><trkpt lat="39.9387433" lon="15.7587217"><ele>58.4</ele><time>2026-05-03T09:22:54.483Z</time></trkpt><trkpt lat="39.938735" lon="15.7586033"><ele>59.2</ele><time>2026-05-03T09:22:55.483Z</time></trkpt><trkpt lat="39.938725" lon="15.7584817"><ele>60.0</ele><time>2026-05-03T09:22:56.482Z</time></trkpt><trkpt lat="39.9387133" lon="15.7583567"><ele>61.2</ele><time>2026-05-03T09:22:57.482Z</time></trkpt><trkpt lat="39.9386983" lon="15.7582283"><ele>62.4</ele><time>2026-05-03T09:22:58.482Z</time></trkpt><trkpt lat="39.93869" lon="15.7580967"><ele>63.599999999999994</ele><time>2026-05-03T09:22:59.483Z</time></trkpt><trkpt lat="39.93869" lon="15.7579667"><ele>64.8</ele><time>2026-05-03T09:23:00.482Z</time></trkpt><trkpt lat="39.9386967" lon="15.7578317"><ele>66.0</ele><time>2026-05-03T09:23:01.483Z</time></trkpt><trkpt lat="39.9387083" lon="15.7577033"><ele>66.39999999999999</ele><time>2026-05-03T09:23:02.483Z</time></trkpt><trkpt lat="39.9387217" lon="15.7575817"><ele>66.8</ele><time>2026-05-03T09:23:03.483Z</time></trkpt><trkpt lat="39.9387333" lon="15.7574567"><ele>67.19999999999999</ele><time>2026-05-03T09:23:04.481Z</time></trkpt><trkpt lat="39.938745" lon="15.7573283"><ele>67.6</ele><time>2026-05-03T09:23:05.483Z</time></trkpt><trkpt lat="39.9387617" lon="15.7572"><ele>68.0</ele><time>2026-05-03T09:23:06.481Z</time></trkpt><trkpt lat="39.9387783" lon="15.7570767"><ele>68.0</ele><time>2026-05-03T09:23:07.482Z</time></trkpt><trkpt lat="39.9387933" lon="15.7569633"><ele>68.0</ele><time>2026-05-03T09:23:08.484Z</time></trkpt><trkpt lat="39.9388067" lon="15.7568433"><ele>68.0</ele><time>2026-05-03T09:23:09.481Z</time></trkpt><trkpt lat="39.938825" lon="15.7567183"><ele>68.0</ele><time>2026-05-03T09:23:10.483Z</time></trkpt><trkpt lat="39.9388333" lon="15.7565933"><ele>68.0</ele><time>2026-05-03T09:23:11.483Z</time></trkpt><trkpt lat="39.9388283" lon="15.7564733"><ele>68.83333333333334</ele><time>2026-05-03T09:23:12.482Z</time></trkpt><trkpt lat="39.9388033" lon="15.756365"><ele>69.66666666666667</ele><time>2026-05-03T09:23:13.483Z</time></trkpt><trkpt lat="39.9387533" lon="15.7562733"><ele>70.5</ele><time>2026-05-03T09:23:14.484Z</time></trkpt><trkpt lat="39.93869" lon="15.7562133"><ele>71.33333333333333</ele><time>2026-05-03T09:23:15.482Z</time></trkpt><trkpt lat="39.9386267" lon="15.7561617"><ele>72.16666666666666</ele><time>2026-05-03T09:23:16.482Z</time></trkpt><trkpt lat="39.9385217" lon="15.7561"><ele>73.0</ele><time>2026-05-03T09:23:18.483Z</time></trkpt><trkpt lat="39.93842" lon="15.7560183"><ele>71.4</ele><time>2026-05-03T09:23:20.483Z</time></trkpt><trkpt lat="39.9383633" lon="15.7559583"><ele>69.8</ele><time>2026-05-03T09:23:21.483Z</time></trkpt><trkpt lat="39.9383033" lon="15.7558767"><ele>68.2</ele><time>2026-05-03T09:23:22.483Z</time></trkpt><trkpt lat="39.9382367" lon="15.75577"><ele>66.6</ele><time>2026-05-03T09:23:23.482Z</time></trkpt><trkpt lat="39.9381517" lon="15.7556167"><ele>65.0</ele><time>2026-05-03T09:23:24.482Z</time></trkpt><trkpt lat="39.9380567" lon="15.7554567"><ele>65.0</ele><time>2026-05-03T09:23:25.483Z</time></trkpt><trkpt lat="39.937955" lon="15.7552917"><ele>65.0</ele><time>2026-05-03T09:23:26.482Z</time></trkpt><trkpt lat="39.9378367" lon="15.7551367"><ele>65.0</ele><time>2026-05-03T09:23:27.482Z</time></trkpt><trkpt lat="39.9376967" lon="15.755"><ele>64.33333333333334</ele><time>2026-05-03T09:23:28.483Z</time></trkpt><trkpt lat="39.93754" lon="15.7548833"><ele>63.66666666666667</ele><time>2026-05-03T09:23:29.483Z</time></trkpt><trkpt lat="39.9373767" lon="15.754785"><ele>63.0</ele><time>2026-05-03T09:23:30.483Z</time></trkpt><trkpt lat="39.93721" lon="15.7546883"><ele>63.0</ele><time>2026-05-03T09:23:31.483Z</time></trkpt><trkpt lat="39.9370583" lon="15.7545883"><ele>63.0</ele><time>2026-05-03T09:23:32.483Z</time></trkpt><trkpt lat="39.9369167" lon="15.754475"><ele>63.0</ele><time>2026-05-03T09:23:33.484Z</time></trkpt><trkpt lat="39.9367883" lon="15.7543567"><ele>60.0</ele><time>2026-05-03T09:23:34.482Z</time></trkpt><trkpt lat="39.936685" lon="15.75424"><ele>57.0</ele><time>2026-05-03T09:23:35.484Z</time></trkpt><trkpt lat="39.936615" lon="15.754115"><ele>54.0</ele><time>2026-05-03T09:23:36.483Z</time></trkpt><trkpt lat="39.9365833" lon="15.7539717"><ele>51.0</ele><time>2026-05-03T09:23:37.483Z</time></trkpt><trkpt lat="39.9365717" lon="15.7538133"><ele>51.0</ele><time>2026-05-03T09:23:38.483Z</time></trkpt><trkpt lat="39.9365733" lon="15.7536367"><ele>51.0</ele><time>2026-05-03T09:23:39.482Z</time></trkpt><trkpt lat="39.93659" lon="15.7534483"><ele>51.0</ele><time>2026-05-03T09:23:40.482Z</time></trkpt><trkpt lat="39.9366133" lon="15.7532583"><ele>51.0</ele><time>2026-05-03T09:23:41.485Z</time></trkpt><trkpt lat="39.9366217" lon="15.7530717"><ele>57.0</ele><time>2026-05-03T09:23:42.483Z</time></trkpt><trkpt lat="39.936605" lon="15.7528983"><ele>63.0</ele><time>2026-05-03T09:23:43.483Z</time></trkpt><trkpt lat="39.9365583" lon="15.7527267"><ele>69.0</ele><time>2026-05-03T09:23:44.483Z</time></trkpt><trkpt lat="39.9364833" lon="15.7525633"><ele>75.0</ele><time>2026-05-03T09:23:45.482Z</time></trkpt><trkpt lat="39.93639" lon="15.75241"><ele>79.2</ele><time>2026-05-03T09:23:46.482Z</time></trkpt><trkpt lat="39.9363" lon="15.7522833"><ele>83.4</ele><time>2026-05-03T09:23:47.482Z</time></trkpt><trkpt lat="39.9362117" lon="15.7521833"><ele>87.6</ele><time>2026-05-03T09:23:48.482Z</time></trkpt><trkpt lat="39.93613" lon="15.7521067"><ele>91.8</ele><time>2026-05-03T09:23:49.483Z</time></trkpt><trkpt lat="39.93605" lon="15.7520417"><ele>96.0</ele><time>2026-05-03T09:23:50.482Z</time></trkpt><trkpt lat="39.9359783" lon="15.7519867"><ele>96.0</ele><time>2026-05-03T09:23:51.481Z</time></trkpt><trkpt lat="39.93592" lon="15.7519367"><ele>96.0</ele><time>2026-05-03T09:23:52.481Z</time></trkpt><trkpt lat="39.9358417" lon="15.751865"><ele>96.0</ele><time>2026-05-03T09:23:54.481Z</time></trkpt><trkpt lat="39.93577" lon="15.751805"><ele>96.0</ele><time>2026-05-03T09:25:29.48Z</time></trkpt><trkpt lat="39.93567" lon="15.7516967"><ele>96.0</ele><time>2026-05-03T09:25:31.481Z</time></trkpt><trkpt lat="39.9356" lon="15.7515783"><ele>99.0</ele><time>2026-05-03T09:25:32.483Z</time></trkpt><trkpt lat="39.9355383" lon="15.7514333"><ele>102.0</ele><time>2026-05-03T09:25:33.48Z</time></trkpt><trkpt lat="39.93549" lon="15.7512733"><ele>105.0</ele><time>2026-05-03T09:25:34.482Z</time></trkpt><trkpt lat="39.9354583" lon="15.7510967"><ele>108.0</ele><time>2026-05-03T09:25:35.483Z</time></trkpt><trkpt lat="39.935425" lon="15.7509133"><ele>108.0</ele><time>2026-05-03T09:25:36.482Z</time></trkpt><trkpt lat="39.9353817" lon="15.75075"><ele>108.0</ele><time>2026-05-03T09:25:37.481Z</time></trkpt><trkpt lat="39.935315" lon="15.7506083"><ele>108.0</ele><time>2026-05-03T09:25:38.481Z</time></trkpt><trkpt lat="39.9352317" lon="15.7504767"><ele>108.0</ele><time>2026-05-03T09:25:39.481Z</time></trkpt><trkpt lat="39.9351517" lon="15.7503533"><ele>108.0</ele><time>2026-05-03T09:25:40.481Z</time></trkpt><trkpt lat="39.935115" lon="15.75023"><ele>108.00000000000001</ele><time>2026-05-03T09:25:41.481Z</time></trkpt><trkpt lat="39.935115" lon="15.7501117"><ele>108.00000000000001</ele><time>2026-05-03T09:25:42.482Z</time></trkpt><trkpt lat="39.935125" lon="15.7499983"><ele>108.0</ele><time>2026-05-03T09:25:43.482Z</time></trkpt><trkpt lat="39.93517" lon="15.749875"><ele>108.0</ele><time>2026-05-03T09:25:44.483Z</time></trkpt><trkpt lat="39.93524" lon="15.7497383"><ele>113.0</ele><time>2026-05-03T09:25:45.483Z</time></trkpt><trkpt lat="39.9352883" lon="15.74959"><ele>118.0</ele><time>2026-05-03T09:25:46.483Z</time></trkpt><trkpt lat="39.9353083" lon="15.749425"><ele>123.0</ele><time>2026-05-03T09:25:47.481Z</time></trkpt><trkpt lat="39.9352967" lon="15.7492483"><ele>128.0</ele><time>2026-05-03T09:25:48.483Z</time></trkpt><trkpt lat="39.9352633" lon="15.7490767"><ele>128.75</ele><time>2026-05-03T09:25:49.481Z</time></trkpt><trkpt lat="39.9352433" lon="15.7489217"><ele>129.5</ele><time>2026-05-03T09:25:50.482Z</time></trkpt><trkpt lat="39.935255" lon="15.7487617"><ele>130.25</ele><time>2026-05-03T09:25:51.485Z</time></trkpt><trkpt lat="39.935295" lon="15.7486033"><ele>131.0</ele><time>2026-05-03T09:25:52.481Z</time></trkpt><trkpt lat="39.9353433" lon="15.7484433"><ele>127.25</ele><time>2026-05-03T09:25:53.481Z</time></trkpt><trkpt lat="39.9353783" lon="15.74827"><ele>123.5</ele><time>2026-05-03T09:25:54.481Z</time></trkpt><trkpt lat="39.9353833" lon="15.7480817"><ele>119.75</ele><time>2026-05-03T09:25:55.481Z</time></trkpt><trkpt lat="39.935375" lon="15.7478983"><ele>116.0</ele><time>2026-05-03T09:25:56.483Z</time></trkpt><trkpt lat="39.9353567" lon="15.747735"><ele>111.0</ele><time>2026-05-03T09:25:57.482Z</time></trkpt><trkpt lat="39.9353433" lon="15.7475883"><ele>106.0</ele><time>2026-05-03T09:25:58.482Z</time></trkpt><trkpt lat="39.9353617" lon="15.7474567"><ele>101.0</ele><time>2026-05-03T09:25:59.482Z</time></trkpt><trkpt lat="39.9354117" lon="15.7473533"><ele>96.0</ele><time>2026-05-03T09:26:00.482Z</time></trkpt><trkpt lat="39.9354983" lon="15.7472833"><ele>91.0</ele><time>2026-05-03T09:26:01.481Z</time></trkpt><trkpt lat="39.9356083" lon="15.7472233"><ele>91.0</ele><time>2026-05-03T09:26:02.482Z</time></trkpt><trkpt lat="39.935735" lon="15.74716"><ele>91.0</ele><time>2026-05-03T09:26:03.482Z</time></trkpt><trkpt lat="39.9358683" lon="15.7471083"><ele>91.0</ele><time>2026-05-03T09:26:04.482Z</time></trkpt><trkpt lat="39.93601" lon="15.747085"><ele>91.0</ele><time>2026-05-03T09:26:05.482Z</time></trkpt><trkpt lat="39.9361667" lon="15.7470867"><ele>93.66666666666666</ele><time>2026-05-03T09:26:06.482Z</time></trkpt><trkpt lat="39.9363417" lon="15.7471117"><ele>96.33333333333333</ele><time>2026-05-03T09:26:07.482Z</time></trkpt><trkpt lat="39.9365283" lon="15.7471567"><ele>99.0</ele><time>2026-05-03T09:26:08.483Z</time></trkpt><trkpt lat="39.93672" lon="15.7472017"><ele>99.0</ele><time>2026-05-03T09:26:09.482Z</time></trkpt><trkpt lat="39.9369083" lon="15.7472417"><ele>99.0</ele><time>2026-05-03T09:26:10.482Z</time></trkpt><trkpt lat="39.9370983" lon="15.74727"><ele>99.0</ele><time>2026-05-03T09:26:11.482Z</time></trkpt><trkpt lat="39.937285" lon="15.7472733"><ele>99.0</ele><time>2026-05-03T09:26:12.481Z</time></trkpt><trkpt lat="39.9374667" lon="15.7472517"><ele>99.0</ele><time>2026-05-03T09:26:13.482Z</time></trkpt><trkpt lat="39.9376383" lon="15.7472083"><ele>99.0</ele><time>2026-05-03T09:26:14.482Z</time></trkpt><trkpt lat="39.9377933" lon="15.747145"><ele>96.33333333333333</ele><time>2026-05-03T09:26:15.481Z</time></trkpt><trkpt lat="39.9379417" lon="15.7470367"><ele>93.66666666666666</ele><time>2026-05-03T09:26:16.482Z</time></trkpt><trkpt lat="39.93808" lon="15.7468833"><ele>91.0</ele><time>2026-05-03T09:26:17.481Z</time></trkpt><trkpt lat="39.9382183" lon="15.74671"><ele>91.0</ele><time>2026-05-03T09:26:18.482Z</time></trkpt><trkpt lat="39.9383683" lon="15.74652"><ele>91.0</ele><time>2026-05-03T09:26:19.483Z</time></trkpt><trkpt lat="39.938525" lon="15.7463283"><ele>91.0</ele><time>2026-05-03T09:26:20.482Z</time></trkpt><trkpt lat="39.9386783" lon="15.746135"><ele>91.66666666666666</ele><time>2026-05-03T09:26:21.482Z</time></trkpt><trkpt lat="39.938835" lon="15.7459367"><ele>92.33333333333333</ele><time>2026-05-03T09:26:22.481Z</time></trkpt><trkpt lat="39.93899" lon="15.7457367"><ele>93.0</ele><time>2026-05-03T09:26:23.482Z</time></trkpt><trkpt lat="39.9391383" lon="15.7455267"><ele>95.66666666666666</ele><time>2026-05-03T09:26:24.482Z</time></trkpt><trkpt lat="39.9392833" lon="15.74532"><ele>98.33333333333333</ele><time>2026-05-03T09:26:25.481Z</time></trkpt><trkpt lat="39.9394217" lon="15.745125"><ele>101.0</ele><time>2026-05-03T09:26:26.481Z</time></trkpt><trkpt lat="39.9395517" lon="15.7449367"><ele>101.0</ele><time>2026-05-03T09:26:27.484Z</time></trkpt><trkpt lat="39.9396717" lon="15.7447483"><ele>101.0</ele><time>2026-05-03T09:26:28.482Z</time></trkpt><trkpt lat="39.9397767" lon="15.7445467"><ele>101.0</ele><time>2026-05-03T09:26:29.482Z</time></trkpt><trkpt lat="39.93987" lon="15.74433"><ele>97.66666666666666</ele><time>2026-05-03T09:26:30.481Z</time></trkpt><trkpt lat="39.93994" lon="15.7441067"><ele>94.33333333333333</ele><time>2026-05-03T09:26:31.481Z</time></trkpt><trkpt lat="39.9399867" lon="15.7438917"><ele>91.0</ele><time>2026-05-03T09:26:32.482Z</time></trkpt><trkpt lat="39.9400133" lon="15.7436967"><ele>93.25</ele><time>2026-05-03T09:26:33.482Z</time></trkpt><trkpt lat="39.9400533" lon="15.7435183"><ele>95.5</ele><time>2026-05-03T09:26:34.482Z</time></trkpt><trkpt lat="39.9401267" lon="15.7433583"><ele>97.75</ele><time>2026-05-03T09:26:35.481Z</time></trkpt><trkpt lat="39.940245" lon="15.7432233"><ele>100.0</ele><time>2026-05-03T09:26:36.482Z</time></trkpt><trkpt lat="39.940405" lon="15.743105"><ele>100.0</ele><time>2026-05-03T09:26:37.482Z</time></trkpt><trkpt lat="39.94059" lon="15.7429867"><ele>100.0</ele><time>2026-05-03T09:26:38.482Z</time></trkpt><trkpt lat="39.9407983" lon="15.74285"><ele>100.0</ele><time>2026-05-03T09:26:39.481Z</time></trkpt><trkpt lat="39.9410233" lon="15.7426833"><ele>100.5</ele><time>2026-05-03T09:26:40.482Z</time></trkpt><trkpt lat="39.94126" lon="15.7424983"><ele>101.0</ele><time>2026-05-03T09:26:41.484Z</time></trkpt><trkpt lat="39.94151" lon="15.7423"><ele>111.5</ele><time>2026-05-03T09:26:42.482Z</time></trkpt><trkpt lat="39.9417633" lon="15.7421033"><ele>122.0</ele><time>2026-05-03T09:26:43.482Z</time></trkpt><trkpt lat="39.942005" lon="15.7419083"><ele>110.5</ele><time>2026-05-03T09:26:44.482Z</time></trkpt><trkpt lat="39.9422367" lon="15.74171"><ele>99.0</ele><time>2026-05-03T09:26:45.482Z</time></trkpt><trkpt lat="39.94246" lon="15.7415117"><ele>113.5</ele><time>2026-05-03T09:26:46.481Z</time></trkpt><trkpt lat="39.9426633" lon="15.7413133"><ele>128.0</ele><time>2026-05-03T09:26:47.482Z</time></trkpt><trkpt lat="39.9428567" lon="15.7411333"><ele>119.66666666666666</ele><time>2026-05-03T09:26:48.481Z</time></trkpt><trkpt lat="39.9430433" lon="15.7409717"><ele>111.33333333333334</ele><time>2026-05-03T09:26:49.482Z</time></trkpt><trkpt lat="39.9432117" lon="15.7408183"><ele>103.0</ele><time>2026-05-03T09:26:50.481Z</time></trkpt><trkpt lat="39.9433617" lon="15.7406517"><ele>101.33333333333334</ele><time>2026-05-03T09:26:51.481Z</time></trkpt><trkpt lat="39.9434867" lon="15.74047"><ele>99.66666666666666</ele><time>2026-05-03T09:26:52.481Z</time></trkpt><trkpt lat="39.943605" lon="15.7402933"><ele>98.0</ele><time>2026-05-03T09:26:53.482Z</time></trkpt><trkpt lat="39.9437133" lon="15.7401383"><ele>98.0</ele><time>2026-05-03T09:26:54.482Z</time></trkpt><trkpt lat="39.94382" lon="15.7400117"><ele>98.0</ele><time>2026-05-03T09:26:55.482Z</time></trkpt><trkpt lat="39.943935" lon="15.7399267"><ele>98.0</ele><time>2026-05-03T09:26:56.481Z</time></trkpt><trkpt lat="39.9440717" lon="15.7399"><ele>98.0</ele><time>2026-05-03T09:26:57.482Z</time></trkpt><trkpt lat="39.944225" lon="15.7399383"><ele>92.33333333333333</ele><time>2026-05-03T09:26:58.482Z</time></trkpt><trkpt lat="39.9443917" lon="15.7400033"><ele>86.66666666666666</ele><time>2026-05-03T09:26:59.481Z</time></trkpt><trkpt lat="39.9445883" lon="15.74009"><ele>81.0</ele><time>2026-05-03T09:27:00.482Z</time></trkpt><trkpt lat="39.944805" lon="15.74019"><ele>107.0</ele><time>2026-05-03T09:27:01.482Z</time></trkpt><trkpt lat="39.94502" lon="15.7402883"><ele>133.0</ele><time>2026-05-03T09:27:02.482Z</time></trkpt><trkpt lat="39.9452367" lon="15.7403683"><ele>134.0</ele><time>2026-05-03T09:27:03.482Z</time></trkpt><trkpt lat="39.9454617" lon="15.7404167"><ele>135.0</ele><time>2026-05-03T09:27:04.481Z</time></trkpt><trkpt lat="39.9457017" lon="15.740425"><ele>139.0</ele><time>2026-05-03T09:27:05.482Z</time></trkpt><trkpt lat="39.9459483" lon="15.7404017"><ele>143.0</ele><time>2026-05-03T09:27:06.482Z</time></trkpt><trkpt lat="39.9461983" lon="15.7403533"><ele>143.0</ele><time>2026-05-03T09:27:07.482Z</time></trkpt><trkpt lat="39.9464617" lon="15.74028"><ele>143.0</ele><time>2026-05-03T09:27:08.483Z</time></trkpt><trkpt lat="39.9467267" lon="15.74019"><ele>130.5</ele><time>2026-05-03T09:27:09.482Z</time></trkpt><trkpt lat="39.9469933" lon="15.74009"><ele>118.0</ele><time>2026-05-03T09:27:10.481Z</time></trkpt><trkpt lat="39.947245" lon="15.739985"><ele>118.0</ele><time>2026-05-03T09:27:11.482Z</time></trkpt><trkpt lat="39.947485" lon="15.7398933"><ele>118.0</ele><time>2026-05-03T09:27:12.482Z</time></trkpt><trkpt lat="39.9477117" lon="15.7398067"><ele>126.5</ele><time>2026-05-03T09:27:13.482Z</time></trkpt><trkpt lat="39.9479433" lon="15.7397217"><ele>135.0</ele><time>2026-05-03T09:27:14.482Z</time></trkpt><trkpt lat="39.9481667" lon="15.7396033"><ele>134.0</ele><time>2026-05-03T09:27:15.481Z</time></trkpt><trkpt lat="39.9483817" lon="15.7394633"><ele>133.0</ele><time>2026-05-03T09:27:16.482Z</time></trkpt><trkpt lat="39.9485883" lon="15.739325"><ele>133.0</ele><time>2026-05-03T09:27:17.487Z</time></trkpt><trkpt lat="39.9487867" lon="15.739205"><ele>133.0</ele><time>2026-05-03T09:27:18.482Z</time></trkpt><trkpt lat="39.94897" lon="15.7390867"><ele>133.0</ele><time>2026-05-03T09:27:19.482Z</time></trkpt><trkpt lat="39.9491417" lon="15.738945"><ele>131.33333333333334</ele><time>2026-05-03T09:27:20.481Z</time></trkpt><trkpt lat="39.9493" lon="15.7387717"><ele>129.66666666666666</ele><time>2026-05-03T09:27:21.481Z</time></trkpt><trkpt lat="39.9494417" lon="15.7385833"><ele>128.0</ele><time>2026-05-03T09:27:22.481Z</time></trkpt><trkpt lat="39.9495683" lon="15.7384033"><ele>128.0</ele><time>2026-05-03T09:27:23.482Z</time></trkpt><trkpt lat="39.9496883" lon="15.7382467"><ele>128.0</ele><time>2026-05-03T09:27:24.482Z</time></trkpt><trkpt lat="39.9498033" lon="15.7381283"><ele>128.0</ele><time>2026-05-03T09:27:25.482Z</time></trkpt><trkpt lat="39.9499217" lon="15.7380517"><ele>128.0</ele><time>2026-05-03T09:27:26.483Z</time></trkpt><trkpt lat="39.9500417" lon="15.7380117"><ele>123.25</ele><time>2026-05-03T09:27:27.482Z</time></trkpt><trkpt lat="39.95016" lon="15.7380083"><ele>118.5</ele><time>2026-05-03T09:27:28.481Z</time></trkpt><trkpt lat="39.950265" lon="15.7380517"><ele>113.75</ele><time>2026-05-03T09:27:29.482Z</time></trkpt><trkpt lat="39.9503733" lon="15.73814"><ele>109.0</ele><time>2026-05-03T09:27:30.483Z</time></trkpt><trkpt lat="39.9504767" lon="15.7382533"><ele>109.0</ele><time>2026-05-03T09:27:31.482Z</time></trkpt><trkpt lat="39.95059" lon="15.7383683"><ele>109.0</ele><time>2026-05-03T09:27:32.482Z</time></trkpt><trkpt lat="39.9507217" lon="15.7384883"><ele>109.0</ele><time>2026-05-03T09:27:33.482Z</time></trkpt><trkpt lat="39.950875" lon="15.7386267"><ele>111.0</ele><time>2026-05-03T09:27:34.482Z</time></trkpt><trkpt lat="39.9510583" lon="15.7387667"><ele>113.0</ele><time>2026-05-03T09:27:35.481Z</time></trkpt><trkpt lat="39.9512433" lon="15.7388917"><ele>115.0</ele><time>2026-05-03T09:27:36.483Z</time></trkpt><trkpt lat="39.9514383" lon="15.7390017"><ele>115.0</ele><time>2026-05-03T09:27:37.482Z</time></trkpt><trkpt lat="39.95163" lon="15.7390967"><ele>115.0</ele><time>2026-05-03T09:27:38.482Z</time></trkpt><trkpt lat="39.95183" lon="15.739155"><ele>115.0</ele><time>2026-05-03T09:27:39.482Z</time></trkpt><trkpt lat="39.952045" lon="15.7391783"><ele>111.66666666666667</ele><time>2026-05-03T09:27:40.482Z</time></trkpt><trkpt lat="39.9522533" lon="15.7391817"><ele>108.33333333333334</ele><time>2026-05-03T09:27:41.482Z</time></trkpt><trkpt lat="39.9524517" lon="15.7391583"><ele>105.0</ele><time>2026-05-03T09:27:42.481Z</time></trkpt><trkpt lat="39.9526517" lon="15.7391533"><ele>102.0</ele><time>2026-05-03T09:27:43.483Z</time></trkpt><trkpt lat="39.9528633" lon="15.73918"><ele>99.0</ele><time>2026-05-03T09:27:44.482Z</time></trkpt><trkpt lat="39.9530833" lon="15.7392317"><ele>96.0</ele><time>2026-05-03T09:27:45.481Z</time></trkpt><trkpt lat="39.9533233" lon="15.739285"><ele>93.0</ele><time>2026-05-03T09:27:46.481Z</time></trkpt><trkpt lat="39.9535633" lon="15.73934"><ele>90.0</ele><time>2026-05-03T09:27:47.482Z</time></trkpt><trkpt lat="39.9537983" lon="15.7393867"><ele>95.33333333333334</ele><time>2026-05-03T09:27:48.481Z</time></trkpt><trkpt lat="39.9540233" lon="15.739425"><ele>100.66666666666667</ele><time>2026-05-03T09:27:49.483Z</time></trkpt><trkpt lat="39.9542433" lon="15.739445"><ele>106.0</ele><time>2026-05-03T09:27:50.483Z</time></trkpt><trkpt lat="39.954465" lon="15.7394433"><ele>106.0</ele><time>2026-05-03T09:27:51.482Z</time></trkpt><trkpt lat="39.95468" lon="15.7394317"><ele>106.0</ele><time>2026-05-03T09:27:52.484Z</time></trkpt><trkpt lat="39.9548867" lon="15.7394117"><ele>106.0</ele><time>2026-05-03T09:27:53.485Z</time></trkpt><trkpt lat="39.955085" lon="15.7393717"><ele>98.0</ele><time>2026-05-03T09:27:54.482Z</time></trkpt><trkpt lat="39.9552817" lon="15.7393117"><ele>90.0</ele><time>2026-05-03T09:27:55.483Z</time></trkpt><trkpt lat="39.95547" lon="15.7392283"><ele>82.0</ele><time>2026-05-03T09:27:56.484Z</time></trkpt><trkpt lat="39.95566" lon="15.7391483"><ele>82.0</ele><time>2026-05-03T09:27:57.482Z</time></trkpt><trkpt lat="39.9558433" lon="15.7390667"><ele>82.0</ele><time>2026-05-03T09:27:58.482Z</time></trkpt><trkpt lat="39.9560117" lon="15.738995"><ele>82.0</ele><time>2026-05-03T09:27:59.482Z</time></trkpt><trkpt lat="39.9561633" lon="15.738935"><ele>81.75</ele><time>2026-05-03T09:28:00.481Z</time></trkpt><trkpt lat="39.956305" lon="15.7388833"><ele>81.5</ele><time>2026-05-03T09:28:01.483Z</time></trkpt><trkpt lat="39.9564333" lon="15.7388567"><ele>81.25</ele><time>2026-05-03T09:28:02.483Z</time></trkpt><trkpt lat="39.9565417" lon="15.73884"><ele>81.0</ele><time>2026-05-03T09:28:03.482Z</time></trkpt><trkpt lat="39.9566467" lon="15.7388233"><ele>81.0</ele><time>2026-05-03T09:28:04.482Z</time></trkpt><trkpt lat="39.9567433" lon="15.73881"><ele>81.0</ele><time>2026-05-03T09:28:05.483Z</time></trkpt><trkpt lat="39.9568333" lon="15.7388"><ele>81.0</ele><time>2026-05-03T09:28:06.481Z</time></trkpt><trkpt lat="39.956925" lon="15.73879"><ele>81.0</ele><time>2026-05-03T09:28:07.482Z</time></trkpt><trkpt lat="39.9570233" lon="15.7387833"><ele>81.0</ele><time>2026-05-03T09:28:08.482Z</time></trkpt><trkpt lat="39.9571233" lon="15.7387867"><ele>81.0</ele><time>2026-05-03T09:28:09.486Z</time></trkpt><trkpt lat="39.9572367" lon="15.7387983"><ele>81.0</ele><time>2026-05-03T09:28:10.482Z</time></trkpt><trkpt lat="39.957365" lon="15.73882"><ele>81.0</ele><time>2026-05-03T09:28:11.483Z</time></trkpt><trkpt lat="39.9575083" lon="15.738845"><ele>81.0</ele><time>2026-05-03T09:28:12.482Z</time></trkpt><trkpt lat="39.957655" lon="15.7388683"><ele>81.66666666666667</ele><time>2026-05-03T09:28:13.482Z</time></trkpt><trkpt lat="39.957815" lon="15.7388783"><ele>82.33333333333334</ele><time>2026-05-03T09:28:14.482Z</time></trkpt><trkpt lat="39.9579833" lon="15.7388483"><ele>83.0</ele><time>2026-05-03T09:28:15.483Z</time></trkpt><trkpt lat="39.958165" lon="15.73878"><ele>83.0</ele><time>2026-05-03T09:28:16.482Z</time></trkpt><trkpt lat="39.9583533" lon="15.738685"><ele>83.0</ele><time>2026-05-03T09:28:17.483Z</time></trkpt><trkpt lat="39.9585433" lon="15.7385817"><ele>83.0</ele><time>2026-05-03T09:28:18.481Z</time></trkpt><trkpt lat="39.9587233" lon="15.7384767"><ele>82.33333333333334</ele><time>2026-05-03T09:28:19.482Z</time></trkpt><trkpt lat="39.9588967" lon="15.7383833"><ele>81.66666666666667</ele><time>2026-05-03T09:28:20.483Z</time></trkpt><trkpt lat="39.9590683" lon="15.7383283"><ele>81.0</ele><time>2026-05-03T09:28:21.482Z</time></trkpt><trkpt lat="39.95924" lon="15.7383167"><ele>81.0</ele><time>2026-05-03T09:28:22.483Z</time></trkpt><trkpt lat="39.95941" lon="15.738345"><ele>81.0</ele><time>2026-05-03T09:28:23.483Z</time></trkpt><trkpt lat="39.9595767" lon="15.7383867"><ele>81.0</ele><time>2026-05-03T09:28:24.481Z</time></trkpt><trkpt lat="39.95974" lon="15.7384083"><ele>81.0</ele><time>2026-05-03T09:28:25.483Z</time></trkpt><trkpt lat="39.9599033" lon="15.73838"><ele>81.0</ele><time>2026-05-03T09:28:26.483Z</time></trkpt><trkpt lat="39.9600717" lon="15.7382917"><ele>81.0</ele><time>2026-05-03T09:28:27.482Z</time></trkpt><trkpt lat="39.9602433" lon="15.7381567"><ele>84.0</ele><time>2026-05-03T09:28:28.482Z</time></trkpt><trkpt lat="39.9604267" lon="15.7380067"><ele>87.0</ele><time>2026-05-03T09:28:29.483Z</time></trkpt><trkpt lat="39.9606117" lon="15.7378717"><ele>90.0</ele><time>2026-05-03T09:28:30.483Z</time></trkpt><trkpt lat="39.9607867" lon="15.7377517"><ele>89.0</ele><time>2026-05-03T09:28:31.482Z</time></trkpt><trkpt lat="39.9609517" lon="15.73765"><ele>88.0</ele><time>2026-05-03T09:28:32.482Z</time></trkpt><trkpt lat="39.9611133" lon="15.7375767"><ele>87.0</ele><time>2026-05-03T09:28:33.482Z</time></trkpt><trkpt lat="39.96128" lon="15.7375183"><ele>87.0</ele><time>2026-05-03T09:28:34.481Z</time></trkpt><trkpt lat="39.9614417" lon="15.73744"><ele>87.0</ele><time>2026-05-03T09:28:35.483Z</time></trkpt><trkpt lat="39.9616" lon="15.7373383"><ele>87.0</ele><time>2026-05-03T09:28:36.483Z</time></trkpt><trkpt lat="39.9617533" lon="15.7372"><ele>87.0</ele><time>2026-05-03T09:28:37.482Z</time></trkpt><trkpt lat="39.9619033" lon="15.73705"><ele>87.0</ele><time>2026-05-03T09:28:38.483Z</time></trkpt><trkpt lat="39.9620467" lon="15.7369017"><ele>87.0</ele><time>2026-05-03T09:28:39.483Z</time></trkpt><trkpt lat="39.9621817" lon="15.7367617"><ele>87.0</ele><time>2026-05-03T09:28:40.482Z</time></trkpt><trkpt lat="39.9623117" lon="15.73663"><ele>87.0</ele><time>2026-05-03T09:28:41.483Z</time></trkpt><trkpt lat="39.96243" lon="15.7365033"><ele>87.0</ele><time>2026-05-03T09:28:42.482Z</time></trkpt><trkpt lat="39.9625617" lon="15.7363883"><ele>90.0</ele><time>2026-05-03T09:28:43.482Z</time></trkpt><trkpt lat="39.962695" lon="15.7363"><ele>93.0</ele><time>2026-05-03T09:28:44.482Z</time></trkpt><trkpt lat="39.9628433" lon="15.736255"><ele>96.0</ele><time>2026-05-03T09:28:45.482Z</time></trkpt><trkpt lat="39.9630033" lon="15.7362367"><ele>96.0</ele><time>2026-05-03T09:28:46.481Z</time></trkpt><trkpt lat="39.9631667" lon="15.7362483"><ele>96.0</ele><time>2026-05-03T09:28:47.482Z</time></trkpt><trkpt lat="39.9633233" lon="15.7362767"><ele>96.0</ele><time>2026-05-03T09:28:48.481Z</time></trkpt><trkpt lat="39.9634783" lon="15.7363033"><ele>97.66666666666666</ele><time>2026-05-03T09:28:49.483Z</time></trkpt><trkpt lat="39.9636283" lon="15.73632"><ele>99.33333333333333</ele><time>2026-05-03T09:28:50.482Z</time></trkpt><trkpt lat="39.9637833" lon="15.7363167"><ele>101.0</ele><time>2026-05-03T09:28:51.481Z</time></trkpt><trkpt lat="39.9639383" lon="15.7362983"><ele>101.0</ele><time>2026-05-03T09:28:52.483Z</time></trkpt><trkpt lat="39.9641033" lon="15.7362733"><ele>101.0</ele><time>2026-05-03T09:28:53.486Z</time></trkpt><trkpt lat="39.964275" lon="15.7362267"><ele>101.0</ele><time>2026-05-03T09:28:54.483Z</time></trkpt><trkpt lat="39.96445" lon="15.7361667"><ele>104.66666666666666</ele><time>2026-05-03T09:28:55.482Z</time></trkpt><trkpt lat="39.9646333" lon="15.7360883"><ele>108.33333333333334</ele><time>2026-05-03T09:28:56.482Z</time></trkpt><trkpt lat="39.964815" lon="15.73597"><ele>112.0</ele><time>2026-05-03T09:28:57.483Z</time></trkpt><trkpt lat="39.9650017" lon="15.7358167"><ele>108.0</ele><time>2026-05-03T09:28:58.482Z</time></trkpt><trkpt lat="39.965195" lon="15.7356383"><ele>104.0</ele><time>2026-05-03T09:28:59.482Z</time></trkpt><trkpt lat="39.9654" lon="15.735445"><ele>104.0</ele><time>2026-05-03T09:29:00.482Z</time></trkpt><trkpt lat="39.9655967" lon="15.7352433"><ele>104.0</ele><time>2026-05-03T09:29:01.483Z</time></trkpt><trkpt lat="39.9657817" lon="15.7350483"><ele>103.33333333333333</ele><time>2026-05-03T09:29:02.483Z</time></trkpt><trkpt lat="39.965965" lon="15.7348833"><ele>102.66666666666666</ele><time>2026-05-03T09:29:03.481Z</time></trkpt><trkpt lat="39.9661367" lon="15.7347367"><ele>102.0</ele><time>2026-05-03T09:29:04.484Z</time></trkpt><trkpt lat="39.966295" lon="15.7346"><ele>102.0</ele><time>2026-05-03T09:29:05.481Z</time></trkpt><trkpt lat="39.9664433" lon="15.7344467"><ele>102.0</ele><time>2026-05-03T09:29:06.481Z</time></trkpt><trkpt lat="39.9665883" lon="15.7342567"><ele>102.0</ele><time>2026-05-03T09:29:07.481Z</time></trkpt><trkpt lat="39.9667483" lon="15.734055"><ele>105.0</ele><time>2026-05-03T09:29:08.483Z</time></trkpt><trkpt lat="39.9669233" lon="15.733845"><ele>108.0</ele><time>2026-05-03T09:29:09.482Z</time></trkpt><trkpt lat="39.9670883" lon="15.7336367"><ele>98.5</ele><time>2026-05-03T09:29:10.482Z</time></trkpt><trkpt lat="39.9672433" lon="15.7334167"><ele>89.0</ele><time>2026-05-03T09:29:11.482Z</time></trkpt><trkpt lat="39.9673933" lon="15.7331883"><ele>93.0</ele><time>2026-05-03T09:29:12.482Z</time></trkpt><trkpt lat="39.9675417" lon="15.7329417"><ele>97.0</ele><time>2026-05-03T09:29:13.483Z</time></trkpt><trkpt lat="39.967695" lon="15.7326783"><ele>97.0</ele><time>2026-05-03T09:29:14.481Z</time></trkpt><trkpt lat="39.9678467" lon="15.732415"><ele>97.0</ele><time>2026-05-03T09:29:15.481Z</time></trkpt><trkpt lat="39.967995" lon="15.7321583"><ele>97.0</ele><time>2026-05-03T09:29:16.481Z</time></trkpt><trkpt lat="39.96814" lon="15.731905"><ele>97.0</ele><time>2026-05-03T09:29:17.482Z</time></trkpt><trkpt lat="39.968275" lon="15.73166"><ele>99.0</ele><time>2026-05-03T09:29:18.483Z</time></trkpt><trkpt lat="39.9684083" lon="15.7314283"><ele>101.0</ele><time>2026-05-03T09:29:19.482Z</time></trkpt><trkpt lat="39.9685267" lon="15.7311983"><ele>103.0</ele><time>2026-05-03T09:29:20.483Z</time></trkpt><trkpt lat="39.9686383" lon="15.73099"><ele>96.66666666666667</ele><time>2026-05-03T09:29:21.483Z</time></trkpt><trkpt lat="39.9687417" lon="15.7307867"><ele>90.33333333333334</ele><time>2026-05-03T09:29:22.483Z</time></trkpt><trkpt lat="39.9688433" lon="15.730595"><ele>84.0</ele><time>2026-05-03T09:29:23.482Z</time></trkpt><trkpt lat="39.9689233" lon="15.730395"><ele>80.66666666666667</ele><time>2026-05-03T09:29:24.482Z</time></trkpt><trkpt lat="39.968975" lon="15.7301833"><ele>77.33333333333334</ele><time>2026-05-03T09:29:25.482Z</time></trkpt><trkpt lat="39.9689967" lon="15.729965"><ele>74.0</ele><time>2026-05-03T09:29:26.483Z</time></trkpt><trkpt lat="39.9690183" lon="15.72976"><ele>74.0</ele><time>2026-05-03T09:29:27.482Z</time></trkpt><trkpt lat="39.9690633" lon="15.7295767"><ele>74.0</ele><time>2026-05-03T09:29:28.481Z</time></trkpt><trkpt lat="39.9691583" lon="15.7294283"><ele>74.0</ele><time>2026-05-03T09:29:29.481Z</time></trkpt><trkpt lat="39.9692867" lon="15.7292983"><ele>77.33333333333334</ele><time>2026-05-03T09:29:30.483Z</time></trkpt><trkpt lat="39.969445" lon="15.7291717"><ele>80.66666666666667</ele><time>2026-05-03T09:29:31.481Z</time></trkpt><trkpt lat="39.9696217" lon="15.7290433"><ele>84.0</ele><time>2026-05-03T09:29:32.483Z</time></trkpt><trkpt lat="39.9697883" lon="15.7288983"><ele>84.0</ele><time>2026-05-03T09:29:33.481Z</time></trkpt><trkpt lat="39.9699467" lon="15.7287183"><ele>84.0</ele><time>2026-05-03T09:29:34.483Z</time></trkpt><trkpt lat="39.9700967" lon="15.7285"><ele>84.0</ele><time>2026-05-03T09:29:35.482Z</time></trkpt><trkpt lat="39.97024" lon="15.7282683"><ele>82.33333333333333</ele><time>2026-05-03T09:29:36.482Z</time></trkpt><trkpt lat="39.97037" lon="15.7280467"><ele>80.66666666666666</ele><time>2026-05-03T09:29:37.482Z</time></trkpt><trkpt lat="39.9704867" lon="15.7278417"><ele>79.0</ele><time>2026-05-03T09:29:38.484Z</time></trkpt><trkpt lat="39.9705933" lon="15.727655"><ele>79.0</ele><time>2026-05-03T09:29:39.481Z</time></trkpt><trkpt lat="39.97068" lon="15.72747"><ele>79.0</ele><time>2026-05-03T09:29:40.483Z</time></trkpt><trkpt lat="39.97074" lon="15.7272733"><ele>79.0</ele><time>2026-05-03T09:29:41.482Z</time></trkpt><trkpt lat="39.97077" lon="15.7270583"><ele>77.33333333333333</ele><time>2026-05-03T09:29:42.482Z</time></trkpt><trkpt lat="39.9708033" lon="15.7268483"><ele>75.66666666666667</ele><time>2026-05-03T09:29:43.482Z</time></trkpt><trkpt lat="39.9708567" lon="15.7266483"><ele>74.0</ele><time>2026-05-03T09:29:44.484Z</time></trkpt><trkpt lat="39.97093" lon="15.7264467"><ele>76.33333333333334</ele><time>2026-05-03T09:29:45.481Z</time></trkpt><trkpt lat="39.9710217" lon="15.7262367"><ele>78.66666666666667</ele><time>2026-05-03T09:29:46.482Z</time></trkpt><trkpt lat="39.9711167" lon="15.7260183"><ele>81.0</ele><time>2026-05-03T09:29:47.482Z</time></trkpt><trkpt lat="39.9712117" lon="15.72581"><ele>81.0</ele><time>2026-05-03T09:29:48.481Z</time></trkpt><trkpt lat="39.971305" lon="15.7256067"><ele>81.0</ele><time>2026-05-03T09:29:49.482Z</time></trkpt><trkpt lat="39.9714017" lon="15.7254183"><ele>81.0</ele><time>2026-05-03T09:29:50.483Z</time></trkpt><trkpt lat="39.9715167" lon="15.7252483"><ele>78.33333333333333</ele><time>2026-05-03T09:29:51.484Z</time></trkpt><trkpt lat="39.97166" lon="15.7251017"><ele>75.66666666666666</ele><time>2026-05-03T09:29:52.482Z</time></trkpt><trkpt lat="39.9718117" lon="15.72497"><ele>73.0</ele><time>2026-05-03T09:29:53.483Z</time></trkpt><trkpt lat="39.971965" lon="15.7248483"><ele>73.0</ele><time>2026-05-03T09:29:54.483Z</time></trkpt><trkpt lat="39.97212" lon="15.7247567"><ele>73.0</ele><time>2026-05-03T09:29:55.482Z</time></trkpt><trkpt lat="39.9722783" lon="15.7247167"><ele>73.0</ele><time>2026-05-03T09:29:56.483Z</time></trkpt><trkpt lat="39.9724317" lon="15.7247333"><ele>75.5</ele><time>2026-05-03T09:29:57.482Z</time></trkpt><trkpt lat="39.97257" lon="15.7247933"><ele>78.0</ele><time>2026-05-03T09:29:58.482Z</time></trkpt><trkpt lat="39.9726883" lon="15.7248283"><ele>80.5</ele><time>2026-05-03T09:29:59.483Z</time></trkpt><trkpt lat="39.9728083" lon="15.72481"><ele>83.0</ele><time>2026-05-03T09:30:00.481Z</time></trkpt><trkpt lat="39.9729317" lon="15.7247667"><ele>83.0</ele><time>2026-05-03T09:30:01.481Z</time></trkpt><trkpt lat="39.9730483" lon="15.724705"><ele>83.0</ele><time>2026-05-03T09:30:02.483Z</time></trkpt><trkpt lat="39.97314" lon="15.7246133"><ele>83.0</ele><time>2026-05-03T09:30:03.483Z</time></trkpt><trkpt lat="39.9732" lon="15.72448"><ele>83.0</ele><time>2026-05-03T09:30:04.482Z</time></trkpt><trkpt lat="39.9732417" lon="15.7243283"><ele>80.5</ele><time>2026-05-03T09:30:05.483Z</time></trkpt><trkpt lat="39.9732817" lon="15.724175"><ele>78.0</ele><time>2026-05-03T09:30:06.485Z</time></trkpt><trkpt lat="39.97335" lon="15.7240367"><ele>75.5</ele><time>2026-05-03T09:30:07.481Z</time></trkpt><trkpt lat="39.9734467" lon="15.7239133"><ele>73.0</ele><time>2026-05-03T09:30:08.483Z</time></trkpt><trkpt lat="39.97356" lon="15.7238033"><ele>73.25</ele><time>2026-05-03T09:30:09.482Z</time></trkpt><trkpt lat="39.9736767" lon="15.7236983"><ele>73.5</ele><time>2026-05-03T09:30:10.481Z</time></trkpt><trkpt lat="39.973795" lon="15.723595"><ele>73.75</ele><time>2026-05-03T09:30:11.483Z</time></trkpt><trkpt lat="39.9739283" lon="15.7235033"><ele>74.0</ele><time>2026-05-03T09:30:12.482Z</time></trkpt><trkpt lat="39.9740683" lon="15.7234283"><ele>80.33333333333334</ele><time>2026-05-03T09:30:13.483Z</time></trkpt><trkpt lat="39.9742167" lon="15.7233717"><ele>86.66666666666667</ele><time>2026-05-03T09:30:14.484Z</time></trkpt><trkpt lat="39.9743683" lon="15.7233217"><ele>93.0</ele><time>2026-05-03T09:30:15.482Z</time></trkpt><trkpt lat="39.9745233" lon="15.7232783"><ele>93.0</ele><time>2026-05-03T09:30:16.481Z</time></trkpt><trkpt lat="39.9746817" lon="15.7232433"><ele>93.0</ele><time>2026-05-03T09:30:17.482Z</time></trkpt><trkpt lat="39.9748367" lon="15.7232233"><ele>93.0</ele><time>2026-05-03T09:30:18.483Z</time></trkpt><trkpt lat="39.97499" lon="15.7232067"><ele>97.5</ele><time>2026-05-03T09:30:19.482Z</time></trkpt><trkpt lat="39.9751283" lon="15.7231817"><ele>102.0</ele><time>2026-05-03T09:30:20.483Z</time></trkpt><trkpt lat="39.9752617" lon="15.7231533"><ele>106.5</ele><time>2026-05-03T09:30:21.482Z</time></trkpt><trkpt lat="39.9753917" lon="15.7231317"><ele>111.0</ele><time>2026-05-03T09:30:22.483Z</time></trkpt><trkpt lat="39.9755233" lon="15.723095"><ele>111.0</ele><time>2026-05-03T09:30:23.481Z</time></trkpt><trkpt lat="39.975675" lon="15.7230217"><ele>111.0</ele><time>2026-05-03T09:30:24.483Z</time></trkpt><trkpt lat="39.975845" lon="15.722925"><ele>111.0</ele><time>2026-05-03T09:30:25.482Z</time></trkpt><trkpt lat="39.9760367" lon="15.722815"><ele>104.5</ele><time>2026-05-03T09:30:26.483Z</time></trkpt><trkpt lat="39.9762433" lon="15.722705"><ele>98.0</ele><time>2026-05-03T09:30:27.482Z</time></trkpt><trkpt lat="39.9764567" lon="15.722595"><ele>98.0</ele><time>2026-05-03T09:30:28.483Z</time></trkpt><trkpt lat="39.976665" lon="15.7224883"><ele>98.0</ele><time>2026-05-03T09:30:29.482Z</time></trkpt><trkpt lat="39.9768667" lon="15.7223917"><ele>98.0</ele><time>2026-05-03T09:30:30.482Z</time></trkpt><trkpt lat="39.9770617" lon="15.722305"><ele>105.33333333333333</ele><time>2026-05-03T09:30:31.483Z</time></trkpt><trkpt lat="39.9772533" lon="15.7222233"><ele>112.66666666666666</ele><time>2026-05-03T09:30:32.482Z</time></trkpt><trkpt lat="39.9774333" lon="15.7221283"><ele>120.0</ele><time>2026-05-03T09:30:33.482Z</time></trkpt><trkpt lat="39.9776083" lon="15.722"><ele>120.33333333333334</ele><time>2026-05-03T09:30:34.482Z</time></trkpt><trkpt lat="39.9777883" lon="15.72185"><ele>120.66666666666667</ele><time>2026-05-03T09:30:35.482Z</time></trkpt><trkpt lat="39.9779717" lon="15.7216883"><ele>121.0</ele><time>2026-05-03T09:30:36.482Z</time></trkpt><trkpt lat="39.9781683" lon="15.72152"><ele>136.0</ele><time>2026-05-03T09:30:37.483Z</time></trkpt><trkpt lat="39.97837" lon="15.72135"><ele>151.0</ele><time>2026-05-03T09:30:38.482Z</time></trkpt><trkpt lat="39.9785683" lon="15.72118"><ele>140.0</ele><time>2026-05-03T09:30:39.482Z</time></trkpt><trkpt lat="39.978755" lon="15.7210033"><ele>129.0</ele><time>2026-05-03T09:30:40.483Z</time></trkpt><trkpt lat="39.9789283" lon="15.72081"><ele>129.0</ele><time>2026-05-03T09:30:41.482Z</time></trkpt><trkpt lat="39.9790817" lon="15.7205967"><ele>129.0</ele><time>2026-05-03T09:30:42.481Z</time></trkpt><trkpt lat="39.9792233" lon="15.7203717"><ele>129.0</ele><time>2026-05-03T09:30:43.481Z</time></trkpt><trkpt lat="39.979345" lon="15.720135"><ele>135.66666666666666</ele><time>2026-05-03T09:30:44.482Z</time></trkpt><trkpt lat="39.9794483" lon="15.7199033"><ele>142.33333333333331</ele><time>2026-05-03T09:30:45.482Z</time></trkpt><trkpt lat="39.9795367" lon="15.7196817"><ele>149.0</ele><time>2026-05-03T09:30:46.482Z</time></trkpt><trkpt lat="39.9796317" lon="15.71949"><ele>147.66666666666666</ele><time>2026-05-03T09:30:47.481Z</time></trkpt><trkpt lat="39.9797467" lon="15.719335"><ele>146.33333333333334</ele><time>2026-05-03T09:30:48.482Z</time></trkpt><trkpt lat="39.9799" lon="15.719215"><ele>145.0</ele><time>2026-05-03T09:30:49.481Z</time></trkpt><trkpt lat="39.98008" lon="15.7191133"><ele>145.0</ele><time>2026-05-03T09:30:50.483Z</time></trkpt><trkpt lat="39.98027" lon="15.7190017"><ele>145.0</ele><time>2026-05-03T09:30:51.482Z</time></trkpt><trkpt lat="39.9804567" lon="15.7188483"><ele>145.0</ele><time>2026-05-03T09:30:52.482Z</time></trkpt><trkpt lat="39.9806417" lon="15.7186667"><ele>147.5</ele><time>2026-05-03T09:30:53.481Z</time></trkpt><trkpt lat="39.9808183" lon="15.7184517"><ele>150.0</ele><time>2026-05-03T09:30:54.482Z</time></trkpt><trkpt lat="39.9809867" lon="15.718205"><ele>150.0</ele><time>2026-05-03T09:30:55.482Z</time></trkpt><trkpt lat="39.9811483" lon="15.717945"><ele>150.0</ele><time>2026-05-03T09:30:56.483Z</time></trkpt><trkpt lat="39.981305" lon="15.71768"><ele>138.5</ele><time>2026-05-03T09:30:57.482Z</time></trkpt><trkpt lat="39.9814483" lon="15.7174133"><ele>127.0</ele><time>2026-05-03T09:30:58.483Z</time></trkpt><trkpt lat="39.98158" lon="15.7171617"><ele>129.0</ele><time>2026-05-03T09:30:59.483Z</time></trkpt><trkpt lat="39.9817117" lon="15.7169383"><ele>131.0</ele><time>2026-05-03T09:31:00.483Z</time></trkpt><trkpt lat="39.9818567" lon="15.7167383"><ele>133.0</ele><time>2026-05-03T09:31:01.483Z</time></trkpt><trkpt lat="39.98202" lon="15.7165583"><ele>133.0</ele><time>2026-05-03T09:31:02.484Z</time></trkpt><trkpt lat="39.9822033" lon="15.7163983"><ele>133.0</ele><time>2026-05-03T09:31:03.482Z</time></trkpt><trkpt lat="39.9824" lon="15.7162567"><ele>133.0</ele><time>2026-05-03T09:31:04.482Z</time></trkpt><trkpt lat="39.9825883" lon="15.7161267"><ele>134.33333333333334</ele><time>2026-05-03T09:31:05.481Z</time></trkpt><trkpt lat="39.9827633" lon="15.71599"><ele>135.66666666666666</ele><time>2026-05-03T09:31:06.481Z</time></trkpt><trkpt lat="39.9829133" lon="15.7158167"><ele>137.0</ele><time>2026-05-03T09:31:07.483Z</time></trkpt><trkpt lat="39.9830467" lon="15.7156067"><ele>137.0</ele><time>2026-05-03T09:31:08.483Z</time></trkpt><trkpt lat="39.983175" lon="15.7153917"><ele>137.0</ele><time>2026-05-03T09:31:09.482Z</time></trkpt><trkpt lat="39.9833183" lon="15.7151933"><ele>137.0</ele><time>2026-05-03T09:31:10.481Z</time></trkpt><trkpt lat="39.983475" lon="15.7150067"><ele>141.66666666666666</ele><time>2026-05-03T09:31:11.482Z</time></trkpt><trkpt lat="39.9836233" lon="15.71482"><ele>146.33333333333334</ele><time>2026-05-03T09:31:12.482Z</time></trkpt><trkpt lat="39.98376" lon="15.7146417"><ele>151.0</ele><time>2026-05-03T09:31:13.482Z</time></trkpt><trkpt lat="39.9839" lon="15.7144833"><ele>151.33333333333334</ele><time>2026-05-03T09:31:14.484Z</time></trkpt><trkpt lat="39.984055" lon="15.714345"><ele>151.66666666666666</ele><time>2026-05-03T09:31:15.482Z</time></trkpt><trkpt lat="39.9842117" lon="15.7142017"><ele>152.0</ele><time>2026-05-03T09:31:16.483Z</time></trkpt><trkpt lat="39.9843667" lon="15.7140417"><ele>152.0</ele><time>2026-05-03T09:31:17.482Z</time></trkpt><trkpt lat="39.98452" lon="15.71388"><ele>152.0</ele><time>2026-05-03T09:31:18.482Z</time></trkpt><trkpt lat="39.98467" lon="15.7137167"><ele>152.0</ele><time>2026-05-03T09:31:19.482Z</time></trkpt><trkpt lat="39.98482" lon="15.713565"><ele>147.33333333333331</ele><time>2026-05-03T09:31:20.481Z</time></trkpt><trkpt lat="39.98497" lon="15.71343"><ele>142.66666666666666</ele><time>2026-05-03T09:31:21.482Z</time></trkpt><trkpt lat="39.985125" lon="15.713315"><ele>138.0</ele><time>2026-05-03T09:31:22.482Z</time></trkpt><trkpt lat="39.9852717" lon="15.7132167"><ele>138.0</ele><time>2026-05-03T09:31:23.482Z</time></trkpt><trkpt lat="39.9854117" lon="15.713125"><ele>138.0</ele><time>2026-05-03T09:31:24.483Z</time></trkpt><trkpt lat="39.985545" lon="15.7130367"><ele>138.0</ele><time>2026-05-03T09:31:25.481Z</time></trkpt><trkpt lat="39.9856717" lon="15.7129583"><ele>138.0</ele><time>2026-05-03T09:31:26.482Z</time></trkpt><trkpt lat="39.985795" lon="15.7129067"><ele>138.25</ele><time>2026-05-03T09:31:27.483Z</time></trkpt><trkpt lat="39.9859283" lon="15.7128967"><ele>138.5</ele><time>2026-05-03T09:31:28.482Z</time></trkpt><trkpt lat="39.9860683" lon="15.71292"><ele>138.75</ele><time>2026-05-03T09:31:29.482Z</time></trkpt><trkpt lat="39.986215" lon="15.7129683"><ele>139.0</ele><time>2026-05-03T09:31:30.483Z</time></trkpt><trkpt lat="39.9863583" lon="15.71302"><ele>139.0</ele><time>2026-05-03T09:31:31.483Z</time></trkpt><trkpt lat="39.9865033" lon="15.7130483"><ele>139.0</ele><time>2026-05-03T09:31:32.482Z</time></trkpt><trkpt lat="39.98665" lon="15.713065"><ele>139.0</ele><time>2026-05-03T09:31:33.483Z</time></trkpt><trkpt lat="39.986795" lon="15.7130817"><ele>139.0</ele><time>2026-05-03T09:31:34.482Z</time></trkpt><trkpt lat="39.98695" lon="15.7131"><ele>140.33333333333334</ele><time>2026-05-03T09:31:35.481Z</time></trkpt><trkpt lat="39.9871117" lon="15.7130917"><ele>141.66666666666666</ele><time>2026-05-03T09:31:36.484Z</time></trkpt><trkpt lat="39.98728" lon="15.71305"><ele>143.0</ele><time>2026-05-03T09:31:37.483Z</time></trkpt><trkpt lat="39.9874383" lon="15.7129917"><ele>144.66666666666666</ele><time>2026-05-03T09:31:38.482Z</time></trkpt><trkpt lat="39.98759" lon="15.7129317"><ele>146.33333333333334</ele><time>2026-05-03T09:31:39.482Z</time></trkpt><trkpt lat="39.9877383" lon="15.7128933"><ele>148.0</ele><time>2026-05-03T09:31:40.483Z</time></trkpt><trkpt lat="39.9878917" lon="15.7128933"><ele>148.0</ele><time>2026-05-03T09:31:41.483Z</time></trkpt><trkpt lat="39.9880517" lon="15.7129233"><ele>148.0</ele><time>2026-05-03T09:31:42.483Z</time></trkpt><trkpt lat="39.9882083" lon="15.7129717"><ele>148.0</ele><time>2026-05-03T09:31:43.483Z</time></trkpt><trkpt lat="39.98836" lon="15.7130267"><ele>150.25</ele><time>2026-05-03T09:31:44.483Z</time></trkpt><trkpt lat="39.988505" lon="15.713065"><ele>152.5</ele><time>2026-05-03T09:31:45.481Z</time></trkpt><trkpt lat="39.9886417" lon="15.7130783"><ele>154.75</ele><time>2026-05-03T09:31:46.482Z</time></trkpt><trkpt lat="39.9887817" lon="15.7130583"><ele>157.0</ele><time>2026-05-03T09:31:47.481Z</time></trkpt><trkpt lat="39.98893" lon="15.7130133"><ele>157.0</ele><time>2026-05-03T09:31:48.483Z</time></trkpt><trkpt lat="39.98909" lon="15.7129533"><ele>157.0</ele><time>2026-05-03T09:31:49.482Z</time></trkpt><trkpt lat="39.98926" lon="15.712875"><ele>157.0</ele><time>2026-05-03T09:31:50.483Z</time></trkpt><trkpt lat="39.98943" lon="15.71279"><ele>152.25</ele><time>2026-05-03T09:31:51.482Z</time></trkpt><trkpt lat="39.989585" lon="15.7127133"><ele>147.5</ele><time>2026-05-03T09:31:52.483Z</time></trkpt><trkpt lat="39.9897233" lon="15.7126567"><ele>142.75</ele><time>2026-05-03T09:31:53.482Z</time></trkpt><trkpt lat="39.9898517" lon="15.7126183"><ele>138.0</ele><time>2026-05-03T09:31:54.481Z</time></trkpt><trkpt lat="39.9899683" lon="15.7125917"><ele>143.0</ele><time>2026-05-03T09:31:55.483Z</time></trkpt><trkpt lat="39.99008" lon="15.71256"><ele>148.0</ele><time>2026-05-03T09:31:56.482Z</time></trkpt><trkpt lat="39.9902067" lon="15.7125067"><ele>153.0</ele><time>2026-05-03T09:31:57.483Z</time></trkpt><trkpt lat="39.9903567" lon="15.71243"><ele>158.0</ele><time>2026-05-03T09:31:58.483Z</time></trkpt><trkpt lat="39.9905283" lon="15.7123367"><ele>158.0</ele><time>2026-05-03T09:31:59.483Z</time></trkpt><trkpt lat="39.99071" lon="15.7122383"><ele>158.0</ele><time>2026-05-03T09:32:00.482Z</time></trkpt><trkpt lat="39.990885" lon="15.71214"><ele>158.0</ele><time>2026-05-03T09:32:01.483Z</time></trkpt><trkpt lat="39.991045" lon="15.7120567"><ele>158.25</ele><time>2026-05-03T09:32:02.483Z</time></trkpt><trkpt lat="39.9911967" lon="15.7119883"><ele>158.5</ele><time>2026-05-03T09:32:03.485Z</time></trkpt><trkpt lat="39.9913383" lon="15.7119483"><ele>158.75</ele><time>2026-05-03T09:32:04.485Z</time></trkpt><trkpt lat="39.9914783" lon="15.7119517"><ele>159.0</ele><time>2026-05-03T09:32:05.484Z</time></trkpt><trkpt lat="39.9916217" lon="15.7119967"><ele>149.66666666666666</ele><time>2026-05-03T09:32:06.484Z</time></trkpt><trkpt lat="39.9917633" lon="15.7120817"><ele>140.33333333333331</ele><time>2026-05-03T09:32:07.482Z</time></trkpt><trkpt lat="39.9919" lon="15.7122"><ele>131.0</ele><time>2026-05-03T09:32:08.483Z</time></trkpt><trkpt lat="39.9920233" lon="15.71236"><ele>131.0</ele><time>2026-05-03T09:32:09.481Z</time></trkpt><trkpt lat="39.99214" lon="15.7125433"><ele>131.0</ele><time>2026-05-03T09:32:10.481Z</time></trkpt><trkpt lat="39.9922517" lon="15.7127333"><ele>131.0</ele><time>2026-05-03T09:32:11.482Z</time></trkpt><trkpt lat="39.9923617" lon="15.7129267"><ele>132.33333333333331</ele><time>2026-05-03T09:32:12.483Z</time></trkpt><trkpt lat="39.9924717" lon="15.713115"><ele>133.66666666666666</ele><time>2026-05-03T09:32:13.482Z</time></trkpt><trkpt lat="39.9925817" lon="15.71328"><ele>135.0</ele><time>2026-05-03T09:32:14.483Z</time></trkpt><trkpt lat="39.9926833" lon="15.7134333"><ele>140.0</ele><time>2026-05-03T09:32:15.482Z</time></trkpt><trkpt lat="39.992775" lon="15.71358"><ele>145.0</ele><time>2026-05-03T09:32:16.483Z</time></trkpt><trkpt lat="39.9928733" lon="15.713725"><ele>150.0</ele><time>2026-05-03T09:32:17.481Z</time></trkpt><trkpt lat="39.9929667" lon="15.7138817"><ele>155.0</ele><time>2026-05-03T09:32:18.484Z</time></trkpt><trkpt lat="39.9930583" lon="15.7140433"><ele>155.0</ele><time>2026-05-03T09:32:19.482Z</time></trkpt><trkpt lat="39.9931533" lon="15.714205"><ele>155.0</ele><time>2026-05-03T09:32:20.483Z</time></trkpt><trkpt lat="39.9932567" lon="15.7143567"><ele>155.0</ele><time>2026-05-03T09:32:21.482Z</time></trkpt><trkpt lat="39.9933517" lon="15.7144983"><ele>157.25</ele><time>2026-05-03T09:32:22.483Z</time></trkpt><trkpt lat="39.9934317" lon="15.7146317"><ele>159.5</ele><time>2026-05-03T09:32:23.482Z</time></trkpt><trkpt lat="39.9934883" lon="15.7147667"><ele>161.75</ele><time>2026-05-03T09:32:24.483Z</time></trkpt><trkpt lat="39.9935383" lon="15.71489"><ele>164.0</ele><time>2026-05-03T09:32:25.481Z</time></trkpt><trkpt lat="39.993605" lon="15.714985"><ele>164.0</ele><time>2026-05-03T09:32:26.483Z</time></trkpt><trkpt lat="39.9936817" lon="15.7150483"><ele>164.0</ele><time>2026-05-03T09:32:27.482Z</time></trkpt><trkpt lat="39.993755" lon="15.7150817"><ele>164.0</ele><time>2026-05-03T09:32:28.483Z</time></trkpt><trkpt lat="39.99386" lon="15.71508"><ele>164.0</ele><time>2026-05-03T09:32:30.482Z</time></trkpt><trkpt lat="39.9939217" lon="15.7150283"><ele>164.0</ele><time>2026-05-03T09:32:33.482Z</time></trkpt><trkpt lat="39.9939533" lon="15.71495"><ele>164.0</ele><time>2026-05-03T09:32:40.481Z</time></trkpt><trkpt lat="39.99397" lon="15.7147433"><ele>164.0</ele><time>2026-05-03T09:32:42.481Z</time></trkpt><trkpt lat="39.9939733" lon="15.7145933"><ele>164.0</ele><time>2026-05-03T09:32:43.482Z</time></trkpt><trkpt lat="39.9939767" lon="15.7144333"><ele>164.0</ele><time>2026-05-03T09:32:44.483Z</time></trkpt><trkpt lat="39.993985" lon="15.7142883"><ele>164.0</ele><time>2026-05-03T09:32:45.483Z</time></trkpt><trkpt lat="39.9940033" lon="15.714155"><ele>163.2</ele><time>2026-05-03T09:32:46.483Z</time></trkpt><trkpt lat="39.9940483" lon="15.714025"><ele>162.39999999999998</ele><time>2026-05-03T09:32:47.481Z</time></trkpt><trkpt lat="39.9941183" lon="15.713905"><ele>161.6</ele><time>2026-05-03T09:32:48.483Z</time></trkpt><trkpt lat="39.99419" lon="15.71379"><ele>160.8</ele><time>2026-05-03T09:32:49.483Z</time></trkpt><trkpt lat="39.994265" lon="15.713695"><ele>160.0</ele><time>2026-05-03T09:32:50.483Z</time></trkpt><trkpt lat="39.9943467" lon="15.7136517"><ele>160.0</ele><time>2026-05-03T09:32:51.483Z</time></trkpt><trkpt lat="39.9944267" lon="15.71366"><ele>160.0</ele><time>2026-05-03T09:32:52.482Z</time></trkpt><trkpt lat="39.9945033" lon="15.713715"><ele>160.0</ele><time>2026-05-03T09:32:53.482Z</time></trkpt><trkpt lat="39.9945817" lon="15.7138033"><ele>160.0</ele><time>2026-05-03T09:32:54.484Z</time></trkpt><trkpt lat="39.9946817" lon="15.7138817"><ele>160.0</ele><time>2026-05-03T09:32:55.483Z</time></trkpt><trkpt lat="39.9948033" lon="15.7139283"><ele>160.0</ele><time>2026-05-03T09:32:56.483Z</time></trkpt><trkpt lat="39.99493" lon="15.7139433"><ele>160.0</ele><time>2026-05-03T09:32:57.482Z</time></trkpt><trkpt lat="39.9950517" lon="15.7139067"><ele>160.0</ele><time>2026-05-03T09:32:58.483Z</time></trkpt><trkpt lat="39.9951667" lon="15.7138167"><ele>160.0</ele><time>2026-05-03T09:32:59.483Z</time></trkpt><trkpt lat="39.99526" lon="15.713695"><ele>156.8</ele><time>2026-05-03T09:33:00.482Z</time></trkpt><trkpt lat="39.9953283" lon="15.71356"><ele>153.6</ele><time>2026-05-03T09:33:01.482Z</time></trkpt><trkpt lat="39.9953917" lon="15.7134417"><ele>150.4</ele><time>2026-05-03T09:33:02.484Z</time></trkpt><trkpt lat="39.99545" lon="15.7133533"><ele>147.2</ele><time>2026-05-03T09:33:03.484Z</time></trkpt><trkpt lat="39.9955183" lon="15.7133033"><ele>144.0</ele><time>2026-05-03T09:33:04.483Z</time></trkpt><trkpt lat="39.995595" lon="15.7133017"><ele>144.0</ele><time>2026-05-03T09:33:05.481Z</time></trkpt><trkpt lat="39.9956883" lon="15.7133483"><ele>144.0</ele><time>2026-05-03T09:33:06.482Z</time></trkpt><trkpt lat="39.995795" lon="15.7134083"><ele>144.0</ele><time>2026-05-03T09:33:07.484Z</time></trkpt><trkpt lat="39.995915" lon="15.7134383"><ele>144.0</ele><time>2026-05-03T09:33:08.483Z</time></trkpt><trkpt lat="39.99605" lon="15.71342"><ele>144.66666666666666</ele><time>2026-05-03T09:33:09.483Z</time></trkpt><trkpt lat="39.9961983" lon="15.713355"><ele>145.33333333333331</ele><time>2026-05-03T09:33:10.483Z</time></trkpt><trkpt lat="39.9963567" lon="15.71327"><ele>146.0</ele><time>2026-05-03T09:33:11.484Z</time></trkpt><trkpt lat="39.9965133" lon="15.713195"><ele>146.0</ele><time>2026-05-03T09:33:12.482Z</time></trkpt><trkpt lat="39.9966667" lon="15.713135"><ele>146.0</ele><time>2026-05-03T09:33:13.483Z</time></trkpt><trkpt lat="39.996815" lon="15.7130917"><ele>146.0</ele><time>2026-05-03T09:33:14.484Z</time></trkpt><trkpt lat="39.99696" lon="15.713045"><ele>149.0</ele><time>2026-05-03T09:33:15.482Z</time></trkpt><trkpt lat="39.9970917" lon="15.7129667"><ele>152.0</ele><time>2026-05-03T09:33:16.482Z</time></trkpt><trkpt lat="39.9972167" lon="15.71285"><ele>155.0</ele><time>2026-05-03T09:33:17.483Z</time></trkpt><trkpt lat="39.99734" lon="15.7127133"><ele>153.0</ele><time>2026-05-03T09:33:18.482Z</time></trkpt><trkpt lat="39.997465" lon="15.712575"><ele>151.0</ele><time>2026-05-03T09:33:19.483Z</time></trkpt><trkpt lat="39.9975883" lon="15.7124283"><ele>149.0</ele><time>2026-05-03T09:33:20.483Z</time></trkpt><trkpt lat="39.9976983" lon="15.7122633"><ele>149.0</ele><time>2026-05-03T09:33:21.482Z</time></trkpt><trkpt lat="39.9978" lon="15.71209"><ele>149.0</ele><time>2026-05-03T09:33:22.484Z</time></trkpt><trkpt lat="39.9978833" lon="15.711925"><ele>149.0</ele><time>2026-05-03T09:33:23.482Z</time></trkpt><trkpt lat="39.9979317" lon="15.7117617"><ele>145.5</ele><time>2026-05-03T09:33:24.483Z</time></trkpt><trkpt lat="39.997935" lon="15.7115967"><ele>142.0</ele><time>2026-05-03T09:33:25.482Z</time></trkpt><trkpt lat="39.9979033" lon="15.7114183"><ele>138.5</ele><time>2026-05-03T09:33:26.484Z</time></trkpt><trkpt lat="39.9978417" lon="15.7112383"><ele>135.0</ele><time>2026-05-03T09:33:27.482Z</time></trkpt><trkpt lat="39.99776" lon="15.711055"><ele>132.0</ele><time>2026-05-03T09:33:28.483Z</time></trkpt><trkpt lat="39.9976633" lon="15.7108733"><ele>129.0</ele><time>2026-05-03T09:33:29.482Z</time></trkpt><trkpt lat="39.9975633" lon="15.7107067"><ele>126.0</ele><time>2026-05-03T09:33:30.484Z</time></trkpt><trkpt lat="39.99746" lon="15.7105583"><ele>124.0</ele><time>2026-05-03T09:33:31.483Z</time></trkpt><trkpt lat="39.9973517" lon="15.710425"><ele>122.0</ele><time>2026-05-03T09:33:32.483Z</time></trkpt><trkpt lat="39.9972367" lon="15.7103017"><ele>120.0</ele><time>2026-05-03T09:33:33.483Z</time></trkpt><trkpt lat="39.9971133" lon="15.7101733"><ele>119.0</ele><time>2026-05-03T09:33:34.482Z</time></trkpt><trkpt lat="39.99699" lon="15.7100417"><ele>118.0</ele><time>2026-05-03T09:33:35.483Z</time></trkpt><trkpt lat="39.996865" lon="15.7099167"><ele>117.0</ele><time>2026-05-03T09:33:36.483Z</time></trkpt><trkpt lat="39.9967383" lon="15.7097983"><ele>115.5</ele><time>2026-05-03T09:33:37.483Z</time></trkpt><trkpt lat="39.9966133" lon="15.7096833"><ele>114.0</ele><time>2026-05-03T09:33:38.482Z</time></trkpt><trkpt lat="39.9964883" lon="15.7095767"><ele>112.5</ele><time>2026-05-03T09:33:39.483Z</time></trkpt><trkpt lat="39.99637" lon="15.709475"><ele>111.0</ele><time>2026-05-03T09:33:40.484Z</time></trkpt><trkpt lat="39.9962467" lon="15.7093883"><ele>111.0</ele><time>2026-05-03T09:33:41.482Z</time></trkpt><trkpt lat="39.996125" lon="15.7093017"><ele>111.0</ele><time>2026-05-03T09:33:42.483Z</time></trkpt><trkpt lat="39.99599" lon="15.7092383"><ele>111.0</ele><time>2026-05-03T09:33:43.484Z</time></trkpt><trkpt lat="39.995855" lon="15.709185"><ele>111.0</ele><time>2026-05-03T09:33:44.483Z</time></trkpt><trkpt lat="39.9957217" lon="15.7091333"><ele>110.0</ele><time>2026-05-03T09:33:45.483Z</time></trkpt><trkpt lat="39.99559" lon="15.7090783"><ele>109.0</ele><time>2026-05-03T09:33:46.483Z</time></trkpt><trkpt lat="39.9954667" lon="15.7089983"><ele>108.0</ele><time>2026-05-03T09:33:47.481Z</time></trkpt><trkpt lat="39.9953467" lon="15.7089"><ele>107.0</ele><time>2026-05-03T09:33:48.482Z</time></trkpt><trkpt lat="39.9952433" lon="15.7087933"><ele>107.0</ele><time>2026-05-03T09:33:49.482Z</time></trkpt><trkpt lat="39.99515" lon="15.7086983"><ele>106.99999999999999</ele><time>2026-05-03T09:33:50.483Z</time></trkpt><trkpt lat="39.99507" lon="15.7086183"><ele>106.99999999999999</ele><time>2026-05-03T09:33:51.482Z</time></trkpt><trkpt lat="39.995" lon="15.7085483"><ele>107.0</ele><time>2026-05-03T09:33:52.482Z</time></trkpt><trkpt lat="39.9949283" lon="15.7084817"><ele>107.0</ele><time>2026-05-03T09:33:53.483Z</time></trkpt><trkpt lat="39.9948567" lon="15.7084233"><ele>106.49999999999999</ele><time>2026-05-03T09:33:54.486Z</time></trkpt><trkpt lat="39.9947867" lon="15.7083733"><ele>106.0</ele><time>2026-05-03T09:33:55.482Z</time></trkpt><trkpt lat="39.99472" lon="15.708335"><ele>105.5</ele><time>2026-05-03T09:33:56.482Z</time></trkpt><trkpt lat="39.9946567" lon="15.708295"><ele>105.0</ele><time>2026-05-03T09:33:57.484Z</time></trkpt><trkpt lat="39.9945983" lon="15.7082567"><ele>104.49999999999999</ele><time>2026-05-03T09:33:58.482Z</time></trkpt><trkpt lat="39.9945017" lon="15.7081817"><ele>104.0</ele><time>2026-05-03T09:34:00.483Z</time></trkpt><trkpt lat="39.9944317" lon="15.7081017"><ele>104.0</ele><time>2026-05-03T09:34:02.482Z</time></trkpt><trkpt lat="39.994365" lon="15.7080317"><ele>104.0</ele><time>2026-05-03T09:34:04.483Z</time></trkpt><trkpt lat="39.9943033" lon="15.7079533"><ele>104.0</ele><time>2026-05-03T09:34:06.483Z</time></trkpt><trkpt lat="39.99424" lon="15.7078517"><ele>104.0</ele><time>2026-05-03T09:34:08.483Z</time></trkpt><trkpt lat="39.9941783" lon="15.707755"><ele>104.0</ele><time>2026-05-03T09:34:10.481Z</time></trkpt><trkpt lat="39.9940883" lon="15.7076117"><ele>103.4</ele><time>2026-05-03T09:34:12.482Z</time></trkpt><trkpt lat="39.99402" lon="15.7075117"><ele>102.80000000000001</ele><time>2026-05-03T09:34:13.484Z</time></trkpt><trkpt lat="39.99394" lon="15.7074"><ele>102.19999999999999</ele><time>2026-05-03T09:34:14.482Z</time></trkpt><trkpt lat="39.9938583" lon="15.707295"><ele>101.6</ele><time>2026-05-03T09:34:15.483Z</time></trkpt><trkpt lat="39.9937767" lon="15.7072017"><ele>101.0</ele><time>2026-05-03T09:34:16.482Z</time></trkpt><trkpt lat="39.9936767" lon="15.70714"><ele>101.0</ele><time>2026-05-03T09:34:17.483Z</time></trkpt><trkpt lat="39.9935633" lon="15.7070967"><ele>101.0</ele><time>2026-05-03T09:34:18.481Z</time></trkpt><trkpt lat="39.9934433" lon="15.7070667"><ele>101.0</ele><time>2026-05-03T09:34:19.482Z</time></trkpt><trkpt lat="39.9933267" lon="15.7070483"><ele>101.0</ele><time>2026-05-03T09:34:20.483Z</time></trkpt><trkpt lat="39.9932183" lon="15.70703"><ele>99.99999999999999</ele><time>2026-05-03T09:34:21.482Z</time></trkpt><trkpt lat="39.9931233" lon="15.70701"><ele>99.0</ele><time>2026-05-03T09:34:22.482Z</time></trkpt><trkpt lat="39.993035" lon="15.7069883"><ele>98.0</ele><time>2026-05-03T09:34:23.482Z</time></trkpt><trkpt lat="39.9929683" lon="15.70697"><ele>97.0</ele><time>2026-05-03T09:34:24.483Z</time></trkpt><trkpt lat="39.992895" lon="15.7069467"><ele>96.0</ele><time>2026-05-03T09:34:26.483Z</time></trkpt><trkpt lat="39.99283" lon="15.70687"><ele>95.0</ele><time>2026-05-03T09:34:29.485Z</time></trkpt><trkpt lat="39.9928367" lon="15.706745"><ele>94.6</ele><time>2026-05-03T09:34:31.484Z</time></trkpt><trkpt lat="39.9929167" lon="15.70664"><ele>94.2</ele><time>2026-05-03T09:34:33.485Z</time></trkpt><trkpt lat="39.9929933" lon="15.70663"><ele>93.80000000000001</ele><time>2026-05-03T09:34:34.483Z</time></trkpt><trkpt lat="39.9930733" lon="15.70664"><ele>93.4</ele><time>2026-05-03T09:34:35.484Z</time></trkpt><trkpt lat="39.9931617" lon="15.7066517"><ele>93.0</ele><time>2026-05-03T09:34:36.487Z</time></trkpt><trkpt lat="39.993255" lon="15.7066667"><ele>92.0</ele><time>2026-05-03T09:34:37.485Z</time></trkpt><trkpt lat="39.99335" lon="15.70668"><ele>91.0</ele><time>2026-05-03T09:34:38.486Z</time></trkpt><trkpt lat="39.993445" lon="15.7067033"><ele>90.0</ele><time>2026-05-03T09:34:39.485Z</time></trkpt><trkpt lat="39.99355" lon="15.706725"><ele>89.0</ele><time>2026-05-03T09:34:40.485Z</time></trkpt><trkpt lat="39.99367" lon="15.7067383"><ele>88.0</ele><time>2026-05-03T09:34:41.485Z</time></trkpt><trkpt lat="39.9938033" lon="15.7067433"><ele>88.0</ele><time>2026-05-03T09:34:42.485Z</time></trkpt><trkpt lat="39.99393" lon="15.706745"><ele>88.0</ele><time>2026-05-03T09:34:43.485Z</time></trkpt><trkpt lat="39.9940867" lon="15.7067433"><ele>88.0</ele><time>2026-05-03T09:34:44.484Z</time></trkpt><trkpt lat="39.9942367" lon="15.7067417"><ele>88.0</ele><time>2026-05-03T09:34:45.484Z</time></trkpt><trkpt lat="39.9943933" lon="15.70673"><ele>87.0</ele><time>2026-05-03T09:34:46.483Z</time></trkpt><trkpt lat="39.9945517" lon="15.7067217"><ele>86.0</ele><time>2026-05-03T09:34:47.483Z</time></trkpt><trkpt lat="39.99471" lon="15.7067233"><ele>85.0</ele><time>2026-05-03T09:34:48.483Z</time></trkpt><trkpt lat="39.9948583" lon="15.70673"><ele>84.75</ele><time>2026-05-03T09:34:49.483Z</time></trkpt><trkpt lat="39.99501" lon="15.70674"><ele>84.5</ele><time>2026-05-03T09:34:50.486Z</time></trkpt><trkpt lat="39.9951533" lon="15.7067583"><ele>84.25</ele><time>2026-05-03T09:34:51.482Z</time></trkpt><trkpt lat="39.9952867" lon="15.7067617"><ele>84.0</ele><time>2026-05-03T09:34:52.481Z</time></trkpt><trkpt lat="39.9954233" lon="15.7067533"><ele>84.0</ele><time>2026-05-03T09:34:53.483Z</time></trkpt><trkpt lat="39.9955633" lon="15.7067083"><ele>84.0</ele><time>2026-05-03T09:34:54.482Z</time></trkpt><trkpt lat="39.995715" lon="15.7066383"><ele>84.0</ele><time>2026-05-03T09:34:55.485Z</time></trkpt><trkpt lat="39.9958717" lon="15.7065617"><ele>84.0</ele><time>2026-05-03T09:34:56.485Z</time></trkpt><trkpt lat="39.9960283" lon="15.7064817"><ele>84.0</ele><time>2026-05-03T09:34:57.484Z</time></trkpt><trkpt lat="39.9961817" lon="15.7064033"><ele>84.0</ele><time>2026-05-03T09:34:58.483Z</time></trkpt><trkpt lat="39.996325" lon="15.7063283"><ele>84.0</ele><time>2026-05-03T09:34:59.483Z</time></trkpt><trkpt lat="39.9964567" lon="15.70625"><ele>84.0</ele><time>2026-05-03T09:35:00.482Z</time></trkpt><trkpt lat="39.9965783" lon="15.7061867"><ele>84.0</ele><time>2026-05-03T09:35:01.482Z</time></trkpt><trkpt lat="39.996685" lon="15.7061233"><ele>84.0</ele><time>2026-05-03T09:35:02.484Z</time></trkpt><trkpt lat="39.99678" lon="15.7060667"><ele>83.83333333333333</ele><time>2026-05-03T09:35:03.483Z</time></trkpt><trkpt lat="39.99686" lon="15.70601"><ele>83.66666666666667</ele><time>2026-05-03T09:35:04.484Z</time></trkpt><trkpt lat="39.996935" lon="15.7059583"><ele>83.5</ele><time>2026-05-03T09:35:05.483Z</time></trkpt><trkpt lat="39.997005" lon="15.7058983"><ele>83.33333333333334</ele><time>2026-05-03T09:35:06.482Z</time></trkpt><trkpt lat="39.9970733" lon="15.705825"><ele>83.16666666666667</ele><time>2026-05-03T09:35:07.485Z</time></trkpt><trkpt lat="39.99714" lon="15.705735"><ele>83.0</ele><time>2026-05-03T09:35:08.483Z</time></trkpt><trkpt lat="39.9972017" lon="15.7056317"><ele>83.0</ele><time>2026-05-03T09:35:09.482Z</time></trkpt><trkpt lat="39.9972367" lon="15.7055017"><ele>83.0</ele><time>2026-05-03T09:35:10.483Z</time></trkpt><trkpt lat="39.997245" lon="15.7053567"><ele>83.0</ele><time>2026-05-03T09:35:11.483Z</time></trkpt><trkpt lat="39.997235" lon="15.7052083"><ele>83.0</ele><time>2026-05-03T09:35:12.481Z</time></trkpt><trkpt lat="39.9972217" lon="15.7050667"><ele>83.0</ele><time>2026-05-03T09:35:13.482Z</time></trkpt><trkpt lat="39.99721" lon="15.7049333"><ele>83.0</ele><time>2026-05-03T09:35:14.483Z</time></trkpt><trkpt lat="39.9971983" lon="15.7048183"><ele>83.0</ele><time>2026-05-03T09:35:15.483Z</time></trkpt><trkpt lat="39.9971867" lon="15.7047283"><ele>83.0</ele><time>2026-05-03T09:35:16.483Z</time></trkpt><trkpt lat="39.9971833" lon="15.7046083"><ele>83.0</ele><time>2026-05-03T09:35:18.482Z</time></trkpt><trkpt lat="39.9971817" lon="15.7045"><ele>83.0</ele><time>2026-05-03T09:36:23.483Z</time></trkpt><trkpt lat="39.997165" lon="15.7043667"><ele>83.0</ele><time>2026-05-03T09:36:25.483Z</time></trkpt><trkpt lat="39.99716" lon="15.7042767"><ele>82.0</ele><time>2026-05-03T09:36:26.484Z</time></trkpt><trkpt lat="39.99715" lon="15.70418"><ele>81.0</ele><time>2026-05-03T09:36:27.484Z</time></trkpt><trkpt lat="39.9971383" lon="15.7040717"><ele>80.0</ele><time>2026-05-03T09:36:28.483Z</time></trkpt><trkpt lat="39.99714" lon="15.7039533"><ele>79.0</ele><time>2026-05-03T09:36:29.483Z</time></trkpt><trkpt lat="39.997165" lon="15.7038367"><ele>78.0</ele><time>2026-05-03T09:36:30.483Z</time></trkpt><trkpt lat="39.9972483" lon="15.7037567"><ele>77.0</ele><time>2026-05-03T09:36:32.483Z</time></trkpt><trkpt lat="39.99733" lon="15.703815"><ele>77.0</ele><time>2026-05-03T09:36:34.483Z</time></trkpt><trkpt lat="39.9973983" lon="15.7038967"><ele>77.0</ele><time>2026-05-03T09:36:35.482Z</time></trkpt><trkpt lat="39.99746" lon="15.703975"><ele>77.0</ele><time>2026-05-03T09:36:36.483Z</time></trkpt><trkpt lat="39.9975133" lon="15.7040317"><ele>77.0</ele><time>2026-05-03T09:36:37.483Z</time></trkpt><trkpt lat="39.9976017" lon="15.70407"><ele>77.0</ele><time>2026-05-03T09:36:39.483Z</time></trkpt><trkpt lat="39.9976833" lon="15.70403"><ele>77.0</ele><time>2026-05-03T09:36:41.483Z</time></trkpt><trkpt lat="39.99779" lon="15.704015"><ele>77.0</ele><time>2026-05-03T09:36:43.483Z</time></trkpt><trkpt lat="39.99787" lon="15.70399"><ele>77.0</ele><time>2026-05-03T09:36:44.484Z</time></trkpt><trkpt lat="39.9979617" lon="15.7039983"><ele>77.0</ele><time>2026-05-03T09:36:45.483Z</time></trkpt><trkpt lat="39.9980483" lon="15.7040217"><ele>77.0</ele><time>2026-05-03T09:36:46.483Z</time></trkpt><trkpt lat="39.9981267" lon="15.70402"><ele>77.0</ele><time>2026-05-03T09:36:47.484Z</time></trkpt><trkpt lat="39.9981867" lon="15.7039617"><ele>77.0</ele><time>2026-05-03T09:36:48.484Z</time></trkpt><trkpt lat="39.998225" lon="15.7038817"><ele>77.0</ele><time>2026-05-03T09:36:49.483Z</time></trkpt><trkpt lat="39.9982433" lon="15.7037917"><ele>77.0</ele><time>2026-05-03T09:36:50.483Z</time></trkpt><trkpt lat="39.998245" lon="15.7036867"><ele>77.0</ele><time>2026-05-03T09:36:51.482Z</time></trkpt><trkpt lat="39.998225" lon="15.7035767"><ele>77.0</ele><time>2026-05-03T09:36:52.483Z</time></trkpt><trkpt lat="39.998175" lon="15.7035067"><ele>77.0</ele><time>2026-05-03T09:36:53.483Z</time></trkpt><trkpt lat="39.9981067" lon="15.703465"><ele>77.0</ele><time>2026-05-03T09:36:54.484Z</time></trkpt><trkpt lat="39.9980333" lon="15.7034433"><ele>73.2</ele><time>2026-05-03T09:36:55.484Z</time></trkpt><trkpt lat="39.99794" lon="15.7034567"><ele>69.4</ele><time>2026-05-03T09:36:56.483Z</time></trkpt><trkpt lat="39.9978383" lon="15.7034867"><ele>65.6</ele><time>2026-05-03T09:36:57.483Z</time></trkpt><trkpt lat="39.9977417" lon="15.70351"><ele>61.8</ele><time>2026-05-03T09:36:58.483Z</time></trkpt><trkpt lat="39.99765" lon="15.7035133"><ele>58.0</ele><time>2026-05-03T09:36:59.482Z</time></trkpt><trkpt lat="39.997575" lon="15.7034883"><ele>58.00000000000001</ele><time>2026-05-03T09:37:00.483Z</time></trkpt><trkpt lat="39.9975117" lon="15.7034333"><ele>58.0</ele><time>2026-05-03T09:37:01.483Z</time></trkpt><trkpt lat="39.99747" lon="15.7033667"><ele>58.00000000000001</ele><time>2026-05-03T09:37:02.484Z</time></trkpt><trkpt lat="39.997455" lon="15.7032867"><ele>58.00000000000001</ele><time>2026-05-03T09:37:03.483Z</time></trkpt><trkpt lat="39.9974933" lon="15.7031867"><ele>58.0</ele><time>2026-05-03T09:37:04.482Z</time></trkpt><trkpt lat="39.9975317" lon="15.7031017"><ele>58.00000000000001</ele><time>2026-05-03T09:37:05.483Z</time></trkpt><trkpt lat="39.9975867" lon="15.703025"><ele>58.00000000000001</ele><time>2026-05-03T09:37:06.484Z</time></trkpt><trkpt lat="39.9976933" lon="15.702995"><ele>57.99999999999999</ele><time>2026-05-03T09:37:07.484Z</time></trkpt><trkpt lat="39.9977917" lon="15.7029683"><ele>58.0</ele><time>2026-05-03T09:37:08.484Z</time></trkpt><trkpt lat="39.9978783" lon="15.7029317"><ele>58.0</ele><time>2026-05-03T09:37:09.482Z</time></trkpt><trkpt lat="39.9979433" lon="15.7028733"><ele>58.0</ele><time>2026-05-03T09:37:10.483Z</time></trkpt><trkpt lat="39.9979833" lon="15.7027883"><ele>57.99999999999999</ele><time>2026-05-03T09:37:11.484Z</time></trkpt><trkpt lat="39.9979883" lon="15.7026933"><ele>58.0</ele><time>2026-05-03T09:37:12.484Z</time></trkpt><trkpt lat="39.9979683" lon="15.7026033"><ele>56.666666666666664</ele><time>2026-05-03T09:37:13.483Z</time></trkpt><trkpt lat="39.99794" lon="15.70252"><ele>55.33333333333333</ele><time>2026-05-03T09:37:14.483Z</time></trkpt><trkpt lat="39.9978917" lon="15.702445"><ele>54.0</ele><time>2026-05-03T09:37:15.484Z</time></trkpt><trkpt lat="39.9978367" lon="15.7023883"><ele>52.66666666666667</ele><time>2026-05-03T09:37:16.482Z</time></trkpt><trkpt lat="39.997765" lon="15.7023333"><ele>51.333333333333336</ele><time>2026-05-03T09:37:17.483Z</time></trkpt><trkpt lat="39.997685" lon="15.7022883"><ele>50.0</ele><time>2026-05-03T09:37:18.483Z</time></trkpt><trkpt lat="39.997595" lon="15.7022567"><ele>50.00000000000001</ele><time>2026-05-03T09:37:19.483Z</time></trkpt><trkpt lat="39.997505" lon="15.7022483"><ele>50.0</ele><time>2026-05-03T09:37:20.483Z</time></trkpt><trkpt lat="39.9974217" lon="15.7022517"><ele>50.0</ele><time>2026-05-03T09:37:21.482Z</time></trkpt><trkpt lat="39.9973583" lon="15.7022633"><ele>50.0</ele><time>2026-05-03T09:37:22.483Z</time></trkpt><trkpt lat="39.9972783" lon="15.70227"><ele>50.00000000000001</ele><time>2026-05-03T09:37:24.484Z</time></trkpt><trkpt lat="39.9971717" lon="15.7022833"><ele>50.0</ele><time>2026-05-03T09:37:42.482Z</time></trkpt><trkpt lat="39.9971117" lon="15.7023233"><ele>49.6</ele><time>2026-05-03T09:37:44.484Z</time></trkpt><trkpt lat="39.9970333" lon="15.70238"><ele>49.2</ele><time>2026-05-03T09:37:46.483Z</time></trkpt><trkpt lat="39.9969767" lon="15.7024183"><ele>48.8</ele><time>2026-05-03T09:37:47.484Z</time></trkpt><trkpt lat="39.9969117" lon="15.702455"><ele>48.4</ele><time>2026-05-03T09:37:48.484Z</time></trkpt><trkpt lat="39.996805" lon="15.7024917"><ele>48.0</ele><time>2026-05-03T09:37:50.483Z</time></trkpt><trkpt lat="39.99669" lon="15.7024333"><ele>48.666666666666664</ele><time>2026-05-03T09:37:52.482Z</time></trkpt><trkpt lat="39.996635" lon="15.702365"><ele>49.33333333333333</ele><time>2026-05-03T09:37:53.483Z</time></trkpt><trkpt lat="39.9965833" lon="15.70229"><ele>50.0</ele><time>2026-05-03T09:37:54.483Z</time></trkpt><trkpt lat="39.9965283" lon="15.7022383"><ele>50.666666666666664</ele><time>2026-05-03T09:37:55.484Z</time></trkpt><trkpt lat="39.9964683" lon="15.7022067"><ele>51.33333333333333</ele><time>2026-05-03T09:37:56.483Z</time></trkpt><trkpt lat="39.9963633" lon="15.70214"><ele>52.0</ele><time>2026-05-03T09:37:58.484Z</time></trkpt><trkpt lat="39.996295" lon="15.7020883"><ele>52.0</ele><time>2026-05-03T09:38:00.483Z</time></trkpt><trkpt lat="39.9962167" lon="15.70207"><ele>52.0</ele><time>2026-05-03T09:38:02.483Z</time></trkpt><trkpt lat="39.9960783" lon="15.7021067"><ele>52.0</ele><time>2026-05-03T09:38:04.482Z</time></trkpt><trkpt lat="39.99599" lon="15.702145"><ele>52.0</ele><time>2026-05-03T09:38:05.483Z</time></trkpt><trkpt lat="39.9959033" lon="15.702215"><ele>52.0</ele><time>2026-05-03T09:38:06.483Z</time></trkpt><trkpt lat="39.995825" lon="15.7023083"><ele>52.400000000000006</ele><time>2026-05-03T09:38:07.484Z</time></trkpt><trkpt lat="39.9957483" lon="15.7024033"><ele>52.800000000000004</ele><time>2026-05-03T09:38:08.484Z</time></trkpt><trkpt lat="39.995675" lon="15.702495"><ele>53.2</ele><time>2026-05-03T09:38:09.484Z</time></trkpt><trkpt lat="39.9956033" lon="15.7025883"><ele>53.6</ele><time>2026-05-03T09:38:10.482Z</time></trkpt><trkpt lat="39.9955417" lon="15.7026817"><ele>54.0</ele><time>2026-05-03T09:38:11.482Z</time></trkpt><trkpt lat="39.9954833" lon="15.7027667"><ele>54.0</ele><time>2026-05-03T09:38:12.483Z</time></trkpt><trkpt lat="39.995385" lon="15.7028417"><ele>54.0</ele><time>2026-05-03T09:38:13.484Z</time></trkpt><trkpt lat="39.9953433" lon="15.702945"><ele>54.0</ele><time>2026-05-03T09:38:14.483Z</time></trkpt><trkpt lat="39.9952983" lon="15.7030433"><ele>54.0</ele><time>2026-05-03T09:38:15.484Z</time></trkpt><trkpt lat="39.99525" lon="15.7031183"><ele>54.0</ele><time>2026-05-03T09:38:16.483Z</time></trkpt><trkpt lat="39.9951917" lon="15.70318"><ele>54.0</ele><time>2026-05-03T09:38:17.484Z</time></trkpt><trkpt lat="39.99513" lon="15.7032833"><ele>54.0</ele><time>2026-05-03T09:38:18.484Z</time></trkpt><trkpt lat="39.9950583" lon="15.70334"><ele>54.0</ele><time>2026-05-03T09:38:19.484Z</time></trkpt><trkpt lat="39.9949533" lon="15.7033767"><ele>54.0</ele><time>2026-05-03T09:38:21.483Z</time></trkpt><trkpt lat="39.9950067" lon="15.7034383"><ele>54.0</ele><time>2026-05-03T09:38:44.483Z</time></trkpt><trkpt lat="39.9950533" lon="15.7035283"><ele>54.0</ele><time>2026-05-03T09:38:45.484Z</time></trkpt><trkpt lat="39.9950917" lon="15.7036133"><ele>54.0</ele><time>2026-05-03T09:38:46.484Z</time></trkpt><trkpt lat="39.9951483" lon="15.7037067"><ele>55.2</ele><time>2026-05-03T09:38:47.484Z</time></trkpt><trkpt lat="39.9951767" lon="15.7038783"><ele>56.400000000000006</ele><time>2026-05-03T09:38:48.484Z</time></trkpt><trkpt lat="39.9952233" lon="15.70396"><ele>57.6</ele><time>2026-05-03T09:38:49.484Z</time></trkpt><trkpt lat="39.995275" lon="15.7040667"><ele>58.8</ele><time>2026-05-03T09:38:51.483Z</time></trkpt><trkpt lat="39.9952933" lon="15.7041567"><ele>60.0</ele><time>2026-05-03T09:38:53.484Z</time></trkpt><trkpt lat="39.9952817" lon="15.7042733"><ele>61.2</ele><time>2026-05-03T09:38:55.484Z</time></trkpt><trkpt lat="39.9953183" lon="15.7044483"><ele>62.4</ele><time>2026-05-03T09:38:57.484Z</time></trkpt><trkpt lat="39.9953667" lon="15.7045517"><ele>63.599999999999994</ele><time>2026-05-03T09:38:58.486Z</time></trkpt><trkpt lat="39.9954233" lon="15.7046667"><ele>64.8</ele><time>2026-05-03T09:38:59.483Z</time></trkpt><trkpt lat="39.99548" lon="15.7047867"><ele>66.0</ele><time>2026-05-03T09:39:00.484Z</time></trkpt><trkpt lat="39.995525" lon="15.7049083"><ele>66.0</ele><time>2026-05-03T09:39:01.484Z</time></trkpt><trkpt lat="39.99557" lon="15.70503"><ele>66.0</ele><time>2026-05-03T09:39:02.484Z</time></trkpt><trkpt lat="39.9956067" lon="15.7051417"><ele>66.0</ele><time>2026-05-03T09:39:03.483Z</time></trkpt><trkpt lat="39.99565" lon="15.7052283"><ele>66.0</ele><time>2026-05-03T09:39:04.483Z</time></trkpt><trkpt lat="39.9956933" lon="15.705315"><ele>66.0</ele><time>2026-05-03T09:39:05.483Z</time></trkpt><trkpt lat="39.9957483" lon="15.7053933"><ele>66.0</ele><time>2026-05-03T09:39:06.484Z</time></trkpt><trkpt lat="39.995815" lon="15.7054733"><ele>67.8</ele><time>2026-05-03T09:39:07.483Z</time></trkpt><trkpt lat="39.99589" lon="15.7055383"><ele>69.6</ele><time>2026-05-03T09:39:08.483Z</time></trkpt><trkpt lat="39.9959717" lon="15.7055983"><ele>71.4</ele><time>2026-05-03T09:39:09.484Z</time></trkpt><trkpt lat="39.9960583" lon="15.705645"><ele>73.2</ele><time>2026-05-03T09:39:10.482Z</time></trkpt><trkpt lat="39.9961517" lon="15.7057067"><ele>75.0</ele><time>2026-05-03T09:39:11.484Z</time></trkpt><trkpt lat="39.9962883" lon="15.705765"><ele>75.0</ele><time>2026-05-03T09:39:12.484Z</time></trkpt><trkpt lat="39.9963717" lon="15.7057283"><ele>75.0</ele><time>2026-05-03T09:39:13.482Z</time></trkpt><trkpt lat="39.9964383" lon="15.705705"><ele>75.0</ele><time>2026-05-03T09:39:14.483Z</time></trkpt><trkpt lat="39.9965183" lon="15.705655"><ele>75.0</ele><time>2026-05-03T09:39:16.484Z</time></trkpt><trkpt lat="39.9966033" lon="15.7056783"><ele>75.0</ele><time>2026-05-03T09:39:18.483Z</time></trkpt><trkpt lat="39.99664" lon="15.7057483"><ele>75.0</ele><time>2026-05-03T09:39:19.483Z</time></trkpt><trkpt lat="39.996655" lon="15.705885"><ele>75.0</ele><time>2026-05-03T09:39:21.482Z</time></trkpt><trkpt lat="39.996595" lon="15.706015"><ele>75.0</ele><time>2026-05-03T09:39:24.483Z</time></trkpt><trkpt lat="39.996545" lon="15.7061117"><ele>75.0</ele><time>2026-05-03T09:39:26.484Z</time></trkpt><trkpt lat="39.996435" lon="15.7061983"><ele>75.0</ele><time>2026-05-03T09:39:28.482Z</time></trkpt><trkpt lat="39.9963733" lon="15.7062417"><ele>75.0</ele><time>2026-05-03T09:39:29.482Z</time></trkpt><trkpt lat="39.9962917" lon="15.7062867"><ele>76.8</ele><time>2026-05-03T09:39:30.483Z</time></trkpt><trkpt lat="39.9961983" lon="15.7063417"><ele>78.6</ele><time>2026-05-03T09:39:31.484Z</time></trkpt><trkpt lat="39.9961067" lon="15.70639"><ele>80.4</ele><time>2026-05-03T09:39:32.483Z</time></trkpt><trkpt lat="39.996" lon="15.7064483"><ele>82.2</ele><time>2026-05-03T09:39:33.485Z</time></trkpt><trkpt lat="39.995895" lon="15.7065067"><ele>84.0</ele><time>2026-05-03T09:39:34.482Z</time></trkpt><trkpt lat="39.9957767" lon="15.7065683"><ele>84.0</ele><time>2026-05-03T09:39:35.484Z</time></trkpt><trkpt lat="39.99567" lon="15.7066383"><ele>84.0</ele><time>2026-05-03T09:39:36.483Z</time></trkpt><trkpt lat="39.99554" lon="15.7067"><ele>84.0</ele><time>2026-05-03T09:39:37.484Z</time></trkpt><trkpt lat="39.9954183" lon="15.7067417"><ele>84.0</ele><time>2026-05-03T09:39:38.484Z</time></trkpt><trkpt lat="39.9952817" lon="15.70676"><ele>84.0</ele><time>2026-05-03T09:39:39.483Z</time></trkpt><trkpt lat="39.9951367" lon="15.706755"><ele>84.0</ele><time>2026-05-03T09:39:40.483Z</time></trkpt><trkpt lat="39.994985" lon="15.7067417"><ele>84.0</ele><time>2026-05-03T09:39:41.482Z</time></trkpt><trkpt lat="39.9948333" lon="15.7067333"><ele>84.0</ele><time>2026-05-03T09:39:42.484Z</time></trkpt><trkpt lat="39.9946767" lon="15.7067167"><ele>84.33333333333333</ele><time>2026-05-03T09:39:43.484Z</time></trkpt><trkpt lat="39.9945183" lon="15.7067117"><ele>84.66666666666666</ele><time>2026-05-03T09:39:44.484Z</time></trkpt><trkpt lat="39.9943533" lon="15.7067167"><ele>85.0</ele><time>2026-05-03T09:39:45.483Z</time></trkpt><trkpt lat="39.9941817" lon="15.7067217"><ele>86.0</ele><time>2026-05-03T09:39:46.483Z</time></trkpt><trkpt lat="39.9940083" lon="15.70672"><ele>87.0</ele><time>2026-05-03T09:39:47.484Z</time></trkpt><trkpt lat="39.9938333" lon="15.7067183"><ele>88.0</ele><time>2026-05-03T09:39:48.483Z</time></trkpt><trkpt lat="39.9936583" lon="15.7067167"><ele>88.0</ele><time>2026-05-03T09:39:49.483Z</time></trkpt><trkpt lat="39.9934933" lon="15.706695"><ele>88.0</ele><time>2026-05-03T09:39:50.484Z</time></trkpt><trkpt lat="39.9933283" lon="15.7066783"><ele>88.0</ele><time>2026-05-03T09:39:51.484Z</time></trkpt><trkpt lat="39.9931767" lon="15.7066417"><ele>88.83333333333333</ele><time>2026-05-03T09:39:52.484Z</time></trkpt><trkpt lat="39.99305" lon="15.706615"><ele>89.66666666666666</ele><time>2026-05-03T09:39:53.483Z</time></trkpt><trkpt lat="39.9929567" lon="15.7066033"><ele>90.5</ele><time>2026-05-03T09:39:54.484Z</time></trkpt><trkpt lat="39.9928783" lon="15.70662"><ele>91.33333333333333</ele><time>2026-05-03T09:39:55.482Z</time></trkpt><trkpt lat="39.9928133" lon="15.7066633"><ele>92.16666666666667</ele><time>2026-05-03T09:39:56.484Z</time></trkpt><trkpt lat="39.99276" lon="15.7067267"><ele>93.0</ele><time>2026-05-03T09:39:57.484Z</time></trkpt><trkpt lat="39.9927633" lon="15.70682"><ele>93.4</ele><time>2026-05-03T09:39:58.484Z</time></trkpt><trkpt lat="39.9927467" lon="15.7069633"><ele>93.80000000000001</ele><time>2026-05-03T09:40:00.483Z</time></trkpt><trkpt lat="39.9927017" lon="15.7070483"><ele>94.2</ele><time>2026-05-03T09:40:02.484Z</time></trkpt><trkpt lat="39.992655" lon="15.7071483"><ele>94.6</ele><time>2026-05-03T09:40:04.484Z</time></trkpt><trkpt lat="39.9927067" lon="15.7072917"><ele>95.0</ele><time>2026-05-03T09:40:06.482Z</time></trkpt><trkpt lat="39.992775" lon="15.7073333"><ele>95.0</ele><time>2026-05-03T09:40:07.483Z</time></trkpt><trkpt lat="39.9928567" lon="15.707355"><ele>95.0</ele><time>2026-05-03T09:40:08.484Z</time></trkpt><trkpt lat="39.9929583" lon="15.7073783"><ele>95.0</ele><time>2026-05-03T09:40:09.484Z</time></trkpt><trkpt lat="39.993075" lon="15.7074133"><ele>95.0</ele><time>2026-05-03T09:40:10.483Z</time></trkpt><trkpt lat="39.9932" lon="15.7074417"><ele>95.0</ele><time>2026-05-03T09:40:11.484Z</time></trkpt><trkpt lat="39.9933183" lon="15.7074683"><ele>94.6</ele><time>2026-05-03T09:40:12.483Z</time></trkpt><trkpt lat="39.9934267" lon="15.7074983"><ele>94.2</ele><time>2026-05-03T09:40:13.483Z</time></trkpt><trkpt lat="39.993525" lon="15.7075367"><ele>93.80000000000001</ele><time>2026-05-03T09:40:14.483Z</time></trkpt><trkpt lat="39.9936117" lon="15.7075933"><ele>93.4</ele><time>2026-05-03T09:40:15.483Z</time></trkpt><trkpt lat="39.9936833" lon="15.7076667"><ele>93.0</ele><time>2026-05-03T09:40:16.482Z</time></trkpt><trkpt lat="39.9937417" lon="15.7077483"><ele>93.0</ele><time>2026-05-03T09:40:17.485Z</time></trkpt><trkpt lat="39.9937933" lon="15.7078267"><ele>93.0</ele><time>2026-05-03T09:40:18.484Z</time></trkpt><trkpt lat="39.9938483" lon="15.7079067"><ele>93.0</ele><time>2026-05-03T09:40:19.486Z</time></trkpt><trkpt lat="39.99391" lon="15.707985"><ele>93.0</ele><time>2026-05-03T09:40:20.484Z</time></trkpt><trkpt lat="39.9939733" lon="15.7080667"><ele>93.0</ele><time>2026-05-03T09:40:21.483Z</time></trkpt><trkpt lat="39.994035" lon="15.7081567"><ele>93.0</ele><time>2026-05-03T09:40:22.484Z</time></trkpt><trkpt lat="39.9940933" lon="15.7082567"><ele>93.0</ele><time>2026-05-03T09:40:23.484Z</time></trkpt><trkpt lat="39.9941517" lon="15.7083583"><ele>93.0</ele><time>2026-05-03T09:40:24.483Z</time></trkpt><trkpt lat="39.9942233" lon="15.70845"><ele>93.0</ele><time>2026-05-03T09:40:25.482Z</time></trkpt><trkpt lat="39.9943017" lon="15.7085283"><ele>93.0</ele><time>2026-05-03T09:40:26.484Z</time></trkpt><trkpt lat="39.9943783" lon="15.7085983"><ele>93.0</ele><time>2026-05-03T09:40:27.484Z</time></trkpt><trkpt lat="39.9944467" lon="15.7086683"><ele>93.0</ele><time>2026-05-03T09:40:28.483Z</time></trkpt><trkpt lat="39.9945183" lon="15.7087467"><ele>93.0</ele><time>2026-05-03T09:40:29.484Z</time></trkpt><trkpt lat="39.9946417" lon="15.708815"><ele>93.0</ele><time>2026-05-03T09:40:30.484Z</time></trkpt><trkpt lat="39.994675" lon="15.708885"><ele>93.0</ele><time>2026-05-03T09:40:31.484Z</time></trkpt><trkpt lat="39.9946867" lon="15.708995"><ele>93.0</ele><time>2026-05-03T09:40:32.484Z</time></trkpt><trkpt lat="39.9946917" lon="15.7091117"><ele>93.0</ele><time>2026-05-03T09:40:33.484Z</time></trkpt><trkpt lat="39.9946833" lon="15.7092317"><ele>93.0</ele><time>2026-05-03T09:40:34.487Z</time></trkpt><trkpt lat="39.9946767" lon="15.70933"><ele>93.0</ele><time>2026-05-03T09:40:35.484Z</time></trkpt><trkpt lat="39.99466" lon="15.7094733"><ele>93.0</ele><time>2026-05-03T09:40:37.483Z</time></trkpt><trkpt lat="39.99466" lon="15.70957"><ele>93.0</ele><time>2026-05-03T09:40:39.484Z</time></trkpt><trkpt lat="39.9946733" lon="15.7096833"><ele>93.0</ele><time>2026-05-03T09:40:47.483Z</time></trkpt><trkpt lat="39.994675" lon="15.7098067"><ele>92.25</ele><time>2026-05-03T09:40:49.484Z</time></trkpt><trkpt lat="39.99473" lon="15.709635"><ele>91.5</ele><time>2026-05-03T09:40:53.484Z</time></trkpt><trkpt lat="39.9947633" lon="15.7095517"><ele>90.75</ele><time>2026-05-03T09:40:54.483Z</time></trkpt><trkpt lat="39.9949183" lon="15.7097367"><ele>90.0</ele><time>2026-05-03T09:40:55.482Z</time></trkpt><trkpt lat="39.994915" lon="15.7099367"><ele>90.0</ele><time>2026-05-03T09:40:56.483Z</time></trkpt><trkpt lat="39.9949467" lon="15.71004"><ele>90.0</ele><time>2026-05-03T09:40:57.482Z</time></trkpt><trkpt lat="39.9949283" lon="15.7102267"><ele>90.0</ele><time>2026-05-03T09:40:58.482Z</time></trkpt><trkpt lat="39.9949067" lon="15.7104083"><ele>90.0</ele><time>2026-05-03T09:40:59.484Z</time></trkpt><trkpt lat="39.9949667" lon="15.7104483"><ele>90.0</ele><time>2026-05-03T09:41:03.484Z</time></trkpt><trkpt lat="39.9950283" lon="15.7103583"><ele>90.0</ele><time>2026-05-03T09:41:14.482Z</time></trkpt><trkpt lat="39.995105" lon="15.71031"><ele>90.0</ele><time>2026-05-03T09:41:16.483Z</time></trkpt><trkpt lat="39.9952233" lon="15.7102417"><ele>90.0</ele><time>2026-05-03T09:41:18.483Z</time></trkpt><trkpt lat="39.9952883" lon="15.7102083"><ele>90.0</ele><time>2026-05-03T09:41:19.483Z</time></trkpt><trkpt lat="39.9953517" lon="15.710165"><ele>90.0</ele><time>2026-05-03T09:41:20.482Z</time></trkpt><trkpt lat="39.99542" lon="15.7101267"><ele>90.0</ele><time>2026-05-03T09:41:21.481Z</time></trkpt><trkpt lat="39.9954817" lon="15.7100933"><ele>90.8</ele><time>2026-05-03T09:41:22.482Z</time></trkpt><trkpt lat="39.995565" lon="15.7100433"><ele>91.6</ele><time>2026-05-03T09:41:24.483Z</time></trkpt><trkpt lat="39.9955567" lon="15.7099217"><ele>92.4</ele><time>2026-05-03T09:41:27.482Z</time></trkpt><trkpt lat="39.9954717" lon="15.70988"><ele>93.2</ele><time>2026-05-03T09:41:30.481Z</time></trkpt><trkpt lat="39.9953617" lon="15.7099367"><ele>94.0</ele><time>2026-05-03T09:41:33.483Z</time></trkpt><trkpt lat="39.9952917" lon="15.70999"><ele>94.0</ele><time>2026-05-03T09:41:35.483Z</time></trkpt><trkpt lat="39.9952183" lon="15.7100417"><ele>94.0</ele><time>2026-05-03T09:41:37.483Z</time></trkpt><trkpt lat="39.995135" lon="15.71008"><ele>94.0</ele><time>2026-05-03T09:41:39.483Z</time></trkpt><trkpt lat="39.99506" lon="15.7101233"><ele>94.0</ele><time>2026-05-03T09:41:41.483Z</time></trkpt><trkpt lat="39.9950017" lon="15.7101567"><ele>94.0</ele><time>2026-05-03T09:41:43.483Z</time></trkpt><trkpt lat="39.9949333" lon="15.710185"><ele>94.0</ele><time>2026-05-03T09:41:46.482Z</time></trkpt><trkpt lat="39.9950267" lon="15.710175"><ele>94.0</ele><time>2026-05-03T09:44:40.482Z</time></trkpt><trkpt lat="39.99513" lon="15.7101167"><ele>94.0</ele><time>2026-05-03T09:44:42.483Z</time></trkpt><trkpt lat="39.99519" lon="15.71009"><ele>94.0</ele><time>2026-05-03T09:44:43.483Z</time></trkpt><trkpt lat="39.9952533" lon="15.71005"><ele>94.0</ele><time>2026-05-03T09:44:44.483Z</time></trkpt><trkpt lat="39.9953533" lon="15.709975"><ele>94.0</ele><time>2026-05-03T09:44:46.481Z</time></trkpt><trkpt lat="39.9954367" lon="15.70991"><ele>94.0</ele><time>2026-05-03T09:44:48.483Z</time></trkpt><trkpt lat="39.9955" lon="15.7098967"><ele>94.0</ele><time>2026-05-03T09:44:50.482Z</time></trkpt><trkpt lat="39.9955483" lon="15.7099517"><ele>94.0</ele><time>2026-05-03T09:44:52.483Z</time></trkpt><trkpt lat="39.9955183" lon="15.71004"><ele>94.0</ele><time>2026-05-03T09:44:55.482Z</time></trkpt><trkpt lat="39.995425" lon="15.710095"><ele>94.0</ele><time>2026-05-03T09:44:57.482Z</time></trkpt><trkpt lat="39.9953617" lon="15.7101233"><ele>94.0</ele><time>2026-05-03T09:44:58.483Z</time></trkpt><trkpt lat="39.9952533" lon="15.7101867"><ele>94.0</ele><time>2026-05-03T09:45:00.483Z</time></trkpt><trkpt lat="39.9951867" lon="15.7102333"><ele>94.0</ele><time>2026-05-03T09:45:01.482Z</time></trkpt><trkpt lat="39.9951167" lon="15.710245"><ele>94.0</ele><time>2026-05-03T09:45:02.483Z</time></trkpt><trkpt lat="39.9950483" lon="15.710275"><ele>94.0</ele><time>2026-05-03T09:45:03.481Z</time></trkpt><trkpt lat="39.9949867" lon="15.7103067"><ele>94.0</ele><time>2026-05-03T09:45:04.483Z</time></trkpt><trkpt lat="39.9949217" lon="15.7103417"><ele>94.0</ele><time>2026-05-03T09:45:05.483Z</time></trkpt><trkpt lat="39.9948217" lon="15.71038"><ele>93.2</ele><time>2026-05-03T09:45:07.483Z</time></trkpt><trkpt lat="39.9947367" lon="15.7103533"><ele>92.4</ele><time>2026-05-03T09:45:09.481Z</time></trkpt><trkpt lat="39.9946517" lon="15.710325"><ele>91.6</ele><time>2026-05-03T09:45:11.483Z</time></trkpt><trkpt lat="39.99456" lon="15.7102433"><ele>90.8</ele><time>2026-05-03T09:45:13.482Z</time></trkpt><trkpt lat="39.994435" lon="15.7101333"><ele>90.0</ele><time>2026-05-03T09:45:15.481Z</time></trkpt><trkpt lat="39.9944433" lon="15.7098933"><ele>90.0</ele><time>2026-05-03T09:45:16.483Z</time></trkpt><trkpt lat="39.9945633" lon="15.7096617"><ele>90.0</ele><time>2026-05-03T09:45:17.482Z</time></trkpt><trkpt lat="39.9946383" lon="15.7095633"><ele>90.0</ele><time>2026-05-03T09:45:18.482Z</time></trkpt><trkpt lat="39.994655" lon="15.70944"><ele>90.0</ele><time>2026-05-03T09:45:19.482Z</time></trkpt><trkpt lat="39.99465" lon="15.70934"><ele>90.6</ele><time>2026-05-03T09:45:20.483Z</time></trkpt><trkpt lat="39.99464" lon="15.7091917"><ele>91.2</ele><time>2026-05-03T09:45:21.482Z</time></trkpt><trkpt lat="39.9946217" lon="15.7090617"><ele>91.80000000000001</ele><time>2026-05-03T09:45:22.483Z</time></trkpt><trkpt lat="39.99461" lon="15.708935"><ele>92.4</ele><time>2026-05-03T09:45:23.484Z</time></trkpt><trkpt lat="39.99457" lon="15.7088133"><ele>93.0</ele><time>2026-05-03T09:45:24.482Z</time></trkpt><trkpt lat="39.9945217" lon="15.7087"><ele>93.0</ele><time>2026-05-03T09:45:25.482Z</time></trkpt><trkpt lat="39.9944667" lon="15.7086017"><ele>93.0</ele><time>2026-05-03T09:45:26.483Z</time></trkpt><trkpt lat="39.9943833" lon="15.70852"><ele>93.0</ele><time>2026-05-03T09:45:27.482Z</time></trkpt><trkpt lat="39.99429" lon="15.7084383"><ele>93.0</ele><time>2026-05-03T09:45:28.482Z</time></trkpt><trkpt lat="39.9941983" lon="15.7083567"><ele>93.0</ele><time>2026-05-03T09:45:29.482Z</time></trkpt><trkpt lat="39.9941133" lon="15.7082633"><ele>93.0</ele><time>2026-05-03T09:45:30.482Z</time></trkpt><trkpt lat="39.9940283" lon="15.7081517"><ele>93.0</ele><time>2026-05-03T09:45:31.483Z</time></trkpt><trkpt lat="39.9939367" lon="15.70803"><ele>93.0</ele><time>2026-05-03T09:45:32.484Z</time></trkpt><trkpt lat="39.9938467" lon="15.7079033"><ele>93.0</ele><time>2026-05-03T09:45:33.481Z</time></trkpt><trkpt lat="39.9937667" lon="15.7077783"><ele>93.4</ele><time>2026-05-03T09:45:34.482Z</time></trkpt><trkpt lat="39.993695" lon="15.7076667"><ele>93.80000000000001</ele><time>2026-05-03T09:45:35.483Z</time></trkpt><trkpt lat="39.99361" lon="15.70758"><ele>94.2</ele><time>2026-05-03T09:45:36.482Z</time></trkpt><trkpt lat="39.9935183" lon="15.7075067"><ele>94.6</ele><time>2026-05-03T09:45:37.482Z</time></trkpt><trkpt lat="39.9934117" lon="15.7074533"><ele>95.0</ele><time>2026-05-03T09:45:38.484Z</time></trkpt><trkpt lat="39.9932917" lon="15.7074133"><ele>95.0</ele><time>2026-05-03T09:45:39.482Z</time></trkpt><trkpt lat="39.99316" lon="15.70738"><ele>95.0</ele><time>2026-05-03T09:45:40.482Z</time></trkpt><trkpt lat="39.9930333" lon="15.707355"><ele>95.0</ele><time>2026-05-03T09:45:41.483Z</time></trkpt><trkpt lat="39.99291" lon="15.7073267"><ele>95.0</ele><time>2026-05-03T09:45:42.482Z</time></trkpt><trkpt lat="39.9928133" lon="15.7072983"><ele>95.0</ele><time>2026-05-03T09:45:43.482Z</time></trkpt><trkpt lat="39.992735" lon="15.707265"><ele>95.0</ele><time>2026-05-03T09:45:44.484Z</time></trkpt><trkpt lat="39.9926817" lon="15.70716"><ele>95.0</ele><time>2026-05-03T09:45:46.482Z</time></trkpt><trkpt lat="39.99273" lon="15.7070233"><ele>95.0</ele><time>2026-05-03T09:45:48.482Z</time></trkpt><trkpt lat="39.9928467" lon="15.7069717"><ele>95.0</ele><time>2026-05-03T09:45:50.482Z</time></trkpt><trkpt lat="39.9929283" lon="15.7069783"><ele>95.0</ele><time>2026-05-03T09:45:51.482Z</time></trkpt><trkpt lat="39.99302" lon="15.7069967"><ele>95.0</ele><time>2026-05-03T09:45:52.481Z</time></trkpt><trkpt lat="39.9931283" lon="15.7070233"><ele>95.0</ele><time>2026-05-03T09:45:53.482Z</time></trkpt><trkpt lat="39.99322" lon="15.707065"><ele>95.0</ele><time>2026-05-03T09:45:54.482Z</time></trkpt><trkpt lat="39.99329" lon="15.7070867"><ele>95.0</ele><time>2026-05-03T09:45:55.483Z</time></trkpt><trkpt lat="39.99353" lon="15.7072733"><ele>96.2</ele><time>2026-05-03T09:45:56.484Z</time></trkpt><trkpt lat="39.9936483" lon="15.707285"><ele>97.4</ele><time>2026-05-03T09:45:57.482Z</time></trkpt><trkpt lat="39.9937517" lon="15.70729"><ele>98.6</ele><time>2026-05-03T09:45:58.483Z</time></trkpt><trkpt lat="39.9938517" lon="15.7073383"><ele>99.8</ele><time>2026-05-03T09:45:59.483Z</time></trkpt><trkpt lat="39.99394" lon="15.70739"><ele>101.0</ele><time>2026-05-03T09:46:00.481Z</time></trkpt><trkpt lat="39.9940117" lon="15.7074683"><ele>100.99999999999999</ele><time>2026-05-03T09:46:01.483Z</time></trkpt><trkpt lat="39.9940717" lon="15.7075617"><ele>101.0</ele><time>2026-05-03T09:46:02.483Z</time></trkpt><trkpt lat="39.9941267" lon="15.70765"><ele>101.0</ele><time>2026-05-03T09:46:03.481Z</time></trkpt><trkpt lat="39.9941717" lon="15.7077233"><ele>101.0</ele><time>2026-05-03T09:46:04.483Z</time></trkpt><trkpt lat="39.9942217" lon="15.7078033"><ele>100.99999999999999</ele><time>2026-05-03T09:46:05.482Z</time></trkpt><trkpt lat="39.99427" lon="15.7078783"><ele>101.0</ele><time>2026-05-03T09:46:06.481Z</time></trkpt><trkpt lat="39.9943233" lon="15.70796"><ele>101.6</ele><time>2026-05-03T09:46:07.483Z</time></trkpt><trkpt lat="39.994385" lon="15.7080483"><ele>102.19999999999999</ele><time>2026-05-03T09:46:08.484Z</time></trkpt><trkpt lat="39.99446" lon="15.7081283"><ele>102.80000000000001</ele><time>2026-05-03T09:46:09.482Z</time></trkpt><trkpt lat="39.9945483" lon="15.7082067"><ele>103.4</ele><time>2026-05-03T09:46:10.481Z</time></trkpt><trkpt lat="39.9946517" lon="15.7082833"><ele>104.0</ele><time>2026-05-03T09:46:11.483Z</time></trkpt><trkpt lat="39.9947567" lon="15.7083617"><ele>104.0</ele><time>2026-05-03T09:46:12.484Z</time></trkpt><trkpt lat="39.9948617" lon="15.7084367"><ele>104.0</ele><time>2026-05-03T09:46:13.482Z</time></trkpt><trkpt lat="39.994965" lon="15.7085133"><ele>104.0</ele><time>2026-05-03T09:46:14.483Z</time></trkpt><trkpt lat="39.995065" lon="15.708595"><ele>104.0</ele><time>2026-05-03T09:46:15.482Z</time></trkpt><trkpt lat="39.99516" lon="15.7086867"><ele>104.6</ele><time>2026-05-03T09:46:16.482Z</time></trkpt><trkpt lat="39.9952483" lon="15.7087817"><ele>105.2</ele><time>2026-05-03T09:46:17.483Z</time></trkpt><trkpt lat="39.995335" lon="15.708875"><ele>105.79999999999998</ele><time>2026-05-03T09:46:18.482Z</time></trkpt><trkpt lat="39.9954217" lon="15.708965"><ele>106.39999999999999</ele><time>2026-05-03T09:46:19.483Z</time></trkpt><trkpt lat="39.9955083" lon="15.70905"><ele>107.0</ele><time>2026-05-03T09:46:20.482Z</time></trkpt><trkpt lat="39.9955983" lon="15.709125"><ele>107.0</ele><time>2026-05-03T09:46:21.482Z</time></trkpt><trkpt lat="39.995695" lon="15.7091833"><ele>106.99999999999999</ele><time>2026-05-03T09:46:22.483Z</time></trkpt><trkpt lat="39.9957917" lon="15.7092233"><ele>106.99999999999999</ele><time>2026-05-03T09:46:23.484Z</time></trkpt><trkpt lat="39.995885" lon="15.7092517"><ele>107.0</ele><time>2026-05-03T09:46:24.482Z</time></trkpt><trkpt lat="39.9959733" lon="15.7092817"><ele>107.0</ele><time>2026-05-03T09:46:25.482Z</time></trkpt><trkpt lat="39.9960583" lon="15.7093183"><ele>107.8</ele><time>2026-05-03T09:46:26.482Z</time></trkpt><trkpt lat="39.9961333" lon="15.709355"><ele>108.6</ele><time>2026-05-03T09:46:27.482Z</time></trkpt><trkpt lat="39.9961917" lon="15.7093917"><ele>109.39999999999999</ele><time>2026-05-03T09:46:28.482Z</time></trkpt><trkpt lat="39.9962783" lon="15.709455"><ele>110.19999999999999</ele><time>2026-05-03T09:46:30.483Z</time></trkpt><trkpt lat="39.9963633" lon="15.7095133"><ele>111.0</ele><time>2026-05-03T09:46:32.484Z</time></trkpt><trkpt lat="39.9964817" lon="15.709595"><ele>111.0</ele><time>2026-05-03T09:46:34.483Z</time></trkpt><trkpt lat="39.996555" lon="15.7096467"><ele>111.0</ele><time>2026-05-03T09:46:35.483Z</time></trkpt><trkpt lat="39.99663" lon="15.709705"><ele>111.0</ele><time>2026-05-03T09:46:36.483Z</time></trkpt><trkpt lat="39.9967133" lon="15.7097783"><ele>111.0</ele><time>2026-05-03T09:46:37.483Z</time></trkpt><trkpt lat="39.996805" lon="15.7098583"><ele>111.0</ele><time>2026-05-03T09:46:38.484Z</time></trkpt><trkpt lat="39.996905" lon="15.7099633"><ele>112.5</ele><time>2026-05-03T09:46:39.483Z</time></trkpt><trkpt lat="39.9970083" lon="15.7100767"><ele>114.0</ele><time>2026-05-03T09:46:40.482Z</time></trkpt><trkpt lat="39.997115" lon="15.710195"><ele>115.5</ele><time>2026-05-03T09:46:41.484Z</time></trkpt><trkpt lat="39.9972183" lon="15.7103033"><ele>117.0</ele><time>2026-05-03T09:46:42.482Z</time></trkpt><trkpt lat="39.99732" lon="15.7104117"><ele>117.75</ele><time>2026-05-03T09:46:43.483Z</time></trkpt><trkpt lat="39.9974217" lon="15.7105217"><ele>118.5</ele><time>2026-05-03T09:46:44.483Z</time></trkpt><trkpt lat="39.9975117" lon="15.7106417"><ele>119.25</ele><time>2026-05-03T09:46:45.484Z</time></trkpt><trkpt lat="39.9976" lon="15.710765"><ele>120.0</ele><time>2026-05-03T09:46:46.483Z</time></trkpt><trkpt lat="39.997665" lon="15.7108833"><ele>121.2</ele><time>2026-05-03T09:46:47.483Z</time></trkpt><trkpt lat="39.9977233" lon="15.7109933"><ele>122.4</ele><time>2026-05-03T09:46:48.487Z</time></trkpt><trkpt lat="39.9977833" lon="15.7111017"><ele>123.6</ele><time>2026-05-03T09:46:49.483Z</time></trkpt><trkpt lat="39.9978333" lon="15.71122"><ele>124.8</ele><time>2026-05-03T09:46:50.483Z</time></trkpt><trkpt lat="39.997875" lon="15.7113333"><ele>126.0</ele><time>2026-05-03T09:46:51.481Z</time></trkpt><trkpt lat="39.9979033" lon="15.7114517"><ele>127.5</ele><time>2026-05-03T09:46:52.483Z</time></trkpt><trkpt lat="39.99793" lon="15.7115633"><ele>129.0</ele><time>2026-05-03T09:46:53.484Z</time></trkpt><trkpt lat="39.9979433" lon="15.7116617"><ele>130.5</ele><time>2026-05-03T09:46:54.483Z</time></trkpt><trkpt lat="39.9979317" lon="15.711755"><ele>132.0</ele><time>2026-05-03T09:46:55.483Z</time></trkpt><trkpt lat="39.99791" lon="15.7118433"><ele>133.5</ele><time>2026-05-03T09:46:56.483Z</time></trkpt><trkpt lat="39.9978717" lon="15.7119283"><ele>135.0</ele><time>2026-05-03T09:46:57.481Z</time></trkpt><trkpt lat="39.9978267" lon="15.7120017"><ele>137.33333333333334</ele><time>2026-05-03T09:46:58.483Z</time></trkpt><trkpt lat="39.9977783" lon="15.7120817"><ele>139.66666666666666</ele><time>2026-05-03T09:46:59.483Z</time></trkpt><trkpt lat="39.9977283" lon="15.7121717"><ele>142.0</ele><time>2026-05-03T09:47:00.483Z</time></trkpt><trkpt lat="39.9976783" lon="15.7122667"><ele>144.33333333333331</ele><time>2026-05-03T09:47:01.482Z</time></trkpt><trkpt lat="39.9976333" lon="15.7123533"><ele>146.66666666666666</ele><time>2026-05-03T09:47:02.483Z</time></trkpt><trkpt lat="39.997595" lon="15.7124233"><ele>149.0</ele><time>2026-05-03T09:47:03.483Z</time></trkpt><trkpt lat="39.99751" lon="15.7125217"><ele>150.2</ele><time>2026-05-03T09:47:05.482Z</time></trkpt><trkpt lat="39.997455" lon="15.712575"><ele>151.4</ele><time>2026-05-03T09:47:06.482Z</time></trkpt><trkpt lat="39.9973783" lon="15.71264"><ele>152.6</ele><time>2026-05-03T09:47:07.482Z</time></trkpt><trkpt lat="39.997295" lon="15.712725"><ele>153.8</ele><time>2026-05-03T09:47:08.482Z</time></trkpt><trkpt lat="39.9972" lon="15.7128217"><ele>155.0</ele><time>2026-05-03T09:47:09.482Z</time></trkpt><trkpt lat="39.9970983" lon="15.71292"><ele>155.0</ele><time>2026-05-03T09:47:10.482Z</time></trkpt><trkpt lat="39.9969917" lon="15.713"><ele>155.0</ele><time>2026-05-03T09:47:11.483Z</time></trkpt><trkpt lat="39.996875" lon="15.7130533"><ele>155.0</ele><time>2026-05-03T09:47:12.485Z</time></trkpt><trkpt lat="39.9967433" lon="15.7130933"><ele>155.0</ele><time>2026-05-03T09:47:13.485Z</time></trkpt><trkpt lat="39.9966067" lon="15.7131267"><ele>152.75</ele><time>2026-05-03T09:47:14.485Z</time></trkpt><trkpt lat="39.99646" lon="15.713165"><ele>150.5</ele><time>2026-05-03T09:47:15.485Z</time></trkpt><trkpt lat="39.9963117" lon="15.7132133"><ele>148.25</ele><time>2026-05-03T09:47:16.481Z</time></trkpt><trkpt lat="39.9961717" lon="15.7132633"><ele>146.0</ele><time>2026-05-03T09:47:17.483Z</time></trkpt><trkpt lat="39.9960483" lon="15.7133317"><ele>146.0</ele><time>2026-05-03T09:47:18.482Z</time></trkpt><trkpt lat="39.9959367" lon="15.713395"><ele>146.0</ele><time>2026-05-03T09:47:19.483Z</time></trkpt><trkpt lat="39.9958217" lon="15.71339"><ele>146.0</ele><time>2026-05-03T09:47:20.483Z</time></trkpt><trkpt lat="39.9957333" lon="15.7133483"><ele>146.0</ele><time>2026-05-03T09:47:21.483Z</time></trkpt><trkpt lat="39.9956617" lon="15.7132783"><ele>146.0</ele><time>2026-05-03T09:47:22.482Z</time></trkpt><trkpt lat="39.995575" lon="15.7132317"><ele>145.66666666666666</ele><time>2026-05-03T09:47:23.483Z</time></trkpt><trkpt lat="39.9954933" lon="15.7132183"><ele>145.33333333333331</ele><time>2026-05-03T09:47:24.483Z</time></trkpt><trkpt lat="39.995415" lon="15.7132533"><ele>145.0</ele><time>2026-05-03T09:47:25.482Z</time></trkpt><trkpt lat="39.9953433" lon="15.7133083"><ele>144.66666666666666</ele><time>2026-05-03T09:47:26.483Z</time></trkpt><trkpt lat="39.995285" lon="15.7134017"><ele>144.33333333333334</ele><time>2026-05-03T09:47:27.481Z</time></trkpt><trkpt lat="39.99525" lon="15.71352"><ele>144.0</ele><time>2026-05-03T09:47:28.482Z</time></trkpt><trkpt lat="39.9951983" lon="15.71362"><ele>145.66666666666666</ele><time>2026-05-03T09:47:29.483Z</time></trkpt><trkpt lat="39.9951517" lon="15.7137183"><ele>147.33333333333334</ele><time>2026-05-03T09:47:30.481Z</time></trkpt><trkpt lat="39.9950933" lon="15.7138"><ele>149.0</ele><time>2026-05-03T09:47:31.484Z</time></trkpt><trkpt lat="39.9950167" lon="15.7138567"><ele>150.66666666666669</ele><time>2026-05-03T09:47:32.483Z</time></trkpt><trkpt lat="39.9949367" lon="15.7138983"><ele>152.33333333333334</ele><time>2026-05-03T09:47:33.482Z</time></trkpt><trkpt lat="39.9948533" lon="15.71392"><ele>154.0</ele><time>2026-05-03T09:47:34.482Z</time></trkpt><trkpt lat="39.99477" lon="15.7139233"><ele>155.0</ele><time>2026-05-03T09:47:35.483Z</time></trkpt><trkpt lat="39.9946783" lon="15.7139017"><ele>156.0</ele><time>2026-05-03T09:47:36.483Z</time></trkpt><trkpt lat="39.9945933" lon="15.7138667"><ele>157.0</ele><time>2026-05-03T09:47:37.483Z</time></trkpt><trkpt lat="39.9945167" lon="15.71381"><ele>158.0</ele><time>2026-05-03T09:47:38.483Z</time></trkpt><trkpt lat="39.99445" lon="15.7137517"><ele>159.0</ele><time>2026-05-03T09:47:39.482Z</time></trkpt><trkpt lat="39.994385" lon="15.7137033"><ele>160.0</ele><time>2026-05-03T09:47:40.483Z</time></trkpt><trkpt lat="39.9943183" lon="15.713675"><ele>160.0</ele><time>2026-05-03T09:47:41.483Z</time></trkpt><trkpt lat="39.9942017" lon="15.7136917"><ele>160.0</ele><time>2026-05-03T09:47:43.482Z</time></trkpt><trkpt lat="39.994145" lon="15.7137667"><ele>160.0</ele><time>2026-05-03T09:47:44.484Z</time></trkpt><trkpt lat="39.9941017" lon="15.713855"><ele>160.0</ele><time>2026-05-03T09:47:45.483Z</time></trkpt><trkpt lat="39.9940567" lon="15.71394"><ele>160.0</ele><time>2026-05-03T09:47:46.483Z</time></trkpt><trkpt lat="39.9940217" lon="15.7140367"><ele>160.0</ele><time>2026-05-03T09:47:47.482Z</time></trkpt><trkpt lat="39.9939967" lon="15.71414"><ele>159.66666666666669</ele><time>2026-05-03T09:47:48.483Z</time></trkpt><trkpt lat="39.9939717" lon="15.714255"><ele>159.33333333333334</ele><time>2026-05-03T09:47:49.483Z</time></trkpt><trkpt lat="39.9939717" lon="15.7143767"><ele>159.0</ele><time>2026-05-03T09:47:50.482Z</time></trkpt><trkpt lat="39.99398" lon="15.7144883"><ele>158.66666666666666</ele><time>2026-05-03T09:47:51.481Z</time></trkpt><trkpt lat="39.9939817" lon="15.7145883"><ele>158.33333333333331</ele><time>2026-05-03T09:47:52.482Z</time></trkpt><trkpt lat="39.993975" lon="15.7146967"><ele>158.0</ele><time>2026-05-03T09:47:53.482Z</time></trkpt><trkpt lat="39.9939717" lon="15.71483"><ele>159.5</ele><time>2026-05-03T09:47:54.482Z</time></trkpt><trkpt lat="39.9939633" lon="15.7150017"><ele>161.0</ele><time>2026-05-03T09:47:55.483Z</time></trkpt><trkpt lat="39.99395" lon="15.7151583"><ele>162.5</ele><time>2026-05-03T09:47:56.482Z</time></trkpt><trkpt lat="39.99394" lon="15.7153017"><ele>164.0</ele><time>2026-05-03T09:47:57.482Z</time></trkpt><trkpt lat="39.993935" lon="15.7154317"><ele>164.2</ele><time>2026-05-03T09:47:58.481Z</time></trkpt><trkpt lat="39.99393" lon="15.7155533"><ele>164.39999999999998</ele><time>2026-05-03T09:47:59.482Z</time></trkpt><trkpt lat="39.9939033" lon="15.7156683"><ele>164.6</ele><time>2026-05-03T09:48:00.483Z</time></trkpt><trkpt lat="39.9939317" lon="15.7158"><ele>164.8</ele><time>2026-05-03T09:48:01.482Z</time></trkpt><trkpt lat="39.9939617" lon="15.71594"><ele>165.0</ele><time>2026-05-03T09:48:02.485Z</time></trkpt><trkpt lat="39.99401" lon="15.7160767"><ele>166.75</ele><time>2026-05-03T09:48:03.484Z</time></trkpt><trkpt lat="39.9940783" lon="15.716215"><ele>168.5</ele><time>2026-05-03T09:48:04.482Z</time></trkpt><trkpt lat="39.9941617" lon="15.716345"><ele>170.25</ele><time>2026-05-03T09:48:05.482Z</time></trkpt><trkpt lat="39.994265" lon="15.7164467"><ele>172.0</ele><time>2026-05-03T09:48:06.483Z</time></trkpt><trkpt lat="39.994395" lon="15.716525"><ele>172.0</ele><time>2026-05-03T09:48:07.483Z</time></trkpt><trkpt lat="39.9945467" lon="15.7165867"><ele>172.0</ele><time>2026-05-03T09:48:08.482Z</time></trkpt><trkpt lat="39.9947083" lon="15.7166383"><ele>172.0</ele><time>2026-05-03T09:48:09.482Z</time></trkpt><trkpt lat="39.99486" lon="15.716685"><ele>172.0</ele><time>2026-05-03T09:48:10.482Z</time></trkpt><trkpt lat="39.9950033" lon="15.7167217"><ele>172.0</ele><time>2026-05-03T09:48:11.483Z</time></trkpt><trkpt lat="39.9951283" lon="15.716755"><ele>172.0</ele><time>2026-05-03T09:48:12.481Z</time></trkpt><trkpt lat="39.9952333" lon="15.7167867"><ele>172.0</ele><time>2026-05-03T09:48:13.483Z</time></trkpt><trkpt lat="39.9953283" lon="15.716815"><ele>172.83333333333334</ele><time>2026-05-03T09:48:14.483Z</time></trkpt><trkpt lat="39.9954267" lon="15.7168417"><ele>173.66666666666669</ele><time>2026-05-03T09:48:15.482Z</time></trkpt><trkpt lat="39.9955183" lon="15.716865"><ele>174.5</ele><time>2026-05-03T09:48:16.482Z</time></trkpt><trkpt lat="39.995605" lon="15.7168817"><ele>175.33333333333334</ele><time>2026-05-03T09:48:17.484Z</time></trkpt><trkpt lat="39.9956917" lon="15.7168833"><ele>176.16666666666666</ele><time>2026-05-03T09:48:18.483Z</time></trkpt><trkpt lat="39.9957717" lon="15.71687"><ele>177.0</ele><time>2026-05-03T09:48:19.483Z</time></trkpt><trkpt lat="39.995845" lon="15.7168383"><ele>177.83333333333334</ele><time>2026-05-03T09:48:20.482Z</time></trkpt><trkpt lat="39.995915" lon="15.7167917"><ele>178.66666666666666</ele><time>2026-05-03T09:48:21.484Z</time></trkpt><trkpt lat="39.995975" lon="15.7167417"><ele>179.5</ele><time>2026-05-03T09:48:22.484Z</time></trkpt><trkpt lat="39.9960267" lon="15.7166883"><ele>180.33333333333331</ele><time>2026-05-03T09:48:23.483Z</time></trkpt><trkpt lat="39.99608" lon="15.7166333"><ele>181.16666666666666</ele><time>2026-05-03T09:48:24.481Z</time></trkpt><trkpt lat="39.99613" lon="15.7165833"><ele>182.0</ele><time>2026-05-03T09:48:25.483Z</time></trkpt><trkpt lat="39.9962567" lon="15.716555"><ele>182.0</ele><time>2026-05-03T09:48:27.481Z</time></trkpt><trkpt lat="39.9963417" lon="15.7165683"><ele>182.0</ele><time>2026-05-03T09:48:28.482Z</time></trkpt><trkpt lat="39.9964183" lon="15.7165783"><ele>182.0</ele><time>2026-05-03T09:48:29.482Z</time></trkpt><trkpt lat="39.9964983" lon="15.7165917"><ele>182.0</ele><time>2026-05-03T09:48:30.482Z</time></trkpt><trkpt lat="39.9965733" lon="15.7165983"><ele>182.0</ele><time>2026-05-03T09:48:31.483Z</time></trkpt><trkpt lat="39.9966483" lon="15.716585"><ele>182.0</ele><time>2026-05-03T09:48:32.482Z</time></trkpt><trkpt lat="39.99672" lon="15.7165717"><ele>183.33333333333331</ele><time>2026-05-03T09:48:33.482Z</time></trkpt><trkpt lat="39.9967917" lon="15.7165583"><ele>184.66666666666666</ele><time>2026-05-03T09:48:34.484Z</time></trkpt><trkpt lat="39.9968683" lon="15.7165483"><ele>186.0</ele><time>2026-05-03T09:48:35.483Z</time></trkpt><trkpt lat="39.9969433" lon="15.7165533"><ele>187.33333333333334</ele><time>2026-05-03T09:48:36.483Z</time></trkpt><trkpt lat="39.99702" lon="15.7165617"><ele>188.66666666666669</ele><time>2026-05-03T09:48:37.483Z</time></trkpt><trkpt lat="39.9970967" lon="15.7165683"><ele>190.0</ele><time>2026-05-03T09:48:38.484Z</time></trkpt><trkpt lat="39.9971717" lon="15.71657"><ele>190.0</ele><time>2026-05-03T09:48:39.483Z</time></trkpt><trkpt lat="39.9972517" lon="15.716555"><ele>190.0</ele><time>2026-05-03T09:48:40.482Z</time></trkpt><trkpt lat="39.9973533" lon="15.71653"><ele>190.0</ele><time>2026-05-03T09:48:41.482Z</time></trkpt><trkpt lat="39.99747" lon="15.7165067"><ele>190.0</ele><time>2026-05-03T09:48:42.482Z</time></trkpt><trkpt lat="39.9976067" lon="15.716485"><ele>190.0</ele><time>2026-05-03T09:48:43.485Z</time></trkpt><trkpt lat="39.9977617" lon="15.71648"><ele>190.66666666666669</ele><time>2026-05-03T09:48:44.483Z</time></trkpt><trkpt lat="39.9979267" lon="15.7165033"><ele>191.33333333333334</ele><time>2026-05-03T09:48:45.482Z</time></trkpt><trkpt lat="39.9981" lon="15.7165317"><ele>192.0</ele><time>2026-05-03T09:48:46.483Z</time></trkpt><trkpt lat="39.9982783" lon="15.7165533"><ele>192.75</ele><time>2026-05-03T09:48:47.482Z</time></trkpt><trkpt lat="39.9984317" lon="15.7165467"><ele>193.5</ele><time>2026-05-03T09:48:48.482Z</time></trkpt><trkpt lat="39.9985733" lon="15.7165167"><ele>194.25</ele><time>2026-05-03T09:48:49.483Z</time></trkpt><trkpt lat="39.9987083" lon="15.7164817"><ele>195.0</ele><time>2026-05-03T09:48:50.484Z</time></trkpt><trkpt lat="39.99884" lon="15.7164833"><ele>195.0</ele><time>2026-05-03T09:48:51.482Z</time></trkpt><trkpt lat="39.99896" lon="15.7165283"><ele>195.0</ele><time>2026-05-03T09:48:52.482Z</time></trkpt><trkpt lat="39.9990683" lon="15.7166133"><ele>195.0</ele><time>2026-05-03T09:48:53.482Z</time></trkpt><trkpt lat="39.9991767" lon="15.716725"><ele>195.0</ele><time>2026-05-03T09:48:54.483Z</time></trkpt><trkpt lat="39.99929" lon="15.7168483"><ele>197.33333333333331</ele><time>2026-05-03T09:48:55.482Z</time></trkpt><trkpt lat="39.9994133" lon="15.7169733"><ele>199.66666666666666</ele><time>2026-05-03T09:48:56.484Z</time></trkpt><trkpt lat="39.9995483" lon="15.717075"><ele>202.0</ele><time>2026-05-03T09:48:57.482Z</time></trkpt><trkpt lat="39.999675" lon="15.7171583"><ele>202.0</ele><time>2026-05-03T09:48:58.481Z</time></trkpt><trkpt lat="39.9997917" lon="15.7172283"><ele>202.0</ele><time>2026-05-03T09:48:59.482Z</time></trkpt><trkpt lat="39.9998933" lon="15.717305"><ele>202.0</ele><time>2026-05-03T09:49:00.483Z</time></trkpt><trkpt lat="39.999975" lon="15.71739"><ele>202.0</ele><time>2026-05-03T09:49:01.483Z</time></trkpt><trkpt lat="40.000025" lon="15.7174867"><ele>202.0</ele><time>2026-05-03T09:49:02.483Z</time></trkpt><trkpt lat="40.0000417" lon="15.7175833"><ele>202.0</ele><time>2026-05-03T09:49:03.481Z</time></trkpt><trkpt lat="39.9999817" lon="15.7176483"><ele>202.0</ele><time>2026-05-03T09:49:04.483Z</time></trkpt><trkpt lat="39.9998983" lon="15.717675"><ele>202.0</ele><time>2026-05-03T09:49:05.483Z</time></trkpt><trkpt lat="39.9997933" lon="15.7176517"><ele>202.0</ele><time>2026-05-03T09:49:06.483Z</time></trkpt><trkpt lat="39.9996683" lon="15.717605"><ele>202.0</ele><time>2026-05-03T09:49:07.483Z</time></trkpt><trkpt lat="39.9995383" lon="15.7175583"><ele>202.0</ele><time>2026-05-03T09:49:08.483Z</time></trkpt><trkpt lat="39.999405" lon="15.7175233"><ele>202.0</ele><time>2026-05-03T09:49:09.482Z</time></trkpt><trkpt lat="39.9992667" lon="15.7175167"><ele>202.0</ele><time>2026-05-03T09:49:10.485Z</time></trkpt><trkpt lat="39.9991583" lon="15.7175517"><ele>202.0</ele><time>2026-05-03T09:49:11.483Z</time></trkpt><trkpt lat="39.9990333" lon="15.717495"><ele>203.33333333333331</ele><time>2026-05-03T09:49:12.483Z</time></trkpt><trkpt lat="39.99888" lon="15.7175783"><ele>204.66666666666669</ele><time>2026-05-03T09:49:13.483Z</time></trkpt><trkpt lat="39.9987583" lon="15.7177083"><ele>206.0</ele><time>2026-05-03T09:49:14.484Z</time></trkpt><trkpt lat="39.9986733" lon="15.71785"><ele>208.25</ele><time>2026-05-03T09:49:15.483Z</time></trkpt><trkpt lat="39.9986067" lon="15.7180033"><ele>210.5</ele><time>2026-05-03T09:49:16.483Z</time></trkpt><trkpt lat="39.9985567" lon="15.7181633"><ele>212.75</ele><time>2026-05-03T09:49:17.482Z</time></trkpt><trkpt lat="39.9985233" lon="15.7183267"><ele>215.0</ele><time>2026-05-03T09:49:18.483Z</time></trkpt><trkpt lat="39.998505" lon="15.7185017"><ele>216.25</ele><time>2026-05-03T09:49:19.482Z</time></trkpt><trkpt lat="39.9984967" lon="15.718685"><ele>217.5</ele><time>2026-05-03T09:49:20.483Z</time></trkpt><trkpt lat="39.9985" lon="15.7188783"><ele>218.75</ele><time>2026-05-03T09:49:21.483Z</time></trkpt><trkpt lat="39.9985233" lon="15.7190667"><ele>220.0</ele><time>2026-05-03T09:49:22.483Z</time></trkpt><trkpt lat="39.9985383" lon="15.7192233"><ele>220.0</ele><time>2026-05-03T09:49:23.482Z</time></trkpt><trkpt lat="39.9985217" lon="15.7193667"><ele>220.0</ele><time>2026-05-03T09:49:24.484Z</time></trkpt><trkpt lat="39.99849" lon="15.719485"><ele>220.0</ele><time>2026-05-03T09:49:25.483Z</time></trkpt><trkpt lat="39.99843" lon="15.71958"><ele>220.0</ele><time>2026-05-03T09:49:26.483Z</time></trkpt><trkpt lat="39.9983533" lon="15.719665"><ele>220.0</ele><time>2026-05-03T09:49:27.481Z</time></trkpt><trkpt lat="39.9982567" lon="15.7197333"><ele>221.25</ele><time>2026-05-03T09:49:28.483Z</time></trkpt><trkpt lat="39.9981533" lon="15.71978"><ele>222.5</ele><time>2026-05-03T09:49:29.482Z</time></trkpt><trkpt lat="39.9980467" lon="15.71981"><ele>223.75</ele><time>2026-05-03T09:49:30.483Z</time></trkpt><trkpt lat="39.99793" lon="15.7198333"><ele>225.0</ele><time>2026-05-03T09:49:31.483Z</time></trkpt><trkpt lat="39.9978067" lon="15.719845"><ele>225.0</ele><time>2026-05-03T09:49:32.483Z</time></trkpt><trkpt lat="39.9976817" lon="15.7198583"><ele>225.0</ele><time>2026-05-03T09:49:33.483Z</time></trkpt><trkpt lat="39.9975583" lon="15.7198717"><ele>225.0</ele><time>2026-05-03T09:49:34.483Z</time></trkpt><trkpt lat="39.99743" lon="15.7198933"><ele>225.0</ele><time>2026-05-03T09:49:35.483Z</time></trkpt><trkpt lat="39.997305" lon="15.7199117"><ele>225.0</ele><time>2026-05-03T09:49:36.483Z</time></trkpt><trkpt lat="39.997185" lon="15.7199317"><ele>225.0</ele><time>2026-05-03T09:49:37.483Z</time></trkpt><trkpt lat="39.9970683" lon="15.7199283"><ele>225.0</ele><time>2026-05-03T09:49:38.483Z</time></trkpt><trkpt lat="39.9969633" lon="15.7198783"><ele>225.0</ele><time>2026-05-03T09:49:39.483Z</time></trkpt><trkpt lat="39.9968783" lon="15.7197917"><ele>225.0</ele><time>2026-05-03T09:49:40.483Z</time></trkpt><trkpt lat="39.9968133" lon="15.7196933"><ele>225.0</ele><time>2026-05-03T09:49:41.483Z</time></trkpt><trkpt lat="39.996755" lon="15.7196017"><ele>225.0</ele><time>2026-05-03T09:49:42.484Z</time></trkpt><trkpt lat="39.99669" lon="15.7195217"><ele>225.0</ele><time>2026-05-03T09:49:43.482Z</time></trkpt><trkpt lat="39.9966183" lon="15.7194567"><ele>225.0</ele><time>2026-05-03T09:49:44.484Z</time></trkpt><trkpt lat="39.996545" lon="15.7194083"><ele>224.16666666666666</ele><time>2026-05-03T09:49:45.484Z</time></trkpt><trkpt lat="39.9964717" lon="15.7193833"><ele>223.33333333333331</ele><time>2026-05-03T09:49:46.484Z</time></trkpt><trkpt lat="39.9963933" lon="15.7193817"><ele>222.5</ele><time>2026-05-03T09:49:47.482Z</time></trkpt><trkpt lat="39.99632" lon="15.719385"><ele>221.66666666666666</ele><time>2026-05-03T09:49:48.484Z</time></trkpt><trkpt lat="39.996205" lon="15.7194033"><ele>220.83333333333331</ele><time>2026-05-03T09:49:50.482Z</time></trkpt><trkpt lat="39.9961217" lon="15.71942"><ele>220.0</ele><time>2026-05-03T09:49:52.484Z</time></trkpt><trkpt lat="39.9960417" lon="15.7194417"><ele>222.33333333333331</ele><time>2026-05-03T09:49:56.484Z</time></trkpt><trkpt lat="39.9959783" lon="15.7194467"><ele>224.66666666666666</ele><time>2026-05-03T09:49:58.481Z</time></trkpt><trkpt lat="39.9959067" lon="15.7194517"><ele>227.0</ele><time>2026-05-03T09:50:00.482Z</time></trkpt><trkpt lat="39.99579" lon="15.7194867"><ele>229.33333333333331</ele><time>2026-05-03T09:50:02.481Z</time></trkpt><trkpt lat="39.995705" lon="15.7195233"><ele>231.66666666666666</ele><time>2026-05-03T09:50:03.481Z</time></trkpt><trkpt lat="39.9956167" lon="15.7195667"><ele>234.0</ele><time>2026-05-03T09:50:04.481Z</time></trkpt><trkpt lat="39.9955283" lon="15.7196067"><ele>234.75</ele><time>2026-05-03T09:50:05.481Z</time></trkpt><trkpt lat="39.995435" lon="15.7196867"><ele>235.5</ele><time>2026-05-03T09:50:06.484Z</time></trkpt><trkpt lat="39.9953283" lon="15.7198067"><ele>236.25</ele><time>2026-05-03T09:50:07.483Z</time></trkpt><trkpt lat="39.9952317" lon="15.719945"><ele>237.0</ele><time>2026-05-03T09:50:08.483Z</time></trkpt><trkpt lat="39.9951433" lon="15.7200467"><ele>237.0</ele><time>2026-05-03T09:50:09.482Z</time></trkpt><trkpt lat="39.9950567" lon="15.7201133"><ele>237.0</ele><time>2026-05-03T09:50:10.482Z</time></trkpt><trkpt lat="39.9949667" lon="15.7201433"><ele>237.0</ele><time>2026-05-03T09:50:11.483Z</time></trkpt><trkpt lat="39.99486" lon="15.7201083"><ele>237.0</ele><time>2026-05-03T09:50:12.483Z</time></trkpt><trkpt lat="39.9947467" lon="15.7200267"><ele>237.0</ele><time>2026-05-03T09:50:13.483Z</time></trkpt><trkpt lat="39.99465" lon="15.7199267"><ele>236.66666666666669</ele><time>2026-05-03T09:50:14.483Z</time></trkpt><trkpt lat="39.9945433" lon="15.719805"><ele>236.33333333333334</ele><time>2026-05-03T09:50:15.484Z</time></trkpt><trkpt lat="39.99442" lon="15.71965"><ele>236.0</ele><time>2026-05-03T09:50:16.483Z</time></trkpt><trkpt lat="39.9943383" lon="15.7194567"><ele>233.0</ele><time>2026-05-03T09:50:17.482Z</time></trkpt><trkpt lat="39.99427" lon="15.7192733"><ele>230.0</ele><time>2026-05-03T09:50:18.483Z</time></trkpt><trkpt lat="39.9941933" lon="15.7190683"><ele>227.0</ele><time>2026-05-03T09:50:19.484Z</time></trkpt><trkpt lat="39.99413" lon="15.7188667"><ele>228.2</ele><time>2026-05-03T09:50:20.483Z</time></trkpt><trkpt lat="39.994075" lon="15.7186917"><ele>229.39999999999998</ele><time>2026-05-03T09:50:21.481Z</time></trkpt><trkpt lat="39.9940133" lon="15.7185617"><ele>230.60000000000002</ele><time>2026-05-03T09:50:22.483Z</time></trkpt><trkpt lat="39.9939383" lon="15.718485"><ele>231.8</ele><time>2026-05-03T09:50:23.483Z</time></trkpt><trkpt lat="39.9938533" lon="15.718445"><ele>233.0</ele><time>2026-05-03T09:50:24.483Z</time></trkpt><trkpt lat="39.9937533" lon="15.7184567"><ele>233.00000000000003</ele><time>2026-05-03T09:50:25.482Z</time></trkpt><trkpt lat="39.9936483" lon="15.7184883"><ele>233.0</ele><time>2026-05-03T09:50:26.483Z</time></trkpt><trkpt lat="39.9935517" lon="15.7185167"><ele>233.0</ele><time>2026-05-03T09:50:27.482Z</time></trkpt><trkpt lat="39.9934717" lon="15.7185283"><ele>233.0</ele><time>2026-05-03T09:50:28.481Z</time></trkpt><trkpt lat="39.9934033" lon="15.71852"><ele>233.00000000000003</ele><time>2026-05-03T09:50:29.483Z</time></trkpt><trkpt lat="39.9933517" lon="15.7184617"><ele>233.0</ele><time>2026-05-03T09:50:30.482Z</time></trkpt><trkpt lat="39.993305" lon="15.71837"><ele>236.0</ele><time>2026-05-03T09:50:31.483Z</time></trkpt><trkpt lat="39.99328" lon="15.718235"><ele>239.0</ele><time>2026-05-03T09:50:32.482Z</time></trkpt><trkpt lat="39.993265" lon="15.71805"><ele>242.0</ele><time>2026-05-03T09:50:33.483Z</time></trkpt><trkpt lat="39.99323" lon="15.7178567"><ele>245.0</ele><time>2026-05-03T09:50:34.484Z</time></trkpt><trkpt lat="39.9931817" lon="15.717645"><ele>245.0</ele><time>2026-05-03T09:50:35.483Z</time></trkpt><trkpt lat="39.9931217" lon="15.7174217"><ele>245.0</ele><time>2026-05-03T09:50:36.481Z</time></trkpt><trkpt lat="39.993055" lon="15.717185"><ele>245.0</ele><time>2026-05-03T09:50:37.484Z</time></trkpt><trkpt lat="39.99296" lon="15.7169483"><ele>238.0</ele><time>2026-05-03T09:50:38.484Z</time></trkpt><trkpt lat="39.992865" lon="15.7167233"><ele>231.0</ele><time>2026-05-03T09:50:39.482Z</time></trkpt><trkpt lat="39.9927567" lon="15.7165067"><ele>224.0</ele><time>2026-05-03T09:50:40.483Z</time></trkpt><trkpt lat="39.99264" lon="15.716285"><ele>224.0</ele><time>2026-05-03T09:50:41.483Z</time></trkpt><trkpt lat="39.9925317" lon="15.716085"><ele>224.0</ele><time>2026-05-03T09:50:42.483Z</time></trkpt><trkpt lat="39.9924317" lon="15.7159033"><ele>224.0</ele><time>2026-05-03T09:50:43.483Z</time></trkpt><trkpt lat="39.9923467" lon="15.71574"><ele>229.79999999999998</ele><time>2026-05-03T09:50:44.483Z</time></trkpt><trkpt lat="39.9922783" lon="15.7156"><ele>235.59999999999997</ele><time>2026-05-03T09:50:45.482Z</time></trkpt><trkpt lat="39.9922267" lon="15.7154917"><ele>241.4</ele><time>2026-05-03T09:50:46.483Z</time></trkpt><trkpt lat="39.9921683" lon="15.7154283"><ele>247.2</ele><time>2026-05-03T09:50:47.483Z</time></trkpt><trkpt lat="39.992055" lon="15.71546"><ele>253.0</ele><time>2026-05-03T09:50:49.483Z</time></trkpt><trkpt lat="39.9920283" lon="15.7155467"><ele>253.0</ele><time>2026-05-03T09:50:50.484Z</time></trkpt><trkpt lat="39.9920683" lon="15.715655"><ele>253.0</ele><time>2026-05-03T09:50:51.482Z</time></trkpt><trkpt lat="39.9921283" lon="15.715765"><ele>253.0</ele><time>2026-05-03T09:50:52.481Z</time></trkpt><trkpt lat="39.9922117" lon="15.71588"><ele>253.0</ele><time>2026-05-03T09:50:53.483Z</time></trkpt><trkpt lat="39.9922917" lon="15.71602"><ele>258.75</ele><time>2026-05-03T09:50:54.483Z</time></trkpt><trkpt lat="39.9923733" lon="15.71617"><ele>264.5</ele><time>2026-05-03T09:50:55.484Z</time></trkpt><trkpt lat="39.9924483" lon="15.7163283"><ele>270.25</ele><time>2026-05-03T09:50:56.482Z</time></trkpt><trkpt lat="39.99251" lon="15.7164967"><ele>276.0</ele><time>2026-05-03T09:50:57.482Z</time></trkpt><trkpt lat="39.9925683" lon="15.716675"><ele>265.6666666666667</ele><time>2026-05-03T09:50:58.483Z</time></trkpt><trkpt lat="39.9926283" lon="15.7168683"><ele>255.33333333333334</ele><time>2026-05-03T09:50:59.482Z</time></trkpt><trkpt lat="39.99269" lon="15.7170733"><ele>245.0</ele><time>2026-05-03T09:51:00.482Z</time></trkpt><trkpt lat="39.992745" lon="15.7172817"><ele>245.0</ele><time>2026-05-03T09:51:01.484Z</time></trkpt><trkpt lat="39.9928133" lon="15.717475"><ele>245.0</ele><time>2026-05-03T09:51:02.484Z</time></trkpt><trkpt lat="39.992875" lon="15.71765"><ele>245.0</ele><time>2026-05-03T09:51:03.482Z</time></trkpt><trkpt lat="39.992925" lon="15.717805"><ele>245.0</ele><time>2026-05-03T09:51:04.483Z</time></trkpt><trkpt lat="39.9929633" lon="15.7179367"><ele>247.83333333333334</ele><time>2026-05-03T09:51:05.483Z</time></trkpt><trkpt lat="39.9929867" lon="15.7180333"><ele>250.66666666666669</ele><time>2026-05-03T09:51:06.482Z</time></trkpt><trkpt lat="39.9929933" lon="15.7181583"><ele>253.5</ele><time>2026-05-03T09:51:08.483Z</time></trkpt><trkpt lat="39.9929267" lon="15.7182017"><ele>256.3333333333333</ele><time>2026-05-03T09:51:10.482Z</time></trkpt><trkpt lat="39.992865" lon="15.7181317"><ele>259.16666666666663</ele><time>2026-05-03T09:51:11.483Z</time></trkpt><trkpt lat="39.9928383" lon="15.718035"><ele>262.0</ele><time>2026-05-03T09:51:12.483Z</time></trkpt><trkpt lat="39.9928217" lon="15.7179417"><ele>262.0</ele><time>2026-05-03T09:51:13.484Z</time></trkpt><trkpt lat="39.9927783" lon="15.71777"><ele>262.0</ele><time>2026-05-03T09:51:14.482Z</time></trkpt><trkpt lat="39.9927217" lon="15.717625"><ele>262.0</ele><time>2026-05-03T09:51:15.482Z</time></trkpt><trkpt lat="39.9926367" lon="15.717455"><ele>262.0</ele><time>2026-05-03T09:51:16.483Z</time></trkpt><trkpt lat="39.9925467" lon="15.7172667"><ele>266.66666666666663</ele><time>2026-05-03T09:51:17.483Z</time></trkpt><trkpt lat="39.992455" lon="15.7170617"><ele>271.3333333333333</ele><time>2026-05-03T09:51:18.483Z</time></trkpt><trkpt lat="39.99236" lon="15.7168533"><ele>276.0</ele><time>2026-05-03T09:51:19.483Z</time></trkpt><trkpt lat="39.992275" lon="15.71666"><ele>276.0</ele><time>2026-05-03T09:51:20.483Z</time></trkpt><trkpt lat="39.9922133" lon="15.7164983"><ele>276.0</ele><time>2026-05-03T09:51:21.482Z</time></trkpt><trkpt lat="39.9921767" lon="15.7163717"><ele>276.0</ele><time>2026-05-03T09:51:22.482Z</time></trkpt><trkpt lat="39.9921533" lon="15.7162767"><ele>276.0</ele><time>2026-05-03T09:51:23.482Z</time></trkpt><trkpt lat="39.9920717" lon="15.7161833"><ele>276.0</ele><time>2026-05-03T09:51:25.483Z</time></trkpt><trkpt lat="39.9919933" lon="15.716245"><ele>276.0</ele><time>2026-05-03T09:51:27.483Z</time></trkpt><trkpt lat="39.9919817" lon="15.7163267"><ele>276.0</ele><time>2026-05-03T09:51:28.483Z</time></trkpt><trkpt lat="39.9920033" lon="15.7164333"><ele>276.0</ele><time>2026-05-03T09:51:29.483Z</time></trkpt><trkpt lat="39.9920683" lon="15.7165567"><ele>276.0</ele><time>2026-05-03T09:51:30.482Z</time></trkpt><trkpt lat="39.992135" lon="15.7167033"><ele>276.0</ele><time>2026-05-03T09:51:31.483Z</time></trkpt><trkpt lat="39.9921983" lon="15.7168817"><ele>281.0</ele><time>2026-05-03T09:51:32.483Z</time></trkpt><trkpt lat="39.99224" lon="15.7170867"><ele>286.0</ele><time>2026-05-03T09:51:33.482Z</time></trkpt><trkpt lat="39.9922817" lon="15.7172867"><ele>291.0</ele><time>2026-05-03T09:51:34.482Z</time></trkpt><trkpt lat="39.9923433" lon="15.7174633"><ele>291.0</ele><time>2026-05-03T09:51:35.482Z</time></trkpt><trkpt lat="39.99241" lon="15.7176183"><ele>291.0</ele><time>2026-05-03T09:51:36.483Z</time></trkpt><trkpt lat="39.9924817" lon="15.7177417"><ele>291.0</ele><time>2026-05-03T09:51:37.483Z</time></trkpt><trkpt lat="39.9925367" lon="15.7178367"><ele>291.0</ele><time>2026-05-03T09:51:38.483Z</time></trkpt><trkpt lat="39.9925667" lon="15.7179233"><ele>291.0</ele><time>2026-05-03T09:51:39.482Z</time></trkpt><trkpt lat="39.99251" lon="15.7180217"><ele>291.0</ele><time>2026-05-03T09:51:41.482Z</time></trkpt><trkpt lat="39.9923933" lon="15.7179367"><ele>291.0</ele><time>2026-05-03T09:51:43.483Z</time></trkpt><trkpt lat="39.992335" lon="15.7178017"><ele>291.0</ele><time>2026-05-03T09:51:44.483Z</time></trkpt><trkpt lat="39.99226" lon="15.7176333"><ele>291.0</ele><time>2026-05-03T09:51:45.482Z</time></trkpt><trkpt lat="39.9921733" lon="15.7174483"><ele>291.0</ele><time>2026-05-03T09:51:46.483Z</time></trkpt><trkpt lat="39.99208" lon="15.7172383"><ele>291.0</ele><time>2026-05-03T09:51:47.482Z</time></trkpt><trkpt lat="39.9919783" lon="15.7170167"><ele>291.0</ele><time>2026-05-03T09:51:48.482Z</time></trkpt><trkpt lat="39.9918767" lon="15.7167967"><ele>286.0</ele><time>2026-05-03T09:51:49.483Z</time></trkpt><trkpt lat="39.9917583" lon="15.71657"><ele>281.0</ele><time>2026-05-03T09:51:50.483Z</time></trkpt><trkpt lat="39.991645" lon="15.71633"><ele>276.0</ele><time>2026-05-03T09:51:51.482Z</time></trkpt><trkpt lat="39.991545" lon="15.71611"><ele>283.0</ele><time>2026-05-03T09:51:52.483Z</time></trkpt><trkpt lat="39.99146" lon="15.7159233"><ele>290.0</ele><time>2026-05-03T09:51:53.483Z</time></trkpt><trkpt lat="39.9913917" lon="15.71577"><ele>297.0</ele><time>2026-05-03T09:51:54.482Z</time></trkpt><trkpt lat="39.9913283" lon="15.7156533"><ele>304.0</ele><time>2026-05-03T09:51:55.483Z</time></trkpt><trkpt lat="39.99126" lon="15.7155833"><ele>304.0</ele><time>2026-05-03T09:51:56.484Z</time></trkpt><trkpt lat="39.99119" lon="15.7155417"><ele>304.0</ele><time>2026-05-03T09:51:57.487Z</time></trkpt><trkpt lat="39.9911283" lon="15.7155667"><ele>304.0</ele><time>2026-05-03T09:51:58.482Z</time></trkpt><trkpt lat="39.9910967" lon="15.7156467"><ele>304.0</ele><time>2026-05-03T09:51:59.483Z</time></trkpt><trkpt lat="39.99111" lon="15.715745"><ele>304.0</ele><time>2026-05-03T09:52:00.483Z</time></trkpt><trkpt lat="39.9911417" lon="15.7158417"><ele>304.0</ele><time>2026-05-03T09:52:01.482Z</time></trkpt><trkpt lat="39.9912017" lon="15.7159283"><ele>304.0</ele><time>2026-05-03T09:52:02.482Z</time></trkpt><trkpt lat="39.99127" lon="15.7160167"><ele>304.0</ele><time>2026-05-03T09:52:03.482Z</time></trkpt><trkpt lat="39.99137" lon="15.7161617"><ele>304.0</ele><time>2026-05-03T09:52:04.482Z</time></trkpt><trkpt lat="39.991435" lon="15.7163317"><ele>304.0</ele><time>2026-05-03T09:52:05.483Z</time></trkpt><trkpt lat="39.99149" lon="15.716525"><ele>299.66666666666663</ele><time>2026-05-03T09:52:06.483Z</time></trkpt><trkpt lat="39.9915467" lon="15.7167433"><ele>295.3333333333333</ele><time>2026-05-03T09:52:07.482Z</time></trkpt><trkpt lat="39.9916067" lon="15.716965"><ele>291.0</ele><time>2026-05-03T09:52:08.482Z</time></trkpt><trkpt lat="39.99169" lon="15.7171867"><ele>291.0</ele><time>2026-05-03T09:52:09.482Z</time></trkpt><trkpt lat="39.991745" lon="15.717415"><ele>291.0</ele><time>2026-05-03T09:52:10.482Z</time></trkpt><trkpt lat="39.9917883" lon="15.717635"><ele>291.0</ele><time>2026-05-03T09:52:11.483Z</time></trkpt><trkpt lat="39.9918417" lon="15.717815"><ele>294.6</ele><time>2026-05-03T09:52:12.483Z</time></trkpt><trkpt lat="39.991905" lon="15.7179683"><ele>298.20000000000005</ele><time>2026-05-03T09:52:13.483Z</time></trkpt><trkpt lat="39.9919733" lon="15.718085"><ele>301.79999999999995</ele><time>2026-05-03T09:52:14.483Z</time></trkpt><trkpt lat="39.9920367" lon="15.718185"><ele>305.4</ele><time>2026-05-03T09:52:15.483Z</time></trkpt><trkpt lat="39.9920783" lon="15.71828"><ele>309.0</ele><time>2026-05-03T09:52:16.482Z</time></trkpt><trkpt lat="39.9920817" lon="15.718365"><ele>309.0</ele><time>2026-05-03T09:52:17.483Z</time></trkpt><trkpt lat="39.992" lon="15.7184083"><ele>309.0</ele><time>2026-05-03T09:52:19.482Z</time></trkpt><trkpt lat="39.9919367" lon="15.7183683"><ele>309.0</ele><time>2026-05-03T09:52:20.483Z</time></trkpt><trkpt lat="39.9918833" lon="15.718295"><ele>309.0</ele><time>2026-05-03T09:52:21.483Z</time></trkpt><trkpt lat="39.9918517" lon="15.7181433"><ele>309.0</ele><time>2026-05-03T09:52:22.483Z</time></trkpt><trkpt lat="39.9917833" lon="15.71797"><ele>309.0</ele><time>2026-05-03T09:52:23.483Z</time></trkpt><trkpt lat="39.9916967" lon="15.7177883"><ele>309.0</ele><time>2026-05-03T09:52:24.483Z</time></trkpt><trkpt lat="39.9915867" lon="15.7176017"><ele>309.0</ele><time>2026-05-03T09:52:25.483Z</time></trkpt><trkpt lat="39.99148" lon="15.7174167"><ele>311.79999999999995</ele><time>2026-05-03T09:52:26.483Z</time></trkpt><trkpt lat="39.991405" lon="15.7172517"><ele>314.59999999999997</ele><time>2026-05-03T09:52:27.483Z</time></trkpt><trkpt lat="39.9913533" lon="15.7171033"><ele>317.4</ele><time>2026-05-03T09:52:28.483Z</time></trkpt><trkpt lat="39.9913267" lon="15.7169867"><ele>320.2</ele><time>2026-05-03T09:52:29.482Z</time></trkpt><trkpt lat="39.9912983" lon="15.7168983"><ele>323.0</ele><time>2026-05-03T09:52:30.483Z</time></trkpt><trkpt lat="39.9912033" lon="15.7168317"><ele>328.0</ele><time>2026-05-03T09:52:32.483Z</time></trkpt><trkpt lat="39.9911333" lon="15.71694"><ele>333.0</ele><time>2026-05-03T09:52:34.483Z</time></trkpt><trkpt lat="39.9911617" lon="15.7170217"><ele>338.0</ele><time>2026-05-03T09:52:35.483Z</time></trkpt><trkpt lat="39.99121" lon="15.7171117"><ele>343.0</ele><time>2026-05-03T09:52:36.483Z</time></trkpt><trkpt lat="39.991275" lon="15.717215"><ele>348.0</ele><time>2026-05-03T09:52:37.484Z</time></trkpt><trkpt lat="39.9913383" lon="15.71734"><ele>348.0</ele><time>2026-05-03T09:52:38.484Z</time></trkpt><trkpt lat="39.9913933" lon="15.7174967"><ele>348.0</ele><time>2026-05-03T09:52:39.482Z</time></trkpt><trkpt lat="39.9914383" lon="15.71766"><ele>348.0</ele><time>2026-05-03T09:52:40.483Z</time></trkpt><trkpt lat="39.9914883" lon="15.7178333"><ele>348.0</ele><time>2026-05-03T09:52:41.482Z</time></trkpt><trkpt lat="39.9915567" lon="15.7180133"><ele>350.59999999999997</ele><time>2026-05-03T09:52:42.482Z</time></trkpt><trkpt lat="39.99162" lon="15.718195"><ele>353.2</ele><time>2026-05-03T09:52:43.483Z</time></trkpt><trkpt lat="39.9916583" lon="15.718325"><ele>355.8</ele><time>2026-05-03T09:52:44.483Z</time></trkpt><trkpt lat="39.9916983" lon="15.7184233"><ele>358.4</ele><time>2026-05-03T09:52:45.484Z</time></trkpt><trkpt lat="39.9917383" lon="15.7185167"><ele>361.0</ele><time>2026-05-03T09:52:46.482Z</time></trkpt><trkpt lat="39.99179" lon="15.7186033"><ele>363.0</ele><time>2026-05-03T09:52:47.484Z</time></trkpt><trkpt lat="39.9918333" lon="15.7186767"><ele>365.0</ele><time>2026-05-03T09:52:48.483Z</time></trkpt><trkpt lat="39.991845" lon="15.718815"><ele>367.0</ele><time>2026-05-03T09:52:50.482Z</time></trkpt><trkpt lat="39.99178" lon="15.7188483"><ele>369.0</ele><time>2026-05-03T09:52:51.483Z</time></trkpt><trkpt lat="39.9917133" lon="15.7188183"><ele>371.0</ele><time>2026-05-03T09:52:52.483Z</time></trkpt><trkpt lat="39.9916483" lon="15.7187433"><ele>373.0</ele><time>2026-05-03T09:52:53.483Z</time></trkpt><trkpt lat="39.99159" lon="15.7186567"><ele>370.0</ele><time>2026-05-03T09:52:54.483Z</time></trkpt><trkpt lat="39.9915583" lon="15.7185233"><ele>367.0</ele><time>2026-05-03T09:52:55.481Z</time></trkpt><trkpt lat="39.99152" lon="15.7183583"><ele>364.0</ele><time>2026-05-03T09:52:56.483Z</time></trkpt><trkpt lat="39.9914617" lon="15.7181983"><ele>361.0</ele><time>2026-05-03T09:52:57.482Z</time></trkpt><trkpt lat="39.9913883" lon="15.7180067"><ele>361.0</ele><time>2026-05-03T09:52:58.483Z</time></trkpt><trkpt lat="39.991305" lon="15.7178233"><ele>361.0</ele><time>2026-05-03T09:52:59.483Z</time></trkpt><trkpt lat="39.991215" lon="15.7176533"><ele>361.0</ele><time>2026-05-03T09:53:00.483Z</time></trkpt><trkpt lat="39.9911317" lon="15.7175167"><ele>357.75</ele><time>2026-05-03T09:53:01.483Z</time></trkpt><trkpt lat="39.9910517" lon="15.7174033"><ele>354.5</ele><time>2026-05-03T09:53:02.483Z</time></trkpt><trkpt lat="39.99095" lon="15.7173317"><ele>351.25</ele><time>2026-05-03T09:53:03.483Z</time></trkpt><trkpt lat="39.9908367" lon="15.71729"><ele>348.0</ele><time>2026-05-03T09:53:04.483Z</time></trkpt><trkpt lat="39.990705" lon="15.7172667"><ele>357.6666666666667</ele><time>2026-05-03T09:53:05.484Z</time></trkpt><trkpt lat="39.9905533" lon="15.7172667"><ele>367.33333333333337</ele><time>2026-05-03T09:53:06.483Z</time></trkpt><trkpt lat="39.9903967" lon="15.7172783"><ele>377.0</ele><time>2026-05-03T09:53:07.482Z</time></trkpt><trkpt lat="39.9902417" lon="15.7172933"><ele>377.0</ele><time>2026-05-03T09:53:08.483Z</time></trkpt><trkpt lat="39.9900917" lon="15.717295"><ele>377.0</ele><time>2026-05-03T09:53:09.483Z</time></trkpt><trkpt lat="39.9899467" lon="15.717275"><ele>377.0</ele><time>2026-05-03T09:53:10.483Z</time></trkpt><trkpt lat="39.9898167" lon="15.7172367"><ele>377.0</ele><time>2026-05-03T09:53:11.483Z</time></trkpt><trkpt lat="39.9896933" lon="15.7172017"><ele>380.5</ele><time>2026-05-03T09:53:12.482Z</time></trkpt><trkpt lat="39.989575" lon="15.71719"><ele>384.0</ele><time>2026-05-03T09:53:13.483Z</time></trkpt><trkpt lat="39.98946" lon="15.7172233"><ele>387.5</ele><time>2026-05-03T09:53:14.483Z</time></trkpt><trkpt lat="39.9893383" lon="15.7172917"><ele>391.0</ele><time>2026-05-03T09:53:15.482Z</time></trkpt><trkpt lat="39.9892083" lon="15.7173883"><ele>389.33333333333337</ele><time>2026-05-03T09:53:16.482Z</time></trkpt><trkpt lat="39.98907" lon="15.7174883"><ele>387.66666666666663</ele><time>2026-05-03T09:53:17.483Z</time></trkpt><trkpt lat="39.98892" lon="15.7175817"><ele>386.0</ele><time>2026-05-03T09:53:18.482Z</time></trkpt><trkpt lat="39.988765" lon="15.7176633"><ele>386.0</ele><time>2026-05-03T09:53:19.484Z</time></trkpt><trkpt lat="39.9886083" lon="15.7177283"><ele>386.0</ele><time>2026-05-03T09:53:20.484Z</time></trkpt><trkpt lat="39.9884617" lon="15.7177783"><ele>386.0</ele><time>2026-05-03T09:53:21.483Z</time></trkpt><trkpt lat="39.9883183" lon="15.717815"><ele>395.5</ele><time>2026-05-03T09:53:22.482Z</time></trkpt><trkpt lat="39.9881717" lon="15.71785"><ele>405.0</ele><time>2026-05-03T09:53:23.483Z</time></trkpt><trkpt lat="39.988025" lon="15.7178817"><ele>414.5</ele><time>2026-05-03T09:53:24.481Z</time></trkpt><trkpt lat="39.98788" lon="15.71792"><ele>424.0</ele><time>2026-05-03T09:53:25.482Z</time></trkpt><trkpt lat="39.9877383" lon="15.717955"><ele>424.0</ele><time>2026-05-03T09:53:26.488Z</time></trkpt><trkpt lat="39.9876033" lon="15.717985"><ele>424.0</ele><time>2026-05-03T09:53:27.483Z</time></trkpt><trkpt lat="39.9874767" lon="15.71801"><ele>424.0</ele><time>2026-05-03T09:53:28.482Z</time></trkpt><trkpt lat="39.9873583" lon="15.7180283"><ele>424.0</ele><time>2026-05-03T09:53:29.482Z</time></trkpt><trkpt lat="39.9872467" lon="15.7180267"><ele>424.75</ele><time>2026-05-03T09:53:30.482Z</time></trkpt><trkpt lat="39.9871317" lon="15.7180033"><ele>425.5</ele><time>2026-05-03T09:53:31.483Z</time></trkpt><trkpt lat="39.98702" lon="15.7179917"><ele>426.25</ele><time>2026-05-03T09:53:32.484Z</time></trkpt><trkpt lat="39.98691" lon="15.7180117"><ele>427.0</ele><time>2026-05-03T09:53:33.483Z</time></trkpt><trkpt lat="39.9868067" lon="15.7180667"><ele>427.00000000000006</ele><time>2026-05-03T09:53:34.482Z</time></trkpt><trkpt lat="39.9867267" lon="15.71816"><ele>427.0</ele><time>2026-05-03T09:53:35.483Z</time></trkpt><trkpt lat="39.9866717" lon="15.7182567"><ele>427.0</ele><time>2026-05-03T09:53:36.484Z</time></trkpt><trkpt lat="39.9866367" lon="15.7183467"><ele>427.0</ele><time>2026-05-03T09:53:37.483Z</time></trkpt><trkpt lat="39.98661" lon="15.7184333"><ele>427.00000000000006</ele><time>2026-05-03T09:53:38.484Z</time></trkpt><trkpt lat="39.9865783" lon="15.7185133"><ele>427.0</ele><time>2026-05-03T09:53:39.483Z</time></trkpt><trkpt lat="39.9865417" lon="15.7185933"><ele>428.50000000000006</ele><time>2026-05-03T09:53:40.482Z</time></trkpt><trkpt lat="39.9865" lon="15.71866"><ele>430.0</ele><time>2026-05-03T09:53:41.482Z</time></trkpt><trkpt lat="39.9864383" lon="15.7187583"><ele>431.5</ele><time>2026-05-03T09:53:43.483Z</time></trkpt><trkpt lat="39.9863933" lon="15.7188383"><ele>433.0</ele><time>2026-05-03T09:53:45.483Z</time></trkpt><trkpt lat="39.9863383" lon="15.7189167"><ele>434.50000000000006</ele><time>2026-05-03T09:53:47.483Z</time></trkpt><trkpt lat="39.9862883" lon="15.71899"><ele>436.0</ele><time>2026-05-03T09:53:49.484Z</time></trkpt><trkpt lat="39.98621" lon="15.7190833"><ele>436.00000000000006</ele><time>2026-05-03T09:53:51.484Z</time></trkpt><trkpt lat="39.9861667" lon="15.7191483"><ele>436.0</ele><time>2026-05-03T09:53:52.484Z</time></trkpt><trkpt lat="39.9861217" lon="15.719225"><ele>436.0</ele><time>2026-05-03T09:53:53.483Z</time></trkpt><trkpt lat="39.986085" lon="15.71932"><ele>436.0</ele><time>2026-05-03T09:53:54.483Z</time></trkpt><trkpt lat="39.98605" lon="15.7194267"><ele>436.00000000000006</ele><time>2026-05-03T09:53:55.485Z</time></trkpt><trkpt lat="39.9860167" lon="15.7195467"><ele>436.0</ele><time>2026-05-03T09:53:56.484Z</time></trkpt><trkpt lat="39.985985" lon="15.71967"><ele>441.4</ele><time>2026-05-03T09:53:57.483Z</time></trkpt><trkpt lat="39.985955" lon="15.7197933"><ele>446.8</ele><time>2026-05-03T09:53:58.484Z</time></trkpt><trkpt lat="39.9859283" lon="15.71992"><ele>452.19999999999993</ele><time>2026-05-03T09:53:59.483Z</time></trkpt><trkpt lat="39.9859083" lon="15.7200517"><ele>457.59999999999997</ele><time>2026-05-03T09:54:00.484Z</time></trkpt><trkpt lat="39.9858933" lon="15.7201817"><ele>463.0</ele><time>2026-05-03T09:54:01.484Z</time></trkpt><trkpt lat="39.98588" lon="15.72031"><ele>466.2</ele><time>2026-05-03T09:54:02.484Z</time></trkpt><trkpt lat="39.9858633" lon="15.7204333"><ele>469.4</ele><time>2026-05-03T09:54:03.484Z</time></trkpt><trkpt lat="39.985845" lon="15.7205533"><ele>472.59999999999997</ele><time>2026-05-03T09:54:04.483Z</time></trkpt><trkpt lat="39.98583" lon="15.7206717"><ele>475.79999999999995</ele><time>2026-05-03T09:54:05.484Z</time></trkpt><trkpt lat="39.985815" lon="15.72079"><ele>479.0</ele><time>2026-05-03T09:54:06.484Z</time></trkpt><trkpt lat="39.9858017" lon="15.72091"><ele>469.6</ele><time>2026-05-03T09:54:07.484Z</time></trkpt><trkpt lat="39.9857867" lon="15.7210333"><ele>460.2</ele><time>2026-05-03T09:54:08.484Z</time></trkpt><trkpt lat="39.9857767" lon="15.7211567"><ele>450.80000000000007</ele><time>2026-05-03T09:54:09.485Z</time></trkpt><trkpt lat="39.9857717" lon="15.7212833"><ele>441.40000000000003</ele><time>2026-05-03T09:54:10.483Z</time></trkpt><trkpt lat="39.985765" lon="15.7214133"><ele>432.0</ele><time>2026-05-03T09:54:11.483Z</time></trkpt><trkpt lat="39.9857583" lon="15.7215433"><ele>432.0</ele><time>2026-05-03T09:54:12.484Z</time></trkpt><trkpt lat="39.9857433" lon="15.7216767"><ele>432.00000000000006</ele><time>2026-05-03T09:54:13.483Z</time></trkpt><trkpt lat="39.9857133" lon="15.7218133"><ele>432.00000000000006</ele><time>2026-05-03T09:54:14.485Z</time></trkpt><trkpt lat="39.9856817" lon="15.7219467"><ele>432.0</ele><time>2026-05-03T09:54:15.482Z</time></trkpt><trkpt lat="39.9856383" lon="15.7221033"><ele>432.0</ele><time>2026-05-03T09:54:16.481Z</time></trkpt><trkpt lat="39.9855983" lon="15.72228"><ele>436.66666666666663</ele><time>2026-05-03T09:54:17.482Z</time></trkpt><trkpt lat="39.9855483" lon="15.72247"><ele>441.3333333333333</ele><time>2026-05-03T09:54:18.482Z</time></trkpt><trkpt lat="39.9855" lon="15.722665"><ele>446.0</ele><time>2026-05-03T09:54:19.482Z</time></trkpt><trkpt lat="39.9854483" lon="15.7228583"><ele>452.0</ele><time>2026-05-03T09:54:20.482Z</time></trkpt><trkpt lat="39.985395" lon="15.7230517"><ele>458.0</ele><time>2026-05-03T09:54:21.481Z</time></trkpt><trkpt lat="39.9853433" lon="15.7232517"><ele>464.0</ele><time>2026-05-03T09:54:22.481Z</time></trkpt><trkpt lat="39.9852933" lon="15.7234367"><ele>460.75</ele><time>2026-05-03T09:54:23.483Z</time></trkpt><trkpt lat="39.9852317" lon="15.7235983"><ele>457.5</ele><time>2026-05-03T09:54:24.483Z</time></trkpt><trkpt lat="39.9851617" lon="15.7237417"><ele>454.25</ele><time>2026-05-03T09:54:25.484Z</time></trkpt><trkpt lat="39.9850617" lon="15.72386"><ele>451.0</ele><time>2026-05-03T09:54:26.482Z</time></trkpt><trkpt lat="39.9849483" lon="15.7239667"><ele>451.0</ele><time>2026-05-03T09:54:27.483Z</time></trkpt><trkpt lat="39.9848367" lon="15.7240667"><ele>451.0</ele><time>2026-05-03T09:54:28.483Z</time></trkpt><trkpt lat="39.9847433" lon="15.7241733"><ele>451.0</ele><time>2026-05-03T09:54:29.487Z</time></trkpt><trkpt lat="39.9846717" lon="15.7242867"><ele>451.0</ele><time>2026-05-03T09:54:30.484Z</time></trkpt><trkpt lat="39.9846367" lon="15.724425"><ele>453.75</ele><time>2026-05-03T09:54:31.482Z</time></trkpt><trkpt lat="39.984625" lon="15.7245883"><ele>456.5</ele><time>2026-05-03T09:54:32.483Z</time></trkpt><trkpt lat="39.984635" lon="15.7247783"><ele>459.25</ele><time>2026-05-03T09:54:33.483Z</time></trkpt><trkpt lat="39.9846567" lon="15.7249867"><ele>462.0</ele><time>2026-05-03T09:54:34.483Z</time></trkpt><trkpt lat="39.984695" lon="15.7251983"><ele>462.0</ele><time>2026-05-03T09:54:35.483Z</time></trkpt><trkpt lat="39.9847217" lon="15.7254167"><ele>462.0</ele><time>2026-05-03T09:54:36.483Z</time></trkpt><trkpt lat="39.9847517" lon="15.72563"><ele>462.0</ele><time>2026-05-03T09:54:37.482Z</time></trkpt><trkpt lat="39.9847867" lon="15.72582"><ele>462.0</ele><time>2026-05-03T09:54:38.482Z</time></trkpt><trkpt lat="39.9848333" lon="15.7260017"><ele>462.0</ele><time>2026-05-03T09:54:39.483Z</time></trkpt><trkpt lat="39.9848983" lon="15.7261567"><ele>462.0</ele><time>2026-05-03T09:54:40.482Z</time></trkpt><trkpt lat="39.9849667" lon="15.7263117"><ele>462.0</ele><time>2026-05-03T09:54:41.483Z</time></trkpt><trkpt lat="39.98502" lon="15.7264817"><ele>462.0</ele><time>2026-05-03T09:54:42.483Z</time></trkpt><trkpt lat="39.9850467" lon="15.7266667"><ele>462.0</ele><time>2026-05-03T09:54:43.483Z</time></trkpt><trkpt lat="39.98505" lon="15.7268533"><ele>462.0</ele><time>2026-05-03T09:54:44.482Z</time></trkpt><trkpt lat="39.9850283" lon="15.7270417"><ele>462.0</ele><time>2026-05-03T09:54:45.482Z</time></trkpt><trkpt lat="39.9849933" lon="15.72722"><ele>462.0</ele><time>2026-05-03T09:54:46.483Z</time></trkpt><trkpt lat="39.9849583" lon="15.7273833"><ele>462.00000000000006</ele><time>2026-05-03T09:54:47.483Z</time></trkpt><trkpt lat="39.9849433" lon="15.727525"><ele>462.00000000000006</ele><time>2026-05-03T09:54:48.482Z</time></trkpt><trkpt lat="39.98496" lon="15.7276467"><ele>462.0</ele><time>2026-05-03T09:54:49.484Z</time></trkpt><trkpt lat="39.98501" lon="15.7277483"><ele>462.0</ele><time>2026-05-03T09:54:50.483Z</time></trkpt><trkpt lat="39.9850917" lon="15.7278467"><ele>464.0</ele><time>2026-05-03T09:54:51.482Z</time></trkpt><trkpt lat="39.9851967" lon="15.7279333"><ele>466.0</ele><time>2026-05-03T09:54:52.481Z</time></trkpt><trkpt lat="39.98532" lon="15.7279933"><ele>468.0</ele><time>2026-05-03T09:54:53.484Z</time></trkpt><trkpt lat="39.98545" lon="15.728015"><ele>470.0</ele><time>2026-05-03T09:54:54.483Z</time></trkpt><trkpt lat="39.9855817" lon="15.7280167"><ele>470.0</ele><time>2026-05-03T09:54:55.482Z</time></trkpt><trkpt lat="39.9857383" lon="15.7280383"><ele>470.0</ele><time>2026-05-03T09:54:56.482Z</time></trkpt><trkpt lat="39.9858583" lon="15.728045"><ele>470.0</ele><time>2026-05-03T09:54:57.482Z</time></trkpt><trkpt lat="39.985935" lon="15.7281283"><ele>470.0</ele><time>2026-05-03T09:54:58.482Z</time></trkpt><trkpt lat="39.9859967" lon="15.72822"><ele>475.75</ele><time>2026-05-03T09:54:59.483Z</time></trkpt><trkpt lat="39.9860333" lon="15.7283533"><ele>481.5</ele><time>2026-05-03T09:55:00.482Z</time></trkpt><trkpt lat="39.986035" lon="15.728495"><ele>487.25</ele><time>2026-05-03T09:55:01.483Z</time></trkpt><trkpt lat="39.986" lon="15.72864"><ele>493.0</ele><time>2026-05-03T09:55:02.482Z</time></trkpt><trkpt lat="39.9859483" lon="15.7287783"><ele>494.0</ele><time>2026-05-03T09:55:03.483Z</time></trkpt><trkpt lat="39.9859" lon="15.728905"><ele>494.99999999999994</ele><time>2026-05-03T09:55:04.483Z</time></trkpt><trkpt lat="39.9858617" lon="15.7290383"><ele>495.99999999999994</ele><time>2026-05-03T09:55:05.484Z</time></trkpt><trkpt lat="39.9858217" lon="15.7291717"><ele>497.0</ele><time>2026-05-03T09:55:06.483Z</time></trkpt><trkpt lat="39.9857833" lon="15.7292983"><ele>498.0</ele><time>2026-05-03T09:55:07.483Z</time></trkpt><trkpt lat="39.9857517" lon="15.7294217"><ele>497.2</ele><time>2026-05-03T09:55:08.482Z</time></trkpt><trkpt lat="39.985735" lon="15.72955"><ele>496.4</ele><time>2026-05-03T09:55:09.483Z</time></trkpt><trkpt lat="39.9857417" lon="15.7296833"><ele>495.59999999999997</ele><time>2026-05-03T09:55:10.483Z</time></trkpt><trkpt lat="39.9857733" lon="15.7298183"><ele>494.79999999999995</ele><time>2026-05-03T09:55:11.483Z</time></trkpt><trkpt lat="39.9858283" lon="15.7299483"><ele>494.0</ele><time>2026-05-03T09:55:12.483Z</time></trkpt><trkpt lat="39.9859083" lon="15.7300717"><ele>494.0</ele><time>2026-05-03T09:55:13.483Z</time></trkpt><trkpt lat="39.9860033" lon="15.7301833"><ele>494.0</ele><time>2026-05-03T09:55:14.484Z</time></trkpt><trkpt lat="39.9860983" lon="15.7302967"><ele>494.0</ele><time>2026-05-03T09:55:15.483Z</time></trkpt><trkpt lat="39.9861933" lon="15.7304333"><ele>494.0</ele><time>2026-05-03T09:55:16.483Z</time></trkpt><trkpt lat="39.9863617" lon="15.7305633"><ele>493.49999999999994</ele><time>2026-05-03T09:55:17.483Z</time></trkpt><trkpt lat="39.9864533" lon="15.7306483"><ele>493.0</ele><time>2026-05-03T09:55:18.482Z</time></trkpt><trkpt lat="39.9865267" lon="15.7307183"><ele>492.5</ele><time>2026-05-03T09:55:19.483Z</time></trkpt><trkpt lat="39.9865967" lon="15.7307767"><ele>492.0</ele><time>2026-05-03T09:55:20.482Z</time></trkpt><trkpt lat="39.9866617" lon="15.7308333"><ele>491.49999999999994</ele><time>2026-05-03T09:55:21.482Z</time></trkpt><trkpt lat="39.9867183" lon="15.7308833"><ele>491.0</ele><time>2026-05-03T09:55:22.482Z</time></trkpt><trkpt lat="39.9867983" lon="15.7309533"><ele>490.99999999999994</ele><time>2026-05-03T09:55:24.483Z</time></trkpt><trkpt lat="39.9868567" lon="15.7310117"><ele>491.0</ele><time>2026-05-03T09:55:26.484Z</time></trkpt><trkpt lat="39.98692" lon="15.7310583"><ele>491.0</ele><time>2026-05-03T09:55:28.483Z</time></trkpt><trkpt lat="39.98699" lon="15.7310433"><ele>491.0</ele><time>2026-05-03T09:55:30.482Z</time></trkpt><trkpt lat="39.9870483" lon="15.7309183"><ele>490.99999999999994</ele><time>2026-05-03T09:55:32.483Z</time></trkpt><trkpt lat="39.9870967" lon="15.7308067"><ele>491.0</ele><time>2026-05-03T09:55:33.482Z</time></trkpt><trkpt lat="39.9870783" lon="15.73067"><ele>491.0</ele><time>2026-05-03T09:55:34.484Z</time></trkpt><trkpt lat="39.9870533" lon="15.7305267"><ele>491.0</ele><time>2026-05-03T09:55:35.483Z</time></trkpt><trkpt lat="39.9870583" lon="15.7304117"><ele>491.0</ele><time>2026-05-03T09:55:36.483Z</time></trkpt><trkpt lat="39.9870667" lon="15.7302917"><ele>491.0</ele><time>2026-05-03T09:55:37.483Z</time></trkpt><trkpt lat="39.98708" lon="15.7301633"><ele>491.0</ele><time>2026-05-03T09:55:38.484Z</time></trkpt><trkpt lat="39.9870967" lon="15.73003"><ele>492.20000000000005</ele><time>2026-05-03T09:55:39.483Z</time></trkpt><trkpt lat="39.9870967" lon="15.7299033"><ele>493.40000000000003</ele><time>2026-05-03T09:55:40.483Z</time></trkpt><trkpt lat="39.9870883" lon="15.72978"><ele>494.6</ele><time>2026-05-03T09:55:41.484Z</time></trkpt><trkpt lat="39.9870683" lon="15.7296617"><ele>495.8</ele><time>2026-05-03T09:55:42.482Z</time></trkpt><trkpt lat="39.9870367" lon="15.7295483"><ele>497.0</ele><time>2026-05-03T09:55:43.483Z</time></trkpt><trkpt lat="39.98701" lon="15.7294317"><ele>498.0</ele><time>2026-05-03T09:55:44.483Z</time></trkpt><trkpt lat="39.9869817" lon="15.7293133"><ele>499.00000000000006</ele><time>2026-05-03T09:55:45.483Z</time></trkpt><trkpt lat="39.98696" lon="15.7291933"><ele>500.00000000000006</ele><time>2026-05-03T09:55:46.481Z</time></trkpt><trkpt lat="39.9869517" lon="15.729065"><ele>501.0</ele><time>2026-05-03T09:55:47.482Z</time></trkpt><trkpt lat="39.9869517" lon="15.7289333"><ele>502.0</ele><time>2026-05-03T09:55:48.483Z</time></trkpt><trkpt lat="39.986975" lon="15.7288"><ele>502.0</ele><time>2026-05-03T09:55:49.483Z</time></trkpt><trkpt lat="39.987" lon="15.728665"><ele>502.00000000000006</ele><time>2026-05-03T09:55:50.484Z</time></trkpt><trkpt lat="39.98702" lon="15.7285267"><ele>502.00000000000006</ele><time>2026-05-03T09:55:51.483Z</time></trkpt><trkpt lat="39.987035" lon="15.7283833"><ele>502.0</ele><time>2026-05-03T09:55:52.484Z</time></trkpt><trkpt lat="39.98704" lon="15.7282367"><ele>502.0</ele><time>2026-05-03T09:55:53.483Z</time></trkpt><trkpt lat="39.9870317" lon="15.7280917"><ele>502.40000000000003</ele><time>2026-05-03T09:55:54.482Z</time></trkpt><trkpt lat="39.9870033" lon="15.7279517"><ele>502.80000000000007</ele><time>2026-05-03T09:55:55.483Z</time></trkpt><trkpt lat="39.98696" lon="15.72782"><ele>503.2</ele><time>2026-05-03T09:55:56.484Z</time></trkpt><trkpt lat="39.9869083" lon="15.72769"><ele>503.6</ele><time>2026-05-03T09:55:57.484Z</time></trkpt><trkpt lat="39.9868467" lon="15.7275667"><ele>504.0</ele><time>2026-05-03T09:55:58.482Z</time></trkpt><trkpt lat="39.986785" lon="15.727445"><ele>503.6</ele><time>2026-05-03T09:55:59.483Z</time></trkpt><trkpt lat="39.9867233" lon="15.72733"><ele>503.2</ele><time>2026-05-03T09:56:00.482Z</time></trkpt><trkpt lat="39.9866717" lon="15.7272117"><ele>502.80000000000007</ele><time>2026-05-03T09:56:01.482Z</time></trkpt><trkpt lat="39.9866367" lon="15.7270967"><ele>502.40000000000003</ele><time>2026-05-03T09:56:02.482Z</time></trkpt><trkpt lat="39.98662" lon="15.7269867"><ele>502.0</ele><time>2026-05-03T09:56:03.482Z</time></trkpt><trkpt lat="39.9866133" lon="15.7268767"><ele>504.50000000000006</ele><time>2026-05-03T09:56:04.482Z</time></trkpt><trkpt lat="39.986615" lon="15.7267683"><ele>507.0</ele><time>2026-05-03T09:56:05.483Z</time></trkpt><trkpt lat="39.986625" lon="15.7266617"><ele>509.5</ele><time>2026-05-03T09:56:06.481Z</time></trkpt><trkpt lat="39.98663" lon="15.72656"><ele>512.0</ele><time>2026-05-03T09:56:07.483Z</time></trkpt><trkpt lat="39.9866317" lon="15.7264683"><ele>514.5</ele><time>2026-05-03T09:56:08.482Z</time></trkpt><trkpt lat="39.9866017" lon="15.7263467"><ele>517.0</ele><time>2026-05-03T09:56:10.484Z</time></trkpt><trkpt lat="39.986595" lon="15.7262383"><ele>517.0</ele><time>2026-05-03T09:57:01.483Z</time></trkpt><trkpt lat="39.986545" lon="15.7260917"><ele>517.0</ele><time>2026-05-03T09:57:03.483Z</time></trkpt><trkpt lat="39.9865133" lon="15.7259867"><ele>517.0</ele><time>2026-05-03T09:57:04.482Z</time></trkpt><trkpt lat="39.9864817" lon="15.725865"><ele>517.0</ele><time>2026-05-03T09:57:05.483Z</time></trkpt><trkpt lat="39.9864533" lon="15.7257283"><ele>517.0</ele><time>2026-05-03T09:57:06.482Z</time></trkpt><trkpt lat="39.98643" lon="15.72559"><ele>519.0</ele><time>2026-05-03T09:57:07.482Z</time></trkpt><trkpt lat="39.986405" lon="15.7254717"><ele>521.0</ele><time>2026-05-03T09:57:08.484Z</time></trkpt><trkpt lat="39.98638" lon="15.7253717"><ele>523.0</ele><time>2026-05-03T09:57:09.483Z</time></trkpt><trkpt lat="39.986365" lon="15.725285"><ele>525.0</ele><time>2026-05-03T09:57:10.483Z</time></trkpt><trkpt lat="39.9863717" lon="15.7251417"><ele>527.0</ele><time>2026-05-03T09:57:12.482Z</time></trkpt><trkpt lat="39.9864367" lon="15.7250583"><ele>529.0</ele><time>2026-05-03T09:57:14.483Z</time></trkpt><trkpt lat="39.9865033" lon="15.72508"><ele>529.0</ele><time>2026-05-03T09:57:15.481Z</time></trkpt><trkpt lat="39.9865617" lon="15.7251167"><ele>529.0</ele><time>2026-05-03T09:57:16.482Z</time></trkpt><trkpt lat="39.9865933" lon="15.725195"><ele>529.0</ele><time>2026-05-03T09:57:17.483Z</time></trkpt><trkpt lat="39.9866033" lon="15.7252983"><ele>529.0</ele><time>2026-05-03T09:57:18.483Z</time></trkpt><trkpt lat="39.98661" lon="15.725405"><ele>529.0</ele><time>2026-05-03T09:57:19.482Z</time></trkpt><trkpt lat="39.9866117" lon="15.7255367"><ele>529.0</ele><time>2026-05-03T09:57:20.483Z</time></trkpt><trkpt lat="39.9866367" lon="15.725685"><ele>529.0</ele><time>2026-05-03T09:57:21.481Z</time></trkpt><trkpt lat="39.986675" lon="15.7258367"><ele>529.0</ele><time>2026-05-03T09:57:22.483Z</time></trkpt><trkpt lat="39.9867317" lon="15.7259833"><ele>529.0</ele><time>2026-05-03T09:57:23.483Z</time></trkpt><trkpt lat="39.9867983" lon="15.7261333"><ele>529.0</ele><time>2026-05-03T09:57:24.483Z</time></trkpt><trkpt lat="39.98687" lon="15.72628"><ele>532.0</ele><time>2026-05-03T09:57:25.481Z</time></trkpt><trkpt lat="39.9869383" lon="15.7264167"><ele>535.0</ele><time>2026-05-03T09:57:26.483Z</time></trkpt><trkpt lat="39.9869983" lon="15.726535"><ele>538.0</ele><time>2026-05-03T09:57:27.483Z</time></trkpt><trkpt lat="39.9870483" lon="15.7266317"><ele>541.0</ele><time>2026-05-03T09:57:28.483Z</time></trkpt><trkpt lat="39.9870917" lon="15.7267167"><ele>544.0</ele><time>2026-05-03T09:57:29.484Z</time></trkpt><trkpt lat="39.9871367" lon="15.7267833"><ele>544.0</ele><time>2026-05-03T09:57:30.482Z</time></trkpt><trkpt lat="39.987195" lon="15.7268183"><ele>544.0</ele><time>2026-05-03T09:57:31.482Z</time></trkpt><trkpt lat="39.98726" lon="15.72683"><ele>544.0</ele><time>2026-05-03T09:57:32.483Z</time></trkpt><trkpt lat="39.9873167" lon="15.726765"><ele>544.0</ele><time>2026-05-03T09:57:33.483Z</time></trkpt><trkpt lat="39.9873533" lon="15.7266767"><ele>544.0</ele><time>2026-05-03T09:57:34.483Z</time></trkpt><trkpt lat="39.987365" lon="15.7265817"><ele>544.0</ele><time>2026-05-03T09:57:35.482Z</time></trkpt><trkpt lat="39.9873067" lon="15.726485"><ele>544.0</ele><time>2026-05-03T09:57:36.483Z</time></trkpt><trkpt lat="39.9872333" lon="15.7263967"><ele>544.0</ele><time>2026-05-03T09:57:37.482Z</time></trkpt><trkpt lat="39.987155" lon="15.7263017"><ele>544.0</ele><time>2026-05-03T09:57:38.483Z</time></trkpt><trkpt lat="39.9870917" lon="15.7261817"><ele>544.0</ele><time>2026-05-03T09:57:39.482Z</time></trkpt><trkpt lat="39.9870467" lon="15.72604"><ele>544.0</ele><time>2026-05-03T09:57:40.483Z</time></trkpt><trkpt lat="39.98702" lon="15.7258967"><ele>548.4</ele><time>2026-05-03T09:57:41.482Z</time></trkpt><trkpt lat="39.9870033" lon="15.7257283"><ele>552.8</ele><time>2026-05-03T09:57:42.483Z</time></trkpt><trkpt lat="39.9869867" lon="15.72559"><ele>557.2</ele><time>2026-05-03T09:57:43.482Z</time></trkpt><trkpt lat="39.9869633" lon="15.7254567"><ele>561.6</ele><time>2026-05-03T09:57:44.483Z</time></trkpt><trkpt lat="39.986945" lon="15.7253517"><ele>566.0</ele><time>2026-05-03T09:57:45.482Z</time></trkpt><trkpt lat="39.9869433" lon="15.7252617"><ele>568.3333333333333</ele><time>2026-05-03T09:57:46.483Z</time></trkpt><trkpt lat="39.9869317" lon="15.725175"><ele>570.6666666666666</ele><time>2026-05-03T09:57:48.481Z</time></trkpt><trkpt lat="39.986915" lon="15.7250467"><ele>573.0</ele><time>2026-05-03T09:57:51.483Z</time></trkpt><trkpt lat="39.9868967" lon="15.724885"><ele>575.3333333333334</ele><time>2026-05-03T09:57:53.482Z</time></trkpt><trkpt lat="39.9868817" lon="15.72479"><ele>577.6666666666667</ele><time>2026-05-03T09:57:54.483Z</time></trkpt><trkpt lat="39.9868717" lon="15.7246983"><ele>580.0</ele><time>2026-05-03T09:57:55.482Z</time></trkpt><trkpt lat="39.9868633" lon="15.724615"><ele>580.0</ele><time>2026-05-03T09:57:56.482Z</time></trkpt><trkpt lat="39.986855" lon="15.724515"><ele>580.0</ele><time>2026-05-03T09:57:58.483Z</time></trkpt><trkpt lat="39.9868533" lon="15.7244133"><ele>580.0</ele><time>2026-05-03T09:58:01.482Z</time></trkpt><trkpt lat="39.986905" lon="15.724345"><ele>580.0</ele><time>2026-05-03T09:58:04.483Z</time></trkpt><trkpt lat="39.986975" lon="15.7243667"><ele>580.0</ele><time>2026-05-03T09:58:07.484Z</time></trkpt><trkpt lat="39.9870367" lon="15.7244333"><ele>580.0</ele><time>2026-05-03T09:58:10.486Z</time></trkpt><trkpt lat="39.9869767" lon="15.724385"><ele>580.0</ele><time>2026-05-03T09:58:18.482Z</time></trkpt><trkpt lat="39.986905" lon="15.724385"><ele>580.0</ele><time>2026-05-03T09:58:20.484Z</time></trkpt><trkpt lat="39.9868317" lon="15.7244233"><ele>580.0</ele><time>2026-05-03T09:58:23.483Z</time></trkpt><trkpt lat="39.986905" lon="15.7244467"><ele>580.0</ele><time>2026-05-03T09:59:30.485Z</time></trkpt><trkpt lat="39.9869967" lon="15.7244417"><ele>580.0</ele><time>2026-05-03T09:59:32.483Z</time></trkpt><trkpt lat="39.9871067" lon="15.7245283"><ele>580.0</ele><time>2026-05-03T09:59:34.484Z</time></trkpt><trkpt lat="39.9871567" lon="15.7246717"><ele>580.0</ele><time>2026-05-03T09:59:36.484Z</time></trkpt><trkpt lat="39.9871283" lon="15.7248367"><ele>580.0</ele><time>2026-05-03T09:59:38.485Z</time></trkpt><trkpt lat="39.9871267" lon="15.72497"><ele>580.0</ele><time>2026-05-03T09:59:39.484Z</time></trkpt><trkpt lat="39.987135" lon="15.725115"><ele>580.0</ele><time>2026-05-03T09:59:40.483Z</time></trkpt><trkpt lat="39.987145" lon="15.7252433"><ele>580.0</ele><time>2026-05-03T09:59:41.486Z</time></trkpt><trkpt lat="39.987165" lon="15.7253533"><ele>577.2</ele><time>2026-05-03T09:59:42.483Z</time></trkpt><trkpt lat="39.9871967" lon="15.7254567"><ele>574.4</ele><time>2026-05-03T09:59:43.484Z</time></trkpt><trkpt lat="39.9872317" lon="15.725565"><ele>571.6</ele><time>2026-05-03T09:59:44.483Z</time></trkpt><trkpt lat="39.9872533" lon="15.7256967"><ele>568.8</ele><time>2026-05-03T09:59:45.483Z</time></trkpt><trkpt lat="39.9872867" lon="15.7258083"><ele>566.0</ele><time>2026-05-03T09:59:46.482Z</time></trkpt><trkpt lat="39.9872933" lon="15.72592"><ele>566.0</ele><time>2026-05-03T09:59:47.483Z</time></trkpt><trkpt lat="39.9873117" lon="15.7260017"><ele>566.0</ele><time>2026-05-03T09:59:48.482Z</time></trkpt><trkpt lat="39.9873733" lon="15.7260683"><ele>566.0</ele><time>2026-05-03T09:59:50.484Z</time></trkpt><trkpt lat="39.9874517" lon="15.7260817"><ele>566.0</ele><time>2026-05-03T09:59:53.483Z</time></trkpt><trkpt lat="39.9875433" lon="15.7261083"><ele>566.0</ele><time>2026-05-03T10:00:37.483Z</time></trkpt><trkpt lat="39.9876117" lon="15.7261383"><ele>566.0</ele><time>2026-05-03T10:00:41.483Z</time></trkpt><trkpt lat="39.9876733" lon="15.7261683"><ele>564.8571428571429</ele><time>2026-05-03T10:00:56.482Z</time></trkpt><trkpt lat="39.9877467" lon="15.7262067"><ele>563.7142857142858</ele><time>2026-05-03T10:00:58.481Z</time></trkpt><trkpt lat="39.9877867" lon="15.7261367"><ele>562.5714285714286</ele><time>2026-05-03T10:01:00.482Z</time></trkpt><trkpt lat="39.9877967" lon="15.7260517"><ele>561.4285714285714</ele><time>2026-05-03T10:01:05.481Z</time></trkpt><trkpt lat="39.9878167" lon="15.7259717"><ele>560.2857142857142</ele><time>2026-05-03T10:01:09.482Z</time></trkpt><trkpt lat="39.987745" lon="15.7259817"><ele>559.1428571428571</ele><time>2026-05-03T10:01:20.482Z</time></trkpt><trkpt lat="39.9876817" lon="15.72603"><ele>558.0</ele><time>2026-05-03T10:13:34.482Z</time></trkpt><trkpt lat="39.9876133" lon="15.7260333"><ele>558.0</ele><time>2026-05-03T10:13:38.482Z</time></trkpt><trkpt lat="39.9875484" lon="15.7259849"><ele>558.0</ele><time>2026-05-03T10:13:47.529Z</time></trkpt><trkpt lat="39.9875183" lon="15.7259125"><ele>558.0</ele><time>2026-05-03T10:13:51.582Z</time></trkpt><trkpt lat="39.987509" lon="15.7258096"><ele>558.0</ele><time>2026-05-03T10:14:41.598Z</time></trkpt><trkpt lat="39.9874967" lon="15.7256333"><ele>558.0</ele><time>2026-05-03T10:14:43.487Z</time></trkpt><trkpt lat="39.9874717" lon="15.7255567"><ele>558.0</ele><time>2026-05-03T10:14:45.485Z</time></trkpt><trkpt lat="39.9874383" lon="15.725475"><ele>559.6</ele><time>2026-05-03T10:14:47.486Z</time></trkpt><trkpt lat="39.9874" lon="15.7253717"><ele>561.1999999999999</ele><time>2026-05-03T10:14:49.486Z</time></trkpt><trkpt lat="39.9873683" lon="15.7252533"><ele>562.8</ele><time>2026-05-03T10:14:51.485Z</time></trkpt><trkpt lat="39.9873317" lon="15.725125"><ele>564.4</ele><time>2026-05-03T10:14:53.487Z</time></trkpt><trkpt lat="39.9873083" lon="15.72499"><ele>566.0</ele><time>2026-05-03T10:14:55.485Z</time></trkpt><trkpt lat="39.9872817" lon="15.724855"><ele>569.5</ele><time>2026-05-03T10:14:57.486Z</time></trkpt><trkpt lat="39.98726" lon="15.724705"><ele>573.0</ele><time>2026-05-03T10:14:59.487Z</time></trkpt><trkpt lat="39.9872433" lon="15.724555"><ele>576.5</ele><time>2026-05-03T10:15:01.486Z</time></trkpt><trkpt lat="39.98721" lon="15.7244083"><ele>580.0</ele><time>2026-05-03T10:15:03.486Z</time></trkpt><trkpt lat="39.9871867" lon="15.72427"><ele>582.8</ele><time>2026-05-03T10:15:05.485Z</time></trkpt><trkpt lat="39.9871733" lon="15.7241367"><ele>585.6</ele><time>2026-05-03T10:15:07.486Z</time></trkpt><trkpt lat="39.9871617" lon="15.7239917"><ele>588.4</ele><time>2026-05-03T10:15:09.486Z</time></trkpt><trkpt lat="39.98717" lon="15.7238683"><ele>591.2</ele><time>2026-05-03T10:15:11.485Z</time></trkpt><trkpt lat="39.9872483" lon="15.7238183"><ele>594.0</ele><time>2026-05-03T10:15:13.485Z</time></trkpt><trkpt lat="39.98732" lon="15.7238517"><ele>594.0</ele><time>2026-05-03T10:15:15.486Z</time></trkpt><trkpt lat="39.98735" lon="15.7239583"><ele>594.0</ele><time>2026-05-03T10:15:17.486Z</time></trkpt><trkpt lat="39.98738" lon="15.7241"><ele>594.0</ele><time>2026-05-03T10:15:19.486Z</time></trkpt><trkpt lat="39.9874117" lon="15.7242417"><ele>594.0</ele><time>2026-05-03T10:15:21.488Z</time></trkpt><trkpt lat="39.9874333" lon="15.724325"><ele>594.0</ele><time>2026-05-03T10:15:22.486Z</time></trkpt><trkpt lat="39.987445" lon="15.7244767"><ele>590.5</ele><time>2026-05-03T10:15:24.485Z</time></trkpt><trkpt lat="39.9874633" lon="15.72463"><ele>587.0</ele><time>2026-05-03T10:15:26.487Z</time></trkpt><trkpt lat="39.9874767" lon="15.7247817"><ele>583.5</ele><time>2026-05-03T10:15:28.485Z</time></trkpt><trkpt lat="39.98749" lon="15.7249433"><ele>580.0</ele><time>2026-05-03T10:15:30.486Z</time></trkpt><trkpt lat="39.9875017" lon="15.725105"><ele>575.6</ele><time>2026-05-03T10:15:32.487Z</time></trkpt><trkpt lat="39.9875133" lon="15.725255"><ele>571.2</ele><time>2026-05-03T10:15:34.486Z</time></trkpt><trkpt lat="39.98752" lon="15.7254017"><ele>566.8</ele><time>2026-05-03T10:15:36.486Z</time></trkpt><trkpt lat="39.9875317" lon="15.7255267"><ele>562.4</ele><time>2026-05-03T10:15:38.489Z</time></trkpt><trkpt lat="39.98757" lon="15.7256317"><ele>558.0</ele><time>2026-05-03T10:15:40.486Z</time></trkpt><trkpt lat="39.987635" lon="15.725695"><ele>558.0</ele><time>2026-05-03T10:15:42.486Z</time></trkpt><trkpt lat="39.9877067" lon="15.7257167"><ele>558.0</ele><time>2026-05-03T10:15:44.488Z</time></trkpt><trkpt lat="39.987775" lon="15.7256733"><ele>558.0</ele><time>2026-05-03T10:15:46.487Z</time></trkpt><trkpt lat="39.9878433" lon="15.7255667"><ele>558.0</ele><time>2026-05-03T10:15:48.487Z</time></trkpt><trkpt lat="39.9878467" lon="15.7254317"><ele>558.0</ele><time>2026-05-03T10:15:50.485Z</time></trkpt><trkpt lat="39.9877983" lon="15.7252767"><ele>561.25</ele><time>2026-05-03T10:15:52.487Z</time></trkpt><trkpt lat="39.9877533" lon="15.72514"><ele>564.5</ele><time>2026-05-03T10:15:54.486Z</time></trkpt><trkpt lat="39.987715" lon="15.724995"><ele>567.75</ele><time>2026-05-03T10:15:56.488Z</time></trkpt><trkpt lat="39.9876683" lon="15.7248533"><ele>571.0</ele><time>2026-05-03T10:15:58.486Z</time></trkpt><trkpt lat="39.9876367" lon="15.724705"><ele>571.0</ele><time>2026-05-03T10:16:00.487Z</time></trkpt><trkpt lat="39.9876167" lon="15.7245533"><ele>571.0</ele><time>2026-05-03T10:16:02.485Z</time></trkpt><trkpt lat="39.9875933" lon="15.724395"><ele>571.0</ele><time>2026-05-03T10:16:04.485Z</time></trkpt><trkpt lat="39.987565" lon="15.72432"><ele>571.0</ele><time>2026-05-03T10:16:05.486Z</time></trkpt><trkpt lat="39.9875333" lon="15.724195"><ele>571.0</ele><time>2026-05-03T10:16:07.487Z</time></trkpt><trkpt lat="39.9875183" lon="15.7240867"><ele>573.0</ele><time>2026-05-03T10:16:09.487Z</time></trkpt><trkpt lat="39.9875333" lon="15.7239667"><ele>575.0</ele><time>2026-05-03T10:16:11.486Z</time></trkpt><trkpt lat="39.987585" lon="15.7238567"><ele>577.0</ele><time>2026-05-03T10:16:13.487Z</time></trkpt><trkpt lat="39.9876583" lon="15.7238317"><ele>579.0</ele><time>2026-05-03T10:16:15.485Z</time></trkpt><trkpt lat="39.9877133" lon="15.7239233"><ele>581.0</ele><time>2026-05-03T10:16:17.488Z</time></trkpt><trkpt lat="39.98774" lon="15.7240417"><ele>581.0</ele><time>2026-05-03T10:16:19.487Z</time></trkpt><trkpt lat="39.9877583" lon="15.724175"><ele>581.0</ele><time>2026-05-03T10:16:21.486Z</time></trkpt><trkpt lat="39.9877767" lon="15.7243183"><ele>581.0</ele><time>2026-05-03T10:16:23.485Z</time></trkpt><trkpt lat="39.9877833" lon="15.7244517"><ele>581.0</ele><time>2026-05-03T10:16:25.487Z</time></trkpt><trkpt lat="39.9877917" lon="15.7245783"><ele>581.0</ele><time>2026-05-03T10:16:27.487Z</time></trkpt><trkpt lat="39.9878133" lon="15.72469"><ele>579.0</ele><time>2026-05-03T10:16:29.485Z</time></trkpt><trkpt lat="39.9878667" lon="15.7247917"><ele>577.0</ele><time>2026-05-03T10:16:32.487Z</time></trkpt><trkpt lat="39.98794" lon="15.7248"><ele>575.0</ele><time>2026-05-03T10:16:34.487Z</time></trkpt><trkpt lat="39.9880067" lon="15.7247117"><ele>573.0</ele><time>2026-05-03T10:16:36.488Z</time></trkpt><trkpt lat="39.9880617" lon="15.72459"><ele>571.0</ele><time>2026-05-03T10:16:38.487Z</time></trkpt><trkpt lat="39.9880883" lon="15.7244783"><ele>572.6666666666667</ele><time>2026-05-03T10:16:40.486Z</time></trkpt><trkpt lat="39.988115" lon="15.724365"><ele>574.3333333333334</ele><time>2026-05-03T10:16:42.487Z</time></trkpt><trkpt lat="39.9880817" lon="15.7242717"><ele>576.0</ele><time>2026-05-03T10:16:44.489Z</time></trkpt><trkpt lat="39.9880283" lon="15.72422"><ele>577.6666666666666</ele><time>2026-05-03T10:16:47.486Z</time></trkpt><trkpt lat="39.9879" lon="15.7242333"><ele>579.3333333333333</ele><time>2026-05-03T10:16:58.487Z</time></trkpt><trkpt lat="39.9878333" lon="15.7242117"><ele>581.0</ele><time>2026-05-03T10:17:03.484Z</time></trkpt><trkpt lat="39.9878083" lon="15.7241283"><ele>581.0</ele><time>2026-05-03T10:17:08.485Z</time></trkpt><trkpt lat="39.9877833" lon="15.724025"><ele>581.0</ele><time>2026-05-03T10:17:33.482Z</time></trkpt><trkpt lat="39.987765" lon="15.723945"><ele>581.0</ele><time>2026-05-03T10:17:38.485Z</time></trkpt><trkpt lat="39.9877383" lon="15.72386"><ele>581.0</ele><time>2026-05-03T10:17:44.484Z</time></trkpt><trkpt lat="39.9877517" lon="15.7237733"><ele>581.0</ele><time>2026-05-03T10:17:50.486Z</time></trkpt><trkpt lat="39.9877967" lon="15.7237117"><ele>581.0</ele><time>2026-05-03T10:17:54.484Z</time></trkpt><trkpt lat="39.987835" lon="15.7236317"><ele>581.0</ele><time>2026-05-03T10:18:01.485Z</time></trkpt><trkpt lat="39.987954" lon="15.7236348"><ele>581.0</ele><time>2026-05-03T10:18:19.502Z</time></trkpt><trkpt lat="39.9880217" lon="15.7236133"><ele>581.0</ele><time>2026-05-03T10:18:55.484Z</time></trkpt><trkpt lat="39.9881083" lon="15.72349"><ele>581.0</ele><time>2026-05-03T10:19:15.484Z</time></trkpt><trkpt lat="39.98805" lon="15.723715"><ele>581.0</ele><time>2026-05-03T10:19:21.484Z</time></trkpt><trkpt lat="39.9879833" lon="15.7237517"><ele>581.0</ele><time>2026-05-03T10:19:22.484Z</time></trkpt><trkpt lat="39.9879733" lon="15.72364"><ele>581.0</ele><time>2026-05-03T10:19:27.485Z</time></trkpt><trkpt lat="39.988" lon="15.7235383"><ele>581.0</ele><time>2026-05-03T10:19:32.485Z</time></trkpt><trkpt lat="39.9880633" lon="15.7235517"><ele>581.0</ele><time>2026-05-03T10:19:51.483Z</time></trkpt><trkpt lat="39.9879961" lon="15.7235134"><ele>581.0</ele><time>2026-05-03T10:20:28.526Z</time></trkpt><trkpt lat="39.9879392" lon="15.7234628"><ele>581.0</ele><time>2026-05-03T10:20:36.581Z</time></trkpt><trkpt lat="39.9879086" lon="15.7233781"><ele>581.0</ele><time>2026-05-03T10:20:41.535Z</time></trkpt><trkpt lat="39.9878956" lon="15.7232963"><ele>582.2857142857143</ele><time>2026-05-03T10:20:44.597Z</time></trkpt><trkpt lat="39.9878848" lon="15.7232045"><ele>583.5714285714286</ele><time>2026-05-03T10:20:48.562Z</time></trkpt><trkpt lat="39.9878809" lon="15.7231127"><ele>584.8571428571429</ele><time>2026-05-03T10:20:53.595Z</time></trkpt><trkpt lat="39.9878808" lon="15.7230101"><ele>586.1428571428571</ele><time>2026-05-03T10:21:13.53Z</time></trkpt><trkpt lat="39.9878726" lon="15.7229279"><ele>587.4285714285714</ele><time>2026-05-03T10:21:17.557Z</time></trkpt><trkpt lat="39.987873" lon="15.7228412"><ele>588.7142857142858</ele><time>2026-05-03T10:21:23.597Z</time></trkpt><trkpt lat="39.9878716" lon="15.7227518"><ele>590.0</ele><time>2026-05-03T10:21:27.375Z</time></trkpt><trkpt lat="39.9878648" lon="15.7226524"><ele>592.4</ele><time>2026-05-03T10:21:36.586Z</time></trkpt><trkpt lat="39.9878688" lon="15.7225367"><ele>594.8</ele><time>2026-05-03T10:21:57.533Z</time></trkpt><trkpt lat="39.9878641" lon="15.7223952"><ele>597.2</ele><time>2026-05-03T10:22:17.563Z</time></trkpt><trkpt lat="39.9878658" lon="15.7222434"><ele>599.6</ele><time>2026-05-03T10:22:34.577Z</time></trkpt><trkpt lat="39.9878494" lon="15.7221499"><ele>602.0</ele><time>2026-05-03T10:22:58.539Z</time></trkpt><trkpt lat="39.9878373" lon="15.7220659"><ele>602.0</ele><time>2026-05-03T10:23:01.56Z</time></trkpt><trkpt lat="39.9878219" lon="15.7219396"><ele>602.0</ele><time>2026-05-03T10:23:13.541Z</time></trkpt><trkpt lat="39.987816" lon="15.7218188"><ele>602.0</ele><time>2026-05-03T10:23:23.293Z</time></trkpt><trkpt lat="39.9878063" lon="15.7217233"><ele>602.0</ele><time>2026-05-03T10:23:27.535Z</time></trkpt><trkpt lat="39.9878026" lon="15.7216294"><ele>602.0</ele><time>2026-05-03T10:23:36.495Z</time></trkpt><trkpt lat="39.9877357" lon="15.7215487"><ele>602.0</ele><time>2026-05-03T10:23:53.517Z</time></trkpt><trkpt lat="39.9877833" lon="15.7214783"><ele>601.4</ele><time>2026-05-03T10:24:59.483Z</time></trkpt><trkpt lat="39.9878117" lon="15.7213933"><ele>600.8000000000001</ele><time>2026-05-03T10:25:06.483Z</time></trkpt><trkpt lat="39.9878017" lon="15.72121"><ele>600.2</ele><time>2026-05-03T10:25:28.484Z</time></trkpt><trkpt lat="39.9877717" lon="15.7210717"><ele>599.6</ele><time>2026-05-03T10:26:18.485Z</time></trkpt><trkpt lat="39.9878367" lon="15.720995"><ele>599.0</ele><time>2026-05-03T10:26:44.483Z</time></trkpt><trkpt lat="39.987855" lon="15.7208067"><ele>599.0</ele><time>2026-05-03T10:27:12.484Z</time></trkpt><trkpt lat="39.9878617" lon="15.7207"><ele>599.0</ele><time>2026-05-03T10:27:21.485Z</time></trkpt><trkpt lat="39.9877766" lon="15.7205047"><ele>599.0</ele><time>2026-05-03T10:28:35.511Z</time></trkpt><trkpt lat="39.9876738" lon="15.7205311"><ele>599.0</ele><time>2026-05-03T10:28:47.555Z</time></trkpt><trkpt lat="39.9876932" lon="15.7206382"><ele>599.0</ele><time>2026-05-03T10:29:13.556Z</time></trkpt><trkpt lat="39.9877494" lon="15.7207413"><ele>599.0</ele><time>2026-05-03T10:30:14.58Z</time></trkpt><trkpt lat="39.9877418" lon="15.7208735"><ele>599.0</ele><time>2026-05-03T10:30:34.475Z</time></trkpt><trkpt lat="39.9877865" lon="15.7209908"><ele>599.0</ele><time>2026-05-03T10:30:51.495Z</time></trkpt><trkpt lat="39.987801" lon="15.7210839"><ele>599.0</ele><time>2026-05-03T10:31:03.51Z</time></trkpt><trkpt lat="39.9878226" lon="15.7211635"><ele>599.0</ele><time>2026-05-03T10:31:08.461Z</time></trkpt><trkpt lat="39.9878029" lon="15.721244"><ele>599.0</ele><time>2026-05-03T10:31:14.585Z</time></trkpt><trkpt lat="39.9877864" lon="15.7213413"><ele>599.5</ele><time>2026-05-03T10:31:48.514Z</time></trkpt><trkpt lat="39.9877947" lon="15.7214242"><ele>600.0</ele><time>2026-05-03T10:31:57.574Z</time></trkpt><trkpt lat="39.9878025" lon="15.721514"><ele>600.5</ele><time>2026-05-03T10:32:11.569Z</time></trkpt><trkpt lat="39.9878133" lon="15.7216111"><ele>601.0</ele><time>2026-05-03T10:32:14.495Z</time></trkpt><trkpt lat="39.987815" lon="15.7217483"><ele>601.5</ele><time>2026-05-03T10:33:09.484Z</time></trkpt><trkpt lat="39.98783" lon="15.7218383"><ele>602.0</ele><time>2026-05-03T10:33:26.483Z</time></trkpt><trkpt lat="39.98783" lon="15.721935"><ele>602.0</ele><time>2026-05-03T10:33:27.483Z</time></trkpt><trkpt lat="39.9878583" lon="15.72201"><ele>602.0</ele><time>2026-05-03T10:33:32.482Z</time></trkpt><trkpt lat="39.9878999" lon="15.7220771"><ele>602.0</ele><time>2026-05-03T10:33:41.513Z</time></trkpt><trkpt lat="39.987886" lon="15.7221979"><ele>602.0</ele><time>2026-05-03T10:33:49.53Z</time></trkpt><trkpt lat="39.9878629" lon="15.7223006"><ele>602.0</ele><time>2026-05-03T10:33:59.553Z</time></trkpt><trkpt lat="39.9878718" lon="15.722432"><ele>602.0</ele><time>2026-05-03T10:34:13.593Z</time></trkpt><trkpt lat="39.9878777" lon="15.7225971"><ele>599.6</ele><time>2026-05-03T10:34:29.597Z</time></trkpt><trkpt lat="39.9878925" lon="15.7227455"><ele>597.2</ele><time>2026-05-03T10:34:42.588Z</time></trkpt><trkpt lat="39.9878922" lon="15.722847"><ele>594.8</ele><time>2026-05-03T10:34:49.534Z</time></trkpt><trkpt lat="39.9878961" lon="15.7229307"><ele>592.4</ele><time>2026-05-03T10:34:53.562Z</time></trkpt><trkpt lat="39.9878993" lon="15.7230144"><ele>590.0</ele><time>2026-05-03T10:35:00.509Z</time></trkpt><trkpt lat="39.9878984" lon="15.7232064"><ele>590.0000000000001</ele><time>2026-05-03T10:35:15.509Z</time></trkpt><trkpt lat="39.9878892" lon="15.7232957"><ele>590.0</ele><time>2026-05-03T10:35:20.544Z</time></trkpt><trkpt lat="39.9878861" lon="15.7233864"><ele>590.0</ele><time>2026-05-03T10:35:31.533Z</time></trkpt><trkpt lat="39.9878887" lon="15.7234759"><ele>590.0</ele><time>2026-05-03T10:35:39.572Z</time></trkpt><trkpt lat="39.9878495" lon="15.7235572"><ele>590.0</ele><time>2026-05-03T10:35:52.559Z</time></trkpt><trkpt lat="39.9878092" lon="15.7236318"><ele>590.0000000000001</ele><time>2026-05-03T10:35:58.6Z</time></trkpt><trkpt lat="39.9877919" lon="15.723718"><ele>590.0</ele><time>2026-05-03T10:36:04.539Z</time></trkpt><trkpt lat="39.9877697" lon="15.7237956"><ele>588.5</ele><time>2026-05-03T10:36:11.587Z</time></trkpt><trkpt lat="39.9877482" lon="15.7238866"><ele>587.0</ele><time>2026-05-03T10:36:21.553Z</time></trkpt><trkpt lat="39.9877434" lon="15.7239809"><ele>585.5</ele><time>2026-05-03T10:36:25.581Z</time></trkpt><trkpt lat="39.9877903" lon="15.7240745"><ele>584.0</ele><time>2026-05-03T10:36:34.54Z</time></trkpt><trkpt lat="39.9878239" lon="15.7241518"><ele>582.5</ele><time>2026-05-03T10:36:39.574Z</time></trkpt><trkpt lat="39.9879302" lon="15.7242091"><ele>581.0</ele><time>2026-05-03T10:36:57.496Z</time></trkpt><trkpt lat="39.9880058" lon="15.7242143"><ele>581.0</ele><time>2026-05-03T10:37:10.583Z</time></trkpt><trkpt lat="39.9879403" lon="15.7242472"><ele>581.0</ele><time>2026-05-03T10:38:36.561Z</time></trkpt><trkpt lat="39.9878882" lon="15.7243068"><ele>581.0</ele><time>2026-05-03T10:38:39.582Z</time></trkpt><trkpt lat="39.9879257" lon="15.7243868"><ele>581.0</ele><time>2026-05-03T10:38:44.515Z</time></trkpt><trkpt lat="39.9879992" lon="15.724379"><ele>581.0</ele><time>2026-05-03T10:38:49.548Z</time></trkpt><trkpt lat="39.9880168" lon="15.724479"><ele>581.0</ele><time>2026-05-03T10:38:54.583Z</time></trkpt><trkpt lat="39.9879793" lon="15.7245667"><ele>581.0</ele><time>2026-05-03T10:38:57.502Z</time></trkpt><trkpt lat="39.9879575" lon="15.7246469"><ele>579.3333333333333</ele><time>2026-05-03T10:38:59.516Z</time></trkpt><trkpt lat="39.9879273" lon="15.7247216"><ele>577.6666666666666</ele><time>2026-05-03T10:39:01.529Z</time></trkpt><trkpt lat="39.9878765" lon="15.7247745"><ele>576.0</ele><time>2026-05-03T10:39:03.542Z</time></trkpt><trkpt lat="39.987803" lon="15.7247698"><ele>574.3333333333334</ele><time>2026-05-03T10:39:05.556Z</time></trkpt><trkpt lat="39.9877461" lon="15.7247073"><ele>572.6666666666667</ele><time>2026-05-03T10:39:07.569Z</time></trkpt><trkpt lat="39.9877196" lon="15.7246162"><ele>571.0</ele><time>2026-05-03T10:39:09.583Z</time></trkpt><trkpt lat="39.9877293" lon="15.7244791"><ele>573.5</ele><time>2026-05-03T10:39:11.598Z</time></trkpt><trkpt lat="39.9877203" lon="15.7243189"><ele>576.0</ele><time>2026-05-03T10:39:13.51Z</time></trkpt><trkpt lat="39.9877064" lon="15.7241587"><ele>578.5</ele><time>2026-05-03T10:39:15.486Z</time></trkpt><trkpt lat="39.9877097" lon="15.7240128"><ele>581.0</ele><time>2026-05-03T10:39:17.487Z</time></trkpt><trkpt lat="39.9876997" lon="15.7238888"><ele>581.0</ele><time>2026-05-03T10:39:19.486Z</time></trkpt><trkpt lat="39.9876287" lon="15.723816"><ele>581.0</ele><time>2026-05-03T10:39:22.484Z</time></trkpt><trkpt lat="39.9875516" lon="15.7238423"><ele>581.0</ele><time>2026-05-03T10:39:24.486Z</time></trkpt><trkpt lat="39.9874977" lon="15.72395"><ele>581.0</ele><time>2026-05-03T10:39:26.487Z</time></trkpt><trkpt lat="39.9874733" lon="15.7240869"><ele>581.0</ele><time>2026-05-03T10:39:28.487Z</time></trkpt><trkpt lat="39.9874995" lon="15.724239"><ele>581.0</ele><time>2026-05-03T10:39:30.486Z</time></trkpt><trkpt lat="39.9875192" lon="15.7243193"><ele>581.0</ele><time>2026-05-03T10:39:31.485Z</time></trkpt><trkpt lat="39.9875426" lon="15.7244036"><ele>581.0</ele><time>2026-05-03T10:39:32.485Z</time></trkpt><trkpt lat="39.9875642" lon="15.7244883"><ele>581.0</ele><time>2026-05-03T10:39:33.485Z</time></trkpt><trkpt lat="39.987585" lon="15.7245767"><ele>581.0</ele><time>2026-05-03T10:39:34.485Z</time></trkpt><trkpt lat="39.9876042" lon="15.7246595"><ele>581.0</ele><time>2026-05-03T10:39:35.485Z</time></trkpt><trkpt lat="39.9876241" lon="15.7247379"><ele>581.0</ele><time>2026-05-03T10:39:36.486Z</time></trkpt><trkpt lat="39.9876527" lon="15.7248858"><ele>578.5</ele><time>2026-05-03T10:39:38.486Z</time></trkpt><trkpt lat="39.9876734" lon="15.7250279"><ele>576.0</ele><time>2026-05-03T10:39:40.484Z</time></trkpt><trkpt lat="39.9877326" lon="15.7251582"><ele>573.5</ele><time>2026-05-03T10:39:42.486Z</time></trkpt><trkpt lat="39.9877794" lon="15.7252996"><ele>571.0</ele><time>2026-05-03T10:39:44.485Z</time></trkpt><trkpt lat="39.9878057" lon="15.7254359"><ele>568.4</ele><time>2026-05-03T10:39:46.485Z</time></trkpt><trkpt lat="39.9877922" lon="15.725557"><ele>565.8</ele><time>2026-05-03T10:39:48.486Z</time></trkpt><trkpt lat="39.9877386" lon="15.7256345"><ele>563.1999999999999</ele><time>2026-05-03T10:39:50.486Z</time></trkpt><trkpt lat="39.9876512" lon="15.7256632"><ele>560.6</ele><time>2026-05-03T10:39:52.486Z</time></trkpt><trkpt lat="39.9875613" lon="15.7256244"><ele>558.0</ele><time>2026-05-03T10:39:54.486Z</time></trkpt><trkpt lat="39.9875229" lon="15.7255112"><ele>558.0</ele><time>2026-05-03T10:39:56.487Z</time></trkpt><trkpt lat="39.9875283" lon="15.7253533"><ele>558.0</ele><time>2026-05-03T10:39:58.486Z</time></trkpt><trkpt lat="39.98754" lon="15.7252117"><ele>558.0</ele><time>2026-05-03T10:40:00.486Z</time></trkpt><trkpt lat="39.9875383" lon="15.7250667"><ele>558.0</ele><time>2026-05-03T10:40:02.488Z</time></trkpt><trkpt lat="39.987525" lon="15.7249183"><ele>562.4</ele><time>2026-05-03T10:40:04.485Z</time></trkpt><trkpt lat="39.9875083" lon="15.724785"><ele>566.8</ele><time>2026-05-03T10:40:06.487Z</time></trkpt><trkpt lat="39.9874933" lon="15.7246467"><ele>571.2</ele><time>2026-05-03T10:40:08.485Z</time></trkpt><trkpt lat="39.987475" lon="15.7245183"><ele>575.6</ele><time>2026-05-03T10:40:10.485Z</time></trkpt><trkpt lat="39.9874517" lon="15.724385"><ele>580.0</ele><time>2026-05-03T10:40:12.486Z</time></trkpt><trkpt lat="39.9874217" lon="15.7242483"><ele>582.3333333333334</ele><time>2026-05-03T10:40:14.485Z</time></trkpt><trkpt lat="39.98741" lon="15.7240967"><ele>584.6666666666667</ele><time>2026-05-03T10:40:16.485Z</time></trkpt><trkpt lat="39.9873833" lon="15.7239717"><ele>587.0</ele><time>2026-05-03T10:40:18.486Z</time></trkpt><trkpt lat="39.987355" lon="15.7238717"><ele>589.3333333333334</ele><time>2026-05-03T10:40:20.486Z</time></trkpt><trkpt lat="39.9872933" lon="15.72381"><ele>591.6666666666666</ele><time>2026-05-03T10:40:22.485Z</time></trkpt><trkpt lat="39.9872233" lon="15.723805"><ele>594.0</ele><time>2026-05-03T10:40:24.486Z</time></trkpt><trkpt lat="39.9871517" lon="15.7238833"><ele>594.0</ele><time>2026-05-03T10:40:26.484Z</time></trkpt><trkpt lat="39.98712" lon="15.7240067"><ele>594.0</ele><time>2026-05-03T10:40:28.486Z</time></trkpt><trkpt lat="39.9871317" lon="15.7241533"><ele>594.0</ele><time>2026-05-03T10:40:30.486Z</time></trkpt><trkpt lat="39.9871483" lon="15.7243"><ele>594.0</ele><time>2026-05-03T10:40:32.487Z</time></trkpt><trkpt lat="39.9871683" lon="15.7244533"><ele>594.0</ele><time>2026-05-03T10:40:34.486Z</time></trkpt><trkpt lat="39.9871917" lon="15.7246183"><ele>592.0</ele><time>2026-05-03T10:40:36.487Z</time></trkpt><trkpt lat="39.9872033" lon="15.7247017"><ele>590.0</ele><time>2026-05-03T10:40:37.485Z</time></trkpt><trkpt lat="39.9872133" lon="15.724785"><ele>588.0</ele><time>2026-05-03T10:40:38.488Z</time></trkpt><trkpt lat="39.9872233" lon="15.7248733"><ele>586.0</ele><time>2026-05-03T10:40:39.486Z</time></trkpt><trkpt lat="39.987235" lon="15.7249633"><ele>584.0</ele><time>2026-05-03T10:40:40.487Z</time></trkpt><trkpt lat="39.9872483" lon="15.7250533"><ele>582.0</ele><time>2026-05-03T10:40:41.487Z</time></trkpt><trkpt lat="39.987265" lon="15.725135"><ele>580.0</ele><time>2026-05-03T10:40:42.485Z</time></trkpt><trkpt lat="39.9873033" lon="15.7252817"><ele>577.2</ele><time>2026-05-03T10:40:44.486Z</time></trkpt><trkpt lat="39.9873317" lon="15.7254133"><ele>574.4</ele><time>2026-05-03T10:40:46.485Z</time></trkpt><trkpt lat="39.98736" lon="15.7255317"><ele>571.6</ele><time>2026-05-03T10:40:48.486Z</time></trkpt><trkpt lat="39.9873867" lon="15.7256267"><ele>568.8</ele><time>2026-05-03T10:40:50.486Z</time></trkpt><trkpt lat="39.987405" lon="15.7257133"><ele>566.0</ele><time>2026-05-03T10:40:53.485Z</time></trkpt><trkpt lat="39.987485" lon="15.72581"><ele>564.6666666666666</ele><time>2026-05-03T10:41:15.482Z</time></trkpt><trkpt lat="39.98754" lon="15.7258583"><ele>563.3333333333333</ele><time>2026-05-03T10:41:20.487Z</time></trkpt><trkpt lat="39.987585" lon="15.7259333"><ele>562.0</ele><time>2026-05-03T10:41:28.485Z</time></trkpt><trkpt lat="39.9876283" lon="15.7259933"><ele>560.6666666666666</ele><time>2026-05-03T10:41:36.483Z</time></trkpt><trkpt lat="39.9877183" lon="15.72602"><ele>559.3333333333334</ele><time>2026-05-03T10:41:50.485Z</time></trkpt><trkpt lat="39.98782" lon="15.7259433"><ele>558.0</ele><time>2026-05-03T10:43:24.485Z</time></trkpt><trkpt lat="39.9877633" lon="15.7259833"><ele>558.0</ele><time>2026-05-03T10:46:29.481Z</time></trkpt><trkpt lat="39.98769" lon="15.7260217"><ele>558.0</ele><time>2026-05-03T10:52:48.481Z</time></trkpt><trkpt lat="39.987615" lon="15.7260367"><ele>558.0</ele><time>2026-05-03T10:52:51.482Z</time></trkpt><trkpt lat="39.9875217" lon="15.7260317"><ele>558.0</ele><time>2026-05-03T10:52:54.483Z</time></trkpt><trkpt lat="39.9874317" lon="15.726055"><ele>558.0</ele><time>2026-05-03T10:52:57.484Z</time></trkpt><trkpt lat="39.9873433" lon="15.726025"><ele>558.0</ele><time>2026-05-03T10:53:15.481Z</time></trkpt><trkpt lat="39.9873067" lon="15.7259233"><ele>559.3333333333334</ele><time>2026-05-03T10:53:17.482Z</time></trkpt><trkpt lat="39.9872733" lon="15.7257783"><ele>560.6666666666666</ele><time>2026-05-03T10:53:19.483Z</time></trkpt><trkpt lat="39.98726" lon="15.7256917"><ele>562.0</ele><time>2026-05-03T10:53:20.484Z</time></trkpt><trkpt lat="39.9872417" lon="15.7256017"><ele>563.3333333333333</ele><time>2026-05-03T10:53:21.482Z</time></trkpt><trkpt lat="39.9872167" lon="15.7255083"><ele>564.6666666666666</ele><time>2026-05-03T10:53:22.481Z</time></trkpt><trkpt lat="39.987185" lon="15.7254167"><ele>566.0</ele><time>2026-05-03T10:53:23.483Z</time></trkpt><trkpt lat="39.9871533" lon="15.7253233"><ele>568.3333333333333</ele><time>2026-05-03T10:53:24.482Z</time></trkpt><trkpt lat="39.9871217" lon="15.7252267"><ele>570.6666666666666</ele><time>2026-05-03T10:53:25.482Z</time></trkpt><trkpt lat="39.9870983" lon="15.72513"><ele>573.0</ele><time>2026-05-03T10:53:26.483Z</time></trkpt><trkpt lat="39.9870817" lon="15.7250233"><ele>575.3333333333334</ele><time>2026-05-03T10:53:27.484Z</time></trkpt><trkpt lat="39.9870733" lon="15.7249083"><ele>577.6666666666667</ele><time>2026-05-03T10:53:28.482Z</time></trkpt><trkpt lat="39.9870767" lon="15.724795"><ele>580.0</ele><time>2026-05-03T10:53:29.482Z</time></trkpt><trkpt lat="39.98709" lon="15.724695"><ele>580.0</ele><time>2026-05-03T10:53:30.482Z</time></trkpt><trkpt lat="39.9871017" lon="15.7245983"><ele>580.0</ele><time>2026-05-03T10:53:31.481Z</time></trkpt><trkpt lat="39.9870967" lon="15.7245117"><ele>580.0</ele><time>2026-05-03T10:53:32.483Z</time></trkpt><trkpt lat="39.9870767" lon="15.7244317"><ele>580.0</ele><time>2026-05-03T10:53:33.481Z</time></trkpt><trkpt lat="39.9869767" lon="15.7243467"><ele>580.0</ele><time>2026-05-03T10:53:35.482Z</time></trkpt><trkpt lat="39.9869083" lon="15.7243717"><ele>580.0</ele><time>2026-05-03T10:53:36.482Z</time></trkpt><trkpt lat="39.9868517" lon="15.7244367"><ele>580.0</ele><time>2026-05-03T10:53:37.482Z</time></trkpt><trkpt lat="39.9868183" lon="15.72453"><ele>580.0</ele><time>2026-05-03T10:53:38.483Z</time></trkpt><trkpt lat="39.9868117" lon="15.7246183"><ele>580.0</ele><time>2026-05-03T10:53:39.481Z</time></trkpt><trkpt lat="39.9868317" lon="15.724725"><ele>580.0</ele><time>2026-05-03T10:53:40.481Z</time></trkpt><trkpt lat="39.9868533" lon="15.724845"><ele>580.0</ele><time>2026-05-03T10:53:41.481Z</time></trkpt><trkpt lat="39.9868683" lon="15.7249733"><ele>580.0</ele><time>2026-05-03T10:53:42.481Z</time></trkpt><trkpt lat="39.9868833" lon="15.7251167"><ele>576.5</ele><time>2026-05-03T10:53:43.481Z</time></trkpt><trkpt lat="39.9869033" lon="15.7252733"><ele>573.0</ele><time>2026-05-03T10:53:44.481Z</time></trkpt><trkpt lat="39.986925" lon="15.7254367"><ele>569.5</ele><time>2026-05-03T10:53:45.481Z</time></trkpt><trkpt lat="39.9869467" lon="15.7256"><ele>566.0</ele><time>2026-05-03T10:53:46.481Z</time></trkpt><trkpt lat="39.9869667" lon="15.72576"><ele>566.0</ele><time>2026-05-03T10:53:47.48Z</time></trkpt><trkpt lat="39.986985" lon="15.7259083"><ele>566.0</ele><time>2026-05-03T10:53:48.482Z</time></trkpt><trkpt lat="39.9870067" lon="15.7260483"><ele>566.0</ele><time>2026-05-03T10:53:49.48Z</time></trkpt><trkpt lat="39.9870333" lon="15.7261783"><ele>566.0</ele><time>2026-05-03T10:53:50.482Z</time></trkpt><trkpt lat="39.9870817" lon="15.7262933"><ele>566.0</ele><time>2026-05-03T10:53:51.48Z</time></trkpt><trkpt lat="39.9871417" lon="15.7263867"><ele>562.3333333333333</ele><time>2026-05-03T10:53:52.481Z</time></trkpt><trkpt lat="39.987205" lon="15.7264617"><ele>558.6666666666666</ele><time>2026-05-03T10:53:53.482Z</time></trkpt><trkpt lat="39.9872633" lon="15.726535"><ele>555.0</ele><time>2026-05-03T10:53:54.481Z</time></trkpt><trkpt lat="39.9873017" lon="15.7266183"><ele>551.3333333333334</ele><time>2026-05-03T10:53:55.481Z</time></trkpt><trkpt lat="39.9873167" lon="15.726705"><ele>547.6666666666667</ele><time>2026-05-03T10:53:56.482Z</time></trkpt><trkpt lat="39.98724" lon="15.7268183"><ele>544.0</ele><time>2026-05-03T10:53:58.481Z</time></trkpt><trkpt lat="39.9871733" lon="15.7268167"><ele>544.0</ele><time>2026-05-03T10:53:59.482Z</time></trkpt><trkpt lat="39.9871" lon="15.726745"><ele>544.0</ele><time>2026-05-03T10:54:00.481Z</time></trkpt><trkpt lat="39.9870333" lon="15.7266583"><ele>544.0</ele><time>2026-05-03T10:54:01.481Z</time></trkpt><trkpt lat="39.9869717" lon="15.7265267"><ele>544.0</ele><time>2026-05-03T10:54:02.482Z</time></trkpt><trkpt lat="39.9869" lon="15.7263783"><ele>544.0</ele><time>2026-05-03T10:54:03.481Z</time></trkpt><trkpt lat="39.986825" lon="15.7262183"><ele>540.25</ele><time>2026-05-03T10:54:04.481Z</time></trkpt><trkpt lat="39.9867533" lon="15.7260567"><ele>536.5</ele><time>2026-05-03T10:54:05.482Z</time></trkpt><trkpt lat="39.9866917" lon="15.7259117"><ele>532.75</ele><time>2026-05-03T10:54:06.483Z</time></trkpt><trkpt lat="39.98664" lon="15.7257717"><ele>529.0</ele><time>2026-05-03T10:54:07.48Z</time></trkpt><trkpt lat="39.9866117" lon="15.7256333"><ele>529.0</ele><time>2026-05-03T10:54:08.481Z</time></trkpt><trkpt lat="39.986605" lon="15.7254983"><ele>529.0</ele><time>2026-05-03T10:54:09.48Z</time></trkpt><trkpt lat="39.9866117" lon="15.7253667"><ele>529.0</ele><time>2026-05-03T10:54:10.481Z</time></trkpt><trkpt lat="39.9866117" lon="15.72525"><ele>529.0</ele><time>2026-05-03T10:54:11.48Z</time></trkpt><trkpt lat="39.9865983" lon="15.7251517"><ele>529.0</ele><time>2026-05-03T10:54:12.48Z</time></trkpt><trkpt lat="39.9865717" lon="15.725075"><ele>529.0</ele><time>2026-05-03T10:54:13.48Z</time></trkpt><trkpt lat="39.9864633" lon="15.7250317"><ele>529.0</ele><time>2026-05-03T10:54:15.48Z</time></trkpt><trkpt lat="39.9864" lon="15.7250683"><ele>529.0</ele><time>2026-05-03T10:54:16.481Z</time></trkpt><trkpt lat="39.98635" lon="15.7251417"><ele>529.0</ele><time>2026-05-03T10:54:17.481Z</time></trkpt><trkpt lat="39.9863267" lon="15.725235"><ele>529.0</ele><time>2026-05-03T10:54:18.481Z</time></trkpt><trkpt lat="39.98633" lon="15.72534"><ele>529.0</ele><time>2026-05-03T10:54:19.481Z</time></trkpt><trkpt lat="39.9863633" lon="15.72548"><ele>529.0</ele><time>2026-05-03T10:54:20.483Z</time></trkpt><trkpt lat="39.986395" lon="15.7256333"><ele>529.0</ele><time>2026-05-03T10:54:21.481Z</time></trkpt><trkpt lat="39.9864267" lon="15.72579"><ele>529.0</ele><time>2026-05-03T10:54:22.482Z</time></trkpt><trkpt lat="39.986455" lon="15.72594"><ele>529.0</ele><time>2026-05-03T10:54:23.481Z</time></trkpt><trkpt lat="39.9864917" lon="15.7260817"><ele>529.0</ele><time>2026-05-03T10:54:24.481Z</time></trkpt><trkpt lat="39.986535" lon="15.72621"><ele>527.0</ele><time>2026-05-03T10:54:25.481Z</time></trkpt><trkpt lat="39.986575" lon="15.7263217"><ele>525.0</ele><time>2026-05-03T10:54:26.482Z</time></trkpt><trkpt lat="39.9866033" lon="15.7264233"><ele>523.0</ele><time>2026-05-03T10:54:27.481Z</time></trkpt><trkpt lat="39.9866183" lon="15.7265117"><ele>521.0</ele><time>2026-05-03T10:54:28.481Z</time></trkpt><trkpt lat="39.9866183" lon="15.7266483"><ele>519.0</ele><time>2026-05-03T10:54:30.481Z</time></trkpt><trkpt lat="39.9866083" lon="15.7267667"><ele>517.0</ele><time>2026-05-03T10:54:32.48Z</time></trkpt><trkpt lat="39.9865983" lon="15.7268917"><ele>518.0</ele><time>2026-05-03T10:54:34.481Z</time></trkpt><trkpt lat="39.9866017" lon="15.7270367"><ele>519.0</ele><time>2026-05-03T10:54:36.481Z</time></trkpt><trkpt lat="39.9866217" lon="15.727185"><ele>520.0</ele><time>2026-05-03T10:54:38.481Z</time></trkpt><trkpt lat="39.9866733" lon="15.72733"><ele>521.0</ele><time>2026-05-03T10:54:40.481Z</time></trkpt><trkpt lat="39.9867067" lon="15.7274017"><ele>522.0</ele><time>2026-05-03T10:54:41.481Z</time></trkpt><trkpt lat="39.9867433" lon="15.7274717"><ele>522.0</ele><time>2026-05-03T10:54:42.481Z</time></trkpt><trkpt lat="39.9868083" lon="15.727595"><ele>522.0</ele><time>2026-05-03T10:54:44.482Z</time></trkpt><trkpt lat="39.9868617" lon="15.7276983"><ele>522.0</ele><time>2026-05-03T10:54:46.481Z</time></trkpt><trkpt lat="39.9869167" lon="15.7278033"><ele>522.0</ele><time>2026-05-03T10:54:48.481Z</time></trkpt><trkpt lat="39.9869667" lon="15.7279067"><ele>522.0</ele><time>2026-05-03T10:54:50.483Z</time></trkpt><trkpt lat="39.9869933" lon="15.728"><ele>519.0</ele><time>2026-05-03T10:54:52.482Z</time></trkpt><trkpt lat="39.9870067" lon="15.7280933"><ele>516.0</ele><time>2026-05-03T10:54:54.48Z</time></trkpt><trkpt lat="39.987015" lon="15.728175"><ele>513.0</ele><time>2026-05-03T10:54:56.481Z</time></trkpt><trkpt lat="39.98702" lon="15.728265"><ele>510.0</ele><time>2026-05-03T10:54:58.481Z</time></trkpt><trkpt lat="39.9870217" lon="15.72836"><ele>507.0</ele><time>2026-05-03T10:55:00.481Z</time></trkpt><trkpt lat="39.9870167" lon="15.7284617"><ele>504.0</ele><time>2026-05-03T10:55:02.482Z</time></trkpt><trkpt lat="39.9870017" lon="15.7285883"><ele>503.6</ele><time>2026-05-03T10:55:04.481Z</time></trkpt><trkpt lat="39.986975" lon="15.7287167"><ele>503.2</ele><time>2026-05-03T10:55:06.482Z</time></trkpt><trkpt lat="39.9869467" lon="15.7288383"><ele>502.80000000000007</ele><time>2026-05-03T10:55:08.481Z</time></trkpt><trkpt lat="39.9869267" lon="15.7289867"><ele>502.40000000000003</ele><time>2026-05-03T10:55:10.481Z</time></trkpt><trkpt lat="39.9869217" lon="15.7290783"><ele>502.0</ele><time>2026-05-03T10:55:11.482Z</time></trkpt><trkpt lat="39.9869217" lon="15.7291717"><ele>502.00000000000006</ele><time>2026-05-03T10:55:12.48Z</time></trkpt><trkpt lat="39.986935" lon="15.7292683"><ele>502.0</ele><time>2026-05-03T10:55:13.481Z</time></trkpt><trkpt lat="39.9869567" lon="15.7293633"><ele>502.0</ele><time>2026-05-03T10:55:14.482Z</time></trkpt><trkpt lat="39.98698" lon="15.72945"><ele>502.0</ele><time>2026-05-03T10:55:15.482Z</time></trkpt><trkpt lat="39.987005" lon="15.7295333"><ele>502.00000000000006</ele><time>2026-05-03T10:55:16.48Z</time></trkpt><trkpt lat="39.987025" lon="15.7296167"><ele>502.0</ele><time>2026-05-03T10:55:17.483Z</time></trkpt><trkpt lat="39.9870567" lon="15.7297633"><ele>501.1666666666667</ele><time>2026-05-03T10:55:19.481Z</time></trkpt><trkpt lat="39.9870667" lon="15.729905"><ele>500.33333333333337</ele><time>2026-05-03T10:55:21.482Z</time></trkpt><trkpt lat="39.9870717" lon="15.7299967"><ele>499.5</ele><time>2026-05-03T10:55:22.481Z</time></trkpt><trkpt lat="39.9870767" lon="15.7300933"><ele>498.66666666666663</ele><time>2026-05-03T10:55:23.482Z</time></trkpt><trkpt lat="39.987075" lon="15.730185"><ele>497.8333333333333</ele><time>2026-05-03T10:55:24.481Z</time></trkpt><trkpt lat="39.98707" lon="15.7302733"><ele>497.0</ele><time>2026-05-03T10:55:25.482Z</time></trkpt><trkpt lat="39.9870633" lon="15.73036"><ele>495.99999999999994</ele><time>2026-05-03T10:55:26.483Z</time></trkpt><trkpt lat="39.9870517" lon="15.73045"><ele>495.0</ele><time>2026-05-03T10:55:27.481Z</time></trkpt><trkpt lat="39.987045" lon="15.7305383"><ele>494.0</ele><time>2026-05-03T10:55:28.481Z</time></trkpt><trkpt lat="39.9870417" lon="15.7306233"><ele>493.0</ele><time>2026-05-03T10:55:29.481Z</time></trkpt><trkpt lat="39.9870267" lon="15.7307617"><ele>491.99999999999994</ele><time>2026-05-03T10:55:31.481Z</time></trkpt><trkpt lat="39.98699" lon="15.7308717"><ele>491.0</ele><time>2026-05-03T10:55:33.481Z</time></trkpt><trkpt lat="39.9869217" lon="15.730935"><ele>491.0</ele><time>2026-05-03T10:55:35.482Z</time></trkpt><trkpt lat="39.98682" lon="15.7309233"><ele>491.0</ele><time>2026-05-03T10:55:37.485Z</time></trkpt><trkpt lat="39.986715" lon="15.730845"><ele>491.0</ele><time>2026-05-03T10:55:39.481Z</time></trkpt><trkpt lat="39.986655" lon="15.7307983"><ele>491.0</ele><time>2026-05-03T10:55:40.482Z</time></trkpt><trkpt lat="39.98659" lon="15.7307433"><ele>491.0</ele><time>2026-05-03T10:55:41.48Z</time></trkpt><trkpt lat="39.98652" lon="15.7306883"><ele>490.20000000000005</ele><time>2026-05-03T10:55:42.482Z</time></trkpt><trkpt lat="39.986445" lon="15.73063"><ele>489.40000000000003</ele><time>2026-05-03T10:55:43.48Z</time></trkpt><trkpt lat="39.9863633" lon="15.7305617"><ele>488.6</ele><time>2026-05-03T10:55:44.483Z</time></trkpt><trkpt lat="39.9862817" lon="15.7304833"><ele>487.8</ele><time>2026-05-03T10:55:45.481Z</time></trkpt><trkpt lat="39.9861983" lon="15.73039"><ele>487.0</ele><time>2026-05-03T10:55:46.483Z</time></trkpt><trkpt lat="39.9861117" lon="15.730285"><ele>488.75</ele><time>2026-05-03T10:55:47.482Z</time></trkpt><trkpt lat="39.9860233" lon="15.7301717"><ele>490.5</ele><time>2026-05-03T10:55:48.482Z</time></trkpt><trkpt lat="39.98594" lon="15.7300583"><ele>492.25</ele><time>2026-05-03T10:55:49.481Z</time></trkpt><trkpt lat="39.9858667" lon="15.7299433"><ele>494.0</ele><time>2026-05-03T10:55:50.483Z</time></trkpt><trkpt lat="39.9858133" lon="15.729815"><ele>495.0</ele><time>2026-05-03T10:55:51.481Z</time></trkpt><trkpt lat="39.985785" lon="15.7296633"><ele>496.0</ele><time>2026-05-03T10:55:52.482Z</time></trkpt><trkpt lat="39.9857817" lon="15.7294933"><ele>497.0</ele><time>2026-05-03T10:55:53.483Z</time></trkpt><trkpt lat="39.985805" lon="15.7293067"><ele>498.0</ele><time>2026-05-03T10:55:54.482Z</time></trkpt><trkpt lat="39.9858483" lon="15.7291083"><ele>498.0</ele><time>2026-05-03T10:55:55.48Z</time></trkpt><trkpt lat="39.9859017" lon="15.7289017"><ele>498.0</ele><time>2026-05-03T10:55:56.482Z</time></trkpt><trkpt lat="39.985955" lon="15.728705"><ele>498.0</ele><time>2026-05-03T10:55:57.481Z</time></trkpt><trkpt lat="39.9859933" lon="15.7285267"><ele>496.75</ele><time>2026-05-03T10:55:58.481Z</time></trkpt><trkpt lat="39.986005" lon="15.7283683"><ele>495.5</ele><time>2026-05-03T10:55:59.481Z</time></trkpt><trkpt lat="39.9859867" lon="15.728225"><ele>494.25</ele><time>2026-05-03T10:56:00.481Z</time></trkpt><trkpt lat="39.9859367" lon="15.728105"><ele>493.0</ele><time>2026-05-03T10:56:01.482Z</time></trkpt><trkpt lat="39.9858517" lon="15.7280083"><ele>487.25</ele><time>2026-05-03T10:56:02.482Z</time></trkpt><trkpt lat="39.9857383" lon="15.7279533"><ele>481.5</ele><time>2026-05-03T10:56:03.481Z</time></trkpt><trkpt lat="39.9856133" lon="15.7279483"><ele>475.75</ele><time>2026-05-03T10:56:04.482Z</time></trkpt><trkpt lat="39.985485" lon="15.72797"><ele>470.0</ele><time>2026-05-03T10:56:05.481Z</time></trkpt><trkpt lat="39.985365" lon="15.7279667"><ele>470.0</ele><time>2026-05-03T10:56:06.483Z</time></trkpt><trkpt lat="39.9852483" lon="15.7279117"><ele>470.0</ele><time>2026-05-03T10:56:07.481Z</time></trkpt><trkpt lat="39.98514" lon="15.7278217"><ele>470.0</ele><time>2026-05-03T10:56:08.481Z</time></trkpt><trkpt lat="39.985055" lon="15.72771"><ele>470.0</ele><time>2026-05-03T10:56:09.48Z</time></trkpt><trkpt lat="39.985005" lon="15.7275933"><ele>468.0</ele><time>2026-05-03T10:56:10.481Z</time></trkpt><trkpt lat="39.98499" lon="15.7274667"><ele>466.0</ele><time>2026-05-03T10:56:11.481Z</time></trkpt><trkpt lat="39.9850067" lon="15.7273267"><ele>464.0</ele><time>2026-05-03T10:56:12.482Z</time></trkpt><trkpt lat="39.9850467" lon="15.7271633"><ele>462.0</ele><time>2026-05-03T10:56:13.482Z</time></trkpt><trkpt lat="39.98508" lon="15.7269783"><ele>470.66666666666663</ele><time>2026-05-03T10:56:14.483Z</time></trkpt><trkpt lat="39.98509" lon="15.72677"><ele>479.3333333333333</ele><time>2026-05-03T10:56:15.481Z</time></trkpt><trkpt lat="39.98507" lon="15.7265533"><ele>488.0</ele><time>2026-05-03T10:56:16.484Z</time></trkpt><trkpt lat="39.9850217" lon="15.72635"><ele>481.5</ele><time>2026-05-03T10:56:17.48Z</time></trkpt><trkpt lat="39.984955" lon="15.72617"><ele>475.0</ele><time>2026-05-03T10:56:18.482Z</time></trkpt><trkpt lat="39.9848867" lon="15.7260033"><ele>468.5</ele><time>2026-05-03T10:56:19.483Z</time></trkpt><trkpt lat="39.9848283" lon="15.7258417"><ele>462.0</ele><time>2026-05-03T10:56:20.481Z</time></trkpt><trkpt lat="39.98479" lon="15.7256817"><ele>462.0</ele><time>2026-05-03T10:56:21.485Z</time></trkpt><trkpt lat="39.9847683" lon="15.7255217"><ele>462.0</ele><time>2026-05-03T10:56:22.482Z</time></trkpt><trkpt lat="39.984755" lon="15.7253683"><ele>462.0</ele><time>2026-05-03T10:56:23.481Z</time></trkpt><trkpt lat="39.9847417" lon="15.725215"><ele>462.0</ele><time>2026-05-03T10:56:24.481Z</time></trkpt><trkpt lat="39.9847267" lon="15.725055"><ele>462.0</ele><time>2026-05-03T10:56:25.482Z</time></trkpt><trkpt lat="39.9847083" lon="15.7248883"><ele>462.0</ele><time>2026-05-03T10:56:26.483Z</time></trkpt><trkpt lat="39.9846917" lon="15.724725"><ele>462.0</ele><time>2026-05-03T10:56:27.481Z</time></trkpt><trkpt lat="39.9846817" lon="15.7245667"><ele>462.0</ele><time>2026-05-03T10:56:28.482Z</time></trkpt><trkpt lat="39.98469" lon="15.724415"><ele>459.25</ele><time>2026-05-03T10:56:29.482Z</time></trkpt><trkpt lat="39.984725" lon="15.7242767"><ele>456.5</ele><time>2026-05-03T10:56:30.481Z</time></trkpt><trkpt lat="39.984795" lon="15.724155"><ele>453.75</ele><time>2026-05-03T10:56:31.48Z</time></trkpt><trkpt lat="39.9848933" lon="15.7240433"><ele>451.0</ele><time>2026-05-03T10:56:32.483Z</time></trkpt><trkpt lat="39.9850083" lon="15.7239333"><ele>455.33333333333337</ele><time>2026-05-03T10:56:33.482Z</time></trkpt><trkpt lat="39.9851183" lon="15.7238067"><ele>459.66666666666663</ele><time>2026-05-03T10:56:34.481Z</time></trkpt><trkpt lat="39.9852133" lon="15.72365"><ele>464.0</ele><time>2026-05-03T10:56:35.481Z</time></trkpt><trkpt lat="39.9852883" lon="15.7234667"><ele>464.0</ele><time>2026-05-03T10:56:36.482Z</time></trkpt><trkpt lat="39.985345" lon="15.7232617"><ele>464.0</ele><time>2026-05-03T10:56:37.481Z</time></trkpt><trkpt lat="39.985395" lon="15.7230417"><ele>464.0</ele><time>2026-05-03T10:56:38.482Z</time></trkpt><trkpt lat="39.98545" lon="15.7228167"><ele>458.0</ele><time>2026-05-03T10:56:39.481Z</time></trkpt><trkpt lat="39.985515" lon="15.72258"><ele>452.0</ele><time>2026-05-03T10:56:40.482Z</time></trkpt><trkpt lat="39.9855833" lon="15.7223317"><ele>446.0</ele><time>2026-05-03T10:56:41.48Z</time></trkpt><trkpt lat="39.9856483" lon="15.7220817"><ele>441.3333333333333</ele><time>2026-05-03T10:56:42.481Z</time></trkpt><trkpt lat="39.9857083" lon="15.7218217"><ele>436.66666666666663</ele><time>2026-05-03T10:56:43.482Z</time></trkpt><trkpt lat="39.9857583" lon="15.7215567"><ele>432.0</ele><time>2026-05-03T10:56:44.484Z</time></trkpt><trkpt lat="39.9857967" lon="15.7212933"><ele>428.33333333333337</ele><time>2026-05-03T10:56:45.48Z</time></trkpt><trkpt lat="39.9858233" lon="15.72104"><ele>424.6666666666667</ele><time>2026-05-03T10:56:46.481Z</time></trkpt><trkpt lat="39.9858483" lon="15.720795"><ele>421.0</ele><time>2026-05-03T10:56:47.48Z</time></trkpt><trkpt lat="39.9858783" lon="15.72056"><ele>435.0</ele><time>2026-05-03T10:56:48.481Z</time></trkpt><trkpt lat="39.9859133" lon="15.7203317"><ele>449.0</ele><time>2026-05-03T10:56:49.482Z</time></trkpt><trkpt lat="39.9859467" lon="15.720115"><ele>463.0</ele><time>2026-05-03T10:56:50.482Z</time></trkpt><trkpt lat="39.9859783" lon="15.7199017"><ele>463.0</ele><time>2026-05-03T10:56:51.481Z</time></trkpt><trkpt lat="39.986015" lon="15.7196983"><ele>463.0</ele><time>2026-05-03T10:56:52.482Z</time></trkpt><trkpt lat="39.9860617" lon="15.7195083"><ele>463.0</ele><time>2026-05-03T10:56:53.481Z</time></trkpt><trkpt lat="39.9861183" lon="15.7193383"><ele>456.25</ele><time>2026-05-03T10:56:54.483Z</time></trkpt><trkpt lat="39.9861883" lon="15.719185"><ele>449.5</ele><time>2026-05-03T10:56:55.481Z</time></trkpt><trkpt lat="39.9862783" lon="15.7190533"><ele>442.75</ele><time>2026-05-03T10:56:56.483Z</time></trkpt><trkpt lat="39.986385" lon="15.718925"><ele>436.0</ele><time>2026-05-03T10:56:57.481Z</time></trkpt><trkpt lat="39.9864883" lon="15.7187933"><ele>436.0</ele><time>2026-05-03T10:56:58.48Z</time></trkpt><trkpt lat="39.9865767" lon="15.7186633"><ele>436.0</ele><time>2026-05-03T10:56:59.482Z</time></trkpt><trkpt lat="39.9866467" lon="15.7185367"><ele>436.0</ele><time>2026-05-03T10:57:00.482Z</time></trkpt><trkpt lat="39.986705" lon="15.7184083"><ele>436.0</ele><time>2026-05-03T10:57:01.481Z</time></trkpt><trkpt lat="39.9867633" lon="15.7182883"><ele>433.75</ele><time>2026-05-03T10:57:02.483Z</time></trkpt><trkpt lat="39.9868417" lon="15.7181883"><ele>431.5</ele><time>2026-05-03T10:57:03.482Z</time></trkpt><trkpt lat="39.9869367" lon="15.71812"><ele>429.25</ele><time>2026-05-03T10:57:04.482Z</time></trkpt><trkpt lat="39.98705" lon="15.718085"><ele>427.0</ele><time>2026-05-03T10:57:05.481Z</time></trkpt><trkpt lat="39.9871833" lon="15.7180867"><ele>427.0</ele><time>2026-05-03T10:57:06.482Z</time></trkpt><trkpt lat="39.9873183" lon="15.7181"><ele>427.0</ele><time>2026-05-03T10:57:07.481Z</time></trkpt><trkpt lat="39.9874617" lon="15.7180983"><ele>427.0</ele><time>2026-05-03T10:57:08.482Z</time></trkpt><trkpt lat="39.98761" lon="15.718075"><ele>427.0</ele><time>2026-05-03T10:57:09.48Z</time></trkpt><trkpt lat="39.987755" lon="15.7180417"><ele>426.25</ele><time>2026-05-03T10:57:10.482Z</time></trkpt><trkpt lat="39.9878983" lon="15.7180083"><ele>425.5</ele><time>2026-05-03T10:57:11.481Z</time></trkpt><trkpt lat="39.98804" lon="15.7179767"><ele>424.75</ele><time>2026-05-03T10:57:12.482Z</time></trkpt><trkpt lat="39.9881817" lon="15.7179483"><ele>424.0</ele><time>2026-05-03T10:57:13.481Z</time></trkpt><trkpt lat="39.9883267" lon="15.7179083"><ele>428.0</ele><time>2026-05-03T10:57:14.481Z</time></trkpt><trkpt lat="39.98848" lon="15.7178633"><ele>432.0</ele><time>2026-05-03T10:57:15.481Z</time></trkpt><trkpt lat="39.9886417" lon="15.7178183"><ele>436.0</ele><time>2026-05-03T10:57:16.482Z</time></trkpt><trkpt lat="39.9888" lon="15.7177617"><ele>421.0</ele><time>2026-05-03T10:57:17.48Z</time></trkpt><trkpt lat="39.9889533" lon="15.7176967"><ele>406.0</ele><time>2026-05-03T10:57:18.481Z</time></trkpt><trkpt lat="39.9891" lon="15.7176233"><ele>391.0</ele><time>2026-05-03T10:57:19.482Z</time></trkpt><trkpt lat="39.989225" lon="15.7175383"><ele>391.0</ele><time>2026-05-03T10:57:20.482Z</time></trkpt><trkpt lat="39.9893283" lon="15.7174517"><ele>391.0</ele><time>2026-05-03T10:57:21.482Z</time></trkpt><trkpt lat="39.9894217" lon="15.7173733"><ele>391.0</ele><time>2026-05-03T10:57:22.482Z</time></trkpt><trkpt lat="39.9895217" lon="15.71731"><ele>391.0</ele><time>2026-05-03T10:57:23.481Z</time></trkpt><trkpt lat="39.989625" lon="15.71728"><ele>391.0</ele><time>2026-05-03T10:57:24.482Z</time></trkpt><trkpt lat="39.9897483" lon="15.7172867"><ele>391.0</ele><time>2026-05-03T10:57:25.481Z</time></trkpt><trkpt lat="39.9898967" lon="15.7173183"><ele>391.0</ele><time>2026-05-03T10:57:26.483Z</time></trkpt><trkpt lat="39.990065" lon="15.7173433"><ele>391.0</ele><time>2026-05-03T10:57:27.481Z</time></trkpt><trkpt lat="39.9902383" lon="15.7173383"><ele>386.33333333333337</ele><time>2026-05-03T10:57:28.482Z</time></trkpt><trkpt lat="39.9904067" lon="15.717325"><ele>381.6666666666667</ele><time>2026-05-03T10:57:29.482Z</time></trkpt><trkpt lat="39.99057" lon="15.7173167"><ele>377.0</ele><time>2026-05-03T10:57:30.483Z</time></trkpt><trkpt lat="39.9907183" lon="15.7173233"><ele>369.75</ele><time>2026-05-03T10:57:31.48Z</time></trkpt><trkpt lat="39.990855" lon="15.7173417"><ele>362.5</ele><time>2026-05-03T10:57:32.482Z</time></trkpt><trkpt lat="39.9909767" lon="15.717385"><ele>355.25</ele><time>2026-05-03T10:57:33.482Z</time></trkpt><trkpt lat="39.991085" lon="15.71746"><ele>348.0</ele><time>2026-05-03T10:57:34.482Z</time></trkpt><trkpt lat="39.9911867" lon="15.7175717"><ele>348.0</ele><time>2026-05-03T10:57:35.482Z</time></trkpt><trkpt lat="39.9912817" lon="15.7177183"><ele>348.0</ele><time>2026-05-03T10:57:36.481Z</time></trkpt><trkpt lat="39.99137" lon="15.7178817"><ele>348.0</ele><time>2026-05-03T10:57:37.482Z</time></trkpt><trkpt lat="39.9914433" lon="15.718045"><ele>348.0</ele><time>2026-05-03T10:57:38.483Z</time></trkpt><trkpt lat="39.9915017" lon="15.7182083"><ele>350.59999999999997</ele><time>2026-05-03T10:57:39.481Z</time></trkpt><trkpt lat="39.991545" lon="15.7183667"><ele>353.2</ele><time>2026-05-03T10:57:40.482Z</time></trkpt><trkpt lat="39.9915733" lon="15.7185117"><ele>355.8</ele><time>2026-05-03T10:57:41.481Z</time></trkpt><trkpt lat="39.99159" lon="15.71864"><ele>358.4</ele><time>2026-05-03T10:57:42.482Z</time></trkpt><trkpt lat="39.9916133" lon="15.718745"><ele>361.0</ele><time>2026-05-03T10:57:43.481Z</time></trkpt><trkpt lat="39.9916467" lon="15.71883"><ele>353.16666666666663</ele><time>2026-05-03T10:57:44.482Z</time></trkpt><trkpt lat="39.9916933" lon="15.7188867"><ele>345.3333333333333</ele><time>2026-05-03T10:57:45.48Z</time></trkpt><trkpt lat="39.9918083" lon="15.7188433"><ele>337.5</ele><time>2026-05-03T10:57:47.481Z</time></trkpt><trkpt lat="39.9918433" lon="15.7187733"><ele>329.6666666666667</ele><time>2026-05-03T10:57:48.482Z</time></trkpt><trkpt lat="39.9918267" lon="15.718675"><ele>321.83333333333337</ele><time>2026-05-03T10:57:49.482Z</time></trkpt><trkpt lat="39.9917867" lon="15.718575"><ele>314.0</ele><time>2026-05-03T10:57:50.483Z</time></trkpt><trkpt lat="39.9917267" lon="15.7184533"><ele>325.75</ele><time>2026-05-03T10:57:51.482Z</time></trkpt><trkpt lat="39.9916617" lon="15.7183083"><ele>337.5</ele><time>2026-05-03T10:57:52.482Z</time></trkpt><trkpt lat="39.991605" lon="15.7181383"><ele>349.25</ele><time>2026-05-03T10:57:53.482Z</time></trkpt><trkpt lat="39.9915433" lon="15.7179483"><ele>361.0</ele><time>2026-05-03T10:57:54.481Z</time></trkpt><trkpt lat="39.9914817" lon="15.7177567"><ele>357.75</ele><time>2026-05-03T10:57:55.48Z</time></trkpt><trkpt lat="39.991425" lon="15.7175767"><ele>354.5</ele><time>2026-05-03T10:57:56.483Z</time></trkpt><trkpt lat="39.991375" lon="15.7174033"><ele>351.25</ele><time>2026-05-03T10:57:57.482Z</time></trkpt><trkpt lat="39.99133" lon="15.71725"><ele>348.0</ele><time>2026-05-03T10:57:58.482Z</time></trkpt><trkpt lat="39.9912767" lon="15.7171317"><ele>348.0</ele><time>2026-05-03T10:57:59.481Z</time></trkpt><trkpt lat="39.99122" lon="15.7170533"><ele>348.0</ele><time>2026-05-03T10:58:00.482Z</time></trkpt><trkpt lat="39.9911567" lon="15.7169283"><ele>348.0</ele><time>2026-05-03T10:58:02.482Z</time></trkpt><trkpt lat="39.9912417" lon="15.7168633"><ele>348.0</ele><time>2026-05-03T10:58:04.482Z</time></trkpt><trkpt lat="39.9913317" lon="15.71698"><ele>348.0</ele><time>2026-05-03T10:58:06.482Z</time></trkpt><trkpt lat="39.9913633" lon="15.7170867"><ele>348.0</ele><time>2026-05-03T10:58:07.481Z</time></trkpt><trkpt lat="39.991395" lon="15.71721"><ele>348.0</ele><time>2026-05-03T10:58:08.482Z</time></trkpt><trkpt lat="39.99146" lon="15.717375"><ele>348.0</ele><time>2026-05-03T10:58:09.481Z</time></trkpt><trkpt lat="39.991535" lon="15.71755"><ele>348.0</ele><time>2026-05-03T10:58:10.482Z</time></trkpt><trkpt lat="39.9916183" lon="15.7177217"><ele>338.25</ele><time>2026-05-03T10:58:11.482Z</time></trkpt><trkpt lat="39.9916967" lon="15.7178867"><ele>328.5</ele><time>2026-05-03T10:58:12.481Z</time></trkpt><trkpt lat="39.991765" lon="15.7180417"><ele>318.75</ele><time>2026-05-03T10:58:13.481Z</time></trkpt><trkpt lat="39.99182" lon="15.7181833"><ele>309.0</ele><time>2026-05-03T10:58:14.484Z</time></trkpt><trkpt lat="39.991875" lon="15.7183017"><ele>309.0</ele><time>2026-05-03T10:58:15.482Z</time></trkpt><trkpt lat="39.991925" lon="15.718395"><ele>309.0</ele><time>2026-05-03T10:58:16.482Z</time></trkpt><trkpt lat="39.9919717" lon="15.718465"><ele>309.0</ele><time>2026-05-03T10:58:17.482Z</time></trkpt><trkpt lat="39.9920767" lon="15.7184467"><ele>309.0</ele><time>2026-05-03T10:58:19.482Z</time></trkpt><trkpt lat="39.99209" lon="15.7182767"><ele>309.0</ele><time>2026-05-03T10:58:21.481Z</time></trkpt><trkpt lat="39.9920567" lon="15.71818"><ele>309.0</ele><time>2026-05-03T10:58:22.482Z</time></trkpt><trkpt lat="39.9919933" lon="15.7180733"><ele>309.0</ele><time>2026-05-03T10:58:23.482Z</time></trkpt><trkpt lat="39.991925" lon="15.71793"><ele>309.0</ele><time>2026-05-03T10:58:24.482Z</time></trkpt><trkpt lat="39.99186" lon="15.71775"><ele>309.0</ele><time>2026-05-03T10:58:25.482Z</time></trkpt><trkpt lat="39.9918033" lon="15.71754"><ele>313.6666666666667</ele><time>2026-05-03T10:58:26.483Z</time></trkpt><trkpt lat="39.9917417" lon="15.7173117"><ele>318.33333333333337</ele><time>2026-05-03T10:58:27.481Z</time></trkpt><trkpt lat="39.9916783" lon="15.7170817"><ele>323.0</ele><time>2026-05-03T10:58:28.482Z</time></trkpt><trkpt lat="39.99162" lon="15.716865"><ele>323.0</ele><time>2026-05-03T10:58:29.481Z</time></trkpt><trkpt lat="39.9915733" lon="15.7166583"><ele>323.0</ele><time>2026-05-03T10:58:30.482Z</time></trkpt><trkpt lat="39.9915267" lon="15.716475"><ele>323.0</ele><time>2026-05-03T10:58:31.482Z</time></trkpt><trkpt lat="39.991485" lon="15.7163033"><ele>323.0</ele><time>2026-05-03T10:58:32.482Z</time></trkpt><trkpt lat="39.9914383" lon="15.7161467"><ele>323.0</ele><time>2026-05-03T10:58:33.482Z</time></trkpt><trkpt lat="39.99137" lon="15.716015"><ele>323.0</ele><time>2026-05-03T10:58:34.482Z</time></trkpt><trkpt lat="39.991295" lon="15.715925"><ele>323.0</ele><time>2026-05-03T10:58:35.482Z</time></trkpt><trkpt lat="39.99122" lon="15.7158617"><ele>323.0</ele><time>2026-05-03T10:58:36.483Z</time></trkpt><trkpt lat="39.991155" lon="15.7158033"><ele>319.83333333333337</ele><time>2026-05-03T10:58:37.48Z</time></trkpt><trkpt lat="39.9911067" lon="15.71573"><ele>316.6666666666667</ele><time>2026-05-03T10:58:38.482Z</time></trkpt><trkpt lat="39.99117" lon="15.7156067"><ele>313.5</ele><time>2026-05-03T10:58:40.482Z</time></trkpt><trkpt lat="39.9912283" lon="15.715575"><ele>310.3333333333333</ele><time>2026-05-03T10:58:41.482Z</time></trkpt><trkpt lat="39.991295" lon="15.715615"><ele>307.16666666666663</ele><time>2026-05-03T10:58:42.482Z</time></trkpt><trkpt lat="39.9913583" lon="15.7156783"><ele>304.0</ele><time>2026-05-03T10:58:43.481Z</time></trkpt><trkpt lat="39.9914317" lon="15.7158283"><ele>304.0</ele><time>2026-05-03T10:58:44.483Z</time></trkpt><trkpt lat="39.9915133" lon="15.7159917"><ele>304.0</ele><time>2026-05-03T10:58:45.481Z</time></trkpt><trkpt lat="39.9916167" lon="15.7161833"><ele>304.0</ele><time>2026-05-03T10:58:46.482Z</time></trkpt><trkpt lat="39.991725" lon="15.7163983"><ele>299.66666666666663</ele><time>2026-05-03T10:58:47.483Z</time></trkpt><trkpt lat="39.991835" lon="15.7166283"><ele>295.3333333333333</ele><time>2026-05-03T10:58:48.484Z</time></trkpt><trkpt lat="39.9919383" lon="15.716865"><ele>291.0</ele><time>2026-05-03T10:58:49.481Z</time></trkpt><trkpt lat="39.99204" lon="15.71709"><ele>291.0</ele><time>2026-05-03T10:58:50.483Z</time></trkpt><trkpt lat="39.99214" lon="15.7172983"><ele>291.0</ele><time>2026-05-03T10:58:51.482Z</time></trkpt><trkpt lat="39.99223" lon="15.7174833"><ele>291.0</ele><time>2026-05-03T10:58:52.481Z</time></trkpt><trkpt lat="39.9923033" lon="15.7176483"><ele>294.6</ele><time>2026-05-03T10:58:53.482Z</time></trkpt><trkpt lat="39.9923533" lon="15.7177967"><ele>298.20000000000005</ele><time>2026-05-03T10:58:54.483Z</time></trkpt><trkpt lat="39.992395" lon="15.7179217"><ele>301.79999999999995</ele><time>2026-05-03T10:58:55.482Z</time></trkpt><trkpt lat="39.9924367" lon="15.71802"><ele>305.4</ele><time>2026-05-03T10:58:56.484Z</time></trkpt><trkpt lat="39.9924867" lon="15.7180717"><ele>309.0</ele><time>2026-05-03T10:58:57.481Z</time></trkpt><trkpt lat="39.9925733" lon="15.7179933"><ele>305.4</ele><time>2026-05-03T10:58:59.481Z</time></trkpt><trkpt lat="39.9925717" lon="15.7178983"><ele>301.79999999999995</ele><time>2026-05-03T10:59:00.482Z</time></trkpt><trkpt lat="39.99254" lon="15.7177917"><ele>298.20000000000005</ele><time>2026-05-03T10:59:01.482Z</time></trkpt><trkpt lat="39.99247" lon="15.7176633"><ele>294.6</ele><time>2026-05-03T10:59:02.483Z</time></trkpt><trkpt lat="39.9923883" lon="15.7175033"><ele>291.0</ele><time>2026-05-03T10:59:03.481Z</time></trkpt><trkpt lat="39.99232" lon="15.7173"><ele>291.0</ele><time>2026-05-03T10:59:04.483Z</time></trkpt><trkpt lat="39.9922633" lon="15.7170833"><ele>291.0</ele><time>2026-05-03T10:59:05.481Z</time></trkpt><trkpt lat="39.992215" lon="15.7168817"><ele>291.0</ele><time>2026-05-03T10:59:06.482Z</time></trkpt><trkpt lat="39.99216" lon="15.716715"><ele>288.5</ele><time>2026-05-03T10:59:07.483Z</time></trkpt><trkpt lat="39.9921033" lon="15.7165817"><ele>286.0</ele><time>2026-05-03T10:59:08.482Z</time></trkpt><trkpt lat="39.9920483" lon="15.7164733"><ele>283.5</ele><time>2026-05-03T10:59:09.481Z</time></trkpt><trkpt lat="39.99201" lon="15.7163783"><ele>281.0</ele><time>2026-05-03T10:59:10.483Z</time></trkpt><trkpt lat="39.9919983" lon="15.7162933"><ele>278.5</ele><time>2026-05-03T10:59:11.481Z</time></trkpt><trkpt lat="39.9920383" lon="15.7162083"><ele>276.0</ele><time>2026-05-03T10:59:13.482Z</time></trkpt><trkpt lat="39.9921083" lon="15.71627"><ele>276.0</ele><time>2026-05-03T10:59:15.481Z</time></trkpt><trkpt lat="39.9921583" lon="15.7164183"><ele>276.0</ele><time>2026-05-03T10:59:17.482Z</time></trkpt><trkpt lat="39.9921883" lon="15.716505"><ele>276.0</ele><time>2026-05-03T10:59:18.484Z</time></trkpt><trkpt lat="39.99223" lon="15.7165983"><ele>276.0</ele><time>2026-05-03T10:59:19.484Z</time></trkpt><trkpt lat="39.992285" lon="15.716715"><ele>276.0</ele><time>2026-05-03T10:59:20.485Z</time></trkpt><trkpt lat="39.99235" lon="15.7168583"><ele>279.75</ele><time>2026-05-03T10:59:21.484Z</time></trkpt><trkpt lat="39.9924267" lon="15.7170233"><ele>283.5</ele><time>2026-05-03T10:59:22.483Z</time></trkpt><trkpt lat="39.9925" lon="15.71719"><ele>287.25</ele><time>2026-05-03T10:59:23.483Z</time></trkpt><trkpt lat="39.9925733" lon="15.7173633"><ele>291.0</ele><time>2026-05-03T10:59:24.482Z</time></trkpt><trkpt lat="39.9926483" lon="15.7175333"><ele>283.75</ele><time>2026-05-03T10:59:25.482Z</time></trkpt><trkpt lat="39.9927133" lon="15.7176867"><ele>276.5</ele><time>2026-05-03T10:59:26.483Z</time></trkpt><trkpt lat="39.9927633" lon="15.7178267"><ele>269.25</ele><time>2026-05-03T10:59:27.481Z</time></trkpt><trkpt lat="39.9927983" lon="15.717955"><ele>262.0</ele><time>2026-05-03T10:59:28.482Z</time></trkpt><trkpt lat="39.9928267" lon="15.7180733"><ele>262.0</ele><time>2026-05-03T10:59:29.482Z</time></trkpt><trkpt lat="39.9928517" lon="15.718175"><ele>262.0</ele><time>2026-05-03T10:59:30.482Z</time></trkpt><trkpt lat="39.9928817" lon="15.7182483"><ele>262.0</ele><time>2026-05-03T10:59:31.482Z</time></trkpt><trkpt lat="39.992935" lon="15.718315"><ele>262.0</ele><time>2026-05-03T10:59:33.481Z</time></trkpt><trkpt lat="39.9929933" lon="15.7182817"><ele>262.0</ele><time>2026-05-03T10:59:35.481Z</time></trkpt><trkpt lat="39.9930083" lon="15.7181267"><ele>262.0</ele><time>2026-05-03T10:59:37.482Z</time></trkpt><trkpt lat="39.993" lon="15.7180033"><ele>262.0</ele><time>2026-05-03T10:59:38.483Z</time></trkpt><trkpt lat="39.9929667" lon="15.7178617"><ele>262.0</ele><time>2026-05-03T10:59:39.482Z</time></trkpt><trkpt lat="39.992925" lon="15.71773"><ele>262.0</ele><time>2026-05-03T10:59:40.481Z</time></trkpt><trkpt lat="39.9928833" lon="15.71761"><ele>262.0</ele><time>2026-05-03T10:59:41.482Z</time></trkpt><trkpt lat="39.9928433" lon="15.717485"><ele>262.0</ele><time>2026-05-03T10:59:42.481Z</time></trkpt><trkpt lat="39.9928017" lon="15.7173517"><ele>257.75</ele><time>2026-05-03T10:59:43.482Z</time></trkpt><trkpt lat="39.9927583" lon="15.7172083"><ele>253.5</ele><time>2026-05-03T10:59:44.483Z</time></trkpt><trkpt lat="39.9927217" lon="15.7170617"><ele>249.25</ele><time>2026-05-03T10:59:45.482Z</time></trkpt><trkpt lat="39.992685" lon="15.7169233"><ele>245.0</ele><time>2026-05-03T10:59:46.481Z</time></trkpt><trkpt lat="39.992645" lon="15.7167883"><ele>239.75</ele><time>2026-05-03T10:59:47.482Z</time></trkpt><trkpt lat="39.992605" lon="15.7166483"><ele>234.5</ele><time>2026-05-03T10:59:48.482Z</time></trkpt><trkpt lat="39.99256" lon="15.7165067"><ele>229.25</ele><time>2026-05-03T10:59:49.483Z</time></trkpt><trkpt lat="39.99251" lon="15.71637"><ele>224.0</ele><time>2026-05-03T10:59:50.483Z</time></trkpt><trkpt lat="39.9924567" lon="15.7162383"><ele>229.79999999999998</ele><time>2026-05-03T10:59:51.484Z</time></trkpt><trkpt lat="39.9924" lon="15.7161133"><ele>235.59999999999997</ele><time>2026-05-03T10:59:52.483Z</time></trkpt><trkpt lat="39.9923383" lon="15.715995"><ele>241.4</ele><time>2026-05-03T10:59:53.483Z</time></trkpt><trkpt lat="39.9922717" lon="15.7158833"><ele>247.2</ele><time>2026-05-03T10:59:54.483Z</time></trkpt><trkpt lat="39.9922067" lon="15.7157833"><ele>253.0</ele><time>2026-05-03T10:59:55.482Z</time></trkpt><trkpt lat="39.9921433" lon="15.7157"><ele>252.99999999999997</ele><time>2026-05-03T10:59:56.482Z</time></trkpt><trkpt lat="39.99209" lon="15.715625"><ele>253.0</ele><time>2026-05-03T10:59:57.482Z</time></trkpt><trkpt lat="39.992055" lon="15.7155"><ele>253.0</ele><time>2026-05-03T10:59:59.483Z</time></trkpt><trkpt lat="39.9921383" lon="15.71547"><ele>253.0</ele><time>2026-05-03T11:00:01.483Z</time></trkpt><trkpt lat="39.9921917" lon="15.7155267"><ele>252.99999999999997</ele><time>2026-05-03T11:00:02.483Z</time></trkpt><trkpt lat="39.9922383" lon="15.715605"><ele>253.0</ele><time>2026-05-03T11:00:03.482Z</time></trkpt><trkpt lat="39.9922867" lon="15.71571"><ele>253.0</ele><time>2026-05-03T11:00:04.482Z</time></trkpt><trkpt lat="39.9923417" lon="15.7158233"><ele>253.0</ele><time>2026-05-03T11:00:05.482Z</time></trkpt><trkpt lat="39.9924033" lon="15.71595"><ele>253.0</ele><time>2026-05-03T11:00:06.482Z</time></trkpt><trkpt lat="39.9924733" lon="15.7160817"><ele>253.0</ele><time>2026-05-03T11:00:07.483Z</time></trkpt><trkpt lat="39.9925533" lon="15.7162183"><ele>245.75</ele><time>2026-05-03T11:00:08.483Z</time></trkpt><trkpt lat="39.9926367" lon="15.7163567"><ele>238.5</ele><time>2026-05-03T11:00:09.482Z</time></trkpt><trkpt lat="39.9927217" lon="15.7165083"><ele>231.25</ele><time>2026-05-03T11:00:10.483Z</time></trkpt><trkpt lat="39.9928133" lon="15.71667"><ele>224.0</ele><time>2026-05-03T11:00:11.482Z</time></trkpt><trkpt lat="39.9928917" lon="15.71683"><ele>229.25</ele><time>2026-05-03T11:00:12.482Z</time></trkpt><trkpt lat="39.99296" lon="15.7169933"><ele>234.5</ele><time>2026-05-03T11:00:13.483Z</time></trkpt><trkpt lat="39.9930233" lon="15.7171567"><ele>239.75</ele><time>2026-05-03T11:00:14.483Z</time></trkpt><trkpt lat="39.9930917" lon="15.717325"><ele>245.0</ele><time>2026-05-03T11:00:15.482Z</time></trkpt><trkpt lat="39.9931567" lon="15.7175133"><ele>245.0</ele><time>2026-05-03T11:00:16.482Z</time></trkpt><trkpt lat="39.9932117" lon="15.71772"><ele>245.0</ele><time>2026-05-03T11:00:17.483Z</time></trkpt><trkpt lat="39.9932533" lon="15.7179283"><ele>245.0</ele><time>2026-05-03T11:00:18.482Z</time></trkpt><trkpt lat="39.993285" lon="15.71812"><ele>246.2</ele><time>2026-05-03T11:00:19.483Z</time></trkpt><trkpt lat="39.993315" lon="15.718285"><ele>247.4</ele><time>2026-05-03T11:00:20.483Z</time></trkpt><trkpt lat="39.9933417" lon="15.7184183"><ele>248.60000000000002</ele><time>2026-05-03T11:00:21.482Z</time></trkpt><trkpt lat="39.9933833" lon="15.7185217"><ele>249.8</ele><time>2026-05-03T11:00:22.483Z</time></trkpt><trkpt lat="39.9934217" lon="15.7185983"><ele>251.0</ele><time>2026-05-03T11:00:23.481Z</time></trkpt><trkpt lat="39.9934833" lon="15.7186233"><ele>251.00000000000003</ele><time>2026-05-03T11:00:24.482Z</time></trkpt><trkpt lat="39.993555" lon="15.7186183"><ele>251.0</ele><time>2026-05-03T11:00:25.482Z</time></trkpt><trkpt lat="39.9936367" lon="15.7185967"><ele>251.0</ele><time>2026-05-03T11:00:26.483Z</time></trkpt><trkpt lat="39.9937133" lon="15.71857"><ele>251.0</ele><time>2026-05-03T11:00:27.482Z</time></trkpt><trkpt lat="39.9937783" lon="15.7185467"><ele>251.00000000000003</ele><time>2026-05-03T11:00:28.483Z</time></trkpt><trkpt lat="39.9938967" lon="15.7185383"><ele>251.0</ele><time>2026-05-03T11:00:30.483Z</time></trkpt><trkpt lat="39.9940017" lon="15.7185833"><ele>251.0</ele><time>2026-05-03T11:00:32.484Z</time></trkpt><trkpt lat="39.9940717" lon="15.7186917"><ele>251.00000000000003</ele><time>2026-05-03T11:00:34.483Z</time></trkpt><trkpt lat="39.9941033" lon="15.7187667"><ele>251.00000000000003</ele><time>2026-05-03T11:00:35.482Z</time></trkpt><trkpt lat="39.9941417" lon="15.7188667"><ele>251.0</ele><time>2026-05-03T11:00:36.482Z</time></trkpt><trkpt lat="39.99418" lon="15.7189867"><ele>251.0</ele><time>2026-05-03T11:00:37.482Z</time></trkpt><trkpt lat="39.994215" lon="15.7191083"><ele>248.0</ele><time>2026-05-03T11:00:38.483Z</time></trkpt><trkpt lat="39.9942417" lon="15.7192233"><ele>245.00000000000003</ele><time>2026-05-03T11:00:39.482Z</time></trkpt><trkpt lat="39.9942633" lon="15.7193167"><ele>242.00000000000003</ele><time>2026-05-03T11:00:40.482Z</time></trkpt><trkpt lat="39.9942983" lon="15.71946"><ele>239.0</ele><time>2026-05-03T11:00:42.482Z</time></trkpt><trkpt lat="39.994345" lon="15.71959"><ele>236.0</ele><time>2026-05-03T11:00:44.484Z</time></trkpt><trkpt lat="39.9943783" lon="15.7196617"><ele>236.0</ele><time>2026-05-03T11:00:45.482Z</time></trkpt><trkpt lat="39.9944183" lon="15.71973"><ele>236.0</ele><time>2026-05-03T11:00:46.482Z</time></trkpt><trkpt lat="39.9944583" lon="15.7197983"><ele>236.0</ele><time>2026-05-03T11:00:47.484Z</time></trkpt><trkpt lat="39.9945083" lon="15.7198667"><ele>236.0</ele><time>2026-05-03T11:00:48.484Z</time></trkpt><trkpt lat="39.9945633" lon="15.7199367"><ele>236.0</ele><time>2026-05-03T11:00:49.483Z</time></trkpt><trkpt lat="39.994625" lon="15.7200067"><ele>236.0</ele><time>2026-05-03T11:00:50.484Z</time></trkpt><trkpt lat="39.99469" lon="15.72007"><ele>236.0</ele><time>2026-05-03T11:00:51.484Z</time></trkpt><trkpt lat="39.9947567" lon="15.7201267"><ele>236.0</ele><time>2026-05-03T11:00:52.484Z</time></trkpt><trkpt lat="39.9948233" lon="15.720175"><ele>236.0</ele><time>2026-05-03T11:00:53.484Z</time></trkpt><trkpt lat="39.9948883" lon="15.720205"><ele>236.0</ele><time>2026-05-03T11:00:54.484Z</time></trkpt><trkpt lat="39.99496" lon="15.7202167"><ele>236.0</ele><time>2026-05-03T11:00:55.484Z</time></trkpt><trkpt lat="39.9950333" lon="15.7202083"><ele>236.0</ele><time>2026-05-03T11:00:56.484Z</time></trkpt><trkpt lat="39.995105" lon="15.7201817"><ele>236.0</ele><time>2026-05-03T11:00:57.484Z</time></trkpt><trkpt lat="39.9951667" lon="15.7201233"><ele>236.0</ele><time>2026-05-03T11:00:58.485Z</time></trkpt><trkpt lat="39.9952283" lon="15.7200417"><ele>236.20000000000002</ele><time>2026-05-03T11:00:59.484Z</time></trkpt><trkpt lat="39.9952967" lon="15.7199367"><ele>236.40000000000003</ele><time>2026-05-03T11:01:00.484Z</time></trkpt><trkpt lat="39.9953733" lon="15.7198317"><ele>236.6</ele><time>2026-05-03T11:01:01.483Z</time></trkpt><trkpt lat="39.9954483" lon="15.7197417"><ele>236.8</ele><time>2026-05-03T11:01:02.485Z</time></trkpt><trkpt lat="39.9955217" lon="15.71967"><ele>237.0</ele><time>2026-05-03T11:01:03.484Z</time></trkpt><trkpt lat="39.9955917" lon="15.7196133"><ele>237.0</ele><time>2026-05-03T11:01:04.484Z</time></trkpt><trkpt lat="39.9956567" lon="15.7195683"><ele>237.0</ele><time>2026-05-03T11:01:05.483Z</time></trkpt><trkpt lat="39.995755" lon="15.7195267"><ele>237.0</ele><time>2026-05-03T11:01:07.484Z</time></trkpt><trkpt lat="39.995865" lon="15.7195017"><ele>237.0</ele><time>2026-05-03T11:01:09.484Z</time></trkpt><trkpt lat="39.99594" lon="15.71949"><ele>237.0</ele><time>2026-05-03T11:01:10.483Z</time></trkpt><trkpt lat="39.9960333" lon="15.7194817"><ele>236.25</ele><time>2026-05-03T11:01:11.484Z</time></trkpt><trkpt lat="39.996145" lon="15.7194733"><ele>235.5</ele><time>2026-05-03T11:01:12.485Z</time></trkpt><trkpt lat="39.996265" lon="15.7194583"><ele>234.75</ele><time>2026-05-03T11:01:13.483Z</time></trkpt><trkpt lat="39.9963783" lon="15.7194417"><ele>234.0</ele><time>2026-05-03T11:01:14.485Z</time></trkpt><trkpt lat="39.9964867" lon="15.719435"><ele>234.0</ele><time>2026-05-03T11:01:15.482Z</time></trkpt><trkpt lat="39.9965917" lon="15.719455"><ele>234.0</ele><time>2026-05-03T11:01:16.483Z</time></trkpt><trkpt lat="39.996695" lon="15.7195117"><ele>234.0</ele><time>2026-05-03T11:01:17.483Z</time></trkpt><trkpt lat="39.9967883" lon="15.7196117"><ele>234.0</ele><time>2026-05-03T11:01:18.484Z</time></trkpt><trkpt lat="39.99686" lon="15.7197367"><ele>231.75</ele><time>2026-05-03T11:01:19.483Z</time></trkpt><trkpt lat="39.9969383" lon="15.7198517"><ele>229.5</ele><time>2026-05-03T11:01:20.484Z</time></trkpt><trkpt lat="39.9970333" lon="15.7199317"><ele>227.25</ele><time>2026-05-03T11:01:21.483Z</time></trkpt><trkpt lat="39.9971433" lon="15.7199783"><ele>225.0</ele><time>2026-05-03T11:01:22.484Z</time></trkpt><trkpt lat="39.997275" lon="15.7199867"><ele>225.0</ele><time>2026-05-03T11:01:23.483Z</time></trkpt><trkpt lat="39.99742" lon="15.7199717"><ele>225.0</ele><time>2026-05-03T11:01:24.483Z</time></trkpt><trkpt lat="39.9975767" lon="15.7199467"><ele>225.0</ele><time>2026-05-03T11:01:25.483Z</time></trkpt><trkpt lat="39.9977283" lon="15.7199167"><ele>225.0</ele><time>2026-05-03T11:01:26.483Z</time></trkpt><trkpt lat="39.9978733" lon="15.7198867"><ele>225.0</ele><time>2026-05-03T11:01:27.483Z</time></trkpt><trkpt lat="39.9980133" lon="15.7198633"><ele>225.0</ele><time>2026-05-03T11:01:28.484Z</time></trkpt><trkpt lat="39.9981467" lon="15.7198383"><ele>225.0</ele><time>2026-05-03T11:01:29.483Z</time></trkpt><trkpt lat="39.99827" lon="15.7197917"><ele>225.25</ele><time>2026-05-03T11:01:30.484Z</time></trkpt><trkpt lat="39.9983783" lon="15.719725"><ele>225.5</ele><time>2026-05-03T11:01:31.483Z</time></trkpt><trkpt lat="39.99847" lon="15.7196367"><ele>225.75</ele><time>2026-05-03T11:01:32.484Z</time></trkpt><trkpt lat="39.9985383" lon="15.719525"><ele>226.0</ele><time>2026-05-03T11:01:33.483Z</time></trkpt><trkpt lat="39.99857" lon="15.7193883"><ele>224.8</ele><time>2026-05-03T11:01:34.483Z</time></trkpt><trkpt lat="39.998585" lon="15.7192483"><ele>223.60000000000002</ele><time>2026-05-03T11:01:35.483Z</time></trkpt><trkpt lat="39.9985817" lon="15.71911"><ele>222.4</ele><time>2026-05-03T11:01:36.483Z</time></trkpt><trkpt lat="39.9985717" lon="15.7189833"><ele>221.2</ele><time>2026-05-03T11:01:37.482Z</time></trkpt><trkpt lat="39.9985617" lon="15.7188633"><ele>220.0</ele><time>2026-05-03T11:01:38.485Z</time></trkpt><trkpt lat="39.9985567" lon="15.7187583"><ele>220.0</ele><time>2026-05-03T11:01:39.484Z</time></trkpt><trkpt lat="39.998555" lon="15.7186733"><ele>220.0</ele><time>2026-05-03T11:01:40.484Z</time></trkpt><trkpt lat="39.9985633" lon="15.7185267"><ele>220.0</ele><time>2026-05-03T11:01:42.483Z</time></trkpt><trkpt lat="39.998595" lon="15.71835"><ele>220.0</ele><time>2026-05-03T11:01:44.484Z</time></trkpt><trkpt lat="39.9986183" lon="15.7182367"><ele>220.0</ele><time>2026-05-03T11:01:45.483Z</time></trkpt><trkpt lat="39.9986483" lon="15.7181267"><ele>219.0</ele><time>2026-05-03T11:01:46.482Z</time></trkpt><trkpt lat="39.998685" lon="15.7180217"><ele>218.0</ele><time>2026-05-03T11:01:47.482Z</time></trkpt><trkpt lat="39.998735" lon="15.7179217"><ele>217.0</ele><time>2026-05-03T11:01:48.483Z</time></trkpt><trkpt lat="39.9987983" lon="15.7178267"><ele>216.0</ele><time>2026-05-03T11:01:49.482Z</time></trkpt><trkpt lat="39.9988733" lon="15.71774"><ele>215.0</ele><time>2026-05-03T11:01:50.483Z</time></trkpt><trkpt lat="39.9989683" lon="15.7176567"><ele>212.75</ele><time>2026-05-03T11:01:51.483Z</time></trkpt><trkpt lat="39.99908" lon="15.71759"><ele>210.5</ele><time>2026-05-03T11:01:52.483Z</time></trkpt><trkpt lat="39.999195" lon="15.71755"><ele>208.25</ele><time>2026-05-03T11:01:53.481Z</time></trkpt><trkpt lat="39.9993183" lon="15.717545"><ele>206.0</ele><time>2026-05-03T11:01:54.482Z</time></trkpt><trkpt lat="39.99945" lon="15.7175633"><ele>205.20000000000002</ele><time>2026-05-03T11:01:55.482Z</time></trkpt><trkpt lat="39.9995733" lon="15.7176017"><ele>204.4</ele><time>2026-05-03T11:01:56.484Z</time></trkpt><trkpt lat="39.9996733" lon="15.7176383"><ele>203.6</ele><time>2026-05-03T11:01:57.482Z</time></trkpt><trkpt lat="39.9997567" lon="15.7176683"><ele>202.8</ele><time>2026-05-03T11:01:58.483Z</time></trkpt><trkpt lat="39.99983" lon="15.717695"><ele>202.0</ele><time>2026-05-03T11:01:59.482Z</time></trkpt><trkpt lat="39.9999" lon="15.71771"><ele>201.99999999999997</ele><time>2026-05-03T11:02:00.482Z</time></trkpt><trkpt lat="40.00001" lon="15.7176633"><ele>202.0</ele><time>2026-05-03T11:02:02.483Z</time></trkpt><trkpt lat="40.0000417" lon="15.717525"><ele>202.0</ele><time>2026-05-03T11:02:04.481Z</time></trkpt><trkpt lat="40.0000117" lon="15.7174383"><ele>202.0</ele><time>2026-05-03T11:02:05.483Z</time></trkpt><trkpt lat="39.9999667" lon="15.7173633"><ele>201.99999999999997</ele><time>2026-05-03T11:02:06.482Z</time></trkpt><trkpt lat="39.9999067" lon="15.7173033"><ele>202.0</ele><time>2026-05-03T11:02:07.482Z</time></trkpt><trkpt lat="39.9998383" lon="15.7172517"><ele>202.0</ele><time>2026-05-03T11:02:08.482Z</time></trkpt><trkpt lat="39.9997733" lon="15.71721"><ele>202.0</ele><time>2026-05-03T11:02:09.482Z</time></trkpt><trkpt lat="39.9997067" lon="15.7171717"><ele>202.0</ele><time>2026-05-03T11:02:10.483Z</time></trkpt><trkpt lat="39.9996417" lon="15.717135"><ele>202.0</ele><time>2026-05-03T11:02:11.482Z</time></trkpt><trkpt lat="39.9995783" lon="15.7170967"><ele>202.0</ele><time>2026-05-03T11:02:12.481Z</time></trkpt><trkpt lat="39.999515" lon="15.7170583"><ele>202.0</ele><time>2026-05-03T11:02:13.482Z</time></trkpt><trkpt lat="39.9994567" lon="15.7170117"><ele>202.0</ele><time>2026-05-03T11:02:14.483Z</time></trkpt><trkpt lat="39.9993967" lon="15.7169567"><ele>200.83333333333331</ele><time>2026-05-03T11:02:15.482Z</time></trkpt><trkpt lat="39.999335" lon="15.716895"><ele>199.66666666666666</ele><time>2026-05-03T11:02:16.482Z</time></trkpt><trkpt lat="39.99927" lon="15.7168233"><ele>198.5</ele><time>2026-05-03T11:02:17.481Z</time></trkpt><trkpt lat="39.9992067" lon="15.71675"><ele>197.33333333333331</ele><time>2026-05-03T11:02:18.483Z</time></trkpt><trkpt lat="39.999145" lon="15.71668"><ele>196.16666666666666</ele><time>2026-05-03T11:02:19.481Z</time></trkpt><trkpt lat="39.999085" lon="15.7166067"><ele>195.0</ele><time>2026-05-03T11:02:20.483Z</time></trkpt><trkpt lat="39.99902" lon="15.716545"><ele>195.0</ele><time>2026-05-03T11:02:21.482Z</time></trkpt><trkpt lat="39.998955" lon="15.7165"><ele>195.0</ele><time>2026-05-03T11:02:22.482Z</time></trkpt><trkpt lat="39.9988883" lon="15.7164667"><ele>195.0</ele><time>2026-05-03T11:02:23.482Z</time></trkpt><trkpt lat="39.9988167" lon="15.7164517"><ele>195.0</ele><time>2026-05-03T11:02:24.483Z</time></trkpt><trkpt lat="39.9987333" lon="15.7164633"><ele>195.0</ele><time>2026-05-03T11:02:25.483Z</time></trkpt><trkpt lat="39.9986433" lon="15.7164817"><ele>195.0</ele><time>2026-05-03T11:02:26.483Z</time></trkpt><trkpt lat="39.998555" lon="15.7165033"><ele>195.0</ele><time>2026-05-03T11:02:27.482Z</time></trkpt><trkpt lat="39.9984783" lon="15.71652"><ele>195.0</ele><time>2026-05-03T11:02:28.483Z</time></trkpt><trkpt lat="39.9984083" lon="15.71653"><ele>195.0</ele><time>2026-05-03T11:02:29.483Z</time></trkpt><trkpt lat="39.99834" lon="15.7165333"><ele>195.0</ele><time>2026-05-03T11:02:30.483Z</time></trkpt><trkpt lat="39.9982667" lon="15.7165267"><ele>195.0</ele><time>2026-05-03T11:02:31.483Z</time></trkpt><trkpt lat="39.998175" lon="15.716515"><ele>195.0</ele><time>2026-05-03T11:02:32.483Z</time></trkpt><trkpt lat="39.99806" lon="15.7164983"><ele>194.4</ele><time>2026-05-03T11:02:33.483Z</time></trkpt><trkpt lat="39.9979433" lon="15.7164767"><ele>193.8</ele><time>2026-05-03T11:02:34.482Z</time></trkpt><trkpt lat="39.9978317" lon="15.7164567"><ele>193.2</ele><time>2026-05-03T11:02:35.482Z</time></trkpt><trkpt lat="39.9977267" lon="15.7164517"><ele>192.6</ele><time>2026-05-03T11:02:36.482Z</time></trkpt><trkpt lat="39.9976267" lon="15.7164433"><ele>192.0</ele><time>2026-05-03T11:02:37.483Z</time></trkpt><trkpt lat="39.9975333" lon="15.7164567"><ele>191.66666666666666</ele><time>2026-05-03T11:02:38.482Z</time></trkpt><trkpt lat="39.997445" lon="15.7164783"><ele>191.33333333333334</ele><time>2026-05-03T11:02:39.482Z</time></trkpt><trkpt lat="39.9973583" lon="15.7164967"><ele>191.0</ele><time>2026-05-03T11:02:40.482Z</time></trkpt><trkpt lat="39.997275" lon="15.716505"><ele>190.66666666666669</ele><time>2026-05-03T11:02:41.483Z</time></trkpt><trkpt lat="39.997195" lon="15.716505"><ele>190.33333333333334</ele><time>2026-05-03T11:02:42.482Z</time></trkpt><trkpt lat="39.9971167" lon="15.7164967"><ele>190.0</ele><time>2026-05-03T11:02:43.482Z</time></trkpt><trkpt lat="39.9970383" lon="15.7164983"><ele>190.0</ele><time>2026-05-03T11:02:44.483Z</time></trkpt><trkpt lat="39.99695" lon="15.7165083"><ele>190.0</ele><time>2026-05-03T11:02:45.481Z</time></trkpt><trkpt lat="39.996835" lon="15.7165283"><ele>190.0</ele><time>2026-05-03T11:02:46.482Z</time></trkpt><trkpt lat="39.99671" lon="15.7165483"><ele>190.0</ele><time>2026-05-03T11:02:47.481Z</time></trkpt><trkpt lat="39.9965883" lon="15.7165683"><ele>188.4</ele><time>2026-05-03T11:02:48.48Z</time></trkpt><trkpt lat="39.996475" lon="15.716575"><ele>186.8</ele><time>2026-05-03T11:02:49.481Z</time></trkpt><trkpt lat="39.99637" lon="15.7165617"><ele>185.2</ele><time>2026-05-03T11:02:50.48Z</time></trkpt><trkpt lat="39.9962817" lon="15.7165417"><ele>183.6</ele><time>2026-05-03T11:02:51.481Z</time></trkpt><trkpt lat="39.9962067" lon="15.7165233"><ele>182.0</ele><time>2026-05-03T11:02:52.482Z</time></trkpt><trkpt lat="39.9961383" lon="15.7165317"><ele>182.0</ele><time>2026-05-03T11:02:53.48Z</time></trkpt><trkpt lat="39.996075" lon="15.7165683"><ele>182.0</ele><time>2026-05-03T11:02:54.481Z</time></trkpt><trkpt lat="39.996015" lon="15.7166283"><ele>182.0</ele><time>2026-05-03T11:02:55.481Z</time></trkpt><trkpt lat="39.9959533" lon="15.7166917"><ele>182.0</ele><time>2026-05-03T11:02:56.482Z</time></trkpt><trkpt lat="39.9958867" lon="15.71675"><ele>182.0</ele><time>2026-05-03T11:02:57.481Z</time></trkpt><trkpt lat="39.9958133" lon="15.7167917"><ele>182.0</ele><time>2026-05-03T11:02:58.482Z</time></trkpt><trkpt lat="39.99573" lon="15.7168167"><ele>181.0</ele><time>2026-05-03T11:02:59.481Z</time></trkpt><trkpt lat="39.995645" lon="15.7168267"><ele>180.0</ele><time>2026-05-03T11:03:00.481Z</time></trkpt><trkpt lat="39.9955617" lon="15.71682"><ele>179.0</ele><time>2026-05-03T11:03:01.481Z</time></trkpt><trkpt lat="39.9954733" lon="15.7168083"><ele>178.0</ele><time>2026-05-03T11:03:02.482Z</time></trkpt><trkpt lat="39.9953733" lon="15.71679"><ele>177.0</ele><time>2026-05-03T11:03:03.481Z</time></trkpt><trkpt lat="39.9952583" lon="15.71676"><ele>177.0</ele><time>2026-05-03T11:03:04.482Z</time></trkpt><trkpt lat="39.9951317" lon="15.71672"><ele>177.0</ele><time>2026-05-03T11:03:05.481Z</time></trkpt><trkpt lat="39.9949933" lon="15.7166717"><ele>177.0</ele><time>2026-05-03T11:03:06.481Z</time></trkpt><trkpt lat="39.9948533" lon="15.71662"><ele>177.0</ele><time>2026-05-03T11:03:07.481Z</time></trkpt><trkpt lat="39.994715" lon="15.716575"><ele>175.75</ele><time>2026-05-03T11:03:08.483Z</time></trkpt><trkpt lat="39.99458" lon="15.71654"><ele>174.5</ele><time>2026-05-03T11:03:09.481Z</time></trkpt><trkpt lat="39.9944533" lon="15.716505"><ele>173.25</ele><time>2026-05-03T11:03:10.481Z</time></trkpt><trkpt lat="39.99434" lon="15.716455"><ele>172.0</ele><time>2026-05-03T11:03:11.484Z</time></trkpt><trkpt lat="39.9942383" lon="15.716375"><ele>170.25</ele><time>2026-05-03T11:03:12.482Z</time></trkpt><trkpt lat="39.99415" lon="15.7162667"><ele>168.5</ele><time>2026-05-03T11:03:13.48Z</time></trkpt><trkpt lat="39.9940783" lon="15.7161317"><ele>166.75</ele><time>2026-05-03T11:03:14.482Z</time></trkpt><trkpt lat="39.9940183" lon="15.7159833"><ele>165.0</ele><time>2026-05-03T11:03:15.481Z</time></trkpt><trkpt lat="39.9939733" lon="15.7158333"><ele>165.0</ele><time>2026-05-03T11:03:16.481Z</time></trkpt><trkpt lat="39.9939517" lon="15.7156767"><ele>165.0</ele><time>2026-05-03T11:03:17.481Z</time></trkpt><trkpt lat="39.9939483" lon="15.7155167"><ele>165.0</ele><time>2026-05-03T11:03:18.481Z</time></trkpt><trkpt lat="39.9939533" lon="15.7153633"><ele>165.0</ele><time>2026-05-03T11:03:19.482Z</time></trkpt><trkpt lat="39.99396" lon="15.7152267"><ele>164.83333333333334</ele><time>2026-05-03T11:03:20.483Z</time></trkpt><trkpt lat="39.9939633" lon="15.7151133"><ele>164.66666666666666</ele><time>2026-05-03T11:03:21.486Z</time></trkpt><trkpt lat="39.9939667" lon="15.7150217"><ele>164.5</ele><time>2026-05-03T11:03:22.481Z</time></trkpt><trkpt lat="39.9939717" lon="15.7148733"><ele>164.33333333333331</ele><time>2026-05-03T11:03:24.482Z</time></trkpt><trkpt lat="39.9939833" lon="15.7147383"><ele>164.16666666666666</ele><time>2026-05-03T11:03:26.483Z</time></trkpt><trkpt lat="39.99399" lon="15.7146533"><ele>164.0</ele><time>2026-05-03T11:03:27.483Z</time></trkpt><trkpt lat="39.9939933" lon="15.7145567"><ele>163.99999999999997</ele><time>2026-05-03T11:03:28.482Z</time></trkpt><trkpt lat="39.993995" lon="15.7144617"><ele>164.0</ele><time>2026-05-03T11:03:29.483Z</time></trkpt><trkpt lat="39.9940017" lon="15.7143733"><ele>164.0</ele><time>2026-05-03T11:03:30.483Z</time></trkpt><trkpt lat="39.9940083" lon="15.71429"><ele>164.0</ele><time>2026-05-03T11:03:31.482Z</time></trkpt><trkpt lat="39.9940217" lon="15.7142017"><ele>164.0</ele><time>2026-05-03T11:03:32.483Z</time></trkpt><trkpt lat="39.9940417" lon="15.7141083"><ele>163.99999999999997</ele><time>2026-05-03T11:03:33.482Z</time></trkpt><trkpt lat="39.9940717" lon="15.7140167"><ele>164.0</ele><time>2026-05-03T11:03:34.482Z</time></trkpt><trkpt lat="39.9941067" lon="15.7139383"><ele>163.33333333333331</ele><time>2026-05-03T11:03:35.482Z</time></trkpt><trkpt lat="39.9941483" lon="15.7138633"><ele>162.66666666666666</ele><time>2026-05-03T11:03:36.482Z</time></trkpt><trkpt lat="39.9941967" lon="15.7137967"><ele>162.0</ele><time>2026-05-03T11:03:37.48Z</time></trkpt><trkpt lat="39.9942467" lon="15.713735"><ele>161.33333333333334</ele><time>2026-05-03T11:03:38.482Z</time></trkpt><trkpt lat="39.99434" lon="15.71366"><ele>160.66666666666669</ele><time>2026-05-03T11:03:40.482Z</time></trkpt><trkpt lat="39.9944433" lon="15.7136833"><ele>160.0</ele><time>2026-05-03T11:03:42.481Z</time></trkpt><trkpt lat="39.9944933" lon="15.7137417"><ele>160.0</ele><time>2026-05-03T11:03:43.48Z</time></trkpt><trkpt lat="39.994545" lon="15.7138083"><ele>160.0</ele><time>2026-05-03T11:03:44.482Z</time></trkpt><trkpt lat="39.9945967" lon="15.71387"><ele>160.0</ele><time>2026-05-03T11:03:45.481Z</time></trkpt><trkpt lat="39.9946567" lon="15.7139083"><ele>160.0</ele><time>2026-05-03T11:03:46.48Z</time></trkpt><trkpt lat="39.9947233" lon="15.7139333"><ele>160.0</ele><time>2026-05-03T11:03:47.481Z</time></trkpt><trkpt lat="39.9947983" lon="15.71395"><ele>160.0</ele><time>2026-05-03T11:03:48.48Z</time></trkpt><trkpt lat="39.9948733" lon="15.71396"><ele>160.0</ele><time>2026-05-03T11:03:49.482Z</time></trkpt><trkpt lat="39.9949467" lon="15.713955"><ele>158.8</ele><time>2026-05-03T11:03:50.481Z</time></trkpt><trkpt lat="39.9950133" lon="15.713935"><ele>157.6</ele><time>2026-05-03T11:03:51.481Z</time></trkpt><trkpt lat="39.99508" lon="15.71389"><ele>156.4</ele><time>2026-05-03T11:03:52.481Z</time></trkpt><trkpt lat="39.9951533" lon="15.7138167"><ele>155.2</ele><time>2026-05-03T11:03:53.481Z</time></trkpt><trkpt lat="39.9952333" lon="15.7137167"><ele>154.0</ele><time>2026-05-03T11:03:54.482Z</time></trkpt><trkpt lat="39.995315" lon="15.7135683"><ele>152.0</ele><time>2026-05-03T11:03:55.48Z</time></trkpt><trkpt lat="39.9953883" lon="15.7134283"><ele>150.0</ele><time>2026-05-03T11:03:56.482Z</time></trkpt><trkpt lat="39.99546" lon="15.7133233"><ele>148.0</ele><time>2026-05-03T11:03:57.481Z</time></trkpt><trkpt lat="39.9955467" lon="15.7132567"><ele>146.0</ele><time>2026-05-03T11:03:58.481Z</time></trkpt><trkpt lat="39.9956283" lon="15.7132533"><ele>144.0</ele><time>2026-05-03T11:03:59.481Z</time></trkpt><trkpt lat="39.99573" lon="15.7133283"><ele>144.5</ele><time>2026-05-03T11:04:00.481Z</time></trkpt><trkpt lat="39.9958433" lon="15.71339"><ele>145.0</ele><time>2026-05-03T11:04:01.48Z</time></trkpt><trkpt lat="39.9959717" lon="15.7134133"><ele>145.5</ele><time>2026-05-03T11:04:02.481Z</time></trkpt><trkpt lat="39.9961183" lon="15.713375"><ele>146.0</ele><time>2026-05-03T11:04:03.481Z</time></trkpt><trkpt lat="39.9962633" lon="15.713295"><ele>146.0</ele><time>2026-05-03T11:04:04.482Z</time></trkpt><trkpt lat="39.99641" lon="15.7132183"><ele>146.0</ele><time>2026-05-03T11:04:05.482Z</time></trkpt><trkpt lat="39.9965517" lon="15.7131567"><ele>146.0</ele><time>2026-05-03T11:04:06.483Z</time></trkpt><trkpt lat="39.9966983" lon="15.7131167"><ele>149.0</ele><time>2026-05-03T11:04:07.481Z</time></trkpt><trkpt lat="39.9968483" lon="15.7130883"><ele>152.0</ele><time>2026-05-03T11:04:08.481Z</time></trkpt><trkpt lat="39.9969933" lon="15.7130433"><ele>155.0</ele><time>2026-05-03T11:04:09.48Z</time></trkpt><trkpt lat="39.99713" lon="15.7129617"><ele>155.0</ele><time>2026-05-03T11:04:10.482Z</time></trkpt><trkpt lat="39.9972583" lon="15.7128467"><ele>155.0</ele><time>2026-05-03T11:04:11.48Z</time></trkpt><trkpt lat="39.9973817" lon="15.7127167"><ele>155.0</ele><time>2026-05-03T11:04:12.481Z</time></trkpt><trkpt lat="39.9975033" lon="15.712575"><ele>153.0</ele><time>2026-05-03T11:04:13.481Z</time></trkpt><trkpt lat="39.9976233" lon="15.7124217"><ele>151.0</ele><time>2026-05-03T11:04:14.482Z</time></trkpt><trkpt lat="39.99773" lon="15.7122567"><ele>149.0</ele><time>2026-05-03T11:04:15.48Z</time></trkpt><trkpt lat="39.9978283" lon="15.7120867"><ele>149.0</ele><time>2026-05-03T11:04:16.481Z</time></trkpt><trkpt lat="39.9979083" lon="15.7119267"><ele>149.0</ele><time>2026-05-03T11:04:17.48Z</time></trkpt><trkpt lat="39.9979583" lon="15.71178"><ele>149.0</ele><time>2026-05-03T11:04:18.481Z</time></trkpt><trkpt lat="39.99797" lon="15.7116367"><ele>149.0</ele><time>2026-05-03T11:04:19.482Z</time></trkpt><trkpt lat="39.99795" lon="15.7114883"><ele>145.5</ele><time>2026-05-03T11:04:20.482Z</time></trkpt><trkpt lat="39.9979017" lon="15.7113333"><ele>142.0</ele><time>2026-05-03T11:04:21.481Z</time></trkpt><trkpt lat="39.9978383" lon="15.7111683"><ele>138.5</ele><time>2026-05-03T11:04:22.481Z</time></trkpt><trkpt lat="39.99776" lon="15.7109983"><ele>135.0</ele><time>2026-05-03T11:04:23.481Z</time></trkpt><trkpt lat="39.997665" lon="15.710835"><ele>132.75</ele><time>2026-05-03T11:04:24.481Z</time></trkpt><trkpt lat="39.9975717" lon="15.7106867"><ele>130.5</ele><time>2026-05-03T11:04:25.48Z</time></trkpt><trkpt lat="39.99749" lon="15.710565"><ele>128.25</ele><time>2026-05-03T11:04:26.482Z</time></trkpt><trkpt lat="39.997415" lon="15.7104567"><ele>126.0</ele><time>2026-05-03T11:04:27.481Z</time></trkpt><trkpt lat="39.99733" lon="15.7103433"><ele>123.75</ele><time>2026-05-03T11:04:28.481Z</time></trkpt><trkpt lat="39.9972333" lon="15.7102367"><ele>121.5</ele><time>2026-05-03T11:04:29.481Z</time></trkpt><trkpt lat="39.9971233" lon="15.71013"><ele>119.25</ele><time>2026-05-03T11:04:30.481Z</time></trkpt><trkpt lat="39.9970183" lon="15.7100217"><ele>117.0</ele><time>2026-05-03T11:04:31.48Z</time></trkpt><trkpt lat="39.9969167" lon="15.70992"><ele>117.0</ele><time>2026-05-03T11:04:32.483Z</time></trkpt><trkpt lat="39.9968117" lon="15.7098167"><ele>117.0</ele><time>2026-05-03T11:04:33.481Z</time></trkpt><trkpt lat="39.9966967" lon="15.709715"><ele>117.0</ele><time>2026-05-03T11:04:34.482Z</time></trkpt><trkpt lat="39.9965783" lon="15.7096167"><ele>117.0</ele><time>2026-05-03T11:04:35.481Z</time></trkpt><trkpt lat="39.996455" lon="15.7095183"><ele>115.5</ele><time>2026-05-03T11:04:36.48Z</time></trkpt><trkpt lat="39.996325" lon="15.7094233"><ele>114.0</ele><time>2026-05-03T11:04:37.482Z</time></trkpt><trkpt lat="39.9961967" lon="15.7093317"><ele>112.5</ele><time>2026-05-03T11:04:38.481Z</time></trkpt><trkpt lat="39.9960717" lon="15.7092567"><ele>111.0</ele><time>2026-05-03T11:04:39.481Z</time></trkpt><trkpt lat="39.9959517" lon="15.7092"><ele>110.0</ele><time>2026-05-03T11:04:40.481Z</time></trkpt><trkpt lat="39.99583" lon="15.709155"><ele>109.0</ele><time>2026-05-03T11:04:41.481Z</time></trkpt><trkpt lat="39.995705" lon="15.7091083"><ele>108.0</ele><time>2026-05-03T11:04:42.481Z</time></trkpt><trkpt lat="39.9955883" lon="15.709035"><ele>107.0</ele><time>2026-05-03T11:04:43.48Z</time></trkpt><trkpt lat="39.9954667" lon="15.7089517"><ele>107.0</ele><time>2026-05-03T11:04:44.482Z</time></trkpt><trkpt lat="39.99535" lon="15.7088383"><ele>107.0</ele><time>2026-05-03T11:04:45.48Z</time></trkpt><trkpt lat="39.9952333" lon="15.7087183"><ele>107.0</ele><time>2026-05-03T11:04:46.482Z</time></trkpt><trkpt lat="39.9951183" lon="15.7086"><ele>107.0</ele><time>2026-05-03T11:04:47.483Z</time></trkpt><trkpt lat="39.995" lon="15.708495"><ele>106.25</ele><time>2026-05-03T11:04:48.483Z</time></trkpt><trkpt lat="39.9948817" lon="15.7084033"><ele>105.5</ele><time>2026-05-03T11:04:49.483Z</time></trkpt><trkpt lat="39.9947667" lon="15.708325"><ele>104.75</ele><time>2026-05-03T11:04:50.483Z</time></trkpt><trkpt lat="39.9946583" lon="15.7082467"><ele>104.0</ele><time>2026-05-03T11:04:51.483Z</time></trkpt><trkpt lat="39.9945583" lon="15.7081717"><ele>104.0</ele><time>2026-05-03T11:04:52.481Z</time></trkpt><trkpt lat="39.9944667" lon="15.7080933"><ele>104.0</ele><time>2026-05-03T11:04:53.482Z</time></trkpt><trkpt lat="39.9943833" lon="15.7080033"><ele>104.0</ele><time>2026-05-03T11:04:54.483Z</time></trkpt><trkpt lat="39.9943033" lon="15.7079033"><ele>104.0</ele><time>2026-05-03T11:04:55.482Z</time></trkpt><trkpt lat="39.9942283" lon="15.7077867"><ele>104.0</ele><time>2026-05-03T11:04:56.483Z</time></trkpt><trkpt lat="39.99415" lon="15.707665"><ele>103.25</ele><time>2026-05-03T11:04:57.483Z</time></trkpt><trkpt lat="39.9940733" lon="15.707545"><ele>102.5</ele><time>2026-05-03T11:04:58.482Z</time></trkpt><trkpt lat="39.994" lon="15.7074283"><ele>101.75</ele><time>2026-05-03T11:04:59.481Z</time></trkpt><trkpt lat="39.9939167" lon="15.7073233"><ele>101.0</ele><time>2026-05-03T11:05:00.48Z</time></trkpt><trkpt lat="39.9938333" lon="15.707225"><ele>101.0</ele><time>2026-05-03T11:05:01.481Z</time></trkpt><trkpt lat="39.9937383" lon="15.7071517"><ele>101.0</ele><time>2026-05-03T11:05:02.483Z</time></trkpt><trkpt lat="39.99364" lon="15.7071017"><ele>101.0</ele><time>2026-05-03T11:05:03.48Z</time></trkpt><trkpt lat="39.9935417" lon="15.7070717"><ele>101.0</ele><time>2026-05-03T11:05:04.482Z</time></trkpt><trkpt lat="39.9934483" lon="15.7070517"><ele>101.0</ele><time>2026-05-03T11:05:05.481Z</time></trkpt><trkpt lat="39.99336" lon="15.707035"><ele>99.99999999999999</ele><time>2026-05-03T11:05:06.481Z</time></trkpt><trkpt lat="39.9932733" lon="15.7070183"><ele>99.0</ele><time>2026-05-03T11:05:07.482Z</time></trkpt><trkpt lat="39.9931883" lon="15.7070033"><ele>98.0</ele><time>2026-05-03T11:05:08.482Z</time></trkpt><trkpt lat="39.9931083" lon="15.7069883"><ele>97.0</ele><time>2026-05-03T11:05:09.482Z</time></trkpt><trkpt lat="39.9930417" lon="15.7069833"><ele>96.0</ele><time>2026-05-03T11:05:10.481Z</time></trkpt><trkpt lat="39.9929517" lon="15.7069717"><ele>95.0</ele><time>2026-05-03T11:05:12.481Z</time></trkpt><trkpt lat="39.9928817" lon="15.70692"><ele>94.66666666666667</ele><time>2026-05-03T11:05:14.481Z</time></trkpt><trkpt lat="39.9928517" lon="15.7067783"><ele>94.33333333333334</ele><time>2026-05-03T11:05:16.482Z</time></trkpt><trkpt lat="39.9928667" lon="15.70669"><ele>94.0</ele><time>2026-05-03T11:05:17.481Z</time></trkpt><trkpt lat="39.992935" lon="15.7066417"><ele>93.66666666666667</ele><time>2026-05-03T11:05:18.482Z</time></trkpt><trkpt lat="39.9930083" lon="15.70662"><ele>93.33333333333333</ele><time>2026-05-03T11:05:19.482Z</time></trkpt><trkpt lat="39.9930983" lon="15.706615"><ele>93.0</ele><time>2026-05-03T11:05:20.482Z</time></trkpt><trkpt lat="39.9932167" lon="15.70663"><ele>91.75</ele><time>2026-05-03T11:05:21.482Z</time></trkpt><trkpt lat="39.9933517" lon="15.70666"><ele>90.5</ele><time>2026-05-03T11:05:22.482Z</time></trkpt><trkpt lat="39.9934833" lon="15.7066917"><ele>89.25</ele><time>2026-05-03T11:05:23.481Z</time></trkpt><trkpt lat="39.9936183" lon="15.7067133"><ele>88.0</ele><time>2026-05-03T11:05:24.483Z</time></trkpt><trkpt lat="39.99376" lon="15.7067283"><ele>88.0</ele><time>2026-05-03T11:05:25.481Z</time></trkpt><trkpt lat="39.993915" lon="15.7067317"><ele>88.0</ele><time>2026-05-03T11:05:26.481Z</time></trkpt><trkpt lat="39.994075" lon="15.70673"><ele>88.0</ele><time>2026-05-03T11:05:27.48Z</time></trkpt><trkpt lat="39.9942283" lon="15.7067267"><ele>87.0</ele><time>2026-05-03T11:05:28.482Z</time></trkpt><trkpt lat="39.9943917" lon="15.7067267"><ele>86.0</ele><time>2026-05-03T11:05:29.481Z</time></trkpt><trkpt lat="39.9945517" lon="15.7067283"><ele>85.0</ele><time>2026-05-03T11:05:30.48Z</time></trkpt><trkpt lat="39.9947117" lon="15.706735"><ele>85.0</ele><time>2026-05-03T11:05:31.482Z</time></trkpt><trkpt lat="39.9948733" lon="15.7067433"><ele>85.0</ele><time>2026-05-03T11:05:32.482Z</time></trkpt><trkpt lat="39.99503" lon="15.7067617"><ele>85.0</ele><time>2026-05-03T11:05:33.48Z</time></trkpt><trkpt lat="39.99518" lon="15.706785"><ele>84.66666666666666</ele><time>2026-05-03T11:05:34.482Z</time></trkpt><trkpt lat="39.995335" lon="15.70679"><ele>84.33333333333333</ele><time>2026-05-03T11:05:35.481Z</time></trkpt><trkpt lat="39.9954867" lon="15.70676"><ele>84.0</ele><time>2026-05-03T11:05:36.481Z</time></trkpt><trkpt lat="39.995635" lon="15.7067"><ele>84.0</ele><time>2026-05-03T11:05:37.48Z</time></trkpt><trkpt lat="39.9957883" lon="15.7066217"><ele>84.0</ele><time>2026-05-03T11:05:38.481Z</time></trkpt><trkpt lat="39.99595" lon="15.7065367"><ele>84.0</ele><time>2026-05-03T11:05:39.482Z</time></trkpt><trkpt lat="39.996115" lon="15.7064517"><ele>84.0</ele><time>2026-05-03T11:05:40.482Z</time></trkpt><trkpt lat="39.99628" lon="15.7063617"><ele>84.0</ele><time>2026-05-03T11:05:41.481Z</time></trkpt><trkpt lat="39.9964483" lon="15.7062733"><ele>84.0</ele><time>2026-05-03T11:05:42.482Z</time></trkpt><trkpt lat="39.9966133" lon="15.706185"><ele>83.66666666666667</ele><time>2026-05-03T11:05:43.481Z</time></trkpt><trkpt lat="39.9967617" lon="15.706095"><ele>83.33333333333334</ele><time>2026-05-03T11:05:44.483Z</time></trkpt><trkpt lat="39.9969017" lon="15.706005"><ele>83.0</ele><time>2026-05-03T11:05:45.481Z</time></trkpt><trkpt lat="39.9970233" lon="15.705905"><ele>83.0</ele><time>2026-05-03T11:05:46.48Z</time></trkpt><trkpt lat="39.9971283" lon="15.7057867"><ele>83.0</ele><time>2026-05-03T11:05:47.482Z</time></trkpt><trkpt lat="39.9972067" lon="15.7056583"><ele>83.0</ele><time>2026-05-03T11:05:48.481Z</time></trkpt><trkpt lat="39.99725" lon="15.7055117"><ele>83.0</ele><time>2026-05-03T11:05:49.482Z</time></trkpt><trkpt lat="39.9972583" lon="15.70534"><ele>83.0</ele><time>2026-05-03T11:05:50.484Z</time></trkpt><trkpt lat="39.9972433" lon="15.7051467"><ele>83.0</ele><time>2026-05-03T11:05:51.481Z</time></trkpt><trkpt lat="39.9972183" lon="15.7049283"><ele>83.0</ele><time>2026-05-03T11:05:52.482Z</time></trkpt><trkpt lat="39.9971967" lon="15.7047"><ele>83.0</ele><time>2026-05-03T11:05:53.482Z</time></trkpt><trkpt lat="39.9971717" lon="15.7044817"><ele>83.0</ele><time>2026-05-03T11:05:54.483Z</time></trkpt><trkpt lat="39.9971483" lon="15.7042817"><ele>83.0</ele><time>2026-05-03T11:05:55.481Z</time></trkpt><trkpt lat="39.9971317" lon="15.70411"><ele>82.0</ele><time>2026-05-03T11:05:56.481Z</time></trkpt><trkpt lat="39.99713" lon="15.7039717"><ele>81.0</ele><time>2026-05-03T11:05:57.48Z</time></trkpt><trkpt lat="39.9971583" lon="15.703865"><ele>80.0</ele><time>2026-05-03T11:05:58.481Z</time></trkpt><trkpt lat="39.9972117" lon="15.7038117"><ele>79.0</ele><time>2026-05-03T11:05:59.48Z</time></trkpt><trkpt lat="39.9972767" lon="15.70383"><ele>78.0</ele><time>2026-05-03T11:06:00.482Z</time></trkpt><trkpt lat="39.997355" lon="15.7038983"><ele>77.0</ele><time>2026-05-03T11:06:01.482Z</time></trkpt><trkpt lat="39.9974533" lon="15.7040017"><ele>77.0</ele><time>2026-05-03T11:06:02.481Z</time></trkpt><trkpt lat="39.997565" lon="15.7041133"><ele>77.0</ele><time>2026-05-03T11:06:03.482Z</time></trkpt><trkpt lat="39.9977" lon="15.7042017"><ele>77.0</ele><time>2026-05-03T11:06:04.481Z</time></trkpt><trkpt lat="39.9978417" lon="15.7042467"><ele>77.0</ele><time>2026-05-03T11:06:05.481Z</time></trkpt><trkpt lat="39.9979783" lon="15.70426"><ele>77.0</ele><time>2026-05-03T11:06:06.48Z</time></trkpt><trkpt lat="39.9981083" lon="15.704265"><ele>77.0</ele><time>2026-05-03T11:06:07.481Z</time></trkpt><trkpt lat="39.9982233" lon="15.704295"><ele>77.0</ele><time>2026-05-03T11:06:08.482Z</time></trkpt><trkpt lat="39.9983183" lon="15.7043583"><ele>77.0</ele><time>2026-05-03T11:06:09.482Z</time></trkpt><trkpt lat="39.9984033" lon="15.7044267"><ele>79.2</ele><time>2026-05-03T11:06:10.48Z</time></trkpt><trkpt lat="39.998485" lon="15.7044633"><ele>81.4</ele><time>2026-05-03T11:06:11.481Z</time></trkpt><trkpt lat="39.9985683" lon="15.704465"><ele>83.60000000000001</ele><time>2026-05-03T11:06:12.481Z</time></trkpt><trkpt lat="39.99866" lon="15.7044283"><ele>85.80000000000001</ele><time>2026-05-03T11:06:13.481Z</time></trkpt><trkpt lat="39.9987583" lon="15.70439"><ele>88.0</ele><time>2026-05-03T11:06:14.482Z</time></trkpt><trkpt lat="39.9988567" lon="15.704385"><ele>88.0</ele><time>2026-05-03T11:06:15.481Z</time></trkpt><trkpt lat="39.9989483" lon="15.7043933"><ele>88.0</ele><time>2026-05-03T11:06:16.481Z</time></trkpt><trkpt lat="39.9990367" lon="15.7043867"><ele>88.0</ele><time>2026-05-03T11:06:17.481Z</time></trkpt><trkpt lat="39.9991183" lon="15.7043483"><ele>88.0</ele><time>2026-05-03T11:06:18.48Z</time></trkpt><trkpt lat="39.9991933" lon="15.7042583"><ele>88.0</ele><time>2026-05-03T11:06:19.481Z</time></trkpt><trkpt lat="39.9992617" lon="15.7041383"><ele>98.0</ele><time>2026-05-03T11:06:20.482Z</time></trkpt><trkpt lat="39.999335" lon="15.704005"><ele>108.0</ele><time>2026-05-03T11:06:21.481Z</time></trkpt><trkpt lat="39.999395" lon="15.7038533"><ele>118.0</ele><time>2026-05-03T11:06:22.482Z</time></trkpt><trkpt lat="39.9994433" lon="15.70369"><ele>128.0</ele><time>2026-05-03T11:06:23.481Z</time></trkpt><trkpt lat="39.999465" lon="15.7035117"><ele>129.0</ele><time>2026-05-03T11:06:24.482Z</time></trkpt><trkpt lat="39.999465" lon="15.7033267"><ele>130.0</ele><time>2026-05-03T11:06:25.481Z</time></trkpt><trkpt lat="39.9994467" lon="15.7031333"><ele>131.0</ele><time>2026-05-03T11:06:26.481Z</time></trkpt><trkpt lat="39.9994233" lon="15.702935"><ele>132.0</ele><time>2026-05-03T11:06:27.482Z</time></trkpt><trkpt lat="39.9994083" lon="15.7027483"><ele>130.5</ele><time>2026-05-03T11:06:28.481Z</time></trkpt><trkpt lat="39.9994083" lon="15.7025833"><ele>129.0</ele><time>2026-05-03T11:06:29.481Z</time></trkpt><trkpt lat="39.9994383" lon="15.7024283"><ele>127.5</ele><time>2026-05-03T11:06:30.481Z</time></trkpt><trkpt lat="39.999485" lon="15.7022717"><ele>126.0</ele><time>2026-05-03T11:06:31.481Z</time></trkpt><trkpt lat="39.9995433" lon="15.7021033"><ele>126.0</ele><time>2026-05-03T11:06:32.482Z</time></trkpt><trkpt lat="39.9996083" lon="15.7019217"><ele>126.0</ele><time>2026-05-03T11:06:33.48Z</time></trkpt><trkpt lat="39.99966" lon="15.7017233"><ele>126.0</ele><time>2026-05-03T11:06:34.481Z</time></trkpt><trkpt lat="39.9997" lon="15.7015067"><ele>123.33333333333334</ele><time>2026-05-03T11:06:35.483Z</time></trkpt><trkpt lat="39.999725" lon="15.70128"><ele>120.66666666666667</ele><time>2026-05-03T11:06:36.481Z</time></trkpt><trkpt lat="39.9997483" lon="15.7010467"><ele>118.0</ele><time>2026-05-03T11:06:37.482Z</time></trkpt><trkpt lat="39.9997717" lon="15.7008067"><ele>117.0</ele><time>2026-05-03T11:06:38.48Z</time></trkpt><trkpt lat="39.999805" lon="15.7005633"><ele>116.0</ele><time>2026-05-03T11:06:39.481Z</time></trkpt><trkpt lat="39.9998433" lon="15.70031"><ele>115.0</ele><time>2026-05-03T11:06:40.481Z</time></trkpt><trkpt lat="39.999885" lon="15.7000567"><ele>114.33333333333334</ele><time>2026-05-03T11:06:41.481Z</time></trkpt><trkpt lat="39.9999333" lon="15.6998067"><ele>113.66666666666666</ele><time>2026-05-03T11:06:42.48Z</time></trkpt><trkpt lat="39.999995" lon="15.69956"><ele>113.0</ele><time>2026-05-03T11:06:43.482Z</time></trkpt><trkpt lat="40.0000567" lon="15.6993133"><ele>109.66666666666666</ele><time>2026-05-03T11:06:44.481Z</time></trkpt><trkpt lat="40.000115" lon="15.6990667"><ele>106.33333333333334</ele><time>2026-05-03T11:06:45.481Z</time></trkpt><trkpt lat="40.0001767" lon="15.6988283"><ele>103.0</ele><time>2026-05-03T11:06:46.481Z</time></trkpt><trkpt lat="40.0002367" lon="15.6985933"><ele>99.33333333333334</ele><time>2026-05-03T11:06:47.482Z</time></trkpt><trkpt lat="40.0002867" lon="15.6983533"><ele>95.66666666666667</ele><time>2026-05-03T11:06:48.481Z</time></trkpt><trkpt lat="40.0003317" lon="15.6981067"><ele>92.0</ele><time>2026-05-03T11:06:49.482Z</time></trkpt><trkpt lat="40.0003767" lon="15.6978567"><ele>88.0</ele><time>2026-05-03T11:06:50.482Z</time></trkpt><trkpt lat="40.00042" lon="15.6975983"><ele>84.0</ele><time>2026-05-03T11:06:51.481Z</time></trkpt><trkpt lat="40.0004733" lon="15.6973383"><ele>80.0</ele><time>2026-05-03T11:06:52.481Z</time></trkpt><trkpt lat="40.0005367" lon="15.6970717"><ele>76.66666666666667</ele><time>2026-05-03T11:06:53.481Z</time></trkpt><trkpt lat="40.000605" lon="15.696815"><ele>73.33333333333333</ele><time>2026-05-03T11:06:54.481Z</time></trkpt><trkpt lat="40.0006717" lon="15.6965667"><ele>70.0</ele><time>2026-05-03T11:06:55.48Z</time></trkpt><trkpt lat="40.0007383" lon="15.696315"><ele>66.33333333333333</ele><time>2026-05-03T11:06:56.481Z</time></trkpt><trkpt lat="40.000805" lon="15.6960583"><ele>62.66666666666667</ele><time>2026-05-03T11:06:57.481Z</time></trkpt><trkpt lat="40.0008867" lon="15.695795"><ele>59.0</ele><time>2026-05-03T11:06:58.481Z</time></trkpt><trkpt lat="40.000975" lon="15.6955367"><ele>68.0</ele><time>2026-05-03T11:06:59.481Z</time></trkpt><trkpt lat="40.0010717" lon="15.6952817"><ele>77.0</ele><time>2026-05-03T11:07:00.481Z</time></trkpt><trkpt lat="40.0011767" lon="15.6950433"><ele>86.0</ele><time>2026-05-03T11:07:01.481Z</time></trkpt><trkpt lat="40.00128" lon="15.6948183"><ele>86.0</ele><time>2026-05-03T11:07:02.482Z</time></trkpt><trkpt lat="40.0013667" lon="15.6946"><ele>86.0</ele><time>2026-05-03T11:07:03.482Z</time></trkpt><trkpt lat="40.0014233" lon="15.69438"><ele>86.0</ele><time>2026-05-03T11:07:04.48Z</time></trkpt><trkpt lat="40.0014517" lon="15.6941517"><ele>83.66666666666667</ele><time>2026-05-03T11:07:05.482Z</time></trkpt><trkpt lat="40.0014633" lon="15.6939117"><ele>81.33333333333333</ele><time>2026-05-03T11:07:06.481Z</time></trkpt><trkpt lat="40.0014783" lon="15.6936567"><ele>79.0</ele><time>2026-05-03T11:07:07.482Z</time></trkpt><trkpt lat="40.0015017" lon="15.6933867"><ele>79.0</ele><time>2026-05-03T11:07:08.482Z</time></trkpt><trkpt lat="40.0015367" lon="15.693115"><ele>79.0</ele><time>2026-05-03T11:07:09.483Z</time></trkpt><trkpt lat="40.001585" lon="15.69285"><ele>79.0</ele><time>2026-05-03T11:07:10.482Z</time></trkpt><trkpt lat="40.0016417" lon="15.6925883"><ele>84.0</ele><time>2026-05-03T11:07:11.48Z</time></trkpt><trkpt lat="40.0017117" lon="15.6923383"><ele>89.0</ele><time>2026-05-03T11:07:12.48Z</time></trkpt><trkpt lat="40.0017967" lon="15.6921"><ele>94.0</ele><time>2026-05-03T11:07:13.481Z</time></trkpt><trkpt lat="40.00189" lon="15.6918683"><ele>94.0</ele><time>2026-05-03T11:07:14.481Z</time></trkpt><trkpt lat="40.0019867" lon="15.6916367"><ele>94.0</ele><time>2026-05-03T11:07:15.482Z</time></trkpt><trkpt lat="40.0020933" lon="15.6914117"><ele>94.0</ele><time>2026-05-03T11:07:16.481Z</time></trkpt><trkpt lat="40.002215" lon="15.6912017"><ele>96.66666666666666</ele><time>2026-05-03T11:07:17.482Z</time></trkpt><trkpt lat="40.00235" lon="15.6910017"><ele>99.33333333333333</ele><time>2026-05-03T11:07:18.481Z</time></trkpt><trkpt lat="40.0024883" lon="15.6907917"><ele>102.0</ele><time>2026-05-03T11:07:19.482Z</time></trkpt><trkpt lat="40.0026383" lon="15.69059"><ele>102.0</ele><time>2026-05-03T11:07:20.481Z</time></trkpt><trkpt lat="40.0027883" lon="15.6903917"><ele>102.0</ele><time>2026-05-03T11:07:21.481Z</time></trkpt><trkpt lat="40.0029283" lon="15.69021"><ele>102.0</ele><time>2026-05-03T11:07:22.481Z</time></trkpt><trkpt lat="40.0030517" lon="15.6900383"><ele>97.66666666666667</ele><time>2026-05-03T11:07:23.482Z</time></trkpt><trkpt lat="40.0031533" lon="15.6898567"><ele>93.33333333333334</ele><time>2026-05-03T11:07:24.481Z</time></trkpt><trkpt lat="40.003235" lon="15.68964"><ele>89.0</ele><time>2026-05-03T11:07:25.481Z</time></trkpt><trkpt lat="40.00331" lon="15.6894"><ele>93.0</ele><time>2026-05-03T11:07:26.481Z</time></trkpt><trkpt lat="40.0033917" lon="15.68915"><ele>97.0</ele><time>2026-05-03T11:07:27.481Z</time></trkpt><trkpt lat="40.00347" lon="15.6888817"><ele>101.0</ele><time>2026-05-03T11:07:28.481Z</time></trkpt><trkpt lat="40.0035417" lon="15.6886033"><ele>96.0</ele><time>2026-05-03T11:07:29.481Z</time></trkpt><trkpt lat="40.0036067" lon="15.6883317"><ele>91.0</ele><time>2026-05-03T11:07:30.482Z</time></trkpt><trkpt lat="40.003665" lon="15.6880717"><ele>86.0</ele><time>2026-05-03T11:07:31.482Z</time></trkpt><trkpt lat="40.00372" lon="15.6878283"><ele>82.0</ele><time>2026-05-03T11:07:32.481Z</time></trkpt><trkpt lat="40.0037767" lon="15.6875983"><ele>78.0</ele><time>2026-05-03T11:07:33.481Z</time></trkpt><trkpt lat="40.0038367" lon="15.6873817"><ele>74.0</ele><time>2026-05-03T11:07:34.48Z</time></trkpt><trkpt lat="40.0039117" lon="15.687175"><ele>74.0</ele><time>2026-05-03T11:07:35.482Z</time></trkpt><trkpt lat="40.0040083" lon="15.6869767"><ele>74.0</ele><time>2026-05-03T11:07:36.481Z</time></trkpt><trkpt lat="40.0041233" lon="15.68679"><ele>74.0</ele><time>2026-05-03T11:07:37.482Z</time></trkpt><trkpt lat="40.0042417" lon="15.6866083"><ele>75.33333333333334</ele><time>2026-05-03T11:07:38.481Z</time></trkpt><trkpt lat="40.0043783" lon="15.6864333"><ele>76.66666666666667</ele><time>2026-05-03T11:07:39.483Z</time></trkpt><trkpt lat="40.0045283" lon="15.6862517"><ele>78.0</ele><time>2026-05-03T11:07:40.481Z</time></trkpt><trkpt lat="40.0047017" lon="15.68608"><ele>78.0</ele><time>2026-05-03T11:07:41.482Z</time></trkpt><trkpt lat="40.0048967" lon="15.6859117"><ele>78.0</ele><time>2026-05-03T11:07:42.48Z</time></trkpt><trkpt lat="40.0050867" lon="15.6857483"><ele>76.33333333333333</ele><time>2026-05-03T11:07:43.481Z</time></trkpt><trkpt lat="40.0052633" lon="15.685585"><ele>74.66666666666666</ele><time>2026-05-03T11:07:44.481Z</time></trkpt><trkpt lat="40.0054317" lon="15.6854117"><ele>73.0</ele><time>2026-05-03T11:07:45.482Z</time></trkpt><trkpt lat="40.0055983" lon="15.6852133"><ele>73.0</ele><time>2026-05-03T11:07:46.482Z</time></trkpt><trkpt lat="40.0057667" lon="15.6849933"><ele>73.0</ele><time>2026-05-03T11:07:47.481Z</time></trkpt><trkpt lat="40.0059317" lon="15.6847633"><ele>74.5</ele><time>2026-05-03T11:07:48.482Z</time></trkpt><trkpt lat="40.006095" lon="15.684535"><ele>76.0</ele><time>2026-05-03T11:07:49.482Z</time></trkpt><trkpt lat="40.0062633" lon="15.6843083"><ele>76.0</ele><time>2026-05-03T11:07:50.481Z</time></trkpt><trkpt lat="40.006435" lon="15.6840883"><ele>76.0</ele><time>2026-05-03T11:07:51.481Z</time></trkpt><trkpt lat="40.0066117" lon="15.683875"><ele>85.0</ele><time>2026-05-03T11:07:52.48Z</time></trkpt><trkpt lat="40.0067867" lon="15.6836667"><ele>94.0</ele><time>2026-05-03T11:07:53.482Z</time></trkpt><trkpt lat="40.00696" lon="15.6834617"><ele>94.0</ele><time>2026-05-03T11:07:54.481Z</time></trkpt><trkpt lat="40.0071317" lon="15.6832567"><ele>94.0</ele><time>2026-05-03T11:07:55.482Z</time></trkpt><trkpt lat="40.0085833" lon="15.68166"><ele>91.66666666666666</ele><time>2026-05-03T11:08:04.482Z</time></trkpt><trkpt lat="40.008715" lon="15.6815167"><ele>89.33333333333333</ele><time>2026-05-03T11:08:05.483Z</time></trkpt><trkpt lat="40.0088533" lon="15.681355"><ele>87.0</ele><time>2026-05-03T11:08:06.481Z</time></trkpt><trkpt lat="40.0089933" lon="15.681225"><ele>87.0</ele><time>2026-05-03T11:08:07.481Z</time></trkpt><trkpt lat="40.0091267" lon="15.68112"><ele>87.0</ele><time>2026-05-03T11:08:08.481Z</time></trkpt><trkpt lat="40.0092583" lon="15.6810183"><ele>87.0</ele><time>2026-05-03T11:08:09.482Z</time></trkpt><trkpt lat="40.00938" lon="15.680925"><ele>79.5</ele><time>2026-05-03T11:08:10.481Z</time></trkpt><trkpt lat="40.0094983" lon="15.6808417"><ele>72.0</ele><time>2026-05-03T11:08:11.481Z</time></trkpt><trkpt lat="40.0096217" lon="15.680785"><ele>64.5</ele><time>2026-05-03T11:08:12.482Z</time></trkpt><trkpt lat="40.0097517" lon="15.680765"><ele>57.0</ele><time>2026-05-03T11:08:13.482Z</time></trkpt><trkpt lat="40.0098783" lon="15.6807683"><ele>60.5</ele><time>2026-05-03T11:08:14.482Z</time></trkpt><trkpt lat="40.010005" lon="15.6807817"><ele>64.0</ele><time>2026-05-03T11:08:15.481Z</time></trkpt><trkpt lat="40.0101267" lon="15.6807683"><ele>67.5</ele><time>2026-05-03T11:08:16.482Z</time></trkpt><trkpt lat="40.0102333" lon="15.6807183"><ele>71.0</ele><time>2026-05-03T11:08:17.481Z</time></trkpt><trkpt lat="40.0103267" lon="15.6806433"><ele>71.0</ele><time>2026-05-03T11:08:18.482Z</time></trkpt><trkpt lat="40.0103967" lon="15.6805233"><ele>71.0</ele><time>2026-05-03T11:08:19.481Z</time></trkpt><trkpt lat="40.0104567" lon="15.68038"><ele>71.0</ele><time>2026-05-03T11:08:20.482Z</time></trkpt><trkpt lat="40.01052" lon="15.6802417"><ele>71.0</ele><time>2026-05-03T11:08:21.482Z</time></trkpt><trkpt lat="40.010605" lon="15.6801283"><ele>68.75</ele><time>2026-05-03T11:08:22.481Z</time></trkpt><trkpt lat="40.0107133" lon="15.680045"><ele>66.5</ele><time>2026-05-03T11:08:23.481Z</time></trkpt><trkpt lat="40.0108467" lon="15.679985"><ele>64.25</ele><time>2026-05-03T11:08:24.48Z</time></trkpt><trkpt lat="40.0109917" lon="15.6799517"><ele>62.0</ele><time>2026-05-03T11:08:25.481Z</time></trkpt><trkpt lat="40.0111517" lon="15.6799433"><ele>62.0</ele><time>2026-05-03T11:08:26.482Z</time></trkpt><trkpt lat="40.0113117" lon="15.6799317"><ele>62.0</ele><time>2026-05-03T11:08:27.482Z</time></trkpt><trkpt lat="40.0114683" lon="15.67992"><ele>62.0</ele><time>2026-05-03T11:08:28.481Z</time></trkpt><trkpt lat="40.01162" lon="15.67991"><ele>63.0</ele><time>2026-05-03T11:08:29.481Z</time></trkpt><trkpt lat="40.0117667" lon="15.6798983"><ele>64.0</ele><time>2026-05-03T11:08:30.481Z</time></trkpt><trkpt lat="40.0119167" lon="15.6798817"><ele>65.0</ele><time>2026-05-03T11:08:31.482Z</time></trkpt><trkpt lat="40.0120667" lon="15.6798483"><ele>65.0</ele><time>2026-05-03T11:08:32.481Z</time></trkpt><trkpt lat="40.01221" lon="15.6797867"><ele>65.0</ele><time>2026-05-03T11:08:33.481Z</time></trkpt><trkpt lat="40.0123533" lon="15.6796933"><ele>65.0</ele><time>2026-05-03T11:08:34.482Z</time></trkpt><trkpt lat="40.01248" lon="15.679585"><ele>66.5</ele><time>2026-05-03T11:08:35.481Z</time></trkpt><trkpt lat="40.0125967" lon="15.67947"><ele>68.0</ele><time>2026-05-03T11:08:36.482Z</time></trkpt><trkpt lat="40.01272" lon="15.6793717"><ele>69.5</ele><time>2026-05-03T11:08:37.482Z</time></trkpt><trkpt lat="40.0128533" lon="15.6793083"><ele>71.0</ele><time>2026-05-03T11:08:38.482Z</time></trkpt><trkpt lat="40.0129833" lon="15.679265"><ele>68.5</ele><time>2026-05-03T11:08:39.481Z</time></trkpt><trkpt lat="40.0131067" lon="15.6792333"><ele>66.0</ele><time>2026-05-03T11:08:40.481Z</time></trkpt><trkpt lat="40.013225" lon="15.6792167"><ele>63.5</ele><time>2026-05-03T11:08:41.481Z</time></trkpt><trkpt lat="40.0133367" lon="15.6792017"><ele>61.0</ele><time>2026-05-03T11:08:42.481Z</time></trkpt><trkpt lat="40.0134433" lon="15.6791883"><ele>61.0</ele><time>2026-05-03T11:08:43.482Z</time></trkpt><trkpt lat="40.01355" lon="15.6791767"><ele>60.99999999999999</ele><time>2026-05-03T11:08:44.483Z</time></trkpt><trkpt lat="40.0136583" lon="15.6791633"><ele>60.99999999999999</ele><time>2026-05-03T11:08:45.483Z</time></trkpt><trkpt lat="40.0137617" lon="15.6791483"><ele>61.0</ele><time>2026-05-03T11:08:46.482Z</time></trkpt><trkpt lat="40.01385" lon="15.6791383"><ele>61.0</ele><time>2026-05-03T11:08:47.481Z</time></trkpt><trkpt lat="40.0139283" lon="15.6791367"><ele>60.99999999999999</ele><time>2026-05-03T11:08:48.482Z</time></trkpt><trkpt lat="40.0140033" lon="15.6791283"><ele>61.0</ele><time>2026-05-03T11:08:49.481Z</time></trkpt><trkpt lat="40.0140717" lon="15.6791183"><ele>61.0</ele><time>2026-05-03T11:08:50.483Z</time></trkpt><trkpt lat="40.014165" lon="15.6790967"><ele>61.0</ele><time>2026-05-03T11:08:52.481Z</time></trkpt><trkpt lat="40.0142383" lon="15.67905"><ele>60.99999999999999</ele><time>2026-05-03T11:08:55.482Z</time></trkpt><trkpt lat="40.0143083" lon="15.6790383"><ele>61.0</ele><time>2026-05-03T11:08:58.481Z</time></trkpt><trkpt lat="40.01437" lon="15.6790817"><ele>60.99999999999999</ele><time>2026-05-03T11:09:01.481Z</time></trkpt><trkpt lat="40.0142583" lon="15.6790733"><ele>61.0</ele><time>2026-05-03T11:13:53.48Z</time></trkpt><trkpt lat="40.0141933" lon="15.6790983"><ele>61.0</ele><time>2026-05-03T11:13:58.483Z</time></trkpt><trkpt lat="40.0142433" lon="15.679155"><ele>61.0</ele><time>2026-05-03T11:14:16.482Z</time></trkpt><trkpt lat="40.0142833" lon="15.6792194"><ele>60.99999999999999</ele><time>2026-05-03T11:15:01.501Z</time></trkpt><trkpt lat="40.0142775" lon="15.6791351"><ele>61.0</ele><time>2026-05-03T12:45:33.554Z</time></trkpt><trkpt lat="40.0143506" lon="15.6791639"><ele>60.99999999999999</ele><time>2026-05-03T12:46:02.555Z</time></trkpt><trkpt lat="40.0143795" lon="15.6790846"><ele>61.0</ele><time>2026-05-03T12:46:15.492Z</time></trkpt><trkpt lat="40.0144389" lon="15.6790556"><ele>61.0</ele><time>2026-05-03T12:46:28.537Z</time></trkpt><trkpt lat="40.0143483" lon="15.6790317"><ele>61.0</ele><time>2026-05-03T12:53:46.481Z</time></trkpt><trkpt lat="40.01428" lon="15.6790417"><ele>60.99999999999999</ele><time>2026-05-03T12:53:48.482Z</time></trkpt><trkpt lat="40.0141933" lon="15.6790767"><ele>61.0</ele><time>2026-05-03T12:53:51.481Z</time></trkpt><trkpt lat="40.0141067" lon="15.6791017"><ele>60.99999999999999</ele><time>2026-05-03T12:53:53.483Z</time></trkpt><trkpt lat="40.0140433" lon="15.6791083"><ele>61.0</ele><time>2026-05-03T12:53:54.481Z</time></trkpt><trkpt lat="40.0139683" lon="15.679115"><ele>61.0</ele><time>2026-05-03T12:53:55.482Z</time></trkpt><trkpt lat="40.0138833" lon="15.6791217"><ele>61.0</ele><time>2026-05-03T12:53:56.483Z</time></trkpt><trkpt lat="40.0137933" lon="15.6791317"><ele>60.99999999999999</ele><time>2026-05-03T12:53:57.481Z</time></trkpt><trkpt lat="40.0136967" lon="15.6791417"><ele>61.0</ele><time>2026-05-03T12:53:58.481Z</time></trkpt><trkpt lat="40.013595" lon="15.679155"><ele>61.0</ele><time>2026-05-03T12:53:59.482Z</time></trkpt><trkpt lat="40.0134917" lon="15.6791683"><ele>60.99999999999999</ele><time>2026-05-03T12:54:00.481Z</time></trkpt><trkpt lat="40.0133933" lon="15.67918"><ele>60.99999999999999</ele><time>2026-05-03T12:54:01.481Z</time></trkpt><trkpt lat="40.0133" lon="15.6791883"><ele>61.0</ele><time>2026-05-03T12:54:02.483Z</time></trkpt><trkpt lat="40.0132117" lon="15.6791983"><ele>61.0</ele><time>2026-05-03T12:54:03.482Z</time></trkpt><trkpt lat="40.0131233" lon="15.6792117"><ele>59.83333333333333</ele><time>2026-05-03T12:54:04.481Z</time></trkpt><trkpt lat="40.0130417" lon="15.679225"><ele>58.666666666666664</ele><time>2026-05-03T12:54:05.481Z</time></trkpt><trkpt lat="40.012965" lon="15.6792417"><ele>57.5</ele><time>2026-05-03T12:54:06.482Z</time></trkpt><trkpt lat="40.0128883" lon="15.6792583"><ele>56.33333333333333</ele><time>2026-05-03T12:54:07.482Z</time></trkpt><trkpt lat="40.012805" lon="15.6792833"><ele>55.166666666666664</ele><time>2026-05-03T12:54:08.482Z</time></trkpt><trkpt lat="40.01272" lon="15.6793233"><ele>54.0</ele><time>2026-05-03T12:54:09.481Z</time></trkpt><trkpt lat="40.012645" lon="15.6793717"><ele>54.0</ele><time>2026-05-03T12:54:10.483Z</time></trkpt><trkpt lat="40.0125833" lon="15.67942"><ele>54.00000000000001</ele><time>2026-05-03T12:54:11.482Z</time></trkpt><trkpt lat="40.012485" lon="15.6795017"><ele>54.00000000000001</ele><time>2026-05-03T12:54:13.482Z</time></trkpt><trkpt lat="40.0123967" lon="15.67957"><ele>54.0</ele><time>2026-05-03T12:54:38.482Z</time></trkpt><trkpt lat="40.0123217" lon="15.6796567"><ele>54.0</ele><time>2026-05-03T12:54:40.486Z</time></trkpt><trkpt lat="40.01225" lon="15.6797067"><ele>56.2</ele><time>2026-05-03T12:54:41.483Z</time></trkpt><trkpt lat="40.0121617" lon="15.679755"><ele>58.400000000000006</ele><time>2026-05-03T12:54:42.482Z</time></trkpt><trkpt lat="40.01206" lon="15.6798"><ele>60.6</ele><time>2026-05-03T12:54:43.483Z</time></trkpt><trkpt lat="40.011945" lon="15.679835"><ele>62.8</ele><time>2026-05-03T12:54:44.483Z</time></trkpt><trkpt lat="40.0118233" lon="15.6798533"><ele>65.0</ele><time>2026-05-03T12:54:45.481Z</time></trkpt><trkpt lat="40.0117067" lon="15.6798617"><ele>64.25</ele><time>2026-05-03T12:54:46.483Z</time></trkpt><trkpt lat="40.0115867" lon="15.6798733"><ele>63.5</ele><time>2026-05-03T12:54:47.481Z</time></trkpt><trkpt lat="40.0114667" lon="15.6798883"><ele>62.75</ele><time>2026-05-03T12:54:48.483Z</time></trkpt><trkpt lat="40.0113417" lon="15.6798967"><ele>62.0</ele><time>2026-05-03T12:54:49.481Z</time></trkpt><trkpt lat="40.0112133" lon="15.6799067"><ele>62.0</ele><time>2026-05-03T12:54:50.483Z</time></trkpt><trkpt lat="40.011085" lon="15.6799133"><ele>62.0</ele><time>2026-05-03T12:54:51.481Z</time></trkpt><trkpt lat="40.0109567" lon="15.6799233"><ele>62.0</ele><time>2026-05-03T12:54:52.482Z</time></trkpt><trkpt lat="40.01083" lon="15.6799483"><ele>62.0</ele><time>2026-05-03T12:54:53.482Z</time></trkpt><trkpt lat="40.01071" lon="15.6799967"><ele>64.25</ele><time>2026-05-03T12:54:54.483Z</time></trkpt><trkpt lat="40.0106017" lon="15.6800633"><ele>66.5</ele><time>2026-05-03T12:54:55.482Z</time></trkpt><trkpt lat="40.0105133" lon="15.68015"><ele>68.75</ele><time>2026-05-03T12:54:56.483Z</time></trkpt><trkpt lat="40.01044" lon="15.6802633"><ele>71.0</ele><time>2026-05-03T12:54:57.482Z</time></trkpt><trkpt lat="40.01038" lon="15.6803967"><ele>71.0</ele><time>2026-05-03T12:54:58.483Z</time></trkpt><trkpt lat="40.0103183" lon="15.6805283"><ele>71.0</ele><time>2026-05-03T12:54:59.483Z</time></trkpt><trkpt lat="40.0102433" lon="15.6806483"><ele>71.0</ele><time>2026-05-03T12:55:00.481Z</time></trkpt><trkpt lat="40.01014" lon="15.6807383"><ele>71.0</ele><time>2026-05-03T12:55:01.482Z</time></trkpt><trkpt lat="40.0100183" lon="15.6807833"><ele>67.5</ele><time>2026-05-03T12:55:02.482Z</time></trkpt><trkpt lat="40.0098867" lon="15.68079"><ele>64.0</ele><time>2026-05-03T12:55:03.481Z</time></trkpt><trkpt lat="40.0097533" lon="15.6807933"><ele>60.5</ele><time>2026-05-03T12:55:04.482Z</time></trkpt><trkpt lat="40.0096217" lon="15.6808167"><ele>57.0</ele><time>2026-05-03T12:55:05.482Z</time></trkpt><trkpt lat="40.0094933" lon="15.6808683"><ele>57.0</ele><time>2026-05-03T12:55:06.482Z</time></trkpt><trkpt lat="40.0093667" lon="15.680955"><ele>57.0</ele><time>2026-05-03T12:55:07.481Z</time></trkpt><trkpt lat="40.0092317" lon="15.68106"><ele>57.0</ele><time>2026-05-03T12:55:08.484Z</time></trkpt><trkpt lat="40.0090817" lon="15.68117"><ele>67.0</ele><time>2026-05-03T12:55:09.482Z</time></trkpt><trkpt lat="40.0089233" lon="15.681275"><ele>77.0</ele><time>2026-05-03T12:55:10.482Z</time></trkpt><trkpt lat="40.00876" lon="15.6813833"><ele>87.0</ele><time>2026-05-03T12:55:11.482Z</time></trkpt><trkpt lat="40.0086017" lon="15.681515"><ele>87.0</ele><time>2026-05-03T12:55:12.483Z</time></trkpt><trkpt lat="40.0084517" lon="15.6816633"><ele>87.0</ele><time>2026-05-03T12:55:13.481Z</time></trkpt><trkpt lat="40.0083033" lon="15.6818217"><ele>87.0</ele><time>2026-05-03T12:55:14.483Z</time></trkpt><trkpt lat="40.008155" lon="15.6819867"><ele>93.33333333333334</ele><time>2026-05-03T12:55:15.482Z</time></trkpt><trkpt lat="40.0080033" lon="15.6821533"><ele>99.66666666666667</ele><time>2026-05-03T12:55:16.483Z</time></trkpt><trkpt lat="40.0078483" lon="15.6823217"><ele>106.0</ele><time>2026-05-03T12:55:17.483Z</time></trkpt><trkpt lat="40.0076917" lon="15.682495"><ele>106.0</ele><time>2026-05-03T12:55:18.483Z</time></trkpt><trkpt lat="40.0075367" lon="15.6826667"><ele>106.0</ele><time>2026-05-03T12:55:19.482Z</time></trkpt><trkpt lat="40.0068017" lon="15.6835433"><ele>91.0</ele><time>2026-05-03T12:55:23.483Z</time></trkpt><trkpt lat="40.0065467" lon="15.68389"><ele>76.0</ele><time>2026-05-03T12:55:24.483Z</time></trkpt><trkpt lat="40.006325" lon="15.6842067"><ele>89.5</ele><time>2026-05-03T12:55:25.483Z</time></trkpt><trkpt lat="40.0061183" lon="15.6844767"><ele>103.0</ele><time>2026-05-03T12:55:26.483Z</time></trkpt><trkpt lat="40.0059233" lon="15.6847483"><ele>88.0</ele><time>2026-05-03T12:55:27.482Z</time></trkpt><trkpt lat="40.0057383" lon="15.6850033"><ele>73.0</ele><time>2026-05-03T12:55:28.482Z</time></trkpt><trkpt lat="40.00556" lon="15.6852383"><ele>87.5</ele><time>2026-05-03T12:55:29.482Z</time></trkpt><trkpt lat="40.0053783" lon="15.68546"><ele>102.0</ele><time>2026-05-03T12:55:30.482Z</time></trkpt><trkpt lat="40.0051833" lon="15.6856617"><ele>90.0</ele><time>2026-05-03T12:55:31.483Z</time></trkpt><trkpt lat="40.0049867" lon="15.6858483"><ele>78.0</ele><time>2026-05-03T12:55:32.481Z</time></trkpt><trkpt lat="40.0047833" lon="15.686035"><ele>89.0</ele><time>2026-05-03T12:55:33.482Z</time></trkpt><trkpt lat="40.00459" lon="15.6862267"><ele>100.0</ele><time>2026-05-03T12:55:34.482Z</time></trkpt><trkpt lat="40.0044083" lon="15.686405"><ele>100.0</ele><time>2026-05-03T12:55:35.482Z</time></trkpt><trkpt lat="40.0042467" lon="15.68658"><ele>100.0</ele><time>2026-05-03T12:55:36.482Z</time></trkpt><trkpt lat="40.0041083" lon="15.6867733"><ele>100.0</ele><time>2026-05-03T12:55:37.482Z</time></trkpt><trkpt lat="40.0039817" lon="15.6869783"><ele>91.33333333333334</ele><time>2026-05-03T12:55:38.481Z</time></trkpt><trkpt lat="40.00387" lon="15.687195"><ele>82.66666666666667</ele><time>2026-05-03T12:55:39.483Z</time></trkpt><trkpt lat="40.0037817" lon="15.68743"><ele>74.0</ele><time>2026-05-03T12:55:40.481Z</time></trkpt><trkpt lat="40.0037083" lon="15.6876817"><ele>80.0</ele><time>2026-05-03T12:55:41.481Z</time></trkpt><trkpt lat="40.0036417" lon="15.6879583"><ele>86.0</ele><time>2026-05-03T12:55:42.482Z</time></trkpt><trkpt lat="40.0035717" lon="15.688265"><ele>86.0</ele><time>2026-05-03T12:55:43.482Z</time></trkpt><trkpt lat="40.0034933" lon="15.68859"><ele>86.0</ele><time>2026-05-03T12:55:44.483Z</time></trkpt><trkpt lat="40.00341" lon="15.6889083"><ele>87.5</ele><time>2026-05-03T12:55:45.482Z</time></trkpt><trkpt lat="40.003325" lon="15.6892033"><ele>89.0</ele><time>2026-05-03T12:55:46.482Z</time></trkpt><trkpt lat="40.003245" lon="15.6894733"><ele>89.0</ele><time>2026-05-03T12:55:47.482Z</time></trkpt><trkpt lat="40.0031733" lon="15.689715"><ele>89.0</ele><time>2026-05-03T12:55:48.482Z</time></trkpt><trkpt lat="40.0030867" lon="15.6899233"><ele>89.0</ele><time>2026-05-03T12:55:49.481Z</time></trkpt><trkpt lat="40.0029817" lon="15.6901033"><ele>93.33333333333334</ele><time>2026-05-03T12:55:50.482Z</time></trkpt><trkpt lat="40.0028483" lon="15.690275"><ele>97.66666666666667</ele><time>2026-05-03T12:55:51.482Z</time></trkpt><trkpt lat="40.0027033" lon="15.690455"><ele>102.0</ele><time>2026-05-03T12:55:52.481Z</time></trkpt><trkpt lat="40.002555" lon="15.6906467"><ele>99.33333333333333</ele><time>2026-05-03T12:55:53.483Z</time></trkpt><trkpt lat="40.002405" lon="15.6908417"><ele>96.66666666666666</ele><time>2026-05-03T12:55:54.482Z</time></trkpt><trkpt lat="40.00226" lon="15.6910417"><ele>94.0</ele><time>2026-05-03T12:55:55.482Z</time></trkpt><trkpt lat="40.002125" lon="15.6912617"><ele>94.0</ele><time>2026-05-03T12:55:56.482Z</time></trkpt><trkpt lat="40.0020033" lon="15.691495"><ele>94.0</ele><time>2026-05-03T12:55:57.484Z</time></trkpt><trkpt lat="40.0018933" lon="15.6917367"><ele>94.0</ele><time>2026-05-03T12:55:58.482Z</time></trkpt><trkpt lat="40.0017933" lon="15.69198"><ele>96.66666666666666</ele><time>2026-05-03T12:55:59.483Z</time></trkpt><trkpt lat="40.0017083" lon="15.6922217"><ele>99.33333333333333</ele><time>2026-05-03T12:56:00.483Z</time></trkpt><trkpt lat="40.0016317" lon="15.6924733"><ele>102.0</ele><time>2026-05-03T12:56:01.483Z</time></trkpt><trkpt lat="40.0015667" lon="15.6927367"><ele>94.33333333333333</ele><time>2026-05-03T12:56:02.483Z</time></trkpt><trkpt lat="40.0015117" lon="15.6929983"><ele>86.66666666666666</ele><time>2026-05-03T12:56:03.482Z</time></trkpt><trkpt lat="40.0014683" lon="15.69327"><ele>79.0</ele><time>2026-05-03T12:56:04.483Z</time></trkpt><trkpt lat="40.0014367" lon="15.6935467"><ele>79.0</ele><time>2026-05-03T12:56:05.481Z</time></trkpt><trkpt lat="40.00142" lon="15.6938233"><ele>79.0</ele><time>2026-05-03T12:56:06.482Z</time></trkpt><trkpt lat="40.00141" lon="15.6940767"><ele>79.0</ele><time>2026-05-03T12:56:07.483Z</time></trkpt><trkpt lat="40.0013933" lon="15.69431"><ele>81.33333333333333</ele><time>2026-05-03T12:56:08.482Z</time></trkpt><trkpt lat="40.001355" lon="15.6945333"><ele>83.66666666666667</ele><time>2026-05-03T12:56:09.482Z</time></trkpt><trkpt lat="40.0012867" lon="15.69475"><ele>86.0</ele><time>2026-05-03T12:56:10.483Z</time></trkpt><trkpt lat="40.00119" lon="15.694965"><ele>86.0</ele><time>2026-05-03T12:56:11.483Z</time></trkpt><trkpt lat="40.0010917" lon="15.6951883"><ele>86.0</ele><time>2026-05-03T12:56:12.484Z</time></trkpt><trkpt lat="40.00099" lon="15.695425"><ele>86.0</ele><time>2026-05-03T12:56:13.483Z</time></trkpt><trkpt lat="40.0008967" lon="15.6956717"><ele>80.66666666666667</ele><time>2026-05-03T12:56:14.484Z</time></trkpt><trkpt lat="40.000815" lon="15.6959283"><ele>75.33333333333333</ele><time>2026-05-03T12:56:15.483Z</time></trkpt><trkpt lat="40.0007367" lon="15.6961917"><ele>70.0</ele><time>2026-05-03T12:56:16.482Z</time></trkpt><trkpt lat="40.0006567" lon="15.6964533"><ele>70.0</ele><time>2026-05-03T12:56:17.483Z</time></trkpt><trkpt lat="40.000585" lon="15.6967167"><ele>70.0</ele><time>2026-05-03T12:56:18.483Z</time></trkpt><trkpt lat="40.0005167" lon="15.6969783"><ele>70.0</ele><time>2026-05-03T12:56:19.483Z</time></trkpt><trkpt lat="40.0004567" lon="15.697235"><ele>73.33333333333333</ele><time>2026-05-03T12:56:20.482Z</time></trkpt><trkpt lat="40.0004033" lon="15.6974917"><ele>76.66666666666667</ele><time>2026-05-03T12:56:21.481Z</time></trkpt><trkpt lat="40.00036" lon="15.6977517"><ele>80.0</ele><time>2026-05-03T12:56:22.482Z</time></trkpt><trkpt lat="40.0003217" lon="15.6980083"><ele>84.0</ele><time>2026-05-03T12:56:23.482Z</time></trkpt><trkpt lat="40.0002783" lon="15.6982633"><ele>88.0</ele><time>2026-05-03T12:56:24.482Z</time></trkpt><trkpt lat="40.0002267" lon="15.6985167"><ele>92.0</ele><time>2026-05-03T12:56:25.481Z</time></trkpt><trkpt lat="40.0001633" lon="15.6987683"><ele>95.66666666666667</ele><time>2026-05-03T12:56:26.484Z</time></trkpt><trkpt lat="40.0000983" lon="15.6990233"><ele>99.33333333333334</ele><time>2026-05-03T12:56:27.481Z</time></trkpt><trkpt lat="40.00003" lon="15.6992783"><ele>103.0</ele><time>2026-05-03T12:56:28.481Z</time></trkpt><trkpt lat="39.999965" lon="15.6995333"><ele>106.33333333333334</ele><time>2026-05-03T12:56:29.482Z</time></trkpt><trkpt lat="39.9999083" lon="15.699785"><ele>109.66666666666666</ele><time>2026-05-03T12:56:30.482Z</time></trkpt><trkpt lat="39.999855" lon="15.7000433"><ele>113.0</ele><time>2026-05-03T12:56:31.482Z</time></trkpt><trkpt lat="39.9998117" lon="15.7002983"><ele>113.66666666666666</ele><time>2026-05-03T12:56:32.482Z</time></trkpt><trkpt lat="39.9997733" lon="15.70055"><ele>114.33333333333334</ele><time>2026-05-03T12:56:33.483Z</time></trkpt><trkpt lat="39.99974" lon="15.7008017"><ele>115.0</ele><time>2026-05-03T12:56:34.482Z</time></trkpt><trkpt lat="39.9997117" lon="15.7010467"><ele>116.0</ele><time>2026-05-03T12:56:35.481Z</time></trkpt><trkpt lat="39.9996867" lon="15.7012817"><ele>117.0</ele><time>2026-05-03T12:56:36.481Z</time></trkpt><trkpt lat="39.99966" lon="15.7015033"><ele>118.0</ele><time>2026-05-03T12:56:37.481Z</time></trkpt><trkpt lat="39.9996283" lon="15.70172"><ele>120.66666666666667</ele><time>2026-05-03T12:56:38.481Z</time></trkpt><trkpt lat="39.9995767" lon="15.7019233"><ele>123.33333333333334</ele><time>2026-05-03T12:56:39.481Z</time></trkpt><trkpt lat="39.9995117" lon="15.7021183"><ele>126.0</ele><time>2026-05-03T12:56:40.481Z</time></trkpt><trkpt lat="39.999445" lon="15.702305"><ele>126.0</ele><time>2026-05-03T12:56:41.482Z</time></trkpt><trkpt lat="39.999395" lon="15.7024867"><ele>126.0</ele><time>2026-05-03T12:56:42.48Z</time></trkpt><trkpt lat="39.9993767" lon="15.702675"><ele>126.0</ele><time>2026-05-03T12:56:43.481Z</time></trkpt><trkpt lat="39.999385" lon="15.7028717"><ele>126.0</ele><time>2026-05-03T12:56:44.482Z</time></trkpt><trkpt lat="39.9994067" lon="15.7030783"><ele>126.66666666666666</ele><time>2026-05-03T12:56:45.482Z</time></trkpt><trkpt lat="39.999425" lon="15.703295"><ele>127.33333333333333</ele><time>2026-05-03T12:56:46.482Z</time></trkpt><trkpt lat="39.9994267" lon="15.7035117"><ele>128.0</ele><time>2026-05-03T12:56:47.48Z</time></trkpt><trkpt lat="39.9994067" lon="15.7037217"><ele>128.0</ele><time>2026-05-03T12:56:48.481Z</time></trkpt><trkpt lat="39.99934" lon="15.7039117"><ele>128.0</ele><time>2026-05-03T12:56:49.481Z</time></trkpt><trkpt lat="39.99925" lon="15.7040817"><ele>128.0</ele><time>2026-05-03T12:56:50.481Z</time></trkpt><trkpt lat="39.999155" lon="15.70422"><ele>120.0</ele><time>2026-05-03T12:56:51.481Z</time></trkpt><trkpt lat="39.99906" lon="15.7043217"><ele>112.00000000000001</ele><time>2026-05-03T12:56:52.481Z</time></trkpt><trkpt lat="39.99897" lon="15.70438"><ele>104.0</ele><time>2026-05-03T12:56:53.481Z</time></trkpt><trkpt lat="39.9988733" lon="15.7043767"><ele>96.0</ele><time>2026-05-03T12:56:54.48Z</time></trkpt><trkpt lat="39.998775" lon="15.7043467"><ele>88.0</ele><time>2026-05-03T12:56:55.48Z</time></trkpt><trkpt lat="39.9986683" lon="15.70436"><ele>88.0</ele><time>2026-05-03T12:56:56.481Z</time></trkpt><trkpt lat="39.9985517" lon="15.7044"><ele>88.0</ele><time>2026-05-03T12:56:57.481Z</time></trkpt><trkpt lat="39.9984367" lon="15.7044167"><ele>88.0</ele><time>2026-05-03T12:56:58.481Z</time></trkpt><trkpt lat="39.9983267" lon="15.7043817"><ele>88.0</ele><time>2026-05-03T12:56:59.481Z</time></trkpt><trkpt lat="39.9982367" lon="15.704305"><ele>85.25</ele><time>2026-05-03T12:57:00.481Z</time></trkpt><trkpt lat="39.9981333" lon="15.70425"><ele>82.5</ele><time>2026-05-03T12:57:01.481Z</time></trkpt><trkpt lat="39.998005" lon="15.704225"><ele>79.75</ele><time>2026-05-03T12:57:02.482Z</time></trkpt><trkpt lat="39.9978617" lon="15.704215"><ele>77.0</ele><time>2026-05-03T12:57:03.481Z</time></trkpt><trkpt lat="39.997715" lon="15.70418"><ele>77.0</ele><time>2026-05-03T12:57:04.481Z</time></trkpt><trkpt lat="39.9975833" lon="15.7041033"><ele>77.0</ele><time>2026-05-03T12:57:05.482Z</time></trkpt><trkpt lat="39.99747" lon="15.7040033"><ele>77.0</ele><time>2026-05-03T12:57:06.481Z</time></trkpt><trkpt lat="39.997375" lon="15.703905"><ele>77.0</ele><time>2026-05-03T12:57:07.48Z</time></trkpt><trkpt lat="39.9972917" lon="15.70383"><ele>77.0</ele><time>2026-05-03T12:57:08.481Z</time></trkpt><trkpt lat="39.9972133" lon="15.7038"><ele>77.0</ele><time>2026-05-03T12:57:09.482Z</time></trkpt><trkpt lat="39.9971433" lon="15.7038167"><ele>77.0</ele><time>2026-05-03T12:57:10.481Z</time></trkpt><trkpt lat="39.99709" lon="15.7038767"><ele>77.0</ele><time>2026-05-03T12:57:11.482Z</time></trkpt><trkpt lat="39.99707" lon="15.7039767"><ele>77.0</ele><time>2026-05-03T12:57:12.481Z</time></trkpt><trkpt lat="39.9970783" lon="15.70411"><ele>77.0</ele><time>2026-05-03T12:57:13.482Z</time></trkpt><trkpt lat="39.9971083" lon="15.7042817"><ele>79.0</ele><time>2026-05-03T12:57:14.481Z</time></trkpt><trkpt lat="39.99713" lon="15.7044667"><ele>81.0</ele><time>2026-05-03T12:57:15.482Z</time></trkpt><trkpt lat="39.99715" lon="15.7046683"><ele>83.0</ele><time>2026-05-03T12:57:16.481Z</time></trkpt><trkpt lat="39.99717" lon="15.7048833"><ele>83.0</ele><time>2026-05-03T12:57:17.48Z</time></trkpt><trkpt lat="39.9971883" lon="15.7051033"><ele>83.0</ele><time>2026-05-03T12:57:18.48Z</time></trkpt><trkpt lat="39.9972083" lon="15.7052967"><ele>83.0</ele><time>2026-05-03T12:57:19.481Z</time></trkpt><trkpt lat="39.9972167" lon="15.705455"><ele>83.0</ele><time>2026-05-03T12:57:20.481Z</time></trkpt><trkpt lat="39.9972033" lon="15.705575"><ele>83.0</ele><time>2026-05-03T12:57:21.482Z</time></trkpt><trkpt lat="39.997165" lon="15.70568"><ele>83.0</ele><time>2026-05-03T12:57:22.481Z</time></trkpt><trkpt lat="39.9971017" lon="15.7057783"><ele>83.0</ele><time>2026-05-03T12:57:23.482Z</time></trkpt><trkpt lat="39.99701" lon="15.7058683"><ele>83.0</ele><time>2026-05-03T12:57:24.481Z</time></trkpt><trkpt lat="39.9969233" lon="15.7059367"><ele>83.0</ele><time>2026-05-03T12:57:25.482Z</time></trkpt><trkpt lat="39.99685" lon="15.7059817"><ele>83.0</ele><time>2026-05-03T12:57:26.482Z</time></trkpt><trkpt lat="39.9967833" lon="15.70602"><ele>83.0</ele><time>2026-05-03T12:57:27.481Z</time></trkpt><trkpt lat="39.9967117" lon="15.70606"><ele>83.0</ele><time>2026-05-03T12:57:28.482Z</time></trkpt><trkpt lat="39.9966267" lon="15.7061083"><ele>83.0</ele><time>2026-05-03T12:57:29.482Z</time></trkpt><trkpt lat="39.99653" lon="15.70616"><ele>83.0</ele><time>2026-05-03T12:57:30.48Z</time></trkpt><trkpt lat="39.9964217" lon="15.7062183"><ele>83.25</ele><time>2026-05-03T12:57:31.481Z</time></trkpt><trkpt lat="39.9963" lon="15.7062833"><ele>83.5</ele><time>2026-05-03T12:57:32.481Z</time></trkpt><trkpt lat="39.9961767" lon="15.7063517"><ele>83.75</ele><time>2026-05-03T12:57:33.481Z</time></trkpt><trkpt lat="39.9960417" lon="15.7064267"><ele>84.0</ele><time>2026-05-03T12:57:34.481Z</time></trkpt><trkpt lat="39.9959" lon="15.7065"><ele>84.0</ele><time>2026-05-03T12:57:35.481Z</time></trkpt><trkpt lat="39.9957583" lon="15.70657"><ele>84.0</ele><time>2026-05-03T12:57:36.481Z</time></trkpt><trkpt lat="39.9956167" lon="15.7066333"><ele>84.0</ele><time>2026-05-03T12:57:37.48Z</time></trkpt><trkpt lat="39.9954867" lon="15.7066867"><ele>84.0</ele><time>2026-05-03T12:57:38.482Z</time></trkpt><trkpt lat="39.995355" lon="15.70672"><ele>84.0</ele><time>2026-05-03T12:57:39.482Z</time></trkpt><trkpt lat="39.99522" lon="15.7067367"><ele>84.0</ele><time>2026-05-03T12:57:40.48Z</time></trkpt><trkpt lat="39.9950867" lon="15.7067317"><ele>84.0</ele><time>2026-05-03T12:57:41.482Z</time></trkpt><trkpt lat="39.99495" lon="15.7067183"><ele>84.0</ele><time>2026-05-03T12:57:42.481Z</time></trkpt><trkpt lat="39.9947983" lon="15.7067183"><ele>84.33333333333333</ele><time>2026-05-03T12:57:43.48Z</time></trkpt><trkpt lat="39.994625" lon="15.70672"><ele>84.66666666666666</ele><time>2026-05-03T12:57:44.482Z</time></trkpt><trkpt lat="39.9944317" lon="15.7067267"><ele>85.0</ele><time>2026-05-03T12:57:45.482Z</time></trkpt><trkpt lat="39.9942233" lon="15.7067333"><ele>86.0</ele><time>2026-05-03T12:57:46.481Z</time></trkpt><trkpt lat="39.9940183" lon="15.706745"><ele>87.0</ele><time>2026-05-03T12:57:47.482Z</time></trkpt><trkpt lat="39.9938117" lon="15.7067517"><ele>88.0</ele><time>2026-05-03T12:57:48.481Z</time></trkpt><trkpt lat="39.99361" lon="15.7067467"><ele>88.0</ele><time>2026-05-03T12:57:49.483Z</time></trkpt><trkpt lat="39.9934267" lon="15.7067233"><ele>88.0</ele><time>2026-05-03T12:57:50.481Z</time></trkpt><trkpt lat="39.9932617" lon="15.7066867"><ele>88.0</ele><time>2026-05-03T12:57:51.482Z</time></trkpt><trkpt lat="39.9931233" lon="15.7066617"><ele>89.0</ele><time>2026-05-03T12:57:52.482Z</time></trkpt><trkpt lat="39.9930067" lon="15.706645"><ele>90.0</ele><time>2026-05-03T12:57:53.482Z</time></trkpt><trkpt lat="39.9929133" lon="15.706655"><ele>91.0</ele><time>2026-05-03T12:57:54.481Z</time></trkpt><trkpt lat="39.9928367" lon="15.7066933"><ele>92.0</ele><time>2026-05-03T12:57:55.482Z</time></trkpt><trkpt lat="39.99279" lon="15.70677"><ele>93.0</ele><time>2026-05-03T12:57:56.482Z</time></trkpt><trkpt lat="39.9928133" lon="15.7068767"><ele>93.4</ele><time>2026-05-03T12:57:57.482Z</time></trkpt><trkpt lat="39.9928733" lon="15.70697"><ele>93.80000000000001</ele><time>2026-05-03T12:57:58.48Z</time></trkpt><trkpt lat="39.9929517" lon="15.707025"><ele>94.2</ele><time>2026-05-03T12:57:59.482Z</time></trkpt><trkpt lat="39.993065" lon="15.7070417"><ele>94.6</ele><time>2026-05-03T12:58:00.482Z</time></trkpt><trkpt lat="39.993205" lon="15.7070517"><ele>95.0</ele><time>2026-05-03T12:58:01.483Z</time></trkpt><trkpt lat="39.99336" lon="15.70707"><ele>97.0</ele><time>2026-05-03T12:58:02.482Z</time></trkpt><trkpt lat="39.99352" lon="15.7070967"><ele>99.0</ele><time>2026-05-03T12:58:03.481Z</time></trkpt><trkpt lat="39.9936783" lon="15.70715"><ele>101.0</ele><time>2026-05-03T12:58:04.481Z</time></trkpt><trkpt lat="39.9938333" lon="15.707245"><ele>101.0</ele><time>2026-05-03T12:58:05.482Z</time></trkpt><trkpt lat="39.9939667" lon="15.7073917"><ele>101.0</ele><time>2026-05-03T12:58:06.482Z</time></trkpt><trkpt lat="39.9940867" lon="15.7075667"><ele>101.0</ele><time>2026-05-03T12:58:07.483Z</time></trkpt><trkpt lat="39.9941933" lon="15.707735"><ele>102.0</ele><time>2026-05-03T12:58:08.481Z</time></trkpt><trkpt lat="39.9943017" lon="15.7079"><ele>103.0</ele><time>2026-05-03T12:58:09.483Z</time></trkpt><trkpt lat="39.9944133" lon="15.708045"><ele>104.0</ele><time>2026-05-03T12:58:10.482Z</time></trkpt><trkpt lat="39.994535" lon="15.7081717"><ele>104.0</ele><time>2026-05-03T12:58:11.482Z</time></trkpt><trkpt lat="39.9946633" lon="15.708275"><ele>104.0</ele><time>2026-05-03T12:58:12.483Z</time></trkpt><trkpt lat="39.9947867" lon="15.708365"><ele>104.0</ele><time>2026-05-03T12:58:13.482Z</time></trkpt><trkpt lat="39.9949067" lon="15.7084483"><ele>104.0</ele><time>2026-05-03T12:58:14.482Z</time></trkpt><trkpt lat="39.9950217" lon="15.708545"><ele>104.75</ele><time>2026-05-03T12:58:15.481Z</time></trkpt><trkpt lat="39.99513" lon="15.7086483"><ele>105.5</ele><time>2026-05-03T12:58:16.481Z</time></trkpt><trkpt lat="39.9952383" lon="15.708765"><ele>106.25</ele><time>2026-05-03T12:58:17.482Z</time></trkpt><trkpt lat="39.9953483" lon="15.7088767"><ele>107.0</ele><time>2026-05-03T12:58:18.481Z</time></trkpt><trkpt lat="39.99546" lon="15.708985"><ele>107.0</ele><time>2026-05-03T12:58:19.484Z</time></trkpt><trkpt lat="39.9955767" lon="15.7090783"><ele>107.0</ele><time>2026-05-03T12:58:20.481Z</time></trkpt><trkpt lat="39.9957033" lon="15.7091533"><ele>107.0</ele><time>2026-05-03T12:58:21.481Z</time></trkpt><trkpt lat="39.99584" lon="15.7092067"><ele>107.0</ele><time>2026-05-03T12:58:22.481Z</time></trkpt><trkpt lat="39.9959783" lon="15.7092583"><ele>108.0</ele><time>2026-05-03T12:58:23.482Z</time></trkpt><trkpt lat="39.9961083" lon="15.7093233"><ele>109.0</ele><time>2026-05-03T12:58:24.482Z</time></trkpt><trkpt lat="39.996235" lon="15.709405"><ele>110.0</ele><time>2026-05-03T12:58:25.482Z</time></trkpt><trkpt lat="39.9963583" lon="15.709495"><ele>111.0</ele><time>2026-05-03T12:58:26.483Z</time></trkpt><trkpt lat="39.9964833" lon="15.7095917"><ele>111.0</ele><time>2026-05-03T12:58:27.482Z</time></trkpt><trkpt lat="39.9966067" lon="15.7096983"><ele>111.0</ele><time>2026-05-03T12:58:28.482Z</time></trkpt><trkpt lat="39.9967267" lon="15.7098117"><ele>111.0</ele><time>2026-05-03T12:58:29.482Z</time></trkpt><trkpt lat="39.9968467" lon="15.7099317"><ele>111.0</ele><time>2026-05-03T12:58:30.482Z</time></trkpt><trkpt lat="39.9969683" lon="15.7100567"><ele>113.0</ele><time>2026-05-03T12:58:31.482Z</time></trkpt><trkpt lat="39.9970933" lon="15.710185"><ele>115.0</ele><time>2026-05-03T12:58:32.482Z</time></trkpt><trkpt lat="39.9972217" lon="15.7103133"><ele>117.0</ele><time>2026-05-03T12:58:33.481Z</time></trkpt><trkpt lat="39.9973483" lon="15.7104467"><ele>118.0</ele><time>2026-05-03T12:58:34.482Z</time></trkpt><trkpt lat="39.9974667" lon="15.71059"><ele>119.0</ele><time>2026-05-03T12:58:35.482Z</time></trkpt><trkpt lat="39.99757" lon="15.7107417"><ele>120.0</ele><time>2026-05-03T12:58:36.482Z</time></trkpt><trkpt lat="39.9976617" lon="15.7108983"><ele>122.0</ele><time>2026-05-03T12:58:37.482Z</time></trkpt><trkpt lat="39.9977517" lon="15.7110583"><ele>124.0</ele><time>2026-05-03T12:58:38.481Z</time></trkpt><trkpt lat="39.9978267" lon="15.7112283"><ele>126.0</ele><time>2026-05-03T12:58:39.482Z</time></trkpt><trkpt lat="39.99789" lon="15.7114033"><ele>128.25</ele><time>2026-05-03T12:58:40.482Z</time></trkpt><trkpt lat="39.997925" lon="15.7115717"><ele>130.5</ele><time>2026-05-03T12:58:41.483Z</time></trkpt><trkpt lat="39.9979317" lon="15.7117267"><ele>132.75</ele><time>2026-05-03T12:58:42.481Z</time></trkpt><trkpt lat="39.9979" lon="15.7118733"><ele>135.0</ele><time>2026-05-03T12:58:43.481Z</time></trkpt><trkpt lat="39.9978367" lon="15.7120017"><ele>137.8</ele><time>2026-05-03T12:58:44.482Z</time></trkpt><trkpt lat="39.997765" lon="15.7121183"><ele>140.6</ele><time>2026-05-03T12:58:45.482Z</time></trkpt><trkpt lat="39.9976983" lon="15.7122267"><ele>143.4</ele><time>2026-05-03T12:58:46.481Z</time></trkpt><trkpt lat="39.9976383" lon="15.7123283"><ele>146.2</ele><time>2026-05-03T12:58:47.482Z</time></trkpt><trkpt lat="39.9975733" lon="15.7124183"><ele>149.0</ele><time>2026-05-03T12:58:48.482Z</time></trkpt><trkpt lat="39.997505" lon="15.7125033"><ele>150.2</ele><time>2026-05-03T12:58:49.482Z</time></trkpt><trkpt lat="39.9974267" lon="15.7125883"><ele>151.4</ele><time>2026-05-03T12:58:50.482Z</time></trkpt><trkpt lat="39.9973467" lon="15.712675"><ele>152.6</ele><time>2026-05-03T12:58:51.482Z</time></trkpt><trkpt lat="39.9972667" lon="15.7127633"><ele>153.8</ele><time>2026-05-03T12:58:52.482Z</time></trkpt><trkpt lat="39.9971817" lon="15.7128517"><ele>155.0</ele><time>2026-05-03T12:58:53.481Z</time></trkpt><trkpt lat="39.997095" lon="15.71294"><ele>155.0</ele><time>2026-05-03T12:58:54.482Z</time></trkpt><trkpt lat="39.997" lon="15.7130167"><ele>155.0</ele><time>2026-05-03T12:58:55.482Z</time></trkpt><trkpt lat="39.996895" lon="15.7130667"><ele>155.0</ele><time>2026-05-03T12:58:56.482Z</time></trkpt><trkpt lat="39.996785" lon="15.7130983"><ele>155.0</ele><time>2026-05-03T12:58:57.481Z</time></trkpt><trkpt lat="39.996665" lon="15.7131233"><ele>152.75</ele><time>2026-05-03T12:58:58.481Z</time></trkpt><trkpt lat="39.9965383" lon="15.713165"><ele>150.5</ele><time>2026-05-03T12:58:59.482Z</time></trkpt><trkpt lat="39.9964133" lon="15.7132083"><ele>148.25</ele><time>2026-05-03T12:59:00.481Z</time></trkpt><trkpt lat="39.9962983" lon="15.7132583"><ele>146.0</ele><time>2026-05-03T12:59:01.483Z</time></trkpt><trkpt lat="39.99619" lon="15.7133117"><ele>146.0</ele><time>2026-05-03T12:59:02.482Z</time></trkpt><trkpt lat="39.9960867" lon="15.7133617"><ele>146.0</ele><time>2026-05-03T12:59:03.481Z</time></trkpt><trkpt lat="39.9959833" lon="15.713395"><ele>146.0</ele><time>2026-05-03T12:59:04.482Z</time></trkpt><trkpt lat="39.995885" lon="15.7133967"><ele>146.0</ele><time>2026-05-03T12:59:05.481Z</time></trkpt><trkpt lat="39.995795" lon="15.7133667"><ele>146.0</ele><time>2026-05-03T12:59:06.482Z</time></trkpt><trkpt lat="39.995715" lon="15.71332"><ele>145.66666666666666</ele><time>2026-05-03T12:59:07.483Z</time></trkpt><trkpt lat="39.9956417" lon="15.7132667"><ele>145.33333333333331</ele><time>2026-05-03T12:59:08.481Z</time></trkpt><trkpt lat="39.99557" lon="15.7132283"><ele>145.0</ele><time>2026-05-03T12:59:09.482Z</time></trkpt><trkpt lat="39.9954933" lon="15.7132217"><ele>144.66666666666666</ele><time>2026-05-03T12:59:10.481Z</time></trkpt><trkpt lat="39.995415" lon="15.7132683"><ele>144.33333333333334</ele><time>2026-05-03T12:59:11.482Z</time></trkpt><trkpt lat="39.9953483" lon="15.71335"><ele>144.0</ele><time>2026-05-03T12:59:12.481Z</time></trkpt><trkpt lat="39.995305" lon="15.7134367"><ele>144.0</ele><time>2026-05-03T12:59:13.483Z</time></trkpt><trkpt lat="39.99527" lon="15.71352"><ele>144.0</ele><time>2026-05-03T12:59:14.483Z</time></trkpt><trkpt lat="39.99523" lon="15.7136067"><ele>144.0</ele><time>2026-05-03T12:59:15.482Z</time></trkpt><trkpt lat="39.9951733" lon="15.7136917"><ele>144.0</ele><time>2026-05-03T12:59:16.481Z</time></trkpt><trkpt lat="39.9951033" lon="15.7137733"><ele>144.0</ele><time>2026-05-03T12:59:17.481Z</time></trkpt><trkpt lat="39.9950217" lon="15.7138383"><ele>144.0</ele><time>2026-05-03T12:59:18.481Z</time></trkpt><trkpt lat="39.994935" lon="15.71388"><ele>147.2</ele><time>2026-05-03T12:59:19.483Z</time></trkpt><trkpt lat="39.99484" lon="15.7138883"><ele>150.4</ele><time>2026-05-03T12:59:20.481Z</time></trkpt><trkpt lat="39.9947383" lon="15.7138667"><ele>153.6</ele><time>2026-05-03T12:59:21.482Z</time></trkpt><trkpt lat="39.99464" lon="15.7138183"><ele>156.8</ele><time>2026-05-03T12:59:22.482Z</time></trkpt><trkpt lat="39.9945567" lon="15.7137583"><ele>160.0</ele><time>2026-05-03T12:59:23.483Z</time></trkpt><trkpt lat="39.994485" lon="15.7136917"><ele>160.0</ele><time>2026-05-03T12:59:24.482Z</time></trkpt><trkpt lat="39.9944167" lon="15.7136383"><ele>160.0</ele><time>2026-05-03T12:59:25.482Z</time></trkpt><trkpt lat="39.9943533" lon="15.71361"><ele>160.0</ele><time>2026-05-03T12:59:26.484Z</time></trkpt><trkpt lat="39.9942483" lon="15.713635"><ele>160.0</ele><time>2026-05-03T12:59:28.481Z</time></trkpt><trkpt lat="39.9941867" lon="15.7137117"><ele>160.0</ele><time>2026-05-03T12:59:30.482Z</time></trkpt><trkpt lat="39.9941167" lon="15.713815"><ele>160.0</ele><time>2026-05-03T12:59:32.482Z</time></trkpt><trkpt lat="39.994045" lon="15.71395"><ele>159.6</ele><time>2026-05-03T12:59:34.482Z</time></trkpt><trkpt lat="39.9940117" lon="15.7140533"><ele>159.2</ele><time>2026-05-03T12:59:35.483Z</time></trkpt><trkpt lat="39.9939817" lon="15.7141917"><ele>158.8</ele><time>2026-05-03T12:59:36.481Z</time></trkpt><trkpt lat="39.9939667" lon="15.714355"><ele>158.4</ele><time>2026-05-03T12:59:37.482Z</time></trkpt><trkpt lat="39.9939583" lon="15.7145183"><ele>158.0</ele><time>2026-05-03T12:59:38.482Z</time></trkpt><trkpt lat="39.9939517" lon="15.7146667"><ele>159.2</ele><time>2026-05-03T12:59:39.482Z</time></trkpt><trkpt lat="39.9939467" lon="15.7147983"><ele>160.4</ele><time>2026-05-03T12:59:40.482Z</time></trkpt><trkpt lat="39.9939417" lon="15.7149267"><ele>161.6</ele><time>2026-05-03T12:59:41.482Z</time></trkpt><trkpt lat="39.9939383" lon="15.7150633"><ele>162.79999999999998</ele><time>2026-05-03T12:59:42.486Z</time></trkpt><trkpt lat="39.9939367" lon="15.7152167"><ele>164.0</ele><time>2026-05-03T12:59:43.482Z</time></trkpt><trkpt lat="39.993935" lon="15.7153817"><ele>164.25</ele><time>2026-05-03T12:59:44.481Z</time></trkpt><trkpt lat="39.9939283" lon="15.715555"><ele>164.5</ele><time>2026-05-03T12:59:45.483Z</time></trkpt><trkpt lat="39.993935" lon="15.71573"><ele>164.75</ele><time>2026-05-03T12:59:46.481Z</time></trkpt><trkpt lat="39.99397" lon="15.7158983"><ele>165.0</ele><time>2026-05-03T12:59:47.482Z</time></trkpt><trkpt lat="39.994025" lon="15.7160633"><ele>166.75</ele><time>2026-05-03T12:59:48.483Z</time></trkpt><trkpt lat="39.994095" lon="15.7162217"><ele>168.5</ele><time>2026-05-03T12:59:49.483Z</time></trkpt><trkpt lat="39.9941817" lon="15.7163583"><ele>170.25</ele><time>2026-05-03T12:59:50.482Z</time></trkpt><trkpt lat="39.9942883" lon="15.7164667"><ele>172.0</ele><time>2026-05-03T12:59:51.482Z</time></trkpt><trkpt lat="39.9944183" lon="15.7165433"><ele>172.0</ele><time>2026-05-03T12:59:52.482Z</time></trkpt><trkpt lat="39.9945667" lon="15.7166"><ele>172.0</ele><time>2026-05-03T12:59:53.483Z</time></trkpt><trkpt lat="39.9947283" lon="15.716645"><ele>172.0</ele><time>2026-05-03T12:59:54.482Z</time></trkpt><trkpt lat="39.9949" lon="15.716695"><ele>173.66666666666669</ele><time>2026-05-03T12:59:55.483Z</time></trkpt><trkpt lat="39.9950683" lon="15.7167483"><ele>175.33333333333334</ele><time>2026-05-03T12:59:56.481Z</time></trkpt><trkpt lat="39.9952317" lon="15.71679"><ele>177.0</ele><time>2026-05-03T12:59:57.482Z</time></trkpt><trkpt lat="39.9953817" lon="15.7168333"><ele>177.0</ele><time>2026-05-03T12:59:58.482Z</time></trkpt><trkpt lat="39.9955283" lon="15.7168683"><ele>177.0</ele><time>2026-05-03T12:59:59.483Z</time></trkpt><trkpt lat="39.99567" lon="15.71687"><ele>177.0</ele><time>2026-05-03T13:00:00.483Z</time></trkpt><trkpt lat="39.995805" lon="15.7168283"><ele>177.0</ele><time>2026-05-03T13:00:01.483Z</time></trkpt><trkpt lat="39.9959267" lon="15.7167567"><ele>178.25</ele><time>2026-05-03T13:00:02.484Z</time></trkpt><trkpt lat="39.9960283" lon="15.716665"><ele>179.5</ele><time>2026-05-03T13:00:03.483Z</time></trkpt><trkpt lat="39.9961233" lon="15.71659"><ele>180.75</ele><time>2026-05-03T13:00:04.485Z</time></trkpt><trkpt lat="39.9962283" lon="15.7165617"><ele>182.0</ele><time>2026-05-03T13:00:05.483Z</time></trkpt><trkpt lat="39.9963533" lon="15.716565"><ele>182.0</ele><time>2026-05-03T13:00:06.482Z</time></trkpt><trkpt lat="39.996495" lon="15.7165817"><ele>182.0</ele><time>2026-05-03T13:00:07.483Z</time></trkpt><trkpt lat="39.9966517" lon="15.7165717"><ele>182.0</ele><time>2026-05-03T13:00:08.484Z</time></trkpt><trkpt lat="39.99682" lon="15.7165583"><ele>184.66666666666666</ele><time>2026-05-03T13:00:09.484Z</time></trkpt><trkpt lat="39.9969917" lon="15.7165517"><ele>187.33333333333334</ele><time>2026-05-03T13:00:10.483Z</time></trkpt><trkpt lat="39.9971667" lon="15.7165467"><ele>190.0</ele><time>2026-05-03T13:00:11.483Z</time></trkpt><trkpt lat="39.9973333" lon="15.716535"><ele>190.0</ele><time>2026-05-03T13:00:12.48Z</time></trkpt><trkpt lat="39.9975" lon="15.7165133"><ele>190.0</ele><time>2026-05-03T13:00:13.483Z</time></trkpt><trkpt lat="39.9976633" lon="15.716485"><ele>190.0</ele><time>2026-05-03T13:00:14.482Z</time></trkpt><trkpt lat="39.99782" lon="15.716475"><ele>190.66666666666669</ele><time>2026-05-03T13:00:15.481Z</time></trkpt><trkpt lat="39.9979817" lon="15.7164933"><ele>191.33333333333334</ele><time>2026-05-03T13:00:16.482Z</time></trkpt><trkpt lat="39.998145" lon="15.71652"><ele>192.0</ele><time>2026-05-03T13:00:17.483Z</time></trkpt><trkpt lat="39.998305" lon="15.71654"><ele>192.75</ele><time>2026-05-03T13:00:18.482Z</time></trkpt><trkpt lat="39.99845" lon="15.7165367"><ele>193.5</ele><time>2026-05-03T13:00:19.483Z</time></trkpt><trkpt lat="39.9985783" lon="15.7165033"><ele>194.25</ele><time>2026-05-03T13:00:20.482Z</time></trkpt><trkpt lat="39.9986983" lon="15.7164767"><ele>195.0</ele><time>2026-05-03T13:00:21.482Z</time></trkpt><trkpt lat="39.998815" lon="15.7164833"><ele>195.0</ele><time>2026-05-03T13:00:22.483Z</time></trkpt><trkpt lat="39.99893" lon="15.71653"><ele>195.0</ele><time>2026-05-03T13:00:23.484Z</time></trkpt><trkpt lat="39.9990467" lon="15.7166183"><ele>195.0</ele><time>2026-05-03T13:00:24.482Z</time></trkpt><trkpt lat="39.9991583" lon="15.71674"><ele>195.0</ele><time>2026-05-03T13:00:25.483Z</time></trkpt><trkpt lat="39.99928" lon="15.7168817"><ele>197.33333333333331</ele><time>2026-05-03T13:00:26.482Z</time></trkpt><trkpt lat="39.9994117" lon="15.7170117"><ele>199.66666666666666</ele><time>2026-05-03T13:00:27.482Z</time></trkpt><trkpt lat="39.9995483" lon="15.717115"><ele>202.0</ele><time>2026-05-03T13:00:28.482Z</time></trkpt><trkpt lat="39.99968" lon="15.717195"><ele>202.0</ele><time>2026-05-03T13:00:29.481Z</time></trkpt><trkpt lat="39.9997983" lon="15.7172617"><ele>202.0</ele><time>2026-05-03T13:00:30.483Z</time></trkpt><trkpt lat="39.9998933" lon="15.71733"><ele>202.0</ele><time>2026-05-03T13:00:31.483Z</time></trkpt><trkpt lat="39.9999633" lon="15.7174167"><ele>202.0</ele><time>2026-05-03T13:00:32.482Z</time></trkpt><trkpt lat="40.0000017" lon="15.717515"><ele>202.0</ele><time>2026-05-03T13:00:33.484Z</time></trkpt><trkpt lat="40.00002" lon="15.717615"><ele>202.0</ele><time>2026-05-03T13:00:34.483Z</time></trkpt><trkpt lat="39.9999667" lon="15.7176683"><ele>202.0</ele><time>2026-05-03T13:00:35.481Z</time></trkpt><trkpt lat="39.9998833" lon="15.7176917"><ele>202.0</ele><time>2026-05-03T13:00:36.483Z</time></trkpt><trkpt lat="39.9997833" lon="15.7176733"><ele>202.0</ele><time>2026-05-03T13:00:37.482Z</time></trkpt><trkpt lat="39.9996533" lon="15.7176217"><ele>202.0</ele><time>2026-05-03T13:00:38.483Z</time></trkpt><trkpt lat="39.9995017" lon="15.7175617"><ele>202.0</ele><time>2026-05-03T13:00:39.482Z</time></trkpt><trkpt lat="39.9993533" lon="15.7175283"><ele>202.0</ele><time>2026-05-03T13:00:40.482Z</time></trkpt><trkpt lat="39.9992033" lon="15.7175283"><ele>202.0</ele><time>2026-05-03T13:00:41.481Z</time></trkpt><trkpt lat="39.9990567" lon="15.7175667"><ele>203.33333333333331</ele><time>2026-05-03T13:00:42.483Z</time></trkpt><trkpt lat="39.9989083" lon="15.7176433"><ele>204.66666666666669</ele><time>2026-05-03T13:00:43.482Z</time></trkpt><trkpt lat="39.9987783" lon="15.7177667"><ele>206.0</ele><time>2026-05-03T13:00:44.483Z</time></trkpt><trkpt lat="39.99867" lon="15.7179233"><ele>208.25</ele><time>2026-05-03T13:00:45.481Z</time></trkpt><trkpt lat="39.99859" lon="15.7181"><ele>210.5</ele><time>2026-05-03T13:00:46.481Z</time></trkpt><trkpt lat="39.9985333" lon="15.71828"><ele>212.75</ele><time>2026-05-03T13:00:47.481Z</time></trkpt><trkpt lat="39.9985033" lon="15.7184583"><ele>215.0</ele><time>2026-05-03T13:00:48.484Z</time></trkpt><trkpt lat="39.9984917" lon="15.7186383"><ele>216.25</ele><time>2026-05-03T13:00:49.483Z</time></trkpt><trkpt lat="39.9984933" lon="15.7188117"><ele>217.5</ele><time>2026-05-03T13:00:50.483Z</time></trkpt><trkpt lat="39.9985" lon="15.71898"><ele>218.75</ele><time>2026-05-03T13:00:51.483Z</time></trkpt><trkpt lat="39.998505" lon="15.71915"><ele>220.0</ele><time>2026-05-03T13:00:52.483Z</time></trkpt><trkpt lat="39.9984967" lon="15.7193167"><ele>221.25</ele><time>2026-05-03T13:00:53.484Z</time></trkpt><trkpt lat="39.9984683" lon="15.7194717"><ele>222.5</ele><time>2026-05-03T13:00:54.483Z</time></trkpt><trkpt lat="39.99841" lon="15.7196017"><ele>223.75</ele><time>2026-05-03T13:00:55.482Z</time></trkpt><trkpt lat="39.9983283" lon="15.719705"><ele>225.0</ele><time>2026-05-03T13:00:56.483Z</time></trkpt><trkpt lat="39.9982083" lon="15.7197667"><ele>225.0</ele><time>2026-05-03T13:00:57.482Z</time></trkpt><trkpt lat="39.9980667" lon="15.7198117"><ele>225.0</ele><time>2026-05-03T13:00:58.482Z</time></trkpt><trkpt lat="39.9979067" lon="15.7198433"><ele>225.0</ele><time>2026-05-03T13:00:59.483Z</time></trkpt><trkpt lat="39.997735" lon="15.7198717"><ele>225.0</ele><time>2026-05-03T13:01:00.483Z</time></trkpt><trkpt lat="39.99755" lon="15.7198967"><ele>225.0</ele><time>2026-05-03T13:01:01.482Z</time></trkpt><trkpt lat="39.99737" lon="15.7199183"><ele>225.0</ele><time>2026-05-03T13:01:02.483Z</time></trkpt><trkpt lat="39.9972017" lon="15.7199317"><ele>225.0</ele><time>2026-05-03T13:01:03.482Z</time></trkpt><trkpt lat="39.9970583" lon="15.71992"><ele>225.0</ele><time>2026-05-03T13:01:04.482Z</time></trkpt><trkpt lat="39.9969383" lon="15.7198583"><ele>225.0</ele><time>2026-05-03T13:01:05.483Z</time></trkpt><trkpt lat="39.9968483" lon="15.71975"><ele>225.0</ele><time>2026-05-03T13:01:06.483Z</time></trkpt><trkpt lat="39.99677" lon="15.7196267"><ele>225.0</ele><time>2026-05-03T13:01:07.483Z</time></trkpt><trkpt lat="39.99669" lon="15.7195167"><ele>225.0</ele><time>2026-05-03T13:01:08.484Z</time></trkpt><trkpt lat="39.9965967" lon="15.7194383"><ele>225.0</ele><time>2026-05-03T13:01:09.484Z</time></trkpt><trkpt lat="39.996495" lon="15.7194"><ele>225.0</ele><time>2026-05-03T13:01:10.485Z</time></trkpt><trkpt lat="39.99639" lon="15.719395"><ele>225.0</ele><time>2026-05-03T13:01:11.483Z</time></trkpt><trkpt lat="39.9962833" lon="15.7194033"><ele>226.5</ele><time>2026-05-03T13:01:12.483Z</time></trkpt><trkpt lat="39.9961917" lon="15.7194183"><ele>228.0</ele><time>2026-05-03T13:01:13.483Z</time></trkpt><trkpt lat="39.9961133" lon="15.7194283"><ele>229.5</ele><time>2026-05-03T13:01:14.484Z</time></trkpt><trkpt lat="39.9960483" lon="15.719435"><ele>231.0</ele><time>2026-05-03T13:01:15.482Z</time></trkpt><trkpt lat="39.9959583" lon="15.71944"><ele>232.5</ele><time>2026-05-03T13:01:17.483Z</time></trkpt><trkpt lat="39.9958983" lon="15.719465"><ele>234.0</ele><time>2026-05-03T13:01:19.484Z</time></trkpt><trkpt lat="39.9958883" lon="15.7195667"><ele>234.0</ele><time>2026-05-03T13:01:22.484Z</time></trkpt><trkpt lat="39.9959367" lon="15.719665"><ele>234.0</ele><time>2026-05-03T13:01:24.482Z</time></trkpt><trkpt lat="39.9960267" lon="15.719775"><ele>234.0</ele><time>2026-05-03T13:01:26.484Z</time></trkpt><trkpt lat="39.99607" lon="15.719835"><ele>234.0</ele><time>2026-05-03T13:01:27.481Z</time></trkpt><trkpt lat="39.9961083" lon="15.7199017"><ele>234.0</ele><time>2026-05-03T13:01:28.481Z</time></trkpt><trkpt lat="39.9961433" lon="15.7199783"><ele>234.0</ele><time>2026-05-03T13:01:29.481Z</time></trkpt><trkpt lat="39.9961817" lon="15.720055"><ele>234.0</ele><time>2026-05-03T13:01:30.48Z</time></trkpt><trkpt lat="39.99622" lon="15.7201317"><ele>234.00000000000003</ele><time>2026-05-03T13:01:31.482Z</time></trkpt><trkpt lat="39.9962567" lon="15.7202117"><ele>234.0</ele><time>2026-05-03T13:01:32.482Z</time></trkpt><trkpt lat="39.9962933" lon="15.7202933"><ele>234.0</ele><time>2026-05-03T13:01:33.482Z</time></trkpt><trkpt lat="39.9963283" lon="15.72038"><ele>234.00000000000003</ele><time>2026-05-03T13:01:34.482Z</time></trkpt><trkpt lat="39.996355" lon="15.7204683"><ele>234.0</ele><time>2026-05-03T13:01:35.482Z</time></trkpt><trkpt lat="39.9963717" lon="15.7205683"><ele>234.0</ele><time>2026-05-03T13:01:36.481Z</time></trkpt><trkpt lat="39.996375" lon="15.7206733"><ele>236.39999999999998</ele><time>2026-05-03T13:01:37.481Z</time></trkpt><trkpt lat="39.9963717" lon="15.720785"><ele>238.79999999999998</ele><time>2026-05-03T13:01:38.483Z</time></trkpt><trkpt lat="39.996365" lon="15.72091"><ele>241.20000000000002</ele><time>2026-05-03T13:01:39.482Z</time></trkpt><trkpt lat="39.9963567" lon="15.72103"><ele>243.60000000000002</ele><time>2026-05-03T13:01:40.481Z</time></trkpt><trkpt lat="39.996345" lon="15.7211417"><ele>246.0</ele><time>2026-05-03T13:01:41.482Z</time></trkpt><trkpt lat="39.9963183" lon="15.721255"><ele>247.8</ele><time>2026-05-03T13:01:42.481Z</time></trkpt><trkpt lat="39.996265" lon="15.721365"><ele>249.60000000000002</ele><time>2026-05-03T13:01:43.482Z</time></trkpt><trkpt lat="39.996195" lon="15.7214583"><ele>251.4</ele><time>2026-05-03T13:01:44.482Z</time></trkpt><trkpt lat="39.9961133" lon="15.7215383"><ele>253.2</ele><time>2026-05-03T13:01:45.481Z</time></trkpt><trkpt lat="39.9960283" lon="15.7216083"><ele>255.0</ele><time>2026-05-03T13:01:46.481Z</time></trkpt><trkpt lat="39.99595" lon="15.7216767"><ele>255.0</ele><time>2026-05-03T13:01:47.481Z</time></trkpt><trkpt lat="39.9958783" lon="15.7217417"><ele>255.0</ele><time>2026-05-03T13:01:48.481Z</time></trkpt><trkpt lat="39.9958183" lon="15.7218067"><ele>255.0</ele><time>2026-05-03T13:01:49.482Z</time></trkpt><trkpt lat="39.9957667" lon="15.721875"><ele>255.0</ele><time>2026-05-03T13:01:50.482Z</time></trkpt><trkpt lat="39.99572" lon="15.7219467"><ele>255.0</ele><time>2026-05-03T13:01:51.481Z</time></trkpt><trkpt lat="39.9956783" lon="15.7220217"><ele>255.0</ele><time>2026-05-03T13:01:52.482Z</time></trkpt><trkpt lat="39.9956317" lon="15.7221117"><ele>256.8</ele><time>2026-05-03T13:01:53.483Z</time></trkpt><trkpt lat="39.995585" lon="15.7222117"><ele>258.6</ele><time>2026-05-03T13:01:54.482Z</time></trkpt><trkpt lat="39.9955367" lon="15.7223217"><ele>260.4</ele><time>2026-05-03T13:01:55.481Z</time></trkpt><trkpt lat="39.9954883" lon="15.7224333"><ele>262.2</ele><time>2026-05-03T13:01:56.481Z</time></trkpt><trkpt lat="39.99544" lon="15.72255"><ele>264.0</ele><time>2026-05-03T13:01:57.481Z</time></trkpt><trkpt lat="39.995405" lon="15.72267"><ele>265.2</ele><time>2026-05-03T13:01:58.483Z</time></trkpt><trkpt lat="39.995385" lon="15.7227933"><ele>266.4</ele><time>2026-05-03T13:01:59.483Z</time></trkpt><trkpt lat="39.99539" lon="15.722915"><ele>267.6</ele><time>2026-05-03T13:02:00.483Z</time></trkpt><trkpt lat="39.9954233" lon="15.72303"><ele>268.8</ele><time>2026-05-03T13:02:01.482Z</time></trkpt><trkpt lat="39.995485" lon="15.7231233"><ele>270.0</ele><time>2026-05-03T13:02:02.483Z</time></trkpt><trkpt lat="39.99557" lon="15.72322"><ele>270.0</ele><time>2026-05-03T13:02:03.482Z</time></trkpt><trkpt lat="39.9956633" lon="15.72332"><ele>270.0</ele><time>2026-05-03T13:02:04.482Z</time></trkpt><trkpt lat="39.9957533" lon="15.7234167"><ele>270.0</ele><time>2026-05-03T13:02:05.483Z</time></trkpt><trkpt lat="39.9958317" lon="15.7235033"><ele>270.0</ele><time>2026-05-03T13:02:06.484Z</time></trkpt><trkpt lat="39.995915" lon="15.7235867"><ele>270.0</ele><time>2026-05-03T13:02:07.483Z</time></trkpt><trkpt lat="39.9959983" lon="15.7236783"><ele>271.0</ele><time>2026-05-03T13:02:08.483Z</time></trkpt><trkpt lat="39.9960783" lon="15.72379"><ele>272.0</ele><time>2026-05-03T13:02:09.482Z</time></trkpt><trkpt lat="39.9961483" lon="15.72392"><ele>273.0</ele><time>2026-05-03T13:02:10.482Z</time></trkpt><trkpt lat="39.9962167" lon="15.72407"><ele>274.0</ele><time>2026-05-03T13:02:11.48Z</time></trkpt><trkpt lat="39.996285" lon="15.7242433"><ele>277.0</ele><time>2026-05-03T13:02:12.481Z</time></trkpt><trkpt lat="39.996345" lon="15.7244283"><ele>280.0</ele><time>2026-05-03T13:02:13.481Z</time></trkpt><trkpt lat="39.996385" lon="15.7246033"><ele>283.0</ele><time>2026-05-03T13:02:14.482Z</time></trkpt><trkpt lat="39.99641" lon="15.7247617"><ele>286.0</ele><time>2026-05-03T13:02:15.48Z</time></trkpt><trkpt lat="39.99641" lon="15.7249117"><ele>286.0</ele><time>2026-05-03T13:02:16.482Z</time></trkpt><trkpt lat="39.99639" lon="15.7250517"><ele>286.0</ele><time>2026-05-03T13:02:17.483Z</time></trkpt><trkpt lat="39.996315" lon="15.7251633"><ele>286.0</ele><time>2026-05-03T13:02:18.482Z</time></trkpt><trkpt lat="39.9962133" lon="15.7252417"><ele>286.0</ele><time>2026-05-03T13:02:19.484Z</time></trkpt><trkpt lat="39.99611" lon="15.7252917"><ele>287.5</ele><time>2026-05-03T13:02:20.484Z</time></trkpt><trkpt lat="39.99602" lon="15.7253217"><ele>289.0</ele><time>2026-05-03T13:02:21.482Z</time></trkpt><trkpt lat="39.9959333" lon="15.7253117"><ele>290.5</ele><time>2026-05-03T13:02:22.481Z</time></trkpt><trkpt lat="39.99585" lon="15.7252833"><ele>292.0</ele><time>2026-05-03T13:02:23.482Z</time></trkpt><trkpt lat="39.995775" lon="15.7252367"><ele>293.5</ele><time>2026-05-03T13:02:24.482Z</time></trkpt><trkpt lat="39.9957017" lon="15.7251767"><ele>295.0</ele><time>2026-05-03T13:02:25.481Z</time></trkpt><trkpt lat="39.99563" lon="15.7251283"><ele>295.00000000000006</ele><time>2026-05-03T13:02:26.482Z</time></trkpt><trkpt lat="39.9955567" lon="15.72509"><ele>295.0</ele><time>2026-05-03T13:02:27.48Z</time></trkpt><trkpt lat="39.9954817" lon="15.7250633"><ele>295.0</ele><time>2026-05-03T13:02:28.483Z</time></trkpt><trkpt lat="39.9954117" lon="15.7250483"><ele>295.0</ele><time>2026-05-03T13:02:29.481Z</time></trkpt><trkpt lat="39.9953417" lon="15.725045"><ele>295.0</ele><time>2026-05-03T13:02:30.482Z</time></trkpt><trkpt lat="39.9952717" lon="15.7250533"><ele>295.00000000000006</ele><time>2026-05-03T13:02:31.481Z</time></trkpt><trkpt lat="39.9951967" lon="15.7250617"><ele>295.0</ele><time>2026-05-03T13:02:32.481Z</time></trkpt><trkpt lat="39.9951217" lon="15.725085"><ele>295.0</ele><time>2026-05-03T13:02:33.48Z</time></trkpt><trkpt lat="39.9950567" lon="15.7251183"><ele>295.0</ele><time>2026-05-03T13:02:34.482Z</time></trkpt><trkpt lat="39.99497" lon="15.7251767"><ele>295.0</ele><time>2026-05-03T13:02:36.482Z</time></trkpt><trkpt lat="39.9949067" lon="15.7252217"><ele>295.0</ele><time>2026-05-03T13:02:38.482Z</time></trkpt><trkpt lat="39.9948333" lon="15.72529"><ele>295.0</ele><time>2026-05-03T13:02:41.481Z</time></trkpt><trkpt lat="39.99478" lon="15.725355"><ele>295.0</ele><time>2026-05-03T13:02:45.481Z</time></trkpt><trkpt lat="39.9948167" lon="15.7254583"><ele>297.4</ele><time>2026-05-03T13:02:47.481Z</time></trkpt><trkpt lat="39.9948733" lon="15.7255183"><ele>299.8</ele><time>2026-05-03T13:02:48.482Z</time></trkpt><trkpt lat="39.9949517" lon="15.7255767"><ele>302.2</ele><time>2026-05-03T13:02:49.481Z</time></trkpt><trkpt lat="39.995065" lon="15.7256183"><ele>304.6</ele><time>2026-05-03T13:02:50.482Z</time></trkpt><trkpt lat="39.9951967" lon="15.7256433"><ele>307.0</ele><time>2026-05-03T13:02:51.482Z</time></trkpt><trkpt lat="39.995335" lon="15.7256633"><ele>307.0</ele><time>2026-05-03T13:02:52.481Z</time></trkpt><trkpt lat="39.9954767" lon="15.7256933"><ele>307.0</ele><time>2026-05-03T13:02:53.481Z</time></trkpt><trkpt lat="39.9956183" lon="15.7257367"><ele>307.0</ele><time>2026-05-03T13:02:54.483Z</time></trkpt><trkpt lat="39.9957467" lon="15.7258067"><ele>307.0</ele><time>2026-05-03T13:02:55.481Z</time></trkpt><trkpt lat="39.9958633" lon="15.7259017"><ele>309.3333333333333</ele><time>2026-05-03T13:02:56.482Z</time></trkpt><trkpt lat="39.995975" lon="15.7260317"><ele>311.6666666666667</ele><time>2026-05-03T13:02:57.48Z</time></trkpt><trkpt lat="39.996085" lon="15.7261883"><ele>314.0</ele><time>2026-05-03T13:02:58.483Z</time></trkpt><trkpt lat="39.9961967" lon="15.7263467"><ele>314.0</ele><time>2026-05-03T13:02:59.481Z</time></trkpt><trkpt lat="39.996315" lon="15.72649"><ele>314.0</ele><time>2026-05-03T13:03:00.482Z</time></trkpt><trkpt lat="39.99644" lon="15.7266067"><ele>314.0</ele><time>2026-05-03T13:03:01.482Z</time></trkpt><trkpt lat="39.9965717" lon="15.7266967"><ele>314.5</ele><time>2026-05-03T13:03:02.483Z</time></trkpt><trkpt lat="39.9967067" lon="15.7267567"><ele>315.0</ele><time>2026-05-03T13:03:03.481Z</time></trkpt><trkpt lat="39.9968367" lon="15.726785"><ele>315.5</ele><time>2026-05-03T13:03:04.482Z</time></trkpt><trkpt lat="39.9969767" lon="15.726775"><ele>316.0</ele><time>2026-05-03T13:03:05.482Z</time></trkpt><trkpt lat="39.9971217" lon="15.726725"><ele>316.0</ele><time>2026-05-03T13:03:06.481Z</time></trkpt><trkpt lat="39.9972767" lon="15.7266433"><ele>316.0</ele><time>2026-05-03T13:03:07.481Z</time></trkpt><trkpt lat="39.9974333" lon="15.726565"><ele>316.0</ele><time>2026-05-03T13:03:08.482Z</time></trkpt><trkpt lat="39.9975833" lon="15.7264983"><ele>315.75</ele><time>2026-05-03T13:03:09.482Z</time></trkpt><trkpt lat="39.99771" lon="15.72646"><ele>315.5</ele><time>2026-05-03T13:03:10.482Z</time></trkpt><trkpt lat="39.99783" lon="15.7264517"><ele>315.25</ele><time>2026-05-03T13:03:11.482Z</time></trkpt><trkpt lat="39.99794" lon="15.7264933"><ele>315.0</ele><time>2026-05-03T13:03:12.482Z</time></trkpt><trkpt lat="39.99804" lon="15.7265633"><ele>315.0</ele><time>2026-05-03T13:03:13.482Z</time></trkpt><trkpt lat="39.99811" lon="15.7266383"><ele>315.0</ele><time>2026-05-03T13:03:14.482Z</time></trkpt><trkpt lat="39.99815" lon="15.7267117"><ele>315.0</ele><time>2026-05-03T13:03:15.481Z</time></trkpt><trkpt lat="39.9981933" lon="15.7268617"><ele>315.0</ele><time>2026-05-03T13:03:17.481Z</time></trkpt><trkpt lat="39.9982317" lon="15.7269283"><ele>315.0</ele><time>2026-05-03T13:03:18.481Z</time></trkpt><trkpt lat="39.9982917" lon="15.7269933"><ele>315.0</ele><time>2026-05-03T13:03:19.481Z</time></trkpt><trkpt lat="39.99838" lon="15.7270533"><ele>319.75</ele><time>2026-05-03T13:03:20.481Z</time></trkpt><trkpt lat="39.9984867" lon="15.7271117"><ele>324.5</ele><time>2026-05-03T13:03:21.481Z</time></trkpt><trkpt lat="39.99861" lon="15.72716"><ele>329.25</ele><time>2026-05-03T13:03:22.481Z</time></trkpt><trkpt lat="39.9987633" lon="15.7271983"><ele>334.0</ele><time>2026-05-03T13:03:23.482Z</time></trkpt><trkpt lat="39.99893" lon="15.7272383"><ele>334.0</ele><time>2026-05-03T13:03:24.484Z</time></trkpt><trkpt lat="39.999095" lon="15.72729"><ele>334.0</ele><time>2026-05-03T13:03:25.482Z</time></trkpt><trkpt lat="39.9992633" lon="15.72735"><ele>334.0</ele><time>2026-05-03T13:03:26.482Z</time></trkpt><trkpt lat="39.999425" lon="15.7274133"><ele>336.25</ele><time>2026-05-03T13:03:27.483Z</time></trkpt><trkpt lat="39.999575" lon="15.7274683"><ele>338.5</ele><time>2026-05-03T13:03:28.482Z</time></trkpt><trkpt lat="39.9997117" lon="15.727515"><ele>340.75</ele><time>2026-05-03T13:03:29.481Z</time></trkpt><trkpt lat="39.999835" lon="15.7275717"><ele>343.0</ele><time>2026-05-03T13:03:30.482Z</time></trkpt><trkpt lat="39.999945" lon="15.7276317"><ele>343.0</ele><time>2026-05-03T13:03:31.481Z</time></trkpt><trkpt lat="40.00005" lon="15.72769"><ele>343.0</ele><time>2026-05-03T13:03:32.482Z</time></trkpt><trkpt lat="40.0001517" lon="15.7277483"><ele>343.0</ele><time>2026-05-03T13:03:33.482Z</time></trkpt><trkpt lat="40.0002517" lon="15.7278133"><ele>343.0</ele><time>2026-05-03T13:03:34.482Z</time></trkpt><trkpt lat="40.0003417" lon="15.7278867"><ele>343.0</ele><time>2026-05-03T13:03:35.482Z</time></trkpt><trkpt lat="40.0004367" lon="15.7279583"><ele>344.79999999999995</ele><time>2026-05-03T13:03:36.482Z</time></trkpt><trkpt lat="40.00053" lon="15.7280317"><ele>346.6</ele><time>2026-05-03T13:03:37.481Z</time></trkpt><trkpt lat="40.00062" lon="15.7280983"><ele>348.4</ele><time>2026-05-03T13:03:38.482Z</time></trkpt><trkpt lat="40.0007017" lon="15.7281583"><ele>350.20000000000005</ele><time>2026-05-03T13:03:39.482Z</time></trkpt><trkpt lat="40.00078" lon="15.728205"><ele>352.0</ele><time>2026-05-03T13:03:40.482Z</time></trkpt><trkpt lat="40.0008567" lon="15.728215"><ele>353.20000000000005</ele><time>2026-05-03T13:03:41.481Z</time></trkpt><trkpt lat="40.0009267" lon="15.7282"><ele>354.4</ele><time>2026-05-03T13:03:42.482Z</time></trkpt><trkpt lat="40.00101" lon="15.7281633"><ele>355.6</ele><time>2026-05-03T13:03:43.482Z</time></trkpt><trkpt lat="40.0011067" lon="15.7281433"><ele>356.79999999999995</ele><time>2026-05-03T13:03:44.481Z</time></trkpt><trkpt lat="40.0012167" lon="15.7281333"><ele>358.0</ele><time>2026-05-03T13:03:45.481Z</time></trkpt><trkpt lat="40.0013233" lon="15.7281333"><ele>358.0</ele><time>2026-05-03T13:03:46.482Z</time></trkpt><trkpt lat="40.0014267" lon="15.7281433"><ele>358.0</ele><time>2026-05-03T13:03:47.48Z</time></trkpt><trkpt lat="40.0015017" lon="15.72818"><ele>358.0</ele><time>2026-05-03T13:03:48.482Z</time></trkpt><trkpt lat="40.001545" lon="15.72825"><ele>358.0</ele><time>2026-05-03T13:03:49.482Z</time></trkpt><trkpt lat="40.0015567" lon="15.7283433"><ele>358.0</ele><time>2026-05-03T13:03:50.483Z</time></trkpt><trkpt lat="40.0015383" lon="15.7284583"><ele>358.0</ele><time>2026-05-03T13:03:51.481Z</time></trkpt><trkpt lat="40.0014817" lon="15.728575"><ele>361.59999999999997</ele><time>2026-05-03T13:03:52.481Z</time></trkpt><trkpt lat="40.00142" lon="15.7286683"><ele>365.2</ele><time>2026-05-03T13:03:53.482Z</time></trkpt><trkpt lat="40.0013733" lon="15.7287483"><ele>368.8</ele><time>2026-05-03T13:03:54.482Z</time></trkpt><trkpt lat="40.001345" lon="15.72888"><ele>372.4</ele><time>2026-05-03T13:03:56.482Z</time></trkpt><trkpt lat="40.0014" lon="15.72902"><ele>376.0</ele><time>2026-05-03T13:03:58.481Z</time></trkpt><trkpt lat="40.0014467" lon="15.729115"><ele>376.0</ele><time>2026-05-03T13:03:59.482Z</time></trkpt><trkpt lat="40.0015" lon="15.7292267"><ele>376.0</ele><time>2026-05-03T13:04:00.482Z</time></trkpt><trkpt lat="40.0015633" lon="15.7293467"><ele>376.0</ele><time>2026-05-03T13:04:01.481Z</time></trkpt><trkpt lat="40.0016567" lon="15.7294533"><ele>376.0</ele><time>2026-05-03T13:04:02.483Z</time></trkpt><trkpt lat="40.001765" lon="15.7295533"><ele>378.75</ele><time>2026-05-03T13:04:03.482Z</time></trkpt><trkpt lat="40.0018733" lon="15.7296567"><ele>381.5</ele><time>2026-05-03T13:04:04.483Z</time></trkpt><trkpt lat="40.00197" lon="15.7297833"><ele>384.25</ele><time>2026-05-03T13:04:05.482Z</time></trkpt><trkpt lat="40.0020533" lon="15.7299383"><ele>387.0</ele><time>2026-05-03T13:04:06.482Z</time></trkpt><trkpt lat="40.0021367" lon="15.7301083"><ele>389.66666666666663</ele><time>2026-05-03T13:04:07.482Z</time></trkpt><trkpt lat="40.002225" lon="15.7302683"><ele>392.3333333333333</ele><time>2026-05-03T13:04:08.483Z</time></trkpt><trkpt lat="40.0023217" lon="15.7304183"><ele>395.0</ele><time>2026-05-03T13:04:09.483Z</time></trkpt><trkpt lat="40.0024367" lon="15.7305483"><ele>395.3333333333333</ele><time>2026-05-03T13:04:10.482Z</time></trkpt><trkpt lat="40.0025617" lon="15.73068"><ele>395.66666666666663</ele><time>2026-05-03T13:04:11.482Z</time></trkpt><trkpt lat="40.0026917" lon="15.7308"><ele>396.0</ele><time>2026-05-03T13:04:12.481Z</time></trkpt><trkpt lat="40.0028283" lon="15.7309133"><ele>396.0</ele><time>2026-05-03T13:04:13.481Z</time></trkpt><trkpt lat="40.0029683" lon="15.7310133"><ele>396.0</ele><time>2026-05-03T13:04:14.483Z</time></trkpt><trkpt lat="40.0030933" lon="15.731105"><ele>396.0</ele><time>2026-05-03T13:04:15.483Z</time></trkpt><trkpt lat="40.0031983" lon="15.7311883"><ele>396.0</ele><time>2026-05-03T13:04:16.484Z</time></trkpt><trkpt lat="40.0033" lon="15.7312533"><ele>399.75</ele><time>2026-05-03T13:04:17.483Z</time></trkpt><trkpt lat="40.0034017" lon="15.7312983"><ele>403.5</ele><time>2026-05-03T13:04:18.482Z</time></trkpt><trkpt lat="40.0035133" lon="15.73132"><ele>407.25</ele><time>2026-05-03T13:04:19.483Z</time></trkpt><trkpt lat="40.00363" lon="15.7313567"><ele>411.0</ele><time>2026-05-03T13:04:20.484Z</time></trkpt><trkpt lat="40.0037467" lon="15.731405"><ele>411.0</ele><time>2026-05-03T13:04:21.481Z</time></trkpt><trkpt lat="40.0038617" lon="15.73145"><ele>411.0</ele><time>2026-05-03T13:04:22.482Z</time></trkpt><trkpt lat="40.0039667" lon="15.7314933"><ele>411.0</ele><time>2026-05-03T13:04:23.481Z</time></trkpt><trkpt lat="40.00407" lon="15.7315383"><ele>411.0</ele><time>2026-05-03T13:04:24.483Z</time></trkpt><trkpt lat="40.0041717" lon="15.731595"><ele>413.75</ele><time>2026-05-03T13:04:25.482Z</time></trkpt><trkpt lat="40.0042733" lon="15.731655"><ele>416.5</ele><time>2026-05-03T13:04:26.482Z</time></trkpt><trkpt lat="40.004375" lon="15.73173"><ele>419.25</ele><time>2026-05-03T13:04:27.482Z</time></trkpt><trkpt lat="40.0044733" lon="15.73182"><ele>422.0</ele><time>2026-05-03T13:04:28.483Z</time></trkpt><trkpt lat="40.0045717" lon="15.731915"><ele>422.75</ele><time>2026-05-03T13:04:29.482Z</time></trkpt><trkpt lat="40.0046767" lon="15.7319933"><ele>423.5</ele><time>2026-05-03T13:04:30.483Z</time></trkpt><trkpt lat="40.00479" lon="15.7320433"><ele>424.25</ele><time>2026-05-03T13:04:31.482Z</time></trkpt><trkpt lat="40.0049033" lon="15.7320783"><ele>425.0</ele><time>2026-05-03T13:04:32.484Z</time></trkpt><trkpt lat="40.0050133" lon="15.7321083"><ele>427.2</ele><time>2026-05-03T13:04:33.481Z</time></trkpt><trkpt lat="40.0051183" lon="15.73214"><ele>429.4</ele><time>2026-05-03T13:04:34.482Z</time></trkpt><trkpt lat="40.00522" lon="15.73217"><ele>431.6</ele><time>2026-05-03T13:04:35.483Z</time></trkpt><trkpt lat="40.0053183" lon="15.732205"><ele>433.8</ele><time>2026-05-03T13:04:36.481Z</time></trkpt><trkpt lat="40.0054183" lon="15.7322367"><ele>436.0</ele><time>2026-05-03T13:04:37.482Z</time></trkpt><trkpt lat="40.0055133" lon="15.7322667"><ele>436.0</ele><time>2026-05-03T13:04:38.481Z</time></trkpt><trkpt lat="40.0056083" lon="15.7322967"><ele>436.0</ele><time>2026-05-03T13:04:39.481Z</time></trkpt><trkpt lat="40.0057" lon="15.732325"><ele>436.0</ele><time>2026-05-03T13:04:40.481Z</time></trkpt><trkpt lat="40.005795" lon="15.732355"><ele>436.0</ele><time>2026-05-03T13:04:41.481Z</time></trkpt><trkpt lat="40.0058917" lon="15.7323833"><ele>436.0</ele><time>2026-05-03T13:04:42.482Z</time></trkpt><trkpt lat="40.0059883" lon="15.7324183"><ele>438.20000000000005</ele><time>2026-05-03T13:04:43.481Z</time></trkpt><trkpt lat="40.0060883" lon="15.73246"><ele>440.40000000000003</ele><time>2026-05-03T13:04:44.481Z</time></trkpt><trkpt lat="40.0061917" lon="15.7324983"><ele>442.6</ele><time>2026-05-03T13:04:45.482Z</time></trkpt><trkpt lat="40.006295" lon="15.732535"><ele>444.8</ele><time>2026-05-03T13:04:46.482Z</time></trkpt><trkpt lat="40.0064017" lon="15.73257"><ele>447.0</ele><time>2026-05-03T13:04:47.483Z</time></trkpt><trkpt lat="40.0065067" lon="15.7326067"><ele>447.0</ele><time>2026-05-03T13:04:48.483Z</time></trkpt><trkpt lat="40.00661" lon="15.7326467"><ele>447.00000000000006</ele><time>2026-05-03T13:04:49.483Z</time></trkpt><trkpt lat="40.006715" lon="15.732685"><ele>447.00000000000006</ele><time>2026-05-03T13:04:50.483Z</time></trkpt><trkpt lat="40.0068233" lon="15.7327183"><ele>447.0</ele><time>2026-05-03T13:04:51.482Z</time></trkpt><trkpt lat="40.0069317" lon="15.7327467"><ele>447.0</ele><time>2026-05-03T13:04:52.483Z</time></trkpt><trkpt lat="40.0070417" lon="15.7327783"><ele>452.0</ele><time>2026-05-03T13:04:53.484Z</time></trkpt><trkpt lat="40.0071517" lon="15.73281"><ele>457.0</ele><time>2026-05-03T13:04:54.483Z</time></trkpt><trkpt lat="40.0072633" lon="15.7328417"><ele>462.0</ele><time>2026-05-03T13:04:55.483Z</time></trkpt><trkpt lat="40.00738" lon="15.7328633"><ele>467.0</ele><time>2026-05-03T13:04:56.484Z</time></trkpt><trkpt lat="40.0074983" lon="15.7328783"><ele>469.0</ele><time>2026-05-03T13:04:57.483Z</time></trkpt><trkpt lat="40.0076217" lon="15.7329"><ele>471.0</ele><time>2026-05-03T13:04:58.482Z</time></trkpt><trkpt lat="40.0077467" lon="15.7329167"><ele>473.0</ele><time>2026-05-03T13:04:59.482Z</time></trkpt><trkpt lat="40.0078767" lon="15.7329283"><ele>475.0</ele><time>2026-05-03T13:05:00.483Z</time></trkpt><trkpt lat="40.0080067" lon="15.732935"><ele>475.0</ele><time>2026-05-03T13:05:01.482Z</time></trkpt><trkpt lat="40.0081383" lon="15.73293"><ele>475.0</ele><time>2026-05-03T13:05:02.483Z</time></trkpt><trkpt lat="40.008265" lon="15.7329183"><ele>475.0</ele><time>2026-05-03T13:05:03.483Z</time></trkpt><trkpt lat="40.008385" lon="15.7329133"><ele>475.0</ele><time>2026-05-03T13:05:04.482Z</time></trkpt><trkpt lat="40.0085017" lon="15.7329133"><ele>477.2</ele><time>2026-05-03T13:05:05.483Z</time></trkpt><trkpt lat="40.0086133" lon="15.73293"><ele>479.4</ele><time>2026-05-03T13:05:06.482Z</time></trkpt><trkpt lat="40.008715" lon="15.73297"><ele>481.6</ele><time>2026-05-03T13:05:07.483Z</time></trkpt><trkpt lat="40.0088067" lon="15.7330233"><ele>483.8</ele><time>2026-05-03T13:05:08.481Z</time></trkpt><trkpt lat="40.0088883" lon="15.7330867"><ele>486.0</ele><time>2026-05-03T13:05:09.482Z</time></trkpt><trkpt lat="40.0089683" lon="15.733155"><ele>486.0</ele><time>2026-05-03T13:05:10.482Z</time></trkpt><trkpt lat="40.00905" lon="15.7332283"><ele>486.0</ele><time>2026-05-03T13:05:11.482Z</time></trkpt><trkpt lat="40.0091367" lon="15.7333033"><ele>486.0</ele><time>2026-05-03T13:05:12.482Z</time></trkpt><trkpt lat="40.0092383" lon="15.73337"><ele>486.0</ele><time>2026-05-03T13:05:13.482Z</time></trkpt><trkpt lat="40.00935" lon="15.7334117"><ele>486.0</ele><time>2026-05-03T13:05:14.482Z</time></trkpt><trkpt lat="40.0094783" lon="15.7334217"><ele>486.75</ele><time>2026-05-03T13:05:15.482Z</time></trkpt><trkpt lat="40.0096133" lon="15.733415"><ele>487.5</ele><time>2026-05-03T13:05:16.481Z</time></trkpt><trkpt lat="40.009745" lon="15.7334133"><ele>488.25</ele><time>2026-05-03T13:05:17.481Z</time></trkpt><trkpt lat="40.00987" lon="15.7334"><ele>489.0</ele><time>2026-05-03T13:05:18.481Z</time></trkpt><trkpt lat="40.0099967" lon="15.7333867"><ele>490.25</ele><time>2026-05-03T13:05:19.482Z</time></trkpt><trkpt lat="40.0101267" lon="15.7333783"><ele>491.5</ele><time>2026-05-03T13:05:20.482Z</time></trkpt><trkpt lat="40.0102667" lon="15.73336"><ele>492.75</ele><time>2026-05-03T13:05:21.484Z</time></trkpt><trkpt lat="40.010405" lon="15.7333217"><ele>494.0</ele><time>2026-05-03T13:05:22.487Z</time></trkpt><trkpt lat="40.010545" lon="15.73326"><ele>494.0</ele><time>2026-05-03T13:05:23.482Z</time></trkpt><trkpt lat="40.0106967" lon="15.7331733"><ele>494.0</ele><time>2026-05-03T13:05:24.481Z</time></trkpt><trkpt lat="40.0108567" lon="15.7330533"><ele>494.0</ele><time>2026-05-03T13:05:25.482Z</time></trkpt><trkpt lat="40.01102" lon="15.73293"><ele>497.66666666666663</ele><time>2026-05-03T13:05:26.482Z</time></trkpt><trkpt lat="40.011185" lon="15.7328233"><ele>501.33333333333337</ele><time>2026-05-03T13:05:27.482Z</time></trkpt><trkpt lat="40.0113533" lon="15.7327183"><ele>505.0</ele><time>2026-05-03T13:05:28.482Z</time></trkpt><trkpt lat="40.011515" lon="15.73262"><ele>510.0</ele><time>2026-05-03T13:05:29.483Z</time></trkpt><trkpt lat="40.0116733" lon="15.7325217"><ele>515.0</ele><time>2026-05-03T13:05:30.484Z</time></trkpt><trkpt lat="40.0118333" lon="15.732425"><ele>520.0</ele><time>2026-05-03T13:05:31.484Z</time></trkpt><trkpt lat="40.0119917" lon="15.7323283"><ele>520.0</ele><time>2026-05-03T13:05:32.484Z</time></trkpt><trkpt lat="40.0121367" lon="15.7322283"><ele>520.0</ele><time>2026-05-03T13:05:33.484Z</time></trkpt><trkpt lat="40.0122683" lon="15.7321233"><ele>520.0</ele><time>2026-05-03T13:05:34.483Z</time></trkpt><trkpt lat="40.0123933" lon="15.73202"><ele>519.75</ele><time>2026-05-03T13:05:35.484Z</time></trkpt><trkpt lat="40.0125133" lon="15.7319167"><ele>519.5</ele><time>2026-05-03T13:05:36.484Z</time></trkpt><trkpt lat="40.0126217" lon="15.7318333"><ele>519.25</ele><time>2026-05-03T13:05:37.484Z</time></trkpt><trkpt lat="40.0127333" lon="15.7317767"><ele>519.0</ele><time>2026-05-03T13:05:38.484Z</time></trkpt><trkpt lat="40.0128583" lon="15.731775"><ele>519.0</ele><time>2026-05-03T13:05:39.484Z</time></trkpt><trkpt lat="40.01299" lon="15.7317967"><ele>519.0</ele><time>2026-05-03T13:05:40.484Z</time></trkpt><trkpt lat="40.013135" lon="15.731815"><ele>519.0</ele><time>2026-05-03T13:05:41.481Z</time></trkpt><trkpt lat="40.0132917" lon="15.7318383"><ele>519.0</ele><time>2026-05-03T13:05:42.482Z</time></trkpt><trkpt lat="40.013455" lon="15.7318567"><ele>517.3333333333334</ele><time>2026-05-03T13:05:43.481Z</time></trkpt><trkpt lat="40.01362" lon="15.731875"><ele>515.6666666666667</ele><time>2026-05-03T13:05:44.483Z</time></trkpt><trkpt lat="40.013775" lon="15.7318833"><ele>514.0</ele><time>2026-05-03T13:05:45.482Z</time></trkpt><trkpt lat="40.0139317" lon="15.7318533"><ele>514.0</ele><time>2026-05-03T13:05:46.482Z</time></trkpt><trkpt lat="40.0140917" lon="15.73179"><ele>514.0</ele><time>2026-05-03T13:05:47.483Z</time></trkpt><trkpt lat="40.01426" lon="15.73171"><ele>514.0</ele><time>2026-05-03T13:05:48.483Z</time></trkpt><trkpt lat="40.01443" lon="15.7316267"><ele>514.3333333333334</ele><time>2026-05-03T13:05:49.484Z</time></trkpt><trkpt lat="40.0146067" lon="15.7315517"><ele>514.6666666666666</ele><time>2026-05-03T13:05:50.483Z</time></trkpt><trkpt lat="40.014795" lon="15.7315033"><ele>515.0</ele><time>2026-05-03T13:05:51.482Z</time></trkpt><trkpt lat="40.0149933" lon="15.7314717"><ele>516.0</ele><time>2026-05-03T13:05:52.483Z</time></trkpt><trkpt lat="40.0151967" lon="15.73145"><ele>517.0</ele><time>2026-05-03T13:05:53.483Z</time></trkpt><trkpt lat="40.0154" lon="15.7314333"><ele>518.0</ele><time>2026-05-03T13:05:54.483Z</time></trkpt><trkpt lat="40.015595" lon="15.7314233"><ele>518.0</ele><time>2026-05-03T13:05:55.481Z</time></trkpt><trkpt lat="40.0157717" lon="15.7314"><ele>518.0</ele><time>2026-05-03T13:05:56.482Z</time></trkpt><trkpt lat="40.0159383" lon="15.7313783"><ele>518.0</ele><time>2026-05-03T13:05:57.481Z</time></trkpt><trkpt lat="40.0160917" lon="15.7313667"><ele>520.0</ele><time>2026-05-03T13:05:58.482Z</time></trkpt><trkpt lat="40.0162317" lon="15.7313767"><ele>522.0</ele><time>2026-05-03T13:05:59.483Z</time></trkpt><trkpt lat="40.016365" lon="15.731415"><ele>524.0</ele><time>2026-05-03T13:06:00.482Z</time></trkpt><trkpt lat="40.0164883" lon="15.7314433"><ele>526.0</ele><time>2026-05-03T13:06:01.483Z</time></trkpt><trkpt lat="40.0166067" lon="15.73144"><ele>528.0</ele><time>2026-05-03T13:06:02.483Z</time></trkpt><trkpt lat="40.0167383" lon="15.7314017"><ele>530.0</ele><time>2026-05-03T13:06:03.482Z</time></trkpt><trkpt lat="40.01688" lon="15.7313567"><ele>532.0</ele><time>2026-05-03T13:06:04.482Z</time></trkpt><trkpt lat="40.0170267" lon="15.7313133"><ele>534.0</ele><time>2026-05-03T13:06:05.482Z</time></trkpt><trkpt lat="40.017175" lon="15.7312583"><ele>534.0</ele><time>2026-05-03T13:06:06.482Z</time></trkpt><trkpt lat="40.0173067" lon="15.7311883"><ele>534.0</ele><time>2026-05-03T13:06:07.482Z</time></trkpt><trkpt lat="40.0174267" lon="15.7311"><ele>534.0</ele><time>2026-05-03T13:06:08.483Z</time></trkpt><trkpt lat="40.01754" lon="15.7310167"><ele>534.0</ele><time>2026-05-03T13:06:09.481Z</time></trkpt><trkpt lat="40.0176467" lon="15.73096"><ele>535.0</ele><time>2026-05-03T13:06:10.481Z</time></trkpt><trkpt lat="40.0177467" lon="15.730945"><ele>536.0</ele><time>2026-05-03T13:06:11.483Z</time></trkpt><trkpt lat="40.017845" lon="15.7309633"><ele>537.0</ele><time>2026-05-03T13:06:12.482Z</time></trkpt><trkpt lat="40.0179483" lon="15.7309983"><ele>538.0</ele><time>2026-05-03T13:06:13.481Z</time></trkpt><trkpt lat="40.01807" lon="15.7310283"><ele>539.0</ele><time>2026-05-03T13:06:14.482Z</time></trkpt><trkpt lat="40.018205" lon="15.7310733"><ele>541.6666666666666</ele><time>2026-05-03T13:06:15.481Z</time></trkpt><trkpt lat="40.018345" lon="15.7310983"><ele>544.3333333333334</ele><time>2026-05-03T13:06:16.482Z</time></trkpt><trkpt lat="40.0185083" lon="15.7311417"><ele>547.0</ele><time>2026-05-03T13:06:17.482Z</time></trkpt><trkpt lat="40.0186833" lon="15.7311917"><ele>547.0</ele><time>2026-05-03T13:06:18.483Z</time></trkpt><trkpt lat="40.0188633" lon="15.7312383"><ele>547.0</ele><time>2026-05-03T13:06:19.482Z</time></trkpt><trkpt lat="40.0190567" lon="15.7312867"><ele>547.0</ele><time>2026-05-03T13:06:20.482Z</time></trkpt><trkpt lat="40.0192467" lon="15.7313367"><ele>546.3333333333334</ele><time>2026-05-03T13:06:21.482Z</time></trkpt><trkpt lat="40.0194317" lon="15.7313883"><ele>545.6666666666666</ele><time>2026-05-03T13:06:22.482Z</time></trkpt><trkpt lat="40.0196117" lon="15.7314267"><ele>545.0</ele><time>2026-05-03T13:06:23.482Z</time></trkpt><trkpt lat="40.019785" lon="15.731435"><ele>545.0</ele><time>2026-05-03T13:06:24.483Z</time></trkpt><trkpt lat="40.0199567" lon="15.7314117"><ele>545.0</ele><time>2026-05-03T13:06:25.482Z</time></trkpt><trkpt lat="40.02013" lon="15.7313733"><ele>545.0</ele><time>2026-05-03T13:06:26.483Z</time></trkpt><trkpt lat="40.0203033" lon="15.7313383"><ele>547.0</ele><time>2026-05-03T13:06:27.482Z</time></trkpt><trkpt lat="40.0204783" lon="15.731305"><ele>549.0</ele><time>2026-05-03T13:06:28.482Z</time></trkpt><trkpt lat="40.0206517" lon="15.7312733"><ele>551.0</ele><time>2026-05-03T13:06:29.483Z</time></trkpt><trkpt lat="40.0208167" lon="15.7312417"><ele>550.0</ele><time>2026-05-03T13:06:30.483Z</time></trkpt><trkpt lat="40.0209717" lon="15.7312133"><ele>549.0</ele><time>2026-05-03T13:06:31.483Z</time></trkpt><trkpt lat="40.0211133" lon="15.7311817"><ele>548.0</ele><time>2026-05-03T13:06:32.483Z</time></trkpt><trkpt lat="40.0212417" lon="15.7311283"><ele>547.0</ele><time>2026-05-03T13:06:33.484Z</time></trkpt><trkpt lat="40.0213567" lon="15.7310383"><ele>547.0</ele><time>2026-05-03T13:06:34.483Z</time></trkpt><trkpt lat="40.021455" lon="15.73091"><ele>547.0</ele><time>2026-05-03T13:06:35.482Z</time></trkpt><trkpt lat="40.02153" lon="15.73075"><ele>547.0</ele><time>2026-05-03T13:06:36.482Z</time></trkpt><trkpt lat="40.02157" lon="15.7305617"><ele>547.0</ele><time>2026-05-03T13:06:37.482Z</time></trkpt><trkpt lat="40.0215767" lon="15.7303583"><ele>545.75</ele><time>2026-05-03T13:06:38.484Z</time></trkpt><trkpt lat="40.02156" lon="15.7301633"><ele>544.5</ele><time>2026-05-03T13:06:39.484Z</time></trkpt><trkpt lat="40.0215433" lon="15.7299833"><ele>543.25</ele><time>2026-05-03T13:06:40.482Z</time></trkpt><trkpt lat="40.021545" lon="15.7298217"><ele>542.0</ele><time>2026-05-03T13:06:41.482Z</time></trkpt><trkpt lat="40.0215767" lon="15.7296917"><ele>546.5</ele><time>2026-05-03T13:06:42.483Z</time></trkpt><trkpt lat="40.0216517" lon="15.7296083"><ele>551.0</ele><time>2026-05-03T13:06:43.482Z</time></trkpt><trkpt lat="40.0217533" lon="15.7295583"><ele>555.5</ele><time>2026-05-03T13:06:44.482Z</time></trkpt><trkpt lat="40.0218717" lon="15.72955"><ele>560.0</ele><time>2026-05-03T13:06:45.482Z</time></trkpt><trkpt lat="40.0220017" lon="15.729575"><ele>560.0</ele><time>2026-05-03T13:06:46.482Z</time></trkpt><trkpt lat="40.0221433" lon="15.7296167"><ele>560.0</ele><time>2026-05-03T13:06:47.481Z</time></trkpt><trkpt lat="40.022295" lon="15.72966"><ele>560.0</ele><time>2026-05-03T13:06:48.481Z</time></trkpt><trkpt lat="40.022455" lon="15.72971"><ele>562.6666666666666</ele><time>2026-05-03T13:06:49.482Z</time></trkpt><trkpt lat="40.02262" lon="15.72977"><ele>565.3333333333334</ele><time>2026-05-03T13:06:50.482Z</time></trkpt><trkpt lat="40.02278" lon="15.7298317"><ele>568.0</ele><time>2026-05-03T13:06:51.482Z</time></trkpt><trkpt lat="40.0229283" lon="15.7298867"><ele>568.0</ele><time>2026-05-03T13:06:52.482Z</time></trkpt><trkpt lat="40.0230717" lon="15.7299517"><ele>568.0</ele><time>2026-05-03T13:06:53.483Z</time></trkpt><trkpt lat="40.0232167" lon="15.7300333"><ele>568.0</ele><time>2026-05-03T13:06:54.481Z</time></trkpt><trkpt lat="40.0233567" lon="15.73015"><ele>570.3333333333334</ele><time>2026-05-03T13:06:55.483Z</time></trkpt><trkpt lat="40.0234967" lon="15.7302883"><ele>572.6666666666666</ele><time>2026-05-03T13:06:56.482Z</time></trkpt><trkpt lat="40.023645" lon="15.7304333"><ele>575.0</ele><time>2026-05-03T13:06:57.482Z</time></trkpt><trkpt lat="40.0237983" lon="15.730575"><ele>575.0</ele><time>2026-05-03T13:06:58.481Z</time></trkpt><trkpt lat="40.02395" lon="15.7307133"><ele>575.0</ele><time>2026-05-03T13:06:59.484Z</time></trkpt><trkpt lat="40.0241033" lon="15.7308467"><ele>575.0</ele><time>2026-05-03T13:07:00.484Z</time></trkpt><trkpt lat="40.02426" lon="15.730975"><ele>576.3333333333333</ele><time>2026-05-03T13:07:01.483Z</time></trkpt><trkpt lat="40.0244233" lon="15.7310967"><ele>577.6666666666666</ele><time>2026-05-03T13:07:02.483Z</time></trkpt><trkpt lat="40.0245867" lon="15.731215"><ele>579.0</ele><time>2026-05-03T13:07:03.483Z</time></trkpt><trkpt lat="40.02474" lon="15.7313283"><ele>579.0</ele><time>2026-05-03T13:07:04.483Z</time></trkpt><trkpt lat="40.024885" lon="15.7314283"><ele>579.0</ele><time>2026-05-03T13:07:05.483Z</time></trkpt><trkpt lat="40.0250217" lon="15.7314967"><ele>579.0</ele><time>2026-05-03T13:07:06.483Z</time></trkpt><trkpt lat="40.0251533" lon="15.7315133"><ele>579.0</ele><time>2026-05-03T13:07:07.483Z</time></trkpt><trkpt lat="40.025285" lon="15.7314717"><ele>581.3333333333334</ele><time>2026-05-03T13:07:08.483Z</time></trkpt><trkpt lat="40.0254217" lon="15.7313883"><ele>583.6666666666667</ele><time>2026-05-03T13:07:09.482Z</time></trkpt><trkpt lat="40.0255633" lon="15.731295"><ele>586.0</ele><time>2026-05-03T13:07:10.483Z</time></trkpt><trkpt lat="40.0257167" lon="15.73121"><ele>585.3333333333334</ele><time>2026-05-03T13:07:11.483Z</time></trkpt><trkpt lat="40.0258733" lon="15.7311383"><ele>584.6666666666666</ele><time>2026-05-03T13:07:12.482Z</time></trkpt><trkpt lat="40.0260383" lon="15.7310833"><ele>584.0</ele><time>2026-05-03T13:07:13.483Z</time></trkpt><trkpt lat="40.0262033" lon="15.7310367"><ele>584.0</ele><time>2026-05-03T13:07:14.482Z</time></trkpt><trkpt lat="40.0263617" lon="15.7309917"><ele>584.0</ele><time>2026-05-03T13:07:15.481Z</time></trkpt><trkpt lat="40.0265083" lon="15.7309517"><ele>584.0</ele><time>2026-05-03T13:07:16.481Z</time></trkpt><trkpt lat="40.0266517" lon="15.730935"><ele>587.5</ele><time>2026-05-03T13:07:17.481Z</time></trkpt><trkpt lat="40.0267917" lon="15.7309533"><ele>591.0</ele><time>2026-05-03T13:07:18.481Z</time></trkpt><trkpt lat="40.02692" lon="15.7310233"><ele>594.5</ele><time>2026-05-03T13:07:19.482Z</time></trkpt><trkpt lat="40.0270467" lon="15.7311383"><ele>598.0</ele><time>2026-05-03T13:07:20.482Z</time></trkpt><trkpt lat="40.027165" lon="15.7313"><ele>602.3333333333334</ele><time>2026-05-03T13:07:21.481Z</time></trkpt><trkpt lat="40.027265" lon="15.7315"><ele>606.6666666666666</ele><time>2026-05-03T13:07:22.481Z</time></trkpt><trkpt lat="40.027335" lon="15.7317133"><ele>611.0</ele><time>2026-05-03T13:07:23.481Z</time></trkpt><trkpt lat="40.02736" lon="15.7319383"><ele>612.0</ele><time>2026-05-03T13:07:24.48Z</time></trkpt><trkpt lat="40.0273683" lon="15.732165"><ele>613.0</ele><time>2026-05-03T13:07:25.482Z</time></trkpt><trkpt lat="40.0273933" lon="15.7323817"><ele>614.0</ele><time>2026-05-03T13:07:26.481Z</time></trkpt><trkpt lat="40.0274533" lon="15.7325883"><ele>611.0</ele><time>2026-05-03T13:07:27.482Z</time></trkpt><trkpt lat="40.0275617" lon="15.732785"><ele>608.0</ele><time>2026-05-03T13:07:28.481Z</time></trkpt><trkpt lat="40.027705" lon="15.7329667"><ele>605.0</ele><time>2026-05-03T13:07:29.482Z</time></trkpt><trkpt lat="40.0278633" lon="15.7331433"><ele>605.0</ele><time>2026-05-03T13:07:30.481Z</time></trkpt><trkpt lat="40.0280133" lon="15.7333083"><ele>605.0</ele><time>2026-05-03T13:07:31.482Z</time></trkpt><trkpt lat="40.028155" lon="15.7334667"><ele>605.0</ele><time>2026-05-03T13:07:32.482Z</time></trkpt><trkpt lat="40.0282867" lon="15.733615"><ele>602.25</ele><time>2026-05-03T13:07:33.481Z</time></trkpt><trkpt lat="40.0284" lon="15.7337633"><ele>599.5</ele><time>2026-05-03T13:07:34.482Z</time></trkpt><trkpt lat="40.0284833" lon="15.73393"><ele>596.75</ele><time>2026-05-03T13:07:35.481Z</time></trkpt><trkpt lat="40.02852" lon="15.7341017"><ele>594.0</ele><time>2026-05-03T13:07:36.481Z</time></trkpt><trkpt lat="40.0285133" lon="15.7342817"><ele>593.0</ele><time>2026-05-03T13:07:37.481Z</time></trkpt><trkpt lat="40.0284817" lon="15.7344883"><ele>592.0</ele><time>2026-05-03T13:07:38.482Z</time></trkpt><trkpt lat="40.028445" lon="15.7347133"><ele>591.0</ele><time>2026-05-03T13:07:39.481Z</time></trkpt><trkpt lat="40.0284167" lon="15.7349567"><ele>590.0</ele><time>2026-05-03T13:07:40.481Z</time></trkpt><trkpt lat="40.028385" lon="15.7352233"><ele>589.0</ele><time>2026-05-03T13:07:41.48Z</time></trkpt><trkpt lat="40.0283433" lon="15.7355017"><ele>588.0</ele><time>2026-05-03T13:07:42.48Z</time></trkpt><trkpt lat="40.0283017" lon="15.735775"><ele>593.3333333333334</ele><time>2026-05-03T13:07:43.481Z</time></trkpt><trkpt lat="40.0282517" lon="15.7360467"><ele>598.6666666666667</ele><time>2026-05-03T13:07:44.482Z</time></trkpt><trkpt lat="40.0282133" lon="15.73632"><ele>604.0</ele><time>2026-05-03T13:07:45.482Z</time></trkpt><trkpt lat="40.0281867" lon="15.7365933"><ele>604.0</ele><time>2026-05-03T13:07:46.482Z</time></trkpt><trkpt lat="40.028185" lon="15.7368583"><ele>604.0</ele><time>2026-05-03T13:07:47.481Z</time></trkpt><trkpt lat="40.02821" lon="15.7371067"><ele>604.0</ele><time>2026-05-03T13:07:48.481Z</time></trkpt><trkpt lat="40.0282417" lon="15.737345"><ele>604.0</ele><time>2026-05-03T13:07:49.481Z</time></trkpt><trkpt lat="40.028255" lon="15.7375733"><ele>604.0</ele><time>2026-05-03T13:07:50.482Z</time></trkpt><trkpt lat="40.028235" lon="15.737785"><ele>604.0</ele><time>2026-05-03T13:07:51.482Z</time></trkpt><trkpt lat="40.0281767" lon="15.7379833"><ele>602.0</ele><time>2026-05-03T13:07:52.482Z</time></trkpt><trkpt lat="40.0280933" lon="15.7381683"><ele>600.0</ele><time>2026-05-03T13:07:53.481Z</time></trkpt><trkpt lat="40.0280017" lon="15.738355"><ele>598.0</ele><time>2026-05-03T13:07:54.48Z</time></trkpt><trkpt lat="40.027905" lon="15.738545"><ele>595.3333333333334</ele><time>2026-05-03T13:07:55.481Z</time></trkpt><trkpt lat="40.0278033" lon="15.73874"><ele>592.6666666666666</ele><time>2026-05-03T13:07:56.481Z</time></trkpt><trkpt lat="40.02771" lon="15.7389383"><ele>590.0</ele><time>2026-05-03T13:07:57.48Z</time></trkpt><trkpt lat="40.0276217" lon="15.7391267"><ele>590.0</ele><time>2026-05-03T13:07:58.481Z</time></trkpt><trkpt lat="40.02755" lon="15.739315"><ele>590.0</ele><time>2026-05-03T13:07:59.483Z</time></trkpt><trkpt lat="40.0275017" lon="15.7395083"><ele>590.0</ele><time>2026-05-03T13:08:00.482Z</time></trkpt><trkpt lat="40.027495" lon="15.7397083"><ele>590.0</ele><time>2026-05-03T13:08:01.482Z</time></trkpt><trkpt lat="40.0275267" lon="15.7399133"><ele>590.0</ele><time>2026-05-03T13:08:02.481Z</time></trkpt><trkpt lat="40.0275833" lon="15.740135"><ele>590.0</ele><time>2026-05-03T13:08:03.481Z</time></trkpt><trkpt lat="40.0276467" lon="15.7403683"><ele>590.6666666666666</ele><time>2026-05-03T13:08:04.481Z</time></trkpt><trkpt lat="40.027705" lon="15.7406083"><ele>591.3333333333334</ele><time>2026-05-03T13:08:05.48Z</time></trkpt><trkpt lat="40.0277467" lon="15.7408533"><ele>592.0</ele><time>2026-05-03T13:08:06.482Z</time></trkpt><trkpt lat="40.0277633" lon="15.7411"><ele>592.0</ele><time>2026-05-03T13:08:07.481Z</time></trkpt><trkpt lat="40.02777" lon="15.7413483"><ele>592.0</ele><time>2026-05-03T13:08:08.482Z</time></trkpt><trkpt lat="40.027785" lon="15.7415867"><ele>592.0</ele><time>2026-05-03T13:08:09.482Z</time></trkpt><trkpt lat="40.0278283" lon="15.7418033"><ele>590.75</ele><time>2026-05-03T13:08:10.48Z</time></trkpt><trkpt lat="40.02789" lon="15.7420017"><ele>589.5</ele><time>2026-05-03T13:08:11.481Z</time></trkpt><trkpt lat="40.0279433" lon="15.7421867"><ele>588.25</ele><time>2026-05-03T13:08:12.482Z</time></trkpt><trkpt lat="40.0279633" lon="15.74235"><ele>587.0</ele><time>2026-05-03T13:08:13.482Z</time></trkpt><trkpt lat="40.0279367" lon="15.7424833"><ele>587.0</ele><time>2026-05-03T13:08:14.481Z</time></trkpt><trkpt lat="40.0278767" lon="15.7425917"><ele>587.0</ele><time>2026-05-03T13:08:15.481Z</time></trkpt><trkpt lat="40.0278167" lon="15.7426917"><ele>587.0</ele><time>2026-05-03T13:08:16.481Z</time></trkpt><trkpt lat="40.0277533" lon="15.742805"><ele>587.0</ele><time>2026-05-03T13:08:17.481Z</time></trkpt><trkpt lat="40.0277" lon="15.7429333"><ele>587.0</ele><time>2026-05-03T13:08:18.481Z</time></trkpt><trkpt lat="40.02765" lon="15.7430683"><ele>586.5</ele><time>2026-05-03T13:08:19.482Z</time></trkpt><trkpt lat="40.027615" lon="15.7432117"><ele>586.0</ele><time>2026-05-03T13:08:20.482Z</time></trkpt><trkpt lat="40.0275917" lon="15.74336"><ele>585.5</ele><time>2026-05-03T13:08:21.482Z</time></trkpt><trkpt lat="40.0275933" lon="15.74352"><ele>585.0</ele><time>2026-05-03T13:08:22.482Z</time></trkpt><trkpt lat="40.027615" lon="15.7436867"><ele>585.0</ele><time>2026-05-03T13:08:23.48Z</time></trkpt><trkpt lat="40.027665" lon="15.7438417"><ele>585.0</ele><time>2026-05-03T13:08:24.48Z</time></trkpt><trkpt lat="40.02774" lon="15.7439867"><ele>585.0</ele><time>2026-05-03T13:08:25.482Z</time></trkpt><trkpt lat="40.027825" lon="15.74412"><ele>585.0</ele><time>2026-05-03T13:08:26.483Z</time></trkpt><trkpt lat="40.0279183" lon="15.74424"><ele>585.0</ele><time>2026-05-03T13:08:27.481Z</time></trkpt><trkpt lat="40.0280133" lon="15.7443533"><ele>585.0</ele><time>2026-05-03T13:08:28.482Z</time></trkpt><trkpt lat="40.0281083" lon="15.7444633"><ele>585.0</ele><time>2026-05-03T13:08:29.481Z</time></trkpt><trkpt lat="40.02819" lon="15.7445833"><ele>585.0</ele><time>2026-05-03T13:08:30.481Z</time></trkpt><trkpt lat="40.0282517" lon="15.7447133"><ele>586.75</ele><time>2026-05-03T13:08:31.482Z</time></trkpt><trkpt lat="40.0282917" lon="15.74486"><ele>588.5</ele><time>2026-05-03T13:08:32.482Z</time></trkpt><trkpt lat="40.0283067" lon="15.745025"><ele>590.25</ele><time>2026-05-03T13:08:33.481Z</time></trkpt><trkpt lat="40.02829" lon="15.7452017"><ele>592.0</ele><time>2026-05-03T13:08:34.481Z</time></trkpt><trkpt lat="40.02826" lon="15.7453883"><ele>591.25</ele><time>2026-05-03T13:08:35.481Z</time></trkpt><trkpt lat="40.0282117" lon="15.74557"><ele>590.5</ele><time>2026-05-03T13:08:36.481Z</time></trkpt><trkpt lat="40.0281667" lon="15.7457433"><ele>589.75</ele><time>2026-05-03T13:08:37.481Z</time></trkpt><trkpt lat="40.0281283" lon="15.7459183"><ele>589.0</ele><time>2026-05-03T13:08:38.481Z</time></trkpt><trkpt lat="40.0281033" lon="15.7461217"><ele>589.0</ele><time>2026-05-03T13:08:39.482Z</time></trkpt><trkpt lat="40.0280933" lon="15.7463467"><ele>589.0</ele><time>2026-05-03T13:08:40.48Z</time></trkpt><trkpt lat="40.028095" lon="15.7465733"><ele>589.0</ele><time>2026-05-03T13:08:41.48Z</time></trkpt><trkpt lat="40.0281033" lon="15.7467867"><ele>585.75</ele><time>2026-05-03T13:08:42.482Z</time></trkpt><trkpt lat="40.0281117" lon="15.7469817"><ele>582.5</ele><time>2026-05-03T13:08:43.482Z</time></trkpt><trkpt lat="40.028115" lon="15.7471567"><ele>579.25</ele><time>2026-05-03T13:08:44.483Z</time></trkpt><trkpt lat="40.0281033" lon="15.7473133"><ele>576.0</ele><time>2026-05-03T13:08:45.481Z</time></trkpt><trkpt lat="40.028075" lon="15.7474567"><ele>576.0</ele><time>2026-05-03T13:08:46.482Z</time></trkpt><trkpt lat="40.0280267" lon="15.7475667"><ele>576.0</ele><time>2026-05-03T13:08:47.48Z</time></trkpt><trkpt lat="40.0279567" lon="15.7476583"><ele>576.0</ele><time>2026-05-03T13:08:48.48Z</time></trkpt><trkpt lat="40.02788" lon="15.7477467"><ele>576.0</ele><time>2026-05-03T13:08:49.48Z</time></trkpt><trkpt lat="40.0277933" lon="15.74783"><ele>576.0</ele><time>2026-05-03T13:08:50.481Z</time></trkpt><trkpt lat="40.0277133" lon="15.74794"><ele>572.6666666666666</ele><time>2026-05-03T13:08:51.48Z</time></trkpt><trkpt lat="40.0276433" lon="15.7480833"><ele>569.3333333333333</ele><time>2026-05-03T13:08:52.482Z</time></trkpt><trkpt lat="40.02758" lon="15.74827"><ele>566.0</ele><time>2026-05-03T13:08:53.482Z</time></trkpt><trkpt lat="40.0275183" lon="15.7484867"><ele>572.6666666666666</ele><time>2026-05-03T13:08:54.481Z</time></trkpt><trkpt lat="40.0274417" lon="15.7487233"><ele>579.3333333333334</ele><time>2026-05-03T13:08:55.481Z</time></trkpt><trkpt lat="40.0273583" lon="15.7489733"><ele>586.0</ele><time>2026-05-03T13:08:56.482Z</time></trkpt><trkpt lat="40.0272733" lon="15.74922"><ele>580.6666666666667</ele><time>2026-05-03T13:08:57.481Z</time></trkpt><trkpt lat="40.0271883" lon="15.7494633"><ele>575.3333333333334</ele><time>2026-05-03T13:08:58.481Z</time></trkpt><trkpt lat="40.0270933" lon="15.7497017"><ele>570.0</ele><time>2026-05-03T13:08:59.481Z</time></trkpt><trkpt lat="40.0269833" lon="15.74993"><ele>570.0</ele><time>2026-05-03T13:09:00.574Z</time></trkpt><trkpt lat="40.026845" lon="15.7501517"><ele>570.0</ele><time>2026-05-03T13:09:01.481Z</time></trkpt><trkpt lat="40.0266883" lon="15.7503767"><ele>574.5</ele><time>2026-05-03T13:09:02.481Z</time></trkpt><trkpt lat="40.02653" lon="15.7506"><ele>579.0</ele><time>2026-05-03T13:09:03.482Z</time></trkpt><trkpt lat="40.0263783" lon="15.7508183"><ele>579.0</ele><time>2026-05-03T13:09:04.482Z</time></trkpt><trkpt lat="40.0262383" lon="15.75103"><ele>579.0</ele><time>2026-05-03T13:09:05.481Z</time></trkpt><trkpt lat="40.0261117" lon="15.7512417"><ele>579.0</ele><time>2026-05-03T13:09:06.48Z</time></trkpt><trkpt lat="40.0260083" lon="15.7514683"><ele>578.3333333333334</ele><time>2026-05-03T13:09:07.481Z</time></trkpt><trkpt lat="40.0259233" lon="15.7517167"><ele>577.6666666666667</ele><time>2026-05-03T13:09:08.481Z</time></trkpt><trkpt lat="40.0258583" lon="15.7519883"><ele>577.0</ele><time>2026-05-03T13:09:09.481Z</time></trkpt><trkpt lat="40.0258033" lon="15.7522783"><ele>577.0</ele><time>2026-05-03T13:09:10.481Z</time></trkpt><trkpt lat="40.025755" lon="15.7525883"><ele>577.0</ele><time>2026-05-03T13:09:11.48Z</time></trkpt><trkpt lat="40.0257033" lon="15.7529167"><ele>573.0</ele><time>2026-05-03T13:09:12.483Z</time></trkpt><trkpt lat="40.025655" lon="15.75325"><ele>569.0</ele><time>2026-05-03T13:09:13.481Z</time></trkpt><trkpt lat="40.0256033" lon="15.7535683"><ele>566.5</ele><time>2026-05-03T13:09:14.482Z</time></trkpt><trkpt lat="40.0255533" lon="15.7538817"><ele>564.0</ele><time>2026-05-03T13:09:15.482Z</time></trkpt><trkpt lat="40.0255033" lon="15.754195"><ele>562.5</ele><time>2026-05-03T13:09:16.48Z</time></trkpt><trkpt lat="40.0254517" lon="15.754505"><ele>561.0</ele><time>2026-05-03T13:09:17.481Z</time></trkpt><trkpt lat="40.025395" lon="15.7548117"><ele>561.0</ele><time>2026-05-03T13:09:18.481Z</time></trkpt><trkpt lat="40.0253433" lon="15.7551017"><ele>561.0</ele><time>2026-05-03T13:09:19.481Z</time></trkpt><trkpt lat="40.0252967" lon="15.7553817"><ele>561.0</ele><time>2026-05-03T13:09:20.482Z</time></trkpt><trkpt lat="40.0252517" lon="15.7556533"><ele>559.6666666666666</ele><time>2026-05-03T13:09:21.482Z</time></trkpt><trkpt lat="40.0251983" lon="15.7559067"><ele>558.3333333333333</ele><time>2026-05-03T13:09:22.482Z</time></trkpt><trkpt lat="40.0251183" lon="15.7561383"><ele>557.0</ele><time>2026-05-03T13:09:23.481Z</time></trkpt><trkpt lat="40.0250267" lon="15.75634"><ele>557.6666666666666</ele><time>2026-05-03T13:09:24.482Z</time></trkpt><trkpt lat="40.0249333" lon="15.7565317"><ele>558.3333333333334</ele><time>2026-05-03T13:09:25.48Z</time></trkpt><trkpt lat="40.0248617" lon="15.756735"><ele>559.0</ele><time>2026-05-03T13:09:26.482Z</time></trkpt><trkpt lat="40.02483" lon="15.7569567"><ele>559.0</ele><time>2026-05-03T13:09:27.481Z</time></trkpt><trkpt lat="40.0248283" lon="15.7572033"><ele>559.0</ele><time>2026-05-03T13:09:28.482Z</time></trkpt><trkpt lat="40.0248467" lon="15.7574683"><ele>559.0</ele><time>2026-05-03T13:09:29.481Z</time></trkpt><trkpt lat="40.0248733" lon="15.75773"><ele>557.0</ele><time>2026-05-03T13:09:30.482Z</time></trkpt><trkpt lat="40.0248917" lon="15.7579817"><ele>555.0</ele><time>2026-05-03T13:09:31.481Z</time></trkpt><trkpt lat="40.024905" lon="15.7582183"><ele>553.0</ele><time>2026-05-03T13:09:32.482Z</time></trkpt><trkpt lat="40.02491" lon="15.75844"><ele>549.0</ele><time>2026-05-03T13:09:33.482Z</time></trkpt><trkpt lat="40.0248867" lon="15.7586417"><ele>545.0</ele><time>2026-05-03T13:09:34.482Z</time></trkpt><trkpt lat="40.02483" lon="15.7588233"><ele>541.0</ele><time>2026-05-03T13:09:35.481Z</time></trkpt><trkpt lat="40.02474" lon="15.7589817"><ele>541.0</ele><time>2026-05-03T13:09:36.481Z</time></trkpt><trkpt lat="40.0246283" lon="15.7590967"><ele>541.0</ele><time>2026-05-03T13:09:37.48Z</time></trkpt><trkpt lat="40.0244983" lon="15.759155"><ele>541.0</ele><time>2026-05-03T13:09:38.482Z</time></trkpt><trkpt lat="40.024365" lon="15.7591833"><ele>541.0</ele><time>2026-05-03T13:09:39.481Z</time></trkpt><trkpt lat="40.02425" lon="15.75922"><ele>547.25</ele><time>2026-05-03T13:09:40.482Z</time></trkpt><trkpt lat="40.024145" lon="15.7592933"><ele>553.5</ele><time>2026-05-03T13:09:41.48Z</time></trkpt><trkpt lat="40.0240617" lon="15.759405"><ele>559.75</ele><time>2026-05-03T13:09:42.481Z</time></trkpt><trkpt lat="40.0239933" lon="15.7595533"><ele>566.0</ele><time>2026-05-03T13:09:43.482Z</time></trkpt><trkpt lat="40.0239483" lon="15.7597233"><ele>565.3333333333333</ele><time>2026-05-03T13:09:44.482Z</time></trkpt><trkpt lat="40.023925" lon="15.7599233"><ele>564.6666666666666</ele><time>2026-05-03T13:09:45.482Z</time></trkpt><trkpt lat="40.0239133" lon="15.76015"><ele>564.0</ele><time>2026-05-03T13:09:46.482Z</time></trkpt><trkpt lat="40.0239" lon="15.76039"><ele>564.0</ele><time>2026-05-03T13:09:47.482Z</time></trkpt><trkpt lat="40.0238733" lon="15.76065"><ele>564.0</ele><time>2026-05-03T13:09:48.482Z</time></trkpt><trkpt lat="40.023855" lon="15.7609233"><ele>564.0</ele><time>2026-05-03T13:09:49.482Z</time></trkpt><trkpt lat="40.02383" lon="15.7612233"><ele>558.0</ele><time>2026-05-03T13:09:50.482Z</time></trkpt><trkpt lat="40.0238133" lon="15.7615467"><ele>552.0</ele><time>2026-05-03T13:09:51.481Z</time></trkpt><trkpt lat="40.0238017" lon="15.7618733"><ele>547.5</ele><time>2026-05-03T13:09:52.481Z</time></trkpt><trkpt lat="40.0238183" lon="15.7621983"><ele>543.0</ele><time>2026-05-03T13:09:53.481Z</time></trkpt><trkpt lat="40.02384" lon="15.762505"><ele>541.3333333333334</ele><time>2026-05-03T13:09:54.481Z</time></trkpt><trkpt lat="40.0238667" lon="15.7627983"><ele>539.6666666666667</ele><time>2026-05-03T13:09:55.482Z</time></trkpt><trkpt lat="40.0238783" lon="15.7630817"><ele>538.0</ele><time>2026-05-03T13:09:56.482Z</time></trkpt><trkpt lat="40.023865" lon="15.763355"><ele>536.6666666666667</ele><time>2026-05-03T13:09:57.481Z</time></trkpt><trkpt lat="40.0238267" lon="15.763625"><ele>535.3333333333334</ele><time>2026-05-03T13:09:58.48Z</time></trkpt><trkpt lat="40.023775" lon="15.7638883"><ele>534.0</ele><time>2026-05-03T13:09:59.482Z</time></trkpt><trkpt lat="40.0237183" lon="15.7641367"><ele>533.0</ele><time>2026-05-03T13:10:00.48Z</time></trkpt><trkpt lat="40.0236633" lon="15.764365"><ele>532.0</ele><time>2026-05-03T13:10:01.481Z</time></trkpt><trkpt lat="40.0236133" lon="15.7645867"><ele>531.0</ele><time>2026-05-03T13:10:02.482Z</time></trkpt><trkpt lat="40.02357" lon="15.7648033"><ele>531.0</ele><time>2026-05-03T13:10:03.481Z</time></trkpt><trkpt lat="40.02354" lon="15.7650217"><ele>531.0</ele><time>2026-05-03T13:10:04.482Z</time></trkpt><trkpt lat="40.02353" lon="15.76524"><ele>531.0</ele><time>2026-05-03T13:10:05.481Z</time></trkpt><trkpt lat="40.0235433" lon="15.7654617"><ele>530.3333333333334</ele><time>2026-05-03T13:10:06.482Z</time></trkpt><trkpt lat="40.023585" lon="15.7656783"><ele>529.6666666666667</ele><time>2026-05-03T13:10:07.481Z</time></trkpt><trkpt lat="40.0236567" lon="15.7658833"><ele>529.0</ele><time>2026-05-03T13:10:08.481Z</time></trkpt><trkpt lat="40.023755" lon="15.7660733"><ele>538.6666666666667</ele><time>2026-05-03T13:10:09.482Z</time></trkpt><trkpt lat="40.0238717" lon="15.76624"><ele>548.3333333333334</ele><time>2026-05-03T13:10:10.482Z</time></trkpt><trkpt lat="40.0239883" lon="15.7664"><ele>558.0</ele><time>2026-05-03T13:10:11.481Z</time></trkpt><trkpt lat="40.0240883" lon="15.7665717"><ele>550.6666666666666</ele><time>2026-05-03T13:10:12.48Z</time></trkpt><trkpt lat="40.024155" lon="15.7667667"><ele>543.3333333333333</ele><time>2026-05-03T13:10:13.486Z</time></trkpt><trkpt lat="40.0241983" lon="15.7669717"><ele>536.0</ele><time>2026-05-03T13:10:14.481Z</time></trkpt><trkpt lat="40.0242533" lon="15.7671633"><ele>536.0</ele><time>2026-05-03T13:10:15.482Z</time></trkpt><trkpt lat="40.0243433" lon="15.767335"><ele>536.0</ele><time>2026-05-03T13:10:16.482Z</time></trkpt><trkpt lat="40.0244533" lon="15.767495"><ele>536.0</ele><time>2026-05-03T13:10:17.481Z</time></trkpt><trkpt lat="40.0245567" lon="15.7676583"><ele>541.3333333333333</ele><time>2026-05-03T13:10:18.481Z</time></trkpt><trkpt lat="40.0246417" lon="15.7678383"><ele>546.6666666666666</ele><time>2026-05-03T13:10:19.482Z</time></trkpt><trkpt lat="40.0247167" lon="15.7680417"><ele>552.0</ele><time>2026-05-03T13:10:20.481Z</time></trkpt><trkpt lat="40.0247767" lon="15.76826"><ele>552.0</ele><time>2026-05-03T13:10:21.482Z</time></trkpt><trkpt lat="40.0248267" lon="15.7684833"><ele>552.0</ele><time>2026-05-03T13:10:22.482Z</time></trkpt><trkpt lat="40.024865" lon="15.7687167"><ele>552.0</ele><time>2026-05-03T13:10:23.482Z</time></trkpt><trkpt lat="40.024885" lon="15.7689617"><ele>552.0</ele><time>2026-05-03T13:10:24.482Z</time></trkpt><trkpt lat="40.0248817" lon="15.7692133"><ele>552.0</ele><time>2026-05-03T13:10:25.482Z</time></trkpt><trkpt lat="40.02486" lon="15.76947"><ele>552.0</ele><time>2026-05-03T13:10:26.483Z</time></trkpt><trkpt lat="40.02483" lon="15.7697267"><ele>550.3333333333334</ele><time>2026-05-03T13:10:27.482Z</time></trkpt><trkpt lat="40.024795" lon="15.769985"><ele>548.6666666666667</ele><time>2026-05-03T13:10:28.481Z</time></trkpt><trkpt lat="40.024755" lon="15.7702483"><ele>547.0</ele><time>2026-05-03T13:10:29.48Z</time></trkpt><trkpt lat="40.0247133" lon="15.77051"><ele>544.6666666666667</ele><time>2026-05-03T13:10:30.482Z</time></trkpt><trkpt lat="40.02467" lon="15.770765"><ele>542.3333333333334</ele><time>2026-05-03T13:10:31.48Z</time></trkpt><trkpt lat="40.0246267" lon="15.7710083"><ele>540.0</ele><time>2026-05-03T13:10:32.482Z</time></trkpt><trkpt lat="40.02459" lon="15.77124"><ele>535.0</ele><time>2026-05-03T13:10:33.481Z</time></trkpt><trkpt lat="40.02455" lon="15.7714633"><ele>530.0</ele><time>2026-05-03T13:10:34.481Z</time></trkpt><trkpt lat="40.0244983" lon="15.771665"><ele>525.0</ele><time>2026-05-03T13:10:35.482Z</time></trkpt><trkpt lat="40.0244233" lon="15.77184"><ele>521.6666666666666</ele><time>2026-05-03T13:10:36.481Z</time></trkpt><trkpt lat="40.024325" lon="15.7719983"><ele>518.3333333333333</ele><time>2026-05-03T13:10:37.48Z</time></trkpt><trkpt lat="40.02423" lon="15.7721583"><ele>515.0</ele><time>2026-05-03T13:10:38.48Z</time></trkpt><trkpt lat="40.024155" lon="15.77233"><ele>515.5</ele><time>2026-05-03T13:10:39.482Z</time></trkpt><trkpt lat="40.024115" lon="15.77252"><ele>516.0</ele><time>2026-05-03T13:10:40.482Z</time></trkpt><trkpt lat="40.0241133" lon="15.7727083"><ele>516.5</ele><time>2026-05-03T13:10:41.482Z</time></trkpt><trkpt lat="40.024145" lon="15.7728917"><ele>517.0</ele><time>2026-05-03T13:10:42.481Z</time></trkpt><trkpt lat="40.024205" lon="15.7730733"><ele>517.0</ele><time>2026-05-03T13:10:43.482Z</time></trkpt><trkpt lat="40.0242767" lon="15.7732583"><ele>517.0</ele><time>2026-05-03T13:10:44.481Z</time></trkpt><trkpt lat="40.0243533" lon="15.7734533"><ele>517.0</ele><time>2026-05-03T13:10:45.482Z</time></trkpt><trkpt lat="40.024435" lon="15.7736517"><ele>518.0</ele><time>2026-05-03T13:10:46.481Z</time></trkpt><trkpt lat="40.0245217" lon="15.7738567"><ele>519.0</ele><time>2026-05-03T13:10:47.482Z</time></trkpt><trkpt lat="40.0246117" lon="15.774065"><ele>520.0</ele><time>2026-05-03T13:10:48.481Z</time></trkpt><trkpt lat="40.0247067" lon="15.7742833"><ele>518.6666666666667</ele><time>2026-05-03T13:10:49.487Z</time></trkpt><trkpt lat="40.0248017" lon="15.774505"><ele>517.3333333333334</ele><time>2026-05-03T13:10:50.483Z</time></trkpt><trkpt lat="40.0249033" lon="15.7747233"><ele>516.0</ele><time>2026-05-03T13:10:51.483Z</time></trkpt><trkpt lat="40.024995" lon="15.774945"><ele>512.6666666666666</ele><time>2026-05-03T13:10:52.484Z</time></trkpt><trkpt lat="40.0250883" lon="15.7751633"><ele>509.3333333333333</ele><time>2026-05-03T13:10:53.484Z</time></trkpt><trkpt lat="40.02518" lon="15.7753667"><ele>506.0</ele><time>2026-05-03T13:10:54.482Z</time></trkpt><trkpt lat="40.025265" lon="15.7755683"><ele>506.0</ele><time>2026-05-03T13:10:55.482Z</time></trkpt><trkpt lat="40.025345" lon="15.7757533"><ele>506.0</ele><time>2026-05-03T13:10:56.482Z</time></trkpt><trkpt lat="40.0254217" lon="15.77593"><ele>506.0</ele><time>2026-05-03T13:10:57.482Z</time></trkpt><trkpt lat="40.0255017" lon="15.7761017"><ele>506.0</ele><time>2026-05-03T13:10:58.483Z</time></trkpt><trkpt lat="40.0255733" lon="15.7762483"><ele>506.0</ele><time>2026-05-03T13:10:59.481Z</time></trkpt><trkpt lat="40.0256433" lon="15.776405"><ele>506.0</ele><time>2026-05-03T13:11:00.481Z</time></trkpt><trkpt lat="40.0257067" lon="15.7765683"><ele>506.0</ele><time>2026-05-03T13:11:01.482Z</time></trkpt><trkpt lat="40.0257717" lon="15.7767333"><ele>505.25</ele><time>2026-05-03T13:11:02.482Z</time></trkpt><trkpt lat="40.0258417" lon="15.7769017"><ele>504.5</ele><time>2026-05-03T13:11:03.482Z</time></trkpt><trkpt lat="40.0259067" lon="15.7770667"><ele>503.75</ele><time>2026-05-03T13:11:04.482Z</time></trkpt><trkpt lat="40.02597" lon="15.7772133"><ele>503.0</ele><time>2026-05-03T13:11:05.481Z</time></trkpt><trkpt lat="40.0260317" lon="15.7773517"><ele>503.0</ele><time>2026-05-03T13:11:06.483Z</time></trkpt><trkpt lat="40.02609" lon="15.777485"><ele>502.99999999999994</ele><time>2026-05-03T13:11:07.482Z</time></trkpt><trkpt lat="40.0261483" lon="15.777615"><ele>502.99999999999994</ele><time>2026-05-03T13:11:08.482Z</time></trkpt><trkpt lat="40.0262017" lon="15.7777367"><ele>503.0</ele><time>2026-05-03T13:11:09.482Z</time></trkpt><trkpt lat="40.02626" lon="15.777845"><ele>503.0</ele><time>2026-05-03T13:11:10.481Z</time></trkpt><trkpt lat="40.026335" lon="15.777935"><ele>503.0</ele><time>2026-05-03T13:11:11.482Z</time></trkpt><trkpt lat="40.026425" lon="15.778015"><ele>503.0</ele><time>2026-05-03T13:11:12.481Z</time></trkpt><trkpt lat="40.0265317" lon="15.77808"><ele>503.0</ele><time>2026-05-03T13:11:13.481Z</time></trkpt><trkpt lat="40.0266567" lon="15.77813"><ele>503.0</ele><time>2026-05-03T13:11:14.482Z</time></trkpt><trkpt lat="40.0267983" lon="15.7781717"><ele>502.0</ele><time>2026-05-03T13:11:15.482Z</time></trkpt><trkpt lat="40.02694" lon="15.77821"><ele>501.0</ele><time>2026-05-03T13:11:16.483Z</time></trkpt><trkpt lat="40.0270683" lon="15.7782667"><ele>500.0</ele><time>2026-05-03T13:11:17.484Z</time></trkpt><trkpt lat="40.027195" lon="15.7783217"><ele>499.0</ele><time>2026-05-03T13:11:18.483Z</time></trkpt><trkpt lat="40.02732" lon="15.7783717"><ele>499.0</ele><time>2026-05-03T13:11:19.484Z</time></trkpt><trkpt lat="40.0274383" lon="15.77841"><ele>499.0</ele><time>2026-05-03T13:11:20.482Z</time></trkpt><trkpt lat="40.0275433" lon="15.778435"><ele>499.0</ele><time>2026-05-03T13:11:21.483Z</time></trkpt><trkpt lat="40.027645" lon="15.77842"><ele>499.0</ele><time>2026-05-03T13:11:22.482Z</time></trkpt><trkpt lat="40.0277383" lon="15.778375"><ele>499.0</ele><time>2026-05-03T13:11:23.483Z</time></trkpt><trkpt lat="40.0278217" lon="15.7783167"><ele>497.79999999999995</ele><time>2026-05-03T13:11:24.482Z</time></trkpt><trkpt lat="40.02789" lon="15.7782383"><ele>496.59999999999997</ele><time>2026-05-03T13:11:25.482Z</time></trkpt><trkpt lat="40.027945" lon="15.778155"><ele>495.4</ele><time>2026-05-03T13:11:26.483Z</time></trkpt><trkpt lat="40.0279967" lon="15.778055"><ele>494.2</ele><time>2026-05-03T13:11:27.482Z</time></trkpt><trkpt lat="40.0280483" lon="15.777925"><ele>493.0</ele><time>2026-05-03T13:11:28.482Z</time></trkpt><trkpt lat="40.0280933" lon="15.777765"><ele>494.33333333333337</ele><time>2026-05-03T13:11:29.482Z</time></trkpt><trkpt lat="40.0281367" lon="15.7775783"><ele>495.66666666666663</ele><time>2026-05-03T13:11:30.481Z</time></trkpt><trkpt lat="40.0281833" lon="15.7773767"><ele>497.0</ele><time>2026-05-03T13:11:31.482Z</time></trkpt><trkpt lat="40.028225" lon="15.77718"><ele>497.0</ele><time>2026-05-03T13:11:32.482Z</time></trkpt><trkpt lat="40.0282583" lon="15.7769983"><ele>497.0</ele><time>2026-05-03T13:11:33.482Z</time></trkpt><trkpt lat="40.02829" lon="15.7768417"><ele>497.0</ele><time>2026-05-03T13:11:34.482Z</time></trkpt><trkpt lat="40.0283367" lon="15.7767133"><ele>497.0</ele><time>2026-05-03T13:11:35.482Z</time></trkpt><trkpt lat="40.0283933" lon="15.7766183"><ele>495.99999999999994</ele><time>2026-05-03T13:11:36.48Z</time></trkpt><trkpt lat="40.0284783" lon="15.7765767"><ele>495.0</ele><time>2026-05-03T13:11:37.481Z</time></trkpt><trkpt lat="40.0285683" lon="15.7765683"><ele>494.0</ele><time>2026-05-03T13:11:38.482Z</time></trkpt><trkpt lat="40.0286433" lon="15.7766267"><ele>493.0</ele><time>2026-05-03T13:11:39.482Z</time></trkpt><trkpt lat="40.0287033" lon="15.7767083"><ele>491.99999999999994</ele><time>2026-05-03T13:11:40.48Z</time></trkpt><trkpt lat="40.0287483" lon="15.77681"><ele>491.0</ele><time>2026-05-03T13:11:41.482Z</time></trkpt><trkpt lat="40.0287367" lon="15.77697"><ele>489.75</ele><time>2026-05-03T13:11:42.482Z</time></trkpt><trkpt lat="40.0287167" lon="15.777125"><ele>488.5</ele><time>2026-05-03T13:11:43.481Z</time></trkpt><trkpt lat="40.028715" lon="15.7772767"><ele>487.25</ele><time>2026-05-03T13:11:44.482Z</time></trkpt><trkpt lat="40.02875" lon="15.7774267"><ele>486.0</ele><time>2026-05-03T13:11:45.481Z</time></trkpt><trkpt lat="40.02881" lon="15.7775667"><ele>484.5</ele><time>2026-05-03T13:11:46.482Z</time></trkpt><trkpt lat="40.0288767" lon="15.7777017"><ele>483.0</ele><time>2026-05-03T13:11:47.482Z</time></trkpt><trkpt lat="40.0289367" lon="15.7778367"><ele>481.5</ele><time>2026-05-03T13:11:48.482Z</time></trkpt><trkpt lat="40.02897" lon="15.7779733"><ele>480.0</ele><time>2026-05-03T13:11:49.484Z</time></trkpt><trkpt lat="40.0289683" lon="15.7781217"><ele>480.0</ele><time>2026-05-03T13:11:50.483Z</time></trkpt><trkpt lat="40.0289383" lon="15.7782817"><ele>480.0</ele><time>2026-05-03T13:11:51.482Z</time></trkpt><trkpt lat="40.0289167" lon="15.7784533"><ele>480.0</ele><time>2026-05-03T13:11:52.482Z</time></trkpt><trkpt lat="40.0289083" lon="15.7786367"><ele>480.0</ele><time>2026-05-03T13:11:53.484Z</time></trkpt><trkpt lat="40.028915" lon="15.7788217"><ele>480.0</ele><time>2026-05-03T13:11:54.483Z</time></trkpt><trkpt lat="40.028945" lon="15.7790083"><ele>480.0</ele><time>2026-05-03T13:11:55.481Z</time></trkpt><trkpt lat="40.0290033" lon="15.779185"><ele>480.0</ele><time>2026-05-03T13:11:56.482Z</time></trkpt><trkpt lat="40.0290933" lon="15.779355"><ele>477.33333333333337</ele><time>2026-05-03T13:11:57.481Z</time></trkpt><trkpt lat="40.0292" lon="15.7795233"><ele>474.6666666666667</ele><time>2026-05-03T13:11:58.482Z</time></trkpt><trkpt lat="40.0293017" lon="15.779685"><ele>472.0</ele><time>2026-05-03T13:11:59.482Z</time></trkpt><trkpt lat="40.02938" lon="15.77985"><ele>472.0</ele><time>2026-05-03T13:12:00.481Z</time></trkpt><trkpt lat="40.0294283" lon="15.7800183"><ele>472.0</ele><time>2026-05-03T13:12:01.481Z</time></trkpt><trkpt lat="40.029455" lon="15.7801883"><ele>472.0</ele><time>2026-05-03T13:12:02.482Z</time></trkpt><trkpt lat="40.0294867" lon="15.7803417"><ele>472.0</ele><time>2026-05-03T13:12:03.482Z</time></trkpt><trkpt lat="40.0295467" lon="15.7804583"><ele>472.0</ele><time>2026-05-03T13:12:04.481Z</time></trkpt><trkpt lat="40.0296233" lon="15.7805467"><ele>472.00000000000006</ele><time>2026-05-03T13:12:05.481Z</time></trkpt><trkpt lat="40.0297217" lon="15.7805967"><ele>472.00000000000006</ele><time>2026-05-03T13:12:06.482Z</time></trkpt><trkpt lat="40.029825" lon="15.780645"><ele>472.0</ele><time>2026-05-03T13:12:07.481Z</time></trkpt><trkpt lat="40.0299133" lon="15.7807233"><ele>472.0</ele><time>2026-05-03T13:12:08.482Z</time></trkpt><trkpt lat="40.02997" lon="15.780825"><ele>472.40000000000003</ele><time>2026-05-03T13:12:09.481Z</time></trkpt><trkpt lat="40.029985" lon="15.7809417"><ele>472.80000000000007</ele><time>2026-05-03T13:12:10.481Z</time></trkpt><trkpt lat="40.02996" lon="15.7810583"><ele>473.2</ele><time>2026-05-03T13:12:11.482Z</time></trkpt><trkpt lat="40.0299017" lon="15.7811617"><ele>473.6</ele><time>2026-05-03T13:12:12.481Z</time></trkpt><trkpt lat="40.029805" lon="15.781215"><ele>474.0</ele><time>2026-05-03T13:12:13.482Z</time></trkpt><trkpt lat="40.02969" lon="15.781265"><ele>472.75</ele><time>2026-05-03T13:12:14.482Z</time></trkpt><trkpt lat="40.0295817" lon="15.7813367"><ele>471.5</ele><time>2026-05-03T13:12:15.482Z</time></trkpt><trkpt lat="40.0294883" lon="15.781455"><ele>470.25</ele><time>2026-05-03T13:12:16.482Z</time></trkpt><trkpt lat="40.0294167" lon="15.7816067"><ele>469.0</ele><time>2026-05-03T13:12:17.482Z</time></trkpt><trkpt lat="40.02937" lon="15.7817917"><ele>468.0</ele><time>2026-05-03T13:12:18.483Z</time></trkpt><trkpt lat="40.0293417" lon="15.7820183"><ele>467.0</ele><time>2026-05-03T13:12:19.483Z</time></trkpt><trkpt lat="40.0293233" lon="15.78227"><ele>466.0</ele><time>2026-05-03T13:12:20.483Z</time></trkpt><trkpt lat="40.02931" lon="15.78253"><ele>464.33333333333337</ele><time>2026-05-03T13:12:21.483Z</time></trkpt><trkpt lat="40.029295" lon="15.7827917"><ele>462.66666666666663</ele><time>2026-05-03T13:12:22.484Z</time></trkpt><trkpt lat="40.0292667" lon="15.7830483"><ele>461.0</ele><time>2026-05-03T13:12:23.483Z</time></trkpt><trkpt lat="40.029235" lon="15.7832867"><ele>461.0</ele><time>2026-05-03T13:12:24.481Z</time></trkpt><trkpt lat="40.0292117" lon="15.7834867"><ele>461.0</ele><time>2026-05-03T13:12:25.482Z</time></trkpt><trkpt lat="40.0291983" lon="15.7836733"><ele>461.0</ele><time>2026-05-03T13:12:26.483Z</time></trkpt><trkpt lat="40.0292167" lon="15.783855"><ele>461.0</ele><time>2026-05-03T13:12:27.482Z</time></trkpt><trkpt lat="40.0292667" lon="15.7840333"><ele>460.0</ele><time>2026-05-03T13:12:28.482Z</time></trkpt><trkpt lat="40.0293317" lon="15.784205"><ele>459.0</ele><time>2026-05-03T13:12:29.482Z</time></trkpt><trkpt lat="40.029385" lon="15.7843783"><ele>458.0</ele><time>2026-05-03T13:12:30.482Z</time></trkpt><trkpt lat="40.0294017" lon="15.7845567"><ele>457.0</ele><time>2026-05-03T13:12:31.483Z</time></trkpt><trkpt lat="40.029395" lon="15.7847217"><ele>454.8</ele><time>2026-05-03T13:12:32.484Z</time></trkpt><trkpt lat="40.0293683" lon="15.784865"><ele>452.6</ele><time>2026-05-03T13:12:33.482Z</time></trkpt><trkpt lat="40.0293583" lon="15.7850017"><ele>450.40000000000003</ele><time>2026-05-03T13:12:34.484Z</time></trkpt><trkpt lat="40.029365" lon="15.7851283"><ele>448.20000000000005</ele><time>2026-05-03T13:12:35.483Z</time></trkpt><trkpt lat="40.0293967" lon="15.7852333"><ele>446.0</ele><time>2026-05-03T13:12:36.483Z</time></trkpt><trkpt lat="40.029455" lon="15.7853183"><ele>442.20000000000005</ele><time>2026-05-03T13:12:37.482Z</time></trkpt><trkpt lat="40.0295333" lon="15.78536"><ele>438.40000000000003</ele><time>2026-05-03T13:12:38.482Z</time></trkpt><trkpt lat="40.0296267" lon="15.7853833"><ele>434.6</ele><time>2026-05-03T13:12:39.481Z</time></trkpt><trkpt lat="40.029725" lon="15.7854083"><ele>430.8</ele><time>2026-05-03T13:12:40.482Z</time></trkpt><trkpt lat="40.0298183" lon="15.785455"><ele>427.0</ele><time>2026-05-03T13:12:41.485Z</time></trkpt><trkpt lat="40.0299133" lon="15.78553"><ele>428.0</ele><time>2026-05-03T13:12:42.482Z</time></trkpt><trkpt lat="40.030005" lon="15.78563"><ele>429.0</ele><time>2026-05-03T13:12:43.48Z</time></trkpt><trkpt lat="40.03009" lon="15.78575"><ele>430.0</ele><time>2026-05-03T13:12:44.481Z</time></trkpt><trkpt lat="40.0301617" lon="15.7858967"><ele>431.0</ele><time>2026-05-03T13:12:45.482Z</time></trkpt><trkpt lat="40.0302233" lon="15.7860667"><ele>431.0</ele><time>2026-05-03T13:12:46.481Z</time></trkpt><trkpt lat="40.0302783" lon="15.786245"><ele>431.0</ele><time>2026-05-03T13:12:47.482Z</time></trkpt><trkpt lat="40.0303433" lon="15.7864167"><ele>431.0</ele><time>2026-05-03T13:12:48.482Z</time></trkpt><trkpt lat="40.030425" lon="15.7865867"><ele>431.0</ele><time>2026-05-03T13:12:49.481Z</time></trkpt><trkpt lat="40.0305233" lon="15.7867567"><ele>432.0</ele><time>2026-05-03T13:12:50.482Z</time></trkpt><trkpt lat="40.0306233" lon="15.7869267"><ele>433.0</ele><time>2026-05-03T13:12:51.482Z</time></trkpt><trkpt lat="40.03072" lon="15.78709"><ele>434.0</ele><time>2026-05-03T13:12:52.483Z</time></trkpt><trkpt lat="40.0308117" lon="15.7872367"><ele>434.0</ele><time>2026-05-03T13:12:53.483Z</time></trkpt><trkpt lat="40.0308917" lon="15.7873683"><ele>434.0</ele><time>2026-05-03T13:12:54.482Z</time></trkpt><trkpt lat="40.0309767" lon="15.7874817"><ele>434.0</ele><time>2026-05-03T13:12:55.482Z</time></trkpt><trkpt lat="40.0310683" lon="15.787565"><ele>434.0</ele><time>2026-05-03T13:12:56.483Z</time></trkpt><trkpt lat="40.031165" lon="15.7876"><ele>434.0</ele><time>2026-05-03T13:12:57.482Z</time></trkpt><trkpt lat="40.03126" lon="15.7875917"><ele>434.0</ele><time>2026-05-03T13:12:58.481Z</time></trkpt><trkpt lat="40.0313517" lon="15.7875517"><ele>434.0</ele><time>2026-05-03T13:12:59.481Z</time></trkpt><trkpt lat="40.0314217" lon="15.787475"><ele>434.0</ele><time>2026-05-03T13:13:00.481Z</time></trkpt><trkpt lat="40.031485" lon="15.7873783"><ele>434.0</ele><time>2026-05-03T13:13:01.482Z</time></trkpt><trkpt lat="40.0315367" lon="15.7872333"><ele>434.0</ele><time>2026-05-03T13:13:02.483Z</time></trkpt><trkpt lat="40.03159" lon="15.7870517"><ele>434.0</ele><time>2026-05-03T13:13:03.483Z</time></trkpt><trkpt lat="40.0316567" lon="15.7868483"><ele>434.0</ele><time>2026-05-03T13:13:04.483Z</time></trkpt><trkpt lat="40.031725" lon="15.7866317"><ele>435.3333333333333</ele><time>2026-05-03T13:13:05.482Z</time></trkpt><trkpt lat="40.031775" lon="15.78641"><ele>436.66666666666663</ele><time>2026-05-03T13:13:06.482Z</time></trkpt><trkpt lat="40.0318067" lon="15.78618"><ele>438.0</ele><time>2026-05-03T13:13:07.482Z</time></trkpt><trkpt lat="40.0318383" lon="15.7859417"><ele>441.0</ele><time>2026-05-03T13:13:08.483Z</time></trkpt><trkpt lat="40.03187" lon="15.78569"><ele>444.0</ele><time>2026-05-03T13:13:09.482Z</time></trkpt><trkpt lat="40.031945" lon="15.7854433"><ele>447.0</ele><time>2026-05-03T13:13:10.483Z</time></trkpt><trkpt lat="40.0319983" lon="15.785245"><ele>447.66666666666663</ele><time>2026-05-03T13:13:11.484Z</time></trkpt><trkpt lat="40.0320483" lon="15.785075"><ele>448.3333333333333</ele><time>2026-05-03T13:13:12.483Z</time></trkpt><trkpt lat="40.0320967" lon="15.7848683"><ele>449.0</ele><time>2026-05-03T13:13:13.482Z</time></trkpt><trkpt lat="40.0321683" lon="15.7846733"><ele>449.0</ele><time>2026-05-03T13:13:14.483Z</time></trkpt><trkpt lat="40.0322517" lon="15.7844733"><ele>449.0</ele><time>2026-05-03T13:13:15.48Z</time></trkpt><trkpt lat="40.03233" lon="15.784275"><ele>449.0</ele><time>2026-05-03T13:13:16.481Z</time></trkpt><trkpt lat="40.032405" lon="15.7840783"><ele>439.66666666666663</ele><time>2026-05-03T13:13:17.482Z</time></trkpt><trkpt lat="40.032485" lon="15.7838983"><ele>430.33333333333337</ele><time>2026-05-03T13:13:18.481Z</time></trkpt><trkpt lat="40.0325867" lon="15.7837467"><ele>421.0</ele><time>2026-05-03T13:13:19.483Z</time></trkpt><trkpt lat="40.0327067" lon="15.7836017"><ele>427.6666666666667</ele><time>2026-05-03T13:13:20.482Z</time></trkpt><trkpt lat="40.0328367" lon="15.7834533"><ele>434.33333333333337</ele><time>2026-05-03T13:13:21.481Z</time></trkpt><trkpt lat="40.032975" lon="15.7832967"><ele>441.0</ele><time>2026-05-03T13:13:22.482Z</time></trkpt><trkpt lat="40.03312" lon="15.783125"><ele>441.0</ele><time>2026-05-03T13:13:23.482Z</time></trkpt><trkpt lat="40.0332583" lon="15.78293"><ele>441.0</ele><time>2026-05-03T13:13:24.482Z</time></trkpt><trkpt lat="40.0334017" lon="15.7827233"><ele>441.0</ele><time>2026-05-03T13:13:25.482Z</time></trkpt><trkpt lat="40.0335467" lon="15.7825117"><ele>433.33333333333337</ele><time>2026-05-03T13:13:26.483Z</time></trkpt><trkpt lat="40.0336833" lon="15.782305"><ele>425.6666666666667</ele><time>2026-05-03T13:13:27.48Z</time></trkpt><trkpt lat="40.0338167" lon="15.782115"><ele>418.0</ele><time>2026-05-03T13:13:28.482Z</time></trkpt><trkpt lat="40.0339417" lon="15.7819433"><ele>418.5</ele><time>2026-05-03T13:13:29.482Z</time></trkpt><trkpt lat="40.0340567" lon="15.781795"><ele>419.0</ele><time>2026-05-03T13:13:30.482Z</time></trkpt><trkpt lat="40.03417" lon="15.7816667"><ele>419.5</ele><time>2026-05-03T13:13:31.481Z</time></trkpt><trkpt lat="40.034275" lon="15.7815583"><ele>420.0</ele><time>2026-05-03T13:13:32.484Z</time></trkpt><trkpt lat="40.0343717" lon="15.7814667"><ele>417.0</ele><time>2026-05-03T13:13:33.482Z</time></trkpt><trkpt lat="40.0344683" lon="15.781395"><ele>414.0</ele><time>2026-05-03T13:13:34.483Z</time></trkpt><trkpt lat="40.0345617" lon="15.7813583"><ele>411.0</ele><time>2026-05-03T13:13:35.482Z</time></trkpt><trkpt lat="40.0346467" lon="15.7813683"><ele>408.0</ele><time>2026-05-03T13:13:36.481Z</time></trkpt><trkpt lat="40.034725" lon="15.7814133"><ele>405.0</ele><time>2026-05-03T13:13:37.483Z</time></trkpt><trkpt lat="40.0347817" lon="15.78148"><ele>405.0</ele><time>2026-05-03T13:13:38.483Z</time></trkpt><trkpt lat="40.034835" lon="15.78154"><ele>405.0</ele><time>2026-05-03T13:13:39.482Z</time></trkpt><trkpt lat="40.0348933" lon="15.7816017"><ele>405.0</ele><time>2026-05-03T13:13:40.483Z</time></trkpt><trkpt lat="40.0349633" lon="15.7816533"><ele>405.0</ele><time>2026-05-03T13:13:41.482Z</time></trkpt><trkpt lat="40.035045" lon="15.7816867"><ele>405.0</ele><time>2026-05-03T13:13:42.482Z</time></trkpt><trkpt lat="40.0351283" lon="15.7817083"><ele>405.0</ele><time>2026-05-03T13:13:43.481Z</time></trkpt><trkpt lat="40.0352217" lon="15.7817067"><ele>403.5</ele><time>2026-05-03T13:13:44.482Z</time></trkpt><trkpt lat="40.03535" lon="15.78173"><ele>402.0</ele><time>2026-05-03T13:13:45.481Z</time></trkpt><trkpt lat="40.0354883" lon="15.7817583"><ele>400.5</ele><time>2026-05-03T13:13:46.481Z</time></trkpt><trkpt lat="40.035605" lon="15.781785"><ele>399.0</ele><time>2026-05-03T13:13:47.481Z</time></trkpt><trkpt lat="40.0357367" lon="15.781755"><ele>397.5</ele><time>2026-05-03T13:13:48.483Z</time></trkpt><trkpt lat="40.03587" lon="15.7817033"><ele>396.0</ele><time>2026-05-03T13:13:49.482Z</time></trkpt><trkpt lat="40.0360067" lon="15.781655"><ele>394.5</ele><time>2026-05-03T13:13:50.483Z</time></trkpt><trkpt lat="40.0361533" lon="15.7816333"><ele>393.0</ele><time>2026-05-03T13:13:51.482Z</time></trkpt><trkpt lat="40.0362983" lon="15.781635"><ele>393.0</ele><time>2026-05-03T13:13:52.481Z</time></trkpt><trkpt lat="40.0364367" lon="15.781625"><ele>393.0</ele><time>2026-05-03T13:13:53.482Z</time></trkpt><trkpt lat="40.0365633" lon="15.7815767"><ele>393.0</ele><time>2026-05-03T13:13:54.482Z</time></trkpt><trkpt lat="40.036685" lon="15.7815067"><ele>393.0</ele><time>2026-05-03T13:13:55.482Z</time></trkpt><trkpt lat="40.036805" lon="15.7814483"><ele>392.25</ele><time>2026-05-03T13:13:56.482Z</time></trkpt><trkpt lat="40.0369333" lon="15.781415"><ele>391.5</ele><time>2026-05-03T13:13:57.482Z</time></trkpt><trkpt lat="40.037075" lon="15.78141"><ele>390.75</ele><time>2026-05-03T13:13:58.482Z</time></trkpt><trkpt lat="40.03722" lon="15.78142"><ele>390.0</ele><time>2026-05-03T13:13:59.482Z</time></trkpt><trkpt lat="40.0373617" lon="15.7814383"><ele>387.5</ele><time>2026-05-03T13:14:00.482Z</time></trkpt><trkpt lat="40.0375017" lon="15.78146"><ele>385.0</ele><time>2026-05-03T13:14:01.482Z</time></trkpt><trkpt lat="40.0376333" lon="15.781505"><ele>382.5</ele><time>2026-05-03T13:14:02.482Z</time></trkpt><trkpt lat="40.0377667" lon="15.7815767"><ele>380.0</ele><time>2026-05-03T13:14:03.481Z</time></trkpt><trkpt lat="40.0378933" lon="15.7816483"><ele>380.0</ele><time>2026-05-03T13:14:04.482Z</time></trkpt><trkpt lat="40.0380217" lon="15.7817033"><ele>380.0</ele><time>2026-05-03T13:14:05.482Z</time></trkpt><trkpt lat="40.038165" lon="15.78173"><ele>380.0</ele><time>2026-05-03T13:14:06.482Z</time></trkpt><trkpt lat="40.0383217" lon="15.7817317"><ele>380.0</ele><time>2026-05-03T13:14:07.481Z</time></trkpt><trkpt lat="40.0384817" lon="15.7817017"><ele>378.0</ele><time>2026-05-03T13:14:08.483Z</time></trkpt><trkpt lat="40.038645" lon="15.7816533"><ele>376.0</ele><time>2026-05-03T13:14:09.484Z</time></trkpt><trkpt lat="40.0388033" lon="15.7816183"><ele>374.0</ele><time>2026-05-03T13:14:10.483Z</time></trkpt><trkpt lat="40.0389583" lon="15.7815833"><ele>374.0</ele><time>2026-05-03T13:14:11.482Z</time></trkpt><trkpt lat="40.0391117" lon="15.7815417"><ele>374.0</ele><time>2026-05-03T13:14:12.482Z</time></trkpt><trkpt lat="40.0392583" lon="15.7814983"><ele>374.0</ele><time>2026-05-03T13:14:13.482Z</time></trkpt><trkpt lat="40.0394" lon="15.7814783"><ele>374.0</ele><time>2026-05-03T13:14:14.482Z</time></trkpt><trkpt lat="40.0395367" lon="15.7814883"><ele>372.5</ele><time>2026-05-03T13:14:15.482Z</time></trkpt><trkpt lat="40.0396667" lon="15.7815"><ele>371.0</ele><time>2026-05-03T13:14:16.482Z</time></trkpt><trkpt lat="40.0397967" lon="15.78149"><ele>369.5</ele><time>2026-05-03T13:14:17.483Z</time></trkpt><trkpt lat="40.0399267" lon="15.7814517"><ele>368.0</ele><time>2026-05-03T13:14:18.482Z</time></trkpt><trkpt lat="40.0400533" lon="15.7813983"><ele>366.25</ele><time>2026-05-03T13:14:19.482Z</time></trkpt><trkpt lat="40.040175" lon="15.7813567"><ele>364.5</ele><time>2026-05-03T13:14:20.482Z</time></trkpt><trkpt lat="40.0403033" lon="15.781345"><ele>362.75</ele><time>2026-05-03T13:14:21.481Z</time></trkpt><trkpt lat="40.0404433" lon="15.78136"><ele>361.0</ele><time>2026-05-03T13:14:22.481Z</time></trkpt><trkpt lat="40.040595" lon="15.7813833"><ele>361.0</ele><time>2026-05-03T13:14:23.482Z</time></trkpt><trkpt lat="40.040755" lon="15.781395"><ele>361.0</ele><time>2026-05-03T13:14:24.481Z</time></trkpt><trkpt lat="40.0409217" lon="15.7813867"><ele>361.0</ele><time>2026-05-03T13:14:25.481Z</time></trkpt><trkpt lat="40.0410867" lon="15.781355"><ele>359.3333333333333</ele><time>2026-05-03T13:14:26.482Z</time></trkpt><trkpt lat="40.0412467" lon="15.7813067"><ele>357.6666666666667</ele><time>2026-05-03T13:14:27.482Z</time></trkpt><trkpt lat="40.0413983" lon="15.7812517"><ele>356.0</ele><time>2026-05-03T13:14:28.483Z</time></trkpt><trkpt lat="40.0415367" lon="15.7812"><ele>353.75</ele><time>2026-05-03T13:14:29.482Z</time></trkpt><trkpt lat="40.041665" lon="15.7811517"><ele>351.5</ele><time>2026-05-03T13:14:30.483Z</time></trkpt><trkpt lat="40.0417833" lon="15.7811083"><ele>349.25</ele><time>2026-05-03T13:14:31.482Z</time></trkpt><trkpt lat="40.0418933" lon="15.7810833"><ele>347.0</ele><time>2026-05-03T13:14:32.483Z</time></trkpt><trkpt lat="40.0420017" lon="15.7810817"><ele>347.0</ele><time>2026-05-03T13:14:33.481Z</time></trkpt><trkpt lat="40.0421117" lon="15.7811133"><ele>347.0</ele><time>2026-05-03T13:14:34.482Z</time></trkpt><trkpt lat="40.0422367" lon="15.7811717"><ele>347.0</ele><time>2026-05-03T13:14:35.482Z</time></trkpt><trkpt lat="40.042375" lon="15.78125"><ele>347.0</ele><time>2026-05-03T13:14:36.482Z</time></trkpt><trkpt lat="40.0425317" lon="15.78133"><ele>344.33333333333337</ele><time>2026-05-03T13:14:37.482Z</time></trkpt><trkpt lat="40.0426983" lon="15.7814117"><ele>341.6666666666667</ele><time>2026-05-03T13:14:38.483Z</time></trkpt><trkpt lat="40.0428683" lon="15.7814867"><ele>339.0</ele><time>2026-05-03T13:14:39.483Z</time></trkpt><trkpt lat="40.04304" lon="15.7815417"><ele>339.0</ele><time>2026-05-03T13:14:40.483Z</time></trkpt><trkpt lat="40.04322" lon="15.7815617"><ele>339.0</ele><time>2026-05-03T13:14:41.482Z</time></trkpt><trkpt lat="40.0434133" lon="15.78155"><ele>339.0</ele><time>2026-05-03T13:14:42.482Z</time></trkpt><trkpt lat="40.0436033" lon="15.7815233"><ele>337.3333333333333</ele><time>2026-05-03T13:14:43.482Z</time></trkpt><trkpt lat="40.043785" lon="15.7814967"><ele>335.66666666666663</ele><time>2026-05-03T13:14:44.483Z</time></trkpt><trkpt lat="40.043955" lon="15.781425"><ele>334.0</ele><time>2026-05-03T13:14:45.482Z</time></trkpt><trkpt lat="40.0440817" lon="15.7813667"><ele>332.0</ele><time>2026-05-03T13:14:46.482Z</time></trkpt><trkpt lat="40.044195" lon="15.7812667"><ele>330.0</ele><time>2026-05-03T13:14:47.481Z</time></trkpt><trkpt lat="40.0442783" lon="15.7811067"><ele>328.0</ele><time>2026-05-03T13:14:48.482Z</time></trkpt><trkpt lat="40.0443117" lon="15.7809517"><ele>326.0</ele><time>2026-05-03T13:14:49.483Z</time></trkpt><trkpt lat="40.0443017" lon="15.7807633"><ele>325.0</ele><time>2026-05-03T13:14:50.484Z</time></trkpt><trkpt lat="40.0442717" lon="15.7805533"><ele>324.0</ele><time>2026-05-03T13:14:51.482Z</time></trkpt><trkpt lat="40.0442233" lon="15.78032"><ele>323.0</ele><time>2026-05-03T13:14:52.481Z</time></trkpt><trkpt lat="40.0441767" lon="15.7800967"><ele>320.6666666666667</ele><time>2026-05-03T13:14:53.481Z</time></trkpt><trkpt lat="40.0441417" lon="15.77989"><ele>318.3333333333333</ele><time>2026-05-03T13:14:54.483Z</time></trkpt><trkpt lat="40.0441283" lon="15.779695"><ele>316.0</ele><time>2026-05-03T13:14:55.482Z</time></trkpt><trkpt lat="40.04413" lon="15.7795067"><ele>316.5</ele><time>2026-05-03T13:14:56.483Z</time></trkpt><trkpt lat="40.0441533" lon="15.77932"><ele>317.0</ele><time>2026-05-03T13:14:57.482Z</time></trkpt><trkpt lat="40.044195" lon="15.77914"><ele>317.5</ele><time>2026-05-03T13:14:58.483Z</time></trkpt><trkpt lat="40.0442433" lon="15.7789683"><ele>318.0</ele><time>2026-05-03T13:14:59.482Z</time></trkpt><trkpt lat="40.0442917" lon="15.7788067"><ele>318.0</ele><time>2026-05-03T13:15:00.483Z</time></trkpt><trkpt lat="40.0443367" lon="15.7786617"><ele>318.0</ele><time>2026-05-03T13:15:01.483Z</time></trkpt><trkpt lat="40.0443883" lon="15.7785333"><ele>318.0</ele><time>2026-05-03T13:15:02.482Z</time></trkpt><trkpt lat="40.0444583" lon="15.77843"><ele>318.0</ele><time>2026-05-03T13:15:03.483Z</time></trkpt><trkpt lat="40.0445433" lon="15.7783617"><ele>318.0</ele><time>2026-05-03T13:15:04.482Z</time></trkpt><trkpt lat="40.04464" lon="15.7783333"><ele>318.0</ele><time>2026-05-03T13:15:05.483Z</time></trkpt><trkpt lat="40.0447383" lon="15.778365"><ele>318.0</ele><time>2026-05-03T13:15:06.483Z</time></trkpt><trkpt lat="40.044825" lon="15.7784367"><ele>318.0</ele><time>2026-05-03T13:15:07.481Z</time></trkpt><trkpt lat="40.0448883" lon="15.77855"><ele>318.0</ele><time>2026-05-03T13:15:08.482Z</time></trkpt><trkpt lat="40.0449267" lon="15.7786883"><ele>318.0</ele><time>2026-05-03T13:15:09.482Z</time></trkpt><trkpt lat="40.0449517" lon="15.7788417"><ele>314.5</ele><time>2026-05-03T13:15:10.481Z</time></trkpt><trkpt lat="40.0449733" lon="15.77901"><ele>311.0</ele><time>2026-05-03T13:15:11.481Z</time></trkpt><trkpt lat="40.0449983" lon="15.779185"><ele>307.5</ele><time>2026-05-03T13:15:12.482Z</time></trkpt><trkpt lat="40.0450317" lon="15.7793633"><ele>304.0</ele><time>2026-05-03T13:15:13.481Z</time></trkpt><trkpt lat="40.0450867" lon="15.7795417"><ele>304.0</ele><time>2026-05-03T13:15:14.482Z</time></trkpt><trkpt lat="40.04517" lon="15.77971"><ele>304.0</ele><time>2026-05-03T13:15:15.481Z</time></trkpt><trkpt lat="40.045275" lon="15.7799017"><ele>304.0</ele><time>2026-05-03T13:15:16.482Z</time></trkpt><trkpt lat="40.0453583" lon="15.7801217"><ele>306.0</ele><time>2026-05-03T13:15:17.483Z</time></trkpt><trkpt lat="40.0454717" lon="15.7802433"><ele>308.0</ele><time>2026-05-03T13:15:18.483Z</time></trkpt><trkpt lat="40.04556" lon="15.780355"><ele>310.0</ele><time>2026-05-03T13:15:19.483Z</time></trkpt><trkpt lat="40.0456333" lon="15.7804717"><ele>312.0</ele><time>2026-05-03T13:15:20.482Z</time></trkpt><trkpt lat="40.04568" lon="15.7805883"><ele>312.0</ele><time>2026-05-03T13:15:21.481Z</time></trkpt><trkpt lat="40.0457217" lon="15.780695"><ele>312.0</ele><time>2026-05-03T13:15:22.482Z</time></trkpt><trkpt lat="40.0457717" lon="15.7808267"><ele>312.0</ele><time>2026-05-03T13:15:24.483Z</time></trkpt><trkpt lat="40.0457917" lon="15.7809133"><ele>312.0</ele><time>2026-05-03T13:15:26.482Z</time></trkpt><trkpt lat="40.045865" lon="15.7809217"><ele>312.0</ele><time>2026-05-03T13:16:01.482Z</time></trkpt><trkpt lat="40.0459383" lon="15.7808867"><ele>312.0</ele><time>2026-05-03T13:16:03.481Z</time></trkpt><trkpt lat="40.046" lon="15.78083"><ele>306.75</ele><time>2026-05-03T13:16:04.481Z</time></trkpt><trkpt lat="40.0460733" lon="15.7807367"><ele>301.5</ele><time>2026-05-03T13:16:05.481Z</time></trkpt><trkpt lat="40.0461733" lon="15.7806033"><ele>296.25</ele><time>2026-05-03T13:16:06.481Z</time></trkpt><trkpt lat="40.0462967" lon="15.7804367"><ele>291.0</ele><time>2026-05-03T13:16:07.481Z</time></trkpt><trkpt lat="40.046455" lon="15.7802567"><ele>290.0</ele><time>2026-05-03T13:16:08.482Z</time></trkpt><trkpt lat="40.0465733" lon="15.7800583"><ele>289.0</ele><time>2026-05-03T13:16:09.481Z</time></trkpt><trkpt lat="40.04671" lon="15.7798567"><ele>288.0</ele><time>2026-05-03T13:16:10.48Z</time></trkpt><trkpt lat="40.0468283" lon="15.7796433"><ele>282.0</ele><time>2026-05-03T13:16:11.481Z</time></trkpt><trkpt lat="40.046945" lon="15.77944"><ele>276.0</ele><time>2026-05-03T13:16:12.482Z</time></trkpt><trkpt lat="40.047065" lon="15.779235"><ele>270.0</ele><time>2026-05-03T13:16:13.481Z</time></trkpt><trkpt lat="40.0471733" lon="15.7790433"><ele>269.0</ele><time>2026-05-03T13:16:14.481Z</time></trkpt><trkpt lat="40.0472783" lon="15.7788633"><ele>268.0</ele><time>2026-05-03T13:16:15.481Z</time></trkpt><trkpt lat="40.04738" lon="15.7786833"><ele>267.0</ele><time>2026-05-03T13:16:16.481Z</time></trkpt><trkpt lat="40.0474883" lon="15.7785017"><ele>263.6666666666667</ele><time>2026-05-03T13:16:17.481Z</time></trkpt><trkpt lat="40.0475933" lon="15.7783283"><ele>260.33333333333337</ele><time>2026-05-03T13:16:18.48Z</time></trkpt><trkpt lat="40.047695" lon="15.7781617"><ele>257.0</ele><time>2026-05-03T13:16:19.481Z</time></trkpt><trkpt lat="40.0477983" lon="15.7779983"><ele>257.0</ele><time>2026-05-03T13:16:20.482Z</time></trkpt><trkpt lat="40.0479017" lon="15.7778383"><ele>257.0</ele><time>2026-05-03T13:16:21.482Z</time></trkpt><trkpt lat="40.048005" lon="15.777675"><ele>257.0</ele><time>2026-05-03T13:16:22.482Z</time></trkpt><trkpt lat="40.048105" lon="15.7775117"><ele>255.0</ele><time>2026-05-03T13:16:23.483Z</time></trkpt><trkpt lat="40.0482033" lon="15.77735"><ele>253.0</ele><time>2026-05-03T13:16:24.481Z</time></trkpt><trkpt lat="40.0483017" lon="15.77719"><ele>251.0</ele><time>2026-05-03T13:16:25.483Z</time></trkpt><trkpt lat="40.0484" lon="15.7770317"><ele>251.0</ele><time>2026-05-03T13:16:26.483Z</time></trkpt><trkpt lat="40.0484967" lon="15.7768767"><ele>251.0</ele><time>2026-05-03T13:16:27.481Z</time></trkpt><trkpt lat="40.04859" lon="15.776725"><ele>251.0</ele><time>2026-05-03T13:16:28.482Z</time></trkpt><trkpt lat="40.0486817" lon="15.776575"><ele>251.0</ele><time>2026-05-03T13:16:29.482Z</time></trkpt><trkpt lat="40.0487717" lon="15.7764283"><ele>252.5</ele><time>2026-05-03T13:16:30.482Z</time></trkpt><trkpt lat="40.0488717" lon="15.77629"><ele>254.0</ele><time>2026-05-03T13:16:31.482Z</time></trkpt><trkpt lat="40.0489633" lon="15.7761617"><ele>255.5</ele><time>2026-05-03T13:16:32.482Z</time></trkpt><trkpt lat="40.04907" lon="15.7760417"><ele>257.0</ele><time>2026-05-03T13:16:33.481Z</time></trkpt><trkpt lat="40.04918" lon="15.77592"><ele>261.6</ele><time>2026-05-03T13:16:34.481Z</time></trkpt><trkpt lat="40.0492817" lon="15.7758133"><ele>266.2</ele><time>2026-05-03T13:16:35.481Z</time></trkpt><trkpt lat="40.0493733" lon="15.7757317"><ele>270.8</ele><time>2026-05-03T13:16:36.48Z</time></trkpt><trkpt lat="40.04946" lon="15.77569"><ele>275.4</ele><time>2026-05-03T13:16:37.481Z</time></trkpt><trkpt lat="40.0495517" lon="15.77569"><ele>280.0</ele><time>2026-05-03T13:16:38.482Z</time></trkpt><trkpt lat="40.0496567" lon="15.775715"><ele>280.0</ele><time>2026-05-03T13:16:39.481Z</time></trkpt><trkpt lat="40.0497783" lon="15.775755"><ele>280.0</ele><time>2026-05-03T13:16:40.481Z</time></trkpt><trkpt lat="40.0499117" lon="15.7757983"><ele>280.0</ele><time>2026-05-03T13:16:41.48Z</time></trkpt><trkpt lat="40.050045" lon="15.7758867"><ele>280.0</ele><time>2026-05-03T13:16:42.48Z</time></trkpt><trkpt lat="40.05019" lon="15.7759567"><ele>277.66666666666663</ele><time>2026-05-03T13:16:43.48Z</time></trkpt><trkpt lat="40.0503417" lon="15.7760533"><ele>275.3333333333333</ele><time>2026-05-03T13:16:44.483Z</time></trkpt><trkpt lat="40.05048" lon="15.7761467"><ele>273.0</ele><time>2026-05-03T13:16:45.482Z</time></trkpt><trkpt lat="40.0506167" lon="15.7762467"><ele>273.0</ele><time>2026-05-03T13:16:46.48Z</time></trkpt><trkpt lat="40.0507467" lon="15.776355"><ele>273.0</ele><time>2026-05-03T13:16:47.482Z</time></trkpt><trkpt lat="40.0508733" lon="15.776445"><ele>273.0</ele><time>2026-05-03T13:16:48.482Z</time></trkpt><trkpt lat="40.051005" lon="15.7765033"><ele>273.0</ele><time>2026-05-03T13:16:49.482Z</time></trkpt><trkpt lat="40.051135" lon="15.77651"><ele>273.0</ele><time>2026-05-03T13:16:50.481Z</time></trkpt><trkpt lat="40.0512617" lon="15.7764717"><ele>273.0</ele><time>2026-05-03T13:16:51.481Z</time></trkpt><trkpt lat="40.05138" lon="15.7763783"><ele>273.0</ele><time>2026-05-03T13:16:52.481Z</time></trkpt><trkpt lat="40.0514783" lon="15.7762367"><ele>273.0</ele><time>2026-05-03T13:16:53.482Z</time></trkpt><trkpt lat="40.051565" lon="15.7760683"><ele>273.0</ele><time>2026-05-03T13:16:54.481Z</time></trkpt><trkpt lat="40.05165" lon="15.7759083"><ele>273.0</ele><time>2026-05-03T13:16:55.482Z</time></trkpt><trkpt lat="40.051755" lon="15.775785"><ele>273.0</ele><time>2026-05-03T13:16:56.481Z</time></trkpt><trkpt lat="40.0518717" lon="15.77571"><ele>273.0</ele><time>2026-05-03T13:16:57.481Z</time></trkpt><trkpt lat="40.0520067" lon="15.7756733"><ele>273.0</ele><time>2026-05-03T13:16:58.482Z</time></trkpt><trkpt lat="40.0521483" lon="15.77563"><ele>273.0</ele><time>2026-05-03T13:16:59.481Z</time></trkpt><trkpt lat="40.0522867" lon="15.7755517"><ele>273.0</ele><time>2026-05-03T13:17:00.482Z</time></trkpt><trkpt lat="40.05242" lon="15.7754317"><ele>274.6666666666667</ele><time>2026-05-03T13:17:01.48Z</time></trkpt><trkpt lat="40.05255" lon="15.7752967"><ele>276.33333333333337</ele><time>2026-05-03T13:17:02.482Z</time></trkpt><trkpt lat="40.0526733" lon="15.7751667"><ele>278.0</ele><time>2026-05-03T13:17:03.482Z</time></trkpt><trkpt lat="40.0528033" lon="15.7750633"><ele>278.0</ele><time>2026-05-03T13:17:04.483Z</time></trkpt><trkpt lat="40.0529417" lon="15.7749917"><ele>278.0</ele><time>2026-05-03T13:17:05.481Z</time></trkpt><trkpt lat="40.0530767" lon="15.774945"><ele>278.0</ele><time>2026-05-03T13:17:06.481Z</time></trkpt><trkpt lat="40.0531967" lon="15.7749217"><ele>278.0</ele><time>2026-05-03T13:17:07.481Z</time></trkpt><trkpt lat="40.0533033" lon="15.774935"><ele>276.1666666666667</ele><time>2026-05-03T13:17:08.481Z</time></trkpt><trkpt lat="40.0533933" lon="15.7749833"><ele>274.33333333333337</ele><time>2026-05-03T13:17:09.48Z</time></trkpt><trkpt lat="40.053465" lon="15.775055"><ele>272.5</ele><time>2026-05-03T13:17:10.481Z</time></trkpt><trkpt lat="40.0535133" lon="15.7751317"><ele>270.6666666666667</ele><time>2026-05-03T13:17:11.481Z</time></trkpt><trkpt lat="40.05354" lon="15.7752267"><ele>268.8333333333333</ele><time>2026-05-03T13:17:12.481Z</time></trkpt><trkpt lat="40.053545" lon="15.7753333"><ele>267.0</ele><time>2026-05-03T13:17:13.481Z</time></trkpt><trkpt lat="40.0535467" lon="15.775435"><ele>263.75</ele><time>2026-05-03T13:17:14.481Z</time></trkpt><trkpt lat="40.0535" lon="15.7755267"><ele>260.5</ele><time>2026-05-03T13:17:15.481Z</time></trkpt><trkpt lat="40.05341" lon="15.775605"><ele>257.25</ele><time>2026-05-03T13:17:16.482Z</time></trkpt><trkpt lat="40.0532767" lon="15.7756917"><ele>254.0</ele><time>2026-05-03T13:17:17.482Z</time></trkpt><trkpt lat="40.0531417" lon="15.7757933"><ele>254.0</ele><time>2026-05-03T13:17:18.481Z</time></trkpt><trkpt lat="40.0530217" lon="15.7759267"><ele>254.0</ele><time>2026-05-03T13:17:19.482Z</time></trkpt><trkpt lat="40.0529383" lon="15.7760883"><ele>254.0</ele><time>2026-05-03T13:17:20.482Z</time></trkpt><trkpt lat="40.0528817" lon="15.77627"><ele>250.33333333333334</ele><time>2026-05-03T13:17:21.482Z</time></trkpt><trkpt lat="40.0528633" lon="15.77648"><ele>246.66666666666669</ele><time>2026-05-03T13:17:22.48Z</time></trkpt><trkpt lat="40.0528617" lon="15.776705"><ele>243.0</ele><time>2026-05-03T13:17:23.481Z</time></trkpt><trkpt lat="40.0528633" lon="15.77694"><ele>240.33333333333331</ele><time>2026-05-03T13:17:24.482Z</time></trkpt><trkpt lat="40.0528617" lon="15.77717"><ele>237.66666666666666</ele><time>2026-05-03T13:17:25.481Z</time></trkpt><trkpt lat="40.0528617" lon="15.7773867"><ele>235.0</ele><time>2026-05-03T13:17:26.482Z</time></trkpt><trkpt lat="40.052875" lon="15.7775867"><ele>233.0</ele><time>2026-05-03T13:17:27.481Z</time></trkpt><trkpt lat="40.0529183" lon="15.77777"><ele>231.0</ele><time>2026-05-03T13:17:28.482Z</time></trkpt><trkpt lat="40.0529983" lon="15.77793"><ele>229.0</ele><time>2026-05-03T13:17:29.48Z</time></trkpt><trkpt lat="40.0531117" lon="15.7780733"><ele>229.0</ele><time>2026-05-03T13:17:30.481Z</time></trkpt><trkpt lat="40.0532533" lon="15.7781917"><ele>229.0</ele><time>2026-05-03T13:17:31.481Z</time></trkpt><trkpt lat="40.0534133" lon="15.7782983"><ele>229.0</ele><time>2026-05-03T13:17:32.481Z</time></trkpt><trkpt lat="40.0535817" lon="15.7784083"><ele>228.66666666666666</ele><time>2026-05-03T13:17:33.481Z</time></trkpt><trkpt lat="40.0537483" lon="15.77852"><ele>228.33333333333331</ele><time>2026-05-03T13:17:34.482Z</time></trkpt><trkpt lat="40.0538967" lon="15.778635"><ele>228.0</ele><time>2026-05-03T13:17:35.481Z</time></trkpt><trkpt lat="40.054025" lon="15.7787667"><ele>228.66666666666669</ele><time>2026-05-03T13:17:36.48Z</time></trkpt><trkpt lat="40.0541283" lon="15.7789283"><ele>229.33333333333334</ele><time>2026-05-03T13:17:37.482Z</time></trkpt><trkpt lat="40.05421" lon="15.779125"><ele>230.0</ele><time>2026-05-03T13:17:38.482Z</time></trkpt><trkpt lat="40.054275" lon="15.77935"><ele>230.0</ele><time>2026-05-03T13:17:39.481Z</time></trkpt><trkpt lat="40.0543333" lon="15.7795817"><ele>230.0</ele><time>2026-05-03T13:17:40.481Z</time></trkpt><trkpt lat="40.0543883" lon="15.7798183"><ele>230.0</ele><time>2026-05-03T13:17:41.481Z</time></trkpt><trkpt lat="40.0544417" lon="15.7800583"><ele>229.0</ele><time>2026-05-03T13:17:42.48Z</time></trkpt><trkpt lat="40.05448" lon="15.7802983"><ele>228.0</ele><time>2026-05-03T13:17:43.482Z</time></trkpt><trkpt lat="40.0545167" lon="15.7805217"><ele>227.0</ele><time>2026-05-03T13:17:44.482Z</time></trkpt><trkpt lat="40.0545617" lon="15.7807383"><ele>227.0</ele><time>2026-05-03T13:17:45.481Z</time></trkpt><trkpt lat="40.0546283" lon="15.78095"><ele>227.0</ele><time>2026-05-03T13:17:46.481Z</time></trkpt><trkpt lat="40.0547233" lon="15.7811533"><ele>227.0</ele><time>2026-05-03T13:17:47.482Z</time></trkpt><trkpt lat="40.054845" lon="15.781355"><ele>224.33333333333334</ele><time>2026-05-03T13:17:48.48Z</time></trkpt><trkpt lat="40.054975" lon="15.7815617"><ele>221.66666666666669</ele><time>2026-05-03T13:17:49.483Z</time></trkpt><trkpt lat="40.055105" lon="15.7817767"><ele>219.0</ele><time>2026-05-03T13:17:50.483Z</time></trkpt><trkpt lat="40.0552383" lon="15.7819917"><ele>216.66666666666669</ele><time>2026-05-03T13:17:51.481Z</time></trkpt><trkpt lat="40.0553717" lon="15.7822117"><ele>214.33333333333334</ele><time>2026-05-03T13:17:52.482Z</time></trkpt><trkpt lat="40.0555" lon="15.7824367"><ele>212.0</ele><time>2026-05-03T13:17:53.484Z</time></trkpt><trkpt lat="40.0556317" lon="15.7826567"><ele>212.66666666666669</ele><time>2026-05-03T13:17:54.481Z</time></trkpt><trkpt lat="40.0557667" lon="15.7828817"><ele>213.33333333333331</ele><time>2026-05-03T13:17:55.481Z</time></trkpt><trkpt lat="40.0559" lon="15.7831017"><ele>214.0</ele><time>2026-05-03T13:17:56.482Z</time></trkpt><trkpt lat="40.0560383" lon="15.783315"><ele>219.66666666666666</ele><time>2026-05-03T13:17:57.483Z</time></trkpt><trkpt lat="40.0561733" lon="15.78353"><ele>225.33333333333331</ele><time>2026-05-03T13:17:58.481Z</time></trkpt><trkpt lat="40.056305" lon="15.7837433"><ele>231.0</ele><time>2026-05-03T13:17:59.484Z</time></trkpt><trkpt lat="40.0564333" lon="15.7839467"><ele>231.0</ele><time>2026-05-03T13:18:00.482Z</time></trkpt><trkpt lat="40.0565567" lon="15.7841467"><ele>231.0</ele><time>2026-05-03T13:18:01.482Z</time></trkpt><trkpt lat="40.0566583" lon="15.7843467"><ele>231.0</ele><time>2026-05-03T13:18:02.481Z</time></trkpt><trkpt lat="40.0567183" lon="15.78456"><ele>237.33333333333331</ele><time>2026-05-03T13:18:03.48Z</time></trkpt><trkpt lat="40.0567433" lon="15.7847817"><ele>243.66666666666666</ele><time>2026-05-03T13:18:04.481Z</time></trkpt><trkpt lat="40.0567117" lon="15.7850033"><ele>250.0</ele><time>2026-05-03T13:18:05.481Z</time></trkpt><trkpt lat="40.0566417" lon="15.7852267"><ele>251.33333333333331</ele><time>2026-05-03T13:18:06.481Z</time></trkpt><trkpt lat="40.0565633" lon="15.7854567"><ele>252.66666666666669</ele><time>2026-05-03T13:18:07.482Z</time></trkpt><trkpt lat="40.0564767" lon="15.785695"><ele>254.0</ele><time>2026-05-03T13:18:08.483Z</time></trkpt><trkpt lat="40.0563917" lon="15.7859333"><ele>254.66666666666669</ele><time>2026-05-03T13:18:09.481Z</time></trkpt><trkpt lat="40.0563067" lon="15.7861783"><ele>255.33333333333331</ele><time>2026-05-03T13:18:10.482Z</time></trkpt><trkpt lat="40.0562233" lon="15.7864217"><ele>256.0</ele><time>2026-05-03T13:18:11.482Z</time></trkpt><trkpt lat="40.0561467" lon="15.7866683"><ele>258.3333333333333</ele><time>2026-05-03T13:18:12.482Z</time></trkpt><trkpt lat="40.0560717" lon="15.7869167"><ele>260.6666666666667</ele><time>2026-05-03T13:18:13.482Z</time></trkpt><trkpt lat="40.056" lon="15.7871717"><ele>263.0</ele><time>2026-05-03T13:18:14.481Z</time></trkpt><trkpt lat="40.0559417" lon="15.7874217"><ele>263.0</ele><time>2026-05-03T13:18:15.482Z</time></trkpt><trkpt lat="40.0558833" lon="15.78765"><ele>263.0</ele><time>2026-05-03T13:18:16.482Z</time></trkpt><trkpt lat="40.0558367" lon="15.7878483"><ele>263.0</ele><time>2026-05-03T13:18:17.481Z</time></trkpt><trkpt lat="40.0557933" lon="15.788035"><ele>262.25</ele><time>2026-05-03T13:18:18.481Z</time></trkpt><trkpt lat="40.0557517" lon="15.7882167"><ele>261.5</ele><time>2026-05-03T13:18:19.482Z</time></trkpt><trkpt lat="40.0557217" lon="15.7883983"><ele>260.75</ele><time>2026-05-03T13:18:20.482Z</time></trkpt><trkpt lat="40.0557133" lon="15.7885733"><ele>260.0</ele><time>2026-05-03T13:18:21.482Z</time></trkpt><trkpt lat="40.0557217" lon="15.7887283"><ele>261.6</ele><time>2026-05-03T13:18:22.481Z</time></trkpt><trkpt lat="40.0557517" lon="15.7888533"><ele>263.2</ele><time>2026-05-03T13:18:23.482Z</time></trkpt><trkpt lat="40.05581" lon="15.7889617"><ele>264.8</ele><time>2026-05-03T13:18:24.481Z</time></trkpt><trkpt lat="40.0558917" lon="15.78905"><ele>266.4</ele><time>2026-05-03T13:18:25.482Z</time></trkpt><trkpt lat="40.0559983" lon="15.7891167"><ele>268.0</ele><time>2026-05-03T13:18:26.481Z</time></trkpt><trkpt lat="40.0561167" lon="15.7891983"><ele>272.0</ele><time>2026-05-03T13:18:27.481Z</time></trkpt><trkpt lat="40.0562683" lon="15.7891933"><ele>276.0</ele><time>2026-05-03T13:18:28.481Z</time></trkpt><trkpt lat="40.0564267" lon="15.7891833"><ele>280.0</ele><time>2026-05-03T13:18:29.482Z</time></trkpt><trkpt lat="40.0565833" lon="15.7891367"><ele>286.0</ele><time>2026-05-03T13:18:30.482Z</time></trkpt><trkpt lat="40.0567167" lon="15.7890517"><ele>292.0</ele><time>2026-05-03T13:18:31.482Z</time></trkpt><trkpt lat="40.0568417" lon="15.7888983"><ele>298.0</ele><time>2026-05-03T13:18:32.482Z</time></trkpt><trkpt lat="40.0569467" lon="15.7887083"><ele>294.66666666666663</ele><time>2026-05-03T13:18:33.482Z</time></trkpt><trkpt lat="40.0570383" lon="15.7884867"><ele>291.3333333333333</ele><time>2026-05-03T13:18:34.48Z</time></trkpt><trkpt lat="40.0571333" lon="15.7882817"><ele>288.0</ele><time>2026-05-03T13:18:35.481Z</time></trkpt><trkpt lat="40.0572317" lon="15.78811"><ele>288.0</ele><time>2026-05-03T13:18:36.481Z</time></trkpt><trkpt lat="40.0573467" lon="15.7879717"><ele>288.0</ele><time>2026-05-03T13:18:37.48Z</time></trkpt><trkpt lat="40.0574767" lon="15.7878817"><ele>288.0</ele><time>2026-05-03T13:18:38.481Z</time></trkpt><trkpt lat="40.0576367" lon="15.7878467"><ele>292.6666666666667</ele><time>2026-05-03T13:18:39.482Z</time></trkpt><trkpt lat="40.0578" lon="15.7878567"><ele>297.33333333333337</ele><time>2026-05-03T13:18:40.481Z</time></trkpt><trkpt lat="40.05795" lon="15.7879233"><ele>302.0</ele><time>2026-05-03T13:18:41.48Z</time></trkpt><trkpt lat="40.0580767" lon="15.788045"><ele>302.0</ele><time>2026-05-03T13:18:42.481Z</time></trkpt><trkpt lat="40.05821" lon="15.7881883"><ele>302.0</ele><time>2026-05-03T13:18:43.481Z</time></trkpt><trkpt lat="40.0583583" lon="15.7883233"><ele>302.0</ele><time>2026-05-03T13:18:44.482Z</time></trkpt><trkpt lat="40.0585233" lon="15.788445"><ele>308.6666666666667</ele><time>2026-05-03T13:18:45.482Z</time></trkpt><trkpt lat="40.058705" lon="15.7885517"><ele>315.3333333333333</ele><time>2026-05-03T13:18:46.481Z</time></trkpt><trkpt lat="40.0588933" lon="15.78864"><ele>322.0</ele><time>2026-05-03T13:18:47.48Z</time></trkpt><trkpt lat="40.0590733" lon="15.7887133"><ele>317.66666666666663</ele><time>2026-05-03T13:18:48.482Z</time></trkpt><trkpt lat="40.0592317" lon="15.78876"><ele>313.3333333333333</ele><time>2026-05-03T13:18:49.482Z</time></trkpt><trkpt lat="40.0593833" lon="15.78876"><ele>309.0</ele><time>2026-05-03T13:18:50.483Z</time></trkpt><trkpt lat="40.059525" lon="15.7887133"><ele>309.0</ele><time>2026-05-03T13:18:51.482Z</time></trkpt><trkpt lat="40.05965" lon="15.78862"><ele>309.0</ele><time>2026-05-03T13:18:52.482Z</time></trkpt><trkpt lat="40.0597517" lon="15.7884767"><ele>309.0</ele><time>2026-05-03T13:18:53.481Z</time></trkpt><trkpt lat="40.059835" lon="15.7882967"><ele>308.0</ele><time>2026-05-03T13:18:54.481Z</time></trkpt><trkpt lat="40.0598967" lon="15.788095"><ele>307.0</ele><time>2026-05-03T13:18:55.482Z</time></trkpt><trkpt lat="40.059975" lon="15.7879"><ele>306.0</ele><time>2026-05-03T13:18:56.482Z</time></trkpt><trkpt lat="40.0600767" lon="15.7877417"><ele>306.0</ele><time>2026-05-03T13:18:57.481Z</time></trkpt><trkpt lat="40.0601867" lon="15.78764"><ele>306.0</ele><time>2026-05-03T13:18:58.481Z</time></trkpt><trkpt lat="40.0602967" lon="15.7875983"><ele>306.0</ele><time>2026-05-03T13:18:59.482Z</time></trkpt><trkpt lat="40.0604233" lon="15.7876167"><ele>306.0</ele><time>2026-05-03T13:19:00.481Z</time></trkpt><trkpt lat="40.0605617" lon="15.78772"><ele>306.0</ele><time>2026-05-03T13:19:01.481Z</time></trkpt><trkpt lat="40.0606933" lon="15.78787"><ele>306.0</ele><time>2026-05-03T13:19:02.481Z</time></trkpt><trkpt lat="40.060815" lon="15.7880617"><ele>306.0</ele><time>2026-05-03T13:19:03.481Z</time></trkpt><trkpt lat="40.0609317" lon="15.7882733"><ele>307.3333333333333</ele><time>2026-05-03T13:19:04.481Z</time></trkpt><trkpt lat="40.0610617" lon="15.7884933"><ele>308.66666666666663</ele><time>2026-05-03T13:19:05.482Z</time></trkpt><trkpt lat="40.0611967" lon="15.788725"><ele>310.0</ele><time>2026-05-03T13:19:06.482Z</time></trkpt><trkpt lat="40.061335" lon="15.7889617"><ele>316.0</ele><time>2026-05-03T13:19:07.48Z</time></trkpt><trkpt lat="40.0614767" lon="15.7892033"><ele>322.0</ele><time>2026-05-03T13:19:08.482Z</time></trkpt><trkpt lat="40.0616267" lon="15.7894333"><ele>326.5</ele><time>2026-05-03T13:19:09.482Z</time></trkpt><trkpt lat="40.0617783" lon="15.789655"><ele>331.0</ele><time>2026-05-03T13:19:10.481Z</time></trkpt><trkpt lat="40.0619383" lon="15.789875"><ele>331.0</ele><time>2026-05-03T13:19:11.48Z</time></trkpt><trkpt lat="40.0621" lon="15.790115"><ele>331.0</ele><time>2026-05-03T13:19:12.481Z</time></trkpt><trkpt lat="40.0622417" lon="15.7903133"><ele>333.0</ele><time>2026-05-03T13:19:13.481Z</time></trkpt><trkpt lat="40.0623183" lon="15.7905067"><ele>335.0</ele><time>2026-05-03T13:19:14.482Z</time></trkpt><trkpt lat="40.062365" lon="15.790695"><ele>337.0</ele><time>2026-05-03T13:19:15.482Z</time></trkpt><trkpt lat="40.0624" lon="15.79091"><ele>340.0</ele><time>2026-05-03T13:19:16.482Z</time></trkpt><trkpt lat="40.06243" lon="15.7911333"><ele>343.0</ele><time>2026-05-03T13:19:17.482Z</time></trkpt><trkpt lat="40.06247" lon="15.79135"><ele>346.0</ele><time>2026-05-03T13:19:18.481Z</time></trkpt><trkpt lat="40.06252" lon="15.7915383"><ele>346.0</ele><time>2026-05-03T13:19:19.482Z</time></trkpt><trkpt lat="40.06258" lon="15.7916983"><ele>346.0</ele><time>2026-05-03T13:19:20.484Z</time></trkpt><trkpt lat="40.0626717" lon="15.7918333"><ele>346.0</ele><time>2026-05-03T13:19:21.482Z</time></trkpt><trkpt lat="40.0627917" lon="15.7919283"><ele>346.0</ele><time>2026-05-03T13:19:22.481Z</time></trkpt><trkpt lat="40.062925" lon="15.7919833"><ele>347.0</ele><time>2026-05-03T13:19:23.481Z</time></trkpt><trkpt lat="40.0630617" lon="15.79199"><ele>348.0</ele><time>2026-05-03T13:19:24.482Z</time></trkpt><trkpt lat="40.063205" lon="15.7919467"><ele>349.0</ele><time>2026-05-03T13:19:25.482Z</time></trkpt><trkpt lat="40.063355" lon="15.7918767"><ele>350.0</ele><time>2026-05-03T13:19:26.481Z</time></trkpt><trkpt lat="40.0635067" lon="15.7918183"><ele>350.0</ele><time>2026-05-03T13:19:27.482Z</time></trkpt><trkpt lat="40.0636533" lon="15.7918017"><ele>350.0</ele><time>2026-05-03T13:19:28.482Z</time></trkpt><trkpt lat="40.0637967" lon="15.7918283"><ele>350.0</ele><time>2026-05-03T13:19:29.482Z</time></trkpt><trkpt lat="40.063925" lon="15.7919167"><ele>350.0</ele><time>2026-05-03T13:19:30.483Z</time></trkpt><trkpt lat="40.06403" lon="15.7920417"><ele>351.25</ele><time>2026-05-03T13:19:31.483Z</time></trkpt><trkpt lat="40.0641" lon="15.7921917"><ele>352.5</ele><time>2026-05-03T13:19:32.483Z</time></trkpt><trkpt lat="40.06413" lon="15.7923533"><ele>353.75</ele><time>2026-05-03T13:19:33.483Z</time></trkpt><trkpt lat="40.0641233" lon="15.792535"><ele>355.0</ele><time>2026-05-03T13:19:34.482Z</time></trkpt><trkpt lat="40.064085" lon="15.7927283"><ele>358.3333333333333</ele><time>2026-05-03T13:19:35.483Z</time></trkpt><trkpt lat="40.0640283" lon="15.7929333"><ele>361.6666666666667</ele><time>2026-05-03T13:19:36.482Z</time></trkpt><trkpt lat="40.063965" lon="15.79315"><ele>365.0</ele><time>2026-05-03T13:19:37.483Z</time></trkpt><trkpt lat="40.0639" lon="15.7933733"><ele>368.0</ele><time>2026-05-03T13:19:38.483Z</time></trkpt><trkpt lat="40.0638333" lon="15.7935967"><ele>371.0</ele><time>2026-05-03T13:19:39.482Z</time></trkpt><trkpt lat="40.0637583" lon="15.7938133"><ele>374.0</ele><time>2026-05-03T13:19:40.483Z</time></trkpt><trkpt lat="40.0636667" lon="15.7940267"><ele>374.0</ele><time>2026-05-03T13:19:41.483Z</time></trkpt><trkpt lat="40.0635767" lon="15.7942383"><ele>374.0</ele><time>2026-05-03T13:19:42.483Z</time></trkpt><trkpt lat="40.0634933" lon="15.7944367"><ele>374.0</ele><time>2026-05-03T13:19:43.483Z</time></trkpt><trkpt lat="40.0634283" lon="15.7946167"><ele>376.0</ele><time>2026-05-03T13:19:44.482Z</time></trkpt><trkpt lat="40.0633867" lon="15.794775"><ele>378.0</ele><time>2026-05-03T13:19:45.48Z</time></trkpt><trkpt lat="40.0634017" lon="15.7949283"><ele>380.0</ele><time>2026-05-03T13:19:46.481Z</time></trkpt><trkpt lat="40.063415" lon="15.7950867"><ele>382.0</ele><time>2026-05-03T13:19:47.481Z</time></trkpt><trkpt lat="40.063455" lon="15.7952267"><ele>382.6</ele><time>2026-05-03T13:19:48.482Z</time></trkpt><trkpt lat="40.0634983" lon="15.7953533"><ele>383.20000000000005</ele><time>2026-05-03T13:19:49.481Z</time></trkpt><trkpt lat="40.0635267" lon="15.7954567"><ele>383.8</ele><time>2026-05-03T13:19:50.481Z</time></trkpt><trkpt lat="40.0635233" lon="15.7956017"><ele>384.4</ele><time>2026-05-03T13:19:52.481Z</time></trkpt><trkpt lat="40.0635083" lon="15.7957"><ele>385.0</ele><time>2026-05-03T13:19:54.481Z</time></trkpt><trkpt lat="40.0635167" lon="15.7958183"><ele>385.0</ele><time>2026-05-03T13:19:57.482Z</time></trkpt><trkpt lat="40.0635" lon="15.7959167"><ele>385.0</ele><time>2026-05-03T13:19:59.48Z</time></trkpt><trkpt lat="40.0634533" lon="15.7960017"><ele>385.0</ele><time>2026-05-03T13:20:01.481Z</time></trkpt><trkpt lat="40.0634033" lon="15.7960717"><ele>385.0</ele><time>2026-05-03T13:20:03.481Z</time></trkpt><trkpt lat="40.063325" lon="15.7962467"><ele>385.0</ele><time>2026-05-03T13:20:05.481Z</time></trkpt><trkpt lat="40.0633067" lon="15.79638"><ele>385.0</ele><time>2026-05-03T13:20:06.481Z</time></trkpt><trkpt lat="40.0633033" lon="15.796525"><ele>385.0</ele><time>2026-05-03T13:20:07.481Z</time></trkpt><trkpt lat="40.0633133" lon="15.7966783"><ele>385.0</ele><time>2026-05-03T13:20:08.482Z</time></trkpt><trkpt lat="40.0633233" lon="15.7968233"><ele>385.0</ele><time>2026-05-03T13:20:09.483Z</time></trkpt><trkpt lat="40.0633317" lon="15.7969533"><ele>385.0</ele><time>2026-05-03T13:20:10.482Z</time></trkpt><trkpt lat="40.0633483" lon="15.7970717"><ele>385.00000000000006</ele><time>2026-05-03T13:20:11.482Z</time></trkpt><trkpt lat="40.0633767" lon="15.7971783"><ele>385.0</ele><time>2026-05-03T13:20:12.482Z</time></trkpt><trkpt lat="40.0634167" lon="15.7972717"><ele>385.0</ele><time>2026-05-03T13:20:13.482Z</time></trkpt><trkpt lat="40.0634567" lon="15.7973467"><ele>385.0</ele><time>2026-05-03T13:20:14.482Z</time></trkpt><trkpt lat="40.0635267" lon="15.7974767"><ele>385.00000000000006</ele><time>2026-05-03T13:20:16.482Z</time></trkpt><trkpt lat="40.0635633" lon="15.7975583"><ele>385.0</ele><time>2026-05-03T13:20:17.48Z</time></trkpt><trkpt lat="40.063595" lon="15.79767"><ele>384.25</ele><time>2026-05-03T13:20:18.482Z</time></trkpt><trkpt lat="40.063625" lon="15.7978067"><ele>383.5</ele><time>2026-05-03T13:20:19.482Z</time></trkpt><trkpt lat="40.0636567" lon="15.7979583"><ele>382.75</ele><time>2026-05-03T13:20:20.483Z</time></trkpt><trkpt lat="40.0636933" lon="15.7981233"><ele>382.0</ele><time>2026-05-03T13:20:21.482Z</time></trkpt><trkpt lat="40.0637367" lon="15.7983017"><ele>382.0</ele><time>2026-05-03T13:20:22.482Z</time></trkpt><trkpt lat="40.0637867" lon="15.79849"><ele>382.0</ele><time>2026-05-03T13:20:23.482Z</time></trkpt><trkpt lat="40.0638383" lon="15.7986883"><ele>382.0</ele><time>2026-05-03T13:20:24.482Z</time></trkpt><trkpt lat="40.06389" lon="15.798895"><ele>382.0</ele><time>2026-05-03T13:20:25.482Z</time></trkpt><trkpt lat="40.063945" lon="15.799105"><ele>382.0</ele><time>2026-05-03T13:20:26.482Z</time></trkpt><trkpt lat="40.063995" lon="15.7993133"><ele>382.0</ele><time>2026-05-03T13:20:27.481Z</time></trkpt><trkpt lat="40.064035" lon="15.7995267"><ele>382.0</ele><time>2026-05-03T13:20:28.482Z</time></trkpt><trkpt lat="40.06406" lon="15.7997383"><ele>382.0</ele><time>2026-05-03T13:20:29.482Z</time></trkpt><trkpt lat="40.0640683" lon="15.7999433"><ele>382.0</ele><time>2026-05-03T13:20:30.48Z</time></trkpt><trkpt lat="40.0640717" lon="15.8001433"><ele>383.3333333333333</ele><time>2026-05-03T13:20:31.481Z</time></trkpt><trkpt lat="40.0640883" lon="15.800345"><ele>384.66666666666663</ele><time>2026-05-03T13:20:32.481Z</time></trkpt><trkpt lat="40.0641233" lon="15.8005483"><ele>386.0</ele><time>2026-05-03T13:20:33.482Z</time></trkpt><trkpt lat="40.064165" lon="15.8007517"><ele>391.0</ele><time>2026-05-03T13:20:34.482Z</time></trkpt><trkpt lat="40.064205" lon="15.8009467"><ele>396.0</ele><time>2026-05-03T13:20:35.481Z</time></trkpt><trkpt lat="40.064235" lon="15.80114"><ele>401.0</ele><time>2026-05-03T13:20:36.482Z</time></trkpt><trkpt lat="40.06426" lon="15.801335"><ele>400.66666666666663</ele><time>2026-05-03T13:20:37.481Z</time></trkpt><trkpt lat="40.0642783" lon="15.8015367"><ele>400.33333333333337</ele><time>2026-05-03T13:20:38.482Z</time></trkpt><trkpt lat="40.0643017" lon="15.8017417"><ele>400.0</ele><time>2026-05-03T13:20:39.482Z</time></trkpt><trkpt lat="40.064335" lon="15.80195"><ele>400.0</ele><time>2026-05-03T13:20:40.482Z</time></trkpt><trkpt lat="40.0643867" lon="15.8021533"><ele>400.0</ele><time>2026-05-03T13:20:41.481Z</time></trkpt><trkpt lat="40.064455" lon="15.80234"><ele>400.0</ele><time>2026-05-03T13:20:42.483Z</time></trkpt><trkpt lat="40.0645417" lon="15.80251"><ele>400.0</ele><time>2026-05-03T13:20:43.482Z</time></trkpt><trkpt lat="40.0646483" lon="15.8026567"><ele>400.0</ele><time>2026-05-03T13:20:44.482Z</time></trkpt><trkpt lat="40.0647783" lon="15.8027733"><ele>400.0</ele><time>2026-05-03T13:20:45.482Z</time></trkpt><trkpt lat="40.0649283" lon="15.8028583"><ele>400.0</ele><time>2026-05-03T13:20:46.482Z</time></trkpt><trkpt lat="40.065095" lon="15.8029133"><ele>400.0</ele><time>2026-05-03T13:20:47.481Z</time></trkpt><trkpt lat="40.0652667" lon="15.8029433"><ele>400.0</ele><time>2026-05-03T13:20:48.482Z</time></trkpt><trkpt lat="40.0654383" lon="15.80297"><ele>400.0</ele><time>2026-05-03T13:20:49.482Z</time></trkpt><trkpt lat="40.0656" lon="15.803015"><ele>400.0</ele><time>2026-05-03T13:20:50.483Z</time></trkpt><trkpt lat="40.0657483" lon="15.8031083"><ele>400.0</ele><time>2026-05-03T13:20:51.481Z</time></trkpt><trkpt lat="40.065885" lon="15.80324"><ele>401.0</ele><time>2026-05-03T13:20:52.481Z</time></trkpt><trkpt lat="40.0660167" lon="15.8033767"><ele>402.0</ele><time>2026-05-03T13:20:53.482Z</time></trkpt><trkpt lat="40.06615" lon="15.8035017"><ele>403.0</ele><time>2026-05-03T13:20:54.482Z</time></trkpt><trkpt lat="40.0662933" lon="15.8035983"><ele>403.0</ele><time>2026-05-03T13:20:55.481Z</time></trkpt><trkpt lat="40.066445" lon="15.803645"><ele>403.0</ele><time>2026-05-03T13:20:56.481Z</time></trkpt><trkpt lat="40.0666017" lon="15.8036533"><ele>403.0</ele><time>2026-05-03T13:20:57.482Z</time></trkpt><trkpt lat="40.0667583" lon="15.803635"><ele>405.25</ele><time>2026-05-03T13:20:58.481Z</time></trkpt><trkpt lat="40.0669133" lon="15.803605"><ele>407.5</ele><time>2026-05-03T13:20:59.481Z</time></trkpt><trkpt lat="40.0670633" lon="15.8035767"><ele>409.75</ele><time>2026-05-03T13:21:00.482Z</time></trkpt><trkpt lat="40.0672033" lon="15.80358"><ele>412.0</ele><time>2026-05-03T13:21:01.481Z</time></trkpt><trkpt lat="40.0673383" lon="15.8036267"><ele>415.33333333333337</ele><time>2026-05-03T13:21:02.482Z</time></trkpt><trkpt lat="40.0674683" lon="15.8037067"><ele>418.66666666666663</ele><time>2026-05-03T13:21:03.482Z</time></trkpt><trkpt lat="40.0675933" lon="15.8038233"><ele>422.0</ele><time>2026-05-03T13:21:04.482Z</time></trkpt><trkpt lat="40.06771" lon="15.8039683"><ele>422.0</ele><time>2026-05-03T13:21:05.481Z</time></trkpt><trkpt lat="40.0678233" lon="15.80414"><ele>422.0</ele><time>2026-05-03T13:21:06.481Z</time></trkpt><trkpt lat="40.067935" lon="15.80432"><ele>422.0</ele><time>2026-05-03T13:21:07.482Z</time></trkpt><trkpt lat="40.0680433" lon="15.80449"><ele>422.5</ele><time>2026-05-03T13:21:08.482Z</time></trkpt><trkpt lat="40.0681433" lon="15.8046433"><ele>423.0</ele><time>2026-05-03T13:21:09.483Z</time></trkpt><trkpt lat="40.0682517" lon="15.8047817"><ele>423.5</ele><time>2026-05-03T13:21:10.482Z</time></trkpt><trkpt lat="40.06837" lon="15.80488"><ele>424.0</ele><time>2026-05-03T13:21:11.482Z</time></trkpt><trkpt lat="40.0685" lon="15.8049367"><ele>424.0</ele><time>2026-05-03T13:21:12.481Z</time></trkpt><trkpt lat="40.0686433" lon="15.8049583"><ele>424.0</ele><time>2026-05-03T13:21:13.481Z</time></trkpt><trkpt lat="40.0687983" lon="15.8049667"><ele>424.0</ele><time>2026-05-03T13:21:14.482Z</time></trkpt><trkpt lat="40.06896" lon="15.8049683"><ele>427.33333333333337</ele><time>2026-05-03T13:21:15.482Z</time></trkpt><trkpt lat="40.069125" lon="15.80496"><ele>430.66666666666663</ele><time>2026-05-03T13:21:16.481Z</time></trkpt><trkpt lat="40.0692917" lon="15.8049383"><ele>434.0</ele><time>2026-05-03T13:21:17.481Z</time></trkpt><trkpt lat="40.06946" lon="15.8048867"><ele>434.0</ele><time>2026-05-03T13:21:18.481Z</time></trkpt><trkpt lat="40.06962" lon="15.8047833"><ele>434.0</ele><time>2026-05-03T13:21:19.482Z</time></trkpt><trkpt lat="40.06976" lon="15.8046783"><ele>434.0</ele><time>2026-05-03T13:21:20.481Z</time></trkpt><trkpt lat="40.069895" lon="15.8046117"><ele>437.25</ele><time>2026-05-03T13:21:21.481Z</time></trkpt><trkpt lat="40.0700417" lon="15.8046133"><ele>440.5</ele><time>2026-05-03T13:21:22.481Z</time></trkpt><trkpt lat="40.0701717" lon="15.804675"><ele>443.75</ele><time>2026-05-03T13:21:23.48Z</time></trkpt><trkpt lat="40.0702683" lon="15.8047833"><ele>447.0</ele><time>2026-05-03T13:21:24.481Z</time></trkpt><trkpt lat="40.070335" lon="15.8049483"><ele>447.0</ele><time>2026-05-03T13:21:25.481Z</time></trkpt><trkpt lat="40.0703967" lon="15.805135"><ele>447.0</ele><time>2026-05-03T13:21:26.483Z</time></trkpt><trkpt lat="40.07046" lon="15.8053417"><ele>447.0</ele><time>2026-05-03T13:21:27.482Z</time></trkpt><trkpt lat="40.0705333" lon="15.8055483"><ele>446.66666666666663</ele><time>2026-05-03T13:21:28.482Z</time></trkpt><trkpt lat="40.070605" lon="15.8057633"><ele>446.3333333333333</ele><time>2026-05-03T13:21:29.482Z</time></trkpt><trkpt lat="40.0706667" lon="15.8059767"><ele>446.0</ele><time>2026-05-03T13:21:30.482Z</time></trkpt><trkpt lat="40.07071" lon="15.80619"><ele>446.75</ele><time>2026-05-03T13:21:31.481Z</time></trkpt><trkpt lat="40.0707417" lon="15.8063817"><ele>447.5</ele><time>2026-05-03T13:21:32.483Z</time></trkpt><trkpt lat="40.070785" lon="15.8065517"><ele>448.25</ele><time>2026-05-03T13:21:33.481Z</time></trkpt><trkpt lat="40.0708567" lon="15.8066983"><ele>449.0</ele><time>2026-05-03T13:21:34.482Z</time></trkpt><trkpt lat="40.0709567" lon="15.806815"><ele>450.0</ele><time>2026-05-03T13:21:35.482Z</time></trkpt><trkpt lat="40.0710817" lon="15.806895"><ele>451.0</ele><time>2026-05-03T13:21:36.481Z</time></trkpt><trkpt lat="40.07122" lon="15.8069517"><ele>452.0</ele><time>2026-05-03T13:21:37.481Z</time></trkpt><trkpt lat="40.0713667" lon="15.806945"><ele>453.0</ele><time>2026-05-03T13:21:38.482Z</time></trkpt><trkpt lat="40.07151" lon="15.8068983"><ele>457.5</ele><time>2026-05-03T13:21:39.482Z</time></trkpt><trkpt lat="40.071635" lon="15.8067883"><ele>462.0</ele><time>2026-05-03T13:21:40.482Z</time></trkpt><trkpt lat="40.0717467" lon="15.8066633"><ele>466.5</ele><time>2026-05-03T13:21:41.482Z</time></trkpt><trkpt lat="40.0718467" lon="15.8065483"><ele>471.0</ele><time>2026-05-03T13:21:42.481Z</time></trkpt><trkpt lat="40.071935" lon="15.8064583"><ele>471.0</ele><time>2026-05-03T13:21:43.482Z</time></trkpt><trkpt lat="40.0720067" lon="15.8064033"><ele>471.0</ele><time>2026-05-03T13:21:44.483Z</time></trkpt><trkpt lat="40.0721217" lon="15.8063667"><ele>471.0</ele><time>2026-05-03T13:21:46.482Z</time></trkpt><trkpt lat="40.0721883" lon="15.8063717"><ele>471.0</ele><time>2026-05-03T13:21:47.482Z</time></trkpt><trkpt lat="40.0722717" lon="15.80639"><ele>471.0</ele><time>2026-05-03T13:21:48.482Z</time></trkpt><trkpt lat="40.0723717" lon="15.8064133"><ele>473.25</ele><time>2026-05-03T13:21:49.481Z</time></trkpt><trkpt lat="40.0724767" lon="15.8063733"><ele>475.5</ele><time>2026-05-03T13:21:50.482Z</time></trkpt><trkpt lat="40.0725933" lon="15.806345"><ele>477.75</ele><time>2026-05-03T13:21:51.482Z</time></trkpt><trkpt lat="40.07274" lon="15.806385"><ele>480.0</ele><time>2026-05-03T13:21:52.482Z</time></trkpt><trkpt lat="40.0728883" lon="15.806415"><ele>480.0</ele><time>2026-05-03T13:21:53.481Z</time></trkpt><trkpt lat="40.0730367" lon="15.8064733"><ele>480.0</ele><time>2026-05-03T13:21:54.482Z</time></trkpt><trkpt lat="40.0731633" lon="15.8065383"><ele>480.0</ele><time>2026-05-03T13:21:55.481Z</time></trkpt><trkpt lat="40.0732933" lon="15.8066183"><ele>480.0</ele><time>2026-05-03T13:21:56.483Z</time></trkpt><trkpt lat="40.0734233" lon="15.8066967"><ele>483.0</ele><time>2026-05-03T13:21:57.482Z</time></trkpt><trkpt lat="40.0735633" lon="15.8067717"><ele>486.0</ele><time>2026-05-03T13:21:58.482Z</time></trkpt><trkpt lat="40.0737" lon="15.806845"><ele>489.0</ele><time>2026-05-03T13:21:59.482Z</time></trkpt><trkpt lat="40.073835" lon="15.8069033"><ele>492.0</ele><time>2026-05-03T13:22:00.482Z</time></trkpt><trkpt lat="40.0739783" lon="15.8069433"><ele>495.75</ele><time>2026-05-03T13:22:01.482Z</time></trkpt><trkpt lat="40.07412" lon="15.8069433"><ele>499.5</ele><time>2026-05-03T13:22:02.482Z</time></trkpt><trkpt lat="40.0742717" lon="15.806925"><ele>503.25</ele><time>2026-05-03T13:22:03.482Z</time></trkpt><trkpt lat="40.0744233" lon="15.806905"><ele>507.0</ele><time>2026-05-03T13:22:04.481Z</time></trkpt><trkpt lat="40.07457" lon="15.8069"><ele>507.0</ele><time>2026-05-03T13:22:05.482Z</time></trkpt><trkpt lat="40.0747033" lon="15.8069217"><ele>507.0</ele><time>2026-05-03T13:22:06.482Z</time></trkpt><trkpt lat="40.074825" lon="15.8069617"><ele>507.0</ele><time>2026-05-03T13:22:07.482Z</time></trkpt><trkpt lat="40.0749283" lon="15.8070317"><ele>507.0</ele><time>2026-05-03T13:22:08.482Z</time></trkpt><trkpt lat="40.0750167" lon="15.8071367"><ele>507.25</ele><time>2026-05-03T13:22:09.481Z</time></trkpt><trkpt lat="40.0750933" lon="15.8072683"><ele>507.5</ele><time>2026-05-03T13:22:10.481Z</time></trkpt><trkpt lat="40.07517" lon="15.8074217"><ele>507.75</ele><time>2026-05-03T13:22:11.482Z</time></trkpt><trkpt lat="40.0752533" lon="15.8075967"><ele>508.0</ele><time>2026-05-03T13:22:12.482Z</time></trkpt><trkpt lat="40.0753467" lon="15.8077883"><ele>510.6666666666667</ele><time>2026-05-03T13:22:13.482Z</time></trkpt><trkpt lat="40.07545" lon="15.807995"><ele>513.3333333333334</ele><time>2026-05-03T13:22:14.483Z</time></trkpt><trkpt lat="40.075555" lon="15.8082133"><ele>516.0</ele><time>2026-05-03T13:22:15.482Z</time></trkpt><trkpt lat="40.07566" lon="15.80842"><ele>518.6666666666666</ele><time>2026-05-03T13:22:16.48Z</time></trkpt><trkpt lat="40.0757517" lon="15.8086017"><ele>521.3333333333333</ele><time>2026-05-03T13:22:17.482Z</time></trkpt><trkpt lat="40.0758317" lon="15.808755"><ele>524.0</ele><time>2026-05-03T13:22:18.482Z</time></trkpt><trkpt lat="40.0759233" lon="15.8089933"><ele>524.0</ele><time>2026-05-03T13:22:20.483Z</time></trkpt><trkpt lat="40.07592" lon="15.8090833"><ele>524.0</ele><time>2026-05-03T13:22:21.481Z</time></trkpt><trkpt lat="40.0758617" lon="15.809115"><ele>524.0</ele><time>2026-05-03T13:22:22.481Z</time></trkpt><trkpt lat="40.075785" lon="15.8091233"><ele>524.0</ele><time>2026-05-03T13:22:23.482Z</time></trkpt><trkpt lat="40.0756867" lon="15.809125"><ele>524.0</ele><time>2026-05-03T13:22:24.481Z</time></trkpt><trkpt lat="40.07557" lon="15.809155"><ele>524.0</ele><time>2026-05-03T13:22:25.482Z</time></trkpt><trkpt lat="40.0754517" lon="15.80922"><ele>524.0</ele><time>2026-05-03T13:22:26.482Z</time></trkpt><trkpt lat="40.0753433" lon="15.8092983"><ele>524.0</ele><time>2026-05-03T13:22:27.482Z</time></trkpt><trkpt lat="40.0752583" lon="15.80938"><ele>524.0</ele><time>2026-05-03T13:22:28.482Z</time></trkpt><trkpt lat="40.075205" lon="15.8094717"><ele>524.0</ele><time>2026-05-03T13:22:29.482Z</time></trkpt><trkpt lat="40.0751883" lon="15.8095667"><ele>524.0</ele><time>2026-05-03T13:22:30.482Z</time></trkpt><trkpt lat="40.0752267" lon="15.8096467"><ele>524.5</ele><time>2026-05-03T13:22:31.481Z</time></trkpt><trkpt lat="40.0753017" lon="15.8097167"><ele>525.0</ele><time>2026-05-03T13:22:32.483Z</time></trkpt><trkpt lat="40.0754" lon="15.80977"><ele>525.5</ele><time>2026-05-03T13:22:33.482Z</time></trkpt><trkpt lat="40.0755183" lon="15.8098217"><ele>526.0</ele><time>2026-05-03T13:22:34.482Z</time></trkpt><trkpt lat="40.07565" lon="15.8098667"><ele>529.75</ele><time>2026-05-03T13:22:35.481Z</time></trkpt><trkpt lat="40.07579" lon="15.80991"><ele>533.5</ele><time>2026-05-03T13:22:36.482Z</time></trkpt><trkpt lat="40.075935" lon="15.80995"><ele>537.25</ele><time>2026-05-03T13:22:37.481Z</time></trkpt><trkpt lat="40.0760817" lon="15.80997"><ele>541.0</ele><time>2026-05-03T13:22:38.481Z</time></trkpt><trkpt lat="40.076225" lon="15.809975"><ele>541.0</ele><time>2026-05-03T13:22:39.481Z</time></trkpt><trkpt lat="40.0763633" lon="15.8099783"><ele>541.0</ele><time>2026-05-03T13:22:40.482Z</time></trkpt><trkpt lat="40.0764933" lon="15.8099783"><ele>541.0</ele><time>2026-05-03T13:22:41.481Z</time></trkpt><trkpt lat="40.07662" lon="15.809995"><ele>541.0</ele><time>2026-05-03T13:22:42.481Z</time></trkpt><trkpt lat="40.07674" lon="15.8100033"><ele>542.75</ele><time>2026-05-03T13:22:43.481Z</time></trkpt><trkpt lat="40.0768617" lon="15.81006"><ele>544.5</ele><time>2026-05-03T13:22:44.483Z</time></trkpt><trkpt lat="40.0769667" lon="15.8101267"><ele>546.25</ele><time>2026-05-03T13:22:45.481Z</time></trkpt><trkpt lat="40.0770433" lon="15.8102283"><ele>548.0</ele><time>2026-05-03T13:22:46.482Z</time></trkpt><trkpt lat="40.0771017" lon="15.810355"><ele>549.0</ele><time>2026-05-03T13:22:47.483Z</time></trkpt><trkpt lat="40.07716" lon="15.81047"><ele>550.0</ele><time>2026-05-03T13:22:48.483Z</time></trkpt><trkpt lat="40.0772117" lon="15.810595"><ele>551.0</ele><time>2026-05-03T13:22:49.483Z</time></trkpt><trkpt lat="40.0772383" lon="15.81072"><ele>552.0</ele><time>2026-05-03T13:22:50.484Z</time></trkpt><trkpt lat="40.0772333" lon="15.810855"><ele>553.0</ele><time>2026-05-03T13:22:51.482Z</time></trkpt><trkpt lat="40.077215" lon="15.8109767"><ele>554.0</ele><time>2026-05-03T13:22:52.482Z</time></trkpt><trkpt lat="40.0772083" lon="15.81108"><ele>555.0</ele><time>2026-05-03T13:22:53.482Z</time></trkpt><trkpt lat="40.0772183" lon="15.8111683"><ele>556.0</ele><time>2026-05-03T13:22:54.481Z</time></trkpt><trkpt lat="40.0773017" lon="15.811245"><ele>557.0</ele><time>2026-05-03T13:22:56.481Z</time></trkpt><trkpt lat="40.0773667" lon="15.8111883"><ele>558.0</ele><time>2026-05-03T13:22:57.481Z</time></trkpt><trkpt lat="40.0774333" lon="15.81112"><ele>559.0</ele><time>2026-05-03T13:22:58.481Z</time></trkpt><trkpt lat="40.0775067" lon="15.8110217"><ele>559.8</ele><time>2026-05-03T13:22:59.482Z</time></trkpt><trkpt lat="40.077585" lon="15.810905"><ele>560.5999999999999</ele><time>2026-05-03T13:23:00.481Z</time></trkpt><trkpt lat="40.077665" lon="15.8107933"><ele>561.4</ele><time>2026-05-03T13:23:01.482Z</time></trkpt><trkpt lat="40.077735" lon="15.8107"><ele>562.1999999999999</ele><time>2026-05-03T13:23:02.483Z</time></trkpt><trkpt lat="40.0778067" lon="15.8106333"><ele>563.0</ele><time>2026-05-03T13:23:03.482Z</time></trkpt><trkpt lat="40.07789" lon="15.8106417"><ele>563.0</ele><time>2026-05-03T13:23:05.482Z</time></trkpt><trkpt lat="40.0778467" lon="15.8107583"><ele>563.0</ele><time>2026-05-03T13:23:07.481Z</time></trkpt><trkpt lat="40.0777917" lon="15.8108267"><ele>563.0</ele><time>2026-05-03T13:23:08.482Z</time></trkpt><trkpt lat="40.0777333" lon="15.810925"><ele>563.0</ele><time>2026-05-03T13:23:09.482Z</time></trkpt><trkpt lat="40.0776767" lon="15.811065"><ele>563.0</ele><time>2026-05-03T13:23:10.483Z</time></trkpt><trkpt lat="40.0776233" lon="15.8112317"><ele>566.25</ele><time>2026-05-03T13:23:11.481Z</time></trkpt><trkpt lat="40.0775667" lon="15.81141"><ele>569.5</ele><time>2026-05-03T13:23:12.482Z</time></trkpt><trkpt lat="40.077515" lon="15.8115883"><ele>572.75</ele><time>2026-05-03T13:23:13.481Z</time></trkpt><trkpt lat="40.07747" lon="15.8117467"><ele>576.0</ele><time>2026-05-03T13:23:14.483Z</time></trkpt><trkpt lat="40.0774317" lon="15.8119067"><ele>576.0</ele><time>2026-05-03T13:23:15.481Z</time></trkpt><trkpt lat="40.07742" lon="15.8120633"><ele>576.0</ele><time>2026-05-03T13:23:16.482Z</time></trkpt><trkpt lat="40.0774133" lon="15.8122083"><ele>576.0</ele><time>2026-05-03T13:23:17.483Z</time></trkpt><trkpt lat="40.0774067" lon="15.8123333"><ele>576.0</ele><time>2026-05-03T13:23:18.481Z</time></trkpt><trkpt lat="40.0774083" lon="15.8124333"><ele>576.0</ele><time>2026-05-03T13:23:19.483Z</time></trkpt><trkpt lat="40.0774817" lon="15.8125217"><ele>579.5</ele><time>2026-05-03T13:23:21.482Z</time></trkpt><trkpt lat="40.0775883" lon="15.81243"><ele>583.0</ele><time>2026-05-03T13:23:23.483Z</time></trkpt><trkpt lat="40.0776533" lon="15.8123533"><ele>586.5</ele><time>2026-05-03T13:23:24.482Z</time></trkpt><trkpt lat="40.0777" lon="15.8122267"><ele>590.0</ele><time>2026-05-03T13:23:25.482Z</time></trkpt><trkpt lat="40.0777317" lon="15.8120633"><ele>590.0</ele><time>2026-05-03T13:23:26.483Z</time></trkpt><trkpt lat="40.0777533" lon="15.8118933"><ele>590.0</ele><time>2026-05-03T13:23:27.481Z</time></trkpt><trkpt lat="40.0777833" lon="15.8117217"><ele>590.0</ele><time>2026-05-03T13:23:28.482Z</time></trkpt><trkpt lat="40.0778267" lon="15.8115783"><ele>590.0</ele><time>2026-05-03T13:23:29.481Z</time></trkpt><trkpt lat="40.0778867" lon="15.8114733"><ele>591.8</ele><time>2026-05-03T13:23:30.482Z</time></trkpt><trkpt lat="40.0779483" lon="15.8114"><ele>593.6</ele><time>2026-05-03T13:23:31.482Z</time></trkpt><trkpt lat="40.078035" lon="15.81139"><ele>595.4</ele><time>2026-05-03T13:23:32.483Z</time></trkpt><trkpt lat="40.0781433" lon="15.811405"><ele>597.2</ele><time>2026-05-03T13:23:33.481Z</time></trkpt><trkpt lat="40.0782617" lon="15.8114267"><ele>599.0</ele><time>2026-05-03T13:23:34.482Z</time></trkpt><trkpt lat="40.0783817" lon="15.8114633"><ele>599.0</ele><time>2026-05-03T13:23:35.48Z</time></trkpt><trkpt lat="40.0784817" lon="15.81154"><ele>599.0</ele><time>2026-05-03T13:23:36.482Z</time></trkpt><trkpt lat="40.0785633" lon="15.81165"><ele>599.0</ele><time>2026-05-03T13:23:37.481Z</time></trkpt><trkpt lat="40.0786483" lon="15.81177"><ele>599.0</ele><time>2026-05-03T13:23:38.481Z</time></trkpt><trkpt lat="40.0787383" lon="15.8118633"><ele>601.1666666666666</ele><time>2026-05-03T13:23:39.48Z</time></trkpt><trkpt lat="40.0788217" lon="15.811925"><ele>603.3333333333333</ele><time>2026-05-03T13:23:40.48Z</time></trkpt><trkpt lat="40.0788917" lon="15.8119767"><ele>605.5</ele><time>2026-05-03T13:23:41.481Z</time></trkpt><trkpt lat="40.0789433" lon="15.8120283"><ele>607.6666666666666</ele><time>2026-05-03T13:23:42.48Z</time></trkpt><trkpt lat="40.0789267" lon="15.81214"><ele>609.8333333333334</ele><time>2026-05-03T13:23:44.482Z</time></trkpt><trkpt lat="40.0788117" lon="15.81218"><ele>612.0</ele><time>2026-05-03T13:23:46.481Z</time></trkpt><trkpt lat="40.0787067" lon="15.8121567"><ele>612.0</ele><time>2026-05-03T13:23:47.481Z</time></trkpt><trkpt lat="40.0785817" lon="15.8121183"><ele>612.0</ele><time>2026-05-03T13:23:48.481Z</time></trkpt><trkpt lat="40.0784567" lon="15.8121233"><ele>612.0</ele><time>2026-05-03T13:23:49.482Z</time></trkpt><trkpt lat="40.0783483" lon="15.8121767"><ele>612.0</ele><time>2026-05-03T13:23:50.482Z</time></trkpt><trkpt lat="40.078255" lon="15.81227"><ele>610.25</ele><time>2026-05-03T13:23:51.482Z</time></trkpt><trkpt lat="40.07818" lon="15.8123983"><ele>608.5</ele><time>2026-05-03T13:23:52.482Z</time></trkpt><trkpt lat="40.0781033" lon="15.8125483"><ele>606.75</ele><time>2026-05-03T13:23:53.483Z</time></trkpt><trkpt lat="40.0780183" lon="15.8127"><ele>605.0</ele><time>2026-05-03T13:23:54.482Z</time></trkpt><trkpt lat="40.0779333" lon="15.8128433"><ele>605.0</ele><time>2026-05-03T13:23:55.481Z</time></trkpt><trkpt lat="40.0778767" lon="15.8129667"><ele>605.0</ele><time>2026-05-03T13:23:56.48Z</time></trkpt><trkpt lat="40.0778567" lon="15.8130733"><ele>605.0</ele><time>2026-05-03T13:23:57.48Z</time></trkpt><trkpt lat="40.0778633" lon="15.81317"><ele>605.0</ele><time>2026-05-03T13:23:58.48Z</time></trkpt><trkpt lat="40.077905" lon="15.8132533"><ele>605.0</ele><time>2026-05-03T13:23:59.481Z</time></trkpt><trkpt lat="40.0779933" lon="15.813355"><ele>605.0</ele><time>2026-05-03T13:24:00.482Z</time></trkpt><trkpt lat="40.0780883" lon="15.813455"><ele>605.0</ele><time>2026-05-03T13:24:01.481Z</time></trkpt><trkpt lat="40.0782" lon="15.81356"><ele>605.0</ele><time>2026-05-03T13:24:02.482Z</time></trkpt><trkpt lat="40.0783033" lon="15.8136683"><ele>605.0</ele><time>2026-05-03T13:24:03.48Z</time></trkpt><trkpt lat="40.0783683" lon="15.8137883"><ele>609.75</ele><time>2026-05-03T13:24:04.481Z</time></trkpt><trkpt lat="40.0783933" lon="15.81391"><ele>614.5</ele><time>2026-05-03T13:24:05.482Z</time></trkpt><trkpt lat="40.0783833" lon="15.8140483"><ele>619.25</ele><time>2026-05-03T13:24:06.481Z</time></trkpt><trkpt lat="40.0783633" lon="15.8142183"><ele>624.0</ele><time>2026-05-03T13:24:07.481Z</time></trkpt><trkpt lat="40.07835" lon="15.8144067"><ele>625.6666666666666</ele><time>2026-05-03T13:24:08.482Z</time></trkpt><trkpt lat="40.07833" lon="15.8145967"><ele>627.3333333333333</ele><time>2026-05-03T13:24:09.48Z</time></trkpt><trkpt lat="40.078285" lon="15.8147817"><ele>629.0</ele><time>2026-05-03T13:24:10.48Z</time></trkpt><trkpt lat="40.0782133" lon="15.8149667"><ele>632.0</ele><time>2026-05-03T13:24:11.481Z</time></trkpt><trkpt lat="40.0781283" lon="15.8151567"><ele>635.0</ele><time>2026-05-03T13:24:12.481Z</time></trkpt><trkpt lat="40.0780467" lon="15.8153333"><ele>638.0</ele><time>2026-05-03T13:24:13.48Z</time></trkpt><trkpt lat="40.0779767" lon="15.815465"><ele>641.0</ele><time>2026-05-03T13:24:14.482Z</time></trkpt><trkpt lat="40.0779383" lon="15.8155783"><ele>641.0</ele><time>2026-05-03T13:24:15.481Z</time></trkpt><trkpt lat="40.07793" lon="15.8156867"><ele>641.0</ele><time>2026-05-03T13:24:16.481Z</time></trkpt><trkpt lat="40.0779633" lon="15.8157667"><ele>641.0</ele><time>2026-05-03T13:24:17.482Z</time></trkpt><trkpt lat="40.0780283" lon="15.8157967"><ele>641.0</ele><time>2026-05-03T13:24:18.481Z</time></trkpt><trkpt lat="40.07811" lon="15.8157883"><ele>641.0</ele><time>2026-05-03T13:24:19.482Z</time></trkpt><trkpt lat="40.0782233" lon="15.8157"><ele>641.0</ele><time>2026-05-03T13:24:20.482Z</time></trkpt><trkpt lat="40.0783433" lon="15.8155967"><ele>640.6666666666666</ele><time>2026-05-03T13:24:21.481Z</time></trkpt><trkpt lat="40.07848" lon="15.8154983"><ele>640.3333333333334</ele><time>2026-05-03T13:24:22.482Z</time></trkpt><trkpt lat="40.0786433" lon="15.8154017"><ele>640.0</ele><time>2026-05-03T13:24:23.483Z</time></trkpt><trkpt lat="40.0788283" lon="15.81531"><ele>640.0</ele><time>2026-05-03T13:24:24.48Z</time></trkpt><trkpt lat="40.079015" lon="15.8152217"><ele>640.0</ele><time>2026-05-03T13:24:25.481Z</time></trkpt><trkpt lat="40.079205" lon="15.81514"><ele>640.0</ele><time>2026-05-03T13:24:26.481Z</time></trkpt><trkpt lat="40.0793817" lon="15.815055"><ele>639.75</ele><time>2026-05-03T13:24:27.482Z</time></trkpt><trkpt lat="40.0795383" lon="15.814965"><ele>639.5</ele><time>2026-05-03T13:24:28.48Z</time></trkpt><trkpt lat="40.0796633" lon="15.814865"><ele>639.25</ele><time>2026-05-03T13:24:29.482Z</time></trkpt><trkpt lat="40.079755" lon="15.8147483"><ele>639.0</ele><time>2026-05-03T13:24:30.481Z</time></trkpt><trkpt lat="40.079815" lon="15.8146117"><ele>639.0</ele><time>2026-05-03T13:24:31.48Z</time></trkpt><trkpt lat="40.07987" lon="15.814475"><ele>639.0</ele><time>2026-05-03T13:24:32.482Z</time></trkpt><trkpt lat="40.0799467" lon="15.8143683"><ele>639.0</ele><time>2026-05-03T13:24:33.48Z</time></trkpt><trkpt lat="40.0800467" lon="15.8142967"><ele>639.0</ele><time>2026-05-03T13:24:34.481Z</time></trkpt><trkpt lat="40.0801633" lon="15.81426"><ele>641.75</ele><time>2026-05-03T13:24:35.481Z</time></trkpt><trkpt lat="40.0802967" lon="15.814255"><ele>644.5</ele><time>2026-05-03T13:24:36.482Z</time></trkpt><trkpt lat="40.0804433" lon="15.8142633"><ele>647.25</ele><time>2026-05-03T13:24:37.48Z</time></trkpt><trkpt lat="40.0805833" lon="15.8142717"><ele>650.0</ele><time>2026-05-03T13:24:38.481Z</time></trkpt><trkpt lat="40.0807033" lon="15.8142867"><ele>653.6</ele><time>2026-05-03T13:24:39.482Z</time></trkpt><trkpt lat="40.0808" lon="15.8143283"><ele>657.2</ele><time>2026-05-03T13:24:40.481Z</time></trkpt><trkpt lat="40.0808717" lon="15.8144167"><ele>660.8</ele><time>2026-05-03T13:24:41.481Z</time></trkpt><trkpt lat="40.0809167" lon="15.8145467"><ele>664.4</ele><time>2026-05-03T13:24:42.481Z</time></trkpt><trkpt lat="40.0809217" lon="15.814705"><ele>668.0</ele><time>2026-05-03T13:24:43.482Z</time></trkpt><trkpt lat="40.0809067" lon="15.8148883"><ele>668.0</ele><time>2026-05-03T13:24:44.482Z</time></trkpt><trkpt lat="40.080885" lon="15.8150767"><ele>668.0</ele><time>2026-05-03T13:24:45.481Z</time></trkpt><trkpt lat="40.08087" lon="15.8152483"><ele>668.0</ele><time>2026-05-03T13:24:46.481Z</time></trkpt><trkpt lat="40.0808717" lon="15.815395"><ele>668.0</ele><time>2026-05-03T13:24:47.481Z</time></trkpt><trkpt lat="40.080905" lon="15.815515"><ele>668.5999999999999</ele><time>2026-05-03T13:24:48.483Z</time></trkpt><trkpt lat="40.0809667" lon="15.8156067"><ele>669.1999999999999</ele><time>2026-05-03T13:24:49.483Z</time></trkpt><trkpt lat="40.081055" lon="15.815665"><ele>669.8</ele><time>2026-05-03T13:24:50.483Z</time></trkpt><trkpt lat="40.0811667" lon="15.8157067"><ele>670.4</ele><time>2026-05-03T13:24:51.483Z</time></trkpt><trkpt lat="40.0812983" lon="15.8157417"><ele>671.0</ele><time>2026-05-03T13:24:52.483Z</time></trkpt><trkpt lat="40.08144" lon="15.8157867"><ele>671.0</ele><time>2026-05-03T13:24:53.483Z</time></trkpt><trkpt lat="40.0815917" lon="15.8158417"><ele>671.0</ele><time>2026-05-03T13:24:54.482Z</time></trkpt><trkpt lat="40.081745" lon="15.8158883"><ele>671.0</ele><time>2026-05-03T13:24:55.48Z</time></trkpt><trkpt lat="40.0818883" lon="15.815905"><ele>673.5</ele><time>2026-05-03T13:24:56.481Z</time></trkpt><trkpt lat="40.0820183" lon="15.8159117"><ele>676.0</ele><time>2026-05-03T13:24:57.482Z</time></trkpt><trkpt lat="40.0821367" lon="15.8159283"><ele>678.5</ele><time>2026-05-03T13:24:58.481Z</time></trkpt><trkpt lat="40.0822517" lon="15.8159867"><ele>681.0</ele><time>2026-05-03T13:24:59.48Z</time></trkpt><trkpt lat="40.0823567" lon="15.8160817"><ele>685.25</ele><time>2026-05-03T13:25:00.481Z</time></trkpt><trkpt lat="40.08246" lon="15.81621"><ele>689.5</ele><time>2026-05-03T13:25:01.48Z</time></trkpt><trkpt lat="40.08257" lon="15.8163517"><ele>693.75</ele><time>2026-05-03T13:25:02.482Z</time></trkpt><trkpt lat="40.082675" lon="15.81649"><ele>698.0</ele><time>2026-05-03T13:25:03.481Z</time></trkpt><trkpt lat="40.0827667" lon="15.8166067"><ele>698.0</ele><time>2026-05-03T13:25:04.481Z</time></trkpt><trkpt lat="40.0828467" lon="15.81668"><ele>698.0</ele><time>2026-05-03T13:25:05.481Z</time></trkpt><trkpt lat="40.0829267" lon="15.8166983"><ele>698.0</ele><time>2026-05-03T13:25:06.482Z</time></trkpt><trkpt lat="40.08301" lon="15.8166767"><ele>698.0</ele><time>2026-05-03T13:25:07.48Z</time></trkpt><trkpt lat="40.0831033" lon="15.8166217"><ele>698.0</ele><time>2026-05-03T13:25:08.481Z</time></trkpt><trkpt lat="40.0831967" lon="15.8165983"><ele>700.4</ele><time>2026-05-03T13:25:09.481Z</time></trkpt><trkpt lat="40.0832883" lon="15.816615"><ele>702.8</ele><time>2026-05-03T13:25:10.482Z</time></trkpt><trkpt lat="40.0833567" lon="15.8166833"><ele>705.2</ele><time>2026-05-03T13:25:11.482Z</time></trkpt><trkpt lat="40.083385" lon="15.8168067"><ele>707.6</ele><time>2026-05-03T13:25:12.48Z</time></trkpt><trkpt lat="40.0833967" lon="15.8169633"><ele>710.0</ele><time>2026-05-03T13:25:13.481Z</time></trkpt><trkpt lat="40.083405" lon="15.817115"><ele>710.8</ele><time>2026-05-03T13:25:14.481Z</time></trkpt><trkpt lat="40.0834267" lon="15.8172333"><ele>711.6</ele><time>2026-05-03T13:25:15.48Z</time></trkpt><trkpt lat="40.0834633" lon="15.817315"><ele>712.4000000000001</ele><time>2026-05-03T13:25:16.481Z</time></trkpt><trkpt lat="40.083595" lon="15.817315"><ele>713.2</ele><time>2026-05-03T13:25:18.483Z</time></trkpt><trkpt lat="40.0836817" lon="15.8172767"><ele>714.0</ele><time>2026-05-03T13:25:19.482Z</time></trkpt><trkpt lat="40.0837867" lon="15.8172583"><ele>714.0</ele><time>2026-05-03T13:25:20.482Z</time></trkpt><trkpt lat="40.0839033" lon="15.8172733"><ele>714.0</ele><time>2026-05-03T13:25:21.482Z</time></trkpt><trkpt lat="40.0840217" lon="15.8173183"><ele>714.0</ele><time>2026-05-03T13:25:22.482Z</time></trkpt><trkpt lat="40.0841367" lon="15.8173883"><ele>714.0</ele><time>2026-05-03T13:25:23.483Z</time></trkpt><trkpt lat="40.0842483" lon="15.8174683"><ele>717.25</ele><time>2026-05-03T13:25:24.482Z</time></trkpt><trkpt lat="40.0843583" lon="15.8175517"><ele>720.5</ele><time>2026-05-03T13:25:25.482Z</time></trkpt><trkpt lat="40.0844567" lon="15.817655"><ele>723.75</ele><time>2026-05-03T13:25:26.481Z</time></trkpt><trkpt lat="40.0845383" lon="15.8177717"><ele>727.0</ele><time>2026-05-03T13:25:27.482Z</time></trkpt><trkpt lat="40.084605" lon="15.8179033"><ele>727.0</ele><time>2026-05-03T13:25:28.482Z</time></trkpt><trkpt lat="40.0846683" lon="15.818025"><ele>727.0</ele><time>2026-05-03T13:25:29.482Z</time></trkpt><trkpt lat="40.0847433" lon="15.818125"><ele>727.0</ele><time>2026-05-03T13:25:30.48Z</time></trkpt><trkpt lat="40.0848383" lon="15.8181983"><ele>727.0</ele><time>2026-05-03T13:25:31.48Z</time></trkpt><trkpt lat="40.0849567" lon="15.8182483"><ele>729.25</ele><time>2026-05-03T13:25:32.483Z</time></trkpt><trkpt lat="40.0850883" lon="15.818285"><ele>731.5</ele><time>2026-05-03T13:25:33.481Z</time></trkpt><trkpt lat="40.0852333" lon="15.8183267"><ele>733.75</ele><time>2026-05-03T13:25:34.482Z</time></trkpt><trkpt lat="40.085385" lon="15.8183783"><ele>736.0</ele><time>2026-05-03T13:25:35.481Z</time></trkpt><trkpt lat="40.08553" lon="15.8184367"><ele>738.0</ele><time>2026-05-03T13:25:36.481Z</time></trkpt><trkpt lat="40.085665" lon="15.8185067"><ele>740.0</ele><time>2026-05-03T13:25:37.482Z</time></trkpt><trkpt lat="40.08579" lon="15.8185967"><ele>742.0</ele><time>2026-05-03T13:25:38.482Z</time></trkpt><trkpt lat="40.0858983" lon="15.8187133"><ele>744.0</ele><time>2026-05-03T13:25:39.482Z</time></trkpt><trkpt lat="40.085995" lon="15.8188483"><ele>745.75</ele><time>2026-05-03T13:25:40.482Z</time></trkpt><trkpt lat="40.08609" lon="15.81899"><ele>747.5</ele><time>2026-05-03T13:25:41.481Z</time></trkpt><trkpt lat="40.0861867" lon="15.8191167"><ele>749.25</ele><time>2026-05-03T13:25:42.48Z</time></trkpt><trkpt lat="40.0863033" lon="15.81922"><ele>751.0</ele><time>2026-05-03T13:25:43.481Z</time></trkpt><trkpt lat="40.0864183" lon="15.8193167"><ele>751.25</ele><time>2026-05-03T13:25:44.481Z</time></trkpt><trkpt lat="40.0865233" lon="15.8194283"><ele>751.5</ele><time>2026-05-03T13:25:45.481Z</time></trkpt><trkpt lat="40.0866133" lon="15.81956"><ele>751.75</ele><time>2026-05-03T13:25:46.481Z</time></trkpt><trkpt lat="40.0866917" lon="15.8197"><ele>752.0</ele><time>2026-05-03T13:25:47.481Z</time></trkpt><trkpt lat="40.08677" lon="15.81984"><ele>752.0</ele><time>2026-05-03T13:25:48.481Z</time></trkpt><trkpt lat="40.08686" lon="15.8199617"><ele>752.0</ele><time>2026-05-03T13:25:49.481Z</time></trkpt><trkpt lat="40.0869567" lon="15.8200583"><ele>752.0</ele><time>2026-05-03T13:25:50.48Z</time></trkpt><trkpt lat="40.087055" lon="15.8201267"><ele>752.0</ele><time>2026-05-03T13:25:51.482Z</time></trkpt><trkpt lat="40.087155" lon="15.8201633"><ele>752.0</ele><time>2026-05-03T13:25:52.482Z</time></trkpt><trkpt lat="40.0872533" lon="15.8201517"><ele>752.0</ele><time>2026-05-03T13:25:53.481Z</time></trkpt><trkpt lat="40.0873533" lon="15.8200883"><ele>752.0</ele><time>2026-05-03T13:25:54.482Z</time></trkpt><trkpt lat="40.0874533" lon="15.8199967"><ele>752.0</ele><time>2026-05-03T13:25:55.482Z</time></trkpt><trkpt lat="40.0875583" lon="15.8199017"><ele>753.25</ele><time>2026-05-03T13:25:56.481Z</time></trkpt><trkpt lat="40.08767" lon="15.8198217"><ele>754.5</ele><time>2026-05-03T13:25:57.481Z</time></trkpt><trkpt lat="40.087775" lon="15.8197283"><ele>755.75</ele><time>2026-05-03T13:25:58.481Z</time></trkpt><trkpt lat="40.0878667" lon="15.8196467"><ele>757.0</ele><time>2026-05-03T13:25:59.481Z</time></trkpt><trkpt lat="40.087965" lon="15.81961"><ele>757.0</ele><time>2026-05-03T13:26:00.481Z</time></trkpt><trkpt lat="40.088075" lon="15.819595"><ele>757.0</ele><time>2026-05-03T13:26:01.481Z</time></trkpt><trkpt lat="40.0881833" lon="15.8196017"><ele>757.0</ele><time>2026-05-03T13:26:02.481Z</time></trkpt><trkpt lat="40.0883" lon="15.8196233"><ele>757.0</ele><time>2026-05-03T13:26:03.482Z</time></trkpt><trkpt lat="40.0884133" lon="15.819695"><ele>759.25</ele><time>2026-05-03T13:26:04.482Z</time></trkpt><trkpt lat="40.0885317" lon="15.8197733"><ele>761.5</ele><time>2026-05-03T13:26:05.481Z</time></trkpt><trkpt lat="40.0886533" lon="15.8198567"><ele>763.75</ele><time>2026-05-03T13:26:06.481Z</time></trkpt><trkpt lat="40.088775" lon="15.8199383"><ele>766.0</ele><time>2026-05-03T13:26:07.481Z</time></trkpt><trkpt lat="40.0888917" lon="15.82003"><ele>766.0</ele><time>2026-05-03T13:26:08.482Z</time></trkpt><trkpt lat="40.0890017" lon="15.8201433"><ele>766.0</ele><time>2026-05-03T13:26:09.481Z</time></trkpt><trkpt lat="40.089105" lon="15.820265"><ele>766.0</ele><time>2026-05-03T13:26:10.481Z</time></trkpt><trkpt lat="40.08921" lon="15.8203767"><ele>766.0</ele><time>2026-05-03T13:26:11.482Z</time></trkpt><trkpt lat="40.0893217" lon="15.8204767"><ele>769.25</ele><time>2026-05-03T13:26:12.481Z</time></trkpt><trkpt lat="40.08944" lon="15.8205717"><ele>772.5</ele><time>2026-05-03T13:26:13.481Z</time></trkpt><trkpt lat="40.0895633" lon="15.8206733"><ele>775.75</ele><time>2026-05-03T13:26:14.482Z</time></trkpt><trkpt lat="40.089665" lon="15.8207417"><ele>779.0</ele><time>2026-05-03T13:26:15.481Z</time></trkpt><trkpt lat="40.089765" lon="15.820785"><ele>779.0</ele><time>2026-05-03T13:26:16.481Z</time></trkpt><trkpt lat="40.08987" lon="15.8207983"><ele>779.0</ele><time>2026-05-03T13:26:17.482Z</time></trkpt><trkpt lat="40.08999" lon="15.8208117"><ele>779.0</ele><time>2026-05-03T13:26:18.482Z</time></trkpt><trkpt lat="40.09011" lon="15.8208183"><ele>779.0</ele><time>2026-05-03T13:26:19.482Z</time></trkpt><trkpt lat="40.0902267" lon="15.8208417"><ele>781.6666666666667</ele><time>2026-05-03T13:26:20.482Z</time></trkpt><trkpt lat="40.0903217" lon="15.8208683"><ele>784.3333333333334</ele><time>2026-05-03T13:26:21.481Z</time></trkpt><trkpt lat="40.0903967" lon="15.8209"><ele>787.0</ele><time>2026-05-03T13:26:22.481Z</time></trkpt><trkpt lat="40.0904583" lon="15.8209267"><ele>789.6666666666667</ele><time>2026-05-03T13:26:23.48Z</time></trkpt><trkpt lat="40.0905317" lon="15.8209533"><ele>792.3333333333334</ele><time>2026-05-03T13:26:25.481Z</time></trkpt><trkpt lat="40.0906" lon="15.8209083"><ele>795.0</ele><time>2026-05-03T13:26:27.481Z</time></trkpt><trkpt lat="40.09066" lon="15.8208433"><ele>795.0</ele><time>2026-05-03T13:26:28.482Z</time></trkpt><trkpt lat="40.0907267" lon="15.820755"><ele>795.0</ele><time>2026-05-03T13:26:29.481Z</time></trkpt><trkpt lat="40.0908067" lon="15.8206317"><ele>795.0</ele><time>2026-05-03T13:26:30.481Z</time></trkpt><trkpt lat="40.09089" lon="15.8205083"><ele>795.0</ele><time>2026-05-03T13:26:31.48Z</time></trkpt><trkpt lat="40.0909817" lon="15.8203667"><ele>795.0</ele><time>2026-05-03T13:26:32.484Z</time></trkpt><trkpt lat="40.0910583" lon="15.8202433"><ele>795.0</ele><time>2026-05-03T13:26:33.48Z</time></trkpt><trkpt lat="40.0911283" lon="15.82009"><ele>795.0</ele><time>2026-05-03T13:26:34.481Z</time></trkpt><trkpt lat="40.0911617" lon="15.8199033"><ele>795.0</ele><time>2026-05-03T13:26:35.481Z</time></trkpt><trkpt lat="40.0911783" lon="15.8196867"><ele>795.0</ele><time>2026-05-03T13:26:36.481Z</time></trkpt><trkpt lat="40.091195" lon="15.8194533"><ele>795.0</ele><time>2026-05-03T13:26:37.481Z</time></trkpt><trkpt lat="40.0912167" lon="15.819205"><ele>795.0</ele><time>2026-05-03T13:26:38.481Z</time></trkpt><trkpt lat="40.0912517" lon="15.818955"><ele>794.3333333333333</ele><time>2026-05-03T13:26:39.48Z</time></trkpt><trkpt lat="40.091295" lon="15.8187033"><ele>793.6666666666666</ele><time>2026-05-03T13:26:40.48Z</time></trkpt><trkpt lat="40.0913433" lon="15.8184567"><ele>793.0</ele><time>2026-05-03T13:26:41.482Z</time></trkpt><trkpt lat="40.0913933" lon="15.8182117"><ele>791.6666666666666</ele><time>2026-05-03T13:26:42.481Z</time></trkpt><trkpt lat="40.0914417" lon="15.81797"><ele>790.3333333333333</ele><time>2026-05-03T13:26:43.482Z</time></trkpt><trkpt lat="40.0914917" lon="15.81773"><ele>789.0</ele><time>2026-05-03T13:26:44.482Z</time></trkpt><trkpt lat="40.09154" lon="15.8174933"><ele>794.3333333333333</ele><time>2026-05-03T13:26:45.481Z</time></trkpt><trkpt lat="40.0915933" lon="15.81727"><ele>799.6666666666666</ele><time>2026-05-03T13:26:46.481Z</time></trkpt><trkpt lat="40.091645" lon="15.8170567"><ele>805.0</ele><time>2026-05-03T13:26:47.481Z</time></trkpt><trkpt lat="40.091695" lon="15.81684"><ele>803.0</ele><time>2026-05-03T13:26:48.482Z</time></trkpt><trkpt lat="40.091745" lon="15.8166183"><ele>801.0</ele><time>2026-05-03T13:26:49.481Z</time></trkpt><trkpt lat="40.0917917" lon="15.8163917"><ele>799.0</ele><time>2026-05-03T13:26:50.482Z</time></trkpt><trkpt lat="40.0918383" lon="15.8161733"><ele>798.0</ele><time>2026-05-03T13:26:51.482Z</time></trkpt><trkpt lat="40.09188" lon="15.8159683"><ele>797.0</ele><time>2026-05-03T13:26:52.481Z</time></trkpt><trkpt lat="40.0919133" lon="15.8157817"><ele>796.0</ele><time>2026-05-03T13:26:53.481Z</time></trkpt><trkpt lat="40.0919333" lon="15.8155933"><ele>796.0</ele><time>2026-05-03T13:26:54.487Z</time></trkpt><trkpt lat="40.091915" lon="15.8154283"><ele>796.0</ele><time>2026-05-03T13:26:55.482Z</time></trkpt><trkpt lat="40.0918817" lon="15.81526"><ele>796.0</ele><time>2026-05-03T13:26:56.481Z</time></trkpt><trkpt lat="40.091805" lon="15.8151033"><ele>796.0</ele><time>2026-05-03T13:26:57.481Z</time></trkpt><trkpt lat="40.0916883" lon="15.8149633"><ele>797.5</ele><time>2026-05-03T13:26:58.482Z</time></trkpt><trkpt lat="40.0915933" lon="15.8148167"><ele>799.0</ele><time>2026-05-03T13:26:59.48Z</time></trkpt><trkpt lat="40.0915367" lon="15.8146417"><ele>800.5</ele><time>2026-05-03T13:27:00.482Z</time></trkpt><trkpt lat="40.09151" lon="15.8144517"><ele>802.0</ele><time>2026-05-03T13:27:01.482Z</time></trkpt><trkpt lat="40.0915183" lon="15.8142417"><ele>793.6666666666666</ele><time>2026-05-03T13:27:02.482Z</time></trkpt><trkpt lat="40.0915317" lon="15.814025"><ele>785.3333333333333</ele><time>2026-05-03T13:27:03.481Z</time></trkpt><trkpt lat="40.0915333" lon="15.8138083"><ele>777.0</ele><time>2026-05-03T13:27:04.482Z</time></trkpt><trkpt lat="40.091495" lon="15.8135833"><ele>776.6666666666667</ele><time>2026-05-03T13:27:05.482Z</time></trkpt><trkpt lat="40.091425" lon="15.8133517"><ele>776.3333333333334</ele><time>2026-05-03T13:27:06.482Z</time></trkpt><trkpt lat="40.091335" lon="15.8131067"><ele>776.0</ele><time>2026-05-03T13:27:07.48Z</time></trkpt><trkpt lat="40.0912433" lon="15.8128567"><ele>778.3333333333334</ele><time>2026-05-03T13:27:08.482Z</time></trkpt><trkpt lat="40.09116" lon="15.8126183"><ele>780.6666666666667</ele><time>2026-05-03T13:27:09.481Z</time></trkpt><trkpt lat="40.091085" lon="15.8123917"><ele>783.0</ele><time>2026-05-03T13:27:10.481Z</time></trkpt><trkpt lat="40.091015" lon="15.8121817"><ele>783.0</ele><time>2026-05-03T13:27:11.482Z</time></trkpt><trkpt lat="40.0909533" lon="15.8119917"><ele>783.0</ele><time>2026-05-03T13:27:12.481Z</time></trkpt><trkpt lat="40.0909067" lon="15.8118083"><ele>783.0</ele><time>2026-05-03T13:27:13.482Z</time></trkpt><trkpt lat="40.09088" lon="15.811635"><ele>783.0</ele><time>2026-05-03T13:27:14.482Z</time></trkpt><trkpt lat="40.090875" lon="15.81146"><ele>783.5</ele><time>2026-05-03T13:27:15.48Z</time></trkpt><trkpt lat="40.0908833" lon="15.811295"><ele>784.0</ele><time>2026-05-03T13:27:16.481Z</time></trkpt><trkpt lat="40.090905" lon="15.811125"><ele>784.5</ele><time>2026-05-03T13:27:17.482Z</time></trkpt><trkpt lat="40.0909367" lon="15.81095"><ele>785.0</ele><time>2026-05-03T13:27:18.481Z</time></trkpt><trkpt lat="40.0909967" lon="15.81084"><ele>783.0</ele><time>2026-05-03T13:27:19.482Z</time></trkpt><trkpt lat="40.0910883" lon="15.8107733"><ele>781.0</ele><time>2026-05-03T13:27:20.481Z</time></trkpt><trkpt lat="40.0912167" lon="15.810725"><ele>779.0</ele><time>2026-05-03T13:27:21.481Z</time></trkpt><trkpt lat="40.09133" lon="15.81067"><ele>777.0</ele><time>2026-05-03T13:27:22.482Z</time></trkpt><trkpt lat="40.0914267" lon="15.8106017"><ele>777.0</ele><time>2026-05-03T13:27:23.482Z</time></trkpt><trkpt lat="40.0914967" lon="15.8105167"><ele>777.0</ele><time>2026-05-03T13:27:24.48Z</time></trkpt><trkpt lat="40.0915483" lon="15.810425"><ele>777.0</ele><time>2026-05-03T13:27:25.482Z</time></trkpt><trkpt lat="40.091575" lon="15.810335"><ele>777.0</ele><time>2026-05-03T13:27:26.482Z</time></trkpt><trkpt lat="40.0915983" lon="15.81019"><ele>777.0</ele><time>2026-05-03T13:27:28.481Z</time></trkpt><trkpt lat="40.0916767" lon="15.8100967"><ele>778.3333333333334</ele><time>2026-05-03T13:27:31.482Z</time></trkpt><trkpt lat="40.09175" lon="15.8101167"><ele>779.6666666666667</ele><time>2026-05-03T13:27:33.482Z</time></trkpt><trkpt lat="40.0918083" lon="15.810165"><ele>781.0</ele><time>2026-05-03T13:27:35.48Z</time></trkpt><trkpt lat="40.091915" lon="15.81024"><ele>782.3333333333334</ele><time>2026-05-03T13:27:38.482Z</time></trkpt><trkpt lat="40.0919917" lon="15.81025"><ele>783.6666666666667</ele><time>2026-05-03T13:27:41.482Z</time></trkpt><trkpt lat="40.0920567" lon="15.8102683"><ele>785.0</ele><time>2026-05-03T13:27:43.481Z</time></trkpt><trkpt lat="40.0921483" lon="15.8102933"><ele>784.5000000000001</ele><time>2026-05-03T13:27:46.481Z</time></trkpt><trkpt lat="40.09223" lon="15.8102833"><ele>784.0</ele><time>2026-05-03T13:27:49.482Z</time></trkpt><trkpt lat="40.0922967" lon="15.81026"><ele>783.5</ele><time>2026-05-03T13:27:52.483Z</time></trkpt><trkpt lat="40.092365" lon="15.8102033"><ele>783.0</ele><time>2026-05-03T13:27:55.483Z</time></trkpt><trkpt lat="40.092425" lon="15.8101767"><ele>782.5000000000001</ele><time>2026-05-03T13:27:57.483Z</time></trkpt><trkpt lat="40.0924967" lon="15.81014"><ele>782.0</ele><time>2026-05-03T13:28:00.481Z</time></trkpt><trkpt lat="40.0925817" lon="15.81009"><ele>782.0000000000001</ele><time>2026-05-03T13:28:03.482Z</time></trkpt><trkpt lat="40.0926667" lon="15.810075"><ele>782.0</ele><time>2026-05-03T13:28:06.481Z</time></trkpt><trkpt lat="40.09276" lon="15.81006"><ele>782.0</ele><time>2026-05-03T13:28:09.482Z</time></trkpt><trkpt lat="40.0928283" lon="15.8100633"><ele>782.0</ele><time>2026-05-03T13:28:11.481Z</time></trkpt><trkpt lat="40.0928967" lon="15.8100467"><ele>782.0000000000001</ele><time>2026-05-03T13:28:13.481Z</time></trkpt><trkpt lat="40.09296" lon="15.8100317"><ele>782.0</ele><time>2026-05-03T13:28:15.48Z</time></trkpt><trkpt lat="40.0930267" lon="15.810005"><ele>782.0000000000001</ele><time>2026-05-03T13:28:17.483Z</time></trkpt><trkpt lat="40.0930983" lon="15.8099783"><ele>782.0</ele><time>2026-05-03T13:28:19.484Z</time></trkpt><trkpt lat="40.09316" lon="15.8099083"><ele>782.0</ele><time>2026-05-03T13:28:21.482Z</time></trkpt><trkpt lat="40.093235" lon="15.8098133"><ele>782.0</ele><time>2026-05-03T13:28:23.482Z</time></trkpt><trkpt lat="40.0932783" lon="15.80972"><ele>782.0000000000001</ele><time>2026-05-03T13:28:25.483Z</time></trkpt><trkpt lat="40.0933133" lon="15.809625"><ele>782.0</ele><time>2026-05-03T13:28:27.484Z</time></trkpt><trkpt lat="40.0933467" lon="15.8095417"><ele>782.4285714285713</ele><time>2026-05-03T13:28:29.482Z</time></trkpt><trkpt lat="40.0933867" lon="15.8094733"><ele>782.8571428571429</ele><time>2026-05-03T13:28:31.48Z</time></trkpt><trkpt lat="40.09344" lon="15.8094083"><ele>783.2857142857142</ele><time>2026-05-03T13:28:33.481Z</time></trkpt><trkpt lat="40.0934917" lon="15.8093483"><ele>783.7142857142857</ele><time>2026-05-03T13:28:35.482Z</time></trkpt><trkpt lat="40.0935367" lon="15.8092783"><ele>784.1428571428571</ele><time>2026-05-03T13:28:37.481Z</time></trkpt><trkpt lat="40.093585" lon="15.80919"><ele>784.5714285714286</ele><time>2026-05-03T13:28:39.481Z</time></trkpt><trkpt lat="40.0936217" lon="15.8090983"><ele>785.0</ele><time>2026-05-03T13:28:41.482Z</time></trkpt><trkpt lat="40.09362" lon="15.80898"><ele>785.0</ele><time>2026-05-03T13:28:43.482Z</time></trkpt><trkpt lat="40.0936133" lon="15.8088583"><ele>785.0</ele><time>2026-05-03T13:28:45.482Z</time></trkpt><trkpt lat="40.09361" lon="15.8087433"><ele>785.0</ele><time>2026-05-03T13:28:47.483Z</time></trkpt><trkpt lat="40.0936133" lon="15.8086333"><ele>785.0</ele><time>2026-05-03T13:28:49.482Z</time></trkpt><trkpt lat="40.0936133" lon="15.80851"><ele>785.0</ele><time>2026-05-03T13:28:51.483Z</time></trkpt><trkpt lat="40.0935917" lon="15.8083667"><ele>785.5000000000001</ele><time>2026-05-03T13:28:53.483Z</time></trkpt><trkpt lat="40.09355" lon="15.8082533"><ele>786.0</ele><time>2026-05-03T13:28:55.483Z</time></trkpt><trkpt lat="40.0934983" lon="15.8081833"><ele>786.5</ele><time>2026-05-03T13:28:57.483Z</time></trkpt><trkpt lat="40.09344" lon="15.8081217"><ele>787.0</ele><time>2026-05-03T13:28:59.483Z</time></trkpt><trkpt lat="40.0933833" lon="15.8080667"><ele>787.5000000000001</ele><time>2026-05-03T13:29:01.48Z</time></trkpt><trkpt lat="40.0933267" lon="15.8080167"><ele>788.0</ele><time>2026-05-03T13:29:03.482Z</time></trkpt><trkpt lat="40.0932667" lon="15.8079517"><ele>787.8333333333334</ele><time>2026-05-03T13:29:05.482Z</time></trkpt><trkpt lat="40.093215" lon="15.8078583"><ele>787.6666666666667</ele><time>2026-05-03T13:29:07.481Z</time></trkpt><trkpt lat="40.0931783" lon="15.8077267"><ele>787.5</ele><time>2026-05-03T13:29:09.482Z</time></trkpt><trkpt lat="40.0931767" lon="15.8076383"><ele>787.3333333333333</ele><time>2026-05-03T13:29:10.482Z</time></trkpt><trkpt lat="40.0931783" lon="15.8075417"><ele>787.1666666666666</ele><time>2026-05-03T13:29:11.482Z</time></trkpt><trkpt lat="40.0931767" lon="15.8074417"><ele>787.0</ele><time>2026-05-03T13:29:12.481Z</time></trkpt><trkpt lat="40.0931633" lon="15.807345"><ele>786.9999999999999</ele><time>2026-05-03T13:29:13.482Z</time></trkpt><trkpt lat="40.09314" lon="15.8072533"><ele>787.0</ele><time>2026-05-03T13:29:14.482Z</time></trkpt><trkpt lat="40.0931" lon="15.807175"><ele>787.0</ele><time>2026-05-03T13:29:15.482Z</time></trkpt><trkpt lat="40.0930517" lon="15.807105"><ele>787.0</ele><time>2026-05-03T13:29:16.481Z</time></trkpt><trkpt lat="40.093005" lon="15.8070367"><ele>786.9999999999999</ele><time>2026-05-03T13:29:17.481Z</time></trkpt><trkpt lat="40.0929433" lon="15.8069017"><ele>787.0</ele><time>2026-05-03T13:29:19.482Z</time></trkpt><trkpt lat="40.092905" lon="15.8067717"><ele>787.1666666666666</ele><time>2026-05-03T13:29:21.483Z</time></trkpt><trkpt lat="40.0929" lon="15.8066633"><ele>787.3333333333333</ele><time>2026-05-03T13:29:23.482Z</time></trkpt><trkpt lat="40.0929017" lon="15.806565"><ele>787.5</ele><time>2026-05-03T13:29:25.483Z</time></trkpt><trkpt lat="40.092895" lon="15.8064533"><ele>787.6666666666667</ele><time>2026-05-03T13:29:27.481Z</time></trkpt><trkpt lat="40.0928433" lon="15.80636"><ele>787.8333333333334</ele><time>2026-05-03T13:29:29.482Z</time></trkpt><trkpt lat="40.09274" lon="15.806295"><ele>788.0</ele><time>2026-05-03T13:29:31.482Z</time></trkpt><trkpt lat="40.092635" lon="15.8062533"><ele>788.0000000000001</ele><time>2026-05-03T13:29:33.481Z</time></trkpt><trkpt lat="40.0925833" lon="15.806205"><ele>788.0</ele><time>2026-05-03T13:29:35.481Z</time></trkpt><trkpt lat="40.0925017" lon="15.8061983"><ele>788.0</ele><time>2026-05-03T13:29:37.482Z</time></trkpt><trkpt lat="40.0923817" lon="15.80629"><ele>788.0</ele><time>2026-05-03T13:29:39.482Z</time></trkpt><trkpt lat="40.0923183" lon="15.8063533"><ele>788.0000000000001</ele><time>2026-05-03T13:29:40.482Z</time></trkpt><trkpt lat="40.0922617" lon="15.8064317"><ele>788.0</ele><time>2026-05-03T13:29:41.482Z</time></trkpt><trkpt lat="40.0922233" lon="15.806535"><ele>788.5000000000001</ele><time>2026-05-03T13:29:42.482Z</time></trkpt><trkpt lat="40.0922083" lon="15.8066383"><ele>789.0</ele><time>2026-05-03T13:29:43.48Z</time></trkpt><trkpt lat="40.09219" lon="15.8067517"><ele>789.5</ele><time>2026-05-03T13:29:44.482Z</time></trkpt><trkpt lat="40.09218" lon="15.8068583"><ele>790.0</ele><time>2026-05-03T13:29:45.483Z</time></trkpt><trkpt lat="40.0921717" lon="15.8069583"><ele>790.5000000000001</ele><time>2026-05-03T13:29:46.481Z</time></trkpt><trkpt lat="40.0921733" lon="15.8070483"><ele>791.0</ele><time>2026-05-03T13:29:47.482Z</time></trkpt><trkpt lat="40.0921667" lon="15.8071383"><ele>791.0000000000001</ele><time>2026-05-03T13:29:48.481Z</time></trkpt><trkpt lat="40.09216" lon="15.8072317"><ele>791.0</ele><time>2026-05-03T13:29:49.481Z</time></trkpt><trkpt lat="40.09216" lon="15.80732"><ele>791.0</ele><time>2026-05-03T13:29:50.484Z</time></trkpt><trkpt lat="40.0921567" lon="15.807405"><ele>791.0</ele><time>2026-05-03T13:29:51.483Z</time></trkpt><trkpt lat="40.0921117" lon="15.8075517"><ele>791.0000000000001</ele><time>2026-05-03T13:29:53.482Z</time></trkpt><trkpt lat="40.0920617" lon="15.8076167"><ele>791.0</ele><time>2026-05-03T13:29:54.481Z</time></trkpt><trkpt lat="40.0920067" lon="15.8076783"><ele>791.1666666666667</ele><time>2026-05-03T13:29:55.482Z</time></trkpt><trkpt lat="40.0919433" lon="15.8077317"><ele>791.3333333333334</ele><time>2026-05-03T13:29:56.481Z</time></trkpt><trkpt lat="40.0918733" lon="15.8077767"><ele>791.5</ele><time>2026-05-03T13:29:57.483Z</time></trkpt><trkpt lat="40.0917967" lon="15.8078083"><ele>791.6666666666667</ele><time>2026-05-03T13:29:58.481Z</time></trkpt><trkpt lat="40.0917333" lon="15.8078367"><ele>791.8333333333334</ele><time>2026-05-03T13:29:59.483Z</time></trkpt><trkpt lat="40.09164" lon="15.8078917"><ele>792.0</ele><time>2026-05-03T13:30:01.482Z</time></trkpt><trkpt lat="40.0915517" lon="15.8079433"><ele>793.0</ele><time>2026-05-03T13:30:04.481Z</time></trkpt><trkpt lat="40.09149" lon="15.807985"><ele>794.0</ele><time>2026-05-03T13:30:07.482Z</time></trkpt><trkpt lat="40.09143" lon="15.8080417"><ele>795.0</ele><time>2026-05-03T13:30:23.483Z</time></trkpt><trkpt lat="40.09137" lon="15.808145"><ele>796.0</ele><time>2026-05-03T13:30:25.482Z</time></trkpt><trkpt lat="40.091335" lon="15.808215"><ele>797.0</ele><time>2026-05-03T13:30:26.483Z</time></trkpt><trkpt lat="40.0912983" lon="15.808285"><ele>798.0</ele><time>2026-05-03T13:30:27.481Z</time></trkpt><trkpt lat="40.0912717" lon="15.8083617"><ele>799.0</ele><time>2026-05-03T13:30:28.482Z</time></trkpt><trkpt lat="40.0912333" lon="15.808485"><ele>798.4999999999999</ele><time>2026-05-03T13:30:30.484Z</time></trkpt><trkpt lat="40.0912083" lon="15.808595"><ele>798.0</ele><time>2026-05-03T13:30:32.483Z</time></trkpt><trkpt lat="40.0911883" lon="15.8087133"><ele>797.5</ele><time>2026-05-03T13:30:34.483Z</time></trkpt><trkpt lat="40.0911783" lon="15.8088367"><ele>797.0</ele><time>2026-05-03T13:30:36.483Z</time></trkpt><trkpt lat="40.0911817" lon="15.8089567"><ele>796.4999999999999</ele><time>2026-05-03T13:30:38.483Z</time></trkpt><trkpt lat="40.0911883" lon="15.80906"><ele>796.0</ele><time>2026-05-03T13:30:40.481Z</time></trkpt><trkpt lat="40.0912033" lon="15.8092"><ele>793.0</ele><time>2026-05-03T13:30:42.483Z</time></trkpt><trkpt lat="40.09123" lon="15.8093433"><ele>790.0</ele><time>2026-05-03T13:30:44.483Z</time></trkpt><trkpt lat="40.0912767" lon="15.8094883"><ele>787.0</ele><time>2026-05-03T13:30:46.482Z</time></trkpt><trkpt lat="40.0913267" lon="15.80962"><ele>784.0</ele><time>2026-05-03T13:30:48.482Z</time></trkpt><trkpt lat="40.0913617" lon="15.8097267"><ele>781.0</ele><time>2026-05-03T13:30:50.483Z</time></trkpt><trkpt lat="40.0913933" lon="15.8098267"><ele>780.9999999999999</ele><time>2026-05-03T13:30:52.481Z</time></trkpt><trkpt lat="40.0914233" lon="15.8099017"><ele>781.0</ele><time>2026-05-03T13:30:54.482Z</time></trkpt><trkpt lat="40.0914883" lon="15.8099467"><ele>781.0</ele><time>2026-05-03T13:30:57.482Z</time></trkpt><trkpt lat="40.09155" lon="15.80989"><ele>781.0</ele><time>2026-05-03T13:31:01.483Z</time></trkpt><trkpt lat="40.0914967" lon="15.809985"><ele>780.9999999999999</ele><time>2026-05-03T13:44:12.482Z</time></trkpt><trkpt lat="40.0914867" lon="15.8100817"><ele>781.0</ele><time>2026-05-03T13:44:14.482Z</time></trkpt><trkpt lat="40.09151" lon="15.8101967"><ele>780.3333333333333</ele><time>2026-05-03T13:44:16.481Z</time></trkpt><trkpt lat="40.0915233" lon="15.8103533"><ele>779.6666666666666</ele><time>2026-05-03T13:44:18.482Z</time></trkpt><trkpt lat="40.0915117" lon="15.8104417"><ele>779.0</ele><time>2026-05-03T13:44:19.483Z</time></trkpt><trkpt lat="40.0914867" lon="15.8105283"><ele>778.3333333333333</ele><time>2026-05-03T13:44:20.481Z</time></trkpt><trkpt lat="40.0914383" lon="15.8106117"><ele>777.6666666666666</ele><time>2026-05-03T13:44:21.481Z</time></trkpt><trkpt lat="40.0913683" lon="15.8106883"><ele>777.0</ele><time>2026-05-03T13:44:22.481Z</time></trkpt><trkpt lat="40.0912817" lon="15.81076"><ele>777.0</ele><time>2026-05-03T13:44:23.481Z</time></trkpt><trkpt lat="40.0911933" lon="15.8108333"><ele>777.0</ele><time>2026-05-03T13:44:24.482Z</time></trkpt><trkpt lat="40.0911017" lon="15.8109117"><ele>777.0</ele><time>2026-05-03T13:44:25.481Z</time></trkpt><trkpt lat="40.0910167" lon="15.8109883"><ele>777.0</ele><time>2026-05-03T13:44:26.483Z</time></trkpt><trkpt lat="40.0909433" lon="15.811075"><ele>777.0</ele><time>2026-05-03T13:44:27.481Z</time></trkpt><trkpt lat="40.09089" lon="15.811175"><ele>779.0</ele><time>2026-05-03T13:44:28.482Z</time></trkpt><trkpt lat="40.0908617" lon="15.8113"><ele>781.0</ele><time>2026-05-03T13:44:29.483Z</time></trkpt><trkpt lat="40.09085" lon="15.8114417"><ele>783.0</ele><time>2026-05-03T13:44:30.482Z</time></trkpt><trkpt lat="40.0908567" lon="15.8116017"><ele>785.0</ele><time>2026-05-03T13:44:31.483Z</time></trkpt><trkpt lat="40.090875" lon="15.8117733"><ele>784.5</ele><time>2026-05-03T13:44:32.483Z</time></trkpt><trkpt lat="40.0909083" lon="15.81194"><ele>784.0</ele><time>2026-05-03T13:44:33.482Z</time></trkpt><trkpt lat="40.0909583" lon="15.8121067"><ele>783.5</ele><time>2026-05-03T13:44:34.481Z</time></trkpt><trkpt lat="40.0910167" lon="15.8122833"><ele>783.0</ele><time>2026-05-03T13:44:35.484Z</time></trkpt><trkpt lat="40.0910817" lon="15.81248"><ele>780.6666666666667</ele><time>2026-05-03T13:44:36.482Z</time></trkpt><trkpt lat="40.0911533" lon="15.8126883"><ele>778.3333333333334</ele><time>2026-05-03T13:44:37.484Z</time></trkpt><trkpt lat="40.09123" lon="15.8129"><ele>776.0</ele><time>2026-05-03T13:44:38.484Z</time></trkpt><trkpt lat="40.0913067" lon="15.8131083"><ele>776.0</ele><time>2026-05-03T13:44:39.483Z</time></trkpt><trkpt lat="40.0913783" lon="15.8133183"><ele>776.0</ele><time>2026-05-03T13:44:40.483Z</time></trkpt><trkpt lat="40.09144" lon="15.81352"><ele>776.0</ele><time>2026-05-03T13:44:41.483Z</time></trkpt><trkpt lat="40.09149" lon="15.813715"><ele>776.3333333333334</ele><time>2026-05-03T13:44:42.483Z</time></trkpt><trkpt lat="40.0915133" lon="15.8139083"><ele>776.6666666666667</ele><time>2026-05-03T13:44:43.483Z</time></trkpt><trkpt lat="40.0915217" lon="15.8141083"><ele>777.0</ele><time>2026-05-03T13:44:44.482Z</time></trkpt><trkpt lat="40.09151" lon="15.8143133"><ele>778.3333333333333</ele><time>2026-05-03T13:44:45.481Z</time></trkpt><trkpt lat="40.0914967" lon="15.8145167"><ele>779.6666666666666</ele><time>2026-05-03T13:44:46.482Z</time></trkpt><trkpt lat="40.0915117" lon="15.8147083"><ele>781.0</ele><time>2026-05-03T13:44:47.482Z</time></trkpt><trkpt lat="40.09157" lon="15.8148867"><ele>784.75</ele><time>2026-05-03T13:44:48.482Z</time></trkpt><trkpt lat="40.091655" lon="15.8150467"><ele>788.5</ele><time>2026-05-03T13:44:49.483Z</time></trkpt><trkpt lat="40.091745" lon="15.8151867"><ele>792.25</ele><time>2026-05-03T13:44:50.482Z</time></trkpt><trkpt lat="40.0918283" lon="15.815325"><ele>796.0</ele><time>2026-05-03T13:44:51.481Z</time></trkpt><trkpt lat="40.0918833" lon="15.8154683"><ele>796.0</ele><time>2026-05-03T13:44:52.482Z</time></trkpt><trkpt lat="40.0918967" lon="15.8156233"><ele>796.0</ele><time>2026-05-03T13:44:53.481Z</time></trkpt><trkpt lat="40.09188" lon="15.8157967"><ele>796.0</ele><time>2026-05-03T13:44:54.482Z</time></trkpt><trkpt lat="40.0918433" lon="15.8159817"><ele>796.0</ele><time>2026-05-03T13:44:55.481Z</time></trkpt><trkpt lat="40.0918017" lon="15.8161867"><ele>797.0</ele><time>2026-05-03T13:44:56.482Z</time></trkpt><trkpt lat="40.091755" lon="15.816415"><ele>798.0</ele><time>2026-05-03T13:44:57.482Z</time></trkpt><trkpt lat="40.0917017" lon="15.81666"><ele>799.0</ele><time>2026-05-03T13:44:58.482Z</time></trkpt><trkpt lat="40.091645" lon="15.8169283"><ele>791.5</ele><time>2026-05-03T13:44:59.482Z</time></trkpt><trkpt lat="40.091575" lon="15.8172133"><ele>784.0</ele><time>2026-05-03T13:45:00.481Z</time></trkpt><trkpt lat="40.0915033" lon="15.8175133"><ele>786.5</ele><time>2026-05-03T13:45:01.482Z</time></trkpt><trkpt lat="40.0914333" lon="15.8178133"><ele>789.0</ele><time>2026-05-03T13:45:02.482Z</time></trkpt><trkpt lat="40.0913667" lon="15.8181083"><ele>789.0</ele><time>2026-05-03T13:45:03.482Z</time></trkpt><trkpt lat="40.0913033" lon="15.8184017"><ele>789.0</ele><time>2026-05-03T13:45:04.481Z</time></trkpt><trkpt lat="40.0912433" lon="15.8186917"><ele>790.3333333333333</ele><time>2026-05-03T13:45:05.482Z</time></trkpt><trkpt lat="40.0911933" lon="15.8189717"><ele>791.6666666666666</ele><time>2026-05-03T13:45:06.482Z</time></trkpt><trkpt lat="40.0911517" lon="15.8192367"><ele>793.0</ele><time>2026-05-03T13:45:07.482Z</time></trkpt><trkpt lat="40.0911267" lon="15.81949"><ele>793.6666666666666</ele><time>2026-05-03T13:45:08.482Z</time></trkpt><trkpt lat="40.0911117" lon="15.81973"><ele>794.3333333333333</ele><time>2026-05-03T13:45:09.482Z</time></trkpt><trkpt lat="40.0910933" lon="15.8199517"><ele>795.0</ele><time>2026-05-03T13:45:10.483Z</time></trkpt><trkpt lat="40.0910483" lon="15.82014"><ele>799.0</ele><time>2026-05-03T13:45:11.482Z</time></trkpt><trkpt lat="40.0909783" lon="15.8203133"><ele>803.0</ele><time>2026-05-03T13:45:12.482Z</time></trkpt><trkpt lat="40.0908833" lon="15.820475"><ele>807.0</ele><time>2026-05-03T13:45:13.481Z</time></trkpt><trkpt lat="40.090775" lon="15.8206383"><ele>805.6666666666667</ele><time>2026-05-03T13:45:14.482Z</time></trkpt><trkpt lat="40.0906667" lon="15.8208033"><ele>804.3333333333334</ele><time>2026-05-03T13:45:15.482Z</time></trkpt><trkpt lat="40.090555" lon="15.8209633"><ele>803.0</ele><time>2026-05-03T13:45:16.482Z</time></trkpt><trkpt lat="40.09044" lon="15.8211083"><ele>803.0</ele><time>2026-05-03T13:45:17.481Z</time></trkpt><trkpt lat="40.0903133" lon="15.8212117"><ele>803.0</ele><time>2026-05-03T13:45:18.481Z</time></trkpt><trkpt lat="40.0901683" lon="15.8212717"><ele>803.0</ele><time>2026-05-03T13:45:19.483Z</time></trkpt><trkpt lat="40.0900233" lon="15.82132"><ele>798.25</ele><time>2026-05-03T13:45:20.482Z</time></trkpt><trkpt lat="40.0898883" lon="15.8213833"><ele>793.5</ele><time>2026-05-03T13:45:21.482Z</time></trkpt><trkpt lat="40.089775" lon="15.821485"><ele>788.75</ele><time>2026-05-03T13:45:22.481Z</time></trkpt><trkpt lat="40.0896867" lon="15.8216367"><ele>784.0</ele><time>2026-05-03T13:45:23.481Z</time></trkpt><trkpt lat="40.089625" lon="15.821825"><ele>784.0</ele><time>2026-05-03T13:45:24.482Z</time></trkpt><trkpt lat="40.08958" lon="15.8220433"><ele>784.0</ele><time>2026-05-03T13:45:25.482Z</time></trkpt><trkpt lat="40.0895283" lon="15.8222817"><ele>784.0</ele><time>2026-05-03T13:45:26.484Z</time></trkpt><trkpt lat="40.089455" lon="15.82253"><ele>785.6666666666666</ele><time>2026-05-03T13:45:27.482Z</time></trkpt><trkpt lat="40.08937" lon="15.8227767"><ele>787.3333333333333</ele><time>2026-05-03T13:45:28.482Z</time></trkpt><trkpt lat="40.08929" lon="15.8230183"><ele>789.0</ele><time>2026-05-03T13:45:29.482Z</time></trkpt><trkpt lat="40.0892317" lon="15.8232617"><ele>788.6666666666667</ele><time>2026-05-03T13:45:30.482Z</time></trkpt><trkpt lat="40.0891867" lon="15.823495"><ele>788.3333333333334</ele><time>2026-05-03T13:45:31.482Z</time></trkpt><trkpt lat="40.0891733" lon="15.8237033"><ele>788.0</ele><time>2026-05-03T13:45:32.484Z</time></trkpt><trkpt lat="40.08919" lon="15.8238933"><ele>788.0</ele><time>2026-05-03T13:45:33.483Z</time></trkpt><trkpt lat="40.0892517" lon="15.8240433"><ele>788.0</ele><time>2026-05-03T13:45:34.482Z</time></trkpt><trkpt lat="40.0893217" lon="15.824175"><ele>788.0</ele><time>2026-05-03T13:45:35.483Z</time></trkpt><trkpt lat="40.0893833" lon="15.8242933"><ele>788.0</ele><time>2026-05-03T13:45:36.483Z</time></trkpt><trkpt lat="40.0894083" lon="15.824415"><ele>790.0</ele><time>2026-05-03T13:45:37.482Z</time></trkpt><trkpt lat="40.0893867" lon="15.8245533"><ele>792.0</ele><time>2026-05-03T13:45:38.483Z</time></trkpt><trkpt lat="40.0893283" lon="15.8246833"><ele>794.0</ele><time>2026-05-03T13:45:39.483Z</time></trkpt><trkpt lat="40.08923" lon="15.8247983"><ele>796.0</ele><time>2026-05-03T13:45:40.482Z</time></trkpt><trkpt lat="40.08911" lon="15.8248933"><ele>797.25</ele><time>2026-05-03T13:45:41.483Z</time></trkpt><trkpt lat="40.088985" lon="15.82496"><ele>798.5</ele><time>2026-05-03T13:45:42.482Z</time></trkpt><trkpt lat="40.0888517" lon="15.8249933"><ele>799.75</ele><time>2026-05-03T13:45:43.483Z</time></trkpt><trkpt lat="40.088735" lon="15.8249833"><ele>801.0</ele><time>2026-05-03T13:45:44.482Z</time></trkpt><trkpt lat="40.088625" lon="15.8249417"><ele>801.0</ele><time>2026-05-03T13:45:45.482Z</time></trkpt><trkpt lat="40.088545" lon="15.82483"><ele>801.0</ele><time>2026-05-03T13:45:46.481Z</time></trkpt><trkpt lat="40.08848" lon="15.8246983"><ele>801.0</ele><time>2026-05-03T13:45:47.482Z</time></trkpt><trkpt lat="40.088455" lon="15.8245083"><ele>801.0</ele><time>2026-05-03T13:45:48.481Z</time></trkpt><trkpt lat="40.0884083" lon="15.8243183"><ele>797.75</ele><time>2026-05-03T13:45:49.481Z</time></trkpt><trkpt lat="40.0883483" lon="15.8241267"><ele>794.5</ele><time>2026-05-03T13:45:50.483Z</time></trkpt><trkpt lat="40.0882717" lon="15.8239883"><ele>791.25</ele><time>2026-05-03T13:45:51.482Z</time></trkpt><trkpt lat="40.088185" lon="15.8239067"><ele>788.0</ele><time>2026-05-03T13:45:52.482Z</time></trkpt><trkpt lat="40.088085" lon="15.8238867"><ele>786.5</ele><time>2026-05-03T13:45:53.481Z</time></trkpt><trkpt lat="40.08798" lon="15.8239217"><ele>785.0</ele><time>2026-05-03T13:45:54.482Z</time></trkpt><trkpt lat="40.0878833" lon="15.8240233"><ele>783.5</ele><time>2026-05-03T13:45:55.482Z</time></trkpt><trkpt lat="40.0877917" lon="15.8241617"><ele>782.0</ele><time>2026-05-03T13:45:56.483Z</time></trkpt><trkpt lat="40.0876817" lon="15.824295"><ele>782.5</ele><time>2026-05-03T13:45:57.483Z</time></trkpt><trkpt lat="40.087565" lon="15.824425"><ele>783.0</ele><time>2026-05-03T13:45:58.482Z</time></trkpt><trkpt lat="40.0874367" lon="15.8245267"><ele>783.5</ele><time>2026-05-03T13:45:59.481Z</time></trkpt><trkpt lat="40.087305" lon="15.8246017"><ele>784.0</ele><time>2026-05-03T13:46:00.482Z</time></trkpt><trkpt lat="40.08718" lon="15.8246867"><ele>784.0</ele><time>2026-05-03T13:46:01.489Z</time></trkpt><trkpt lat="40.0870667" lon="15.824805"><ele>784.0</ele><time>2026-05-03T13:46:02.481Z</time></trkpt><trkpt lat="40.08698" lon="15.8249667"><ele>784.0</ele><time>2026-05-03T13:46:03.482Z</time></trkpt><trkpt lat="40.0869167" lon="15.82516"><ele>787.3333333333333</ele><time>2026-05-03T13:46:04.486Z</time></trkpt><trkpt lat="40.0868617" lon="15.8253717"><ele>790.6666666666667</ele><time>2026-05-03T13:46:05.483Z</time></trkpt><trkpt lat="40.0868233" lon="15.8256117"><ele>794.0</ele><time>2026-05-03T13:46:06.482Z</time></trkpt><trkpt lat="40.08678" lon="15.8258767"><ele>793.6666666666667</ele><time>2026-05-03T13:46:07.482Z</time></trkpt><trkpt lat="40.0867317" lon="15.8261233"><ele>793.3333333333333</ele><time>2026-05-03T13:46:08.482Z</time></trkpt><trkpt lat="40.0867017" lon="15.8263567"><ele>793.0</ele><time>2026-05-03T13:46:09.482Z</time></trkpt><trkpt lat="40.086685" lon="15.8265783"><ele>793.0</ele><time>2026-05-03T13:46:10.481Z</time></trkpt><trkpt lat="40.0866933" lon="15.8267983"><ele>793.0</ele><time>2026-05-03T13:46:11.481Z</time></trkpt><trkpt lat="40.0867133" lon="15.8270083"><ele>793.0</ele><time>2026-05-03T13:46:12.482Z</time></trkpt><trkpt lat="40.086725" lon="15.82722"><ele>792.75</ele><time>2026-05-03T13:46:13.481Z</time></trkpt><trkpt lat="40.0867383" lon="15.8274217"><ele>792.5</ele><time>2026-05-03T13:46:14.481Z</time></trkpt><trkpt lat="40.0867333" lon="15.827615"><ele>792.25</ele><time>2026-05-03T13:46:15.482Z</time></trkpt><trkpt lat="40.0867" lon="15.827785"><ele>792.0</ele><time>2026-05-03T13:46:16.482Z</time></trkpt><trkpt lat="40.0866383" lon="15.8279367"><ele>793.25</ele><time>2026-05-03T13:46:17.481Z</time></trkpt><trkpt lat="40.0865483" lon="15.8280783"><ele>794.5</ele><time>2026-05-03T13:46:18.481Z</time></trkpt><trkpt lat="40.086465" lon="15.8282233"><ele>795.75</ele><time>2026-05-03T13:46:19.481Z</time></trkpt><trkpt lat="40.0864067" lon="15.8283883"><ele>797.0</ele><time>2026-05-03T13:46:20.481Z</time></trkpt><trkpt lat="40.0863767" lon="15.8285567"><ele>797.0</ele><time>2026-05-03T13:46:21.481Z</time></trkpt><trkpt lat="40.0863733" lon="15.8287267"><ele>797.0</ele><time>2026-05-03T13:46:22.481Z</time></trkpt><trkpt lat="40.0863983" lon="15.828895"><ele>797.0</ele><time>2026-05-03T13:46:23.482Z</time></trkpt><trkpt lat="40.086455" lon="15.8290617"><ele>797.0</ele><time>2026-05-03T13:46:24.483Z</time></trkpt><trkpt lat="40.0865267" lon="15.8292317"><ele>799.0</ele><time>2026-05-03T13:46:25.482Z</time></trkpt><trkpt lat="40.0866017" lon="15.829395"><ele>801.0</ele><time>2026-05-03T13:46:26.482Z</time></trkpt><trkpt lat="40.0866617" lon="15.82955"><ele>803.0</ele><time>2026-05-03T13:46:27.482Z</time></trkpt><trkpt lat="40.086705" lon="15.82969"><ele>805.0</ele><time>2026-05-03T13:46:28.483Z</time></trkpt><trkpt lat="40.0867233" lon="15.8298233"><ele>805.0</ele><time>2026-05-03T13:46:29.482Z</time></trkpt><trkpt lat="40.0866967" lon="15.8299317"><ele>805.0</ele><time>2026-05-03T13:46:30.481Z</time></trkpt><trkpt lat="40.0866517" lon="15.8300233"><ele>805.0</ele><time>2026-05-03T13:46:31.483Z</time></trkpt><trkpt lat="40.0864983" lon="15.8299783"><ele>805.0</ele><time>2026-05-03T13:46:33.482Z</time></trkpt><trkpt lat="40.0863967" lon="15.8298917"><ele>805.0</ele><time>2026-05-03T13:46:34.482Z</time></trkpt><trkpt lat="40.0862933" lon="15.82979"><ele>802.3333333333333</ele><time>2026-05-03T13:46:35.483Z</time></trkpt><trkpt lat="40.0861667" lon="15.82961"><ele>799.6666666666667</ele><time>2026-05-03T13:46:36.483Z</time></trkpt><trkpt lat="40.0860417" lon="15.8294433"><ele>797.0</ele><time>2026-05-03T13:46:37.481Z</time></trkpt><trkpt lat="40.0859133" lon="15.8292783"><ele>797.0</ele><time>2026-05-03T13:46:38.484Z</time></trkpt><trkpt lat="40.0857933" lon="15.8291183"><ele>797.0</ele><time>2026-05-03T13:46:39.482Z</time></trkpt><trkpt lat="40.085705" lon="15.8289467"><ele>797.0</ele><time>2026-05-03T13:46:40.483Z</time></trkpt><trkpt lat="40.0856383" lon="15.8287833"><ele>798.25</ele><time>2026-05-03T13:46:41.482Z</time></trkpt><trkpt lat="40.0855717" lon="15.8286233"><ele>799.5</ele><time>2026-05-03T13:46:42.482Z</time></trkpt><trkpt lat="40.085495" lon="15.8284867"><ele>800.75</ele><time>2026-05-03T13:46:43.483Z</time></trkpt><trkpt lat="40.0853967" lon="15.8284033"><ele>802.0</ele><time>2026-05-03T13:46:44.483Z</time></trkpt><trkpt lat="40.0852967" lon="15.8283867"><ele>802.0</ele><time>2026-05-03T13:46:45.482Z</time></trkpt><trkpt lat="40.085205" lon="15.8284367"><ele>802.0</ele><time>2026-05-03T13:46:46.482Z</time></trkpt><trkpt lat="40.085115" lon="15.8285317"><ele>802.0</ele><time>2026-05-03T13:46:47.483Z</time></trkpt><trkpt lat="40.0850233" lon="15.8286533"><ele>802.0</ele><time>2026-05-03T13:46:48.481Z</time></trkpt><trkpt lat="40.0849267" lon="15.82878"><ele>798.25</ele><time>2026-05-03T13:46:49.484Z</time></trkpt><trkpt lat="40.0848183" lon="15.8289017"><ele>794.5</ele><time>2026-05-03T13:46:50.483Z</time></trkpt><trkpt lat="40.084695" lon="15.82901"><ele>790.75</ele><time>2026-05-03T13:46:51.483Z</time></trkpt><trkpt lat="40.08456" lon="15.8291017"><ele>787.0</ele><time>2026-05-03T13:46:52.482Z</time></trkpt><trkpt lat="40.0844183" lon="15.82916"><ele>787.0</ele><time>2026-05-03T13:46:53.482Z</time></trkpt><trkpt lat="40.0842767" lon="15.8291933"><ele>787.0</ele><time>2026-05-03T13:46:54.482Z</time></trkpt><trkpt lat="40.0841483" lon="15.8291983"><ele>787.0</ele><time>2026-05-03T13:46:55.482Z</time></trkpt><trkpt lat="40.08403" lon="15.8292033"><ele>787.0</ele><time>2026-05-03T13:46:56.482Z</time></trkpt><trkpt lat="40.0838417" lon="15.829285"><ele>784.5</ele><time>2026-05-03T13:46:58.482Z</time></trkpt><trkpt lat="40.08378" lon="15.8294"><ele>782.0</ele><time>2026-05-03T13:46:59.483Z</time></trkpt><trkpt lat="40.0837467" lon="15.8295483"><ele>779.5</ele><time>2026-05-03T13:47:00.482Z</time></trkpt><trkpt lat="40.0837283" lon="15.82971"><ele>777.0</ele><time>2026-05-03T13:47:01.481Z</time></trkpt><trkpt lat="40.0837217" lon="15.8298717"><ele>777.0</ele><time>2026-05-03T13:47:02.483Z</time></trkpt><trkpt lat="40.0837217" lon="15.830035"><ele>777.0</ele><time>2026-05-03T13:47:03.482Z</time></trkpt><trkpt lat="40.0837233" lon="15.8302083"><ele>777.0</ele><time>2026-05-03T13:47:04.483Z</time></trkpt><trkpt lat="40.0837267" lon="15.830395"><ele>777.0</ele><time>2026-05-03T13:47:05.482Z</time></trkpt><trkpt lat="40.08373" lon="15.830585"><ele>777.6666666666667</ele><time>2026-05-03T13:47:06.482Z</time></trkpt><trkpt lat="40.08374" lon="15.8307867"><ele>778.3333333333334</ele><time>2026-05-03T13:47:07.482Z</time></trkpt><trkpt lat="40.0837517" lon="15.8309933"><ele>779.0</ele><time>2026-05-03T13:47:08.483Z</time></trkpt><trkpt lat="40.083765" lon="15.8311983"><ele>781.5</ele><time>2026-05-03T13:47:09.482Z</time></trkpt><trkpt lat="40.083765" lon="15.831395"><ele>784.0</ele><time>2026-05-03T13:47:10.483Z</time></trkpt><trkpt lat="40.083735" lon="15.8315817"><ele>786.5</ele><time>2026-05-03T13:47:11.482Z</time></trkpt><trkpt lat="40.08367" lon="15.83174"><ele>789.0</ele><time>2026-05-03T13:47:12.481Z</time></trkpt><trkpt lat="40.0835817" lon="15.8318533"><ele>789.25</ele><time>2026-05-03T13:47:13.482Z</time></trkpt><trkpt lat="40.0834717" lon="15.8319217"><ele>789.5</ele><time>2026-05-03T13:47:14.483Z</time></trkpt><trkpt lat="40.0833533" lon="15.8319517"><ele>789.75</ele><time>2026-05-03T13:47:15.482Z</time></trkpt><trkpt lat="40.083225" lon="15.8319433"><ele>790.0</ele><time>2026-05-03T13:47:16.481Z</time></trkpt><trkpt lat="40.0830883" lon="15.8319467"><ele>790.0</ele><time>2026-05-03T13:47:17.481Z</time></trkpt><trkpt lat="40.08296" lon="15.83199"><ele>790.0</ele><time>2026-05-03T13:47:18.482Z</time></trkpt><trkpt lat="40.08285" lon="15.8320733"><ele>790.0</ele><time>2026-05-03T13:47:19.483Z</time></trkpt><trkpt lat="40.0827533" lon="15.8321883"><ele>790.0</ele><time>2026-05-03T13:47:20.483Z</time></trkpt><trkpt lat="40.0826667" lon="15.8323367"><ele>790.0</ele><time>2026-05-03T13:47:21.481Z</time></trkpt><trkpt lat="40.0825783" lon="15.8325083"><ele>790.0</ele><time>2026-05-03T13:47:22.482Z</time></trkpt><trkpt lat="40.0824883" lon="15.8326867"><ele>790.0</ele><time>2026-05-03T13:47:23.483Z</time></trkpt><trkpt lat="40.0824" lon="15.832845"><ele>784.75</ele><time>2026-05-03T13:47:24.483Z</time></trkpt><trkpt lat="40.0823183" lon="15.8329933"><ele>779.5</ele><time>2026-05-03T13:47:25.482Z</time></trkpt><trkpt lat="40.0822433" lon="15.833145"><ele>774.25</ele><time>2026-05-03T13:47:26.483Z</time></trkpt><trkpt lat="40.0821833" lon="15.8333167"><ele>769.0</ele><time>2026-05-03T13:47:27.482Z</time></trkpt><trkpt lat="40.0821417" lon="15.8335067"><ele>768.3333333333333</ele><time>2026-05-03T13:47:28.481Z</time></trkpt><trkpt lat="40.08213" lon="15.8337133"><ele>767.6666666666666</ele><time>2026-05-03T13:47:29.482Z</time></trkpt><trkpt lat="40.0821417" lon="15.8339333"><ele>767.0</ele><time>2026-05-03T13:47:30.482Z</time></trkpt><trkpt lat="40.0821733" lon="15.83416"><ele>766.3333333333333</ele><time>2026-05-03T13:47:31.481Z</time></trkpt><trkpt lat="40.0822183" lon="15.834395"><ele>765.6666666666666</ele><time>2026-05-03T13:47:32.482Z</time></trkpt><trkpt lat="40.0822683" lon="15.834625"><ele>765.0</ele><time>2026-05-03T13:47:33.481Z</time></trkpt><trkpt lat="40.082315" lon="15.8348433"><ele>765.0</ele><time>2026-05-03T13:47:34.483Z</time></trkpt><trkpt lat="40.082345" lon="15.8350517"><ele>765.0</ele><time>2026-05-03T13:47:35.482Z</time></trkpt><trkpt lat="40.0823517" lon="15.835255"><ele>765.0</ele><time>2026-05-03T13:47:36.482Z</time></trkpt><trkpt lat="40.0823333" lon="15.8354583"><ele>768.0</ele><time>2026-05-03T13:47:37.483Z</time></trkpt><trkpt lat="40.082295" lon="15.8356617"><ele>771.0</ele><time>2026-05-03T13:47:38.482Z</time></trkpt><trkpt lat="40.0822433" lon="15.8358617"><ele>774.0</ele><time>2026-05-03T13:47:39.482Z</time></trkpt><trkpt lat="40.0821783" lon="15.836065"><ele>776.6666666666667</ele><time>2026-05-03T13:47:40.482Z</time></trkpt><trkpt lat="40.0821033" lon="15.8362767"><ele>779.3333333333334</ele><time>2026-05-03T13:47:41.481Z</time></trkpt><trkpt lat="40.0820333" lon="15.8364933"><ele>782.0</ele><time>2026-05-03T13:47:42.482Z</time></trkpt><trkpt lat="40.0819767" lon="15.8367"><ele>783.3333333333334</ele><time>2026-05-03T13:47:43.482Z</time></trkpt><trkpt lat="40.0819317" lon="15.8368967"><ele>784.6666666666667</ele><time>2026-05-03T13:47:44.482Z</time></trkpt><trkpt lat="40.0818917" lon="15.837085"><ele>786.0</ele><time>2026-05-03T13:47:45.481Z</time></trkpt><trkpt lat="40.081855" lon="15.83727"><ele>786.0</ele><time>2026-05-03T13:47:46.482Z</time></trkpt><trkpt lat="40.0818117" lon="15.8374533"><ele>786.0</ele><time>2026-05-03T13:47:47.481Z</time></trkpt><trkpt lat="40.081745" lon="15.837625"><ele>786.0</ele><time>2026-05-03T13:47:48.481Z</time></trkpt><trkpt lat="40.0816517" lon="15.8377817"><ele>786.0</ele><time>2026-05-03T13:47:49.483Z</time></trkpt><trkpt lat="40.0815417" lon="15.837925"><ele>785.0</ele><time>2026-05-03T13:47:50.483Z</time></trkpt><trkpt lat="40.0814383" lon="15.8380617"><ele>784.0</ele><time>2026-05-03T13:47:51.481Z</time></trkpt><trkpt lat="40.0813617" lon="15.8382133"><ele>783.0</ele><time>2026-05-03T13:47:52.484Z</time></trkpt><trkpt lat="40.08131" lon="15.8383917"><ele>782.0</ele><time>2026-05-03T13:47:53.483Z</time></trkpt><trkpt lat="40.0812867" lon="15.838595"><ele>782.0</ele><time>2026-05-03T13:47:54.483Z</time></trkpt><trkpt lat="40.081285" lon="15.8388183"><ele>782.0</ele><time>2026-05-03T13:47:55.482Z</time></trkpt><trkpt lat="40.0812867" lon="15.8390517"><ele>782.0</ele><time>2026-05-03T13:47:56.482Z</time></trkpt><trkpt lat="40.081265" lon="15.8392683"><ele>783.6666666666667</ele><time>2026-05-03T13:47:57.481Z</time></trkpt><trkpt lat="40.08122" lon="15.8394617"><ele>785.3333333333333</ele><time>2026-05-03T13:47:58.481Z</time></trkpt><trkpt lat="40.081155" lon="15.83963"><ele>787.0</ele><time>2026-05-03T13:47:59.483Z</time></trkpt><trkpt lat="40.0810533" lon="15.8397833"><ele>787.0</ele><time>2026-05-03T13:48:00.482Z</time></trkpt><trkpt lat="40.0809467" lon="15.83993"><ele>787.0</ele><time>2026-05-03T13:48:01.481Z</time></trkpt><trkpt lat="40.0808433" lon="15.840075"><ele>787.0</ele><time>2026-05-03T13:48:02.482Z</time></trkpt><trkpt lat="40.0807533" lon="15.840215"><ele>787.0</ele><time>2026-05-03T13:48:03.482Z</time></trkpt><trkpt lat="40.0806733" lon="15.840335"><ele>791.8</ele><time>2026-05-03T13:48:04.482Z</time></trkpt><trkpt lat="40.0805967" lon="15.8404133"><ele>796.6</ele><time>2026-05-03T13:48:05.482Z</time></trkpt><trkpt lat="40.0805067" lon="15.8404483"><ele>801.4</ele><time>2026-05-03T13:48:06.482Z</time></trkpt><trkpt lat="40.0804017" lon="15.8404283"><ele>806.1999999999999</ele><time>2026-05-03T13:48:07.482Z</time></trkpt><trkpt lat="40.0802917" lon="15.8403433"><ele>811.0</ele><time>2026-05-03T13:48:08.483Z</time></trkpt><trkpt lat="40.0801667" lon="15.8402433"><ele>811.0</ele><time>2026-05-03T13:48:09.482Z</time></trkpt><trkpt lat="40.0800267" lon="15.8401483"><ele>811.0</ele><time>2026-05-03T13:48:10.482Z</time></trkpt><trkpt lat="40.0798883" lon="15.8400617"><ele>811.0</ele><time>2026-05-03T13:48:11.484Z</time></trkpt><trkpt lat="40.07976" lon="15.8399783"><ele>806.0</ele><time>2026-05-03T13:48:12.481Z</time></trkpt><trkpt lat="40.0796267" lon="15.8399167"><ele>801.0</ele><time>2026-05-03T13:48:13.482Z</time></trkpt><trkpt lat="40.0794867" lon="15.8398917"><ele>796.0</ele><time>2026-05-03T13:48:14.482Z</time></trkpt><trkpt lat="40.0793433" lon="15.8399167"><ele>791.0</ele><time>2026-05-03T13:48:15.482Z</time></trkpt><trkpt lat="40.079195" lon="15.83997"><ele>790.6666666666667</ele><time>2026-05-03T13:48:16.482Z</time></trkpt><trkpt lat="40.0790383" lon="15.840045"><ele>790.3333333333333</ele><time>2026-05-03T13:48:17.481Z</time></trkpt><trkpt lat="40.0788717" lon="15.8401367"><ele>790.0</ele><time>2026-05-03T13:48:18.482Z</time></trkpt><trkpt lat="40.0787017" lon="15.8402267"><ele>796.3333333333333</ele><time>2026-05-03T13:48:19.482Z</time></trkpt><trkpt lat="40.07854" lon="15.8403"><ele>802.6666666666667</ele><time>2026-05-03T13:48:20.483Z</time></trkpt><trkpt lat="40.0783883" lon="15.8403467"><ele>809.0</ele><time>2026-05-03T13:48:21.483Z</time></trkpt><trkpt lat="40.0782517" lon="15.8403533"><ele>807.0</ele><time>2026-05-03T13:48:22.482Z</time></trkpt><trkpt lat="40.07812" lon="15.8403017"><ele>805.0</ele><time>2026-05-03T13:48:23.483Z</time></trkpt><trkpt lat="40.07799" lon="15.8402067"><ele>803.0</ele><time>2026-05-03T13:48:24.483Z</time></trkpt><trkpt lat="40.07785" lon="15.840085"><ele>803.0</ele><time>2026-05-03T13:48:25.481Z</time></trkpt><trkpt lat="40.0777017" lon="15.83995"><ele>803.0</ele><time>2026-05-03T13:48:26.482Z</time></trkpt><trkpt lat="40.0775383" lon="15.8398183"><ele>803.0</ele><time>2026-05-03T13:48:27.481Z</time></trkpt><trkpt lat="40.07736" lon="15.839685"><ele>807.3333333333334</ele><time>2026-05-03T13:48:28.482Z</time></trkpt><trkpt lat="40.07717" lon="15.8395483"><ele>811.6666666666667</ele><time>2026-05-03T13:48:29.481Z</time></trkpt><trkpt lat="40.0769867" lon="15.8394217"><ele>816.0</ele><time>2026-05-03T13:48:30.481Z</time></trkpt><trkpt lat="40.0768133" lon="15.83931"><ele>811.75</ele><time>2026-05-03T13:48:31.483Z</time></trkpt><trkpt lat="40.0766617" lon="15.839245"><ele>807.5</ele><time>2026-05-03T13:48:32.482Z</time></trkpt><trkpt lat="40.0765233" lon="15.8392217"><ele>803.25</ele><time>2026-05-03T13:48:33.483Z</time></trkpt><trkpt lat="40.0763933" lon="15.8392383"><ele>799.0</ele><time>2026-05-03T13:48:34.483Z</time></trkpt><trkpt lat="40.0762517" lon="15.8392867"><ele>797.0</ele><time>2026-05-03T13:48:35.481Z</time></trkpt><trkpt lat="40.0760933" lon="15.8393433"><ele>795.0</ele><time>2026-05-03T13:48:36.481Z</time></trkpt><trkpt lat="40.0759183" lon="15.8394"><ele>793.0</ele><time>2026-05-03T13:48:37.481Z</time></trkpt><trkpt lat="40.0757333" lon="15.8394567"><ele>793.0</ele><time>2026-05-03T13:48:38.482Z</time></trkpt><trkpt lat="40.0755483" lon="15.8395183"><ele>793.0</ele><time>2026-05-03T13:48:39.481Z</time></trkpt><trkpt lat="40.0753783" lon="15.8395817"><ele>793.0</ele><time>2026-05-03T13:48:40.482Z</time></trkpt><trkpt lat="40.0752333" lon="15.83966"><ele>793.0</ele><time>2026-05-03T13:48:41.483Z</time></trkpt><trkpt lat="40.075115" lon="15.8397667"><ele>793.0</ele><time>2026-05-03T13:48:42.482Z</time></trkpt><trkpt lat="40.0750117" lon="15.839905"><ele>793.0</ele><time>2026-05-03T13:48:43.482Z</time></trkpt><trkpt lat="40.0749033" lon="15.8400667"><ele>788.0</ele><time>2026-05-03T13:48:44.482Z</time></trkpt><trkpt lat="40.074795" lon="15.84024"><ele>783.0</ele><time>2026-05-03T13:48:45.481Z</time></trkpt><trkpt lat="40.0747017" lon="15.84043"><ele>778.0</ele><time>2026-05-03T13:48:46.482Z</time></trkpt><trkpt lat="40.0746367" lon="15.8406283"><ele>778.0</ele><time>2026-05-03T13:48:47.482Z</time></trkpt><trkpt lat="40.074595" lon="15.8408217"><ele>778.0</ele><time>2026-05-03T13:48:48.481Z</time></trkpt><trkpt lat="40.074575" lon="15.84101"><ele>778.0</ele><time>2026-05-03T13:48:49.485Z</time></trkpt><trkpt lat="40.07458" lon="15.84119"><ele>778.0</ele><time>2026-05-03T13:48:50.483Z</time></trkpt><trkpt lat="40.0746133" lon="15.8413567"><ele>774.3333333333333</ele><time>2026-05-03T13:48:51.482Z</time></trkpt><trkpt lat="40.0746817" lon="15.8415133"><ele>770.6666666666666</ele><time>2026-05-03T13:48:52.483Z</time></trkpt><trkpt lat="40.0747783" lon="15.8416667"><ele>767.0</ele><time>2026-05-03T13:48:53.484Z</time></trkpt><trkpt lat="40.0748967" lon="15.84182"><ele>768.3333333333333</ele><time>2026-05-03T13:48:54.483Z</time></trkpt><trkpt lat="40.0750267" lon="15.8419767"><ele>769.6666666666666</ele><time>2026-05-03T13:48:55.482Z</time></trkpt><trkpt lat="40.0751517" lon="15.842125"><ele>771.0</ele><time>2026-05-03T13:48:56.483Z</time></trkpt><trkpt lat="40.0752667" lon="15.8422583"><ele>771.0</ele><time>2026-05-03T13:48:57.482Z</time></trkpt><trkpt lat="40.0753783" lon="15.842375"><ele>771.0</ele><time>2026-05-03T13:48:58.482Z</time></trkpt><trkpt lat="40.0754817" lon="15.842475"><ele>771.0</ele><time>2026-05-03T13:48:59.482Z</time></trkpt><trkpt lat="40.0755683" lon="15.8425767"><ele>771.0</ele><time>2026-05-03T13:49:00.483Z</time></trkpt><trkpt lat="40.0756267" lon="15.8427017"><ele>768.75</ele><time>2026-05-03T13:49:01.481Z</time></trkpt><trkpt lat="40.0756533" lon="15.8428383"><ele>766.5</ele><time>2026-05-03T13:49:02.482Z</time></trkpt><trkpt lat="40.0756633" lon="15.8429917"><ele>764.25</ele><time>2026-05-03T13:49:03.481Z</time></trkpt><trkpt lat="40.0756867" lon="15.8431417"><ele>762.0</ele><time>2026-05-03T13:49:04.482Z</time></trkpt><trkpt lat="40.0757417" lon="15.8432817"><ele>762.5</ele><time>2026-05-03T13:49:05.481Z</time></trkpt><trkpt lat="40.0758317" lon="15.8434017"><ele>763.0</ele><time>2026-05-03T13:49:06.483Z</time></trkpt><trkpt lat="40.0759517" lon="15.8434783"><ele>763.5</ele><time>2026-05-03T13:49:07.481Z</time></trkpt><trkpt lat="40.0760883" lon="15.8435067"><ele>764.0</ele><time>2026-05-03T13:49:08.483Z</time></trkpt><trkpt lat="40.0762267" lon="15.8435067"><ele>764.0</ele><time>2026-05-03T13:49:09.483Z</time></trkpt><trkpt lat="40.076355" lon="15.8435267"><ele>764.0</ele><time>2026-05-03T13:49:10.483Z</time></trkpt><trkpt lat="40.07646" lon="15.8435967"><ele>764.0</ele><time>2026-05-03T13:49:11.482Z</time></trkpt><trkpt lat="40.07653" lon="15.8437117"><ele>764.0</ele><time>2026-05-03T13:49:12.482Z</time></trkpt><trkpt lat="40.0765617" lon="15.8438617"><ele>764.0</ele><time>2026-05-03T13:49:13.482Z</time></trkpt><trkpt lat="40.076545" lon="15.84401"><ele>764.0</ele><time>2026-05-03T13:49:14.483Z</time></trkpt><trkpt lat="40.0764867" lon="15.84416"><ele>764.0</ele><time>2026-05-03T13:49:15.482Z</time></trkpt><trkpt lat="40.0764033" lon="15.8443217"><ele>764.0</ele><time>2026-05-03T13:49:16.482Z</time></trkpt><trkpt lat="40.07633" lon="15.8445033"><ele>762.5</ele><time>2026-05-03T13:49:17.482Z</time></trkpt><trkpt lat="40.07629" lon="15.8447"><ele>761.0</ele><time>2026-05-03T13:49:18.482Z</time></trkpt><trkpt lat="40.0762883" lon="15.8448883"><ele>759.5</ele><time>2026-05-03T13:49:19.484Z</time></trkpt><trkpt lat="40.07633" lon="15.8450483"><ele>758.0</ele><time>2026-05-03T13:49:20.484Z</time></trkpt><trkpt lat="40.07641" lon="15.8451783"><ele>757.75</ele><time>2026-05-03T13:49:21.482Z</time></trkpt><trkpt lat="40.07652" lon="15.8452767"><ele>757.5</ele><time>2026-05-03T13:49:22.482Z</time></trkpt><trkpt lat="40.0766483" lon="15.8453717"><ele>757.25</ele><time>2026-05-03T13:49:23.483Z</time></trkpt><trkpt lat="40.0767667" lon="15.8455017"><ele>757.0</ele><time>2026-05-03T13:49:24.482Z</time></trkpt><trkpt lat="40.0768667" lon="15.8456833"><ele>760.3333333333334</ele><time>2026-05-03T13:49:25.482Z</time></trkpt><trkpt lat="40.0769567" lon="15.8458867"><ele>763.6666666666666</ele><time>2026-05-03T13:49:26.483Z</time></trkpt><trkpt lat="40.0770417" lon="15.84608"><ele>767.0</ele><time>2026-05-03T13:49:27.482Z</time></trkpt><trkpt lat="40.0771167" lon="15.84626"><ele>767.0</ele><time>2026-05-03T13:49:28.483Z</time></trkpt><trkpt lat="40.0771717" lon="15.8464383"><ele>767.0</ele><time>2026-05-03T13:49:29.482Z</time></trkpt><trkpt lat="40.0771983" lon="15.8466117"><ele>767.0</ele><time>2026-05-03T13:49:30.482Z</time></trkpt><trkpt lat="40.0771767" lon="15.8467683"><ele>767.0</ele><time>2026-05-03T13:49:31.482Z</time></trkpt><trkpt lat="40.0771067" lon="15.8469183"><ele>769.3333333333333</ele><time>2026-05-03T13:49:32.483Z</time></trkpt><trkpt lat="40.0770083" lon="15.8470733"><ele>771.6666666666666</ele><time>2026-05-03T13:49:33.483Z</time></trkpt><trkpt lat="40.0768933" lon="15.8472383"><ele>774.0</ele><time>2026-05-03T13:49:34.482Z</time></trkpt><trkpt lat="40.076775" lon="15.8474117"><ele>774.0</ele><time>2026-05-03T13:49:35.483Z</time></trkpt><trkpt lat="40.07665" lon="15.8475883"><ele>774.0</ele><time>2026-05-03T13:49:36.482Z</time></trkpt><trkpt lat="40.0765233" lon="15.8477683"><ele>774.0</ele><time>2026-05-03T13:49:37.482Z</time></trkpt><trkpt lat="40.0763967" lon="15.84796"><ele>775.0</ele><time>2026-05-03T13:49:38.482Z</time></trkpt><trkpt lat="40.076275" lon="15.8481567"><ele>776.0</ele><time>2026-05-03T13:49:39.483Z</time></trkpt><trkpt lat="40.076155" lon="15.8483517"><ele>777.0</ele><time>2026-05-03T13:49:40.481Z</time></trkpt><trkpt lat="40.07605" lon="15.848545"><ele>781.0</ele><time>2026-05-03T13:49:41.483Z</time></trkpt><trkpt lat="40.0759567" lon="15.8487283"><ele>785.0</ele><time>2026-05-03T13:49:42.483Z</time></trkpt><trkpt lat="40.0758617" lon="15.8488983"><ele>789.0</ele><time>2026-05-03T13:49:43.481Z</time></trkpt><trkpt lat="40.0757567" lon="15.84904"><ele>790.6666666666667</ele><time>2026-05-03T13:49:44.483Z</time></trkpt><trkpt lat="40.0756233" lon="15.84914"><ele>792.3333333333334</ele><time>2026-05-03T13:49:45.481Z</time></trkpt><trkpt lat="40.075475" lon="15.849195"><ele>794.0</ele><time>2026-05-03T13:49:46.483Z</time></trkpt><trkpt lat="40.0753183" lon="15.849205"><ele>794.0</ele><time>2026-05-03T13:49:47.483Z</time></trkpt><trkpt lat="40.0751583" lon="15.8491783"><ele>794.0</ele><time>2026-05-03T13:49:48.481Z</time></trkpt><trkpt lat="40.075005" lon="15.849125"><ele>794.0</ele><time>2026-05-03T13:49:49.482Z</time></trkpt><trkpt lat="40.0748767" lon="15.8490317"><ele>791.8000000000001</ele><time>2026-05-03T13:49:50.483Z</time></trkpt><trkpt lat="40.0748117" lon="15.848885"><ele>789.6</ele><time>2026-05-03T13:49:51.482Z</time></trkpt><trkpt lat="40.0747617" lon="15.8487517"><ele>787.4</ele><time>2026-05-03T13:49:52.483Z</time></trkpt><trkpt lat="40.0747133" lon="15.8486317"><ele>785.2</ele><time>2026-05-03T13:49:53.483Z</time></trkpt><trkpt lat="40.0746333" lon="15.8485733"><ele>783.0</ele><time>2026-05-03T13:49:54.483Z</time></trkpt><trkpt lat="40.0745533" lon="15.8485883"><ele>783.0</ele><time>2026-05-03T13:49:55.481Z</time></trkpt><trkpt lat="40.0744867" lon="15.8486783"><ele>783.0</ele><time>2026-05-03T13:49:56.481Z</time></trkpt><trkpt lat="40.0744517" lon="15.848815"><ele>783.0</ele><time>2026-05-03T13:49:57.483Z</time></trkpt><trkpt lat="40.0744567" lon="15.8489717"><ele>783.0</ele><time>2026-05-03T13:49:58.482Z</time></trkpt><trkpt lat="40.0745033" lon="15.8491283"><ele>783.0</ele><time>2026-05-03T13:49:59.483Z</time></trkpt><trkpt lat="40.0745733" lon="15.84929"><ele>783.0</ele><time>2026-05-03T13:50:00.481Z</time></trkpt><trkpt lat="40.0746483" lon="15.8494583"><ele>783.0</ele><time>2026-05-03T13:50:01.482Z</time></trkpt><trkpt lat="40.074695" lon="15.8496317"><ele>783.0</ele><time>2026-05-03T13:50:02.482Z</time></trkpt><trkpt lat="40.0747183" lon="15.8498"><ele>784.0</ele><time>2026-05-03T13:50:03.482Z</time></trkpt><trkpt lat="40.0747117" lon="15.8499767"><ele>785.0</ele><time>2026-05-03T13:50:04.482Z</time></trkpt><trkpt lat="40.074685" lon="15.8501683"><ele>786.0</ele><time>2026-05-03T13:50:05.482Z</time></trkpt><trkpt lat="40.07465" lon="15.8503717"><ele>787.0</ele><time>2026-05-03T13:50:06.481Z</time></trkpt><trkpt lat="40.0746233" lon="15.8505783"><ele>787.0</ele><time>2026-05-03T13:50:07.483Z</time></trkpt><trkpt lat="40.0745433" lon="15.8508217"><ele>787.0</ele><time>2026-05-03T13:50:08.482Z</time></trkpt><trkpt lat="40.0744867" lon="15.85107"><ele>787.0</ele><time>2026-05-03T13:50:09.482Z</time></trkpt><trkpt lat="40.074455" lon="15.8512317"><ele>787.5</ele><time>2026-05-03T13:50:10.483Z</time></trkpt><trkpt lat="40.0743917" lon="15.85137"><ele>788.0</ele><time>2026-05-03T13:50:11.482Z</time></trkpt><trkpt lat="40.0743183" lon="15.8515033"><ele>788.5</ele><time>2026-05-03T13:50:12.483Z</time></trkpt><trkpt lat="40.0742783" lon="15.851655"><ele>789.0</ele><time>2026-05-03T13:50:13.484Z</time></trkpt><trkpt lat="40.0742517" lon="15.8518033"><ele>789.5</ele><time>2026-05-03T13:50:14.483Z</time></trkpt><trkpt lat="40.0742167" lon="15.8519667"><ele>790.0</ele><time>2026-05-03T13:50:15.483Z</time></trkpt><trkpt lat="40.0741767" lon="15.85215"><ele>790.5</ele><time>2026-05-03T13:50:16.481Z</time></trkpt><trkpt lat="40.07411" lon="15.85233"><ele>791.0</ele><time>2026-05-03T13:50:17.482Z</time></trkpt><trkpt lat="40.0740167" lon="15.8525"><ele>790.0</ele><time>2026-05-03T13:50:18.482Z</time></trkpt><trkpt lat="40.0739033" lon="15.85266"><ele>789.0</ele><time>2026-05-03T13:50:19.481Z</time></trkpt><trkpt lat="40.07378" lon="15.8528117"><ele>788.0</ele><time>2026-05-03T13:50:20.482Z</time></trkpt><trkpt lat="40.0736517" lon="15.85297"><ele>788.0</ele><time>2026-05-03T13:50:21.487Z</time></trkpt><trkpt lat="40.0735233" lon="15.8531433"><ele>788.0</ele><time>2026-05-03T13:50:22.482Z</time></trkpt><trkpt lat="40.0733983" lon="15.85332"><ele>788.0</ele><time>2026-05-03T13:50:23.482Z</time></trkpt><trkpt lat="40.0732617" lon="15.8535183"><ele>786.3333333333334</ele><time>2026-05-03T13:50:24.482Z</time></trkpt><trkpt lat="40.0731267" lon="15.8537083"><ele>784.6666666666667</ele><time>2026-05-03T13:50:25.482Z</time></trkpt><trkpt lat="40.0730067" lon="15.8538717"><ele>783.0</ele><time>2026-05-03T13:50:26.483Z</time></trkpt><trkpt lat="40.0728917" lon="15.8540167"><ele>783.0</ele><time>2026-05-03T13:50:27.482Z</time></trkpt><trkpt lat="40.072785" lon="15.8541467"><ele>783.0</ele><time>2026-05-03T13:50:28.482Z</time></trkpt><trkpt lat="40.0727017" lon="15.854255"><ele>783.0</ele><time>2026-05-03T13:50:29.482Z</time></trkpt><trkpt lat="40.07264" lon="15.854345"><ele>783.0</ele><time>2026-05-03T13:50:30.483Z</time></trkpt><trkpt lat="40.0726" lon="15.8544183"><ele>783.0</ele><time>2026-05-03T13:50:31.482Z</time></trkpt><trkpt lat="40.07257" lon="15.8545283"><ele>783.25</ele><time>2026-05-03T13:50:33.483Z</time></trkpt><trkpt lat="40.0725767" lon="15.854625"><ele>783.5</ele><time>2026-05-03T13:50:35.481Z</time></trkpt><trkpt lat="40.0725967" lon="15.854805"><ele>783.75</ele><time>2026-05-03T13:50:37.482Z</time></trkpt><trkpt lat="40.0726267" lon="15.854955"><ele>784.0</ele><time>2026-05-03T13:50:38.483Z</time></trkpt><trkpt lat="40.0726317" lon="15.855115"><ele>784.25</ele><time>2026-05-03T13:50:39.482Z</time></trkpt><trkpt lat="40.07261" lon="15.8552867"><ele>784.5</ele><time>2026-05-03T13:50:40.482Z</time></trkpt><trkpt lat="40.072575" lon="15.8554667"><ele>784.75</ele><time>2026-05-03T13:50:41.483Z</time></trkpt><trkpt lat="40.07254" lon="15.8556517"><ele>785.0</ele><time>2026-05-03T13:50:42.483Z</time></trkpt><trkpt lat="40.0725" lon="15.8558583"><ele>787.0</ele><time>2026-05-03T13:50:43.483Z</time></trkpt><trkpt lat="40.072465" lon="15.85609"><ele>789.0</ele><time>2026-05-03T13:50:44.482Z</time></trkpt><trkpt lat="40.07243" lon="15.8563233"><ele>791.0</ele><time>2026-05-03T13:50:45.482Z</time></trkpt><trkpt lat="40.072395" lon="15.8565517"><ele>786.6666666666667</ele><time>2026-05-03T13:50:46.482Z</time></trkpt><trkpt lat="40.0723583" lon="15.8567833"><ele>782.3333333333333</ele><time>2026-05-03T13:50:47.482Z</time></trkpt><trkpt lat="40.07232" lon="15.8570083"><ele>778.0</ele><time>2026-05-03T13:50:48.482Z</time></trkpt><trkpt lat="40.07228" lon="15.8572233"><ele>778.0</ele><time>2026-05-03T13:50:49.482Z</time></trkpt><trkpt lat="40.0722333" lon="15.8574167"><ele>778.0</ele><time>2026-05-03T13:50:50.484Z</time></trkpt><trkpt lat="40.07217" lon="15.8575967"><ele>778.0</ele><time>2026-05-03T13:50:51.482Z</time></trkpt><trkpt lat="40.0720933" lon="15.8577667"><ele>781.0</ele><time>2026-05-03T13:50:52.482Z</time></trkpt><trkpt lat="40.0720083" lon="15.8579333"><ele>784.0</ele><time>2026-05-03T13:50:53.483Z</time></trkpt><trkpt lat="40.0719217" lon="15.8581117"><ele>787.0</ele><time>2026-05-03T13:50:54.48Z</time></trkpt><trkpt lat="40.07184" lon="15.8583017"><ele>788.3333333333333</ele><time>2026-05-03T13:50:55.48Z</time></trkpt><trkpt lat="40.0717733" lon="15.8585017"><ele>789.6666666666667</ele><time>2026-05-03T13:50:56.482Z</time></trkpt><trkpt lat="40.0717217" lon="15.8587"><ele>791.0</ele><time>2026-05-03T13:50:57.481Z</time></trkpt><trkpt lat="40.0716983" lon="15.8589017"><ele>791.0</ele><time>2026-05-03T13:50:58.48Z</time></trkpt><trkpt lat="40.0716983" lon="15.859105"><ele>791.0</ele><time>2026-05-03T13:50:59.482Z</time></trkpt><trkpt lat="40.0717283" lon="15.8593083"><ele>791.0</ele><time>2026-05-03T13:51:00.482Z</time></trkpt><trkpt lat="40.07179" lon="15.85951"><ele>791.0</ele><time>2026-05-03T13:51:01.481Z</time></trkpt><trkpt lat="40.0718617" lon="15.85971"><ele>791.0</ele><time>2026-05-03T13:51:02.483Z</time></trkpt><trkpt lat="40.0719183" lon="15.8599017"><ele>791.0</ele><time>2026-05-03T13:51:03.48Z</time></trkpt><trkpt lat="40.0719467" lon="15.86008"><ele>794.0</ele><time>2026-05-03T13:51:04.481Z</time></trkpt><trkpt lat="40.071935" lon="15.8602483"><ele>797.0</ele><time>2026-05-03T13:51:05.481Z</time></trkpt><trkpt lat="40.0718817" lon="15.8603933"><ele>800.0</ele><time>2026-05-03T13:51:06.481Z</time></trkpt><trkpt lat="40.0718" lon="15.8605283"><ele>803.0</ele><time>2026-05-03T13:51:07.482Z</time></trkpt><trkpt lat="40.071705" lon="15.8606783"><ele>798.6666666666667</ele><time>2026-05-03T13:51:08.482Z</time></trkpt><trkpt lat="40.0716017" lon="15.860845"><ele>794.3333333333333</ele><time>2026-05-03T13:51:09.481Z</time></trkpt><trkpt lat="40.071505" lon="15.8610217"><ele>790.0</ele><time>2026-05-03T13:51:10.481Z</time></trkpt><trkpt lat="40.071435" lon="15.8612133"><ele>790.0</ele><time>2026-05-03T13:51:11.481Z</time></trkpt><trkpt lat="40.0713883" lon="15.861415"><ele>790.0</ele><time>2026-05-03T13:51:12.481Z</time></trkpt><trkpt lat="40.0713733" lon="15.8616233"><ele>790.0</ele><time>2026-05-03T13:51:13.48Z</time></trkpt><trkpt lat="40.0713833" lon="15.8618317"><ele>792.6666666666666</ele><time>2026-05-03T13:51:14.483Z</time></trkpt><trkpt lat="40.0714067" lon="15.86204"><ele>795.3333333333333</ele><time>2026-05-03T13:51:15.48Z</time></trkpt><trkpt lat="40.0714183" lon="15.862235"><ele>798.0</ele><time>2026-05-03T13:51:16.481Z</time></trkpt><trkpt lat="40.071395" lon="15.8624167"><ele>798.0</ele><time>2026-05-03T13:51:17.48Z</time></trkpt><trkpt lat="40.0713383" lon="15.8625817"><ele>798.0</ele><time>2026-05-03T13:51:18.481Z</time></trkpt><trkpt lat="40.0712533" lon="15.86273"><ele>798.0</ele><time>2026-05-03T13:51:19.483Z</time></trkpt><trkpt lat="40.07114" lon="15.86286"><ele>798.0</ele><time>2026-05-03T13:51:20.481Z</time></trkpt><trkpt lat="40.0710083" lon="15.8629567"><ele>799.25</ele><time>2026-05-03T13:51:21.48Z</time></trkpt><trkpt lat="40.0708667" lon="15.86302"><ele>800.5</ele><time>2026-05-03T13:51:22.483Z</time></trkpt><trkpt lat="40.0707283" lon="15.8630783"><ele>801.75</ele><time>2026-05-03T13:51:23.482Z</time></trkpt><trkpt lat="40.0706067" lon="15.8631633"><ele>803.0</ele><time>2026-05-03T13:51:24.483Z</time></trkpt><trkpt lat="40.0705067" lon="15.8632967"><ele>807.0</ele><time>2026-05-03T13:51:25.482Z</time></trkpt><trkpt lat="40.0704233" lon="15.8634667"><ele>811.0</ele><time>2026-05-03T13:51:26.482Z</time></trkpt><trkpt lat="40.0703467" lon="15.8636667"><ele>815.0</ele><time>2026-05-03T13:51:27.482Z</time></trkpt><trkpt lat="40.070265" lon="15.8638833"><ele>815.0</ele><time>2026-05-03T13:51:28.482Z</time></trkpt><trkpt lat="40.070175" lon="15.86409"><ele>815.0</ele><time>2026-05-03T13:51:29.482Z</time></trkpt><trkpt lat="40.0700733" lon="15.8642683"><ele>815.0</ele><time>2026-05-03T13:51:30.481Z</time></trkpt><trkpt lat="40.0699667" lon="15.8644017"><ele>818.25</ele><time>2026-05-03T13:51:31.483Z</time></trkpt><trkpt lat="40.0698433" lon="15.8644883"><ele>821.5</ele><time>2026-05-03T13:51:32.482Z</time></trkpt><trkpt lat="40.069705" lon="15.8645367"><ele>824.75</ele><time>2026-05-03T13:51:33.482Z</time></trkpt><trkpt lat="40.069555" lon="15.86456"><ele>828.0</ele><time>2026-05-03T13:51:34.482Z</time></trkpt><trkpt lat="40.0693917" lon="15.8645533"><ele>828.0</ele><time>2026-05-03T13:51:35.482Z</time></trkpt><trkpt lat="40.06922" lon="15.8645183"><ele>828.0</ele><time>2026-05-03T13:51:36.481Z</time></trkpt><trkpt lat="40.0690483" lon="15.8644667"><ele>828.0</ele><time>2026-05-03T13:51:37.481Z</time></trkpt><trkpt lat="40.06887" lon="15.864415"><ele>828.0</ele><time>2026-05-03T13:51:38.481Z</time></trkpt><trkpt lat="40.0686833" lon="15.8643717"><ele>828.0</ele><time>2026-05-03T13:51:39.481Z</time></trkpt><trkpt lat="40.068485" lon="15.86433"><ele>828.0</ele><time>2026-05-03T13:51:40.482Z</time></trkpt><trkpt lat="40.0682833" lon="15.8642983"><ele>826.3333333333333</ele><time>2026-05-03T13:51:41.481Z</time></trkpt><trkpt lat="40.068085" lon="15.8642783"><ele>824.6666666666666</ele><time>2026-05-03T13:51:42.482Z</time></trkpt><trkpt lat="40.067905" lon="15.8642767"><ele>823.0</ele><time>2026-05-03T13:51:43.481Z</time></trkpt><trkpt lat="40.0677467" lon="15.8642933"><ele>825.75</ele><time>2026-05-03T13:51:44.48Z</time></trkpt><trkpt lat="40.0676133" lon="15.8643383"><ele>828.5</ele><time>2026-05-03T13:51:45.48Z</time></trkpt><trkpt lat="40.0675067" lon="15.864405"><ele>831.25</ele><time>2026-05-03T13:51:46.481Z</time></trkpt><trkpt lat="40.0674317" lon="15.8645017"><ele>834.0</ele><time>2026-05-03T13:51:47.48Z</time></trkpt><trkpt lat="40.06739" lon="15.86462"><ele>834.0</ele><time>2026-05-03T13:51:48.48Z</time></trkpt><trkpt lat="40.0673967" lon="15.8647567"><ele>834.0</ele><time>2026-05-03T13:51:49.482Z</time></trkpt><trkpt lat="40.06745" lon="15.8648783"><ele>834.0</ele><time>2026-05-03T13:51:50.481Z</time></trkpt><trkpt lat="40.0675467" lon="15.8649683"><ele>834.0</ele><time>2026-05-03T13:51:51.481Z</time></trkpt><trkpt lat="40.0676717" lon="15.8650383"><ele>834.0</ele><time>2026-05-03T13:51:52.481Z</time></trkpt><trkpt lat="40.0678233" lon="15.86509"><ele>834.0</ele><time>2026-05-03T13:51:53.483Z</time></trkpt><trkpt lat="40.0679933" lon="15.86514"><ele>834.0</ele><time>2026-05-03T13:51:54.48Z</time></trkpt><trkpt lat="40.0681767" lon="15.865195"><ele>836.0</ele><time>2026-05-03T13:51:55.482Z</time></trkpt><trkpt lat="40.068365" lon="15.865255"><ele>838.0</ele><time>2026-05-03T13:51:56.482Z</time></trkpt><trkpt lat="40.0685533" lon="15.8653133"><ele>840.0</ele><time>2026-05-03T13:51:57.48Z</time></trkpt><trkpt lat="40.0687417" lon="15.8653583"><ele>840.0</ele><time>2026-05-03T13:51:58.482Z</time></trkpt><trkpt lat="40.0689233" lon="15.86539"><ele>840.0</ele><time>2026-05-03T13:51:59.481Z</time></trkpt><trkpt lat="40.0690917" lon="15.8654083"><ele>840.0</ele><time>2026-05-03T13:52:00.481Z</time></trkpt><trkpt lat="40.0692467" lon="15.8654117"><ele>840.5</ele><time>2026-05-03T13:52:01.481Z</time></trkpt><trkpt lat="40.06939" lon="15.865415"><ele>841.0</ele><time>2026-05-03T13:52:02.482Z</time></trkpt><trkpt lat="40.0695183" lon="15.8654383"><ele>841.5</ele><time>2026-05-03T13:52:03.48Z</time></trkpt><trkpt lat="40.06963" lon="15.8654983"><ele>842.0</ele><time>2026-05-03T13:52:04.481Z</time></trkpt><trkpt lat="40.0697283" lon="15.8655967"><ele>842.0</ele><time>2026-05-03T13:52:05.481Z</time></trkpt><trkpt lat="40.0698217" lon="15.86572"><ele>842.0</ele><time>2026-05-03T13:52:06.482Z</time></trkpt><trkpt lat="40.0699283" lon="15.86585"><ele>842.0</ele><time>2026-05-03T13:52:07.481Z</time></trkpt><trkpt lat="40.0700517" lon="15.86598"><ele>842.0</ele><time>2026-05-03T13:52:08.482Z</time></trkpt><trkpt lat="40.07018" lon="15.8661067"><ele>844.5</ele><time>2026-05-03T13:52:09.48Z</time></trkpt><trkpt lat="40.0703" lon="15.8662217"><ele>847.0</ele><time>2026-05-03T13:52:10.481Z</time></trkpt><trkpt lat="40.07041" lon="15.8663133"><ele>849.5</ele><time>2026-05-03T13:52:11.481Z</time></trkpt><trkpt lat="40.070525" lon="15.8663583"><ele>852.0</ele><time>2026-05-03T13:52:12.481Z</time></trkpt><trkpt lat="40.0706433" lon="15.8663533"><ele>852.0</ele><time>2026-05-03T13:52:13.481Z</time></trkpt><trkpt lat="40.0707567" lon="15.8662917"><ele>852.0</ele><time>2026-05-03T13:52:14.481Z</time></trkpt><trkpt lat="40.0708433" lon="15.8661833"><ele>852.0</ele><time>2026-05-03T13:52:15.48Z</time></trkpt><trkpt lat="40.0708933" lon="15.86604"><ele>852.0</ele><time>2026-05-03T13:52:16.482Z</time></trkpt><trkpt lat="40.070905" lon="15.8658683"><ele>851.5</ele><time>2026-05-03T13:52:17.481Z</time></trkpt><trkpt lat="40.0708967" lon="15.8656833"><ele>851.0</ele><time>2026-05-03T13:52:18.481Z</time></trkpt><trkpt lat="40.070885" lon="15.8654917"><ele>850.5</ele><time>2026-05-03T13:52:19.482Z</time></trkpt><trkpt lat="40.0708883" lon="15.8653067"><ele>850.0</ele><time>2026-05-03T13:52:20.481Z</time></trkpt><trkpt lat="40.0709317" lon="15.8651333"><ele>848.75</ele><time>2026-05-03T13:52:21.481Z</time></trkpt><trkpt lat="40.0709967" lon="15.8649817"><ele>847.5</ele><time>2026-05-03T13:52:22.482Z</time></trkpt><trkpt lat="40.0711033" lon="15.8649183"><ele>846.25</ele><time>2026-05-03T13:52:23.481Z</time></trkpt><trkpt lat="40.0711983" lon="15.8649133"><ele>845.0</ele><time>2026-05-03T13:52:24.483Z</time></trkpt><trkpt lat="40.07128" lon="15.865"><ele>845.0</ele><time>2026-05-03T13:52:25.482Z</time></trkpt><trkpt lat="40.0714117" lon="15.8650233"><ele>845.0</ele><time>2026-05-03T13:52:26.482Z</time></trkpt><trkpt lat="40.071555" lon="15.8649667"><ele>845.0</ele><time>2026-05-03T13:52:27.482Z</time></trkpt><trkpt lat="40.0716767" lon="15.8649067"><ele>845.0</ele><time>2026-05-03T13:52:28.481Z</time></trkpt><trkpt lat="40.071805" lon="15.864835"><ele>847.75</ele><time>2026-05-03T13:52:29.481Z</time></trkpt><trkpt lat="40.07193" lon="15.86475"><ele>850.5</ele><time>2026-05-03T13:52:30.482Z</time></trkpt><trkpt lat="40.0720467" lon="15.864665"><ele>853.25</ele><time>2026-05-03T13:52:31.481Z</time></trkpt><trkpt lat="40.0721817" lon="15.86463"><ele>856.0</ele><time>2026-05-03T13:52:32.48Z</time></trkpt><trkpt lat="40.07233" lon="15.8646367"><ele>857.75</ele><time>2026-05-03T13:52:33.48Z</time></trkpt><trkpt lat="40.0724717" lon="15.864645"><ele>859.5</ele><time>2026-05-03T13:52:34.481Z</time></trkpt><trkpt lat="40.0726017" lon="15.864645"><ele>861.25</ele><time>2026-05-03T13:52:35.482Z</time></trkpt><trkpt lat="40.0727" lon="15.8646183"><ele>863.0</ele><time>2026-05-03T13:52:36.481Z</time></trkpt><trkpt lat="40.07279" lon="15.8645583"><ele>863.0</ele><time>2026-05-03T13:52:37.48Z</time></trkpt><trkpt lat="40.072875" lon="15.86446"><ele>863.0</ele><time>2026-05-03T13:52:38.482Z</time></trkpt><trkpt lat="40.0729483" lon="15.864335"><ele>863.0</ele><time>2026-05-03T13:52:39.48Z</time></trkpt><trkpt lat="40.0730117" lon="15.8641933"><ele>863.0</ele><time>2026-05-03T13:52:40.481Z</time></trkpt><trkpt lat="40.0730733" lon="15.8640367"><ele>865.25</ele><time>2026-05-03T13:52:41.481Z</time></trkpt><trkpt lat="40.0731383" lon="15.8638783"><ele>867.5</ele><time>2026-05-03T13:52:42.48Z</time></trkpt><trkpt lat="40.0732017" lon="15.8637267"><ele>869.75</ele><time>2026-05-03T13:52:43.481Z</time></trkpt><trkpt lat="40.0732717" lon="15.8635867"><ele>872.0</ele><time>2026-05-03T13:52:44.482Z</time></trkpt><trkpt lat="40.073355" lon="15.863485"><ele>872.0</ele><time>2026-05-03T13:52:45.482Z</time></trkpt><trkpt lat="40.0734533" lon="15.86344"><ele>872.0</ele><time>2026-05-03T13:52:46.481Z</time></trkpt><trkpt lat="40.073555" lon="15.8634483"><ele>872.0</ele><time>2026-05-03T13:52:47.482Z</time></trkpt><trkpt lat="40.0736483" lon="15.86354"><ele>872.0</ele><time>2026-05-03T13:52:48.481Z</time></trkpt><trkpt lat="40.07372" lon="15.8636683"><ele>872.0</ele><time>2026-05-03T13:52:49.482Z</time></trkpt><trkpt lat="40.0737717" lon="15.8638133"><ele>872.0</ele><time>2026-05-03T13:52:50.482Z</time></trkpt><trkpt lat="40.0738067" lon="15.8639633"><ele>872.0</ele><time>2026-05-03T13:52:51.482Z</time></trkpt><trkpt lat="40.0738283" lon="15.864105"><ele>872.0</ele><time>2026-05-03T13:52:52.482Z</time></trkpt><trkpt lat="40.07383" lon="15.864235"><ele>872.0</ele><time>2026-05-03T13:52:53.481Z</time></trkpt><trkpt lat="40.0738183" lon="15.86436"><ele>872.0</ele><time>2026-05-03T13:52:54.481Z</time></trkpt><trkpt lat="40.073785" lon="15.864475"><ele>873.0000000000001</ele><time>2026-05-03T13:52:55.483Z</time></trkpt><trkpt lat="40.07374" lon="15.8645917"><ele>874.0</ele><time>2026-05-03T13:52:56.482Z</time></trkpt><trkpt lat="40.0737033" lon="15.864705"><ele>875.0</ele><time>2026-05-03T13:52:57.482Z</time></trkpt><trkpt lat="40.0736867" lon="15.8648133"><ele>876.0</ele><time>2026-05-03T13:52:58.481Z</time></trkpt><trkpt lat="40.0737167" lon="15.864905"><ele>877.0000000000001</ele><time>2026-05-03T13:52:59.483Z</time></trkpt><trkpt lat="40.0737667" lon="15.8649667"><ele>878.0</ele><time>2026-05-03T13:53:00.481Z</time></trkpt><trkpt lat="40.07383" lon="15.865005"><ele>878.0000000000001</ele><time>2026-05-03T13:53:01.482Z</time></trkpt><trkpt lat="40.0738933" lon="15.8649817"><ele>878.0</ele><time>2026-05-03T13:53:02.481Z</time></trkpt><trkpt lat="40.0739517" lon="15.86492"><ele>878.0</ele><time>2026-05-03T13:53:03.481Z</time></trkpt><trkpt lat="40.0739967" lon="15.8648333"><ele>878.0</ele><time>2026-05-03T13:53:04.482Z</time></trkpt><trkpt lat="40.0740367" lon="15.8647183"><ele>878.0000000000001</ele><time>2026-05-03T13:53:05.481Z</time></trkpt><trkpt lat="40.074095" lon="15.864645"><ele>878.0</ele><time>2026-05-03T13:53:06.481Z</time></trkpt><trkpt lat="40.07413" lon="15.8645583"><ele>875.0</ele><time>2026-05-03T13:53:07.481Z</time></trkpt><trkpt lat="40.0741917" lon="15.8644"><ele>872.0</ele><time>2026-05-03T13:53:08.483Z</time></trkpt><trkpt lat="40.0742533" lon="15.8642383"><ele>869.0</ele><time>2026-05-03T13:53:09.482Z</time></trkpt><trkpt lat="40.0743083" lon="15.8640883"><ele>866.0</ele><time>2026-05-03T13:53:10.482Z</time></trkpt><trkpt lat="40.0743333" lon="15.8639383"><ele>865.5999999999999</ele><time>2026-05-03T13:53:11.481Z</time></trkpt><trkpt lat="40.074355" lon="15.8638033"><ele>865.1999999999999</ele><time>2026-05-03T13:53:12.48Z</time></trkpt><trkpt lat="40.074375" lon="15.8636783"><ele>864.8000000000001</ele><time>2026-05-03T13:53:13.482Z</time></trkpt><trkpt lat="40.0743917" lon="15.863565"><ele>864.4000000000001</ele><time>2026-05-03T13:53:14.481Z</time></trkpt><trkpt lat="40.0743933" lon="15.8634533"><ele>864.0</ele><time>2026-05-03T13:53:15.482Z</time></trkpt><trkpt lat="40.0744117" lon="15.863295"><ele>862.8333333333334</ele><time>2026-05-03T13:53:17.481Z</time></trkpt><trkpt lat="40.0744217" lon="15.8631483"><ele>861.6666666666667</ele><time>2026-05-03T13:53:19.484Z</time></trkpt><trkpt lat="40.074425" lon="15.8630083"><ele>860.5</ele><time>2026-05-03T13:53:21.482Z</time></trkpt><trkpt lat="40.0744267" lon="15.8628983"><ele>859.3333333333334</ele><time>2026-05-03T13:53:23.481Z</time></trkpt><trkpt lat="40.0744217" lon="15.8628033"><ele>858.1666666666667</ele><time>2026-05-03T13:53:25.482Z</time></trkpt><trkpt lat="40.0744167" lon="15.8627167"><ele>857.0</ele><time>2026-05-03T13:53:27.481Z</time></trkpt><trkpt lat="40.074365" lon="15.86277"><ele>857.0</ele><time>2026-05-03T13:53:33.48Z</time></trkpt><trkpt lat="40.0743583" lon="15.8629533"><ele>857.0</ele><time>2026-05-03T13:53:35.482Z</time></trkpt><trkpt lat="40.0743583" lon="15.8631083"><ele>857.0</ele><time>2026-05-03T13:53:36.482Z</time></trkpt><trkpt lat="40.07435" lon="15.8632883"><ele>857.0</ele><time>2026-05-03T13:53:37.484Z</time></trkpt><trkpt lat="40.0743367" lon="15.8634617"><ele>858.75</ele><time>2026-05-03T13:53:38.482Z</time></trkpt><trkpt lat="40.0743083" lon="15.8636367"><ele>860.5</ele><time>2026-05-03T13:53:39.482Z</time></trkpt><trkpt lat="40.07428" lon="15.8638133"><ele>862.25</ele><time>2026-05-03T13:53:40.482Z</time></trkpt><trkpt lat="40.0742483" lon="15.8640033"><ele>864.0</ele><time>2026-05-03T13:53:41.482Z</time></trkpt><trkpt lat="40.0742067" lon="15.8641417"><ele>864.0</ele><time>2026-05-03T13:53:42.48Z</time></trkpt><trkpt lat="40.0741667" lon="15.8642567"><ele>864.0000000000001</ele><time>2026-05-03T13:53:43.482Z</time></trkpt><trkpt lat="40.0741217" lon="15.864335"><ele>864.0000000000001</ele><time>2026-05-03T13:53:44.481Z</time></trkpt><trkpt lat="40.07404" lon="15.864415"><ele>864.0</ele><time>2026-05-03T13:53:46.481Z</time></trkpt><trkpt lat="40.073935" lon="15.8644633"><ele>864.0</ele><time>2026-05-03T13:53:48.486Z</time></trkpt><trkpt lat="40.07383" lon="15.8644617"><ele>866.8000000000001</ele><time>2026-05-03T13:53:50.483Z</time></trkpt><trkpt lat="40.0737383" lon="15.8645767"><ele>869.6000000000001</ele><time>2026-05-03T13:53:52.482Z</time></trkpt><trkpt lat="40.0737067" lon="15.8646533"><ele>872.4</ele><time>2026-05-03T13:53:53.483Z</time></trkpt><trkpt lat="40.073685" lon="15.8647383"><ele>875.2</ele><time>2026-05-03T13:53:54.482Z</time></trkpt><trkpt lat="40.0737067" lon="15.8648783"><ele>878.0</ele><time>2026-05-03T13:53:56.482Z</time></trkpt><trkpt lat="40.0737817" lon="15.864965"><ele>878.0000000000001</ele><time>2026-05-03T13:53:58.482Z</time></trkpt><trkpt lat="40.07384" lon="15.8650133"><ele>878.0</ele><time>2026-05-03T13:54:00.482Z</time></trkpt><trkpt lat="40.0738983" lon="15.8651083"><ele>878.0</ele><time>2026-05-03T13:54:03.482Z</time></trkpt><trkpt lat="40.0739233" lon="15.8652017"><ele>878.0</ele><time>2026-05-03T13:54:05.48Z</time></trkpt><trkpt lat="40.07392" lon="15.865285"><ele>878.0000000000001</ele><time>2026-05-03T13:54:07.481Z</time></trkpt><trkpt lat="40.073925" lon="15.86545"><ele>878.0</ele><time>2026-05-03T13:54:09.481Z</time></trkpt><trkpt lat="40.073865" lon="15.8653617"><ele>878.3333333333334</ele><time>2026-05-03T13:54:36.481Z</time></trkpt><trkpt lat="40.0738733" lon="15.865475"><ele>878.6666666666667</ele><time>2026-05-03T13:54:43.482Z</time></trkpt><trkpt lat="40.0738883" lon="15.865635"><ele>879.0</ele><time>2026-05-03T13:54:45.482Z</time></trkpt><trkpt lat="40.073905" lon="15.865725"><ele>879.3333333333333</ele><time>2026-05-03T13:54:46.48Z</time></trkpt><trkpt lat="40.0739267" lon="15.8658233"><ele>879.6666666666666</ele><time>2026-05-03T13:54:47.481Z</time></trkpt><trkpt lat="40.073945" lon="15.8659233"><ele>880.0</ele><time>2026-05-03T13:54:48.48Z</time></trkpt><trkpt lat="40.0739567" lon="15.8660133"><ele>880.8</ele><time>2026-05-03T13:54:49.481Z</time></trkpt><trkpt lat="40.0739617" lon="15.8661317"><ele>881.6</ele><time>2026-05-03T13:54:51.482Z</time></trkpt><trkpt lat="40.0739633" lon="15.8662333"><ele>882.4000000000001</ele><time>2026-05-03T13:54:53.48Z</time></trkpt><trkpt lat="40.0739783" lon="15.86635"><ele>883.2</ele><time>2026-05-03T13:54:55.482Z</time></trkpt><trkpt lat="40.0739917" lon="15.8665267"><ele>884.0</ele><time>2026-05-03T13:54:57.486Z</time></trkpt><trkpt lat="40.0739967" lon="15.8666533"><ele>883.25</ele><time>2026-05-03T13:54:58.481Z</time></trkpt><trkpt lat="40.0740067" lon="15.8668083"><ele>882.5</ele><time>2026-05-03T13:54:59.481Z</time></trkpt><trkpt lat="40.0740133" lon="15.8669683"><ele>881.75</ele><time>2026-05-03T13:55:00.483Z</time></trkpt><trkpt lat="40.0740183" lon="15.867135"><ele>881.0</ele><time>2026-05-03T13:55:01.481Z</time></trkpt><trkpt lat="40.074015" lon="15.867305"><ele>881.0</ele><time>2026-05-03T13:55:02.482Z</time></trkpt><trkpt lat="40.074005" lon="15.8674917"><ele>881.0</ele><time>2026-05-03T13:55:03.481Z</time></trkpt><trkpt lat="40.0739867" lon="15.867685"><ele>881.0</ele><time>2026-05-03T13:55:04.482Z</time></trkpt><trkpt lat="40.0739633" lon="15.8678867"><ele>881.0</ele><time>2026-05-03T13:55:05.48Z</time></trkpt><trkpt lat="40.0739383" lon="15.8681"><ele>881.0</ele><time>2026-05-03T13:55:06.481Z</time></trkpt><trkpt lat="40.0739117" lon="15.8683283"><ele>881.0</ele><time>2026-05-03T13:55:07.48Z</time></trkpt><trkpt lat="40.0738833" lon="15.8685633"><ele>881.0</ele><time>2026-05-03T13:55:08.482Z</time></trkpt><trkpt lat="40.073865" lon="15.8688067"><ele>881.6666666666667</ele><time>2026-05-03T13:55:09.481Z</time></trkpt><trkpt lat="40.0738333" lon="15.8690417"><ele>882.3333333333333</ele><time>2026-05-03T13:55:10.482Z</time></trkpt><trkpt lat="40.07381" lon="15.869285"><ele>883.0</ele><time>2026-05-03T13:55:11.482Z</time></trkpt><trkpt lat="40.0738067" lon="15.86955"><ele>884.0</ele><time>2026-05-03T13:55:12.482Z</time></trkpt><trkpt lat="40.07381" lon="15.8698167"><ele>885.0</ele><time>2026-05-03T13:55:13.48Z</time></trkpt><trkpt lat="40.0738183" lon="15.8700967"><ele>886.0</ele><time>2026-05-03T13:55:14.482Z</time></trkpt><trkpt lat="40.0738367" lon="15.8703817"><ele>881.5</ele><time>2026-05-03T13:55:15.481Z</time></trkpt><trkpt lat="40.0738717" lon="15.87068"><ele>877.0</ele><time>2026-05-03T13:55:16.481Z</time></trkpt><trkpt lat="40.073915" lon="15.8709817"><ele>875.6666666666666</ele><time>2026-05-03T13:55:17.482Z</time></trkpt><trkpt lat="40.07396" lon="15.8712683"><ele>874.3333333333333</ele><time>2026-05-03T13:55:18.481Z</time></trkpt><trkpt lat="40.0740067" lon="15.871545"><ele>873.0</ele><time>2026-05-03T13:55:19.485Z</time></trkpt><trkpt lat="40.074055" lon="15.8718267"><ele>876.0</ele><time>2026-05-03T13:55:20.482Z</time></trkpt><trkpt lat="40.0741" lon="15.8721067"><ele>879.0</ele><time>2026-05-03T13:55:21.482Z</time></trkpt><trkpt lat="40.0741433" lon="15.8723833"><ele>882.0</ele><time>2026-05-03T13:55:22.48Z</time></trkpt><trkpt lat="40.0741867" lon="15.8726567"><ele>876.3333333333333</ele><time>2026-05-03T13:55:23.482Z</time></trkpt><trkpt lat="40.0742283" lon="15.8729283"><ele>870.6666666666666</ele><time>2026-05-03T13:55:24.48Z</time></trkpt><trkpt lat="40.0742683" lon="15.8731933"><ele>865.0</ele><time>2026-05-03T13:55:25.481Z</time></trkpt><trkpt lat="40.074305" lon="15.8734583"><ele>865.0</ele><time>2026-05-03T13:55:26.482Z</time></trkpt><trkpt lat="40.0743367" lon="15.873725"><ele>865.0</ele><time>2026-05-03T13:55:27.481Z</time></trkpt><trkpt lat="40.07436" lon="15.8739933"><ele>865.0</ele><time>2026-05-03T13:55:28.482Z</time></trkpt><trkpt lat="40.0743717" lon="15.8742633"><ele>863.6666666666666</ele><time>2026-05-03T13:55:29.48Z</time></trkpt><trkpt lat="40.074375" lon="15.874535"><ele>862.3333333333333</ele><time>2026-05-03T13:55:30.481Z</time></trkpt><trkpt lat="40.0743683" lon="15.87481"><ele>861.0</ele><time>2026-05-03T13:55:31.482Z</time></trkpt><trkpt lat="40.0743483" lon="15.8750933"><ele>852.5</ele><time>2026-05-03T13:55:32.482Z</time></trkpt><trkpt lat="40.0743117" lon="15.8753817"><ele>844.0</ele><time>2026-05-03T13:55:33.481Z</time></trkpt><trkpt lat="40.0742567" lon="15.8756733"><ele>838.5</ele><time>2026-05-03T13:55:34.482Z</time></trkpt><trkpt lat="40.0741867" lon="15.8759633"><ele>833.0</ele><time>2026-05-03T13:55:35.481Z</time></trkpt><trkpt lat="40.0740967" lon="15.8762467"><ele>845.0</ele><time>2026-05-03T13:55:36.482Z</time></trkpt><trkpt lat="40.0739933" lon="15.8765283"><ele>857.0</ele><time>2026-05-03T13:55:37.48Z</time></trkpt><trkpt lat="40.0738733" lon="15.8768033"><ele>858.0</ele><time>2026-05-03T13:55:38.482Z</time></trkpt><trkpt lat="40.0737417" lon="15.8770683"><ele>859.0</ele><time>2026-05-03T13:55:39.481Z</time></trkpt><trkpt lat="40.0735967" lon="15.8773267"><ele>859.0</ele><time>2026-05-03T13:55:40.482Z</time></trkpt><trkpt lat="40.073445" lon="15.8775817"><ele>859.0</ele><time>2026-05-03T13:55:41.482Z</time></trkpt><trkpt lat="40.07329" lon="15.87784"><ele>837.0</ele><time>2026-05-03T13:55:42.481Z</time></trkpt><trkpt lat="40.0724767" lon="15.8791167"><ele>833.0</ele><time>2026-05-03T13:55:47.482Z</time></trkpt><trkpt lat="40.0723133" lon="15.879345"><ele>829.0</ele><time>2026-05-03T13:55:48.481Z</time></trkpt><trkpt lat="40.07215" lon="15.8795983"><ele>829.0</ele><time>2026-05-03T13:55:49.482Z</time></trkpt><trkpt lat="40.0719783" lon="15.8798283"><ele>829.0</ele><time>2026-05-03T13:55:50.481Z</time></trkpt><trkpt lat="40.0718067" lon="15.880055"><ele>827.0</ele><time>2026-05-03T13:55:51.481Z</time></trkpt><trkpt lat="40.071645" lon="15.8802883"><ele>825.0</ele><time>2026-05-03T13:55:52.483Z</time></trkpt><trkpt lat="40.071475" lon="15.88052"><ele>825.0</ele><time>2026-05-03T13:55:53.482Z</time></trkpt><trkpt lat="40.0713183" lon="15.8807583"><ele>825.0</ele><time>2026-05-03T13:55:54.481Z</time></trkpt><trkpt lat="40.0711767" lon="15.88101"><ele>819.0</ele><time>2026-05-03T13:55:55.481Z</time></trkpt><trkpt lat="40.0710467" lon="15.881275"><ele>813.0</ele><time>2026-05-03T13:55:56.481Z</time></trkpt><trkpt lat="40.0709267" lon="15.8815533"><ele>812.0</ele><time>2026-05-03T13:55:57.481Z</time></trkpt><trkpt lat="40.0708167" lon="15.8818433"><ele>811.0</ele><time>2026-05-03T13:55:58.481Z</time></trkpt><trkpt lat="40.07072" lon="15.8821517"><ele>817.0</ele><time>2026-05-03T13:55:59.482Z</time></trkpt><trkpt lat="40.0706333" lon="15.8824683"><ele>823.0</ele><time>2026-05-03T13:56:00.481Z</time></trkpt><trkpt lat="40.07056" lon="15.8827933"><ele>823.0</ele><time>2026-05-03T13:56:01.48Z</time></trkpt><trkpt lat="40.0705017" lon="15.8831267"><ele>823.0</ele><time>2026-05-03T13:56:02.482Z</time></trkpt><trkpt lat="40.070455" lon="15.8834683"><ele>819.0</ele><time>2026-05-03T13:56:03.482Z</time></trkpt><trkpt lat="40.0704233" lon="15.883815"><ele>815.0</ele><time>2026-05-03T13:56:04.48Z</time></trkpt><trkpt lat="40.0704033" lon="15.8841667"><ele>813.0</ele><time>2026-05-03T13:56:05.481Z</time></trkpt><trkpt lat="40.0703983" lon="15.8845217"><ele>811.0</ele><time>2026-05-03T13:56:06.482Z</time></trkpt><trkpt lat="40.0704117" lon="15.88488"><ele>812.0</ele><time>2026-05-03T13:56:07.48Z</time></trkpt><trkpt lat="40.0704417" lon="15.88524"><ele>813.0</ele><time>2026-05-03T13:56:08.482Z</time></trkpt><trkpt lat="40.0704867" lon="15.8855967"><ele>813.5</ele><time>2026-05-03T13:56:09.482Z</time></trkpt><trkpt lat="40.0705433" lon="15.8859467"><ele>814.0</ele><time>2026-05-03T13:56:10.482Z</time></trkpt><trkpt lat="40.0706133" lon="15.88629"><ele>814.0</ele><time>2026-05-03T13:56:11.481Z</time></trkpt><trkpt lat="40.0706983" lon="15.886625"><ele>814.0</ele><time>2026-05-03T13:56:12.481Z</time></trkpt><trkpt lat="40.0708" lon="15.886955"><ele>810.5</ele><time>2026-05-03T13:56:13.482Z</time></trkpt><trkpt lat="40.0709183" lon="15.8872817"><ele>807.0</ele><time>2026-05-03T13:56:14.482Z</time></trkpt><trkpt lat="40.0710433" lon="15.8875967"><ele>807.0</ele><time>2026-05-03T13:56:15.48Z</time></trkpt><trkpt lat="40.0711783" lon="15.8879033"><ele>807.0</ele><time>2026-05-03T13:56:16.481Z</time></trkpt><trkpt lat="40.0713167" lon="15.888205"><ele>813.0</ele><time>2026-05-03T13:56:17.481Z</time></trkpt><trkpt lat="40.07145" lon="15.8885083"><ele>819.0</ele><time>2026-05-03T13:56:18.481Z</time></trkpt><trkpt lat="40.0715883" lon="15.88881"><ele>803.0</ele><time>2026-05-03T13:56:19.482Z</time></trkpt><trkpt lat="40.0718683" lon="15.8894083"><ele>803.0</ele><time>2026-05-03T13:56:21.481Z</time></trkpt><trkpt lat="40.0720117" lon="15.8897217"><ele>803.0</ele><time>2026-05-03T13:56:22.481Z</time></trkpt><trkpt lat="40.0721533" lon="15.8900267"><ele>801.5</ele><time>2026-05-03T13:56:23.481Z</time></trkpt><trkpt lat="40.0722917" lon="15.8903217"><ele>800.0</ele><time>2026-05-03T13:56:24.482Z</time></trkpt><trkpt lat="40.07243" lon="15.8906167"><ele>793.0</ele><time>2026-05-03T13:56:25.482Z</time></trkpt><trkpt lat="40.07257" lon="15.890915"><ele>786.0</ele><time>2026-05-03T13:56:26.482Z</time></trkpt><trkpt lat="40.0727117" lon="15.8912017"><ele>786.0</ele><time>2026-05-03T13:56:27.481Z</time></trkpt><trkpt lat="40.0728517" lon="15.8914783"><ele>786.0</ele><time>2026-05-03T13:56:28.482Z</time></trkpt><trkpt lat="40.072995" lon="15.8917383"><ele>789.0</ele><time>2026-05-03T13:56:29.482Z</time></trkpt><trkpt lat="40.0731367" lon="15.8920067"><ele>792.0</ele><time>2026-05-03T13:56:30.481Z</time></trkpt><trkpt lat="40.07329" lon="15.8922633"><ele>787.5</ele><time>2026-05-03T13:56:31.481Z</time></trkpt><trkpt lat="40.07345" lon="15.8925283"><ele>783.0</ele><time>2026-05-03T13:56:32.481Z</time></trkpt><trkpt lat="40.07363" lon="15.8927867"><ele>783.0</ele><time>2026-05-03T13:56:33.48Z</time></trkpt><trkpt lat="40.0738233" lon="15.8930417"><ele>783.0</ele><time>2026-05-03T13:56:34.481Z</time></trkpt><trkpt lat="40.0740267" lon="15.8932933"><ele>785.0</ele><time>2026-05-03T13:56:35.482Z</time></trkpt><trkpt lat="40.07423" lon="15.8935467"><ele>787.0</ele><time>2026-05-03T13:56:36.482Z</time></trkpt><trkpt lat="40.0744367" lon="15.8938"><ele>787.0</ele><time>2026-05-03T13:56:37.481Z</time></trkpt><trkpt lat="40.0746433" lon="15.894055"><ele>787.0</ele><time>2026-05-03T13:56:38.483Z</time></trkpt><trkpt lat="40.07485" lon="15.8943133"><ele>783.5</ele><time>2026-05-03T13:56:39.48Z</time></trkpt><trkpt lat="40.0750533" lon="15.8945683"><ele>780.0</ele><time>2026-05-03T13:56:40.482Z</time></trkpt><trkpt lat="40.0752317" lon="15.8948317"><ele>781.5</ele><time>2026-05-03T13:56:41.482Z</time></trkpt><trkpt lat="40.0754" lon="15.8950967"><ele>783.0</ele><time>2026-05-03T13:56:42.483Z</time></trkpt><trkpt lat="40.0755533" lon="15.8953667"><ele>783.0</ele><time>2026-05-03T13:56:43.482Z</time></trkpt><trkpt lat="40.0756933" lon="15.895635"><ele>783.0</ele><time>2026-05-03T13:56:44.483Z</time></trkpt><trkpt lat="40.0758183" lon="15.895905"><ele>773.5</ele><time>2026-05-03T13:56:45.483Z</time></trkpt><trkpt lat="40.07594" lon="15.8961733"><ele>764.0</ele><time>2026-05-03T13:56:46.482Z</time></trkpt><trkpt lat="40.0760583" lon="15.89643"><ele>764.0</ele><time>2026-05-03T13:56:47.482Z</time></trkpt><trkpt lat="40.0761883" lon="15.8966983"><ele>764.0</ele><time>2026-05-03T13:56:48.481Z</time></trkpt><trkpt lat="40.076315" lon="15.8969667"><ele>762.0</ele><time>2026-05-03T13:56:49.482Z</time></trkpt><trkpt lat="40.0764417" lon="15.8972367"><ele>760.0</ele><time>2026-05-03T13:56:50.485Z</time></trkpt><trkpt lat="40.0765733" lon="15.8975017"><ele>758.0</ele><time>2026-05-03T13:56:51.481Z</time></trkpt><trkpt lat="40.0766967" lon="15.8977667"><ele>756.0</ele><time>2026-05-03T13:56:52.482Z</time></trkpt><trkpt lat="40.0768217" lon="15.8980383"><ele>756.0</ele><time>2026-05-03T13:56:53.48Z</time></trkpt><trkpt lat="40.0769417" lon="15.8982983"><ele>756.0</ele><time>2026-05-03T13:56:54.481Z</time></trkpt><trkpt lat="40.0770517" lon="15.8985317"><ele>756.0</ele><time>2026-05-03T13:56:55.482Z</time></trkpt><trkpt lat="40.0771517" lon="15.898745"><ele>757.0</ele><time>2026-05-03T13:56:56.482Z</time></trkpt><trkpt lat="40.0772483" lon="15.8989467"><ele>758.0</ele><time>2026-05-03T13:56:57.48Z</time></trkpt><trkpt lat="40.0773417" lon="15.89916"><ele>759.0</ele><time>2026-05-03T13:56:58.483Z</time></trkpt><trkpt lat="40.0774233" lon="15.8993217"><ele>758.3333333333334</ele><time>2026-05-03T13:56:59.482Z</time></trkpt><trkpt lat="40.0774917" lon="15.8994333"><ele>757.6666666666666</ele><time>2026-05-03T13:57:00.481Z</time></trkpt><trkpt lat="40.0775233" lon="15.89954"><ele>757.0</ele><time>2026-05-03T13:57:01.481Z</time></trkpt><trkpt lat="40.0775517" lon="15.899625"><ele>756.3333333333333</ele><time>2026-05-03T13:57:02.482Z</time></trkpt><trkpt lat="40.07759" lon="15.8997117"><ele>755.6666666666666</ele><time>2026-05-03T13:57:04.481Z</time></trkpt><trkpt lat="40.0776167" lon="15.8995983"><ele>755.0</ele><time>2026-05-03T13:57:08.483Z</time></trkpt><trkpt lat="40.0775483" lon="15.8995917"><ele>755.0</ele><time>2026-05-03T13:57:12.482Z</time></trkpt><trkpt lat="40.0775883" lon="15.8996767"><ele>755.0</ele><time>2026-05-03T13:57:14.482Z</time></trkpt><trkpt lat="40.077675" lon="15.8998217"><ele>755.0</ele><time>2026-05-03T13:57:16.48Z</time></trkpt><trkpt lat="40.0777233" lon="15.8999367"><ele>755.0</ele><time>2026-05-03T13:57:17.48Z</time></trkpt><trkpt lat="40.0777867" lon="15.900075"><ele>755.0</ele><time>2026-05-03T13:57:18.481Z</time></trkpt><trkpt lat="40.0778533" lon="15.9002033"><ele>755.4</ele><time>2026-05-03T13:57:19.485Z</time></trkpt><trkpt lat="40.0779067" lon="15.9003217"><ele>755.8</ele><time>2026-05-03T13:57:20.483Z</time></trkpt><trkpt lat="40.07795" lon="15.9004217"><ele>756.2</ele><time>2026-05-03T13:57:21.481Z</time></trkpt><trkpt lat="40.0779867" lon="15.9004967"><ele>756.6</ele><time>2026-05-03T13:57:22.481Z</time></trkpt><trkpt lat="40.0780517" lon="15.9006017"><ele>757.0</ele><time>2026-05-03T13:57:24.481Z</time></trkpt><trkpt lat="40.0781367" lon="15.900735"><ele>757.0</ele><time>2026-05-03T13:59:02.482Z</time></trkpt><trkpt lat="40.07819" lon="15.900815"><ele>757.0</ele><time>2026-05-03T13:59:03.482Z</time></trkpt><trkpt lat="40.0782667" lon="15.9009217"><ele>757.0</ele><time>2026-05-03T13:59:04.481Z</time></trkpt><trkpt lat="40.07835" lon="15.90104"><ele>757.0</ele><time>2026-05-03T13:59:05.48Z</time></trkpt><trkpt lat="40.078435" lon="15.9011717"><ele>757.0</ele><time>2026-05-03T13:59:06.481Z</time></trkpt><trkpt lat="40.078525" lon="15.9013083"><ele>758.0</ele><time>2026-05-03T13:59:07.481Z</time></trkpt><trkpt lat="40.07862" lon="15.901455"><ele>759.0</ele><time>2026-05-03T13:59:08.482Z</time></trkpt><trkpt lat="40.0787217" lon="15.90162"><ele>760.0</ele><time>2026-05-03T13:59:09.481Z</time></trkpt><trkpt lat="40.0788283" lon="15.9017933"><ele>760.0</ele><time>2026-05-03T13:59:10.484Z</time></trkpt><trkpt lat="40.0789417" lon="15.9019817"><ele>760.0</ele><time>2026-05-03T13:59:11.484Z</time></trkpt><trkpt lat="40.0790567" lon="15.9021667"><ele>760.0</ele><time>2026-05-03T13:59:12.484Z</time></trkpt><trkpt lat="40.0791733" lon="15.9023517"><ele>757.0</ele><time>2026-05-03T13:59:13.484Z</time></trkpt><trkpt lat="40.0792867" lon="15.9025367"><ele>754.0</ele><time>2026-05-03T13:59:14.483Z</time></trkpt><trkpt lat="40.0793967" lon="15.90273"><ele>751.0</ele><time>2026-05-03T13:59:15.483Z</time></trkpt><trkpt lat="40.0794983" lon="15.9029317"><ele>759.6666666666667</ele><time>2026-05-03T13:59:16.483Z</time></trkpt><trkpt lat="40.0795983" lon="15.903145"><ele>768.3333333333334</ele><time>2026-05-03T13:59:17.484Z</time></trkpt><trkpt lat="40.0796933" lon="15.903375"><ele>777.0</ele><time>2026-05-03T13:59:18.484Z</time></trkpt><trkpt lat="40.0797817" lon="15.9036217"><ele>775.6666666666667</ele><time>2026-05-03T13:59:19.483Z</time></trkpt><trkpt lat="40.0798583" lon="15.9038833"><ele>774.3333333333334</ele><time>2026-05-03T13:59:20.484Z</time></trkpt><trkpt lat="40.0799183" lon="15.9041583"><ele>773.0</ele><time>2026-05-03T13:59:21.482Z</time></trkpt><trkpt lat="40.079965" lon="15.9044483"><ele>773.0</ele><time>2026-05-03T13:59:22.482Z</time></trkpt><trkpt lat="40.0799983" lon="15.9047483"><ele>773.0</ele><time>2026-05-03T13:59:23.483Z</time></trkpt><trkpt lat="40.0800117" lon="15.9050533"><ele>771.0</ele><time>2026-05-03T13:59:24.483Z</time></trkpt><trkpt lat="40.08001" lon="15.9053633"><ele>769.0</ele><time>2026-05-03T13:59:25.481Z</time></trkpt><trkpt lat="40.07998" lon="15.905675"><ele>782.0</ele><time>2026-05-03T13:59:26.483Z</time></trkpt><trkpt lat="40.0799217" lon="15.9059867"><ele>795.0</ele><time>2026-05-03T13:59:27.481Z</time></trkpt><trkpt lat="40.0798467" lon="15.9062867"><ele>795.0</ele><time>2026-05-03T13:59:28.482Z</time></trkpt><trkpt lat="40.0797567" lon="15.90658"><ele>795.0</ele><time>2026-05-03T13:59:29.481Z</time></trkpt><trkpt lat="40.07965" lon="15.9068583"><ele>786.5</ele><time>2026-05-03T13:59:30.481Z</time></trkpt><trkpt lat="40.0795283" lon="15.907115"><ele>778.0</ele><time>2026-05-03T13:59:31.482Z</time></trkpt><trkpt lat="40.07939" lon="15.9073483"><ele>778.0</ele><time>2026-05-03T13:59:32.483Z</time></trkpt><trkpt lat="40.079235" lon="15.9075667"><ele>778.0</ele><time>2026-05-03T13:59:33.482Z</time></trkpt><trkpt lat="40.079075" lon="15.90778"><ele>778.5</ele><time>2026-05-03T13:59:34.482Z</time></trkpt><trkpt lat="40.0789067" lon="15.9079867"><ele>779.0</ele><time>2026-05-03T13:59:35.482Z</time></trkpt><trkpt lat="40.078735" lon="15.9081983"><ele>775.0</ele><time>2026-05-03T13:59:36.481Z</time></trkpt><trkpt lat="40.078565" lon="15.90841"><ele>771.0</ele><time>2026-05-03T13:59:37.481Z</time></trkpt><trkpt lat="40.0783917" lon="15.9086233"><ele>775.0</ele><time>2026-05-03T13:59:38.481Z</time></trkpt><trkpt lat="40.078225" lon="15.90884"><ele>779.0</ele><time>2026-05-03T13:59:39.48Z</time></trkpt><trkpt lat="40.078065" lon="15.909065"><ele>776.0</ele><time>2026-05-03T13:59:40.482Z</time></trkpt><trkpt lat="40.077925" lon="15.909295"><ele>773.0</ele><time>2026-05-03T13:59:41.483Z</time></trkpt><trkpt lat="40.0777933" lon="15.909535"><ele>773.0</ele><time>2026-05-03T13:59:42.482Z</time></trkpt><trkpt lat="40.077675" lon="15.9097867"><ele>773.0</ele><time>2026-05-03T13:59:43.481Z</time></trkpt><trkpt lat="40.0775733" lon="15.9100517"><ele>772.0</ele><time>2026-05-03T13:59:44.482Z</time></trkpt><trkpt lat="40.0774933" lon="15.91033"><ele>771.0</ele><time>2026-05-03T13:59:45.482Z</time></trkpt><trkpt lat="40.07743" lon="15.9106167"><ele>775.0</ele><time>2026-05-03T13:59:46.483Z</time></trkpt><trkpt lat="40.0773817" lon="15.9109167"><ele>779.0</ele><time>2026-05-03T13:59:47.484Z</time></trkpt><trkpt lat="40.077355" lon="15.9112317"><ele>779.0</ele><time>2026-05-03T13:59:48.484Z</time></trkpt><trkpt lat="40.0773517" lon="15.91155"><ele>779.0</ele><time>2026-05-03T13:59:49.484Z</time></trkpt><trkpt lat="40.077365" lon="15.9118767"><ele>777.5</ele><time>2026-05-03T13:59:50.484Z</time></trkpt><trkpt lat="40.0774017" lon="15.9122033"><ele>776.0</ele><time>2026-05-03T13:59:51.483Z</time></trkpt><trkpt lat="40.0774633" lon="15.9125283"><ele>778.5</ele><time>2026-05-03T13:59:52.484Z</time></trkpt><trkpt lat="40.0775467" lon="15.9128467"><ele>781.0</ele><time>2026-05-03T13:59:53.484Z</time></trkpt><trkpt lat="40.077645" lon="15.9131633"><ele>780.0</ele><time>2026-05-03T13:59:54.484Z</time></trkpt><trkpt lat="40.077745" lon="15.9134717"><ele>779.0</ele><time>2026-05-03T13:59:55.491Z</time></trkpt><trkpt lat="40.0778517" lon="15.91378"><ele>779.0</ele><time>2026-05-03T13:59:56.483Z</time></trkpt><trkpt lat="40.0779417" lon="15.9141017"><ele>779.0</ele><time>2026-05-03T13:59:57.482Z</time></trkpt><trkpt lat="40.078" lon="15.91441"><ele>780.5</ele><time>2026-05-03T13:59:58.484Z</time></trkpt><trkpt lat="40.0780333" lon="15.9147217"><ele>782.0</ele><time>2026-05-03T13:59:59.483Z</time></trkpt><trkpt lat="40.0780533" lon="15.91504"><ele>785.0</ele><time>2026-05-03T14:00:00.484Z</time></trkpt><trkpt lat="40.0780483" lon="15.91536"><ele>788.0</ele><time>2026-05-03T14:00:01.483Z</time></trkpt><trkpt lat="40.0780233" lon="15.9156767"><ele>784.5</ele><time>2026-05-03T14:00:02.484Z</time></trkpt><trkpt lat="40.0779717" lon="15.9159833"><ele>781.0</ele><time>2026-05-03T14:00:03.482Z</time></trkpt><trkpt lat="40.0778983" lon="15.9162817"><ele>781.0</ele><time>2026-05-03T14:00:04.482Z</time></trkpt><trkpt lat="40.0778067" lon="15.9165667"><ele>781.0</ele><time>2026-05-03T14:00:05.482Z</time></trkpt><trkpt lat="40.077695" lon="15.916845"><ele>782.0</ele><time>2026-05-03T14:00:06.483Z</time></trkpt><trkpt lat="40.0775683" lon="15.917105"><ele>783.0</ele><time>2026-05-03T14:00:07.482Z</time></trkpt><trkpt lat="40.077425" lon="15.91735"><ele>778.5</ele><time>2026-05-03T14:00:08.483Z</time></trkpt><trkpt lat="40.0772683" lon="15.917585"><ele>774.0</ele><time>2026-05-03T14:00:09.483Z</time></trkpt><trkpt lat="40.077095" lon="15.917795"><ele>774.0</ele><time>2026-05-03T14:00:10.483Z</time></trkpt><trkpt lat="40.076905" lon="15.9179833"><ele>774.0</ele><time>2026-05-03T14:00:11.484Z</time></trkpt><trkpt lat="40.0767083" lon="15.918155"><ele>771.5</ele><time>2026-05-03T14:00:12.483Z</time></trkpt><trkpt lat="40.0765083" lon="15.9183167"><ele>769.0</ele><time>2026-05-03T14:00:13.484Z</time></trkpt><trkpt lat="40.0763" lon="15.9184717"><ele>769.0</ele><time>2026-05-03T14:00:14.483Z</time></trkpt><trkpt lat="40.0760933" lon="15.9186283"><ele>769.0</ele><time>2026-05-03T14:00:15.481Z</time></trkpt><trkpt lat="40.07589" lon="15.9187867"><ele>773.0</ele><time>2026-05-03T14:00:16.482Z</time></trkpt><trkpt lat="40.0756933" lon="15.9189583"><ele>777.0</ele><time>2026-05-03T14:00:17.482Z</time></trkpt><trkpt lat="40.075495" lon="15.9191417"><ele>772.0</ele><time>2026-05-03T14:00:18.481Z</time></trkpt><trkpt lat="40.0753017" lon="15.91933"><ele>767.0</ele><time>2026-05-03T14:00:19.481Z</time></trkpt><trkpt lat="40.07513" lon="15.9195517"><ele>767.0</ele><time>2026-05-03T14:00:20.483Z</time></trkpt><trkpt lat="40.0749683" lon="15.9197917"><ele>767.0</ele><time>2026-05-03T14:00:21.482Z</time></trkpt><trkpt lat="40.074825" lon="15.9200367"><ele>770.3333333333333</ele><time>2026-05-03T14:00:22.483Z</time></trkpt><trkpt lat="40.0747117" lon="15.9202867"><ele>773.6666666666666</ele><time>2026-05-03T14:00:23.482Z</time></trkpt><trkpt lat="40.0746233" lon="15.9205433"><ele>777.0</ele><time>2026-05-03T14:00:24.482Z</time></trkpt><trkpt lat="40.074555" lon="15.92081"><ele>773.5</ele><time>2026-05-03T14:00:25.484Z</time></trkpt><trkpt lat="40.0745067" lon="15.921095"><ele>770.0</ele><time>2026-05-03T14:00:26.484Z</time></trkpt><trkpt lat="40.074465" lon="15.9214"><ele>770.0</ele><time>2026-05-03T14:00:27.484Z</time></trkpt><trkpt lat="40.0744217" lon="15.9217217"><ele>770.0</ele><time>2026-05-03T14:00:28.484Z</time></trkpt><trkpt lat="40.0743817" lon="15.9220417"><ele>768.0</ele><time>2026-05-03T14:00:29.484Z</time></trkpt><trkpt lat="40.0743617" lon="15.9223683"><ele>766.0</ele><time>2026-05-03T14:00:30.483Z</time></trkpt><trkpt lat="40.0743383" lon="15.9226867"><ele>762.0</ele><time>2026-05-03T14:00:31.484Z</time></trkpt><trkpt lat="40.074295" lon="15.9230233"><ele>758.0</ele><time>2026-05-03T14:00:32.484Z</time></trkpt><trkpt lat="40.0742567" lon="15.92336"><ele>756.0</ele><time>2026-05-03T14:00:33.483Z</time></trkpt><trkpt lat="40.0742317" lon="15.92371"><ele>754.0</ele><time>2026-05-03T14:00:34.484Z</time></trkpt><trkpt lat="40.074235" lon="15.9240667"><ele>755.0</ele><time>2026-05-03T14:00:35.485Z</time></trkpt><trkpt lat="40.0742533" lon="15.9244283"><ele>756.0</ele><time>2026-05-03T14:00:36.484Z</time></trkpt><trkpt lat="40.074285" lon="15.9247883"><ele>755.5</ele><time>2026-05-03T14:00:37.484Z</time></trkpt><trkpt lat="40.0743333" lon="15.9251483"><ele>755.0</ele><time>2026-05-03T14:00:38.484Z</time></trkpt><trkpt lat="40.0744017" lon="15.925505"><ele>755.0</ele><time>2026-05-03T14:00:39.484Z</time></trkpt><trkpt lat="40.0744867" lon="15.9258483"><ele>755.0</ele><time>2026-05-03T14:00:40.484Z</time></trkpt><trkpt lat="40.0745783" lon="15.9261867"><ele>754.5</ele><time>2026-05-03T14:00:41.483Z</time></trkpt><trkpt lat="40.0746717" lon="15.92652"><ele>754.0</ele><time>2026-05-03T14:00:42.485Z</time></trkpt><trkpt lat="40.0747667" lon="15.9268417"><ele>754.0</ele><time>2026-05-03T14:00:43.484Z</time></trkpt><trkpt lat="40.0748567" lon="15.9271633"><ele>754.0</ele><time>2026-05-03T14:00:44.483Z</time></trkpt><trkpt lat="40.0749367" lon="15.92749"><ele>746.5</ele><time>2026-05-03T14:00:45.481Z</time></trkpt><trkpt lat="40.0750033" lon="15.9278217"><ele>739.0</ele><time>2026-05-03T14:00:46.482Z</time></trkpt><trkpt lat="40.07506" lon="15.928155"><ele>735.5</ele><time>2026-05-03T14:00:47.482Z</time></trkpt><trkpt lat="40.0750983" lon="15.9284983"><ele>732.0</ele><time>2026-05-03T14:00:48.482Z</time></trkpt><trkpt lat="40.0751217" lon="15.9288433"><ele>732.0</ele><time>2026-05-03T14:00:49.483Z</time></trkpt><trkpt lat="40.0751333" lon="15.9291983"><ele>732.0</ele><time>2026-05-03T14:00:50.482Z</time></trkpt><trkpt lat="40.07513" lon="15.9295533"><ele>729.5</ele><time>2026-05-03T14:00:51.484Z</time></trkpt><trkpt lat="40.0751183" lon="15.9299133"><ele>727.0</ele><time>2026-05-03T14:00:52.483Z</time></trkpt><trkpt lat="40.0751" lon="15.9302717"><ele>725.0</ele><time>2026-05-03T14:00:53.484Z</time></trkpt><trkpt lat="40.07508" lon="15.9306233"><ele>723.0</ele><time>2026-05-03T14:00:54.483Z</time></trkpt><trkpt lat="40.0750567" lon="15.9309733"><ele>720.0</ele><time>2026-05-03T14:00:55.484Z</time></trkpt><trkpt lat="40.075035" lon="15.931325"><ele>717.0</ele><time>2026-05-03T14:00:56.483Z</time></trkpt><trkpt lat="40.0750133" lon="15.9316733"><ele>715.0</ele><time>2026-05-03T14:00:57.484Z</time></trkpt><trkpt lat="40.0749917" lon="15.9320183"><ele>713.0</ele><time>2026-05-03T14:00:58.484Z</time></trkpt><trkpt lat="40.07497" lon="15.9323617"><ele>712.5</ele><time>2026-05-03T14:00:59.484Z</time></trkpt><trkpt lat="40.0749483" lon="15.932705"><ele>712.0</ele><time>2026-05-03T14:01:00.484Z</time></trkpt><trkpt lat="40.0749267" lon="15.9330467"><ele>713.0</ele><time>2026-05-03T14:01:01.485Z</time></trkpt><trkpt lat="40.074905" lon="15.933385"><ele>714.0</ele><time>2026-05-03T14:01:02.484Z</time></trkpt><trkpt lat="40.0748867" lon="15.9337267"><ele>714.0</ele><time>2026-05-03T14:01:03.483Z</time></trkpt><trkpt lat="40.0748683" lon="15.9340717"><ele>714.0</ele><time>2026-05-03T14:01:04.484Z</time></trkpt><trkpt lat="40.07485" lon="15.9344217"><ele>711.0</ele><time>2026-05-03T14:01:05.484Z</time></trkpt><trkpt lat="40.0748317" lon="15.9347733"><ele>708.0</ele><time>2026-05-03T14:01:06.484Z</time></trkpt><trkpt lat="40.0748117" lon="15.93513"><ele>706.5</ele><time>2026-05-03T14:01:07.484Z</time></trkpt><trkpt lat="40.07479" lon="15.9354917"><ele>705.0</ele><time>2026-05-03T14:01:08.485Z</time></trkpt><trkpt lat="40.0747717" lon="15.935855"><ele>704.5</ele><time>2026-05-03T14:01:09.483Z</time></trkpt><trkpt lat="40.0747517" lon="15.93622"><ele>704.0</ele><time>2026-05-03T14:01:10.484Z</time></trkpt><trkpt lat="40.0747283" lon="15.93659"><ele>702.0</ele><time>2026-05-03T14:01:11.484Z</time></trkpt><trkpt lat="40.0747017" lon="15.9369617"><ele>700.0</ele><time>2026-05-03T14:01:12.483Z</time></trkpt><trkpt lat="40.07468" lon="15.937335"><ele>696.0</ele><time>2026-05-03T14:01:13.484Z</time></trkpt><trkpt lat="40.0746617" lon="15.93771"><ele>692.0</ele><time>2026-05-03T14:01:14.483Z</time></trkpt><trkpt lat="40.07464" lon="15.9380867"><ele>691.0</ele><time>2026-05-03T14:01:15.482Z</time></trkpt><trkpt lat="40.0746217" lon="15.93846"><ele>690.0</ele><time>2026-05-03T14:01:16.482Z</time></trkpt><trkpt lat="40.0746" lon="15.9388283"><ele>690.0</ele><time>2026-05-03T14:01:17.482Z</time></trkpt><trkpt lat="40.0745783" lon="15.9391933"><ele>690.0</ele><time>2026-05-03T14:01:18.48Z</time></trkpt><trkpt lat="40.074555" lon="15.9395533"><ele>688.5</ele><time>2026-05-03T14:01:19.481Z</time></trkpt><trkpt lat="40.0745317" lon="15.9399083"><ele>687.0</ele><time>2026-05-03T14:01:20.483Z</time></trkpt><trkpt lat="40.0745067" lon="15.9402617"><ele>685.5</ele><time>2026-05-03T14:01:21.481Z</time></trkpt><trkpt lat="40.074485" lon="15.94061"><ele>684.0</ele><time>2026-05-03T14:01:22.482Z</time></trkpt><trkpt lat="40.074465" lon="15.9409633"><ele>682.0</ele><time>2026-05-03T14:01:23.482Z</time></trkpt><trkpt lat="40.0744433" lon="15.9413133"><ele>680.0</ele><time>2026-05-03T14:01:24.482Z</time></trkpt><trkpt lat="40.0744267" lon="15.9416683"><ele>677.5</ele><time>2026-05-03T14:01:25.481Z</time></trkpt><trkpt lat="40.0744083" lon="15.9420283"><ele>675.0</ele><time>2026-05-03T14:01:26.482Z</time></trkpt><trkpt lat="40.07439" lon="15.9423883"><ele>673.5</ele><time>2026-05-03T14:01:27.481Z</time></trkpt><trkpt lat="40.07437" lon="15.9427533"><ele>672.0</ele><time>2026-05-03T14:01:28.482Z</time></trkpt><trkpt lat="40.0743567" lon="15.9431233"><ele>670.0</ele><time>2026-05-03T14:01:29.483Z</time></trkpt><trkpt lat="40.0743483" lon="15.9435"><ele>668.0</ele><time>2026-05-03T14:01:30.482Z</time></trkpt><trkpt lat="40.0743533" lon="15.9438967"><ele>664.5</ele><time>2026-05-03T14:01:31.481Z</time></trkpt><trkpt lat="40.07438" lon="15.94435"><ele>661.0</ele><time>2026-05-03T14:01:32.483Z</time></trkpt><trkpt lat="40.074415" lon="15.9447633"><ele>653.5</ele><time>2026-05-03T14:01:33.483Z</time></trkpt><trkpt lat="40.0744767" lon="15.94508"><ele>646.0</ele><time>2026-05-03T14:01:34.483Z</time></trkpt><trkpt lat="40.0745333" lon="15.9454533"><ele>646.0</ele><time>2026-05-03T14:01:35.484Z</time></trkpt><trkpt lat="40.0745967" lon="15.9458283"><ele>646.0</ele><time>2026-05-03T14:01:36.484Z</time></trkpt><trkpt lat="40.0746617" lon="15.946205"><ele>641.5</ele><time>2026-05-03T14:01:37.484Z</time></trkpt><trkpt lat="40.0747233" lon="15.94658"><ele>637.0</ele><time>2026-05-03T14:01:38.484Z</time></trkpt><trkpt lat="40.0747833" lon="15.9469583"><ele>636.0</ele><time>2026-05-03T14:01:39.483Z</time></trkpt><trkpt lat="40.0748417" lon="15.94733"><ele>635.0</ele><time>2026-05-03T14:01:40.484Z</time></trkpt><trkpt lat="40.0749" lon="15.9476967"><ele>640.0</ele><time>2026-05-03T14:01:41.484Z</time></trkpt><trkpt lat="40.07496" lon="15.9480717"><ele>645.0</ele><time>2026-05-03T14:01:42.484Z</time></trkpt><trkpt lat="40.07502" lon="15.9484383"><ele>649.5</ele><time>2026-05-03T14:01:43.484Z</time></trkpt><trkpt lat="40.0750817" lon="15.9488"><ele>654.0</ele><time>2026-05-03T14:01:44.483Z</time></trkpt><trkpt lat="40.0751417" lon="15.9491583"><ele>654.5</ele><time>2026-05-03T14:01:45.481Z</time></trkpt><trkpt lat="40.0752017" lon="15.9495067"><ele>655.0</ele><time>2026-05-03T14:01:46.483Z</time></trkpt><trkpt lat="40.0752583" lon="15.94985"><ele>653.5</ele><time>2026-05-03T14:01:47.482Z</time></trkpt><trkpt lat="40.075315" lon="15.9501867"><ele>652.0</ele><time>2026-05-03T14:01:48.481Z</time></trkpt><trkpt lat="40.075375" lon="15.9505217"><ele>652.0</ele><time>2026-05-03T14:01:49.483Z</time></trkpt><trkpt lat="40.07543" lon="15.9508533"><ele>652.0</ele><time>2026-05-03T14:01:50.483Z</time></trkpt><trkpt lat="40.0754833" lon="15.9511833"><ele>649.5</ele><time>2026-05-03T14:01:51.482Z</time></trkpt><trkpt lat="40.075545" lon="15.9515067"><ele>647.0</ele><time>2026-05-03T14:01:52.481Z</time></trkpt><trkpt lat="40.0756033" lon="15.95182"><ele>646.0</ele><time>2026-05-03T14:01:53.482Z</time></trkpt><trkpt lat="40.0756517" lon="15.952135"><ele>645.0</ele><time>2026-05-03T14:01:54.482Z</time></trkpt><trkpt lat="40.075715" lon="15.9524483"><ele>656.5</ele><time>2026-05-03T14:01:55.483Z</time></trkpt><trkpt lat="40.07578" lon="15.952755"><ele>668.0</ele><time>2026-05-03T14:01:56.483Z</time></trkpt><trkpt lat="40.0758583" lon="15.95306"><ele>668.0</ele><time>2026-05-03T14:01:57.483Z</time></trkpt><trkpt lat="40.0759433" lon="15.95336"><ele>668.0</ele><time>2026-05-03T14:01:58.482Z</time></trkpt><trkpt lat="40.076045" lon="15.9536567"><ele>664.0</ele><time>2026-05-03T14:01:59.483Z</time></trkpt><trkpt lat="40.0761617" lon="15.9539467"><ele>660.0</ele><time>2026-05-03T14:02:00.482Z</time></trkpt><trkpt lat="40.07629" lon="15.9542317"><ele>652.5</ele><time>2026-05-03T14:02:01.483Z</time></trkpt><trkpt lat="40.0764333" lon="15.9545083"><ele>645.0</ele><time>2026-05-03T14:02:02.483Z</time></trkpt><trkpt lat="40.0765867" lon="15.9547717"><ele>650.5</ele><time>2026-05-03T14:02:03.48Z</time></trkpt><trkpt lat="40.0767533" lon="15.95503"><ele>656.0</ele><time>2026-05-03T14:02:04.482Z</time></trkpt><trkpt lat="40.0769233" lon="15.955285"><ele>656.0</ele><time>2026-05-03T14:02:05.481Z</time></trkpt><trkpt lat="40.0770933" lon="15.9555383"><ele>656.0</ele><time>2026-05-03T14:02:06.482Z</time></trkpt><trkpt lat="40.077255" lon="15.955785"><ele>653.0</ele><time>2026-05-03T14:02:07.483Z</time></trkpt><trkpt lat="40.0774117" lon="15.95603"><ele>650.0</ele><time>2026-05-03T14:02:08.482Z</time></trkpt><trkpt lat="40.0775583" lon="15.9562817"><ele>655.0</ele><time>2026-05-03T14:02:09.481Z</time></trkpt><trkpt lat="40.0776883" lon="15.9565467"><ele>660.0</ele><time>2026-05-03T14:02:10.481Z</time></trkpt><trkpt lat="40.0778067" lon="15.9568167"><ele>660.0</ele><time>2026-05-03T14:02:11.482Z</time></trkpt><trkpt lat="40.077915" lon="15.9570917"><ele>660.0</ele><time>2026-05-03T14:02:12.482Z</time></trkpt><trkpt lat="40.0780133" lon="15.957385"><ele>656.5</ele><time>2026-05-03T14:02:13.483Z</time></trkpt><trkpt lat="40.0780967" lon="15.9576767"><ele>653.0</ele><time>2026-05-03T14:02:14.481Z</time></trkpt><trkpt lat="40.07816" lon="15.9579733"><ele>653.0</ele><time>2026-05-03T14:02:15.482Z</time></trkpt><trkpt lat="40.0782117" lon="15.95828"><ele>653.0</ele><time>2026-05-03T14:02:16.481Z</time></trkpt><trkpt lat="40.07825" lon="15.9585933"><ele>663.0</ele><time>2026-05-03T14:02:17.482Z</time></trkpt><trkpt lat="40.078285" lon="15.95891"><ele>673.0</ele><time>2026-05-03T14:02:18.481Z</time></trkpt><trkpt lat="40.0783183" lon="15.959225"><ele>673.0</ele><time>2026-05-03T14:02:19.482Z</time></trkpt><trkpt lat="40.0783617" lon="15.9595383"><ele>673.0</ele><time>2026-05-03T14:02:20.483Z</time></trkpt><trkpt lat="40.0784167" lon="15.9598483"><ele>673.0</ele><time>2026-05-03T14:02:21.482Z</time></trkpt><trkpt lat="40.07849" lon="15.9601533"><ele>673.0</ele><time>2026-05-03T14:02:22.482Z</time></trkpt><trkpt lat="40.07858" lon="15.9604533"><ele>673.0</ele><time>2026-05-03T14:02:23.482Z</time></trkpt><trkpt lat="40.0786967" lon="15.960745"><ele>673.0</ele><time>2026-05-03T14:02:24.482Z</time></trkpt><trkpt lat="40.0788317" lon="15.9610283"><ele>673.0</ele><time>2026-05-03T14:02:25.483Z</time></trkpt><trkpt lat="40.078985" lon="15.9613033"><ele>673.0</ele><time>2026-05-03T14:02:26.483Z</time></trkpt><trkpt lat="40.079155" lon="15.9615667"><ele>671.5</ele><time>2026-05-03T14:02:27.482Z</time></trkpt><trkpt lat="40.0793333" lon="15.9618233"><ele>670.0</ele><time>2026-05-03T14:02:28.482Z</time></trkpt><trkpt lat="40.0795167" lon="15.9620733"><ele>670.0</ele><time>2026-05-03T14:02:29.481Z</time></trkpt><trkpt lat="40.079695" lon="15.9623267"><ele>670.0</ele><time>2026-05-03T14:02:30.482Z</time></trkpt><trkpt lat="40.07987" lon="15.962585"><ele>668.5</ele><time>2026-05-03T14:02:31.482Z</time></trkpt><trkpt lat="40.0800333" lon="15.96286"><ele>667.0</ele><time>2026-05-03T14:02:32.482Z</time></trkpt><trkpt lat="40.0801783" lon="15.9631533"><ele>662.0</ele><time>2026-05-03T14:02:33.482Z</time></trkpt><trkpt lat="40.0803083" lon="15.963455"><ele>657.0</ele><time>2026-05-03T14:02:34.483Z</time></trkpt><trkpt lat="40.0804333" lon="15.9637667"><ele>657.0</ele><time>2026-05-03T14:02:35.483Z</time></trkpt><trkpt lat="40.0805483" lon="15.9640817"><ele>657.0</ele><time>2026-05-03T14:02:36.482Z</time></trkpt><trkpt lat="40.0806617" lon="15.9644017"><ele>662.0</ele><time>2026-05-03T14:02:37.483Z</time></trkpt><trkpt lat="40.0807717" lon="15.9647233"><ele>667.0</ele><time>2026-05-03T14:02:38.484Z</time></trkpt><trkpt lat="40.0808783" lon="15.9650483"><ele>667.0</ele><time>2026-05-03T14:02:39.482Z</time></trkpt><trkpt lat="40.08099" lon="15.9653683"><ele>667.0</ele><time>2026-05-03T14:02:40.483Z</time></trkpt><trkpt lat="40.0811033" lon="15.965685"><ele>662.5</ele><time>2026-05-03T14:02:41.483Z</time></trkpt><trkpt lat="40.0812083" lon="15.9660067"><ele>658.0</ele><time>2026-05-03T14:02:42.483Z</time></trkpt><trkpt lat="40.0812967" lon="15.9663367"><ele>658.0</ele><time>2026-05-03T14:02:43.484Z</time></trkpt><trkpt lat="40.08137" lon="15.96667"><ele>658.0</ele><time>2026-05-03T14:02:44.483Z</time></trkpt><trkpt lat="40.081435" lon="15.967"><ele>655.0</ele><time>2026-05-03T14:02:45.482Z</time></trkpt><trkpt lat="40.0814883" lon="15.96732"><ele>652.0</ele><time>2026-05-03T14:02:46.483Z</time></trkpt><trkpt lat="40.0815267" lon="15.9676317"><ele>650.0</ele><time>2026-05-03T14:02:47.481Z</time></trkpt><trkpt lat="40.0815617" lon="15.9679333"><ele>648.0</ele><time>2026-05-03T14:02:48.481Z</time></trkpt><trkpt lat="40.0815733" lon="15.96824"><ele>653.0</ele><time>2026-05-03T14:02:49.482Z</time></trkpt><trkpt lat="40.081565" lon="15.9685467"><ele>658.0</ele><time>2026-05-03T14:02:50.483Z</time></trkpt><trkpt lat="40.081535" lon="15.9688567"><ele>658.0</ele><time>2026-05-03T14:02:51.482Z</time></trkpt><trkpt lat="40.081485" lon="15.9691617"><ele>658.0</ele><time>2026-05-03T14:02:52.482Z</time></trkpt><trkpt lat="40.081415" lon="15.9694633"><ele>660.0</ele><time>2026-05-03T14:02:53.481Z</time></trkpt><trkpt lat="40.0813383" lon="15.9697633"><ele>662.0</ele><time>2026-05-03T14:02:54.481Z</time></trkpt><trkpt lat="40.081275" lon="15.9700683"><ele>669.5</ele><time>2026-05-03T14:02:55.482Z</time></trkpt><trkpt lat="40.0812283" lon="15.9703833"><ele>677.0</ele><time>2026-05-03T14:02:56.483Z</time></trkpt><trkpt lat="40.081205" lon="15.970705"><ele>680.0</ele><time>2026-05-03T14:02:57.481Z</time></trkpt><trkpt lat="40.08119" lon="15.9710283"><ele>683.0</ele><time>2026-05-03T14:02:58.481Z</time></trkpt><trkpt lat="40.0811567" lon="15.971395"><ele>666.0</ele><time>2026-05-03T14:02:59.482Z</time></trkpt><trkpt lat="40.0812483" lon="15.97239"><ele>662.5</ele><time>2026-05-03T14:03:02.483Z</time></trkpt><trkpt lat="40.0812833" lon="15.97274"><ele>659.0</ele><time>2026-05-03T14:03:03.483Z</time></trkpt><trkpt lat="40.0814" lon="15.97308"><ele>658.0</ele><time>2026-05-03T14:03:04.483Z</time></trkpt><trkpt lat="40.0814867" lon="15.9734167"><ele>657.0</ele><time>2026-05-03T14:03:05.483Z</time></trkpt><trkpt lat="40.0815567" lon="15.9737633"><ele>669.5</ele><time>2026-05-03T14:03:06.484Z</time></trkpt><trkpt lat="40.0816167" lon="15.9741067"><ele>682.0</ele><time>2026-05-03T14:03:07.484Z</time></trkpt><trkpt lat="40.0816733" lon="15.9744383"><ele>684.0</ele><time>2026-05-03T14:03:08.484Z</time></trkpt><trkpt lat="40.0817283" lon="15.9747667"><ele>686.0</ele><time>2026-05-03T14:03:09.484Z</time></trkpt><trkpt lat="40.0817817" lon="15.9750917"><ele>685.5</ele><time>2026-05-03T14:03:10.484Z</time></trkpt><trkpt lat="40.0818383" lon="15.97541"><ele>685.0</ele><time>2026-05-03T14:03:11.482Z</time></trkpt><trkpt lat="40.0824767" lon="15.97749"><ele>682.3333333333334</ele><time>2026-05-03T14:03:18.483Z</time></trkpt><trkpt lat="40.0826067" lon="15.9777183"><ele>679.6666666666666</ele><time>2026-05-03T14:03:19.484Z</time></trkpt><trkpt lat="40.0827333" lon="15.9779417"><ele>677.0</ele><time>2026-05-03T14:03:20.484Z</time></trkpt><trkpt lat="40.08285" lon="15.9781683"><ele>675.3333333333333</ele><time>2026-05-03T14:03:21.484Z</time></trkpt><trkpt lat="40.0829617" lon="15.9783883"><ele>673.6666666666666</ele><time>2026-05-03T14:03:22.484Z</time></trkpt><trkpt lat="40.0830617" lon="15.9785983"><ele>672.0</ele><time>2026-05-03T14:03:23.484Z</time></trkpt><trkpt lat="40.0831517" lon="15.9787883"><ele>672.0</ele><time>2026-05-03T14:03:24.484Z</time></trkpt><trkpt lat="40.08323" lon="15.9789583"><ele>672.0</ele><time>2026-05-03T14:03:25.484Z</time></trkpt><trkpt lat="40.0832933" lon="15.979105"><ele>672.0</ele><time>2026-05-03T14:03:26.485Z</time></trkpt><trkpt lat="40.083345" lon="15.979235"><ele>672.0</ele><time>2026-05-03T14:03:27.483Z</time></trkpt><trkpt lat="40.08339" lon="15.979355"><ele>673.0</ele><time>2026-05-03T14:03:28.483Z</time></trkpt><trkpt lat="40.0834233" lon="15.97947"><ele>674.0</ele><time>2026-05-03T14:03:29.484Z</time></trkpt><trkpt lat="40.0834533" lon="15.9795817"><ele>675.0</ele><time>2026-05-03T14:03:30.484Z</time></trkpt><trkpt lat="40.0834983" lon="15.979705"><ele>676.0</ele><time>2026-05-03T14:03:31.484Z</time></trkpt><trkpt lat="40.083495" lon="15.9798217"><ele>677.0</ele><time>2026-05-03T14:03:32.484Z</time></trkpt><trkpt lat="40.08348" lon="15.979945"><ele>676.25</ele><time>2026-05-03T14:03:33.484Z</time></trkpt><trkpt lat="40.08346" lon="15.9800883"><ele>675.5</ele><time>2026-05-03T14:03:34.483Z</time></trkpt><trkpt lat="40.08342" lon="15.980235"><ele>674.75</ele><time>2026-05-03T14:03:35.484Z</time></trkpt><trkpt lat="40.0833767" lon="15.9803917"><ele>674.0</ele><time>2026-05-03T14:03:36.483Z</time></trkpt><trkpt lat="40.08333" lon="15.9805517"><ele>674.0</ele><time>2026-05-03T14:03:37.484Z</time></trkpt><trkpt lat="40.0832917" lon="15.9807067"><ele>674.0</ele><time>2026-05-03T14:03:38.483Z</time></trkpt><trkpt lat="40.083265" lon="15.98086"><ele>674.0</ele><time>2026-05-03T14:03:39.483Z</time></trkpt><trkpt lat="40.0832683" lon="15.9810083"><ele>674.0</ele><time>2026-05-03T14:03:40.485Z</time></trkpt><trkpt lat="40.0833" lon="15.9811467"><ele>674.75</ele><time>2026-05-03T14:03:41.484Z</time></trkpt><trkpt lat="40.0833567" lon="15.98127"><ele>675.5</ele><time>2026-05-03T14:03:42.483Z</time></trkpt><trkpt lat="40.0834367" lon="15.9813717"><ele>676.25</ele><time>2026-05-03T14:03:43.484Z</time></trkpt><trkpt lat="40.083535" lon="15.9814467"><ele>677.0</ele><time>2026-05-03T14:03:44.484Z</time></trkpt><trkpt lat="40.08365" lon="15.981495"><ele>677.0</ele><time>2026-05-03T14:03:45.481Z</time></trkpt><trkpt lat="40.0837783" lon="15.981515"><ele>677.0</ele><time>2026-05-03T14:03:46.481Z</time></trkpt><trkpt lat="40.0839167" lon="15.9815183"><ele>677.0</ele><time>2026-05-03T14:03:47.482Z</time></trkpt><trkpt lat="40.0840533" lon="15.9815217"><ele>677.0</ele><time>2026-05-03T14:03:48.481Z</time></trkpt><trkpt lat="40.0841867" lon="15.98153"><ele>678.5</ele><time>2026-05-03T14:03:49.482Z</time></trkpt><trkpt lat="40.08431" lon="15.9815483"><ele>680.0</ele><time>2026-05-03T14:03:50.483Z</time></trkpt><trkpt lat="40.084425" lon="15.9815767"><ele>681.5</ele><time>2026-05-03T14:03:51.481Z</time></trkpt><trkpt lat="40.0845333" lon="15.98162"><ele>683.0</ele><time>2026-05-03T14:03:52.481Z</time></trkpt><trkpt lat="40.0846333" lon="15.9816883"><ele>683.5</ele><time>2026-05-03T14:03:53.482Z</time></trkpt><trkpt lat="40.0847267" lon="15.98178"><ele>684.0</ele><time>2026-05-03T14:03:54.482Z</time></trkpt><trkpt lat="40.0848067" lon="15.9818967"><ele>684.5</ele><time>2026-05-03T14:03:55.483Z</time></trkpt><trkpt lat="40.0848667" lon="15.982035"><ele>685.0</ele><time>2026-05-03T14:03:56.482Z</time></trkpt><trkpt lat="40.084905" lon="15.9821817"><ele>685.0</ele><time>2026-05-03T14:03:57.481Z</time></trkpt><trkpt lat="40.084915" lon="15.98233"><ele>685.0</ele><time>2026-05-03T14:03:58.482Z</time></trkpt><trkpt lat="40.0849117" lon="15.98247"><ele>685.0</ele><time>2026-05-03T14:03:59.483Z</time></trkpt><trkpt lat="40.0849083" lon="15.98261"><ele>685.0</ele><time>2026-05-03T14:04:00.482Z</time></trkpt><trkpt lat="40.0849083" lon="15.98275"><ele>685.0</ele><time>2026-05-03T14:04:01.483Z</time></trkpt><trkpt lat="40.0849083" lon="15.9828933"><ele>685.0</ele><time>2026-05-03T14:04:02.482Z</time></trkpt><trkpt lat="40.0849117" lon="15.983035"><ele>685.0</ele><time>2026-05-03T14:04:03.482Z</time></trkpt><trkpt lat="40.084915" lon="15.9831717"><ele>685.0</ele><time>2026-05-03T14:04:04.483Z</time></trkpt><trkpt lat="40.0849233" lon="15.983305"><ele>685.0</ele><time>2026-05-03T14:04:05.482Z</time></trkpt><trkpt lat="40.0849367" lon="15.9834233"><ele>685.0</ele><time>2026-05-03T14:04:06.483Z</time></trkpt><trkpt lat="40.0849483" lon="15.9835267"><ele>685.3333333333334</ele><time>2026-05-03T14:04:07.481Z</time></trkpt><trkpt lat="40.0849467" lon="15.9836133"><ele>685.6666666666667</ele><time>2026-05-03T14:04:08.481Z</time></trkpt><trkpt lat="40.0848883" lon="15.9837333"><ele>686.0</ele><time>2026-05-03T14:04:10.482Z</time></trkpt><trkpt lat="40.084835" lon="15.9837933"><ele>686.3333333333334</ele><time>2026-05-03T14:04:12.481Z</time></trkpt><trkpt lat="40.0848183" lon="15.98388"><ele>686.6666666666666</ele><time>2026-05-03T14:04:14.483Z</time></trkpt><trkpt lat="40.08489" lon="15.983925"><ele>687.0</ele><time>2026-05-03T14:04:16.481Z</time></trkpt><trkpt lat="40.08497" lon="15.9839483"><ele>687.0</ele><time>2026-05-03T14:04:18.482Z</time></trkpt><trkpt lat="40.0850333" lon="15.9839983"><ele>687.0</ele><time>2026-05-03T14:04:20.484Z</time></trkpt><trkpt lat="40.0851083" lon="15.9840817"><ele>687.0</ele><time>2026-05-03T14:04:22.483Z</time></trkpt><trkpt lat="40.0852" lon="15.98418"><ele>687.0</ele><time>2026-05-03T14:04:24.481Z</time></trkpt><trkpt lat="40.08528" lon="15.9843267"><ele>687.0</ele><time>2026-05-03T14:04:26.483Z</time></trkpt><trkpt lat="40.0853533" lon="15.9844617"><ele>687.1666666666666</ele><time>2026-05-03T14:04:28.481Z</time></trkpt><trkpt lat="40.0854217" lon="15.9846033"><ele>687.3333333333334</ele><time>2026-05-03T14:04:30.482Z</time></trkpt><trkpt lat="40.0854633" lon="15.9846783"><ele>687.5</ele><time>2026-05-03T14:04:31.483Z</time></trkpt><trkpt lat="40.0855017" lon="15.9847533"><ele>687.6666666666667</ele><time>2026-05-03T14:04:32.483Z</time></trkpt><trkpt lat="40.08554" lon="15.9848283"><ele>687.8333333333334</ele><time>2026-05-03T14:04:33.482Z</time></trkpt><trkpt lat="40.085575" lon="15.9849"><ele>688.0</ele><time>2026-05-03T14:04:34.484Z</time></trkpt><trkpt lat="40.0856083" lon="15.9849717"><ele>688.2857142857143</ele><time>2026-05-03T14:04:35.483Z</time></trkpt><trkpt lat="40.08564" lon="15.9850433"><ele>688.5714285714286</ele><time>2026-05-03T14:04:36.483Z</time></trkpt><trkpt lat="40.0856733" lon="15.98512"><ele>688.8571428571429</ele><time>2026-05-03T14:04:37.484Z</time></trkpt><trkpt lat="40.085705" lon="15.9852"><ele>689.1428571428571</ele><time>2026-05-03T14:04:38.484Z</time></trkpt><trkpt lat="40.0857367" lon="15.9852817"><ele>689.4285714285714</ele><time>2026-05-03T14:04:39.484Z</time></trkpt><trkpt lat="40.0857667" lon="15.9853717"><ele>689.7142857142858</ele><time>2026-05-03T14:04:40.484Z</time></trkpt><trkpt lat="40.0857933" lon="15.9854717"><ele>690.0</ele><time>2026-05-03T14:04:41.484Z</time></trkpt><trkpt lat="40.0858167" lon="15.9855817"><ele>691.6666666666666</ele><time>2026-05-03T14:04:42.484Z</time></trkpt><trkpt lat="40.0858367" lon="15.9856833"><ele>693.3333333333334</ele><time>2026-05-03T14:04:43.484Z</time></trkpt><trkpt lat="40.0858483" lon="15.9857733"><ele>695.0</ele><time>2026-05-03T14:04:44.484Z</time></trkpt><trkpt lat="40.08585" lon="15.985915"><ele>696.6666666666667</ele><time>2026-05-03T14:04:46.482Z</time></trkpt><trkpt lat="40.0858733" lon="15.9860433"><ele>698.3333333333334</ele><time>2026-05-03T14:06:50.481Z</time></trkpt><trkpt lat="40.08589" lon="15.986145"><ele>700.0</ele><time>2026-05-03T14:06:52.481Z</time></trkpt><trkpt lat="40.0858833" lon="15.98635"><ele>700.2</ele><time>2026-05-03T14:06:54.482Z</time></trkpt><trkpt lat="40.0858483" lon="15.9865683"><ele>700.4</ele><time>2026-05-03T14:06:55.482Z</time></trkpt><trkpt lat="40.085835" lon="15.9866883"><ele>700.5999999999999</ele><time>2026-05-03T14:06:56.483Z</time></trkpt><trkpt lat="40.08583" lon="15.9867983"><ele>700.8</ele><time>2026-05-03T14:06:57.481Z</time></trkpt><trkpt lat="40.0858283" lon="15.9869183"><ele>701.0</ele><time>2026-05-03T14:06:58.482Z</time></trkpt><trkpt lat="40.08582" lon="15.9870533"><ele>700.0</ele><time>2026-05-03T14:06:59.481Z</time></trkpt><trkpt lat="40.08581" lon="15.9871917"><ele>699.0</ele><time>2026-05-03T14:07:00.486Z</time></trkpt><trkpt lat="40.0857933" lon="15.987345"><ele>698.0</ele><time>2026-05-03T14:07:01.482Z</time></trkpt><trkpt lat="40.0857767" lon="15.98751"><ele>697.0</ele><time>2026-05-03T14:07:02.482Z</time></trkpt><trkpt lat="40.08576" lon="15.9876933"><ele>696.5</ele><time>2026-05-03T14:07:03.481Z</time></trkpt><trkpt lat="40.08574" lon="15.9878833"><ele>696.0</ele><time>2026-05-03T14:07:04.482Z</time></trkpt><trkpt lat="40.08572" lon="15.9880617"><ele>695.5</ele><time>2026-05-03T14:07:05.48Z</time></trkpt><trkpt lat="40.0857" lon="15.9882433"><ele>695.0</ele><time>2026-05-03T14:07:06.481Z</time></trkpt><trkpt lat="40.08568" lon="15.9884267"><ele>699.0</ele><time>2026-05-03T14:07:07.481Z</time></trkpt><trkpt lat="40.0856567" lon="15.9886217"><ele>703.0</ele><time>2026-05-03T14:07:08.482Z</time></trkpt><trkpt lat="40.0856317" lon="15.988825"><ele>707.0</ele><time>2026-05-03T14:07:09.481Z</time></trkpt><trkpt lat="40.0856017" lon="15.9890333"><ele>709.3333333333333</ele><time>2026-05-03T14:07:10.481Z</time></trkpt><trkpt lat="40.085565" lon="15.9892483"><ele>711.6666666666666</ele><time>2026-05-03T14:07:11.482Z</time></trkpt><trkpt lat="40.0855217" lon="15.98947"><ele>714.0</ele><time>2026-05-03T14:07:12.482Z</time></trkpt><trkpt lat="40.0854767" lon="15.9896967"><ele>714.0</ele><time>2026-05-03T14:07:13.481Z</time></trkpt><trkpt lat="40.0854433" lon="15.989925"><ele>714.0</ele><time>2026-05-03T14:07:14.481Z</time></trkpt><trkpt lat="40.08542" lon="15.9901567"><ele>714.0</ele><time>2026-05-03T14:07:15.48Z</time></trkpt><trkpt lat="40.0854083" lon="15.9903983"><ele>717.0</ele><time>2026-05-03T14:07:16.48Z</time></trkpt><trkpt lat="40.085405" lon="15.9906433"><ele>720.0</ele><time>2026-05-03T14:07:17.48Z</time></trkpt><trkpt lat="40.08542" lon="15.9908767"><ele>723.0</ele><time>2026-05-03T14:07:18.481Z</time></trkpt><trkpt lat="40.08545" lon="15.991105"><ele>723.6666666666666</ele><time>2026-05-03T14:07:19.481Z</time></trkpt><trkpt lat="40.085505" lon="15.9913283"><ele>724.3333333333333</ele><time>2026-05-03T14:07:20.481Z</time></trkpt><trkpt lat="40.08557" lon="15.99155"><ele>725.0</ele><time>2026-05-03T14:07:21.481Z</time></trkpt><trkpt lat="40.085645" lon="15.9917667"><ele>727.0</ele><time>2026-05-03T14:07:22.481Z</time></trkpt><trkpt lat="40.085725" lon="15.99198"><ele>729.0</ele><time>2026-05-03T14:07:23.481Z</time></trkpt><trkpt lat="40.0858067" lon="15.992185"><ele>731.0</ele><time>2026-05-03T14:07:24.481Z</time></trkpt><trkpt lat="40.0858833" lon="15.992385"><ele>731.0</ele><time>2026-05-03T14:07:25.482Z</time></trkpt><trkpt lat="40.0859567" lon="15.9925833"><ele>731.0</ele><time>2026-05-03T14:07:26.48Z</time></trkpt><trkpt lat="40.08603" lon="15.9927817"><ele>731.0</ele><time>2026-05-03T14:07:27.48Z</time></trkpt><trkpt lat="40.0861083" lon="15.99298"><ele>731.0</ele><time>2026-05-03T14:07:28.481Z</time></trkpt><trkpt lat="40.08619" lon="15.9931833"><ele>731.0</ele><time>2026-05-03T14:07:29.481Z</time></trkpt><trkpt lat="40.0862733" lon="15.9933967"><ele>731.0</ele><time>2026-05-03T14:07:30.482Z</time></trkpt><trkpt lat="40.086355" lon="15.9936217"><ele>731.0</ele><time>2026-05-03T14:07:31.481Z</time></trkpt><trkpt lat="40.086435" lon="15.9938467"><ele>731.0</ele><time>2026-05-03T14:07:32.481Z</time></trkpt><trkpt lat="40.086505" lon="15.9940817"><ele>731.0</ele><time>2026-05-03T14:07:33.482Z</time></trkpt><trkpt lat="40.0865667" lon="15.99432"><ele>735.0</ele><time>2026-05-03T14:07:34.48Z</time></trkpt><trkpt lat="40.08662" lon="15.9945667"><ele>739.0</ele><time>2026-05-03T14:07:35.482Z</time></trkpt><trkpt lat="40.0866683" lon="15.9948233"><ele>743.0</ele><time>2026-05-03T14:07:36.48Z</time></trkpt><trkpt lat="40.086705" lon="15.99508"><ele>743.0</ele><time>2026-05-03T14:07:37.481Z</time></trkpt><trkpt lat="40.0867367" lon="15.995335"><ele>743.0</ele><time>2026-05-03T14:07:38.482Z</time></trkpt><trkpt lat="40.0867633" lon="15.9956"><ele>743.0</ele><time>2026-05-03T14:07:39.482Z</time></trkpt><trkpt lat="40.0867767" lon="15.9958717"><ele>745.0</ele><time>2026-05-03T14:07:40.482Z</time></trkpt><trkpt lat="40.08678" lon="15.996145"><ele>747.0</ele><time>2026-05-03T14:07:41.482Z</time></trkpt><trkpt lat="40.086775" lon="15.9964233"><ele>749.0</ele><time>2026-05-03T14:07:42.483Z</time></trkpt><trkpt lat="40.0867583" lon="15.9967017"><ele>751.5</ele><time>2026-05-03T14:07:43.483Z</time></trkpt><trkpt lat="40.0867183" lon="15.9969917"><ele>754.0</ele><time>2026-05-03T14:07:44.482Z</time></trkpt><trkpt lat="40.0866833" lon="15.9972867"><ele>752.3333333333334</ele><time>2026-05-03T14:07:45.482Z</time></trkpt><trkpt lat="40.0866367" lon="15.9975567"><ele>750.6666666666666</ele><time>2026-05-03T14:07:46.482Z</time></trkpt><trkpt lat="40.0865867" lon="15.9978383"><ele>749.0</ele><time>2026-05-03T14:07:47.483Z</time></trkpt><trkpt lat="40.08654" lon="15.998105"><ele>751.3333333333333</ele><time>2026-05-03T14:07:48.482Z</time></trkpt><trkpt lat="40.0864867" lon="15.9983733"><ele>753.6666666666666</ele><time>2026-05-03T14:07:49.481Z</time></trkpt><trkpt lat="40.0864317" lon="15.9986433"><ele>756.0</ele><time>2026-05-03T14:07:50.482Z</time></trkpt><trkpt lat="40.0863783" lon="15.9989167"><ele>758.3333333333334</ele><time>2026-05-03T14:07:51.481Z</time></trkpt><trkpt lat="40.0863317" lon="15.99919"><ele>760.6666666666667</ele><time>2026-05-03T14:07:52.48Z</time></trkpt><trkpt lat="40.0862917" lon="15.999465"><ele>763.0</ele><time>2026-05-03T14:07:53.482Z</time></trkpt><trkpt lat="40.0862533" lon="15.9997367"><ele>763.0</ele><time>2026-05-03T14:07:54.481Z</time></trkpt><trkpt lat="40.0862183" lon="16.000005"><ele>763.0</ele><time>2026-05-03T14:07:55.482Z</time></trkpt><trkpt lat="40.0861833" lon="16.00027"><ele>763.0</ele><time>2026-05-03T14:07:56.482Z</time></trkpt><trkpt lat="40.08615" lon="16.0005283"><ele>763.0</ele><time>2026-05-03T14:07:57.481Z</time></trkpt><trkpt lat="40.0861183" lon="16.000785"><ele>763.0</ele><time>2026-05-03T14:07:58.482Z</time></trkpt><trkpt lat="40.0860867" lon="16.0010417"><ele>763.0</ele><time>2026-05-03T14:07:59.483Z</time></trkpt><trkpt lat="40.0860583" lon="16.0012933"><ele>766.0</ele><time>2026-05-03T14:08:00.482Z</time></trkpt><trkpt lat="40.0860367" lon="16.0015417"><ele>769.0</ele><time>2026-05-03T14:08:01.482Z</time></trkpt><trkpt lat="40.08603" lon="16.0017883"><ele>772.0</ele><time>2026-05-03T14:08:02.482Z</time></trkpt><trkpt lat="40.0860383" lon="16.0020317"><ele>772.6666666666666</ele><time>2026-05-03T14:08:03.48Z</time></trkpt><trkpt lat="40.0860617" lon="16.0022717"><ele>773.3333333333333</ele><time>2026-05-03T14:08:04.481Z</time></trkpt><trkpt lat="40.0861" lon="16.002515"><ele>774.0</ele><time>2026-05-03T14:08:05.482Z</time></trkpt><trkpt lat="40.0861567" lon="16.0027617"><ele>775.3333333333333</ele><time>2026-05-03T14:08:06.481Z</time></trkpt><trkpt lat="40.086225" lon="16.0030117"><ele>776.6666666666666</ele><time>2026-05-03T14:08:07.482Z</time></trkpt><trkpt lat="40.08632" lon="16.003255"><ele>778.0</ele><time>2026-05-03T14:08:08.482Z</time></trkpt><trkpt lat="40.0864333" lon="16.0034917"><ele>779.0</ele><time>2026-05-03T14:08:09.482Z</time></trkpt><trkpt lat="40.0865567" lon="16.0037233"><ele>780.0</ele><time>2026-05-03T14:08:10.482Z</time></trkpt><trkpt lat="40.0867017" lon="16.003945"><ele>781.0</ele><time>2026-05-03T14:08:11.482Z</time></trkpt><trkpt lat="40.0868533" lon="16.004155"><ele>784.6666666666666</ele><time>2026-05-03T14:08:12.481Z</time></trkpt><trkpt lat="40.0870183" lon="16.0043617"><ele>788.3333333333333</ele><time>2026-05-03T14:08:13.482Z</time></trkpt><trkpt lat="40.0871767" lon="16.004555"><ele>792.0</ele><time>2026-05-03T14:08:14.481Z</time></trkpt><trkpt lat="40.0873317" lon="16.0047433"><ele>793.3333333333333</ele><time>2026-05-03T14:08:15.481Z</time></trkpt><trkpt lat="40.08747" lon="16.0049317"><ele>794.6666666666666</ele><time>2026-05-03T14:08:16.482Z</time></trkpt><trkpt lat="40.0875883" lon="16.00516"><ele>796.0</ele><time>2026-05-03T14:08:17.481Z</time></trkpt><trkpt lat="40.0876717" lon="16.00541"><ele>796.0</ele><time>2026-05-03T14:08:18.481Z</time></trkpt><trkpt lat="40.08774" lon="16.0056183"><ele>796.0</ele><time>2026-05-03T14:08:19.48Z</time></trkpt><trkpt lat="40.0877833" lon="16.0058333"><ele>796.0</ele><time>2026-05-03T14:08:20.481Z</time></trkpt><trkpt lat="40.08782" lon="16.00605"><ele>796.0</ele><time>2026-05-03T14:08:21.482Z</time></trkpt><trkpt lat="40.087825" lon="16.0062733"><ele>796.0</ele><time>2026-05-03T14:08:22.482Z</time></trkpt><trkpt lat="40.08781" lon="16.006495"><ele>796.0</ele><time>2026-05-03T14:08:23.482Z</time></trkpt><trkpt lat="40.087775" lon="16.0067167"><ele>796.0</ele><time>2026-05-03T14:08:24.48Z</time></trkpt><trkpt lat="40.0877233" lon="16.0069467"><ele>796.0</ele><time>2026-05-03T14:08:25.482Z</time></trkpt><trkpt lat="40.0876633" lon="16.0071783"><ele>796.0</ele><time>2026-05-03T14:08:26.481Z</time></trkpt><trkpt lat="40.0875983" lon="16.0074283"><ele>799.0</ele><time>2026-05-03T14:08:27.482Z</time></trkpt><trkpt lat="40.0875317" lon="16.007695"><ele>802.0</ele><time>2026-05-03T14:08:28.481Z</time></trkpt><trkpt lat="40.087465" lon="16.0079733"><ele>805.0</ele><time>2026-05-03T14:08:29.485Z</time></trkpt><trkpt lat="40.0873983" lon="16.0082667"><ele>797.5</ele><time>2026-05-03T14:08:30.481Z</time></trkpt><trkpt lat="40.08733" lon="16.00857"><ele>790.0</ele><time>2026-05-03T14:08:31.481Z</time></trkpt><trkpt lat="40.0872567" lon="16.00888"><ele>793.5</ele><time>2026-05-03T14:08:32.482Z</time></trkpt><trkpt lat="40.087185" lon="16.0091883"><ele>797.0</ele><time>2026-05-03T14:08:33.481Z</time></trkpt><trkpt lat="40.0871133" lon="16.009495"><ele>797.0</ele><time>2026-05-03T14:08:34.482Z</time></trkpt><trkpt lat="40.0870417" lon="16.0097983"><ele>797.0</ele><time>2026-05-03T14:08:35.48Z</time></trkpt><trkpt lat="40.0869767" lon="16.0100917"><ele>801.5</ele><time>2026-05-03T14:08:36.481Z</time></trkpt><trkpt lat="40.0869167" lon="16.0103783"><ele>806.0</ele><time>2026-05-03T14:08:37.481Z</time></trkpt><trkpt lat="40.0868583" lon="16.0106617"><ele>808.3333333333334</ele><time>2026-05-03T14:08:38.482Z</time></trkpt><trkpt lat="40.0868033" lon="16.01093"><ele>810.6666666666667</ele><time>2026-05-03T14:08:39.482Z</time></trkpt><trkpt lat="40.08674" lon="16.011175"><ele>813.0</ele><time>2026-05-03T14:08:40.482Z</time></trkpt><trkpt lat="40.0866867" lon="16.01139"><ele>813.0</ele><time>2026-05-03T14:08:41.482Z</time></trkpt><trkpt lat="40.0866283" lon="16.0115733"><ele>813.0</ele><time>2026-05-03T14:08:42.482Z</time></trkpt><trkpt lat="40.0865633" lon="16.0117283"><ele>813.0</ele><time>2026-05-03T14:08:43.482Z</time></trkpt><trkpt lat="40.0865133" lon="16.0118483"><ele>813.0</ele><time>2026-05-03T14:08:44.482Z</time></trkpt><trkpt lat="40.08648" lon="16.011935"><ele>815.0</ele><time>2026-05-03T14:08:45.481Z</time></trkpt><trkpt lat="40.08644" lon="16.01206"><ele>817.0</ele><time>2026-05-03T14:08:47.481Z</time></trkpt><trkpt lat="40.0864467" lon="16.01215"><ele>819.0</ele><time>2026-05-03T14:08:50.482Z</time></trkpt><trkpt lat="40.08654" lon="16.0121283"><ele>821.0</ele><time>2026-05-03T14:10:20.482Z</time></trkpt><trkpt lat="40.08661" lon="16.0121233"><ele>823.0</ele><time>2026-05-03T14:10:22.482Z</time></trkpt><trkpt lat="40.086675" lon="16.0120883"><ele>825.0</ele><time>2026-05-03T14:10:25.482Z</time></trkpt><trkpt lat="40.0866783" lon="16.011995"><ele>825.0</ele><time>2026-05-03T14:10:58.482Z</time></trkpt><trkpt lat="40.0866367" lon="16.011865"><ele>825.0</ele><time>2026-05-03T14:11:00.482Z</time></trkpt><trkpt lat="40.0866383" lon="16.011775"><ele>825.0</ele><time>2026-05-03T14:11:01.482Z</time></trkpt><trkpt lat="40.0866617" lon="16.0116667"><ele>825.0</ele><time>2026-05-03T14:11:02.482Z</time></trkpt><trkpt lat="40.086695" lon="16.011545"><ele>825.0</ele><time>2026-05-03T14:11:03.481Z</time></trkpt><trkpt lat="40.0867367" lon="16.0113983"><ele>822.0</ele><time>2026-05-03T14:11:04.482Z</time></trkpt><trkpt lat="40.086785" lon="16.0112417"><ele>819.0</ele><time>2026-05-03T14:11:05.481Z</time></trkpt><trkpt lat="40.0868283" lon="16.0110733"><ele>816.0</ele><time>2026-05-03T14:11:06.482Z</time></trkpt><trkpt lat="40.08687" lon="16.0108967"><ele>813.0</ele><time>2026-05-03T14:11:07.482Z</time></trkpt><trkpt lat="40.08691" lon="16.0107033"><ele>810.6666666666667</ele><time>2026-05-03T14:11:08.482Z</time></trkpt><trkpt lat="40.0869533" lon="16.0104867"><ele>808.3333333333334</ele><time>2026-05-03T14:11:09.481Z</time></trkpt><trkpt lat="40.0869967" lon="16.0102617"><ele>806.0</ele><time>2026-05-03T14:11:10.481Z</time></trkpt><trkpt lat="40.0870483" lon="16.0100267"><ele>803.0</ele><time>2026-05-03T14:11:11.482Z</time></trkpt><trkpt lat="40.0871067" lon="16.0097833"><ele>800.0</ele><time>2026-05-03T14:11:12.482Z</time></trkpt><trkpt lat="40.0871683" lon="16.0095267"><ele>797.0</ele><time>2026-05-03T14:11:13.483Z</time></trkpt><trkpt lat="40.087235" lon="16.0092617"><ele>794.6666666666667</ele><time>2026-05-03T14:11:14.482Z</time></trkpt><trkpt lat="40.0873" lon="16.0089867"><ele>792.3333333333333</ele><time>2026-05-03T14:11:15.481Z</time></trkpt><trkpt lat="40.08737" lon="16.0087083"><ele>790.0</ele><time>2026-05-03T14:11:16.482Z</time></trkpt><trkpt lat="40.08744" lon="16.0084233"><ele>797.5</ele><time>2026-05-03T14:11:17.482Z</time></trkpt><trkpt lat="40.08751" lon="16.0081383"><ele>805.0</ele><time>2026-05-03T14:11:18.483Z</time></trkpt><trkpt lat="40.08758" lon="16.0078567"><ele>805.0</ele><time>2026-05-03T14:11:19.482Z</time></trkpt><trkpt lat="40.0876467" lon="16.007585"><ele>805.0</ele><time>2026-05-03T14:11:20.483Z</time></trkpt><trkpt lat="40.08771" lon="16.0073217"><ele>805.0</ele><time>2026-05-03T14:11:21.481Z</time></trkpt><trkpt lat="40.0877717" lon="16.0070717"><ele>802.0</ele><time>2026-05-03T14:11:22.481Z</time></trkpt><trkpt lat="40.0878217" lon="16.006835"><ele>799.0</ele><time>2026-05-03T14:11:23.482Z</time></trkpt><trkpt lat="40.0878617" lon="16.0066017"><ele>796.0</ele><time>2026-05-03T14:11:24.483Z</time></trkpt><trkpt lat="40.0878917" lon="16.0063767"><ele>796.0</ele><time>2026-05-03T14:11:25.481Z</time></trkpt><trkpt lat="40.0878983" lon="16.0061567"><ele>796.0</ele><time>2026-05-03T14:11:26.483Z</time></trkpt><trkpt lat="40.087885" lon="16.00594"><ele>796.0</ele><time>2026-05-03T14:11:27.482Z</time></trkpt><trkpt lat="40.0878567" lon="16.005735"><ele>796.0</ele><time>2026-05-03T14:11:28.482Z</time></trkpt><trkpt lat="40.0878083" lon="16.0055317"><ele>796.0</ele><time>2026-05-03T14:11:29.481Z</time></trkpt><trkpt lat="40.087745" lon="16.0053283"><ele>796.0</ele><time>2026-05-03T14:11:30.482Z</time></trkpt><trkpt lat="40.0876633" lon="16.0051317"><ele>794.6666666666666</ele><time>2026-05-03T14:11:31.481Z</time></trkpt><trkpt lat="40.0875617" lon="16.00494"><ele>793.3333333333333</ele><time>2026-05-03T14:11:32.483Z</time></trkpt><trkpt lat="40.0874433" lon="16.0047533"><ele>792.0</ele><time>2026-05-03T14:11:33.482Z</time></trkpt><trkpt lat="40.087305" lon="16.0045683"><ele>792.0</ele><time>2026-05-03T14:11:34.482Z</time></trkpt><trkpt lat="40.087155" lon="16.004385"><ele>792.0</ele><time>2026-05-03T14:11:35.483Z</time></trkpt><trkpt lat="40.086995" lon="16.004195"><ele>792.0</ele><time>2026-05-03T14:11:36.48Z</time></trkpt><trkpt lat="40.086835" lon="16.003995"><ele>793.3333333333333</ele><time>2026-05-03T14:11:37.482Z</time></trkpt><trkpt lat="40.08669" lon="16.003795"><ele>794.6666666666666</ele><time>2026-05-03T14:11:38.482Z</time></trkpt><trkpt lat="40.0865633" lon="16.0035983"><ele>796.0</ele><time>2026-05-03T14:11:39.482Z</time></trkpt><trkpt lat="40.0864467" lon="16.00339"><ele>790.0</ele><time>2026-05-03T14:11:40.484Z</time></trkpt><trkpt lat="40.0863417" lon="16.0031667"><ele>784.0</ele><time>2026-05-03T14:11:41.484Z</time></trkpt><trkpt lat="40.0862583" lon="16.0029233"><ele>778.0</ele><time>2026-05-03T14:11:42.483Z</time></trkpt><trkpt lat="40.0861833" lon="16.0026767"><ele>776.6666666666666</ele><time>2026-05-03T14:11:43.482Z</time></trkpt><trkpt lat="40.086125" lon="16.00241"><ele>775.3333333333333</ele><time>2026-05-03T14:11:44.481Z</time></trkpt><trkpt lat="40.0860867" lon="16.002135"><ele>774.0</ele><time>2026-05-03T14:11:45.482Z</time></trkpt><trkpt lat="40.0860667" lon="16.0018483"><ele>773.0</ele><time>2026-05-03T14:11:46.482Z</time></trkpt><trkpt lat="40.08607" lon="16.0015567"><ele>772.0</ele><time>2026-05-03T14:11:47.483Z</time></trkpt><trkpt lat="40.0860917" lon="16.00126"><ele>772.0</ele><time>2026-05-03T14:11:48.482Z</time></trkpt><trkpt lat="40.086125" lon="16.0009567"><ele>772.0</ele><time>2026-05-03T14:11:49.483Z</time></trkpt><trkpt lat="40.086165" lon="16.0006517"><ele>767.5</ele><time>2026-05-03T14:11:50.483Z</time></trkpt><trkpt lat="40.086205" lon="16.0003417"><ele>763.0</ele><time>2026-05-03T14:11:51.481Z</time></trkpt><trkpt lat="40.0862467" lon="16.00003"><ele>763.0</ele><time>2026-05-03T14:11:52.481Z</time></trkpt><trkpt lat="40.0862883" lon="15.99972"><ele>763.0</ele><time>2026-05-03T14:11:53.483Z</time></trkpt><trkpt lat="40.0863333" lon="15.9994167"><ele>759.5</ele><time>2026-05-03T14:11:54.483Z</time></trkpt><trkpt lat="40.08638" lon="15.99912"><ele>756.0</ele><time>2026-05-03T14:11:55.482Z</time></trkpt><trkpt lat="40.0864283" lon="15.9988333"><ele>756.0</ele><time>2026-05-03T14:11:56.482Z</time></trkpt><trkpt lat="40.0864817" lon="15.9985617"><ele>756.0</ele><time>2026-05-03T14:11:57.48Z</time></trkpt><trkpt lat="40.08653" lon="15.9983017"><ele>756.0</ele><time>2026-05-03T14:11:58.482Z</time></trkpt><trkpt lat="40.08658" lon="15.9980567"><ele>755.3333333333334</ele><time>2026-05-03T14:11:59.481Z</time></trkpt><trkpt lat="40.08663" lon="15.9978267"><ele>754.6666666666667</ele><time>2026-05-03T14:12:00.482Z</time></trkpt><trkpt lat="40.0866767" lon="15.997615"><ele>754.0</ele><time>2026-05-03T14:12:01.481Z</time></trkpt><trkpt lat="40.086715" lon="15.9974133"><ele>754.0</ele><time>2026-05-03T14:12:02.482Z</time></trkpt><trkpt lat="40.0867467" lon="15.9972217"><ele>754.0</ele><time>2026-05-03T14:12:03.482Z</time></trkpt><trkpt lat="40.0867767" lon="15.9970317"><ele>754.0</ele><time>2026-05-03T14:12:04.481Z</time></trkpt><trkpt lat="40.0868" lon="15.9968467"><ele>754.0</ele><time>2026-05-03T14:12:05.482Z</time></trkpt><trkpt lat="40.0868167" lon="15.9966683"><ele>752.75</ele><time>2026-05-03T14:12:06.482Z</time></trkpt><trkpt lat="40.0868233" lon="15.9965033"><ele>751.5</ele><time>2026-05-03T14:12:07.481Z</time></trkpt><trkpt lat="40.0868267" lon="15.9963467"><ele>750.25</ele><time>2026-05-03T14:12:08.483Z</time></trkpt><trkpt lat="40.0868333" lon="15.996195"><ele>749.0</ele><time>2026-05-03T14:12:09.482Z</time></trkpt><trkpt lat="40.0868267" lon="15.99603"><ele>749.0</ele><time>2026-05-03T14:12:10.481Z</time></trkpt><trkpt lat="40.086825" lon="15.995895"><ele>749.0</ele><time>2026-05-03T14:12:11.482Z</time></trkpt><trkpt lat="40.0868217" lon="15.99578"><ele>749.0</ele><time>2026-05-03T14:12:12.482Z</time></trkpt><trkpt lat="40.0868233" lon="15.9956567"><ele>749.0</ele><time>2026-05-03T14:12:13.482Z</time></trkpt><trkpt lat="40.0868267" lon="15.9955267"><ele>749.0</ele><time>2026-05-03T14:12:14.482Z</time></trkpt><trkpt lat="40.08682" lon="15.9954083"><ele>748.0</ele><time>2026-05-03T14:12:15.481Z</time></trkpt><trkpt lat="40.086805" lon="15.9953033"><ele>747.0</ele><time>2026-05-03T14:12:16.483Z</time></trkpt><trkpt lat="40.08679" lon="15.9951967"><ele>746.0</ele><time>2026-05-03T14:12:17.483Z</time></trkpt><trkpt lat="40.0867717" lon="15.995085"><ele>745.0</ele><time>2026-05-03T14:12:18.481Z</time></trkpt><trkpt lat="40.086755" lon="15.99497"><ele>744.0</ele><time>2026-05-03T14:12:19.481Z</time></trkpt><trkpt lat="40.086735" lon="15.99485"><ele>743.0</ele><time>2026-05-03T14:12:20.483Z</time></trkpt><trkpt lat="40.0867133" lon="15.9947267"><ele>743.0</ele><time>2026-05-03T14:12:21.481Z</time></trkpt><trkpt lat="40.0866883" lon="15.9945967"><ele>743.0</ele><time>2026-05-03T14:12:22.482Z</time></trkpt><trkpt lat="40.0866617" lon="15.9944683"><ele>743.0</ele><time>2026-05-03T14:12:23.482Z</time></trkpt><trkpt lat="40.08663" lon="15.9943383"><ele>743.0</ele><time>2026-05-03T14:12:24.482Z</time></trkpt><trkpt lat="40.0865933" lon="15.9942067"><ele>743.0</ele><time>2026-05-03T14:12:25.482Z</time></trkpt><trkpt lat="40.0865533" lon="15.9940683"><ele>740.0</ele><time>2026-05-03T14:12:26.482Z</time></trkpt><trkpt lat="40.0865133" lon="15.993925"><ele>737.0</ele><time>2026-05-03T14:12:27.481Z</time></trkpt><trkpt lat="40.0864683" lon="15.9937767"><ele>734.0</ele><time>2026-05-03T14:12:28.482Z</time></trkpt><trkpt lat="40.086415" lon="15.9936267"><ele>731.0</ele><time>2026-05-03T14:12:29.481Z</time></trkpt><trkpt lat="40.08636" lon="15.9934767"><ele>731.0</ele><time>2026-05-03T14:12:30.482Z</time></trkpt><trkpt lat="40.0863033" lon="15.9933267"><ele>731.0</ele><time>2026-05-03T14:12:31.481Z</time></trkpt><trkpt lat="40.0862433" lon="15.99318"><ele>731.0</ele><time>2026-05-03T14:12:32.481Z</time></trkpt><trkpt lat="40.086185" lon="15.9930333"><ele>731.0</ele><time>2026-05-03T14:12:33.482Z</time></trkpt><trkpt lat="40.0861317" lon="15.9928883"><ele>731.0</ele><time>2026-05-03T14:12:34.482Z</time></trkpt><trkpt lat="40.08608" lon="15.9927433"><ele>731.0</ele><time>2026-05-03T14:12:35.481Z</time></trkpt><trkpt lat="40.086025" lon="15.9925967"><ele>731.0</ele><time>2026-05-03T14:12:36.483Z</time></trkpt><trkpt lat="40.08597" lon="15.99245"><ele>731.0</ele><time>2026-05-03T14:12:37.482Z</time></trkpt><trkpt lat="40.0859083" lon="15.9923033"><ele>731.0</ele><time>2026-05-03T14:12:38.481Z</time></trkpt><trkpt lat="40.0858467" lon="15.9921567"><ele>731.0</ele><time>2026-05-03T14:12:39.482Z</time></trkpt><trkpt lat="40.08578" lon="15.99201"><ele>731.0</ele><time>2026-05-03T14:12:40.481Z</time></trkpt><trkpt lat="40.0857167" lon="15.9918567"><ele>731.0</ele><time>2026-05-03T14:12:41.482Z</time></trkpt><trkpt lat="40.08566" lon="15.9916967"><ele>729.5</ele><time>2026-05-03T14:12:42.482Z</time></trkpt><trkpt lat="40.0856117" lon="15.9915283"><ele>728.0</ele><time>2026-05-03T14:12:43.481Z</time></trkpt><trkpt lat="40.0855683" lon="15.9913567"><ele>726.5</ele><time>2026-05-03T14:12:44.481Z</time></trkpt><trkpt lat="40.08553" lon="15.9911833"><ele>725.0</ele><time>2026-05-03T14:12:45.482Z</time></trkpt><trkpt lat="40.0855" lon="15.991005"><ele>724.5</ele><time>2026-05-03T14:12:46.482Z</time></trkpt><trkpt lat="40.0854783" lon="15.9908267"><ele>724.0</ele><time>2026-05-03T14:12:47.482Z</time></trkpt><trkpt lat="40.0854667" lon="15.99065"><ele>723.5</ele><time>2026-05-03T14:12:48.482Z</time></trkpt><trkpt lat="40.085465" lon="15.9904667"><ele>723.0</ele><time>2026-05-03T14:12:49.482Z</time></trkpt><trkpt lat="40.0854683" lon="15.9902817"><ele>723.0</ele><time>2026-05-03T14:12:50.483Z</time></trkpt><trkpt lat="40.0854783" lon="15.9900883"><ele>723.0</ele><time>2026-05-03T14:12:51.482Z</time></trkpt><trkpt lat="40.0855017" lon="15.989895"><ele>723.0</ele><time>2026-05-03T14:12:52.482Z</time></trkpt><trkpt lat="40.0855317" lon="15.989705"><ele>723.0</ele><time>2026-05-03T14:12:53.482Z</time></trkpt><trkpt lat="40.08557" lon="15.9895133"><ele>720.0</ele><time>2026-05-03T14:12:54.482Z</time></trkpt><trkpt lat="40.0856117" lon="15.9893117"><ele>717.0</ele><time>2026-05-03T14:12:55.482Z</time></trkpt><trkpt lat="40.0856367" lon="15.9890783"><ele>714.0</ele><time>2026-05-03T14:12:56.482Z</time></trkpt><trkpt lat="40.0856567" lon="15.9888267"><ele>711.6666666666666</ele><time>2026-05-03T14:12:57.481Z</time></trkpt><trkpt lat="40.085685" lon="15.9885667"><ele>709.3333333333333</ele><time>2026-05-03T14:12:58.482Z</time></trkpt><trkpt lat="40.0857133" lon="15.9882767"><ele>707.0</ele><time>2026-05-03T14:12:59.483Z</time></trkpt><trkpt lat="40.0857467" lon="15.9879833"><ele>708.0</ele><time>2026-05-03T14:13:00.482Z</time></trkpt><trkpt lat="40.0857867" lon="15.9877083"><ele>709.0</ele><time>2026-05-03T14:13:01.482Z</time></trkpt><trkpt lat="40.0858233" lon="15.9874417"><ele>710.0</ele><time>2026-05-03T14:13:02.482Z</time></trkpt><trkpt lat="40.0858583" lon="15.9871883"><ele>707.0</ele><time>2026-05-03T14:13:03.481Z</time></trkpt><trkpt lat="40.08589" lon="15.9869367"><ele>704.0</ele><time>2026-05-03T14:13:04.481Z</time></trkpt><trkpt lat="40.0859117" lon="15.986685"><ele>701.0</ele><time>2026-05-03T14:13:05.482Z</time></trkpt><trkpt lat="40.08593" lon="15.98644"><ele>701.0</ele><time>2026-05-03T14:13:06.481Z</time></trkpt><trkpt lat="40.0859367" lon="15.986195"><ele>701.0</ele><time>2026-05-03T14:13:07.482Z</time></trkpt><trkpt lat="40.0859333" lon="15.9859567"><ele>701.0</ele><time>2026-05-03T14:13:08.481Z</time></trkpt><trkpt lat="40.0859117" lon="15.985725"><ele>700.6666666666666</ele><time>2026-05-03T14:13:09.481Z</time></trkpt><trkpt lat="40.08587" lon="15.9855017"><ele>700.3333333333334</ele><time>2026-05-03T14:13:10.482Z</time></trkpt><trkpt lat="40.0858133" lon="15.9852883"><ele>700.0</ele><time>2026-05-03T14:13:11.482Z</time></trkpt><trkpt lat="40.085745" lon="15.98509"><ele>697.0</ele><time>2026-05-03T14:13:12.481Z</time></trkpt><trkpt lat="40.085675" lon="15.98492"><ele>694.0</ele><time>2026-05-03T14:13:13.481Z</time></trkpt><trkpt lat="40.0856017" lon="15.9847683"><ele>691.0</ele><time>2026-05-03T14:13:14.484Z</time></trkpt><trkpt lat="40.0855233" lon="15.98463"><ele>688.0</ele><time>2026-05-03T14:13:15.482Z</time></trkpt><trkpt lat="40.08544" lon="15.9844883"><ele>688.0</ele><time>2026-05-03T14:13:16.482Z</time></trkpt><trkpt lat="40.0853583" lon="15.9843383"><ele>688.0</ele><time>2026-05-03T14:13:17.483Z</time></trkpt><trkpt lat="40.085285" lon="15.984195"><ele>688.0</ele><time>2026-05-03T14:13:18.483Z</time></trkpt><trkpt lat="40.0852367" lon="15.9840783"><ele>688.0</ele><time>2026-05-03T14:13:19.484Z</time></trkpt><trkpt lat="40.0852033" lon="15.98398"><ele>687.8333333333334</ele><time>2026-05-03T14:13:20.485Z</time></trkpt><trkpt lat="40.0851783" lon="15.9838917"><ele>687.6666666666667</ele><time>2026-05-03T14:13:21.484Z</time></trkpt><trkpt lat="40.0851583" lon="15.9838083"><ele>687.5</ele><time>2026-05-03T14:13:22.483Z</time></trkpt><trkpt lat="40.0851083" lon="15.9836783"><ele>687.3333333333334</ele><time>2026-05-03T14:13:24.482Z</time></trkpt><trkpt lat="40.0850517" lon="15.9835367"><ele>687.1666666666666</ele><time>2026-05-03T14:13:26.483Z</time></trkpt><trkpt lat="40.0850217" lon="15.983445"><ele>687.0</ele><time>2026-05-03T14:13:27.481Z</time></trkpt><trkpt lat="40.0849967" lon="15.9833583"><ele>687.4000000000001</ele><time>2026-05-03T14:13:28.482Z</time></trkpt><trkpt lat="40.0849817" lon="15.9832633"><ele>687.8000000000001</ele><time>2026-05-03T14:13:29.482Z</time></trkpt><trkpt lat="40.084965" lon="15.9830817"><ele>688.2</ele><time>2026-05-03T14:13:31.483Z</time></trkpt><trkpt lat="40.0849583" lon="15.982955"><ele>688.6</ele><time>2026-05-03T14:13:32.483Z</time></trkpt><trkpt lat="40.0849483" lon="15.982825"><ele>689.0</ele><time>2026-05-03T14:13:33.482Z</time></trkpt><trkpt lat="40.0849483" lon="15.9827117"><ele>689.0</ele><time>2026-05-03T14:13:34.482Z</time></trkpt><trkpt lat="40.0849483" lon="15.9825983"><ele>689.0</ele><time>2026-05-03T14:13:35.481Z</time></trkpt><trkpt lat="40.0849467" lon="15.9824867"><ele>689.0</ele><time>2026-05-03T14:13:36.481Z</time></trkpt><trkpt lat="40.08494" lon="15.9823717"><ele>689.0</ele><time>2026-05-03T14:13:37.481Z</time></trkpt><trkpt lat="40.08493" lon="15.9822517"><ele>689.0</ele><time>2026-05-03T14:13:38.483Z</time></trkpt><trkpt lat="40.0849133" lon="15.98213"><ele>689.0</ele><time>2026-05-03T14:13:39.482Z</time></trkpt><trkpt lat="40.0848933" lon="15.9820217"><ele>688.3333333333333</ele><time>2026-05-03T14:13:40.481Z</time></trkpt><trkpt lat="40.0848583" lon="15.9819233"><ele>687.6666666666666</ele><time>2026-05-03T14:13:41.482Z</time></trkpt><trkpt lat="40.0848083" lon="15.9818333"><ele>687.0</ele><time>2026-05-03T14:13:42.481Z</time></trkpt><trkpt lat="40.0847567" lon="15.98175"><ele>686.3333333333334</ele><time>2026-05-03T14:13:43.482Z</time></trkpt><trkpt lat="40.084715" lon="15.981665"><ele>685.6666666666667</ele><time>2026-05-03T14:13:44.482Z</time></trkpt><trkpt lat="40.08467" lon="15.9815483"><ele>685.0</ele><time>2026-05-03T14:13:45.482Z</time></trkpt><trkpt lat="40.0846233" lon="15.9814367"><ele>684.6666666666667</ele><time>2026-05-03T14:13:46.481Z</time></trkpt><trkpt lat="40.0845767" lon="15.9813567"><ele>684.3333333333334</ele><time>2026-05-03T14:13:47.483Z</time></trkpt><trkpt lat="40.0845217" lon="15.9812833"><ele>684.0</ele><time>2026-05-03T14:13:48.481Z</time></trkpt><trkpt lat="40.0844633" lon="15.9812267"><ele>683.6666666666666</ele><time>2026-05-03T14:13:49.483Z</time></trkpt><trkpt lat="40.0844133" lon="15.98115"><ele>683.3333333333333</ele><time>2026-05-03T14:13:50.482Z</time></trkpt><trkpt lat="40.08435" lon="15.981085"><ele>683.0</ele><time>2026-05-03T14:13:51.481Z</time></trkpt><trkpt lat="40.08429" lon="15.9810033"><ele>683.0</ele><time>2026-05-03T14:13:52.481Z</time></trkpt><trkpt lat="40.0842317" lon="15.9809183"><ele>683.0</ele><time>2026-05-03T14:13:53.481Z</time></trkpt><trkpt lat="40.084175" lon="15.9808317"><ele>683.0</ele><time>2026-05-03T14:13:54.482Z</time></trkpt><trkpt lat="40.0841167" lon="15.9807417"><ele>683.0</ele><time>2026-05-03T14:13:55.482Z</time></trkpt><trkpt lat="40.0840633" lon="15.98065"><ele>683.0</ele><time>2026-05-03T14:13:56.482Z</time></trkpt><trkpt lat="40.0840117" lon="15.9805567"><ele>683.0</ele><time>2026-05-03T14:13:57.482Z</time></trkpt><trkpt lat="40.0839633" lon="15.980465"><ele>682.0</ele><time>2026-05-03T14:13:58.481Z</time></trkpt><trkpt lat="40.0839183" lon="15.98037"><ele>681.0</ele><time>2026-05-03T14:13:59.482Z</time></trkpt><trkpt lat="40.08388" lon="15.98028"><ele>680.0</ele><time>2026-05-03T14:14:00.481Z</time></trkpt><trkpt lat="40.0838417" lon="15.9801883"><ele>679.0</ele><time>2026-05-03T14:14:01.483Z</time></trkpt><trkpt lat="40.0838017" lon="15.9800867"><ele>678.0</ele><time>2026-05-03T14:14:02.482Z</time></trkpt><trkpt lat="40.0837567" lon="15.97998"><ele>677.0</ele><time>2026-05-03T14:14:03.482Z</time></trkpt><trkpt lat="40.083705" lon="15.97986"><ele>677.0</ele><time>2026-05-03T14:14:04.482Z</time></trkpt><trkpt lat="40.0836517" lon="15.9797267"><ele>677.0</ele><time>2026-05-03T14:14:05.482Z</time></trkpt><trkpt lat="40.083615" lon="15.979605"><ele>677.0</ele><time>2026-05-03T14:14:06.482Z</time></trkpt><trkpt lat="40.0835483" lon="15.9794483"><ele>677.0</ele><time>2026-05-03T14:14:07.482Z</time></trkpt><trkpt lat="40.0834683" lon="15.97928"><ele>678.3333333333333</ele><time>2026-05-03T14:14:08.482Z</time></trkpt><trkpt lat="40.0833783" lon="15.9790783"><ele>679.6666666666666</ele><time>2026-05-03T14:14:09.481Z</time></trkpt><trkpt lat="40.0833033" lon="15.978895"><ele>681.0</ele><time>2026-05-03T14:14:10.481Z</time></trkpt><trkpt lat="40.0832233" lon="15.97872"><ele>680.0</ele><time>2026-05-03T14:14:11.482Z</time></trkpt><trkpt lat="40.0831367" lon="15.978555"><ele>679.0</ele><time>2026-05-03T14:14:12.481Z</time></trkpt><trkpt lat="40.0830517" lon="15.9784033"><ele>678.0</ele><time>2026-05-03T14:14:13.482Z</time></trkpt><trkpt lat="40.0829667" lon="15.9782617"><ele>677.0</ele><time>2026-05-03T14:14:14.483Z</time></trkpt><trkpt lat="40.08288" lon="15.9781067"><ele>677.0</ele><time>2026-05-03T14:14:15.482Z</time></trkpt><trkpt lat="40.082795" lon="15.9779317"><ele>677.0</ele><time>2026-05-03T14:14:16.482Z</time></trkpt><trkpt lat="40.082705" lon="15.9777383"><ele>677.0</ele><time>2026-05-03T14:14:17.483Z</time></trkpt><trkpt lat="40.0826067" lon="15.9775333"><ele>676.6666666666666</ele><time>2026-05-03T14:14:18.482Z</time></trkpt><trkpt lat="40.0825" lon="15.9773133"><ele>676.3333333333334</ele><time>2026-05-03T14:14:19.482Z</time></trkpt><trkpt lat="40.0823933" lon="15.9770767"><ele>676.0</ele><time>2026-05-03T14:14:20.482Z</time></trkpt><trkpt lat="40.0822883" lon="15.976825"><ele>682.0</ele><time>2026-05-03T14:14:21.482Z</time></trkpt><trkpt lat="40.0821867" lon="15.976565"><ele>688.0</ele><time>2026-05-03T14:14:22.482Z</time></trkpt><trkpt lat="40.082085" lon="15.9763"><ele>688.0</ele><time>2026-05-03T14:14:23.481Z</time></trkpt><trkpt lat="40.08198" lon="15.9760333"><ele>688.0</ele><time>2026-05-03T14:14:24.482Z</time></trkpt><trkpt lat="40.08176" lon="15.9750133"><ele>687.0</ele><time>2026-05-03T14:14:27.484Z</time></trkpt><trkpt lat="40.0818" lon="15.97465"><ele>686.0</ele><time>2026-05-03T14:14:28.483Z</time></trkpt><trkpt lat="40.0817317" lon="15.9743133"><ele>684.0</ele><time>2026-05-03T14:14:29.484Z</time></trkpt><trkpt lat="40.0816767" lon="15.97397"><ele>682.0</ele><time>2026-05-03T14:14:30.483Z</time></trkpt><trkpt lat="40.08162" lon="15.9736283"><ele>670.5</ele><time>2026-05-03T14:14:31.482Z</time></trkpt><trkpt lat="40.0815633" lon="15.9732883"><ele>659.0</ele><time>2026-05-03T14:14:32.483Z</time></trkpt><trkpt lat="40.0815033" lon="15.9729367"><ele>659.0</ele><time>2026-05-03T14:14:33.482Z</time></trkpt><trkpt lat="40.0814417" lon="15.9725867"><ele>659.0</ele><time>2026-05-03T14:14:34.482Z</time></trkpt><trkpt lat="40.0813833" lon="15.9722433"><ele>662.5</ele><time>2026-05-03T14:14:35.482Z</time></trkpt><trkpt lat="40.0813283" lon="15.9719033"><ele>666.0</ele><time>2026-05-03T14:14:36.48Z</time></trkpt><trkpt lat="40.0812" lon="15.970605"><ele>664.0</ele><time>2026-05-03T14:14:40.483Z</time></trkpt><trkpt lat="40.0812983" lon="15.970295"><ele>662.0</ele><time>2026-05-03T14:14:41.483Z</time></trkpt><trkpt lat="40.0813283" lon="15.96998"><ele>662.0</ele><time>2026-05-03T14:14:42.483Z</time></trkpt><trkpt lat="40.0813867" lon="15.96968"><ele>662.0</ele><time>2026-05-03T14:14:43.483Z</time></trkpt><trkpt lat="40.081455" lon="15.9693867"><ele>660.0</ele><time>2026-05-03T14:14:44.482Z</time></trkpt><trkpt lat="40.0815183" lon="15.9690933"><ele>658.0</ele><time>2026-05-03T14:14:45.48Z</time></trkpt><trkpt lat="40.08157" lon="15.9688"><ele>665.5</ele><time>2026-05-03T14:14:46.482Z</time></trkpt><trkpt lat="40.0816017" lon="15.968505"><ele>673.0</ele><time>2026-05-03T14:14:47.482Z</time></trkpt><trkpt lat="40.0816117" lon="15.9682067"><ele>660.5</ele><time>2026-05-03T14:14:48.482Z</time></trkpt><trkpt lat="40.0815983" lon="15.967905"><ele>648.0</ele><time>2026-05-03T14:14:49.482Z</time></trkpt><trkpt lat="40.08157" lon="15.9676033"><ele>650.0</ele><time>2026-05-03T14:14:50.483Z</time></trkpt><trkpt lat="40.0815283" lon="15.967305"><ele>652.0</ele><time>2026-05-03T14:14:51.482Z</time></trkpt><trkpt lat="40.081485" lon="15.9670017"><ele>652.0</ele><time>2026-05-03T14:14:52.481Z</time></trkpt><trkpt lat="40.0814283" lon="15.9667"><ele>652.0</ele><time>2026-05-03T14:14:53.483Z</time></trkpt><trkpt lat="40.081355" lon="15.9664"><ele>655.0</ele><time>2026-05-03T14:14:54.481Z</time></trkpt><trkpt lat="40.0812733" lon="15.9661033"><ele>658.0</ele><time>2026-05-03T14:14:55.481Z</time></trkpt><trkpt lat="40.0811867" lon="15.96581"><ele>662.5</ele><time>2026-05-03T14:14:56.482Z</time></trkpt><trkpt lat="40.0810917" lon="15.96552"><ele>667.0</ele><time>2026-05-03T14:14:57.481Z</time></trkpt><trkpt lat="40.080995" lon="15.9652333"><ele>671.0</ele><time>2026-05-03T14:14:58.482Z</time></trkpt><trkpt lat="40.0809017" lon="15.9649483"><ele>675.0</ele><time>2026-05-03T14:14:59.483Z</time></trkpt><trkpt lat="40.0808117" lon="15.964665"><ele>666.0</ele><time>2026-05-03T14:15:00.481Z</time></trkpt><trkpt lat="40.0807217" lon="15.9643867"><ele>657.0</ele><time>2026-05-03T14:15:01.481Z</time></trkpt><trkpt lat="40.08063" lon="15.9641167"><ele>657.0</ele><time>2026-05-03T14:15:02.483Z</time></trkpt><trkpt lat="40.08054" lon="15.9638617"><ele>657.0</ele><time>2026-05-03T14:15:03.482Z</time></trkpt><trkpt lat="40.080455" lon="15.96362"><ele>657.0</ele><time>2026-05-03T14:15:04.481Z</time></trkpt><trkpt lat="40.0803617" lon="15.9633883"><ele>660.3333333333334</ele><time>2026-05-03T14:15:05.482Z</time></trkpt><trkpt lat="40.080255" lon="15.963165"><ele>663.6666666666667</ele><time>2026-05-03T14:15:06.481Z</time></trkpt><trkpt lat="40.0801433" lon="15.9629383"><ele>667.0</ele><time>2026-05-03T14:15:07.483Z</time></trkpt><trkpt lat="40.08002" lon="15.9627167"><ele>668.0</ele><time>2026-05-03T14:15:08.483Z</time></trkpt><trkpt lat="40.0798867" lon="15.9625"><ele>669.0</ele><time>2026-05-03T14:15:09.481Z</time></trkpt><trkpt lat="40.0797417" lon="15.9622817"><ele>670.0</ele><time>2026-05-03T14:15:10.486Z</time></trkpt><trkpt lat="40.07959" lon="15.96207"><ele>670.0</ele><time>2026-05-03T14:15:11.482Z</time></trkpt><trkpt lat="40.079435" lon="15.9618633"><ele>670.0</ele><time>2026-05-03T14:15:12.483Z</time></trkpt><trkpt lat="40.07928" lon="15.9616517"><ele>670.0</ele><time>2026-05-03T14:15:13.484Z</time></trkpt><trkpt lat="40.079125" lon="15.96143"><ele>671.5</ele><time>2026-05-03T14:15:14.484Z</time></trkpt><trkpt lat="40.078985" lon="15.96119"><ele>673.0</ele><time>2026-05-03T14:15:15.484Z</time></trkpt><trkpt lat="40.0788483" lon="15.9609467"><ele>673.0</ele><time>2026-05-03T14:15:16.483Z</time></trkpt><trkpt lat="40.0787233" lon="15.9606983"><ele>673.0</ele><time>2026-05-03T14:15:17.484Z</time></trkpt><trkpt lat="40.0786133" lon="15.9604467"><ele>673.0</ele><time>2026-05-03T14:15:18.485Z</time></trkpt><trkpt lat="40.0785233" lon="15.9601817"><ele>673.0</ele><time>2026-05-03T14:15:19.484Z</time></trkpt><trkpt lat="40.0784433" lon="15.95992"><ele>673.0</ele><time>2026-05-03T14:15:20.483Z</time></trkpt><trkpt lat="40.0783767" lon="15.9596483"><ele>673.0</ele><time>2026-05-03T14:15:21.484Z</time></trkpt><trkpt lat="40.0783267" lon="15.9593733"><ele>674.6666666666667</ele><time>2026-05-03T14:15:22.483Z</time></trkpt><trkpt lat="40.07829" lon="15.9591"><ele>676.3333333333334</ele><time>2026-05-03T14:15:23.484Z</time></trkpt><trkpt lat="40.0782533" lon="15.9588283"><ele>678.0</ele><time>2026-05-03T14:15:24.483Z</time></trkpt><trkpt lat="40.0782283" lon="15.95857"><ele>669.6666666666666</ele><time>2026-05-03T14:15:25.484Z</time></trkpt><trkpt lat="40.078205" lon="15.9583133"><ele>661.3333333333333</ele><time>2026-05-03T14:15:26.485Z</time></trkpt><trkpt lat="40.0781683" lon="15.9580583"><ele>653.0</ele><time>2026-05-03T14:15:27.484Z</time></trkpt><trkpt lat="40.078125" lon="15.9578"><ele>653.0</ele><time>2026-05-03T14:15:28.484Z</time></trkpt><trkpt lat="40.0780733" lon="15.9575483"><ele>653.0</ele><time>2026-05-03T14:15:29.483Z</time></trkpt><trkpt lat="40.0780217" lon="15.9572983"><ele>653.0</ele><time>2026-05-03T14:15:30.484Z</time></trkpt><trkpt lat="40.0779567" lon="15.957055"><ele>655.3333333333333</ele><time>2026-05-03T14:15:31.483Z</time></trkpt><trkpt lat="40.077875" lon="15.9568133"><ele>657.6666666666666</ele><time>2026-05-03T14:15:32.483Z</time></trkpt><trkpt lat="40.077775" lon="15.956565"><ele>660.0</ele><time>2026-05-03T14:15:33.483Z</time></trkpt><trkpt lat="40.07766" lon="15.956315"><ele>658.0</ele><time>2026-05-03T14:15:34.483Z</time></trkpt><trkpt lat="40.07753" lon="15.9560667"><ele>656.0</ele><time>2026-05-03T14:15:35.483Z</time></trkpt><trkpt lat="40.0773867" lon="15.9558283"><ele>656.0</ele><time>2026-05-03T14:15:36.483Z</time></trkpt><trkpt lat="40.077245" lon="15.9555933"><ele>656.0</ele><time>2026-05-03T14:15:37.485Z</time></trkpt><trkpt lat="40.0771017" lon="15.9553733"><ele>656.0</ele><time>2026-05-03T14:15:38.484Z</time></trkpt><trkpt lat="40.0769567" lon="15.9551583"><ele>656.0</ele><time>2026-05-03T14:15:39.482Z</time></trkpt><trkpt lat="40.076815" lon="15.95495"><ele>656.0</ele><time>2026-05-03T14:15:40.483Z</time></trkpt><trkpt lat="40.0766733" lon="15.9547467"><ele>657.3333333333333</ele><time>2026-05-03T14:15:41.482Z</time></trkpt><trkpt lat="40.07654" lon="15.9545367"><ele>658.6666666666666</ele><time>2026-05-03T14:15:42.481Z</time></trkpt><trkpt lat="40.0764133" lon="15.9543217"><ele>660.0</ele><time>2026-05-03T14:15:43.483Z</time></trkpt><trkpt lat="40.0763017" lon="15.954105"><ele>660.0</ele><time>2026-05-03T14:15:44.482Z</time></trkpt><trkpt lat="40.0762" lon="15.9538783"><ele>660.0</ele><time>2026-05-03T14:15:45.482Z</time></trkpt><trkpt lat="40.0761017" lon="15.9536483"><ele>660.0</ele><time>2026-05-03T14:15:46.481Z</time></trkpt><trkpt lat="40.0760067" lon="15.9534117"><ele>662.6666666666666</ele><time>2026-05-03T14:15:47.483Z</time></trkpt><trkpt lat="40.07592" lon="15.9531583"><ele>665.3333333333333</ele><time>2026-05-03T14:15:48.484Z</time></trkpt><trkpt lat="40.0758433" lon="15.9528883"><ele>668.0</ele><time>2026-05-03T14:15:49.484Z</time></trkpt><trkpt lat="40.0757667" lon="15.95261"><ele>656.5</ele><time>2026-05-03T14:15:50.484Z</time></trkpt><trkpt lat="40.0756983" lon="15.95232"><ele>645.0</ele><time>2026-05-03T14:15:51.483Z</time></trkpt><trkpt lat="40.0756417" lon="15.952015"><ele>646.0</ele><time>2026-05-03T14:15:52.483Z</time></trkpt><trkpt lat="40.0755833" lon="15.951705"><ele>647.0</ele><time>2026-05-03T14:15:53.484Z</time></trkpt><trkpt lat="40.0755333" lon="15.9513883"><ele>647.0</ele><time>2026-05-03T14:15:54.484Z</time></trkpt><trkpt lat="40.0754783" lon="15.9510783"><ele>647.0</ele><time>2026-05-03T14:15:55.484Z</time></trkpt><trkpt lat="40.07542" lon="15.950765"><ele>649.5</ele><time>2026-05-03T14:15:56.485Z</time></trkpt><trkpt lat="40.0753683" lon="15.9504567"><ele>652.0</ele><time>2026-05-03T14:15:57.484Z</time></trkpt><trkpt lat="40.0753283" lon="15.95015"><ele>653.5</ele><time>2026-05-03T14:15:58.484Z</time></trkpt><trkpt lat="40.07529" lon="15.9498583"><ele>655.0</ele><time>2026-05-03T14:15:59.483Z</time></trkpt><trkpt lat="40.0752417" lon="15.9495567"><ele>655.0</ele><time>2026-05-03T14:16:00.485Z</time></trkpt><trkpt lat="40.0751967" lon="15.9492567"><ele>655.0</ele><time>2026-05-03T14:16:01.484Z</time></trkpt><trkpt lat="40.075155" lon="15.9489583"><ele>654.6666666666667</ele><time>2026-05-03T14:16:02.485Z</time></trkpt><trkpt lat="40.075115" lon="15.9486667"><ele>654.3333333333334</ele><time>2026-05-03T14:16:03.484Z</time></trkpt><trkpt lat="40.0750717" lon="15.9483817"><ele>654.0</ele><time>2026-05-03T14:16:04.481Z</time></trkpt><trkpt lat="40.0750233" lon="15.9480983"><ele>651.0</ele><time>2026-05-03T14:16:05.482Z</time></trkpt><trkpt lat="40.0749733" lon="15.9478167"><ele>648.0</ele><time>2026-05-03T14:16:06.482Z</time></trkpt><trkpt lat="40.074925" lon="15.9475383"><ele>645.0</ele><time>2026-05-03T14:16:07.481Z</time></trkpt><trkpt lat="40.0748767" lon="15.9472617"><ele>642.3333333333334</ele><time>2026-05-03T14:16:08.483Z</time></trkpt><trkpt lat="40.0748317" lon="15.9469867"><ele>639.6666666666667</ele><time>2026-05-03T14:16:09.481Z</time></trkpt><trkpt lat="40.0747867" lon="15.9467117"><ele>637.0</ele><time>2026-05-03T14:16:10.482Z</time></trkpt><trkpt lat="40.0747433" lon="15.9464367"><ele>637.0</ele><time>2026-05-03T14:16:11.482Z</time></trkpt><trkpt lat="40.0747" lon="15.94616"><ele>637.0</ele><time>2026-05-03T14:16:12.483Z</time></trkpt><trkpt lat="40.074655" lon="15.9458883"><ele>637.0</ele><time>2026-05-03T14:16:13.481Z</time></trkpt><trkpt lat="40.07461" lon="15.9456183"><ele>640.0</ele><time>2026-05-03T14:16:14.483Z</time></trkpt><trkpt lat="40.0745667" lon="15.9453517"><ele>643.0</ele><time>2026-05-03T14:16:15.482Z</time></trkpt><trkpt lat="40.0745217" lon="15.94509"><ele>646.0</ele><time>2026-05-03T14:16:16.481Z</time></trkpt><trkpt lat="40.0744867" lon="15.9448333"><ele>651.0</ele><time>2026-05-03T14:16:17.481Z</time></trkpt><trkpt lat="40.07445" lon="15.944585"><ele>656.0</ele><time>2026-05-03T14:16:18.482Z</time></trkpt><trkpt lat="40.074425" lon="15.9443433"><ele>661.0</ele><time>2026-05-03T14:16:19.481Z</time></trkpt><trkpt lat="40.0744117" lon="15.944095"><ele>663.3333333333334</ele><time>2026-05-03T14:16:20.483Z</time></trkpt><trkpt lat="40.0743967" lon="15.9438383"><ele>665.6666666666666</ele><time>2026-05-03T14:16:21.481Z</time></trkpt><trkpt lat="40.0743917" lon="15.9435833"><ele>668.0</ele><time>2026-05-03T14:16:22.481Z</time></trkpt><trkpt lat="40.0743883" lon="15.94333"><ele>669.3333333333333</ele><time>2026-05-03T14:16:23.483Z</time></trkpt><trkpt lat="40.07439" lon="15.9430767"><ele>670.6666666666666</ele><time>2026-05-03T14:16:24.481Z</time></trkpt><trkpt lat="40.0743933" lon="15.9428267"><ele>672.0</ele><time>2026-05-03T14:16:25.483Z</time></trkpt><trkpt lat="40.07441" lon="15.9425817"><ele>673.0</ele><time>2026-05-03T14:16:26.484Z</time></trkpt><trkpt lat="40.074425" lon="15.9423267"><ele>674.0</ele><time>2026-05-03T14:16:27.482Z</time></trkpt><trkpt lat="40.0744383" lon="15.9420667"><ele>675.0</ele><time>2026-05-03T14:16:28.483Z</time></trkpt><trkpt lat="40.0744483" lon="15.941815"><ele>676.6666666666666</ele><time>2026-05-03T14:16:29.481Z</time></trkpt><trkpt lat="40.0744667" lon="15.94154"><ele>678.3333333333333</ele><time>2026-05-03T14:16:30.482Z</time></trkpt><trkpt lat="40.0744867" lon="15.9412583"><ele>680.0</ele><time>2026-05-03T14:16:31.482Z</time></trkpt><trkpt lat="40.0745033" lon="15.940965"><ele>682.0</ele><time>2026-05-03T14:16:32.483Z</time></trkpt><trkpt lat="40.074525" lon="15.940675"><ele>684.0</ele><time>2026-05-03T14:16:33.481Z</time></trkpt><trkpt lat="40.074545" lon="15.94038"><ele>684.0</ele><time>2026-05-03T14:16:34.482Z</time></trkpt><trkpt lat="40.0745633" lon="15.940085"><ele>684.0</ele><time>2026-05-03T14:16:35.483Z</time></trkpt><trkpt lat="40.074585" lon="15.93979"><ele>685.5</ele><time>2026-05-03T14:16:36.482Z</time></trkpt><trkpt lat="40.0746033" lon="15.9394933"><ele>687.0</ele><time>2026-05-03T14:16:37.482Z</time></trkpt><trkpt lat="40.0746183" lon="15.939195"><ele>688.5</ele><time>2026-05-03T14:16:38.483Z</time></trkpt><trkpt lat="40.0746367" lon="15.9388967"><ele>690.0</ele><time>2026-05-03T14:16:39.482Z</time></trkpt><trkpt lat="40.0746583" lon="15.938605"><ele>690.6666666666666</ele><time>2026-05-03T14:16:40.482Z</time></trkpt><trkpt lat="40.0746783" lon="15.9383217"><ele>691.3333333333333</ele><time>2026-05-03T14:16:41.482Z</time></trkpt><trkpt lat="40.074695" lon="15.9380483"><ele>692.0</ele><time>2026-05-03T14:16:42.481Z</time></trkpt><trkpt lat="40.07471" lon="15.9377833"><ele>694.6666666666666</ele><time>2026-05-03T14:16:43.482Z</time></trkpt><trkpt lat="40.074725" lon="15.937525"><ele>697.3333333333334</ele><time>2026-05-03T14:16:44.482Z</time></trkpt><trkpt lat="40.0747383" lon="15.9372733"><ele>700.0</ele><time>2026-05-03T14:16:45.482Z</time></trkpt><trkpt lat="40.0747517" lon="15.9370317"><ele>700.0</ele><time>2026-05-03T14:16:46.482Z</time></trkpt><trkpt lat="40.074765" lon="15.9367983"><ele>700.0</ele><time>2026-05-03T14:16:47.483Z</time></trkpt><trkpt lat="40.0747783" lon="15.9365683"><ele>700.0</ele><time>2026-05-03T14:16:48.483Z</time></trkpt><trkpt lat="40.0747917" lon="15.9363433"><ele>701.3333333333334</ele><time>2026-05-03T14:16:49.483Z</time></trkpt><trkpt lat="40.074805" lon="15.9361233"><ele>702.6666666666666</ele><time>2026-05-03T14:16:50.483Z</time></trkpt><trkpt lat="40.0748217" lon="15.9359067"><ele>704.0</ele><time>2026-05-03T14:16:51.481Z</time></trkpt><trkpt lat="40.074835" lon="15.9356933"><ele>704.3333333333333</ele><time>2026-05-03T14:16:52.483Z</time></trkpt><trkpt lat="40.0748483" lon="15.935485"><ele>704.6666666666666</ele><time>2026-05-03T14:16:53.483Z</time></trkpt><trkpt lat="40.07486" lon="15.93528"><ele>705.0</ele><time>2026-05-03T14:16:54.482Z</time></trkpt><trkpt lat="40.0748683" lon="15.9350733"><ele>706.0</ele><time>2026-05-03T14:16:55.483Z</time></trkpt><trkpt lat="40.0748783" lon="15.934865"><ele>707.0</ele><time>2026-05-03T14:16:56.483Z</time></trkpt><trkpt lat="40.0748883" lon="15.9346517"><ele>708.0</ele><time>2026-05-03T14:16:57.482Z</time></trkpt><trkpt lat="40.0749017" lon="15.934435"><ele>710.0</ele><time>2026-05-03T14:16:58.482Z</time></trkpt><trkpt lat="40.074915" lon="15.934215"><ele>712.0</ele><time>2026-05-03T14:16:59.482Z</time></trkpt><trkpt lat="40.074925" lon="15.9339917"><ele>714.0</ele><time>2026-05-03T14:17:00.483Z</time></trkpt><trkpt lat="40.0749367" lon="15.9337683"><ele>713.3333333333334</ele><time>2026-05-03T14:17:01.482Z</time></trkpt><trkpt lat="40.0749467" lon="15.933545"><ele>712.6666666666667</ele><time>2026-05-03T14:17:02.482Z</time></trkpt><trkpt lat="40.0749583" lon="15.933325"><ele>712.0</ele><time>2026-05-03T14:17:03.482Z</time></trkpt><trkpt lat="40.0749717" lon="15.9331067"><ele>712.0</ele><time>2026-05-03T14:17:04.482Z</time></trkpt><trkpt lat="40.074985" lon="15.9328917"><ele>712.0</ele><time>2026-05-03T14:17:05.482Z</time></trkpt><trkpt lat="40.0749983" lon="15.9326767"><ele>712.0</ele><time>2026-05-03T14:17:06.482Z</time></trkpt><trkpt lat="40.0750117" lon="15.9324633"><ele>712.3333333333334</ele><time>2026-05-03T14:17:07.483Z</time></trkpt><trkpt lat="40.075025" lon="15.932245"><ele>712.6666666666666</ele><time>2026-05-03T14:17:08.484Z</time></trkpt><trkpt lat="40.0750383" lon="15.932025"><ele>713.0</ele><time>2026-05-03T14:17:09.481Z</time></trkpt><trkpt lat="40.0750517" lon="15.9318017"><ele>714.3333333333333</ele><time>2026-05-03T14:17:10.481Z</time></trkpt><trkpt lat="40.075065" lon="15.931575"><ele>715.6666666666666</ele><time>2026-05-03T14:17:11.482Z</time></trkpt><trkpt lat="40.0750767" lon="15.931345"><ele>717.0</ele><time>2026-05-03T14:17:12.482Z</time></trkpt><trkpt lat="40.0750883" lon="15.9311083"><ele>719.0</ele><time>2026-05-03T14:17:13.482Z</time></trkpt><trkpt lat="40.0751033" lon="15.9308683"><ele>721.0</ele><time>2026-05-03T14:17:14.483Z</time></trkpt><trkpt lat="40.0751183" lon="15.9306233"><ele>723.0</ele><time>2026-05-03T14:17:15.482Z</time></trkpt><trkpt lat="40.075135" lon="15.9303767"><ele>723.0</ele><time>2026-05-03T14:17:16.482Z</time></trkpt><trkpt lat="40.0751483" lon="15.9301183"><ele>723.0</ele><time>2026-05-03T14:17:17.482Z</time></trkpt><trkpt lat="40.0751517" lon="15.929885"><ele>723.0</ele><time>2026-05-03T14:17:18.482Z</time></trkpt><trkpt lat="40.0751717" lon="15.9296683"><ele>724.3333333333334</ele><time>2026-05-03T14:17:19.482Z</time></trkpt><trkpt lat="40.0751833" lon="15.9294183"><ele>725.6666666666667</ele><time>2026-05-03T14:17:20.483Z</time></trkpt><trkpt lat="40.0751833" lon="15.9291817"><ele>727.0</ele><time>2026-05-03T14:17:21.481Z</time></trkpt><trkpt lat="40.0751817" lon="15.9289533"><ele>728.6666666666667</ele><time>2026-05-03T14:17:22.482Z</time></trkpt><trkpt lat="40.0751717" lon="15.928725"><ele>730.3333333333334</ele><time>2026-05-03T14:17:23.484Z</time></trkpt><trkpt lat="40.075155" lon="15.9285017"><ele>732.0</ele><time>2026-05-03T14:17:24.482Z</time></trkpt><trkpt lat="40.0751333" lon="15.9282817"><ele>734.3333333333334</ele><time>2026-05-03T14:17:25.482Z</time></trkpt><trkpt lat="40.075105" lon="15.9280633"><ele>736.6666666666667</ele><time>2026-05-03T14:17:26.484Z</time></trkpt><trkpt lat="40.07507" lon="15.92785"><ele>739.0</ele><time>2026-05-03T14:17:27.483Z</time></trkpt><trkpt lat="40.0750267" lon="15.9276383"><ele>739.6666666666667</ele><time>2026-05-03T14:17:28.482Z</time></trkpt><trkpt lat="40.07498" lon="15.92743"><ele>740.3333333333334</ele><time>2026-05-03T14:17:29.482Z</time></trkpt><trkpt lat="40.0749283" lon="15.9272217"><ele>741.0</ele><time>2026-05-03T14:17:30.483Z</time></trkpt><trkpt lat="40.0748733" lon="15.9270117"><ele>743.6666666666666</ele><time>2026-05-03T14:17:31.482Z</time></trkpt><trkpt lat="40.074815" lon="15.9268017"><ele>746.3333333333333</ele><time>2026-05-03T14:17:32.482Z</time></trkpt><trkpt lat="40.074755" lon="15.9265917"><ele>749.0</ele><time>2026-05-03T14:17:33.482Z</time></trkpt><trkpt lat="40.0746933" lon="15.9263833"><ele>749.0</ele><time>2026-05-03T14:17:34.481Z</time></trkpt><trkpt lat="40.07463" lon="15.926175"><ele>749.0</ele><time>2026-05-03T14:17:35.482Z</time></trkpt><trkpt lat="40.07457" lon="15.92596"><ele>749.0</ele><time>2026-05-03T14:17:36.483Z</time></trkpt><trkpt lat="40.074515" lon="15.92574"><ele>751.0</ele><time>2026-05-03T14:17:37.483Z</time></trkpt><trkpt lat="40.0744633" lon="15.9255033"><ele>753.0</ele><time>2026-05-03T14:17:38.483Z</time></trkpt><trkpt lat="40.07441" lon="15.9252733"><ele>755.0</ele><time>2026-05-03T14:17:39.482Z</time></trkpt><trkpt lat="40.0743683" lon="15.925045"><ele>755.3333333333333</ele><time>2026-05-03T14:17:40.483Z</time></trkpt><trkpt lat="40.0743317" lon="15.9248167"><ele>755.6666666666666</ele><time>2026-05-03T14:17:41.481Z</time></trkpt><trkpt lat="40.0743033" lon="15.9245867"><ele>756.0</ele><time>2026-05-03T14:17:42.482Z</time></trkpt><trkpt lat="40.07429" lon="15.9243533"><ele>755.3333333333334</ele><time>2026-05-03T14:17:43.571Z</time></trkpt><trkpt lat="40.0742833" lon="15.92412"><ele>754.6666666666667</ele><time>2026-05-03T14:17:44.483Z</time></trkpt><trkpt lat="40.07428" lon="15.923885"><ele>754.0</ele><time>2026-05-03T14:17:45.482Z</time></trkpt><trkpt lat="40.0742817" lon="15.9236533"><ele>754.0</ele><time>2026-05-03T14:17:46.483Z</time></trkpt><trkpt lat="40.07429" lon="15.9234233"><ele>754.0</ele><time>2026-05-03T14:17:47.483Z</time></trkpt><trkpt lat="40.0743017" lon="15.9231983"><ele>754.0</ele><time>2026-05-03T14:17:48.482Z</time></trkpt><trkpt lat="40.0743167" lon="15.9229617"><ele>755.3333333333334</ele><time>2026-05-03T14:17:49.482Z</time></trkpt><trkpt lat="40.0743433" lon="15.9227283"><ele>756.6666666666666</ele><time>2026-05-03T14:17:50.484Z</time></trkpt><trkpt lat="40.0743717" lon="15.92251"><ele>758.0</ele><time>2026-05-03T14:17:51.481Z</time></trkpt><trkpt lat="40.0743967" lon="15.9223"><ele>760.6666666666666</ele><time>2026-05-03T14:17:52.482Z</time></trkpt><trkpt lat="40.0744217" lon="15.9220983"><ele>763.3333333333334</ele><time>2026-05-03T14:17:53.483Z</time></trkpt><trkpt lat="40.0744417" lon="15.92189"><ele>766.0</ele><time>2026-05-03T14:17:54.481Z</time></trkpt><trkpt lat="40.074465" lon="15.9217083"><ele>767.0</ele><time>2026-05-03T14:17:55.482Z</time></trkpt><trkpt lat="40.0744917" lon="15.92152"><ele>768.0</ele><time>2026-05-03T14:17:56.482Z</time></trkpt><trkpt lat="40.074515" lon="15.92133"><ele>769.0</ele><time>2026-05-03T14:17:57.482Z</time></trkpt><trkpt lat="40.0745533" lon="15.9211783"><ele>770.0</ele><time>2026-05-03T14:17:58.483Z</time></trkpt><trkpt lat="40.0745817" lon="15.920985"><ele>772.3333333333334</ele><time>2026-05-03T14:17:59.482Z</time></trkpt><trkpt lat="40.0746267" lon="15.9207867"><ele>774.6666666666667</ele><time>2026-05-03T14:18:00.483Z</time></trkpt><trkpt lat="40.0746817" lon="15.9205833"><ele>777.0</ele><time>2026-05-03T14:18:01.483Z</time></trkpt><trkpt lat="40.0747417" lon="15.9203917"><ele>777.0</ele><time>2026-05-03T14:18:02.483Z</time></trkpt><trkpt lat="40.0748117" lon="15.9202033"><ele>777.0</ele><time>2026-05-03T14:18:03.481Z</time></trkpt><trkpt lat="40.074895" lon="15.920025"><ele>777.0</ele><time>2026-05-03T14:18:04.482Z</time></trkpt><trkpt lat="40.0749983" lon="15.9198517"><ele>773.6666666666666</ele><time>2026-05-03T14:18:05.482Z</time></trkpt><trkpt lat="40.075105" lon="15.9196883"><ele>770.3333333333333</ele><time>2026-05-03T14:18:06.483Z</time></trkpt><trkpt lat="40.0752233" lon="15.9195317"><ele>767.0</ele><time>2026-05-03T14:18:07.483Z</time></trkpt><trkpt lat="40.0753483" lon="15.9193767"><ele>770.3333333333333</ele><time>2026-05-03T14:18:08.487Z</time></trkpt><trkpt lat="40.0754767" lon="15.9192267"><ele>773.6666666666666</ele><time>2026-05-03T14:18:09.481Z</time></trkpt><trkpt lat="40.07561" lon="15.919085"><ele>777.0</ele><time>2026-05-03T14:18:10.483Z</time></trkpt><trkpt lat="40.0757567" lon="15.9189517"><ele>774.3333333333333</ele><time>2026-05-03T14:18:11.481Z</time></trkpt><trkpt lat="40.0759083" lon="15.918825"><ele>771.6666666666666</ele><time>2026-05-03T14:18:12.483Z</time></trkpt><trkpt lat="40.0760667" lon="15.9187017"><ele>769.0</ele><time>2026-05-03T14:18:13.482Z</time></trkpt><trkpt lat="40.076225" lon="15.9185783"><ele>769.0</ele><time>2026-05-03T14:18:14.482Z</time></trkpt><trkpt lat="40.0763833" lon="15.9184583"><ele>769.0</ele><time>2026-05-03T14:18:15.482Z</time></trkpt><trkpt lat="40.076545" lon="15.9183367"><ele>769.0</ele><time>2026-05-03T14:18:16.482Z</time></trkpt><trkpt lat="40.0767083" lon="15.91822"><ele>770.6666666666666</ele><time>2026-05-03T14:18:17.481Z</time></trkpt><trkpt lat="40.07687" lon="15.9180967"><ele>772.3333333333333</ele><time>2026-05-03T14:18:18.484Z</time></trkpt><trkpt lat="40.0770217" lon="15.9179583"><ele>774.0</ele><time>2026-05-03T14:18:19.481Z</time></trkpt><trkpt lat="40.0771667" lon="15.917805"><ele>774.0</ele><time>2026-05-03T14:18:20.483Z</time></trkpt><trkpt lat="40.0773033" lon="15.9176383"><ele>774.0</ele><time>2026-05-03T14:18:21.482Z</time></trkpt><trkpt lat="40.077435" lon="15.9174567"><ele>774.0</ele><time>2026-05-03T14:18:22.482Z</time></trkpt><trkpt lat="40.0775583" lon="15.9172583"><ele>773.0</ele><time>2026-05-03T14:18:23.482Z</time></trkpt><trkpt lat="40.0776767" lon="15.917045"><ele>772.0</ele><time>2026-05-03T14:18:24.481Z</time></trkpt><trkpt lat="40.0777833" lon="15.9168167"><ele>771.0</ele><time>2026-05-03T14:18:25.482Z</time></trkpt><trkpt lat="40.077875" lon="15.916575"><ele>774.3333333333333</ele><time>2026-05-03T14:18:26.484Z</time></trkpt><trkpt lat="40.0779567" lon="15.9163283"><ele>777.6666666666666</ele><time>2026-05-03T14:18:27.481Z</time></trkpt><trkpt lat="40.07802" lon="15.9160767"><ele>781.0</ele><time>2026-05-03T14:18:28.481Z</time></trkpt><trkpt lat="40.0780717" lon="15.91582"><ele>781.3333333333333</ele><time>2026-05-03T14:18:29.481Z</time></trkpt><trkpt lat="40.0781017" lon="15.9155633"><ele>781.6666666666667</ele><time>2026-05-03T14:18:30.481Z</time></trkpt><trkpt lat="40.078115" lon="15.9153033"><ele>782.0</ele><time>2026-05-03T14:18:31.482Z</time></trkpt><trkpt lat="40.0781117" lon="15.915045"><ele>782.0</ele><time>2026-05-03T14:18:32.483Z</time></trkpt><trkpt lat="40.078095" lon="15.914785"><ele>782.0</ele><time>2026-05-03T14:18:33.482Z</time></trkpt><trkpt lat="40.0780667" lon="15.9145233"><ele>782.0</ele><time>2026-05-03T14:18:34.481Z</time></trkpt><trkpt lat="40.0780217" lon="15.914255"><ele>781.0</ele><time>2026-05-03T14:18:35.482Z</time></trkpt><trkpt lat="40.0779617" lon="15.913985"><ele>780.0</ele><time>2026-05-03T14:18:36.482Z</time></trkpt><trkpt lat="40.07789" lon="15.913715"><ele>779.0</ele><time>2026-05-03T14:18:37.482Z</time></trkpt><trkpt lat="40.0778083" lon="15.913445"><ele>779.6666666666667</ele><time>2026-05-03T14:18:38.481Z</time></trkpt><trkpt lat="40.0777233" lon="15.9131767"><ele>780.3333333333333</ele><time>2026-05-03T14:18:39.481Z</time></trkpt><trkpt lat="40.0776367" lon="15.9129117"><ele>781.0</ele><time>2026-05-03T14:18:40.482Z</time></trkpt><trkpt lat="40.07756" lon="15.9126383"><ele>779.3333333333333</ele><time>2026-05-03T14:18:41.483Z</time></trkpt><trkpt lat="40.0774933" lon="15.9123583"><ele>777.6666666666667</ele><time>2026-05-03T14:18:42.483Z</time></trkpt><trkpt lat="40.077445" lon="15.912075"><ele>776.0</ele><time>2026-05-03T14:18:43.481Z</time></trkpt><trkpt lat="40.0774133" lon="15.9117883"><ele>777.0</ele><time>2026-05-03T14:18:44.482Z</time></trkpt><trkpt lat="40.0774017" lon="15.9114967"><ele>778.0</ele><time>2026-05-03T14:18:45.481Z</time></trkpt><trkpt lat="40.0774083" lon="15.9112117"><ele>779.0</ele><time>2026-05-03T14:18:46.482Z</time></trkpt><trkpt lat="40.0774283" lon="15.91094"><ele>776.3333333333334</ele><time>2026-05-03T14:18:47.483Z</time></trkpt><trkpt lat="40.077465" lon="15.9106783"><ele>773.6666666666667</ele><time>2026-05-03T14:18:48.482Z</time></trkpt><trkpt lat="40.0775167" lon="15.9104183"><ele>771.0</ele><time>2026-05-03T14:18:49.482Z</time></trkpt><trkpt lat="40.077585" lon="15.91016"><ele>771.6666666666667</ele><time>2026-05-03T14:18:50.483Z</time></trkpt><trkpt lat="40.0776667" lon="15.9099083"><ele>772.3333333333334</ele><time>2026-05-03T14:18:51.483Z</time></trkpt><trkpt lat="40.0777683" lon="15.9096633"><ele>773.0</ele><time>2026-05-03T14:18:52.482Z</time></trkpt><trkpt lat="40.07789" lon="15.9094233"><ele>776.0</ele><time>2026-05-03T14:18:53.482Z</time></trkpt><trkpt lat="40.0780267" lon="15.909195"><ele>779.0</ele><time>2026-05-03T14:18:54.483Z</time></trkpt><trkpt lat="40.0781817" lon="15.908975"><ele>775.0</ele><time>2026-05-03T14:18:55.483Z</time></trkpt><trkpt lat="40.078345" lon="15.90876"><ele>771.0</ele><time>2026-05-03T14:18:56.482Z</time></trkpt><trkpt lat="40.0785133" lon="15.9085417"><ele>775.0</ele><time>2026-05-03T14:18:57.482Z</time></trkpt><trkpt lat="40.0786833" lon="15.90833"><ele>779.0</ele><time>2026-05-03T14:18:58.482Z</time></trkpt><trkpt lat="40.0788483" lon="15.908125"><ele>779.0</ele><time>2026-05-03T14:18:59.482Z</time></trkpt><trkpt lat="40.079005" lon="15.9079317"><ele>779.0</ele><time>2026-05-03T14:19:00.482Z</time></trkpt><trkpt lat="40.0791517" lon="15.9077467"><ele>779.0</ele><time>2026-05-03T14:19:01.481Z</time></trkpt><trkpt lat="40.07929" lon="15.90756"><ele>778.6666666666667</ele><time>2026-05-03T14:19:02.482Z</time></trkpt><trkpt lat="40.0794217" lon="15.907375"><ele>778.3333333333333</ele><time>2026-05-03T14:19:03.482Z</time></trkpt><trkpt lat="40.0795417" lon="15.9071867"><ele>778.0</ele><time>2026-05-03T14:19:04.482Z</time></trkpt><trkpt lat="40.0796467" lon="15.9069867"><ele>778.0</ele><time>2026-05-03T14:19:05.481Z</time></trkpt><trkpt lat="40.07974" lon="15.906775"><ele>778.0</ele><time>2026-05-03T14:19:06.481Z</time></trkpt><trkpt lat="40.0798217" lon="15.906555"><ele>778.0</ele><time>2026-05-03T14:19:07.482Z</time></trkpt><trkpt lat="40.0798967" lon="15.9063267"><ele>775.0</ele><time>2026-05-03T14:19:08.482Z</time></trkpt><trkpt lat="40.0799633" lon="15.906085"><ele>772.0</ele><time>2026-05-03T14:19:09.482Z</time></trkpt><trkpt lat="40.0800183" lon="15.9058283"><ele>769.0</ele><time>2026-05-03T14:19:10.481Z</time></trkpt><trkpt lat="40.0800567" lon="15.9055617"><ele>769.0</ele><time>2026-05-03T14:19:11.481Z</time></trkpt><trkpt lat="40.0800733" lon="15.9052867"><ele>769.0</ele><time>2026-05-03T14:19:12.482Z</time></trkpt><trkpt lat="40.0800767" lon="15.905"><ele>769.0</ele><time>2026-05-03T14:19:13.481Z</time></trkpt><trkpt lat="40.0800617" lon="15.9047067"><ele>771.0</ele><time>2026-05-03T14:19:14.483Z</time></trkpt><trkpt lat="40.08003" lon="15.9044083"><ele>773.0</ele><time>2026-05-03T14:19:15.483Z</time></trkpt><trkpt lat="40.079975" lon="15.9041117"><ele>774.3333333333334</ele><time>2026-05-03T14:19:16.482Z</time></trkpt><trkpt lat="40.0799067" lon="15.9038283"><ele>775.6666666666667</ele><time>2026-05-03T14:19:17.483Z</time></trkpt><trkpt lat="40.07983" lon="15.90357"><ele>777.0</ele><time>2026-05-03T14:19:18.482Z</time></trkpt><trkpt lat="40.07976" lon="15.9033667"><ele>777.0</ele><time>2026-05-03T14:19:19.482Z</time></trkpt><trkpt lat="40.0797017" lon="15.9032267"><ele>777.0</ele><time>2026-05-03T14:19:20.483Z</time></trkpt><trkpt lat="40.0796633" lon="15.9031417"><ele>777.0</ele><time>2026-05-03T14:19:21.481Z</time></trkpt><trkpt lat="40.0796217" lon="15.9030667"><ele>777.0</ele><time>2026-05-03T14:19:23.482Z</time></trkpt><trkpt lat="40.0795683" lon="15.9029667"><ele>777.0</ele><time>2026-05-03T14:21:59.484Z</time></trkpt><trkpt lat="40.07953" lon="15.9028983"><ele>777.0</ele><time>2026-05-03T14:22:00.484Z</time></trkpt><trkpt lat="40.0794817" lon="15.902805"><ele>777.0</ele><time>2026-05-03T14:22:01.483Z</time></trkpt><trkpt lat="40.0794267" lon="15.9027033"><ele>777.0</ele><time>2026-05-03T14:22:02.484Z</time></trkpt><trkpt lat="40.0793617" lon="15.902595"><ele>777.0</ele><time>2026-05-03T14:22:03.484Z</time></trkpt><trkpt lat="40.07929" lon="15.9024817"><ele>777.0</ele><time>2026-05-03T14:22:04.483Z</time></trkpt><trkpt lat="40.079215" lon="15.9023633"><ele>777.0</ele><time>2026-05-03T14:22:05.483Z</time></trkpt><trkpt lat="40.0791317" lon="15.9022333"><ele>772.75</ele><time>2026-05-03T14:22:06.483Z</time></trkpt><trkpt lat="40.0790433" lon="15.9020933"><ele>768.5</ele><time>2026-05-03T14:22:07.484Z</time></trkpt><trkpt lat="40.078945" lon="15.9019433"><ele>764.25</ele><time>2026-05-03T14:22:08.485Z</time></trkpt><trkpt lat="40.078845" lon="15.9017867"><ele>760.0</ele><time>2026-05-03T14:22:09.484Z</time></trkpt><trkpt lat="40.07874" lon="15.9016267"><ele>756.3333333333334</ele><time>2026-05-03T14:22:10.484Z</time></trkpt><trkpt lat="40.0786333" lon="15.90146"><ele>752.6666666666666</ele><time>2026-05-03T14:22:11.484Z</time></trkpt><trkpt lat="40.0785267" lon="15.9012883"><ele>749.0</ele><time>2026-05-03T14:22:12.486Z</time></trkpt><trkpt lat="40.0784233" lon="15.901115"><ele>749.0</ele><time>2026-05-03T14:22:13.485Z</time></trkpt><trkpt lat="40.07832" lon="15.9009383"><ele>749.0</ele><time>2026-05-03T14:22:14.485Z</time></trkpt><trkpt lat="40.0782083" lon="15.9007517"><ele>749.0</ele><time>2026-05-03T14:22:15.483Z</time></trkpt><trkpt lat="40.0780933" lon="15.900555"><ele>751.0</ele><time>2026-05-03T14:22:16.482Z</time></trkpt><trkpt lat="40.0779817" lon="15.9003433"><ele>753.0</ele><time>2026-05-03T14:22:17.482Z</time></trkpt><trkpt lat="40.0778667" lon="15.900135"><ele>755.0</ele><time>2026-05-03T14:22:18.482Z</time></trkpt><trkpt lat="40.077755" lon="15.89992"><ele>755.0</ele><time>2026-05-03T14:22:19.482Z</time></trkpt><trkpt lat="40.0776367" lon="15.8996967"><ele>755.0</ele><time>2026-05-03T14:22:20.483Z</time></trkpt><trkpt lat="40.0775067" lon="15.8994467"><ele>755.0</ele><time>2026-05-03T14:22:21.483Z</time></trkpt><trkpt lat="40.07737" lon="15.8991683"><ele>757.0</ele><time>2026-05-03T14:22:22.482Z</time></trkpt><trkpt lat="40.07723" lon="15.8988633"><ele>759.0</ele><time>2026-05-03T14:22:23.482Z</time></trkpt><trkpt lat="40.0770883" lon="15.89855"><ele>757.5</ele><time>2026-05-03T14:22:24.482Z</time></trkpt><trkpt lat="40.0769467" lon="15.8982367"><ele>756.0</ele><time>2026-05-03T14:22:25.483Z</time></trkpt><trkpt lat="40.0767983" lon="15.8979183"><ele>756.0</ele><time>2026-05-03T14:22:26.483Z</time></trkpt><trkpt lat="40.0766433" lon="15.897595"><ele>756.0</ele><time>2026-05-03T14:22:27.482Z</time></trkpt><trkpt lat="40.0764833" lon="15.8972633"><ele>758.0</ele><time>2026-05-03T14:22:28.482Z</time></trkpt><trkpt lat="40.0763183" lon="15.8969217"><ele>760.0</ele><time>2026-05-03T14:22:29.481Z</time></trkpt><trkpt lat="40.07615" lon="15.8965717"><ele>762.0</ele><time>2026-05-03T14:22:30.483Z</time></trkpt><trkpt lat="40.0759833" lon="15.8962217"><ele>764.0</ele><time>2026-05-03T14:22:31.482Z</time></trkpt><trkpt lat="40.0758167" lon="15.8958817"><ele>773.5</ele><time>2026-05-03T14:22:32.483Z</time></trkpt><trkpt lat="40.07565" lon="15.8955467"><ele>783.0</ele><time>2026-05-03T14:22:33.484Z</time></trkpt><trkpt lat="40.075475" lon="15.8952217"><ele>781.5</ele><time>2026-05-03T14:22:34.483Z</time></trkpt><trkpt lat="40.07529" lon="15.894905"><ele>780.0</ele><time>2026-05-03T14:22:35.482Z</time></trkpt><trkpt lat="40.0751017" lon="15.8945917"><ele>783.5</ele><time>2026-05-03T14:22:36.482Z</time></trkpt><trkpt lat="40.07491" lon="15.89428"><ele>787.0</ele><time>2026-05-03T14:22:37.484Z</time></trkpt><trkpt lat="40.0747117" lon="15.8939667"><ele>787.0</ele><time>2026-05-03T14:22:38.485Z</time></trkpt><trkpt lat="40.074495" lon="15.8936683"><ele>787.0</ele><time>2026-05-03T14:22:39.484Z</time></trkpt><trkpt lat="40.0742467" lon="15.8934067"><ele>785.0</ele><time>2026-05-03T14:22:40.482Z</time></trkpt><trkpt lat="40.0740033" lon="15.89314"><ele>783.0</ele><time>2026-05-03T14:22:41.482Z</time></trkpt><trkpt lat="40.0737767" lon="15.89286"><ele>779.5</ele><time>2026-05-03T14:22:42.483Z</time></trkpt><trkpt lat="40.07356" lon="15.892565"><ele>776.0</ele><time>2026-05-03T14:22:43.483Z</time></trkpt><trkpt lat="40.0733567" lon="15.89225"><ele>781.0</ele><time>2026-05-03T14:22:44.483Z</time></trkpt><trkpt lat="40.07316" lon="15.8919233"><ele>786.0</ele><time>2026-05-03T14:22:45.483Z</time></trkpt><trkpt lat="40.0729733" lon="15.891575"><ele>786.0</ele><time>2026-05-03T14:22:46.482Z</time></trkpt><trkpt lat="40.07279" lon="15.8912233"><ele>786.0</ele><time>2026-05-03T14:22:47.483Z</time></trkpt><trkpt lat="40.0726133" lon="15.89086"><ele>793.0</ele><time>2026-05-03T14:22:48.484Z</time></trkpt><trkpt lat="40.0724367" lon="15.8904883"><ele>800.0</ele><time>2026-05-03T14:22:49.483Z</time></trkpt><trkpt lat="40.07226" lon="15.8901133"><ele>801.5</ele><time>2026-05-03T14:22:50.485Z</time></trkpt><trkpt lat="40.0720817" lon="15.88974"><ele>803.0</ele><time>2026-05-03T14:22:51.483Z</time></trkpt><trkpt lat="40.07191" lon="15.8893717"><ele>803.0</ele><time>2026-05-03T14:22:52.484Z</time></trkpt><trkpt lat="40.07174" lon="15.889015"><ele>803.0</ele><time>2026-05-03T14:22:53.485Z</time></trkpt><trkpt lat="40.071575" lon="15.888665"><ele>805.0</ele><time>2026-05-03T14:22:54.483Z</time></trkpt><trkpt lat="40.0714167" lon="15.8883117"><ele>807.0</ele><time>2026-05-03T14:22:55.484Z</time></trkpt><trkpt lat="40.0712633" lon="15.88796"><ele>807.0</ele><time>2026-05-03T14:22:56.484Z</time></trkpt><trkpt lat="40.0711133" lon="15.887625"><ele>807.0</ele><time>2026-05-03T14:22:57.483Z</time></trkpt><trkpt lat="40.0709733" lon="15.88729"><ele>810.5</ele><time>2026-05-03T14:22:58.482Z</time></trkpt><trkpt lat="40.0708517" lon="15.886945"><ele>814.0</ele><time>2026-05-03T14:22:59.482Z</time></trkpt><trkpt lat="40.070745" lon="15.8865867"><ele>814.0</ele><time>2026-05-03T14:23:00.483Z</time></trkpt><trkpt lat="40.0706533" lon="15.8862133"><ele>814.0</ele><time>2026-05-03T14:23:01.483Z</time></trkpt><trkpt lat="40.0705767" lon="15.88583"><ele>813.5</ele><time>2026-05-03T14:23:02.484Z</time></trkpt><trkpt lat="40.070515" lon="15.8854367"><ele>813.0</ele><time>2026-05-03T14:23:03.481Z</time></trkpt><trkpt lat="40.070475" lon="15.8850383"><ele>812.0</ele><time>2026-05-03T14:23:04.481Z</time></trkpt><trkpt lat="40.0704517" lon="15.8846317"><ele>811.0</ele><time>2026-05-03T14:23:05.482Z</time></trkpt><trkpt lat="40.0704467" lon="15.8842233"><ele>813.0</ele><time>2026-05-03T14:23:06.483Z</time></trkpt><trkpt lat="40.0704633" lon="15.88382"><ele>815.0</ele><time>2026-05-03T14:23:07.481Z</time></trkpt><trkpt lat="40.0705017" lon="15.8834183"><ele>819.0</ele><time>2026-05-03T14:23:08.483Z</time></trkpt><trkpt lat="40.0705617" lon="15.8830267"><ele>823.0</ele><time>2026-05-03T14:23:09.484Z</time></trkpt><trkpt lat="40.070645" lon="15.88264"><ele>825.5</ele><time>2026-05-03T14:23:10.482Z</time></trkpt><trkpt lat="40.0707417" lon="15.88226"><ele>828.0</ele><time>2026-05-03T14:23:11.483Z</time></trkpt><trkpt lat="40.070855" lon="15.88189"><ele>820.5</ele><time>2026-05-03T14:23:12.484Z</time></trkpt><trkpt lat="40.0709817" lon="15.8815283"><ele>813.0</ele><time>2026-05-03T14:23:13.482Z</time></trkpt><trkpt lat="40.0711233" lon="15.88118"><ele>819.0</ele><time>2026-05-03T14:23:14.483Z</time></trkpt><trkpt lat="40.071285" lon="15.8808483"><ele>825.0</ele><time>2026-05-03T14:23:15.483Z</time></trkpt><trkpt lat="40.0714633" lon="15.8805267"><ele>823.0</ele><time>2026-05-03T14:23:16.482Z</time></trkpt><trkpt lat="40.07165" lon="15.8802133"><ele>821.0</ele><time>2026-05-03T14:23:17.483Z</time></trkpt><trkpt lat="40.071845" lon="15.8799017"><ele>825.0</ele><time>2026-05-03T14:23:18.482Z</time></trkpt><trkpt lat="40.072055" lon="15.8795983"><ele>829.0</ele><time>2026-05-03T14:23:19.483Z</time></trkpt><trkpt lat="40.0722667" lon="15.8793017"><ele>833.0</ele><time>2026-05-03T14:23:20.483Z</time></trkpt><trkpt lat="40.0724783" lon="15.879005"><ele>837.0</ele><time>2026-05-03T14:23:21.481Z</time></trkpt><trkpt lat="40.0726883" lon="15.878705"><ele>846.0</ele><time>2026-05-03T14:23:22.482Z</time></trkpt><trkpt lat="40.0728967" lon="15.8784"><ele>855.0</ele><time>2026-05-03T14:23:23.483Z</time></trkpt><trkpt lat="40.0731067" lon="15.878095"><ele>857.0</ele><time>2026-05-03T14:23:24.482Z</time></trkpt><trkpt lat="40.0733167" lon="15.8777883"><ele>859.0</ele><time>2026-05-03T14:23:25.484Z</time></trkpt><trkpt lat="40.0735233" lon="15.8774983"><ele>859.0</ele><time>2026-05-03T14:23:26.483Z</time></trkpt><trkpt lat="40.0736767" lon="15.8771967"><ele>859.0</ele><time>2026-05-03T14:23:27.485Z</time></trkpt><trkpt lat="40.0738033" lon="15.8769483"><ele>858.0</ele><time>2026-05-03T14:23:28.484Z</time></trkpt><trkpt lat="40.0739467" lon="15.8767217"><ele>857.0</ele><time>2026-05-03T14:23:29.484Z</time></trkpt><trkpt lat="40.0740617" lon="15.87644"><ele>850.5</ele><time>2026-05-03T14:23:30.482Z</time></trkpt><trkpt lat="40.074165" lon="15.8761583"><ele>844.0</ele><time>2026-05-03T14:23:31.483Z</time></trkpt><trkpt lat="40.0742417" lon="15.8758767"><ele>844.0</ele><time>2026-05-03T14:23:32.483Z</time></trkpt><trkpt lat="40.0743" lon="15.8756"><ele>844.0</ele><time>2026-05-03T14:23:33.481Z</time></trkpt><trkpt lat="40.074345" lon="15.8753267"><ele>844.0</ele><time>2026-05-03T14:23:34.482Z</time></trkpt><trkpt lat="40.0743817" lon="15.8750533"><ele>849.6666666666666</ele><time>2026-05-03T14:23:35.482Z</time></trkpt><trkpt lat="40.0744067" lon="15.8747867"><ele>855.3333333333333</ele><time>2026-05-03T14:23:36.483Z</time></trkpt><trkpt lat="40.07442" lon="15.8745283"><ele>861.0</ele><time>2026-05-03T14:23:37.481Z</time></trkpt><trkpt lat="40.0744233" lon="15.8742733"><ele>862.3333333333333</ele><time>2026-05-03T14:23:38.483Z</time></trkpt><trkpt lat="40.074415" lon="15.874015"><ele>863.6666666666666</ele><time>2026-05-03T14:23:39.483Z</time></trkpt><trkpt lat="40.0743933" lon="15.8737467"><ele>865.0</ele><time>2026-05-03T14:23:40.482Z</time></trkpt><trkpt lat="40.0743683" lon="15.873475"><ele>863.3333333333333</ele><time>2026-05-03T14:23:41.483Z</time></trkpt><trkpt lat="40.0743333" lon="15.8732017"><ele>861.6666666666667</ele><time>2026-05-03T14:23:42.482Z</time></trkpt><trkpt lat="40.0742917" lon="15.8729283"><ele>860.0</ele><time>2026-05-03T14:23:43.481Z</time></trkpt><trkpt lat="40.074245" lon="15.872655"><ele>858.3333333333334</ele><time>2026-05-03T14:23:44.483Z</time></trkpt><trkpt lat="40.0742017" lon="15.8723867"><ele>856.6666666666667</ele><time>2026-05-03T14:23:45.481Z</time></trkpt><trkpt lat="40.0741567" lon="15.8721283"><ele>855.0</ele><time>2026-05-03T14:23:46.482Z</time></trkpt><trkpt lat="40.0741233" lon="15.8718883"><ele>861.0</ele><time>2026-05-03T14:23:47.483Z</time></trkpt><trkpt lat="40.0740933" lon="15.87165"><ele>867.0</ele><time>2026-05-03T14:23:48.481Z</time></trkpt><trkpt lat="40.0740567" lon="15.87142"><ele>873.0</ele><time>2026-05-03T14:23:49.482Z</time></trkpt><trkpt lat="40.0740217" lon="15.8711833"><ele>873.0</ele><time>2026-05-03T14:23:50.482Z</time></trkpt><trkpt lat="40.0739833" lon="15.8709567"><ele>873.0</ele><time>2026-05-03T14:23:51.482Z</time></trkpt><trkpt lat="40.0739467" lon="15.8707317"><ele>873.0</ele><time>2026-05-03T14:23:52.483Z</time></trkpt><trkpt lat="40.0739183" lon="15.8705083"><ele>874.3333333333333</ele><time>2026-05-03T14:23:53.482Z</time></trkpt><trkpt lat="40.0738983" lon="15.8702883"><ele>875.6666666666666</ele><time>2026-05-03T14:23:54.483Z</time></trkpt><trkpt lat="40.07388" lon="15.8700717"><ele>877.0</ele><time>2026-05-03T14:23:55.483Z</time></trkpt><trkpt lat="40.0738683" lon="15.8698633"><ele>879.0</ele><time>2026-05-03T14:23:56.482Z</time></trkpt><trkpt lat="40.0738633" lon="15.8696517"><ele>881.0</ele><time>2026-05-03T14:23:57.481Z</time></trkpt><trkpt lat="40.073865" lon="15.8694383"><ele>883.0</ele><time>2026-05-03T14:23:58.483Z</time></trkpt><trkpt lat="40.0738717" lon="15.8692217"><ele>883.0</ele><time>2026-05-03T14:23:59.482Z</time></trkpt><trkpt lat="40.0738867" lon="15.8690083"><ele>883.0</ele><time>2026-05-03T14:24:00.482Z</time></trkpt><trkpt lat="40.073905" lon="15.8687917"><ele>883.0</ele><time>2026-05-03T14:24:01.483Z</time></trkpt><trkpt lat="40.0739267" lon="15.8685717"><ele>882.3333333333333</ele><time>2026-05-03T14:24:02.482Z</time></trkpt><trkpt lat="40.0739517" lon="15.8683483"><ele>881.6666666666667</ele><time>2026-05-03T14:24:03.482Z</time></trkpt><trkpt lat="40.0739733" lon="15.8681183"><ele>881.0</ele><time>2026-05-03T14:24:04.482Z</time></trkpt><trkpt lat="40.0740017" lon="15.86789"><ele>881.0</ele><time>2026-05-03T14:24:05.482Z</time></trkpt><trkpt lat="40.0740333" lon="15.8676667"><ele>881.0</ele><time>2026-05-03T14:24:06.482Z</time></trkpt><trkpt lat="40.0740533" lon="15.867455"><ele>881.0</ele><time>2026-05-03T14:24:07.482Z</time></trkpt><trkpt lat="40.0740667" lon="15.8672583"><ele>881.0</ele><time>2026-05-03T14:24:08.482Z</time></trkpt><trkpt lat="40.0740683" lon="15.8670683"><ele>881.0</ele><time>2026-05-03T14:24:09.482Z</time></trkpt><trkpt lat="40.0740633" lon="15.8668767"><ele>881.0</ele><time>2026-05-03T14:24:10.482Z</time></trkpt><trkpt lat="40.0740467" lon="15.8666767"><ele>881.0</ele><time>2026-05-03T14:24:11.481Z</time></trkpt><trkpt lat="40.07403" lon="15.86648"><ele>880.75</ele><time>2026-05-03T14:24:12.482Z</time></trkpt><trkpt lat="40.0740167" lon="15.8662883"><ele>880.5</ele><time>2026-05-03T14:24:13.482Z</time></trkpt><trkpt lat="40.0740067" lon="15.86611"><ele>880.25</ele><time>2026-05-03T14:24:14.483Z</time></trkpt><trkpt lat="40.0739983" lon="15.8659467"><ele>880.0</ele><time>2026-05-03T14:24:15.481Z</time></trkpt><trkpt lat="40.0739883" lon="15.8657883"><ele>880.0</ele><time>2026-05-03T14:24:16.482Z</time></trkpt><trkpt lat="40.073985" lon="15.8656383"><ele>880.0</ele><time>2026-05-03T14:24:17.483Z</time></trkpt><trkpt lat="40.073975" lon="15.8654983"><ele>880.0</ele><time>2026-05-03T14:24:18.483Z</time></trkpt><trkpt lat="40.0739717" lon="15.8653583"><ele>880.0</ele><time>2026-05-03T14:24:19.484Z</time></trkpt><trkpt lat="40.0739717" lon="15.8652283"><ele>880.0</ele><time>2026-05-03T14:24:20.485Z</time></trkpt><trkpt lat="40.0739683" lon="15.86512"><ele>879.6666666666666</ele><time>2026-05-03T14:24:21.484Z</time></trkpt><trkpt lat="40.0739683" lon="15.865025"><ele>879.3333333333333</ele><time>2026-05-03T14:24:22.484Z</time></trkpt><trkpt lat="40.073975" lon="15.86494"><ele>879.0</ele><time>2026-05-03T14:24:23.484Z</time></trkpt><trkpt lat="40.0740133" lon="15.86479"><ele>878.6666666666667</ele><time>2026-05-03T14:24:25.483Z</time></trkpt><trkpt lat="40.0740617" lon="15.8646717"><ele>878.3333333333334</ele><time>2026-05-03T14:24:27.482Z</time></trkpt><trkpt lat="40.0740867" lon="15.8645783"><ele>878.0</ele><time>2026-05-03T14:24:29.482Z</time></trkpt><trkpt lat="40.0741167" lon="15.86447"><ele>876.0000000000001</ele><time>2026-05-03T14:24:31.483Z</time></trkpt><trkpt lat="40.074175" lon="15.8643417"><ele>874.0</ele><time>2026-05-03T14:24:33.483Z</time></trkpt><trkpt lat="40.0742367" lon="15.864205"><ele>872.0</ele><time>2026-05-03T14:24:35.483Z</time></trkpt><trkpt lat="40.07427" lon="15.8641267"><ele>870.0</ele><time>2026-05-03T14:24:36.483Z</time></trkpt><trkpt lat="40.07429" lon="15.8640417"><ele>868.0000000000001</ele><time>2026-05-03T14:24:37.482Z</time></trkpt><trkpt lat="40.07431" lon="15.86396"><ele>866.0</ele><time>2026-05-03T14:24:38.482Z</time></trkpt><trkpt lat="40.0743533" lon="15.8638283"><ele>865.5999999999999</ele><time>2026-05-03T14:24:40.481Z</time></trkpt><trkpt lat="40.0743833" lon="15.86367"><ele>865.1999999999999</ele><time>2026-05-03T14:24:42.482Z</time></trkpt><trkpt lat="40.0744183" lon="15.863555"><ele>864.8000000000001</ele><time>2026-05-03T14:24:44.483Z</time></trkpt><trkpt lat="40.07443" lon="15.8634567"><ele>864.4000000000001</ele><time>2026-05-03T14:24:46.482Z</time></trkpt><trkpt lat="40.0743683" lon="15.8635467"><ele>864.0</ele><time>2026-05-03T14:24:53.483Z</time></trkpt><trkpt lat="40.0743467" lon="15.8636267"><ele>864.0</ele><time>2026-05-03T14:24:54.482Z</time></trkpt><trkpt lat="40.0743317" lon="15.8637233"><ele>864.0000000000001</ele><time>2026-05-03T14:24:55.483Z</time></trkpt><trkpt lat="40.0743" lon="15.863865"><ele>864.0000000000001</ele><time>2026-05-03T14:24:56.482Z</time></trkpt><trkpt lat="40.0742567" lon="15.8640167"><ele>864.0</ele><time>2026-05-03T14:24:57.481Z</time></trkpt><trkpt lat="40.0742167" lon="15.8641667"><ele>864.0</ele><time>2026-05-03T14:24:58.481Z</time></trkpt><trkpt lat="40.0741767" lon="15.8642633"><ele>866.8000000000001</ele><time>2026-05-03T14:24:59.482Z</time></trkpt><trkpt lat="40.0740983" lon="15.8643983"><ele>869.6000000000001</ele><time>2026-05-03T14:25:01.483Z</time></trkpt><trkpt lat="40.0739817" lon="15.8644583"><ele>872.4</ele><time>2026-05-03T14:25:03.482Z</time></trkpt><trkpt lat="40.0739117" lon="15.8644867"><ele>875.2</ele><time>2026-05-03T14:25:04.483Z</time></trkpt><trkpt lat="40.0738467" lon="15.8645283"><ele>878.0</ele><time>2026-05-03T14:25:05.482Z</time></trkpt><trkpt lat="40.0737967" lon="15.8645833"><ele>878.0</ele><time>2026-05-03T14:25:06.482Z</time></trkpt><trkpt lat="40.0737333" lon="15.8647067"><ele>878.0</ele><time>2026-05-03T14:25:08.484Z</time></trkpt><trkpt lat="40.0736817" lon="15.8648583"><ele>878.0</ele><time>2026-05-03T14:25:10.483Z</time></trkpt><trkpt lat="40.07366" lon="15.86495"><ele>878.0</ele><time>2026-05-03T14:25:11.482Z</time></trkpt><trkpt lat="40.07364" lon="15.8650633"><ele>878.0</ele><time>2026-05-03T14:25:12.483Z</time></trkpt><trkpt lat="40.07361" lon="15.8652083"><ele>878.4</ele><time>2026-05-03T14:25:13.481Z</time></trkpt><trkpt lat="40.0735883" lon="15.86536"><ele>878.8</ele><time>2026-05-03T14:25:14.483Z</time></trkpt><trkpt lat="40.0735483" lon="15.8655267"><ele>879.2</ele><time>2026-05-03T14:25:15.481Z</time></trkpt><trkpt lat="40.0735183" lon="15.8656267"><ele>879.6</ele><time>2026-05-03T14:25:16.482Z</time></trkpt><trkpt lat="40.0734733" lon="15.8657367"><ele>880.0</ele><time>2026-05-03T14:25:18.482Z</time></trkpt><trkpt lat="40.073405" lon="15.865765"><ele>879.9999999999999</ele><time>2026-05-03T14:25:21.486Z</time></trkpt><trkpt lat="40.0733483" lon="15.865715"><ele>880.0</ele><time>2026-05-03T14:25:23.483Z</time></trkpt><trkpt lat="40.07333" lon="15.8656117"><ele>880.0</ele><time>2026-05-03T14:25:25.482Z</time></trkpt><trkpt lat="40.0733433" lon="15.8655067"><ele>880.0</ele><time>2026-05-03T14:25:27.482Z</time></trkpt><trkpt lat="40.0733683" lon="15.8654183"><ele>879.9999999999999</ele><time>2026-05-03T14:25:29.483Z</time></trkpt><trkpt lat="40.0733867" lon="15.8653267"><ele>880.0</ele><time>2026-05-03T14:25:32.482Z</time></trkpt><trkpt lat="40.0733833" lon="15.8652267"><ele>879.9999999999999</ele><time>2026-05-03T14:25:36.483Z</time></trkpt><trkpt lat="40.0733183" lon="15.8652467"><ele>880.0</ele><time>2026-05-03T14:25:40.483Z</time></trkpt><trkpt lat="40.0733367" lon="15.865355"><ele>880.0</ele><time>2026-05-03T14:25:43.481Z</time></trkpt><trkpt lat="40.0733317" lon="15.8654533"><ele>880.0</ele><time>2026-05-03T14:25:46.482Z</time></trkpt><trkpt lat="40.0733167" lon="15.86554"><ele>879.9999999999999</ele><time>2026-05-03T14:25:49.482Z</time></trkpt><trkpt lat="40.0733383" lon="15.8656417"><ele>880.0</ele><time>2026-05-03T14:25:52.483Z</time></trkpt><trkpt lat="40.0733767" lon="15.8657333"><ele>879.9999999999999</ele><time>2026-05-03T14:25:54.482Z</time></trkpt><trkpt lat="40.0734183" lon="15.865805"><ele>880.0</ele><time>2026-05-03T14:25:56.484Z</time></trkpt><trkpt lat="40.0734583" lon="15.8658817"><ele>880.0</ele><time>2026-05-03T14:25:58.483Z</time></trkpt><trkpt lat="40.0734633" lon="15.865975"><ele>880.0</ele><time>2026-05-03T14:26:02.483Z</time></trkpt><trkpt lat="40.07348" lon="15.8660667"><ele>879.9999999999999</ele><time>2026-05-03T14:26:05.482Z</time></trkpt><trkpt lat="40.07357" lon="15.8661433"><ele>880.0</ele><time>2026-05-03T14:27:04.481Z</time></trkpt><trkpt lat="40.0735683" lon="15.866055"><ele>879.9999999999999</ele><time>2026-05-03T14:27:06.481Z</time></trkpt><trkpt lat="40.0735533" lon="15.8659533"><ele>880.0</ele><time>2026-05-03T14:27:08.482Z</time></trkpt><trkpt lat="40.0735433" lon="15.8658567"><ele>880.0</ele><time>2026-05-03T14:27:10.482Z</time></trkpt><trkpt lat="40.0735367" lon="15.8657483"><ele>880.0</ele><time>2026-05-03T14:27:13.481Z</time></trkpt><trkpt lat="40.0734767" lon="15.8657"><ele>879.9999999999999</ele><time>2026-05-03T14:27:18.481Z</time></trkpt><trkpt lat="40.0734267" lon="15.8657517"><ele>880.0</ele><time>2026-05-03T14:27:20.483Z</time></trkpt><trkpt lat="40.0733983" lon="15.865865"><ele>879.9999999999999</ele><time>2026-05-03T14:27:22.484Z</time></trkpt><trkpt lat="40.0733717" lon="15.8659833"><ele>880.0</ele><time>2026-05-03T14:27:24.481Z</time></trkpt><trkpt lat="40.0733767" lon="15.8660667"><ele>880.0</ele><time>2026-05-03T14:28:36.481Z</time></trkpt><trkpt lat="40.0733417" lon="15.8661433"><ele>880.0</ele><time>2026-05-03T14:28:40.482Z</time></trkpt><trkpt lat="40.07339" lon="15.86606"><ele>879.9999999999999</ele><time>2026-05-03T14:28:46.481Z</time></trkpt><trkpt lat="40.073385" lon="15.8659517"><ele>880.0</ele><time>2026-05-03T14:29:49.483Z</time></trkpt><trkpt lat="40.07348" lon="15.865755"><ele>879.9999999999999</ele><time>2026-05-03T14:30:19.482Z</time></trkpt><trkpt lat="40.0735183" lon="15.8656867"><ele>880.0</ele><time>2026-05-03T14:30:21.482Z</time></trkpt><trkpt lat="40.0735467" lon="15.8655567"><ele>880.0</ele><time>2026-05-03T14:30:23.482Z</time></trkpt><trkpt lat="40.0735767" lon="15.865475"><ele>880.0</ele><time>2026-05-03T14:30:25.482Z</time></trkpt><trkpt lat="40.0736117" lon="15.8653683"><ele>879.9999999999999</ele><time>2026-05-03T14:30:27.481Z</time></trkpt><trkpt lat="40.073645" lon="15.8652633"><ele>880.0</ele><time>2026-05-03T14:30:29.482Z</time></trkpt><trkpt lat="40.0736683" lon="15.8651317"><ele>879.6666666666666</ele><time>2026-05-03T14:30:31.482Z</time></trkpt><trkpt lat="40.0737033" lon="15.86505"><ele>879.3333333333333</ele><time>2026-05-03T14:30:33.481Z</time></trkpt><trkpt lat="40.0737767" lon="15.8650033"><ele>879.0</ele><time>2026-05-03T14:30:36.481Z</time></trkpt><trkpt lat="40.0738533" lon="15.86497"><ele>878.6666666666667</ele><time>2026-05-03T14:30:38.481Z</time></trkpt><trkpt lat="40.07394" lon="15.8648767"><ele>878.3333333333334</ele><time>2026-05-03T14:30:40.482Z</time></trkpt><trkpt lat="40.0739767" lon="15.8647983"><ele>878.0</ele><time>2026-05-03T14:30:41.481Z</time></trkpt><trkpt lat="40.074015" lon="15.8647067"><ele>878.0000000000001</ele><time>2026-05-03T14:30:42.481Z</time></trkpt><trkpt lat="40.074055" lon="15.86462"><ele>878.0</ele><time>2026-05-03T14:30:43.481Z</time></trkpt><trkpt lat="40.0740933" lon="15.8645233"><ele>878.0</ele><time>2026-05-03T14:30:44.481Z</time></trkpt><trkpt lat="40.0741217" lon="15.8644467"><ele>878.0</ele><time>2026-05-03T14:30:45.48Z</time></trkpt><trkpt lat="40.0741917" lon="15.8642967"><ele>878.0000000000001</ele><time>2026-05-03T14:30:47.482Z</time></trkpt><trkpt lat="40.0742317" lon="15.8642067"><ele>878.0</ele><time>2026-05-03T14:30:48.482Z</time></trkpt><trkpt lat="40.0742683" lon="15.8640967"><ele>874.5</ele><time>2026-05-03T14:30:49.482Z</time></trkpt><trkpt lat="40.0743083" lon="15.86396"><ele>871.0</ele><time>2026-05-03T14:30:50.482Z</time></trkpt><trkpt lat="40.074355" lon="15.8638133"><ele>867.5</ele><time>2026-05-03T14:30:51.481Z</time></trkpt><trkpt lat="40.07439" lon="15.8636267"><ele>864.0</ele><time>2026-05-03T14:30:52.481Z</time></trkpt><trkpt lat="40.0744117" lon="15.8634067"><ele>861.6666666666667</ele><time>2026-05-03T14:30:53.482Z</time></trkpt><trkpt lat="40.07443" lon="15.863195"><ele>859.3333333333334</ele><time>2026-05-03T14:30:54.48Z</time></trkpt><trkpt lat="40.0744367" lon="15.862975"><ele>857.0</ele><time>2026-05-03T14:30:55.481Z</time></trkpt><trkpt lat="40.0744267" lon="15.8627467"><ele>854.3333333333334</ele><time>2026-05-03T14:30:56.481Z</time></trkpt><trkpt lat="40.0743833" lon="15.8625033"><ele>851.6666666666667</ele><time>2026-05-03T14:30:57.482Z</time></trkpt><trkpt lat="40.0743517" lon="15.86226"><ele>849.0</ele><time>2026-05-03T14:30:58.482Z</time></trkpt><trkpt lat="40.0743083" lon="15.8620183"><ele>849.0</ele><time>2026-05-03T14:30:59.482Z</time></trkpt><trkpt lat="40.074245" lon="15.86178"><ele>849.0</ele><time>2026-05-03T14:31:00.482Z</time></trkpt><trkpt lat="40.074165" lon="15.8615567"><ele>849.0</ele><time>2026-05-03T14:31:01.481Z</time></trkpt><trkpt lat="40.0740633" lon="15.8613383"><ele>849.6666666666667</ele><time>2026-05-03T14:31:02.482Z</time></trkpt><trkpt lat="40.0739483" lon="15.8611283"><ele>850.3333333333334</ele><time>2026-05-03T14:31:03.481Z</time></trkpt><trkpt lat="40.0738133" lon="15.8609383"><ele>851.0</ele><time>2026-05-03T14:31:04.482Z</time></trkpt><trkpt lat="40.0736783" lon="15.8607733"><ele>849.3333333333334</ele><time>2026-05-03T14:31:05.483Z</time></trkpt><trkpt lat="40.0735467" lon="15.860615"><ele>847.6666666666667</ele><time>2026-05-03T14:31:06.484Z</time></trkpt><trkpt lat="40.0734267" lon="15.8604483"><ele>846.0</ele><time>2026-05-03T14:31:07.484Z</time></trkpt><trkpt lat="40.0733233" lon="15.8602683"><ele>837.6666666666667</ele><time>2026-05-03T14:31:08.483Z</time></trkpt><trkpt lat="40.0732367" lon="15.860065"><ele>829.3333333333334</ele><time>2026-05-03T14:31:09.481Z</time></trkpt><trkpt lat="40.0731733" lon="15.8598467"><ele>821.0</ele><time>2026-05-03T14:31:10.482Z</time></trkpt><trkpt lat="40.0731367" lon="15.8596217"><ele>821.0</ele><time>2026-05-03T14:31:11.482Z</time></trkpt><trkpt lat="40.0731183" lon="15.85939"><ele>821.0</ele><time>2026-05-03T14:31:12.483Z</time></trkpt><trkpt lat="40.0731217" lon="15.85916"><ele>821.0</ele><time>2026-05-03T14:31:13.481Z</time></trkpt><trkpt lat="40.0730917" lon="15.8589583"><ele>820.6666666666667</ele><time>2026-05-03T14:31:14.483Z</time></trkpt><trkpt lat="40.07315" lon="15.8587417"><ele>820.3333333333333</ele><time>2026-05-03T14:31:15.482Z</time></trkpt><trkpt lat="40.0732083" lon="15.85853"><ele>820.0</ele><time>2026-05-03T14:31:16.481Z</time></trkpt><trkpt lat="40.073295" lon="15.858335"><ele>829.3333333333333</ele><time>2026-05-03T14:31:17.482Z</time></trkpt><trkpt lat="40.0733883" lon="15.8581567"><ele>838.6666666666667</ele><time>2026-05-03T14:31:18.483Z</time></trkpt><trkpt lat="40.0735017" lon="15.8580033"><ele>848.0</ele><time>2026-05-03T14:31:19.482Z</time></trkpt><trkpt lat="40.0736183" lon="15.8578883"><ele>848.0</ele><time>2026-05-03T14:31:20.482Z</time></trkpt><trkpt lat="40.0737367" lon="15.8578133"><ele>848.0</ele><time>2026-05-03T14:31:21.482Z</time></trkpt><trkpt lat="40.0738583" lon="15.8577717"><ele>848.0</ele><time>2026-05-03T14:31:22.481Z</time></trkpt><trkpt lat="40.0739867" lon="15.8577617"><ele>848.0</ele><time>2026-05-03T14:31:23.481Z</time></trkpt><trkpt lat="40.07412" lon="15.8577883"><ele>851.0</ele><time>2026-05-03T14:31:24.482Z</time></trkpt><trkpt lat="40.074255" lon="15.8578417"><ele>854.0</ele><time>2026-05-03T14:31:25.482Z</time></trkpt><trkpt lat="40.0743833" lon="15.8579233"><ele>857.0</ele><time>2026-05-03T14:31:26.482Z</time></trkpt><trkpt lat="40.0745" lon="15.8580383"><ele>860.0</ele><time>2026-05-03T14:31:27.481Z</time></trkpt><trkpt lat="40.0746" lon="15.8581867"><ele>860.0</ele><time>2026-05-03T14:31:28.481Z</time></trkpt><trkpt lat="40.0746767" lon="15.858365"><ele>860.0</ele><time>2026-05-03T14:31:29.482Z</time></trkpt><trkpt lat="40.0747217" lon="15.85857"><ele>860.0</ele><time>2026-05-03T14:31:30.481Z</time></trkpt><trkpt lat="40.0747383" lon="15.8588017"><ele>858.3333333333334</ele><time>2026-05-03T14:31:31.482Z</time></trkpt><trkpt lat="40.0747317" lon="15.8590567"><ele>856.6666666666667</ele><time>2026-05-03T14:31:32.482Z</time></trkpt><trkpt lat="40.0747017" lon="15.8593283"><ele>855.0</ele><time>2026-05-03T14:31:33.482Z</time></trkpt><trkpt lat="40.0746433" lon="15.8596067"><ele>852.3333333333333</ele><time>2026-05-03T14:31:34.482Z</time></trkpt><trkpt lat="40.0745633" lon="15.859875"><ele>849.6666666666666</ele><time>2026-05-03T14:31:35.482Z</time></trkpt><trkpt lat="40.0744683" lon="15.8601283"><ele>847.0</ele><time>2026-05-03T14:31:36.481Z</time></trkpt><trkpt lat="40.0743567" lon="15.86038"><ele>847.0</ele><time>2026-05-03T14:31:37.482Z</time></trkpt><trkpt lat="40.0742367" lon="15.860635"><ele>847.0</ele><time>2026-05-03T14:31:38.481Z</time></trkpt><trkpt lat="40.0741067" lon="15.8609033"><ele>849.0</ele><time>2026-05-03T14:31:39.481Z</time></trkpt><trkpt lat="40.07399" lon="15.86118"><ele>851.0</ele><time>2026-05-03T14:31:40.481Z</time></trkpt><trkpt lat="40.07387" lon="15.8614533"><ele>851.0</ele><time>2026-05-03T14:31:41.483Z</time></trkpt><trkpt lat="40.0737567" lon="15.8617167"><ele>851.0</ele><time>2026-05-03T14:31:42.482Z</time></trkpt><trkpt lat="40.07362" lon="15.8619883"><ele>854.0</ele><time>2026-05-03T14:31:43.482Z</time></trkpt><trkpt lat="40.07349" lon="15.8622733"><ele>857.0</ele><time>2026-05-03T14:31:44.482Z</time></trkpt><trkpt lat="40.0733617" lon="15.8625533"><ele>852.0</ele><time>2026-05-03T14:31:45.481Z</time></trkpt><trkpt lat="40.0732367" lon="15.8628467"><ele>847.0</ele><time>2026-05-03T14:31:46.483Z</time></trkpt><trkpt lat="40.073105" lon="15.8631467"><ele>849.5</ele><time>2026-05-03T14:31:47.482Z</time></trkpt><trkpt lat="40.0729717" lon="15.8634483"><ele>852.0</ele><time>2026-05-03T14:31:48.481Z</time></trkpt><trkpt lat="40.0728317" lon="15.8637617"><ele>852.0</ele><time>2026-05-03T14:31:49.481Z</time></trkpt><trkpt lat="40.0726833" lon="15.8640833"><ele>852.0</ele><time>2026-05-03T14:31:50.482Z</time></trkpt><trkpt lat="40.0725333" lon="15.86441"><ele>854.0</ele><time>2026-05-03T14:31:51.481Z</time></trkpt><trkpt lat="40.0723767" lon="15.8647417"><ele>856.0</ele><time>2026-05-03T14:31:52.482Z</time></trkpt><trkpt lat="40.072215" lon="15.8650717"><ele>859.5</ele><time>2026-05-03T14:31:53.481Z</time></trkpt><trkpt lat="40.0720433" lon="15.8654017"><ele>863.0</ele><time>2026-05-03T14:31:54.482Z</time></trkpt><trkpt lat="40.0718617" lon="15.8657267"><ele>860.0</ele><time>2026-05-03T14:31:55.482Z</time></trkpt><trkpt lat="40.0716733" lon="15.8660483"><ele>857.0</ele><time>2026-05-03T14:31:56.481Z</time></trkpt><trkpt lat="40.071475" lon="15.8663667"><ele>857.0</ele><time>2026-05-03T14:31:57.481Z</time></trkpt><trkpt lat="40.071265" lon="15.866675"><ele>857.0</ele><time>2026-05-03T14:31:58.482Z</time></trkpt><trkpt lat="40.0710483" lon="15.8669717"><ele>858.0</ele><time>2026-05-03T14:31:59.483Z</time></trkpt><trkpt lat="40.070825" lon="15.8672467"><ele>859.0</ele><time>2026-05-03T14:32:00.482Z</time></trkpt><trkpt lat="40.0706" lon="15.8675117"><ele>864.0</ele><time>2026-05-03T14:32:01.482Z</time></trkpt><trkpt lat="40.0703667" lon="15.867775"><ele>869.0</ele><time>2026-05-03T14:32:02.482Z</time></trkpt><trkpt lat="40.0701333" lon="15.86804"><ele>870.5</ele><time>2026-05-03T14:32:03.48Z</time></trkpt><trkpt lat="40.0698983" lon="15.8683067"><ele>872.0</ele><time>2026-05-03T14:32:04.482Z</time></trkpt><trkpt lat="40.0371233" lon="15.8729383"><ele>795.0</ele><time>2026-05-03T14:33:39.482Z</time></trkpt><trkpt lat="40.0369333" lon="15.8730633"><ele>718.0</ele><time>2026-05-03T14:33:40.481Z</time></trkpt><trkpt lat="40.036655" lon="15.873195"><ele>720.5</ele><time>2026-05-03T14:33:41.483Z</time></trkpt><trkpt lat="40.0363633" lon="15.873335"><ele>723.0</ele><time>2026-05-03T14:33:42.483Z</time></trkpt><trkpt lat="40.0360733" lon="15.87348"><ele>729.5</ele><time>2026-05-03T14:33:43.482Z</time></trkpt><trkpt lat="40.03578" lon="15.8736133"><ele>736.0</ele><time>2026-05-03T14:33:44.483Z</time></trkpt><trkpt lat="40.0355017" lon="15.8737133"><ele>736.0</ele><time>2026-05-03T14:33:45.482Z</time></trkpt><trkpt lat="40.0352217" lon="15.8738217"><ele>736.0</ele><time>2026-05-03T14:33:46.482Z</time></trkpt><trkpt lat="40.03493" lon="15.8739217"><ele>745.5</ele><time>2026-05-03T14:33:47.482Z</time></trkpt><trkpt lat="40.0346333" lon="15.8740217"><ele>755.0</ele><time>2026-05-03T14:33:48.481Z</time></trkpt><trkpt lat="40.034325" lon="15.8741117"><ele>761.0</ele><time>2026-05-03T14:33:49.481Z</time></trkpt><trkpt lat="40.0340117" lon="15.874185"><ele>767.0</ele><time>2026-05-03T14:33:50.483Z</time></trkpt><trkpt lat="40.0337" lon="15.8742433"><ele>780.5</ele><time>2026-05-03T14:33:51.482Z</time></trkpt><trkpt lat="40.0333833" lon="15.87429"><ele>794.0</ele><time>2026-05-03T14:33:52.482Z</time></trkpt><trkpt lat="40.0330617" lon="15.8743283"><ele>795.0</ele><time>2026-05-03T14:33:53.482Z</time></trkpt><trkpt lat="40.03274" lon="15.8743567"><ele>796.0</ele><time>2026-05-03T14:33:54.482Z</time></trkpt><trkpt lat="40.032415" lon="15.8743767"><ele>790.0</ele><time>2026-05-03T14:33:55.481Z</time></trkpt><trkpt lat="40.0320867" lon="15.8743933"><ele>784.0</ele><time>2026-05-03T14:33:56.481Z</time></trkpt><trkpt lat="40.03176" lon="15.8744133"><ele>778.5</ele><time>2026-05-03T14:33:57.482Z</time></trkpt><trkpt lat="40.03144" lon="15.8744467"><ele>773.0</ele><time>2026-05-03T14:33:58.482Z</time></trkpt><trkpt lat="40.0311183" lon="15.8744867"><ele>777.0</ele><time>2026-05-03T14:33:59.482Z</time></trkpt><trkpt lat="40.0307967" lon="15.8745467"><ele>781.0</ele><time>2026-05-03T14:34:00.483Z</time></trkpt><trkpt lat="40.0304667" lon="15.8746133"><ele>747.0</ele><time>2026-05-03T14:34:01.482Z</time></trkpt><trkpt lat="40.0288317" lon="15.8749683"><ele>744.0</ele><time>2026-05-03T14:34:06.482Z</time></trkpt><trkpt lat="40.0285117" lon="15.8753483"><ele>741.0</ele><time>2026-05-03T14:34:07.483Z</time></trkpt><trkpt lat="40.0281517" lon="15.8755917"><ele>741.0</ele><time>2026-05-03T14:34:08.482Z</time></trkpt><trkpt lat="40.0278217" lon="15.87583"><ele>741.0</ele><time>2026-05-03T14:34:09.481Z</time></trkpt><trkpt lat="40.0275" lon="15.876045"><ele>742.0</ele><time>2026-05-03T14:34:10.482Z</time></trkpt><trkpt lat="40.0271883" lon="15.876255"><ele>743.0</ele><time>2026-05-03T14:34:11.481Z</time></trkpt><trkpt lat="40.0268767" lon="15.8764583"><ele>742.5</ele><time>2026-05-03T14:34:12.482Z</time></trkpt><trkpt lat="40.026565" lon="15.87666"><ele>742.0</ele><time>2026-05-03T14:34:13.481Z</time></trkpt><trkpt lat="40.0262533" lon="15.8768583"><ele>742.0</ele><time>2026-05-03T14:34:14.482Z</time></trkpt><trkpt lat="40.025945" lon="15.877055"><ele>742.0</ele><time>2026-05-03T14:34:15.482Z</time></trkpt><trkpt lat="40.025635" lon="15.87725"><ele>743.0</ele><time>2026-05-03T14:34:16.481Z</time></trkpt><trkpt lat="40.0253283" lon="15.8774433"><ele>744.0</ele><time>2026-05-03T14:34:17.481Z</time></trkpt><trkpt lat="40.0250233" lon="15.8776367"><ele>747.0</ele><time>2026-05-03T14:34:18.482Z</time></trkpt><trkpt lat="40.024715" lon="15.8778283"><ele>750.0</ele><time>2026-05-03T14:34:19.482Z</time></trkpt><trkpt lat="40.02441" lon="15.878015"><ele>754.5</ele><time>2026-05-03T14:34:20.481Z</time></trkpt><trkpt lat="40.024105" lon="15.8782033"><ele>759.0</ele><time>2026-05-03T14:34:21.482Z</time></trkpt><trkpt lat="40.0237983" lon="15.8783917"><ele>763.0</ele><time>2026-05-03T14:34:22.481Z</time></trkpt><trkpt lat="40.023495" lon="15.87858"><ele>767.0</ele><time>2026-05-03T14:34:23.482Z</time></trkpt><trkpt lat="40.0215233" lon="15.88014"><ele>753.0</ele><time>2026-05-03T14:34:30.481Z</time></trkpt><trkpt lat="40.021325" lon="15.88048"><ele>739.0</ele><time>2026-05-03T14:34:31.483Z</time></trkpt><trkpt lat="40.0211117" lon="15.8808"><ele>741.0</ele><time>2026-05-03T14:34:32.481Z</time></trkpt><trkpt lat="40.020915" lon="15.88113"><ele>743.0</ele><time>2026-05-03T14:34:33.482Z</time></trkpt><trkpt lat="40.020735" lon="15.8814783"><ele>738.0</ele><time>2026-05-03T14:34:34.482Z</time></trkpt><trkpt lat="40.0205617" lon="15.8818367"><ele>733.0</ele><time>2026-05-03T14:34:35.483Z</time></trkpt><trkpt lat="40.0203933" lon="15.882205"><ele>733.0</ele><time>2026-05-03T14:34:36.481Z</time></trkpt><trkpt lat="40.0202267" lon="15.88258"><ele>733.0</ele><time>2026-05-03T14:34:37.483Z</time></trkpt><trkpt lat="40.02006" lon="15.8829633"><ele>732.5</ele><time>2026-05-03T14:34:38.483Z</time></trkpt><trkpt lat="40.019895" lon="15.88335"><ele>732.0</ele><time>2026-05-03T14:34:39.481Z</time></trkpt><trkpt lat="40.0197283" lon="15.8837417"><ele>732.0</ele><time>2026-05-03T14:34:40.482Z</time></trkpt><trkpt lat="40.01956" lon="15.8841333"><ele>732.0</ele><time>2026-05-03T14:34:41.482Z</time></trkpt><trkpt lat="40.0193917" lon="15.884525"><ele>733.0</ele><time>2026-05-03T14:34:42.481Z</time></trkpt><trkpt lat="40.0192217" lon="15.8849183"><ele>734.0</ele><time>2026-05-03T14:34:43.482Z</time></trkpt><trkpt lat="40.0190683" lon="15.8853167"><ele>731.0</ele><time>2026-05-03T14:34:44.483Z</time></trkpt><trkpt lat="40.0189167" lon="15.885715"><ele>728.0</ele><time>2026-05-03T14:34:45.481Z</time></trkpt><trkpt lat="40.0187483" lon="15.8861033"><ele>727.0</ele><time>2026-05-03T14:34:46.482Z</time></trkpt><trkpt lat="40.0185817" lon="15.8864917"><ele>726.0</ele><time>2026-05-03T14:34:47.483Z</time></trkpt><trkpt lat="40.0184117" lon="15.88688"><ele>726.0</ele><time>2026-05-03T14:34:48.482Z</time></trkpt><trkpt lat="40.0182483" lon="15.8872667"><ele>726.0</ele><time>2026-05-03T14:34:49.483Z</time></trkpt><trkpt lat="40.018095" lon="15.8876567"><ele>726.0</ele><time>2026-05-03T14:34:50.483Z</time></trkpt><trkpt lat="40.017955" lon="15.88805"><ele>726.0</ele><time>2026-05-03T14:34:51.481Z</time></trkpt><trkpt lat="40.0178283" lon="15.8884467"><ele>725.0</ele><time>2026-05-03T14:34:52.482Z</time></trkpt><trkpt lat="40.0177133" lon="15.8888433"><ele>724.0</ele><time>2026-05-03T14:34:53.482Z</time></trkpt><trkpt lat="40.0176017" lon="15.88924"><ele>724.0</ele><time>2026-05-03T14:34:54.482Z</time></trkpt><trkpt lat="40.0175033" lon="15.88965"><ele>724.0</ele><time>2026-05-03T14:34:55.481Z</time></trkpt><trkpt lat="40.01739" lon="15.8900433"><ele>724.5</ele><time>2026-05-03T14:34:56.482Z</time></trkpt><trkpt lat="40.0172767" lon="15.8904317"><ele>725.0</ele><time>2026-05-03T14:34:57.482Z</time></trkpt><trkpt lat="40.01715" lon="15.8908133"><ele>725.5</ele><time>2026-05-03T14:34:58.482Z</time></trkpt><trkpt lat="40.0170183" lon="15.891185"><ele>726.0</ele><time>2026-05-03T14:34:59.481Z</time></trkpt><trkpt lat="40.01688" lon="15.8915483"><ele>727.0</ele><time>2026-05-03T14:35:00.482Z</time></trkpt><trkpt lat="40.016715" lon="15.8918967"><ele>728.0</ele><time>2026-05-03T14:35:01.482Z</time></trkpt><trkpt lat="40.0165467" lon="15.8922383"><ele>728.0</ele><time>2026-05-03T14:35:02.482Z</time></trkpt><trkpt lat="40.016375" lon="15.89258"><ele>728.0</ele><time>2026-05-03T14:35:03.481Z</time></trkpt><trkpt lat="40.0161983" lon="15.89292"><ele>728.0</ele><time>2026-05-03T14:35:04.481Z</time></trkpt><trkpt lat="40.01602" lon="15.8932583"><ele>728.0</ele><time>2026-05-03T14:35:05.481Z</time></trkpt><trkpt lat="40.0158433" lon="15.893605"><ele>729.0</ele><time>2026-05-03T14:35:06.482Z</time></trkpt><trkpt lat="40.015665" lon="15.89396"><ele>730.0</ele><time>2026-05-03T14:35:07.48Z</time></trkpt><trkpt lat="40.0154833" lon="15.894315"><ele>730.0</ele><time>2026-05-03T14:35:08.482Z</time></trkpt><trkpt lat="40.0152967" lon="15.894675"><ele>730.0</ele><time>2026-05-03T14:35:09.481Z</time></trkpt><trkpt lat="40.0151017" lon="15.8950333"><ele>726.5</ele><time>2026-05-03T14:35:10.481Z</time></trkpt><trkpt lat="40.0149067" lon="15.8953967"><ele>723.0</ele><time>2026-05-03T14:35:11.483Z</time></trkpt><trkpt lat="40.0147133" lon="15.8957633"><ele>723.5</ele><time>2026-05-03T14:35:12.481Z</time></trkpt><trkpt lat="40.01452" lon="15.8961267"><ele>724.0</ele><time>2026-05-03T14:35:13.482Z</time></trkpt><trkpt lat="40.01433" lon="15.8964867"><ele>723.5</ele><time>2026-05-03T14:35:14.483Z</time></trkpt><trkpt lat="40.01414" lon="15.8968417"><ele>723.0</ele><time>2026-05-03T14:35:15.482Z</time></trkpt><trkpt lat="40.0139533" lon="15.89719"><ele>723.0</ele><time>2026-05-03T14:35:16.481Z</time></trkpt><trkpt lat="40.0137633" lon="15.8975317"><ele>723.0</ele><time>2026-05-03T14:35:17.483Z</time></trkpt><trkpt lat="40.0135717" lon="15.897865"><ele>723.5</ele><time>2026-05-03T14:35:18.482Z</time></trkpt><trkpt lat="40.0133783" lon="15.8981883"><ele>724.0</ele><time>2026-05-03T14:35:19.484Z</time></trkpt><trkpt lat="40.0131833" lon="15.8985083"><ele>724.0</ele><time>2026-05-03T14:35:20.482Z</time></trkpt><trkpt lat="40.0129833" lon="15.8988183"><ele>724.0</ele><time>2026-05-03T14:35:21.481Z</time></trkpt><trkpt lat="40.0127783" lon="15.8991217"><ele>724.0</ele><time>2026-05-03T14:35:22.482Z</time></trkpt><trkpt lat="40.0125667" lon="15.8994183"><ele>724.0</ele><time>2026-05-03T14:35:23.482Z</time></trkpt><trkpt lat="40.0123483" lon="15.8997067"><ele>726.5</ele><time>2026-05-03T14:35:24.483Z</time></trkpt><trkpt lat="40.012125" lon="15.8999883"><ele>729.0</ele><time>2026-05-03T14:35:25.482Z</time></trkpt><trkpt lat="40.0118933" lon="15.9002633"><ele>730.0</ele><time>2026-05-03T14:35:26.481Z</time></trkpt><trkpt lat="40.01166" lon="15.90053"><ele>731.0</ele><time>2026-05-03T14:35:27.481Z</time></trkpt><trkpt lat="40.0114233" lon="15.9007933"><ele>752.5</ele><time>2026-05-03T14:35:28.481Z</time></trkpt><trkpt lat="40.01118" lon="15.9010533"><ele>774.0</ele><time>2026-05-03T14:35:29.484Z</time></trkpt><trkpt lat="40.01093" lon="15.90132"><ele>791.5</ele><time>2026-05-03T14:35:30.483Z</time></trkpt><trkpt lat="40.01068" lon="15.901595"><ele>809.0</ele><time>2026-05-03T14:35:31.483Z</time></trkpt><trkpt lat="40.01043" lon="15.90187"><ele>725.0</ele><time>2026-05-03T14:35:32.482Z</time></trkpt><trkpt lat="40.0066517" lon="15.9077233"><ele>725.0</ele><time>2026-05-03T14:35:51.485Z</time></trkpt><trkpt lat="40.0063883" lon="15.908175"><ele>725.0</ele><time>2026-05-03T14:35:52.483Z</time></trkpt><trkpt lat="40.006175" lon="15.9085667"><ele>725.0</ele><time>2026-05-03T14:35:53.483Z</time></trkpt><trkpt lat="40.005925" lon="15.908905"><ele>725.0</ele><time>2026-05-03T14:35:54.482Z</time></trkpt><trkpt lat="40.005685" lon="15.9092517"><ele>725.0</ele><time>2026-05-03T14:35:55.482Z</time></trkpt><trkpt lat="40.00546" lon="15.9095717"><ele>725.0</ele><time>2026-05-03T14:35:56.481Z</time></trkpt><trkpt lat="40.00523" lon="15.9098867"><ele>724.5</ele><time>2026-05-03T14:35:57.48Z</time></trkpt><trkpt lat="40.0049983" lon="15.910195"><ele>724.0</ele><time>2026-05-03T14:35:58.481Z</time></trkpt><trkpt lat="40.0047667" lon="15.9104967"><ele>725.5</ele><time>2026-05-03T14:35:59.483Z</time></trkpt><trkpt lat="40.004525" lon="15.9107967"><ele>727.0</ele><time>2026-05-03T14:36:00.483Z</time></trkpt><trkpt lat="40.00428" lon="15.9110917"><ele>731.5</ele><time>2026-05-03T14:36:01.483Z</time></trkpt><trkpt lat="40.0040383" lon="15.9113867"><ele>736.0</ele><time>2026-05-03T14:36:02.482Z</time></trkpt><trkpt lat="40.0038" lon="15.9116767"><ele>735.0</ele><time>2026-05-03T14:36:03.483Z</time></trkpt><trkpt lat="40.0035633" lon="15.9119667"><ele>734.0</ele><time>2026-05-03T14:36:04.483Z</time></trkpt><trkpt lat="40.00333" lon="15.9122567"><ele>736.0</ele><time>2026-05-03T14:36:05.482Z</time></trkpt><trkpt lat="40.0031" lon="15.9125417"><ele>738.0</ele><time>2026-05-03T14:36:06.482Z</time></trkpt><trkpt lat="40.0028683" lon="15.9128233"><ele>738.0</ele><time>2026-05-03T14:36:07.481Z</time></trkpt><trkpt lat="40.002635" lon="15.913105"><ele>738.0</ele><time>2026-05-03T14:36:08.483Z</time></trkpt><trkpt lat="40.002405" lon="15.91339"><ele>744.5</ele><time>2026-05-03T14:36:09.482Z</time></trkpt><trkpt lat="40.00218" lon="15.9136767"><ele>751.0</ele><time>2026-05-03T14:36:10.482Z</time></trkpt><trkpt lat="40.0019533" lon="15.9139733"><ele>755.0</ele><time>2026-05-03T14:36:11.482Z</time></trkpt><trkpt lat="40.00173" lon="15.914275"><ele>759.0</ele><time>2026-05-03T14:36:12.481Z</time></trkpt><trkpt lat="40.001515" lon="15.91459"><ele>765.5</ele><time>2026-05-03T14:36:13.482Z</time></trkpt><trkpt lat="40.0013083" lon="15.9149083"><ele>772.0</ele><time>2026-05-03T14:36:14.482Z</time></trkpt><trkpt lat="40.001105" lon="15.9152383"><ele>782.0</ele><time>2026-05-03T14:36:15.482Z</time></trkpt><trkpt lat="40.0008967" lon="15.9155667"><ele>792.0</ele><time>2026-05-03T14:36:16.483Z</time></trkpt><trkpt lat="39.992225" lon="15.9297517"><ele>751.0</ele><time>2026-05-03T14:36:57.482Z</time></trkpt><trkpt lat="39.9920417" lon="15.93009"><ele>710.0</ele><time>2026-05-03T14:36:58.483Z</time></trkpt><trkpt lat="39.99184" lon="15.930425"><ele>708.5</ele><time>2026-05-03T14:36:59.482Z</time></trkpt><trkpt lat="39.9916367" lon="15.930755"><ele>707.0</ele><time>2026-05-03T14:37:00.482Z</time></trkpt><trkpt lat="39.9914433" lon="15.9310933"><ele>707.0</ele><time>2026-05-03T14:37:01.482Z</time></trkpt><trkpt lat="39.99124" lon="15.93143"><ele>707.0</ele><time>2026-05-03T14:37:02.482Z</time></trkpt><trkpt lat="39.9910183" lon="15.9317417"><ele>696.5</ele><time>2026-05-03T14:37:03.482Z</time></trkpt><trkpt lat="39.990765" lon="15.9320383"><ele>686.0</ele><time>2026-05-03T14:37:04.481Z</time></trkpt><trkpt lat="39.9905067" lon="15.9323233"><ele>687.0</ele><time>2026-05-03T14:37:05.482Z</time></trkpt><trkpt lat="39.9902383" lon="15.9325817"><ele>688.0</ele><time>2026-05-03T14:37:06.482Z</time></trkpt><trkpt lat="39.98996" lon="15.9328233"><ele>680.0</ele><time>2026-05-03T14:37:07.481Z</time></trkpt><trkpt lat="39.9896767" lon="15.93305"><ele>672.0</ele><time>2026-05-03T14:37:08.481Z</time></trkpt><trkpt lat="39.9893767" lon="15.9332633"><ele>667.0</ele><time>2026-05-03T14:37:09.482Z</time></trkpt><trkpt lat="39.9890633" lon="15.9334583"><ele>662.0</ele><time>2026-05-03T14:37:10.482Z</time></trkpt><trkpt lat="39.9887433" lon="15.9336367"><ele>662.0</ele><time>2026-05-03T14:37:11.482Z</time></trkpt><trkpt lat="39.9884133" lon="15.9337917"><ele>662.0</ele><time>2026-05-03T14:37:12.483Z</time></trkpt><trkpt lat="39.988075" lon="15.9339233"><ele>663.0</ele><time>2026-05-03T14:37:13.481Z</time></trkpt><trkpt lat="39.987735" lon="15.9340383"><ele>664.0</ele><time>2026-05-03T14:37:14.483Z</time></trkpt><trkpt lat="39.987385" lon="15.9341317"><ele>664.0</ele><time>2026-05-03T14:37:15.482Z</time></trkpt><trkpt lat="39.9870283" lon="15.934205"><ele>664.0</ele><time>2026-05-03T14:37:16.481Z</time></trkpt><trkpt lat="39.98667" lon="15.93426"><ele>646.5</ele><time>2026-05-03T14:37:17.482Z</time></trkpt><trkpt lat="39.9863117" lon="15.9343"><ele>629.0</ele><time>2026-05-03T14:37:18.482Z</time></trkpt><trkpt lat="39.9859517" lon="15.9343333"><ele>637.5</ele><time>2026-05-03T14:37:19.483Z</time></trkpt><trkpt lat="39.9855917" lon="15.9343683"><ele>646.0</ele><time>2026-05-03T14:37:20.483Z</time></trkpt><trkpt lat="39.9852333" lon="15.934405"><ele>653.5</ele><time>2026-05-03T14:37:21.482Z</time></trkpt><trkpt lat="39.9848733" lon="15.9344383"><ele>661.0</ele><time>2026-05-03T14:37:22.481Z</time></trkpt><trkpt lat="39.984515" lon="15.9344667"><ele>657.0</ele><time>2026-05-03T14:37:23.483Z</time></trkpt><trkpt lat="39.9841583" lon="15.9344983"><ele>653.0</ele><time>2026-05-03T14:37:24.483Z</time></trkpt><trkpt lat="39.9838033" lon="15.934535"><ele>653.0</ele><time>2026-05-03T14:37:25.482Z</time></trkpt><trkpt lat="39.9834483" lon="15.9345717"><ele>653.0</ele><time>2026-05-03T14:37:26.483Z</time></trkpt><trkpt lat="39.9830933" lon="15.9346133"><ele>643.0</ele><time>2026-05-03T14:37:27.483Z</time></trkpt><trkpt lat="39.98274" lon="15.9346533"><ele>633.0</ele><time>2026-05-03T14:37:28.484Z</time></trkpt><trkpt lat="39.98239" lon="15.9346967"><ele>633.0</ele><time>2026-05-03T14:37:29.482Z</time></trkpt><trkpt lat="39.9820383" lon="15.934735"><ele>633.0</ele><time>2026-05-03T14:37:30.482Z</time></trkpt><trkpt lat="39.981685" lon="15.934775"><ele>636.5</ele><time>2026-05-03T14:37:31.483Z</time></trkpt><trkpt lat="39.981335" lon="15.93482"><ele>640.0</ele><time>2026-05-03T14:37:32.485Z</time></trkpt><trkpt lat="39.9809833" lon="15.934875"><ele>629.5</ele><time>2026-05-03T14:37:33.484Z</time></trkpt><trkpt lat="39.9806317" lon="15.93494"><ele>619.0</ele><time>2026-05-03T14:37:34.485Z</time></trkpt><trkpt lat="39.9802833" lon="15.935015"><ele>604.0</ele><time>2026-05-03T14:37:35.484Z</time></trkpt><trkpt lat="39.979935" lon="15.9350883"><ele>589.0</ele><time>2026-05-03T14:37:36.483Z</time></trkpt><trkpt lat="39.9795883" lon="15.935165"><ele>589.0</ele><time>2026-05-03T14:37:37.484Z</time></trkpt><trkpt lat="39.9792417" lon="15.9352417"><ele>589.0</ele><time>2026-05-03T14:37:38.485Z</time></trkpt><trkpt lat="39.9788983" lon="15.9353183"><ele>598.5</ele><time>2026-05-03T14:37:39.483Z</time></trkpt><trkpt lat="39.9785533" lon="15.935395"><ele>608.0</ele><time>2026-05-03T14:37:40.481Z</time></trkpt><trkpt lat="39.9782133" lon="15.9354667"><ele>615.5</ele><time>2026-05-03T14:37:41.481Z</time></trkpt><trkpt lat="39.977875" lon="15.9355367"><ele>623.0</ele><time>2026-05-03T14:37:42.482Z</time></trkpt><trkpt lat="39.97754" lon="15.9356083"><ele>620.0</ele><time>2026-05-03T14:37:43.482Z</time></trkpt><trkpt lat="39.9772117" lon="15.9356817"><ele>617.0</ele><time>2026-05-03T14:37:44.483Z</time></trkpt><trkpt lat="39.9768833" lon="15.9357567"><ele>615.5</ele><time>2026-05-03T14:37:45.483Z</time></trkpt><trkpt lat="39.976555" lon="15.9358367"><ele>614.0</ele><time>2026-05-03T14:37:46.482Z</time></trkpt><trkpt lat="39.9762267" lon="15.935915"><ele>610.5</ele><time>2026-05-03T14:37:47.482Z</time></trkpt><trkpt lat="39.9758967" lon="15.9359883"><ele>607.0</ele><time>2026-05-03T14:37:48.483Z</time></trkpt><trkpt lat="39.975565" lon="15.936055"><ele>607.0</ele><time>2026-05-03T14:37:49.482Z</time></trkpt><trkpt lat="39.9752383" lon="15.9361217"><ele>607.0</ele><time>2026-05-03T14:37:50.483Z</time></trkpt><trkpt lat="39.974915" lon="15.9361933"><ele>606.0</ele><time>2026-05-03T14:37:51.482Z</time></trkpt><trkpt lat="39.9746133" lon="15.936275"><ele>605.0</ele><time>2026-05-03T14:37:52.482Z</time></trkpt><trkpt lat="39.9743" lon="15.9363167"><ele>601.5</ele><time>2026-05-03T14:37:53.482Z</time></trkpt><trkpt lat="39.9739817" lon="15.936325"><ele>598.0</ele><time>2026-05-03T14:37:54.482Z</time></trkpt><trkpt lat="39.97366" lon="15.9362817"><ele>596.0</ele><time>2026-05-03T14:37:55.482Z</time></trkpt><trkpt lat="39.9733383" lon="15.9362"><ele>594.0</ele><time>2026-05-03T14:37:56.482Z</time></trkpt><trkpt lat="39.97302" lon="15.9360817"><ele>594.0</ele><time>2026-05-03T14:37:57.482Z</time></trkpt><trkpt lat="39.9727117" lon="15.9359317"><ele>594.0</ele><time>2026-05-03T14:37:58.483Z</time></trkpt><trkpt lat="39.9724117" lon="15.93575"><ele>594.0</ele><time>2026-05-03T14:37:59.483Z</time></trkpt><trkpt lat="39.9721283" lon="15.9355317"><ele>594.0</ele><time>2026-05-03T14:38:00.483Z</time></trkpt><trkpt lat="39.97186" lon="15.9352817"><ele>591.0</ele><time>2026-05-03T14:38:01.483Z</time></trkpt><trkpt lat="39.9716067" lon="15.9350067"><ele>588.0</ele><time>2026-05-03T14:38:02.482Z</time></trkpt><trkpt lat="39.9713633" lon="15.9347183"><ele>588.0</ele><time>2026-05-03T14:38:03.482Z</time></trkpt><trkpt lat="39.971125" lon="15.9344217"><ele>588.0</ele><time>2026-05-03T14:38:04.481Z</time></trkpt><trkpt lat="39.9708917" lon="15.93413"><ele>581.5</ele><time>2026-05-03T14:38:05.484Z</time></trkpt><trkpt lat="39.97066" lon="15.9338433"><ele>575.0</ele><time>2026-05-03T14:38:06.482Z</time></trkpt><trkpt lat="39.9704267" lon="15.9335767"><ele>575.0</ele><time>2026-05-03T14:38:07.482Z</time></trkpt><trkpt lat="39.9701883" lon="15.9333367"><ele>575.0</ele><time>2026-05-03T14:38:08.483Z</time></trkpt><trkpt lat="39.9699367" lon="15.933125"><ele>575.0</ele><time>2026-05-03T14:38:09.483Z</time></trkpt><trkpt lat="39.9696717" lon="15.9329417"><ele>575.0</ele><time>2026-05-03T14:38:10.481Z</time></trkpt><trkpt lat="39.9694" lon="15.9327817"><ele>574.0</ele><time>2026-05-03T14:38:11.483Z</time></trkpt><trkpt lat="39.9691083" lon="15.9326533"><ele>573.0</ele><time>2026-05-03T14:38:12.481Z</time></trkpt><trkpt lat="39.96882" lon="15.9325517"><ele>573.0</ele><time>2026-05-03T14:38:13.483Z</time></trkpt><trkpt lat="39.9685183" lon="15.9324883"><ele>573.0</ele><time>2026-05-03T14:38:14.483Z</time></trkpt><trkpt lat="39.96821" lon="15.9324567"><ele>570.0</ele><time>2026-05-03T14:38:15.482Z</time></trkpt><trkpt lat="39.9679" lon="15.932455"><ele>567.0</ele><time>2026-05-03T14:38:16.481Z</time></trkpt><trkpt lat="39.967585" lon="15.9324617"><ele>565.5</ele><time>2026-05-03T14:38:17.483Z</time></trkpt><trkpt lat="39.9672733" lon="15.9324767"><ele>564.0</ele><time>2026-05-03T14:38:18.482Z</time></trkpt><trkpt lat="39.9669583" lon="15.932495"><ele>561.0</ele><time>2026-05-03T14:38:19.482Z</time></trkpt><trkpt lat="39.966645" lon="15.9325133"><ele>558.0</ele><time>2026-05-03T14:38:20.487Z</time></trkpt><trkpt lat="39.966325" lon="15.9325383"><ele>558.0</ele><time>2026-05-03T14:38:21.482Z</time></trkpt><trkpt lat="39.9660167" lon="15.9325667"><ele>558.0</ele><time>2026-05-03T14:38:22.482Z</time></trkpt><trkpt lat="39.9656517" lon="15.9325383"><ele>558.0</ele><time>2026-05-03T14:38:23.483Z</time></trkpt><trkpt lat="39.9653117" lon="15.9325533"><ele>558.0</ele><time>2026-05-03T14:38:24.482Z</time></trkpt><trkpt lat="39.9650167" lon="15.9325633"><ele>556.5</ele><time>2026-05-03T14:38:25.482Z</time></trkpt><trkpt lat="39.9646767" lon="15.93258"><ele>555.0</ele><time>2026-05-03T14:38:26.484Z</time></trkpt><trkpt lat="39.9643417" lon="15.9325867"><ele>554.0</ele><time>2026-05-03T14:38:27.483Z</time></trkpt><trkpt lat="39.96401" lon="15.9326083"><ele>553.0</ele><time>2026-05-03T14:38:28.482Z</time></trkpt><trkpt lat="39.9636767" lon="15.9326433"><ele>549.5</ele><time>2026-05-03T14:38:29.481Z</time></trkpt><trkpt lat="39.963345" lon="15.9326917"><ele>546.0</ele><time>2026-05-03T14:38:30.481Z</time></trkpt><trkpt lat="39.9630167" lon="15.932755"><ele>546.0</ele><time>2026-05-03T14:38:31.483Z</time></trkpt><trkpt lat="39.9626883" lon="15.9328283"><ele>546.0</ele><time>2026-05-03T14:38:32.482Z</time></trkpt><trkpt lat="39.96236" lon="15.9328983"><ele>541.0</ele><time>2026-05-03T14:38:33.483Z</time></trkpt><trkpt lat="39.9620333" lon="15.9329717"><ele>536.0</ele><time>2026-05-03T14:38:34.482Z</time></trkpt><trkpt lat="39.9617033" lon="15.9330483"><ele>533.0</ele><time>2026-05-03T14:38:35.481Z</time></trkpt><trkpt lat="39.9613733" lon="15.9331267"><ele>530.0</ele><time>2026-05-03T14:38:36.482Z</time></trkpt><trkpt lat="39.961045" lon="15.93321"><ele>526.0</ele><time>2026-05-03T14:38:37.481Z</time></trkpt><trkpt lat="39.960715" lon="15.933305"><ele>522.0</ele><time>2026-05-03T14:38:38.482Z</time></trkpt><trkpt lat="39.9603867" lon="15.933415"><ele>515.0</ele><time>2026-05-03T14:38:39.482Z</time></trkpt><trkpt lat="39.9600583" lon="15.9335417"><ele>508.0</ele><time>2026-05-03T14:38:40.482Z</time></trkpt><trkpt lat="39.9597333" lon="15.933685"><ele>497.5</ele><time>2026-05-03T14:38:41.482Z</time></trkpt><trkpt lat="39.9594117" lon="15.9338433"><ele>487.0</ele><time>2026-05-03T14:38:42.482Z</time></trkpt><trkpt lat="39.9590917" lon="15.934015"><ele>475.5</ele><time>2026-05-03T14:38:43.482Z</time></trkpt><trkpt lat="39.958775" lon="15.9341933"><ele>464.0</ele><time>2026-05-03T14:38:44.483Z</time></trkpt><trkpt lat="39.9584567" lon="15.9343733"><ele>445.5</ele><time>2026-05-03T14:38:45.482Z</time></trkpt><trkpt lat="39.9581417" lon="15.934555"><ele>427.0</ele><time>2026-05-03T14:38:46.482Z</time></trkpt><trkpt lat="39.9578267" lon="15.9347333"><ele>423.0</ele><time>2026-05-03T14:38:47.481Z</time></trkpt><trkpt lat="39.9575133" lon="15.934915"><ele>419.0</ele><time>2026-05-03T14:38:48.481Z</time></trkpt><trkpt lat="39.9571983" lon="15.935095"><ele>415.5</ele><time>2026-05-03T14:38:49.483Z</time></trkpt><trkpt lat="39.9568833" lon="15.935275"><ele>412.0</ele><time>2026-05-03T14:38:50.483Z</time></trkpt><trkpt lat="39.9565717" lon="15.9354583"><ele>432.0</ele><time>2026-05-03T14:38:51.482Z</time></trkpt><trkpt lat="39.956265" lon="15.9356517"><ele>452.0</ele><time>2026-05-03T14:38:52.483Z</time></trkpt><trkpt lat="39.9559617" lon="15.9358517"><ele>483.5</ele><time>2026-05-03T14:38:53.482Z</time></trkpt><trkpt lat="39.9556633" lon="15.9360633"><ele>515.0</ele><time>2026-05-03T14:38:54.482Z</time></trkpt><trkpt lat="39.9553717" lon="15.9362883"><ele>515.0</ele><time>2026-05-03T14:38:55.482Z</time></trkpt><trkpt lat="39.955085" lon="15.93653"><ele>515.0</ele><time>2026-05-03T14:38:56.483Z</time></trkpt><trkpt lat="39.9548033" lon="15.9367833"><ele>521.0</ele><time>2026-05-03T14:38:57.482Z</time></trkpt><trkpt lat="39.9545233" lon="15.937045"><ele>527.0</ele><time>2026-05-03T14:38:58.481Z</time></trkpt><trkpt lat="39.9542433" lon="15.9373183"><ele>539.0</ele><time>2026-05-03T14:38:59.482Z</time></trkpt><trkpt lat="39.9539617" lon="15.9375933"><ele>551.0</ele><time>2026-05-03T14:39:00.481Z</time></trkpt><trkpt lat="39.9430183" lon="15.959065"><ele>519.0</ele><time>2026-05-03T14:39:58.484Z</time></trkpt><trkpt lat="39.94264" lon="15.959155"><ele>487.0</ele><time>2026-05-03T14:39:59.485Z</time></trkpt><trkpt lat="39.942285" lon="15.95914"><ele>469.0</ele><time>2026-05-03T14:40:00.483Z</time></trkpt><trkpt lat="39.9419267" lon="15.9591"><ele>451.0</ele><time>2026-05-03T14:40:01.481Z</time></trkpt><trkpt lat="39.9415783" lon="15.9590617"><ele>441.0</ele><time>2026-05-03T14:40:02.482Z</time></trkpt><trkpt lat="39.9412333" lon="15.9590283"><ele>431.0</ele><time>2026-05-03T14:40:03.481Z</time></trkpt><trkpt lat="39.9408883" lon="15.95902"><ele>413.0</ele><time>2026-05-03T14:40:04.482Z</time></trkpt><trkpt lat="39.9405517" lon="15.9590417"><ele>395.0</ele><time>2026-05-03T14:40:05.481Z</time></trkpt><trkpt lat="39.94022" lon="15.9590967"><ele>372.5</ele><time>2026-05-03T14:40:06.482Z</time></trkpt><trkpt lat="39.9398917" lon="15.9591833"><ele>350.0</ele><time>2026-05-03T14:40:07.481Z</time></trkpt><trkpt lat="39.939565" lon="15.95928"><ele>337.5</ele><time>2026-05-03T14:40:08.483Z</time></trkpt><trkpt lat="39.939235" lon="15.9593767"><ele>325.0</ele><time>2026-05-03T14:40:09.482Z</time></trkpt><trkpt lat="39.938905" lon="15.959465"><ele>321.0</ele><time>2026-05-03T14:40:10.483Z</time></trkpt><trkpt lat="39.9385767" lon="15.9595483"><ele>317.0</ele><time>2026-05-03T14:40:11.483Z</time></trkpt><trkpt lat="39.9382517" lon="15.9596367"><ele>331.0</ele><time>2026-05-03T14:40:12.483Z</time></trkpt><trkpt lat="39.9379233" lon="15.95973"><ele>345.0</ele><time>2026-05-03T14:40:13.481Z</time></trkpt><trkpt lat="39.937595" lon="15.9598283"><ele>359.5</ele><time>2026-05-03T14:40:14.482Z</time></trkpt><trkpt lat="39.937265" lon="15.959925"><ele>374.0</ele><time>2026-05-03T14:40:15.482Z</time></trkpt><trkpt lat="39.9369333" lon="15.9600217"><ele>385.0</ele><time>2026-05-03T14:40:16.482Z</time></trkpt><trkpt lat="39.9366" lon="15.9601133"><ele>396.0</ele><time>2026-05-03T14:40:17.482Z</time></trkpt><trkpt lat="39.9362667" lon="15.9601983"><ele>396.0</ele><time>2026-05-03T14:40:18.482Z</time></trkpt><trkpt lat="39.9359333" lon="15.9602833"><ele>396.0</ele><time>2026-05-03T14:40:19.482Z</time></trkpt><trkpt lat="39.9356033" lon="15.9603783"><ele>411.5</ele><time>2026-05-03T14:40:20.482Z</time></trkpt><trkpt lat="39.9352767" lon="15.9604867"><ele>427.0</ele><time>2026-05-03T14:40:21.481Z</time></trkpt><trkpt lat="39.934955" lon="15.9606083"><ele>441.5</ele><time>2026-05-03T14:40:22.483Z</time></trkpt><trkpt lat="39.9346383" lon="15.9607483"><ele>456.0</ele><time>2026-05-03T14:40:23.482Z</time></trkpt><trkpt lat="39.9343267" lon="15.96091"><ele>471.5</ele><time>2026-05-03T14:40:24.482Z</time></trkpt><trkpt lat="39.934025" lon="15.961095"><ele>487.0</ele><time>2026-05-03T14:40:25.484Z</time></trkpt><trkpt lat="39.9337317" lon="15.9613"><ele>487.0</ele><time>2026-05-03T14:40:26.485Z</time></trkpt><trkpt lat="39.9334433" lon="15.9615217"><ele>487.0</ele><time>2026-05-03T14:40:27.484Z</time></trkpt><trkpt lat="39.9331617" lon="15.9617583"><ele>494.0</ele><time>2026-05-03T14:40:28.484Z</time></trkpt><trkpt lat="39.9328867" lon="15.9620033"><ele>501.0</ele><time>2026-05-03T14:40:29.482Z</time></trkpt><trkpt lat="39.9326083" lon="15.9622467"><ele>501.0</ele><time>2026-05-03T14:40:30.483Z</time></trkpt><trkpt lat="39.93233" lon="15.9624867"><ele>501.0</ele><time>2026-05-03T14:40:31.481Z</time></trkpt><trkpt lat="39.93205" lon="15.9627233"><ele>501.0</ele><time>2026-05-03T14:40:32.482Z</time></trkpt><trkpt lat="39.93177" lon="15.96295"><ele>501.0</ele><time>2026-05-03T14:40:33.481Z</time></trkpt><trkpt lat="39.9314833" lon="15.9631667"><ele>505.5</ele><time>2026-05-03T14:40:34.482Z</time></trkpt><trkpt lat="39.9311917" lon="15.9633717"><ele>510.0</ele><time>2026-05-03T14:40:35.482Z</time></trkpt><trkpt lat="39.9308983" lon="15.9635667"><ele>509.0</ele><time>2026-05-03T14:40:36.482Z</time></trkpt><trkpt lat="39.9306017" lon="15.9637533"><ele>508.0</ele><time>2026-05-03T14:40:37.482Z</time></trkpt><trkpt lat="39.9302983" lon="15.9639283"><ele>511.5</ele><time>2026-05-03T14:40:38.482Z</time></trkpt><trkpt lat="39.9299917" lon="15.9641017"><ele>515.0</ele><time>2026-05-03T14:40:39.482Z</time></trkpt><trkpt lat="39.9246083" lon="15.9662633"><ele>525.5</ele><time>2026-05-03T14:40:55.483Z</time></trkpt><trkpt lat="39.9242817" lon="15.96642"><ele>536.0</ele><time>2026-05-03T14:40:56.483Z</time></trkpt><trkpt lat="39.92395" lon="15.9665767"><ele>536.0</ele><time>2026-05-03T14:40:57.482Z</time></trkpt><trkpt lat="39.9236183" lon="15.9666933"><ele>536.0</ele><time>2026-05-03T14:40:58.483Z</time></trkpt><trkpt lat="39.923275" lon="15.9668117"><ele>543.0</ele><time>2026-05-03T14:40:59.483Z</time></trkpt><trkpt lat="39.922965" lon="15.96693"><ele>550.0</ele><time>2026-05-03T14:41:00.484Z</time></trkpt><trkpt lat="39.9226517" lon="15.9670433"><ele>546.5</ele><time>2026-05-03T14:41:01.482Z</time></trkpt><trkpt lat="39.9223333" lon="15.9671567"><ele>543.0</ele><time>2026-05-03T14:41:02.483Z</time></trkpt><trkpt lat="39.92201" lon="15.9672617"><ele>542.5</ele><time>2026-05-03T14:41:03.481Z</time></trkpt><trkpt lat="39.9216817" lon="15.9673483"><ele>542.0</ele><time>2026-05-03T14:41:04.482Z</time></trkpt><trkpt lat="39.9213483" lon="15.9674167"><ele>542.0</ele><time>2026-05-03T14:41:05.482Z</time></trkpt><trkpt lat="39.921015" lon="15.9674717"><ele>542.0</ele><time>2026-05-03T14:41:06.482Z</time></trkpt><trkpt lat="39.920675" lon="15.9675033"><ele>543.5</ele><time>2026-05-03T14:41:07.481Z</time></trkpt><trkpt lat="39.9203367" lon="15.9675167"><ele>545.0</ele><time>2026-05-03T14:41:08.482Z</time></trkpt><trkpt lat="39.9199983" lon="15.9675083"><ele>547.5</ele><time>2026-05-03T14:41:09.483Z</time></trkpt><trkpt lat="39.9196583" lon="15.96748"><ele>550.0</ele><time>2026-05-03T14:41:10.483Z</time></trkpt><trkpt lat="39.9193233" lon="15.96743"><ele>553.0</ele><time>2026-05-03T14:41:11.482Z</time></trkpt><trkpt lat="39.9189933" lon="15.967355"><ele>556.0</ele><time>2026-05-03T14:41:12.481Z</time></trkpt><trkpt lat="39.9186633" lon="15.96726"><ele>560.5</ele><time>2026-05-03T14:41:13.482Z</time></trkpt><trkpt lat="39.9183367" lon="15.9671417"><ele>565.0</ele><time>2026-05-03T14:41:14.482Z</time></trkpt><trkpt lat="39.9180133" lon="15.9670083"><ele>565.0</ele><time>2026-05-03T14:41:15.481Z</time></trkpt><trkpt lat="39.9176967" lon="15.9668617"><ele>565.0</ele><time>2026-05-03T14:41:16.482Z</time></trkpt><trkpt lat="39.917385" lon="15.9666983"><ele>564.0</ele><time>2026-05-03T14:41:17.481Z</time></trkpt><trkpt lat="39.9170783" lon="15.9665233"><ele>563.0</ele><time>2026-05-03T14:41:18.482Z</time></trkpt><trkpt lat="39.9167733" lon="15.9663367"><ele>568.0</ele><time>2026-05-03T14:41:19.482Z</time></trkpt><trkpt lat="39.91647" lon="15.9661483"><ele>573.0</ele><time>2026-05-03T14:41:20.483Z</time></trkpt><trkpt lat="39.916165" lon="15.9659567"><ele>571.5</ele><time>2026-05-03T14:41:21.482Z</time></trkpt><trkpt lat="39.9158617" lon="15.9657617"><ele>570.0</ele><time>2026-05-03T14:41:22.482Z</time></trkpt><trkpt lat="39.9155567" lon="15.9655717"><ele>570.0</ele><time>2026-05-03T14:41:23.485Z</time></trkpt><trkpt lat="39.9152517" lon="15.96538"><ele>570.0</ele><time>2026-05-03T14:41:24.482Z</time></trkpt><trkpt lat="39.914945" lon="15.9651933"><ele>571.5</ele><time>2026-05-03T14:41:25.482Z</time></trkpt><trkpt lat="39.9146367" lon="15.965005"><ele>573.0</ele><time>2026-05-03T14:41:26.483Z</time></trkpt><trkpt lat="39.91433" lon="15.9648183"><ele>574.5</ele><time>2026-05-03T14:41:27.482Z</time></trkpt><trkpt lat="39.9140217" lon="15.9646267"><ele>576.0</ele><time>2026-05-03T14:41:28.482Z</time></trkpt><trkpt lat="39.9137117" lon="15.964435"><ele>580.5</ele><time>2026-05-03T14:41:29.482Z</time></trkpt><trkpt lat="39.9134033" lon="15.9642433"><ele>585.0</ele><time>2026-05-03T14:41:30.482Z</time></trkpt><trkpt lat="39.9130967" lon="15.9640533"><ele>586.0</ele><time>2026-05-03T14:41:31.483Z</time></trkpt><trkpt lat="39.91279" lon="15.9638633"><ele>587.0</ele><time>2026-05-03T14:41:32.483Z</time></trkpt><trkpt lat="39.9124867" lon="15.9636733"><ele>586.5</ele><time>2026-05-03T14:41:33.482Z</time></trkpt><trkpt lat="39.9121883" lon="15.9634783"><ele>586.0</ele><time>2026-05-03T14:41:34.482Z</time></trkpt><trkpt lat="39.9118917" lon="15.9632783"><ele>590.5</ele><time>2026-05-03T14:41:35.482Z</time></trkpt><trkpt lat="39.9115933" lon="15.9630783"><ele>595.0</ele><time>2026-05-03T14:41:36.482Z</time></trkpt><trkpt lat="39.911295" lon="15.9628917"><ele>595.0</ele><time>2026-05-03T14:41:37.482Z</time></trkpt><trkpt lat="39.910995" lon="15.9627233"><ele>595.0</ele><time>2026-05-03T14:41:38.483Z</time></trkpt><trkpt lat="39.91069" lon="15.9625683"><ele>595.0</ele><time>2026-05-03T14:41:39.482Z</time></trkpt><trkpt lat="39.9103817" lon="15.9624283"><ele>595.0</ele><time>2026-05-03T14:41:40.482Z</time></trkpt><trkpt lat="39.910065" lon="15.9623133"><ele>597.0</ele><time>2026-05-03T14:41:41.482Z</time></trkpt><trkpt lat="39.9097433" lon="15.9622233"><ele>599.0</ele><time>2026-05-03T14:41:42.482Z</time></trkpt><trkpt lat="39.909415" lon="15.96216"><ele>603.5</ele><time>2026-05-03T14:41:43.483Z</time></trkpt><trkpt lat="39.9090833" lon="15.9621217"><ele>608.0</ele><time>2026-05-03T14:41:44.482Z</time></trkpt><trkpt lat="39.9087517" lon="15.9621067"><ele>608.0</ele><time>2026-05-03T14:41:45.482Z</time></trkpt><trkpt lat="39.9084167" lon="15.9621117"><ele>608.0</ele><time>2026-05-03T14:41:46.481Z</time></trkpt><trkpt lat="39.9080833" lon="15.9621383"><ele>610.5</ele><time>2026-05-03T14:41:47.482Z</time></trkpt><trkpt lat="39.9077533" lon="15.9621833"><ele>613.0</ele><time>2026-05-03T14:41:48.482Z</time></trkpt><trkpt lat="39.907425" lon="15.9622483"><ele>613.0</ele><time>2026-05-03T14:41:49.482Z</time></trkpt><trkpt lat="39.9071033" lon="15.9623417"><ele>613.0</ele><time>2026-05-03T14:41:50.483Z</time></trkpt><trkpt lat="39.9067883" lon="15.9624617"><ele>615.0</ele><time>2026-05-03T14:41:51.482Z</time></trkpt><trkpt lat="39.90648" lon="15.9626067"><ele>617.0</ele><time>2026-05-03T14:41:52.483Z</time></trkpt><trkpt lat="39.9061833" lon="15.9627817"><ele>617.5</ele><time>2026-05-03T14:41:53.484Z</time></trkpt><trkpt lat="39.9058967" lon="15.962985"><ele>618.0</ele><time>2026-05-03T14:41:54.483Z</time></trkpt><trkpt lat="39.9056167" lon="15.9632017"><ele>623.5</ele><time>2026-05-03T14:41:55.482Z</time></trkpt><trkpt lat="39.9053433" lon="15.9634433"><ele>629.0</ele><time>2026-05-03T14:41:56.482Z</time></trkpt><trkpt lat="39.905085" lon="15.963705"><ele>630.5</ele><time>2026-05-03T14:41:57.48Z</time></trkpt><trkpt lat="39.9048367" lon="15.96395"><ele>632.0</ele><time>2026-05-03T14:41:58.483Z</time></trkpt><trkpt lat="39.904615" lon="15.9642533"><ele>632.0</ele><time>2026-05-03T14:41:59.481Z</time></trkpt><trkpt lat="39.9044" lon="15.9645767"><ele>632.0</ele><time>2026-05-03T14:42:00.482Z</time></trkpt><trkpt lat="39.9042" lon="15.9649233"><ele>644.5</ele><time>2026-05-03T14:42:01.483Z</time></trkpt><trkpt lat="39.9039933" lon="15.9652667"><ele>657.0</ele><time>2026-05-03T14:42:02.482Z</time></trkpt><trkpt lat="39.90379" lon="15.965605"><ele>670.5</ele><time>2026-05-03T14:42:03.483Z</time></trkpt><trkpt lat="39.9035883" lon="15.9659433"><ele>684.0</ele><time>2026-05-03T14:42:04.483Z</time></trkpt><trkpt lat="39.9033883" lon="15.9662917"><ele>672.0</ele><time>2026-05-03T14:42:05.483Z</time></trkpt><trkpt lat="39.9031917" lon="15.9666667"><ele>660.0</ele><time>2026-05-03T14:42:06.482Z</time></trkpt><trkpt lat="39.900385" lon="15.97393"><ele>659.5</ele><time>2026-05-03T14:42:25.486Z</time></trkpt><trkpt lat="39.90022" lon="15.9743283"><ele>659.0</ele><time>2026-05-03T14:42:26.484Z</time></trkpt><trkpt lat="39.9000583" lon="15.9747117"><ele>659.0</ele><time>2026-05-03T14:42:27.483Z</time></trkpt><trkpt lat="39.8998817" lon="15.9750933"><ele>659.0</ele><time>2026-05-03T14:42:28.482Z</time></trkpt><trkpt lat="39.8996983" lon="15.97545"><ele>659.0</ele><time>2026-05-03T14:42:29.482Z</time></trkpt><trkpt lat="39.8994867" lon="15.9758167"><ele>659.0</ele><time>2026-05-03T14:42:30.482Z</time></trkpt><trkpt lat="39.89927" lon="15.9761617"><ele>661.5</ele><time>2026-05-03T14:42:31.482Z</time></trkpt><trkpt lat="39.899045" lon="15.9764967"><ele>664.0</ele><time>2026-05-03T14:42:32.483Z</time></trkpt><trkpt lat="39.8988133" lon="15.9768117"><ele>664.0</ele><time>2026-05-03T14:42:33.482Z</time></trkpt><trkpt lat="39.89858" lon="15.9771183"><ele>664.0</ele><time>2026-05-03T14:42:34.482Z</time></trkpt><trkpt lat="39.8983417" lon="15.977415"><ele>682.0</ele><time>2026-05-03T14:42:35.483Z</time></trkpt><trkpt lat="39.8981017" lon="15.9777117"><ele>700.0</ele><time>2026-05-03T14:42:36.481Z</time></trkpt><trkpt lat="39.89786" lon="15.97801"><ele>738.0</ele><time>2026-05-03T14:42:37.481Z</time></trkpt><trkpt lat="39.87991" lon="15.9870567"><ele>738.0</ele><time>2026-05-03T14:43:36.482Z</time></trkpt><trkpt lat="39.8796567" lon="15.98745"><ele>738.0</ele><time>2026-05-03T14:43:37.481Z</time></trkpt><trkpt lat="39.8794533" lon="15.9878083"><ele>746.5</ele><time>2026-05-03T14:43:38.482Z</time></trkpt><trkpt lat="39.8792567" lon="15.9881667"><ele>755.0</ele><time>2026-05-03T14:43:39.482Z</time></trkpt><trkpt lat="39.8790633" lon="15.9885233"><ele>762.5</ele><time>2026-05-03T14:43:40.482Z</time></trkpt><trkpt lat="39.8788717" lon="15.9888767"><ele>770.0</ele><time>2026-05-03T14:43:41.482Z</time></trkpt><trkpt lat="39.8786833" lon="15.9892217"><ele>770.5</ele><time>2026-05-03T14:43:42.481Z</time></trkpt><trkpt lat="39.878495" lon="15.9895667"><ele>771.0</ele><time>2026-05-03T14:43:43.482Z</time></trkpt><trkpt lat="39.8783067" lon="15.9899083"><ele>776.0</ele><time>2026-05-03T14:43:44.482Z</time></trkpt><trkpt lat="39.87812" lon="15.9902517"><ele>781.0</ele><time>2026-05-03T14:43:45.481Z</time></trkpt><trkpt lat="39.877935" lon="15.9905967"><ele>778.5</ele><time>2026-05-03T14:43:46.481Z</time></trkpt><trkpt lat="39.8777567" lon="15.9909483"><ele>776.0</ele><time>2026-05-03T14:43:47.483Z</time></trkpt><trkpt lat="39.87759" lon="15.9913117"><ele>776.0</ele><time>2026-05-03T14:43:48.483Z</time></trkpt><trkpt lat="39.8774367" lon="15.99169"><ele>776.0</ele><time>2026-05-03T14:43:49.482Z</time></trkpt><trkpt lat="39.8773017" lon="15.9920817"><ele>776.0</ele><time>2026-05-03T14:43:50.483Z</time></trkpt><trkpt lat="39.87719" lon="15.9924833"><ele>776.0</ele><time>2026-05-03T14:43:51.482Z</time></trkpt><trkpt lat="39.8770967" lon="15.9928983"><ele>778.5</ele><time>2026-05-03T14:43:52.482Z</time></trkpt><trkpt lat="39.8770283" lon="15.9933233"><ele>781.0</ele><time>2026-05-03T14:43:53.482Z</time></trkpt><trkpt lat="39.8769817" lon="15.9937517"><ele>782.5</ele><time>2026-05-03T14:43:54.483Z</time></trkpt><trkpt lat="39.876955" lon="15.9941883"><ele>784.0</ele><time>2026-05-03T14:43:55.481Z</time></trkpt><trkpt lat="39.87695" lon="15.9946317"><ele>783.0</ele><time>2026-05-03T14:43:56.482Z</time></trkpt><trkpt lat="39.8769667" lon="15.9950817"><ele>782.0</ele><time>2026-05-03T14:43:57.482Z</time></trkpt><trkpt lat="39.877005" lon="15.9955267"><ele>780.0</ele><time>2026-05-03T14:43:58.481Z</time></trkpt><trkpt lat="39.87706" lon="15.9959767"><ele>778.0</ele><time>2026-05-03T14:43:59.481Z</time></trkpt><trkpt lat="39.8771217" lon="15.9964233"><ele>779.5</ele><time>2026-05-03T14:44:00.483Z</time></trkpt><trkpt lat="39.87719" lon="15.9968667"><ele>781.0</ele><time>2026-05-03T14:44:01.481Z</time></trkpt><trkpt lat="39.877265" lon="15.9973133"><ele>783.0</ele><time>2026-05-03T14:44:02.483Z</time></trkpt><trkpt lat="39.877345" lon="15.9977583"><ele>785.0</ele><time>2026-05-03T14:44:03.482Z</time></trkpt><trkpt lat="39.877425" lon="15.998205"><ele>783.5</ele><time>2026-05-03T14:44:04.483Z</time></trkpt><trkpt lat="39.877505" lon="15.99865"><ele>782.0</ele><time>2026-05-03T14:44:05.482Z</time></trkpt><trkpt lat="39.87758" lon="15.9990933"><ele>789.0</ele><time>2026-05-03T14:44:06.482Z</time></trkpt><trkpt lat="39.8776567" lon="15.999535"><ele>796.0</ele><time>2026-05-03T14:44:07.482Z</time></trkpt><trkpt lat="39.877735" lon="15.999975"><ele>796.0</ele><time>2026-05-03T14:44:08.483Z</time></trkpt><trkpt lat="39.8778133" lon="16.0004133"><ele>796.0</ele><time>2026-05-03T14:44:09.481Z</time></trkpt><trkpt lat="39.8778917" lon="16.0008533"><ele>796.0</ele><time>2026-05-03T14:44:10.482Z</time></trkpt><trkpt lat="39.8779667" lon="16.0012917"><ele>796.0</ele><time>2026-05-03T14:44:11.482Z</time></trkpt><trkpt lat="39.8780433" lon="16.0017267"><ele>796.0</ele><time>2026-05-03T14:44:12.481Z</time></trkpt><trkpt lat="39.8781167" lon="16.0021583"><ele>796.0</ele><time>2026-05-03T14:44:13.481Z</time></trkpt><trkpt lat="39.8781933" lon="16.00259"><ele>796.0</ele><time>2026-05-03T14:44:14.483Z</time></trkpt><trkpt lat="39.8782683" lon="16.00302"><ele>796.0</ele><time>2026-05-03T14:44:15.482Z</time></trkpt><trkpt lat="39.878345" lon="16.0034517"><ele>797.0</ele><time>2026-05-03T14:44:16.481Z</time></trkpt><trkpt lat="39.8784233" lon="16.0038817"><ele>798.0</ele><time>2026-05-03T14:44:17.482Z</time></trkpt><trkpt lat="39.878505" lon="16.0043117"><ele>808.5</ele><time>2026-05-03T14:44:18.482Z</time></trkpt><trkpt lat="39.8785868" lon="16.0047387"><ele>819.0</ele><time>2026-05-03T14:44:19.481Z</time></trkpt><trkpt lat="39.8786685" lon="16.0051628"><ele>821.5</ele><time>2026-05-03T14:44:20.482Z</time></trkpt><trkpt lat="39.8787552" lon="16.0055842"><ele>824.0</ele><time>2026-05-03T14:44:21.482Z</time></trkpt><trkpt lat="39.8788505" lon="16.006001"><ele>824.0</ele><time>2026-05-03T14:44:22.482Z</time></trkpt><trkpt lat="39.8789643" lon="16.0064098"><ele>824.0</ele><time>2026-05-03T14:44:23.482Z</time></trkpt><trkpt lat="39.8790956" lon="16.0068078"><ele>823.5</ele><time>2026-05-03T14:44:24.481Z</time></trkpt><trkpt lat="39.8792411" lon="16.007196"><ele>823.0</ele><time>2026-05-03T14:44:25.482Z</time></trkpt><trkpt lat="39.8794027" lon="16.0075768"><ele>829.5</ele><time>2026-05-03T14:44:26.481Z</time></trkpt><trkpt lat="39.8795786" lon="16.0079483"><ele>836.0</ele><time>2026-05-03T14:44:27.481Z</time></trkpt><trkpt lat="39.8797698" lon="16.0083043"><ele>836.5</ele><time>2026-05-03T14:44:28.482Z</time></trkpt><trkpt lat="39.8799747" lon="16.0086475"><ele>837.0</ele><time>2026-05-03T14:44:29.482Z</time></trkpt><trkpt lat="39.8801906" lon="16.0089767"><ele>833.5</ele><time>2026-05-03T14:44:30.482Z</time></trkpt><trkpt lat="39.880419" lon="16.0092906"><ele>830.0</ele><time>2026-05-03T14:44:31.483Z</time></trkpt><trkpt lat="39.8806562" lon="16.0095883"><ele>830.0</ele><time>2026-05-03T14:44:32.482Z</time></trkpt><trkpt lat="39.8809" lon="16.0098745"><ele>830.0</ele><time>2026-05-03T14:44:33.483Z</time></trkpt><trkpt lat="39.8811489" lon="16.0101489"><ele>831.5</ele><time>2026-05-03T14:44:34.482Z</time></trkpt><trkpt lat="39.8814002" lon="16.0104139"><ele>833.0</ele><time>2026-05-03T14:44:35.482Z</time></trkpt><trkpt lat="39.8816502" lon="16.010678"><ele>836.0</ele><time>2026-05-03T14:44:36.483Z</time></trkpt><trkpt lat="39.8818926" lon="16.0109445"><ele>839.0</ele><time>2026-05-03T14:44:37.483Z</time></trkpt><trkpt lat="39.8821304" lon="16.0112156"><ele>839.0</ele><time>2026-05-03T14:44:38.482Z</time></trkpt><trkpt lat="39.8823606" lon="16.0114949"><ele>839.0</ele><time>2026-05-03T14:44:39.483Z</time></trkpt><trkpt lat="39.8825845" lon="16.011782"><ele>840.5</ele><time>2026-05-03T14:44:40.482Z</time></trkpt><trkpt lat="39.8827978" lon="16.0120847"><ele>842.0</ele><time>2026-05-03T14:44:41.482Z</time></trkpt><trkpt lat="39.8830004" lon="16.0123956"><ele>841.5</ele><time>2026-05-03T14:44:42.481Z</time></trkpt><trkpt lat="39.8831891" lon="16.0127236"><ele>841.0</ele><time>2026-05-03T14:44:43.482Z</time></trkpt><trkpt lat="39.8833644" lon="16.0130618"><ele>851.5</ele><time>2026-05-03T14:44:44.482Z</time></trkpt><trkpt lat="39.8835246" lon="16.0134111"><ele>862.0</ele><time>2026-05-03T14:44:45.482Z</time></trkpt><trkpt lat="39.8836713" lon="16.0137699"><ele>862.0</ele><time>2026-05-03T14:44:46.482Z</time></trkpt><trkpt lat="39.883804" lon="16.0141391"><ele>862.0</ele><time>2026-05-03T14:44:47.481Z</time></trkpt><trkpt lat="39.8839227" lon="16.0145182"><ele>863.0</ele><time>2026-05-03T14:44:48.482Z</time></trkpt><trkpt lat="39.8840287" lon="16.0149077"><ele>864.0</ele><time>2026-05-03T14:44:49.483Z</time></trkpt><trkpt lat="39.8841193" lon="16.0153073"><ele>862.0</ele><time>2026-05-03T14:44:50.482Z</time></trkpt><trkpt lat="39.8842007" lon="16.0157121"><ele>860.0</ele><time>2026-05-03T14:44:51.482Z</time></trkpt><trkpt lat="39.88427" lon="16.01612"><ele>878.5</ele><time>2026-05-03T14:44:52.482Z</time></trkpt><trkpt lat="39.8843433" lon="16.0165317"><ele>897.0</ele><time>2026-05-03T14:44:53.481Z</time></trkpt><trkpt lat="39.8844117" lon="16.0169483"><ele>897.0</ele><time>2026-05-03T14:44:54.482Z</time></trkpt><trkpt lat="39.8844817" lon="16.01737"><ele>897.0</ele><time>2026-05-03T14:44:55.482Z</time></trkpt><trkpt lat="39.8845533" lon="16.0177967"><ele>892.5</ele><time>2026-05-03T14:44:56.483Z</time></trkpt><trkpt lat="39.884625" lon="16.018225"><ele>888.0</ele><time>2026-05-03T14:44:57.482Z</time></trkpt><trkpt lat="39.8846983" lon="16.0186533"><ele>884.5</ele><time>2026-05-03T14:44:58.483Z</time></trkpt><trkpt lat="39.884775" lon="16.0190833"><ele>881.0</ele><time>2026-05-03T14:44:59.482Z</time></trkpt><trkpt lat="39.8848617" lon="16.0195067"><ele>877.5</ele><time>2026-05-03T14:45:00.481Z</time></trkpt><trkpt lat="39.884955" lon="16.0199233"><ele>874.0</ele><time>2026-05-03T14:45:01.483Z</time></trkpt><trkpt lat="39.885055" lon="16.0203383"><ele>876.5</ele><time>2026-05-03T14:45:02.483Z</time></trkpt><trkpt lat="39.885165" lon="16.02075"><ele>879.0</ele><time>2026-05-03T14:45:03.481Z</time></trkpt><trkpt lat="39.8852817" lon="16.02116"><ele>879.0</ele><time>2026-05-03T14:45:04.482Z</time></trkpt><trkpt lat="39.8853967" lon="16.0215683"><ele>879.0</ele><time>2026-05-03T14:45:05.481Z</time></trkpt><trkpt lat="39.8855117" lon="16.0219783"><ele>878.0</ele><time>2026-05-03T14:45:06.482Z</time></trkpt><trkpt lat="39.885625" lon="16.02239"><ele>877.0</ele><time>2026-05-03T14:45:07.482Z</time></trkpt><trkpt lat="39.8857383" lon="16.0227983"><ele>880.0</ele><time>2026-05-03T14:45:08.483Z</time></trkpt><trkpt lat="39.8858483" lon="16.02321"><ele>883.0</ele><time>2026-05-03T14:45:09.482Z</time></trkpt><trkpt lat="39.8859617" lon="16.0236183"><ele>890.5</ele><time>2026-05-03T14:45:10.482Z</time></trkpt><trkpt lat="39.8860817" lon="16.02402"><ele>898.0</ele><time>2026-05-03T14:45:11.482Z</time></trkpt><trkpt lat="39.88621" lon="16.0244167"><ele>898.0</ele><time>2026-05-03T14:45:12.481Z</time></trkpt><trkpt lat="39.8863433" lon="16.0248083"><ele>898.0</ele><time>2026-05-03T14:45:13.482Z</time></trkpt><trkpt lat="39.8864883" lon="16.02519"><ele>898.0</ele><time>2026-05-03T14:45:14.483Z</time></trkpt><trkpt lat="39.8866433" lon="16.025565"><ele>898.0</ele><time>2026-05-03T14:45:15.482Z</time></trkpt><trkpt lat="39.8868083" lon="16.0259383"><ele>901.5</ele><time>2026-05-03T14:45:16.481Z</time></trkpt><trkpt lat="39.8869783" lon="16.0263067"><ele>905.0</ele><time>2026-05-03T14:45:17.481Z</time></trkpt><trkpt lat="39.88715" lon="16.0266783"><ele>905.0</ele><time>2026-05-03T14:45:18.482Z</time></trkpt><trkpt lat="39.88732" lon="16.0270517"><ele>905.0</ele><time>2026-05-03T14:45:19.483Z</time></trkpt><trkpt lat="39.8874833" lon="16.0274283"><ele>908.0</ele><time>2026-05-03T14:45:20.483Z</time></trkpt><trkpt lat="39.8876417" lon="16.02781"><ele>911.0</ele><time>2026-05-03T14:45:21.482Z</time></trkpt><trkpt lat="39.8877917" lon="16.028195"><ele>913.5</ele><time>2026-05-03T14:45:22.482Z</time></trkpt><trkpt lat="39.8879317" lon="16.02859"><ele>916.0</ele><time>2026-05-03T14:45:23.481Z</time></trkpt><trkpt lat="39.8880617" lon="16.0289967"><ele>921.0</ele><time>2026-05-03T14:45:24.481Z</time></trkpt><trkpt lat="39.8881817" lon="16.0294117"><ele>926.0</ele><time>2026-05-03T14:45:25.482Z</time></trkpt><trkpt lat="39.8882867" lon="16.029835"><ele>927.5</ele><time>2026-05-03T14:45:26.482Z</time></trkpt><trkpt lat="39.8883783" lon="16.0302683"><ele>929.0</ele><time>2026-05-03T14:45:27.482Z</time></trkpt><trkpt lat="39.888455" lon="16.0307017"><ele>933.5</ele><time>2026-05-03T14:45:28.482Z</time></trkpt><trkpt lat="39.8885183" lon="16.0311367"><ele>938.0</ele><time>2026-05-03T14:45:29.481Z</time></trkpt><trkpt lat="39.8885717" lon="16.0315717"><ele>939.0</ele><time>2026-05-03T14:45:30.482Z</time></trkpt><trkpt lat="39.8886133" lon="16.032005"><ele>940.0</ele><time>2026-05-03T14:45:31.481Z</time></trkpt><trkpt lat="39.8886517" lon="16.0324417"><ele>942.5</ele><time>2026-05-03T14:45:32.482Z</time></trkpt><trkpt lat="39.8886867" lon="16.0328767"><ele>945.0</ele><time>2026-05-03T14:45:33.481Z</time></trkpt><trkpt lat="39.888725" lon="16.0333183"><ele>925.0</ele><time>2026-05-03T14:45:34.483Z</time></trkpt><trkpt lat="39.88919" lon="16.0391983"><ele>925.0</ele><time>2026-05-03T14:45:47.483Z</time></trkpt><trkpt lat="39.8892067" lon="16.0396533"><ele>925.0</ele><time>2026-05-03T14:45:48.482Z</time></trkpt><trkpt lat="39.8892283" lon="16.0400933"><ele>924.5</ele><time>2026-05-03T14:45:49.481Z</time></trkpt><trkpt lat="39.8892517" lon="16.0405233"><ele>924.0</ele><time>2026-05-03T14:45:50.483Z</time></trkpt><trkpt lat="39.889265" lon="16.0409483"><ele>937.5</ele><time>2026-05-03T14:45:51.482Z</time></trkpt><trkpt lat="39.8892733" lon="16.04137"><ele>951.0</ele><time>2026-05-03T14:45:52.482Z</time></trkpt><trkpt lat="39.8892767" lon="16.04178"><ele>957.0</ele><time>2026-05-03T14:45:53.481Z</time></trkpt><trkpt lat="39.8851417" lon="16.0522517"><ele>952.0</ele><time>2026-05-03T14:46:20.483Z</time></trkpt><trkpt lat="39.8848633" lon="16.05255"><ele>947.0</ele><time>2026-05-03T14:46:21.482Z</time></trkpt><trkpt lat="39.8845967" lon="16.0528567"><ele>947.0</ele><time>2026-05-03T14:46:22.482Z</time></trkpt><trkpt lat="39.8843367" lon="16.0531633"><ele>947.0</ele><time>2026-05-03T14:46:23.481Z</time></trkpt><trkpt lat="39.8840767" lon="16.053465"><ele>946.0</ele><time>2026-05-03T14:46:24.482Z</time></trkpt><trkpt lat="39.883815" lon="16.053765"><ele>945.0</ele><time>2026-05-03T14:46:25.482Z</time></trkpt><trkpt lat="39.8835567" lon="16.0540567"><ele>946.0</ele><time>2026-05-03T14:46:26.482Z</time></trkpt><trkpt lat="39.8832967" lon="16.0543483"><ele>947.0</ele><time>2026-05-03T14:46:27.483Z</time></trkpt><trkpt lat="39.8830383" lon="16.05464"><ele>947.0</ele><time>2026-05-03T14:46:28.481Z</time></trkpt><trkpt lat="39.882785" lon="16.05493"><ele>947.0</ele><time>2026-05-03T14:46:29.482Z</time></trkpt><trkpt lat="39.88253" lon="16.0552267"><ele>948.5</ele><time>2026-05-03T14:46:30.482Z</time></trkpt><trkpt lat="39.8822783" lon="16.055525"><ele>950.0</ele><time>2026-05-03T14:46:31.481Z</time></trkpt><trkpt lat="39.882025" lon="16.0558217"><ele>951.0</ele><time>2026-05-03T14:46:32.482Z</time></trkpt><trkpt lat="39.8817683" lon="16.0561183"><ele>952.0</ele><time>2026-05-03T14:46:33.481Z</time></trkpt><trkpt lat="39.88151" lon="16.0564133"><ele>955.5</ele><time>2026-05-03T14:46:34.482Z</time></trkpt><trkpt lat="39.8812517" lon="16.05671"><ele>959.0</ele><time>2026-05-03T14:46:35.482Z</time></trkpt><trkpt lat="39.8809917" lon="16.0570083"><ele>960.0</ele><time>2026-05-03T14:46:36.482Z</time></trkpt><trkpt lat="39.8807317" lon="16.0573083"><ele>961.0</ele><time>2026-05-03T14:46:37.48Z</time></trkpt><trkpt lat="39.8804733" lon="16.057605"><ele>962.5</ele><time>2026-05-03T14:46:38.483Z</time></trkpt><trkpt lat="39.8802167" lon="16.057905"><ele>964.0</ele><time>2026-05-03T14:46:39.483Z</time></trkpt><trkpt lat="39.8799633" lon="16.0582117"><ele>965.5</ele><time>2026-05-03T14:46:40.481Z</time></trkpt><trkpt lat="39.8797167" lon="16.0585283"><ele>967.0</ele><time>2026-05-03T14:46:41.483Z</time></trkpt><trkpt lat="39.87948" lon="16.0588517"><ele>969.0</ele><time>2026-05-03T14:46:42.482Z</time></trkpt><trkpt lat="39.8792517" lon="16.0591817"><ele>971.0</ele><time>2026-05-03T14:46:43.482Z</time></trkpt><trkpt lat="39.8790333" lon="16.0595217"><ele>971.0</ele><time>2026-05-03T14:46:44.483Z</time></trkpt><trkpt lat="39.8788267" lon="16.0598683"><ele>971.0</ele><time>2026-05-03T14:46:45.483Z</time></trkpt><trkpt lat="39.8786283" lon="16.06023"><ele>973.0</ele><time>2026-05-03T14:46:46.482Z</time></trkpt><trkpt lat="39.8784433" lon="16.0606033"><ele>975.0</ele><time>2026-05-03T14:46:47.483Z</time></trkpt><trkpt lat="39.8782683" lon="16.0609883"><ele>976.0</ele><time>2026-05-03T14:46:48.481Z</time></trkpt><trkpt lat="39.8781067" lon="16.0613817"><ele>977.0</ele><time>2026-05-03T14:46:49.482Z</time></trkpt><trkpt lat="39.8779567" lon="16.0617833"><ele>978.0</ele><time>2026-05-03T14:46:50.483Z</time></trkpt><trkpt lat="39.87782" lon="16.06219"><ele>979.0</ele><time>2026-05-03T14:46:51.482Z</time></trkpt><trkpt lat="39.87769" lon="16.0626017"><ele>979.0</ele><time>2026-05-03T14:46:52.481Z</time></trkpt><trkpt lat="39.87757" lon="16.0630167"><ele>979.0</ele><time>2026-05-03T14:46:53.482Z</time></trkpt><trkpt lat="39.8774533" lon="16.0634367"><ele>979.0</ele><time>2026-05-03T14:46:54.482Z</time></trkpt><trkpt lat="39.8773517" lon="16.0638633"><ele>979.0</ele><time>2026-05-03T14:46:55.482Z</time></trkpt><trkpt lat="39.8772433" lon="16.0643017"><ele>980.5</ele><time>2026-05-03T14:46:56.483Z</time></trkpt><trkpt lat="39.8771233" lon="16.0646983"><ele>982.0</ele><time>2026-05-03T14:46:57.482Z</time></trkpt><trkpt lat="39.87699" lon="16.0651117"><ele>983.0</ele><time>2026-05-03T14:46:58.482Z</time></trkpt><trkpt lat="39.8768533" lon="16.06552"><ele>984.0</ele><time>2026-05-03T14:46:59.483Z</time></trkpt><trkpt lat="39.87671" lon="16.0659217"><ele>982.0</ele><time>2026-05-03T14:47:00.481Z</time></trkpt><trkpt lat="39.8765583" lon="16.0663183"><ele>980.0</ele><time>2026-05-03T14:47:01.482Z</time></trkpt><trkpt lat="39.876395" lon="16.0667033"><ele>980.0</ele><time>2026-05-03T14:47:02.485Z</time></trkpt><trkpt lat="39.8762183" lon="16.06708"><ele>980.0</ele><time>2026-05-03T14:47:03.484Z</time></trkpt><trkpt lat="39.8760283" lon="16.067445"><ele>981.0</ele><time>2026-05-03T14:47:04.483Z</time></trkpt><trkpt lat="39.8758267" lon="16.0678083"><ele>982.0</ele><time>2026-05-03T14:47:05.483Z</time></trkpt><trkpt lat="39.8756133" lon="16.0681617"><ele>985.0</ele><time>2026-05-03T14:47:06.484Z</time></trkpt><trkpt lat="39.8753933" lon="16.0685117"><ele>988.0</ele><time>2026-05-03T14:47:07.484Z</time></trkpt><trkpt lat="39.8751667" lon="16.06886"><ele>989.0</ele><time>2026-05-03T14:47:08.484Z</time></trkpt><trkpt lat="39.8749367" lon="16.069205"><ele>990.0</ele><time>2026-05-03T14:47:09.483Z</time></trkpt><trkpt lat="39.874705" lon="16.0695467"><ele>990.0</ele><time>2026-05-03T14:47:10.483Z</time></trkpt><trkpt lat="39.87447" lon="16.0698883"><ele>990.0</ele><time>2026-05-03T14:47:11.483Z</time></trkpt><trkpt lat="39.8742333" lon="16.0702317"><ele>990.5</ele><time>2026-05-03T14:47:12.484Z</time></trkpt><trkpt lat="39.8739967" lon="16.0705733"><ele>991.0</ele><time>2026-05-03T14:47:13.484Z</time></trkpt><trkpt lat="39.87375" lon="16.070915"><ele>991.0</ele><time>2026-05-03T14:47:14.484Z</time></trkpt><trkpt lat="39.8735067" lon="16.0712583"><ele>991.0</ele><time>2026-05-03T14:47:15.483Z</time></trkpt><trkpt lat="39.8732617" lon="16.0716"><ele>992.5</ele><time>2026-05-03T14:47:16.482Z</time></trkpt><trkpt lat="39.8730333" lon="16.0719367"><ele>994.0</ele><time>2026-05-03T14:47:17.483Z</time></trkpt><trkpt lat="39.8728017" lon="16.0722683"><ele>990.5</ele><time>2026-05-03T14:47:18.482Z</time></trkpt><trkpt lat="39.8725833" lon="16.072585"><ele>987.0</ele><time>2026-05-03T14:47:19.483Z</time></trkpt><trkpt lat="39.8723767" lon="16.0729183"><ele>987.0</ele><time>2026-05-03T14:47:20.483Z</time></trkpt><trkpt lat="39.872175" lon="16.073255"><ele>987.0</ele><time>2026-05-03T14:47:21.482Z</time></trkpt><trkpt lat="39.871975" lon="16.0735983"><ele>985.5</ele><time>2026-05-03T14:47:22.481Z</time></trkpt><trkpt lat="39.8717717" lon="16.0739433"><ele>984.0</ele><time>2026-05-03T14:47:23.483Z</time></trkpt><trkpt lat="39.871565" lon="16.07429"><ele>984.0</ele><time>2026-05-03T14:47:24.482Z</time></trkpt><trkpt lat="39.87136" lon="16.07464"><ele>984.0</ele><time>2026-05-03T14:47:25.481Z</time></trkpt><trkpt lat="39.871135" lon="16.075005"><ele>981.5</ele><time>2026-05-03T14:47:26.487Z</time></trkpt><trkpt lat="39.8709183" lon="16.0753583"><ele>979.0</ele><time>2026-05-03T14:47:27.482Z</time></trkpt><trkpt lat="39.8707083" lon="16.075715"><ele>980.0</ele><time>2026-05-03T14:47:28.481Z</time></trkpt><trkpt lat="39.870495" lon="16.0760683"><ele>981.0</ele><time>2026-05-03T14:47:29.481Z</time></trkpt><trkpt lat="39.8702733" lon="16.0764133"><ele>980.0</ele><time>2026-05-03T14:47:30.482Z</time></trkpt><trkpt lat="39.8700433" lon="16.0767367"><ele>979.0</ele><time>2026-05-03T14:47:31.481Z</time></trkpt><trkpt lat="39.8697917" lon="16.077055"><ele>979.0</ele><time>2026-05-03T14:47:32.482Z</time></trkpt><trkpt lat="39.8695317" lon="16.077365"><ele>979.0</ele><time>2026-05-03T14:47:33.482Z</time></trkpt><trkpt lat="39.8692583" lon="16.0776617"><ele>978.0</ele><time>2026-05-03T14:47:34.482Z</time></trkpt><trkpt lat="39.86897" lon="16.0779433"><ele>977.0</ele><time>2026-05-03T14:47:35.482Z</time></trkpt><trkpt lat="39.8686683" lon="16.0782083"><ele>978.5</ele><time>2026-05-03T14:47:36.482Z</time></trkpt><trkpt lat="39.86836" lon="16.078465"><ele>980.0</ele><time>2026-05-03T14:47:37.482Z</time></trkpt><trkpt lat="39.86805" lon="16.078715"><ele>980.0</ele><time>2026-05-03T14:47:38.482Z</time></trkpt><trkpt lat="39.867745" lon="16.078965"><ele>980.0</ele><time>2026-05-03T14:47:39.481Z</time></trkpt><trkpt lat="39.8674417" lon="16.0792083"><ele>986.0</ele><time>2026-05-03T14:47:40.482Z</time></trkpt><trkpt lat="39.867145" lon="16.0794533"><ele>992.0</ele><time>2026-05-03T14:47:41.481Z</time></trkpt><trkpt lat="39.8668483" lon="16.0796967"><ele>1002.5</ele><time>2026-05-03T14:47:42.482Z</time></trkpt><trkpt lat="39.86655" lon="16.0799383"><ele>1013.0</ele><time>2026-05-03T14:47:43.486Z</time></trkpt><trkpt lat="39.8662517" lon="16.0801833"><ele>1007.0</ele><time>2026-05-03T14:47:44.483Z</time></trkpt><trkpt lat="39.8642717" lon="16.0825333"><ele>1007.0</ele><time>2026-05-03T14:47:52.482Z</time></trkpt><trkpt lat="39.86425" lon="16.0831883"><ele>1006.5</ele><time>2026-05-03T14:47:53.483Z</time></trkpt><trkpt lat="39.8640817" lon="16.0836017"><ele>1006.0</ele><time>2026-05-03T14:47:54.482Z</time></trkpt><trkpt lat="39.86395" lon="16.0840267"><ele>1006.0</ele><time>2026-05-03T14:47:55.482Z</time></trkpt><trkpt lat="39.8638367" lon="16.0844583"><ele>1006.0</ele><time>2026-05-03T14:47:56.483Z</time></trkpt><trkpt lat="39.863735" lon="16.0848917"><ele>1005.5</ele><time>2026-05-03T14:47:57.482Z</time></trkpt><trkpt lat="39.8636483" lon="16.085325"><ele>1005.0</ele><time>2026-05-03T14:47:58.482Z</time></trkpt><trkpt lat="39.8635767" lon="16.0857583"><ele>1005.0</ele><time>2026-05-03T14:47:59.482Z</time></trkpt><trkpt lat="39.8635233" lon="16.086195"><ele>1005.0</ele><time>2026-05-03T14:48:00.481Z</time></trkpt><trkpt lat="39.8634883" lon="16.0866283"><ele>1005.0</ele><time>2026-05-03T14:48:01.482Z</time></trkpt><trkpt lat="39.8634733" lon="16.0870633"><ele>1005.0</ele><time>2026-05-03T14:48:02.482Z</time></trkpt><trkpt lat="39.8634733" lon="16.0874967"><ele>1006.0</ele><time>2026-05-03T14:48:03.482Z</time></trkpt><trkpt lat="39.8634867" lon="16.0879283"><ele>1007.0</ele><time>2026-05-03T14:48:04.482Z</time></trkpt><trkpt lat="39.86351" lon="16.08836"><ele>1007.5</ele><time>2026-05-03T14:48:05.482Z</time></trkpt><trkpt lat="39.86355" lon="16.0887917"><ele>1008.0</ele><time>2026-05-03T14:48:06.481Z</time></trkpt><trkpt lat="39.8636083" lon="16.0892233"><ele>1009.0</ele><time>2026-05-03T14:48:07.482Z</time></trkpt><trkpt lat="39.8636867" lon="16.08965"><ele>1010.0</ele><time>2026-05-03T14:48:08.482Z</time></trkpt><trkpt lat="39.8637817" lon="16.0900733"><ele>1011.0</ele><time>2026-05-03T14:48:09.481Z</time></trkpt><trkpt lat="39.8638917" lon="16.09049"><ele>1012.0</ele><time>2026-05-03T14:48:10.481Z</time></trkpt><trkpt lat="39.8640167" lon="16.0909017"><ele>1013.5</ele><time>2026-05-03T14:48:11.481Z</time></trkpt><trkpt lat="39.864155" lon="16.0913083"><ele>1015.0</ele><time>2026-05-03T14:48:12.481Z</time></trkpt><trkpt lat="39.8643067" lon="16.0917133"><ele>1017.0</ele><time>2026-05-03T14:48:13.482Z</time></trkpt><trkpt lat="39.8644683" lon="16.092115"><ele>1019.0</ele><time>2026-05-03T14:48:14.482Z</time></trkpt><trkpt lat="39.8646317" lon="16.092515"><ele>995.0</ele><time>2026-05-03T14:48:15.482Z</time></trkpt><trkpt lat="39.8671267" lon="16.09913"><ele>995.0</ele><time>2026-05-03T14:48:31.481Z</time></trkpt><trkpt lat="39.867235" lon="16.099625"><ele>995.0</ele><time>2026-05-03T14:48:32.482Z</time></trkpt><trkpt lat="39.8673083" lon="16.1000833"><ele>997.5</ele><time>2026-05-03T14:48:33.481Z</time></trkpt><trkpt lat="39.86737" lon="16.1005367"><ele>1000.0</ele><time>2026-05-03T14:48:34.482Z</time></trkpt><trkpt lat="39.8674217" lon="16.10099"><ele>1003.0</ele><time>2026-05-03T14:48:35.483Z</time></trkpt><trkpt lat="39.8674617" lon="16.1014483"><ele>1006.0</ele><time>2026-05-03T14:48:36.482Z</time></trkpt><trkpt lat="39.86752" lon="16.1023683"><ele>1002.0</ele><time>2026-05-03T14:48:38.482Z</time></trkpt><trkpt lat="39.8675433" lon="16.102835"><ele>998.0</ele><time>2026-05-03T14:48:39.481Z</time></trkpt><trkpt lat="39.8675667" lon="16.1033"><ele>994.0</ele><time>2026-05-03T14:48:40.481Z</time></trkpt><trkpt lat="39.8675883" lon="16.10377"><ele>990.0</ele><time>2026-05-03T14:48:41.482Z</time></trkpt><trkpt lat="39.8676083" lon="16.1042383"><ele>999.5</ele><time>2026-05-03T14:48:42.482Z</time></trkpt><trkpt lat="39.867625" lon="16.1047067"><ele>1009.0</ele><time>2026-05-03T14:48:43.481Z</time></trkpt><trkpt lat="39.8676433" lon="16.1051717"><ele>1009.0</ele><time>2026-05-03T14:48:44.483Z</time></trkpt><trkpt lat="39.86766" lon="16.10564"><ele>1009.0</ele><time>2026-05-03T14:48:45.482Z</time></trkpt><trkpt lat="39.8676817" lon="16.1061033"><ele>1006.5</ele><time>2026-05-03T14:48:46.481Z</time></trkpt><trkpt lat="39.8677117" lon="16.1065633"><ele>1004.0</ele><time>2026-05-03T14:48:47.482Z</time></trkpt><trkpt lat="39.8677483" lon="16.1070233"><ele>1009.0</ele><time>2026-05-03T14:48:48.482Z</time></trkpt><trkpt lat="39.867795" lon="16.1074833"><ele>1014.0</ele><time>2026-05-03T14:48:49.482Z</time></trkpt><trkpt lat="39.8678483" lon="16.1079467"><ele>1009.5</ele><time>2026-05-03T14:48:50.482Z</time></trkpt><trkpt lat="39.8679" lon="16.1084133"><ele>1005.0</ele><time>2026-05-03T14:48:51.482Z</time></trkpt><trkpt lat="39.8679533" lon="16.1088817"><ele>995.5</ele><time>2026-05-03T14:48:52.482Z</time></trkpt><trkpt lat="39.8680017" lon="16.109355"><ele>986.0</ele><time>2026-05-03T14:48:53.482Z</time></trkpt><trkpt lat="39.86805" lon="16.1098333"><ele>986.0</ele><time>2026-05-03T14:48:54.482Z</time></trkpt><trkpt lat="39.8680983" lon="16.1103133"><ele>986.0</ele><time>2026-05-03T14:48:55.482Z</time></trkpt><trkpt lat="39.8681533" lon="16.1107917"><ele>986.0</ele><time>2026-05-03T14:48:56.484Z</time></trkpt><trkpt lat="39.8682083" lon="16.1112717"><ele>986.0</ele><time>2026-05-03T14:48:57.482Z</time></trkpt><trkpt lat="39.8682683" lon="16.1117483"><ele>986.0</ele><time>2026-05-03T14:48:58.48Z</time></trkpt><trkpt lat="39.8683267" lon="16.11222"><ele>986.0</ele><time>2026-05-03T14:48:59.483Z</time></trkpt><trkpt lat="39.8683867" lon="16.112685"><ele>988.0</ele><time>2026-05-03T14:49:00.482Z</time></trkpt><trkpt lat="39.8684517" lon="16.1131417"><ele>990.0</ele><time>2026-05-03T14:49:01.482Z</time></trkpt><trkpt lat="39.8685233" lon="16.113595"><ele>982.0</ele><time>2026-05-03T14:49:02.481Z</time></trkpt><trkpt lat="39.8686" lon="16.1140433"><ele>974.0</ele><time>2026-05-03T14:49:03.482Z</time></trkpt><trkpt lat="39.8686817" lon="16.1144867"><ele>975.5</ele><time>2026-05-03T14:49:04.482Z</time></trkpt><trkpt lat="39.8687633" lon="16.1149233"><ele>977.0</ele><time>2026-05-03T14:49:05.481Z</time></trkpt><trkpt lat="39.8688467" lon="16.1153533"><ele>978.5</ele><time>2026-05-03T14:49:06.482Z</time></trkpt><trkpt lat="39.8689283" lon="16.1157833"><ele>980.0</ele><time>2026-05-03T14:49:07.482Z</time></trkpt><trkpt lat="39.8690133" lon="16.1162133"><ele>979.5</ele><time>2026-05-03T14:49:08.482Z</time></trkpt><trkpt lat="39.8691" lon="16.1166483"><ele>979.0</ele><time>2026-05-03T14:49:09.483Z</time></trkpt><trkpt lat="39.8691883" lon="16.1170867"><ele>977.5</ele><time>2026-05-03T14:49:10.482Z</time></trkpt><trkpt lat="39.8692783" lon="16.1175283"><ele>976.0</ele><time>2026-05-03T14:49:11.482Z</time></trkpt><trkpt lat="39.869375" lon="16.1179717"><ele>964.5</ele><time>2026-05-03T14:49:12.482Z</time></trkpt><trkpt lat="39.8694867" lon="16.1184117"><ele>953.0</ele><time>2026-05-03T14:49:13.481Z</time></trkpt><trkpt lat="39.86961" lon="16.1188483"><ele>951.0</ele><time>2026-05-03T14:49:14.482Z</time></trkpt><trkpt lat="39.8697533" lon="16.1192733"><ele>949.0</ele><time>2026-05-03T14:49:15.482Z</time></trkpt><trkpt lat="39.86991" lon="16.1196867"><ele>954.5</ele><time>2026-05-03T14:49:16.481Z</time></trkpt><trkpt lat="39.87008" lon="16.12009"><ele>960.0</ele><time>2026-05-03T14:49:17.481Z</time></trkpt><trkpt lat="39.8702567" lon="16.1204867"><ele>946.0</ele><time>2026-05-03T14:49:18.482Z</time></trkpt><trkpt lat="39.8704417" lon="16.1208767"><ele>932.0</ele><time>2026-05-03T14:49:19.482Z</time></trkpt><trkpt lat="39.8775217" lon="16.1276517"><ele>920.0</ele><time>2026-05-03T14:49:43.483Z</time></trkpt><trkpt lat="39.87784" lon="16.1279067"><ele>908.0</ele><time>2026-05-03T14:49:44.482Z</time></trkpt><trkpt lat="39.8781517" lon="16.1281583"><ele>891.0</ele><time>2026-05-03T14:49:45.482Z</time></trkpt><trkpt lat="39.8784667" lon="16.1284017"><ele>874.0</ele><time>2026-05-03T14:49:46.48Z</time></trkpt><trkpt lat="39.87878" lon="16.1286483"><ele>874.0</ele><time>2026-05-03T14:49:47.481Z</time></trkpt><trkpt lat="39.8790883" lon="16.1288917"><ele>874.0</ele><time>2026-05-03T14:49:48.482Z</time></trkpt><trkpt lat="39.8793917" lon="16.129135"><ele>878.0</ele><time>2026-05-03T14:49:49.482Z</time></trkpt><trkpt lat="39.8796933" lon="16.12938"><ele>882.0</ele><time>2026-05-03T14:49:50.482Z</time></trkpt><trkpt lat="39.87999" lon="16.1296317"><ele>905.5</ele><time>2026-05-03T14:49:51.481Z</time></trkpt><trkpt lat="39.8802783" lon="16.1298933"><ele>929.0</ele><time>2026-05-03T14:49:52.481Z</time></trkpt><trkpt lat="39.8805583" lon="16.1301717"><ele>929.0</ele><time>2026-05-03T14:49:53.482Z</time></trkpt><trkpt lat="39.8808267" lon="16.130485"><ele>929.0</ele><time>2026-05-03T14:49:54.482Z</time></trkpt><trkpt lat="39.8810833" lon="16.130815"><ele>937.5</ele><time>2026-05-03T14:49:55.482Z</time></trkpt><trkpt lat="39.88134" lon="16.1311483"><ele>946.0</ele><time>2026-05-03T14:49:56.483Z</time></trkpt><trkpt lat="39.8815967" lon="16.1314833"><ele>943.0</ele><time>2026-05-03T14:49:57.482Z</time></trkpt><trkpt lat="39.8818533" lon="16.1318133"><ele>940.0</ele><time>2026-05-03T14:49:58.481Z</time></trkpt><trkpt lat="39.882115" lon="16.1321367"><ele>938.5</ele><time>2026-05-03T14:49:59.481Z</time></trkpt><trkpt lat="39.8823783" lon="16.132465"><ele>937.0</ele><time>2026-05-03T14:50:00.482Z</time></trkpt><trkpt lat="39.8826433" lon="16.132795"><ele>937.0</ele><time>2026-05-03T14:50:01.481Z</time></trkpt><trkpt lat="39.882905" lon="16.1331233"><ele>937.0</ele><time>2026-05-03T14:50:02.482Z</time></trkpt><trkpt lat="39.88317" lon="16.13345"><ele>937.5</ele><time>2026-05-03T14:50:03.482Z</time></trkpt><trkpt lat="39.8834367" lon="16.1337733"><ele>938.0</ele><time>2026-05-03T14:50:04.481Z</time></trkpt><trkpt lat="39.8837017" lon="16.1340933"><ele>938.0</ele><time>2026-05-03T14:50:05.482Z</time></trkpt><trkpt lat="39.8839667" lon="16.1344133"><ele>938.0</ele><time>2026-05-03T14:50:06.482Z</time></trkpt><trkpt lat="39.8886333" lon="16.1412817"><ele>902.0</ele><time>2026-05-03T14:50:25.482Z</time></trkpt><trkpt lat="39.8887917" lon="16.14171"><ele>866.0</ele><time>2026-05-03T14:50:26.482Z</time></trkpt><trkpt lat="39.8889283" lon="16.1421617"><ele>871.0</ele><time>2026-05-03T14:50:27.482Z</time></trkpt><trkpt lat="39.8890517" lon="16.1426117"><ele>876.0</ele><time>2026-05-03T14:50:28.482Z</time></trkpt><trkpt lat="39.8891633" lon="16.1430683"><ele>885.5</ele><time>2026-05-03T14:50:29.482Z</time></trkpt><trkpt lat="39.8892617" lon="16.1435233"><ele>895.0</ele><time>2026-05-03T14:50:30.482Z</time></trkpt><trkpt lat="39.889345" lon="16.143985"><ele>895.5</ele><time>2026-05-03T14:50:31.482Z</time></trkpt><trkpt lat="39.8894167" lon="16.1444383"><ele>896.0</ele><time>2026-05-03T14:50:32.483Z</time></trkpt><trkpt lat="39.8894767" lon="16.1448967"><ele>898.5</ele><time>2026-05-03T14:50:33.481Z</time></trkpt><trkpt lat="39.8895183" lon="16.1453633"><ele>901.0</ele><time>2026-05-03T14:50:34.482Z</time></trkpt><trkpt lat="39.889545" lon="16.1458317"><ele>901.0</ele><time>2026-05-03T14:50:35.483Z</time></trkpt><trkpt lat="39.8895533" lon="16.146305"><ele>901.0</ele><time>2026-05-03T14:50:36.481Z</time></trkpt><trkpt lat="39.889545" lon="16.146785"><ele>896.5</ele><time>2026-05-03T14:50:37.482Z</time></trkpt><trkpt lat="39.8895233" lon="16.1472633"><ele>892.0</ele><time>2026-05-03T14:50:38.483Z</time></trkpt><trkpt lat="39.8894867" lon="16.1477433"><ele>895.5</ele><time>2026-05-03T14:50:39.481Z</time></trkpt><trkpt lat="39.8894367" lon="16.148225"><ele>899.0</ele><time>2026-05-03T14:50:40.482Z</time></trkpt><trkpt lat="39.8893717" lon="16.1487067"><ele>898.5</ele><time>2026-05-03T14:50:41.481Z</time></trkpt><trkpt lat="39.8892883" lon="16.1491833"><ele>898.0</ele><time>2026-05-03T14:50:42.482Z</time></trkpt><trkpt lat="39.8891867" lon="16.149655"><ele>888.0</ele><time>2026-05-03T14:50:43.482Z</time></trkpt><trkpt lat="39.8890667" lon="16.15013"><ele>878.0</ele><time>2026-05-03T14:50:44.482Z</time></trkpt><trkpt lat="39.88894" lon="16.150595"><ele>874.0</ele><time>2026-05-03T14:50:45.48Z</time></trkpt><trkpt lat="39.888385" lon="16.15246"><ele>874.0</ele><time>2026-05-03T14:50:49.482Z</time></trkpt><trkpt lat="39.88823" lon="16.152925"><ele>874.0</ele><time>2026-05-03T14:50:50.482Z</time></trkpt><trkpt lat="39.8880167" lon="16.1533367"><ele>874.5</ele><time>2026-05-03T14:50:51.482Z</time></trkpt><trkpt lat="39.887815" lon="16.1537567"><ele>875.0</ele><time>2026-05-03T14:50:52.481Z</time></trkpt><trkpt lat="39.8876033" lon="16.1541717"><ele>875.0</ele><time>2026-05-03T14:50:53.482Z</time></trkpt><trkpt lat="39.8873767" lon="16.1545817"><ele>875.0</ele><time>2026-05-03T14:50:54.483Z</time></trkpt><trkpt lat="39.8871483" lon="16.154975"><ele>875.0</ele><time>2026-05-03T14:50:55.483Z</time></trkpt><trkpt lat="39.886915" lon="16.1553683"><ele>875.0</ele><time>2026-05-03T14:50:56.483Z</time></trkpt><trkpt lat="39.8866833" lon="16.15576"><ele>865.5</ele><time>2026-05-03T14:50:57.483Z</time></trkpt><trkpt lat="39.8864533" lon="16.1561483"><ele>856.0</ele><time>2026-05-03T14:50:58.482Z</time></trkpt><trkpt lat="39.8862283" lon="16.1565317"><ele>856.5</ele><time>2026-05-03T14:50:59.484Z</time></trkpt><trkpt lat="39.8860033" lon="16.1569133"><ele>857.0</ele><time>2026-05-03T14:51:00.483Z</time></trkpt><trkpt lat="39.885775" lon="16.1572867"><ele>856.5</ele><time>2026-05-03T14:51:01.484Z</time></trkpt><trkpt lat="39.8855417" lon="16.15765"><ele>856.0</ele><time>2026-05-03T14:51:02.483Z</time></trkpt><trkpt lat="39.8853" lon="16.157995"><ele>852.0</ele><time>2026-05-03T14:51:03.482Z</time></trkpt><trkpt lat="39.8850483" lon="16.1583217"><ele>848.0</ele><time>2026-05-03T14:51:04.482Z</time></trkpt><trkpt lat="39.8847917" lon="16.1586333"><ele>848.0</ele><time>2026-05-03T14:51:05.483Z</time></trkpt><trkpt lat="39.88453" lon="16.1589283"><ele>848.0</ele><time>2026-05-03T14:51:06.482Z</time></trkpt><trkpt lat="39.88426" lon="16.1592117"><ele>846.5</ele><time>2026-05-03T14:51:07.483Z</time></trkpt><trkpt lat="39.883985" lon="16.159485"><ele>845.0</ele><time>2026-05-03T14:51:08.483Z</time></trkpt><trkpt lat="39.8837333" lon="16.1597617"><ele>845.0</ele><time>2026-05-03T14:51:09.481Z</time></trkpt><trkpt lat="39.88346" lon="16.1600217"><ele>845.0</ele><time>2026-05-03T14:51:10.481Z</time></trkpt><trkpt lat="39.883185" lon="16.1602883"><ele>845.0</ele><time>2026-05-03T14:51:11.482Z</time></trkpt><trkpt lat="39.8829167" lon="16.1605617"><ele>845.0</ele><time>2026-05-03T14:51:12.481Z</time></trkpt><trkpt lat="39.8826517" lon="16.1608467"><ele>842.5</ele><time>2026-05-03T14:51:13.481Z</time></trkpt><trkpt lat="39.88239" lon="16.161115"><ele>840.0</ele><time>2026-05-03T14:51:14.483Z</time></trkpt><trkpt lat="39.8821083" lon="16.161355"><ele>837.0</ele><time>2026-05-03T14:51:15.481Z</time></trkpt><trkpt lat="39.8818167" lon="16.1616"><ele>834.0</ele><time>2026-05-03T14:51:16.482Z</time></trkpt><trkpt lat="39.8815317" lon="16.1618533"><ele>834.0</ele><time>2026-05-03T14:51:17.482Z</time></trkpt><trkpt lat="39.88125" lon="16.1621067"><ele>834.0</ele><time>2026-05-03T14:51:18.481Z</time></trkpt><trkpt lat="39.8809733" lon="16.1623583"><ele>830.0</ele><time>2026-05-03T14:51:19.484Z</time></trkpt><trkpt lat="39.8806983" lon="16.1626117"><ele>826.0</ele><time>2026-05-03T14:51:20.484Z</time></trkpt><trkpt lat="39.88042" lon="16.1628683"><ele>826.0</ele><time>2026-05-03T14:51:21.482Z</time></trkpt><trkpt lat="39.8801383" lon="16.1631283"><ele>826.0</ele><time>2026-05-03T14:51:22.483Z</time></trkpt><trkpt lat="39.8798617" lon="16.1633867"><ele>826.0</ele><time>2026-05-03T14:51:23.483Z</time></trkpt><trkpt lat="39.879585" lon="16.16364"><ele>826.0</ele><time>2026-05-03T14:51:24.483Z</time></trkpt><trkpt lat="39.8793233" lon="16.1638867"><ele>824.0</ele><time>2026-05-03T14:51:25.483Z</time></trkpt><trkpt lat="39.8790683" lon="16.164125"><ele>822.0</ele><time>2026-05-03T14:51:26.483Z</time></trkpt><trkpt lat="39.87882" lon="16.1643583"><ele>822.0</ele><time>2026-05-03T14:51:27.483Z</time></trkpt><trkpt lat="39.87857" lon="16.1645833"><ele>822.0</ele><time>2026-05-03T14:51:28.482Z</time></trkpt><trkpt lat="39.8783317" lon="16.1647967"><ele>819.0</ele><time>2026-05-03T14:51:29.483Z</time></trkpt><trkpt lat="39.87811" lon="16.1649983"><ele>816.0</ele><time>2026-05-03T14:51:30.483Z</time></trkpt><trkpt lat="39.877895" lon="16.1652017"><ele>816.0</ele><time>2026-05-03T14:51:31.483Z</time></trkpt><trkpt lat="39.8776967" lon="16.1653883"><ele>816.0</ele><time>2026-05-03T14:51:32.483Z</time></trkpt><trkpt lat="39.8774967" lon="16.1655617"><ele>813.6666666666667</ele><time>2026-05-03T14:51:33.483Z</time></trkpt><trkpt lat="39.87731" lon="16.1657267"><ele>811.3333333333334</ele><time>2026-05-03T14:51:34.482Z</time></trkpt><trkpt lat="39.87713" lon="16.165885"><ele>809.0</ele><time>2026-05-03T14:51:35.482Z</time></trkpt><trkpt lat="39.876955" lon="16.1660417"><ele>809.0</ele><time>2026-05-03T14:51:36.482Z</time></trkpt><trkpt lat="39.8767767" lon="16.1662"><ele>809.0</ele><time>2026-05-03T14:51:37.483Z</time></trkpt><trkpt lat="39.8765967" lon="16.1663567"><ele>809.0</ele><time>2026-05-03T14:51:38.482Z</time></trkpt><trkpt lat="39.876415" lon="16.166515"><ele>809.0</ele><time>2026-05-03T14:51:39.483Z</time></trkpt><trkpt lat="39.87624" lon="16.166675"><ele>809.0</ele><time>2026-05-03T14:51:40.482Z</time></trkpt><trkpt lat="39.876075" lon="16.166835"><ele>809.0</ele><time>2026-05-03T14:51:41.482Z</time></trkpt><trkpt lat="39.8759183" lon="16.1669867"><ele>806.0</ele><time>2026-05-03T14:51:42.482Z</time></trkpt><trkpt lat="39.8757733" lon="16.1671267"><ele>803.0</ele><time>2026-05-03T14:51:43.481Z</time></trkpt><trkpt lat="39.8756383" lon="16.1672483"><ele>800.0</ele><time>2026-05-03T14:51:44.483Z</time></trkpt><trkpt lat="39.8755133" lon="16.1673583"><ele>801.5</ele><time>2026-05-03T14:51:45.481Z</time></trkpt><trkpt lat="39.8753867" lon="16.1674383"><ele>803.0</ele><time>2026-05-03T14:51:46.482Z</time></trkpt><trkpt lat="39.8752583" lon="16.1674333"><ele>804.5</ele><time>2026-05-03T14:51:47.482Z</time></trkpt><trkpt lat="39.8751367" lon="16.1673883"><ele>806.0</ele><time>2026-05-03T14:51:48.481Z</time></trkpt><trkpt lat="39.8750267" lon="16.1673167"><ele>802.25</ele><time>2026-05-03T14:51:49.482Z</time></trkpt><trkpt lat="39.8749267" lon="16.1672033"><ele>798.5</ele><time>2026-05-03T14:51:50.483Z</time></trkpt><trkpt lat="39.874855" lon="16.1670717"><ele>794.75</ele><time>2026-05-03T14:51:51.482Z</time></trkpt><trkpt lat="39.8748033" lon="16.1669"><ele>791.0</ele><time>2026-05-03T14:51:52.484Z</time></trkpt><trkpt lat="39.87478" lon="16.1667017"><ele>788.6666666666667</ele><time>2026-05-03T14:51:53.484Z</time></trkpt><trkpt lat="39.8747767" lon="16.16648"><ele>786.3333333333333</ele><time>2026-05-03T14:51:54.483Z</time></trkpt><trkpt lat="39.8747883" lon="16.1662517"><ele>784.0</ele><time>2026-05-03T14:51:55.483Z</time></trkpt><trkpt lat="39.8748167" lon="16.1660117"><ele>784.0</ele><time>2026-05-03T14:51:56.483Z</time></trkpt><trkpt lat="39.8748583" lon="16.1657667"><ele>784.0</ele><time>2026-05-03T14:51:57.484Z</time></trkpt><trkpt lat="39.874915" lon="16.165525"><ele>784.0</ele><time>2026-05-03T14:51:58.483Z</time></trkpt><trkpt lat="39.8749917" lon="16.1652867"><ele>781.0</ele><time>2026-05-03T14:51:59.484Z</time></trkpt><trkpt lat="39.875085" lon="16.1650467"><ele>778.0</ele><time>2026-05-03T14:52:00.483Z</time></trkpt><trkpt lat="39.875195" lon="16.164805"><ele>775.0</ele><time>2026-05-03T14:52:01.483Z</time></trkpt><trkpt lat="39.8753167" lon="16.16456"><ele>774.0</ele><time>2026-05-03T14:52:02.482Z</time></trkpt><trkpt lat="39.87544" lon="16.1643117"><ele>773.0</ele><time>2026-05-03T14:52:03.483Z</time></trkpt><trkpt lat="39.8755633" lon="16.1640683"><ele>771.0</ele><time>2026-05-03T14:52:04.483Z</time></trkpt><trkpt lat="39.87568" lon="16.1638317"><ele>769.0</ele><time>2026-05-03T14:52:05.484Z</time></trkpt><trkpt lat="39.875795" lon="16.1636033"><ele>767.0</ele><time>2026-05-03T14:52:06.483Z</time></trkpt><trkpt lat="39.8759033" lon="16.1633817"><ele>768.0</ele><time>2026-05-03T14:52:07.484Z</time></trkpt><trkpt lat="39.8760117" lon="16.1631617"><ele>769.0</ele><time>2026-05-03T14:52:08.484Z</time></trkpt><trkpt lat="39.876115" lon="16.1629433"><ele>770.0</ele><time>2026-05-03T14:52:09.482Z</time></trkpt><trkpt lat="39.8762083" lon="16.1627167"><ele>770.0</ele><time>2026-05-03T14:52:10.482Z</time></trkpt><trkpt lat="39.8762933" lon="16.1624767"><ele>770.0</ele><time>2026-05-03T14:52:11.481Z</time></trkpt><trkpt lat="39.8763683" lon="16.1622283"><ele>770.0</ele><time>2026-05-03T14:52:12.482Z</time></trkpt><trkpt lat="39.8764217" lon="16.1619733"><ele>767.3333333333334</ele><time>2026-05-03T14:52:13.482Z</time></trkpt><trkpt lat="39.8764583" lon="16.16172"><ele>764.6666666666667</ele><time>2026-05-03T14:52:14.484Z</time></trkpt><trkpt lat="39.8764767" lon="16.1614717"><ele>762.0</ele><time>2026-05-03T14:52:15.481Z</time></trkpt><trkpt lat="39.8764783" lon="16.1612183"><ele>759.0</ele><time>2026-05-03T14:52:16.482Z</time></trkpt><trkpt lat="39.8764633" lon="16.16096"><ele>756.0</ele><time>2026-05-03T14:52:17.483Z</time></trkpt><trkpt lat="39.8764267" lon="16.1606967"><ele>753.0</ele><time>2026-05-03T14:52:18.482Z</time></trkpt><trkpt lat="39.8763717" lon="16.1604383"><ele>750.6666666666666</ele><time>2026-05-03T14:52:19.483Z</time></trkpt><trkpt lat="39.8762983" lon="16.160185"><ele>748.3333333333333</ele><time>2026-05-03T14:52:20.482Z</time></trkpt><trkpt lat="39.87621" lon="16.1599367"><ele>746.0</ele><time>2026-05-03T14:52:21.484Z</time></trkpt><trkpt lat="39.8760967" lon="16.1597"><ele>742.6666666666666</ele><time>2026-05-03T14:52:22.482Z</time></trkpt><trkpt lat="39.8759667" lon="16.1594783"><ele>739.3333333333334</ele><time>2026-05-03T14:52:23.483Z</time></trkpt><trkpt lat="39.8758217" lon="16.15927"><ele>736.0</ele><time>2026-05-03T14:52:24.483Z</time></trkpt><trkpt lat="39.8756633" lon="16.1590833"><ele>728.6666666666667</ele><time>2026-05-03T14:52:25.483Z</time></trkpt><trkpt lat="39.8754917" lon="16.1589183"><ele>721.3333333333334</ele><time>2026-05-03T14:52:26.484Z</time></trkpt><trkpt lat="39.87531" lon="16.1587717"><ele>714.0</ele><time>2026-05-03T14:52:27.482Z</time></trkpt><trkpt lat="39.8751183" lon="16.1586517"><ele>714.3333333333334</ele><time>2026-05-03T14:52:28.482Z</time></trkpt><trkpt lat="39.8749167" lon="16.1585533"><ele>714.6666666666667</ele><time>2026-05-03T14:52:29.484Z</time></trkpt><trkpt lat="39.874705" lon="16.15848"><ele>715.0</ele><time>2026-05-03T14:52:30.484Z</time></trkpt><trkpt lat="39.87448" lon="16.158425"><ele>714.0</ele><time>2026-05-03T14:52:31.483Z</time></trkpt><trkpt lat="39.8742433" lon="16.1583883"><ele>713.0</ele><time>2026-05-03T14:52:32.484Z</time></trkpt><trkpt lat="39.8739933" lon="16.15836"><ele>713.0</ele><time>2026-05-03T14:52:33.483Z</time></trkpt><trkpt lat="39.8737283" lon="16.1583333"><ele>713.0</ele><time>2026-05-03T14:52:34.483Z</time></trkpt><trkpt lat="39.8734467" lon="16.1583083"><ele>710.5</ele><time>2026-05-03T14:52:35.482Z</time></trkpt><trkpt lat="39.87315" lon="16.1582817"><ele>708.0</ele><time>2026-05-03T14:52:36.482Z</time></trkpt><trkpt lat="39.8728483" lon="16.1582533"><ele>705.0</ele><time>2026-05-03T14:52:37.481Z</time></trkpt><trkpt lat="39.872545" lon="16.1582267"><ele>702.0</ele><time>2026-05-03T14:52:38.483Z</time></trkpt><trkpt lat="39.8722267" lon="16.1582"><ele>697.5</ele><time>2026-05-03T14:52:39.481Z</time></trkpt><trkpt lat="39.871895" lon="16.15817"><ele>693.0</ele><time>2026-05-03T14:52:40.483Z</time></trkpt><trkpt lat="39.87155" lon="16.1581383"><ele>692.0</ele><time>2026-05-03T14:52:41.482Z</time></trkpt><trkpt lat="39.87121" lon="16.1581083"><ele>691.0</ele><time>2026-05-03T14:52:42.481Z</time></trkpt><trkpt lat="39.8708817" lon="16.1580783"><ele>687.5</ele><time>2026-05-03T14:52:43.481Z</time></trkpt><trkpt lat="39.8705567" lon="16.1580517"><ele>684.0</ele><time>2026-05-03T14:52:44.481Z</time></trkpt><trkpt lat="39.8702333" lon="16.1580283"><ele>682.0</ele><time>2026-05-03T14:52:45.482Z</time></trkpt><trkpt lat="39.86991" lon="16.158005"><ele>680.0</ele><time>2026-05-03T14:52:46.483Z</time></trkpt><trkpt lat="39.8695867" lon="16.1579833"><ele>676.5</ele><time>2026-05-03T14:52:47.482Z</time></trkpt><trkpt lat="39.8692533" lon="16.1579633"><ele>673.0</ele><time>2026-05-03T14:52:48.482Z</time></trkpt><trkpt lat="39.8689333" lon="16.1579417"><ele>673.0</ele><time>2026-05-03T14:52:49.483Z</time></trkpt><trkpt lat="39.8686033" lon="16.1579083"><ele>673.0</ele><time>2026-05-03T14:52:50.483Z</time></trkpt><trkpt lat="39.8682733" lon="16.1578783"><ele>670.5</ele><time>2026-05-03T14:52:51.483Z</time></trkpt><trkpt lat="39.8679467" lon="16.157845"><ele>668.0</ele><time>2026-05-03T14:52:52.483Z</time></trkpt><trkpt lat="39.867625" lon="16.1578183"><ele>665.5</ele><time>2026-05-03T14:52:53.483Z</time></trkpt><trkpt lat="39.8672967" lon="16.157785"><ele>663.0</ele><time>2026-05-03T14:52:54.483Z</time></trkpt><trkpt lat="39.8669683" lon="16.1577567"><ele>656.5</ele><time>2026-05-03T14:52:55.483Z</time></trkpt><trkpt lat="39.866645" lon="16.1577317"><ele>650.0</ele><time>2026-05-03T14:52:56.483Z</time></trkpt><trkpt lat="39.866325" lon="16.1577083"><ele>650.0</ele><time>2026-05-03T14:52:57.483Z</time></trkpt><trkpt lat="39.86601" lon="16.1576833"><ele>650.0</ele><time>2026-05-03T14:52:58.483Z</time></trkpt><trkpt lat="39.8657" lon="16.1576567"><ele>647.0</ele><time>2026-05-03T14:52:59.481Z</time></trkpt><trkpt lat="39.8653933" lon="16.15763"><ele>644.0</ele><time>2026-05-03T14:53:00.482Z</time></trkpt><trkpt lat="39.8650883" lon="16.1576"><ele>643.0</ele><time>2026-05-03T14:53:01.481Z</time></trkpt><trkpt lat="39.8647867" lon="16.1575733"><ele>642.0</ele><time>2026-05-03T14:53:02.482Z</time></trkpt><trkpt lat="39.8644867" lon="16.1575367"><ele>640.0</ele><time>2026-05-03T14:53:03.482Z</time></trkpt><trkpt lat="39.8641933" lon="16.1574883"><ele>638.0</ele><time>2026-05-03T14:53:04.481Z</time></trkpt><trkpt lat="39.8639067" lon="16.15742"><ele>637.5</ele><time>2026-05-03T14:53:05.481Z</time></trkpt><trkpt lat="39.8636317" lon="16.15733"><ele>637.0</ele><time>2026-05-03T14:53:06.483Z</time></trkpt><trkpt lat="39.863365" lon="16.1572133"><ele>634.5</ele><time>2026-05-03T14:53:07.483Z</time></trkpt><trkpt lat="39.8631033" lon="16.157075"><ele>632.0</ele><time>2026-05-03T14:53:08.482Z</time></trkpt><trkpt lat="39.8628483" lon="16.15692"><ele>630.0</ele><time>2026-05-03T14:53:09.484Z</time></trkpt><trkpt lat="39.8626133" lon="16.15675"><ele>628.0</ele><time>2026-05-03T14:53:10.483Z</time></trkpt><trkpt lat="39.8623633" lon="16.1565833"><ele>627.5</ele><time>2026-05-03T14:53:11.483Z</time></trkpt><trkpt lat="39.86212" lon="16.1564117"><ele>627.0</ele><time>2026-05-03T14:53:12.483Z</time></trkpt><trkpt lat="39.861865" lon="16.1561967"><ele>624.0</ele><time>2026-05-03T14:53:13.482Z</time></trkpt><trkpt lat="39.8616067" lon="16.155975"><ele>621.0</ele><time>2026-05-03T14:53:14.481Z</time></trkpt><trkpt lat="39.8613517" lon="16.1557667"><ele>621.0</ele><time>2026-05-03T14:53:15.481Z</time></trkpt><trkpt lat="39.8611033" lon="16.15557"><ele>621.0</ele><time>2026-05-03T14:53:16.481Z</time></trkpt><trkpt lat="39.8608617" lon="16.15538"><ele>618.0</ele><time>2026-05-03T14:53:17.483Z</time></trkpt><trkpt lat="39.8606233" lon="16.1551933"><ele>615.0</ele><time>2026-05-03T14:53:18.482Z</time></trkpt><trkpt lat="39.8603917" lon="16.1550067"><ele>615.0</ele><time>2026-05-03T14:53:19.489Z</time></trkpt><trkpt lat="39.8601617" lon="16.1548283"><ele>615.0</ele><time>2026-05-03T14:53:20.482Z</time></trkpt><trkpt lat="39.859935" lon="16.15465"><ele>612.5</ele><time>2026-05-03T14:53:21.481Z</time></trkpt><trkpt lat="39.85971" lon="16.15447"><ele>610.0</ele><time>2026-05-03T14:53:22.483Z</time></trkpt><trkpt lat="39.8594833" lon="16.1542883"><ele>607.0</ele><time>2026-05-03T14:53:23.483Z</time></trkpt><trkpt lat="39.8592567" lon="16.1541083"><ele>604.0</ele><time>2026-05-03T14:53:24.482Z</time></trkpt><trkpt lat="39.8590333" lon="16.1539317"><ele>603.5</ele><time>2026-05-03T14:53:25.481Z</time></trkpt><trkpt lat="39.8588133" lon="16.1537583"><ele>603.0</ele><time>2026-05-03T14:53:26.481Z</time></trkpt><trkpt lat="39.8586" lon="16.1535917"><ele>600.5</ele><time>2026-05-03T14:53:27.482Z</time></trkpt><trkpt lat="39.8583933" lon="16.1534317"><ele>598.0</ele><time>2026-05-03T14:53:28.481Z</time></trkpt><trkpt lat="39.858195" lon="16.1532767"><ele>597.6666666666667</ele><time>2026-05-03T14:53:29.483Z</time></trkpt><trkpt lat="39.8580033" lon="16.1531267"><ele>597.3333333333334</ele><time>2026-05-03T14:53:30.482Z</time></trkpt><trkpt lat="39.857815" lon="16.1529817"><ele>597.0</ele><time>2026-05-03T14:53:31.483Z</time></trkpt><trkpt lat="39.857635" lon="16.152845"><ele>595.6666666666666</ele><time>2026-05-03T14:53:32.483Z</time></trkpt><trkpt lat="39.8574567" lon="16.15271"><ele>594.3333333333333</ele><time>2026-05-03T14:53:33.481Z</time></trkpt><trkpt lat="39.8572733" lon="16.1525733"><ele>593.0</ele><time>2026-05-03T14:53:34.482Z</time></trkpt><trkpt lat="39.8570767" lon="16.152445"><ele>593.0</ele><time>2026-05-03T14:53:35.482Z</time></trkpt><trkpt lat="39.8568683" lon="16.15232"><ele>593.0</ele><time>2026-05-03T14:53:36.482Z</time></trkpt><trkpt lat="39.8566467" lon="16.1521983"><ele>590.5</ele><time>2026-05-03T14:53:37.482Z</time></trkpt><trkpt lat="39.8564183" lon="16.1520717"><ele>588.0</ele><time>2026-05-03T14:53:38.483Z</time></trkpt><trkpt lat="39.85618" lon="16.1519383"><ele>586.0</ele><time>2026-05-03T14:53:39.482Z</time></trkpt><trkpt lat="39.8559333" lon="16.1518"><ele>584.0</ele><time>2026-05-03T14:53:40.482Z</time></trkpt><trkpt lat="39.855685" lon="16.15166"><ele>584.0</ele><time>2026-05-03T14:53:41.481Z</time></trkpt><trkpt lat="39.8554383" lon="16.1515283"><ele>584.0</ele><time>2026-05-03T14:53:42.481Z</time></trkpt><trkpt lat="39.8551883" lon="16.151395"><ele>581.0</ele><time>2026-05-03T14:53:43.482Z</time></trkpt><trkpt lat="39.8549417" lon="16.1512567"><ele>578.0</ele><time>2026-05-03T14:53:44.482Z</time></trkpt><trkpt lat="39.854705" lon="16.151125"><ele>578.0</ele><time>2026-05-03T14:53:45.482Z</time></trkpt><trkpt lat="39.8544817" lon="16.1510033"><ele>578.0</ele><time>2026-05-03T14:53:46.481Z</time></trkpt><trkpt lat="39.8542683" lon="16.150885"><ele>576.3333333333333</ele><time>2026-05-03T14:53:47.483Z</time></trkpt><trkpt lat="39.854065" lon="16.1507717"><ele>574.6666666666666</ele><time>2026-05-03T14:53:48.483Z</time></trkpt><trkpt lat="39.8538717" lon="16.1506667"><ele>573.0</ele><time>2026-05-03T14:53:49.483Z</time></trkpt><trkpt lat="39.853685" lon="16.1505667"><ele>573.0</ele><time>2026-05-03T14:53:50.482Z</time></trkpt><trkpt lat="39.8535083" lon="16.1504683"><ele>573.0</ele><time>2026-05-03T14:53:51.483Z</time></trkpt><trkpt lat="39.8533417" lon="16.1503767"><ele>573.0</ele><time>2026-05-03T14:53:52.482Z</time></trkpt><trkpt lat="39.8531883" lon="16.1502917"><ele>572.25</ele><time>2026-05-03T14:53:53.483Z</time></trkpt><trkpt lat="39.8530483" lon="16.150215"><ele>571.5</ele><time>2026-05-03T14:53:54.483Z</time></trkpt><trkpt lat="39.8529233" lon="16.1501417"><ele>570.75</ele><time>2026-05-03T14:53:55.482Z</time></trkpt><trkpt lat="39.8528167" lon="16.1500817"><ele>570.0</ele><time>2026-05-03T14:53:56.485Z</time></trkpt><trkpt lat="39.852735" lon="16.1500267"><ele>570.0</ele><time>2026-05-03T14:53:57.481Z</time></trkpt><trkpt lat="39.8526783" lon="16.1499733"><ele>570.0</ele><time>2026-05-03T14:53:58.482Z</time></trkpt><trkpt lat="39.852655" lon="16.1498767"><ele>570.0</ele><time>2026-05-03T14:54:00.482Z</time></trkpt><trkpt lat="39.8526333" lon="16.1497917"><ele>570.0</ele><time>2026-05-03T14:54:04.482Z</time></trkpt><trkpt lat="39.8525383" lon="16.1498217"><ele>570.0</ele><time>2026-05-03T15:01:11.482Z</time></trkpt><trkpt lat="39.8524833" lon="16.14977"><ele>570.0</ele><time>2026-05-03T15:08:11.482Z</time></trkpt><trkpt lat="39.8524167" lon="16.1497"><ele>569.2</ele><time>2026-05-03T15:08:14.482Z</time></trkpt><trkpt lat="39.8523667" lon="16.14958"><ele>568.4</ele><time>2026-05-03T15:11:15.481Z</time></trkpt><trkpt lat="39.8522967" lon="16.149665"><ele>567.6</ele><time>2026-05-03T15:11:18.482Z</time></trkpt><trkpt lat="39.8522283" lon="16.1497067"><ele>566.8</ele><time>2026-05-03T15:11:20.482Z</time></trkpt><trkpt lat="39.8521183" lon="16.1497017"><ele>566.0</ele><time>2026-05-03T15:11:22.481Z</time></trkpt><trkpt lat="39.8520433" lon="16.1496783"><ele>566.0</ele><time>2026-05-03T15:11:23.483Z</time></trkpt><trkpt lat="39.8519583" lon="16.14963"><ele>566.0</ele><time>2026-05-03T15:11:24.482Z</time></trkpt><trkpt lat="39.8518583" lon="16.14957"><ele>566.0</ele><time>2026-05-03T15:11:25.481Z</time></trkpt><trkpt lat="39.8517467" lon="16.1495033"><ele>566.0</ele><time>2026-05-03T15:11:26.481Z</time></trkpt><trkpt lat="39.8516267" lon="16.1494367"><ele>564.75</ele><time>2026-05-03T15:11:27.481Z</time></trkpt><trkpt lat="39.8514967" lon="16.1493633"><ele>563.5</ele><time>2026-05-03T15:11:28.481Z</time></trkpt><trkpt lat="39.85136" lon="16.1492867"><ele>562.25</ele><time>2026-05-03T15:11:29.481Z</time></trkpt><trkpt lat="39.851215" lon="16.149205"><ele>561.0</ele><time>2026-05-03T15:11:30.482Z</time></trkpt><trkpt lat="39.8510667" lon="16.14912"><ele>559.6666666666666</ele><time>2026-05-03T15:11:31.481Z</time></trkpt><trkpt lat="39.8509183" lon="16.149035"><ele>558.3333333333333</ele><time>2026-05-03T15:11:32.482Z</time></trkpt><trkpt lat="39.8507667" lon="16.1489533"><ele>557.0</ele><time>2026-05-03T15:11:33.481Z</time></trkpt><trkpt lat="39.85061" lon="16.1488717"><ele>557.0</ele><time>2026-05-03T15:11:34.482Z</time></trkpt><trkpt lat="39.85045" lon="16.1487917"><ele>557.0</ele><time>2026-05-03T15:11:35.482Z</time></trkpt><trkpt lat="39.8502867" lon="16.1487117"><ele>557.0</ele><time>2026-05-03T15:11:36.481Z</time></trkpt><trkpt lat="39.8501167" lon="16.1486367"><ele>555.6666666666666</ele><time>2026-05-03T15:11:37.482Z</time></trkpt><trkpt lat="39.849935" lon="16.14857"><ele>554.3333333333334</ele><time>2026-05-03T15:11:38.482Z</time></trkpt><trkpt lat="39.8497417" lon="16.1485117"><ele>553.0</ele><time>2026-05-03T15:11:39.482Z</time></trkpt><trkpt lat="39.8495383" lon="16.1484617"><ele>553.0</ele><time>2026-05-03T15:11:40.481Z</time></trkpt><trkpt lat="39.849335" lon="16.1484217"><ele>553.0</ele><time>2026-05-03T15:11:41.481Z</time></trkpt><trkpt lat="39.84913" lon="16.1483967"><ele>553.0</ele><time>2026-05-03T15:11:42.482Z</time></trkpt><trkpt lat="39.84892" lon="16.1483833"><ele>552.3333333333334</ele><time>2026-05-03T15:11:43.481Z</time></trkpt><trkpt lat="39.848705" lon="16.148385"><ele>551.6666666666666</ele><time>2026-05-03T15:11:44.481Z</time></trkpt><trkpt lat="39.8484817" lon="16.1483967"><ele>551.0</ele><time>2026-05-03T15:11:45.482Z</time></trkpt><trkpt lat="39.848255" lon="16.148425"><ele>549.0</ele><time>2026-05-03T15:11:46.482Z</time></trkpt><trkpt lat="39.848025" lon="16.1484667"><ele>547.0</ele><time>2026-05-03T15:11:47.482Z</time></trkpt><trkpt lat="39.847795" lon="16.1485233"><ele>545.0</ele><time>2026-05-03T15:11:48.482Z</time></trkpt><trkpt lat="39.847565" lon="16.1485983"><ele>543.0</ele><time>2026-05-03T15:11:49.483Z</time></trkpt><trkpt lat="39.847335" lon="16.1486883"><ele>543.0</ele><time>2026-05-03T15:11:50.484Z</time></trkpt><trkpt lat="39.847105" lon="16.148795"><ele>543.0</ele><time>2026-05-03T15:11:51.483Z</time></trkpt><trkpt lat="39.8468783" lon="16.1489083"><ele>542.0</ele><time>2026-05-03T15:11:52.483Z</time></trkpt><trkpt lat="39.8466483" lon="16.1490267"><ele>541.0</ele><time>2026-05-03T15:11:53.483Z</time></trkpt><trkpt lat="39.8464233" lon="16.14914"><ele>541.0</ele><time>2026-05-03T15:11:54.482Z</time></trkpt><trkpt lat="39.846205" lon="16.1492467"><ele>541.0</ele><time>2026-05-03T15:11:55.482Z</time></trkpt><trkpt lat="39.8459917" lon="16.149345"><ele>540.0</ele><time>2026-05-03T15:11:56.482Z</time></trkpt><trkpt lat="39.8457783" lon="16.1494333"><ele>539.0</ele><time>2026-05-03T15:11:57.482Z</time></trkpt><trkpt lat="39.84556" lon="16.1495117"><ele>539.0</ele><time>2026-05-03T15:11:58.481Z</time></trkpt><trkpt lat="39.8453367" lon="16.1495767"><ele>539.0</ele><time>2026-05-03T15:11:59.481Z</time></trkpt><trkpt lat="39.845105" lon="16.149625"><ele>539.0</ele><time>2026-05-03T15:12:00.481Z</time></trkpt><trkpt lat="39.844865" lon="16.1496683"><ele>539.0</ele><time>2026-05-03T15:12:01.482Z</time></trkpt><trkpt lat="39.8446217" lon="16.1496983"><ele>539.0</ele><time>2026-05-03T15:12:02.483Z</time></trkpt><trkpt lat="39.8443717" lon="16.149715"><ele>539.0</ele><time>2026-05-03T15:12:03.481Z</time></trkpt><trkpt lat="39.8441233" lon="16.1497283"><ele>538.0</ele><time>2026-05-03T15:12:04.483Z</time></trkpt><trkpt lat="39.8438717" lon="16.1497067"><ele>537.0</ele><time>2026-05-03T15:12:05.483Z</time></trkpt><trkpt lat="39.843625" lon="16.14967"><ele>537.5</ele><time>2026-05-03T15:12:06.482Z</time></trkpt><trkpt lat="39.84338" lon="16.1496133"><ele>538.0</ele><time>2026-05-03T15:12:07.483Z</time></trkpt><trkpt lat="39.843145" lon="16.1495467"><ele>538.0</ele><time>2026-05-03T15:12:08.487Z</time></trkpt><trkpt lat="39.8429167" lon="16.149495"><ele>538.0</ele><time>2026-05-03T15:12:09.483Z</time></trkpt><trkpt lat="39.8426883" lon="16.1494417"><ele>539.0</ele><time>2026-05-03T15:12:10.482Z</time></trkpt><trkpt lat="39.84246" lon="16.1493833"><ele>540.0</ele><time>2026-05-03T15:12:11.482Z</time></trkpt><trkpt lat="39.842235" lon="16.149335"><ele>540.0</ele><time>2026-05-03T15:12:12.483Z</time></trkpt><trkpt lat="39.842015" lon="16.1492817"><ele>540.0</ele><time>2026-05-03T15:12:13.482Z</time></trkpt><trkpt lat="39.84179" lon="16.149235"><ele>539.6666666666666</ele><time>2026-05-03T15:12:14.483Z</time></trkpt><trkpt lat="39.84157" lon="16.1491867"><ele>539.3333333333333</ele><time>2026-05-03T15:12:15.481Z</time></trkpt><trkpt lat="39.84136" lon="16.1491333"><ele>539.0</ele><time>2026-05-03T15:12:16.482Z</time></trkpt><trkpt lat="39.8411667" lon="16.1490917"><ele>539.0</ele><time>2026-05-03T15:12:17.482Z</time></trkpt><trkpt lat="39.840985" lon="16.1490667"><ele>539.0</ele><time>2026-05-03T15:12:18.481Z</time></trkpt><trkpt lat="39.8408167" lon="16.1490717"><ele>539.0</ele><time>2026-05-03T15:12:19.481Z</time></trkpt><trkpt lat="39.840655" lon="16.1491267"><ele>536.6666666666666</ele><time>2026-05-03T15:12:20.482Z</time></trkpt><trkpt lat="39.8405067" lon="16.149225"><ele>534.3333333333334</ele><time>2026-05-03T15:12:21.481Z</time></trkpt><trkpt lat="39.8403867" lon="16.1493733"><ele>532.0</ele><time>2026-05-03T15:12:22.482Z</time></trkpt><trkpt lat="39.84029" lon="16.1495617"><ele>532.0</ele><time>2026-05-03T15:12:23.483Z</time></trkpt><trkpt lat="39.8402117" lon="16.14979"><ele>532.0</ele><time>2026-05-03T15:12:24.481Z</time></trkpt><trkpt lat="39.8401417" lon="16.1500417"><ele>532.0</ele><time>2026-05-03T15:12:25.483Z</time></trkpt><trkpt lat="39.840065" lon="16.15029"><ele>530.0</ele><time>2026-05-03T15:12:26.482Z</time></trkpt><trkpt lat="39.8399817" lon="16.1505167"><ele>528.0</ele><time>2026-05-03T15:12:27.481Z</time></trkpt><trkpt lat="39.839885" lon="16.1507167"><ele>526.0</ele><time>2026-05-03T15:12:28.482Z</time></trkpt><trkpt lat="39.839765" lon="16.1508917"><ele>526.0</ele><time>2026-05-03T15:12:29.482Z</time></trkpt><trkpt lat="39.8396383" lon="16.151055"><ele>526.0</ele><time>2026-05-03T15:12:30.482Z</time></trkpt><trkpt lat="39.83949" lon="16.1511717"><ele>526.0</ele><time>2026-05-03T15:12:31.483Z</time></trkpt><trkpt lat="39.8393483" lon="16.1512117"><ele>522.0</ele><time>2026-05-03T15:12:32.483Z</time></trkpt><trkpt lat="39.8391633" lon="16.1512267"><ele>518.0</ele><time>2026-05-03T15:12:33.481Z</time></trkpt><trkpt lat="39.8389933" lon="16.151195"><ele>514.0</ele><time>2026-05-03T15:12:34.482Z</time></trkpt><trkpt lat="39.83884" lon="16.151135"><ele>514.0</ele><time>2026-05-03T15:12:35.482Z</time></trkpt><trkpt lat="39.838715" lon="16.151065"><ele>514.0</ele><time>2026-05-03T15:12:36.481Z</time></trkpt><trkpt lat="39.83861" lon="16.151005"><ele>514.0</ele><time>2026-05-03T15:12:37.481Z</time></trkpt><trkpt lat="39.838505" lon="16.15092"><ele>514.0</ele><time>2026-05-03T15:12:38.482Z</time></trkpt><trkpt lat="39.8384183" lon="16.1508417"><ele>512.8333333333334</ele><time>2026-05-03T15:12:39.481Z</time></trkpt><trkpt lat="39.838355" lon="16.1507567"><ele>511.6666666666667</ele><time>2026-05-03T15:12:40.482Z</time></trkpt><trkpt lat="39.838315" lon="16.1506917"><ele>510.5</ele><time>2026-05-03T15:12:41.482Z</time></trkpt><trkpt lat="39.8382417" lon="16.1506283"><ele>509.33333333333337</ele><time>2026-05-03T15:12:43.482Z</time></trkpt><trkpt lat="39.838165" lon="16.150645"><ele>508.1666666666667</ele><time>2026-05-03T15:12:46.483Z</time></trkpt><trkpt lat="39.8381" lon="16.1506467"><ele>507.0</ele><time>2026-05-03T15:12:48.482Z</time></trkpt><trkpt lat="39.838045" lon="16.1507433"><ele>507.0</ele><time>2026-05-03T15:12:50.483Z</time></trkpt><trkpt lat="39.8380117" lon="16.150825"><ele>507.00000000000006</ele><time>2026-05-03T15:12:51.483Z</time></trkpt><trkpt lat="39.8379717" lon="16.1509217"><ele>507.00000000000006</ele><time>2026-05-03T15:12:52.482Z</time></trkpt><trkpt lat="39.8379217" lon="16.1510383"><ele>507.0</ele><time>2026-05-03T15:12:53.484Z</time></trkpt><trkpt lat="39.837855" lon="16.1511783"><ele>507.0</ele><time>2026-05-03T15:12:54.482Z</time></trkpt><trkpt lat="39.8377817" lon="16.1513367"><ele>507.0</ele><time>2026-05-03T15:12:55.481Z</time></trkpt><trkpt lat="39.8377017" lon="16.1515083"><ele>507.0</ele><time>2026-05-03T15:12:56.482Z</time></trkpt><trkpt lat="39.8376167" lon="16.1516883"><ele>507.0</ele><time>2026-05-03T15:12:57.482Z</time></trkpt><trkpt lat="39.8375183" lon="16.151875"><ele>507.0</ele><time>2026-05-03T15:12:58.482Z</time></trkpt><trkpt lat="39.8374067" lon="16.152065"><ele>507.0</ele><time>2026-05-03T15:12:59.482Z</time></trkpt><trkpt lat="39.8372783" lon="16.152255"><ele>507.0</ele><time>2026-05-03T15:13:00.481Z</time></trkpt><trkpt lat="39.8371417" lon="16.1524483"><ele>507.33333333333337</ele><time>2026-05-03T15:13:01.482Z</time></trkpt><trkpt lat="39.836995" lon="16.152655"><ele>507.6666666666667</ele><time>2026-05-03T15:13:02.482Z</time></trkpt><trkpt lat="39.8368467" lon="16.1528683"><ele>508.0</ele><time>2026-05-03T15:13:03.481Z</time></trkpt><trkpt lat="39.8366983" lon="16.1530967"><ele>506.0</ele><time>2026-05-03T15:13:04.481Z</time></trkpt><trkpt lat="39.8365533" lon="16.1533417"><ele>504.0</ele><time>2026-05-03T15:13:05.482Z</time></trkpt><trkpt lat="39.8364183" lon="16.15361"><ele>504.0</ele><time>2026-05-03T15:13:06.482Z</time></trkpt><trkpt lat="39.8362867" lon="16.1538917"><ele>504.0</ele><time>2026-05-03T15:13:07.482Z</time></trkpt><trkpt lat="39.8361567" lon="16.1541783"><ele>502.5</ele><time>2026-05-03T15:13:08.483Z</time></trkpt><trkpt lat="39.8360233" lon="16.1544633"><ele>501.0</ele><time>2026-05-03T15:13:09.481Z</time></trkpt><trkpt lat="39.83589" lon="16.15474"><ele>497.0</ele><time>2026-05-03T15:13:10.482Z</time></trkpt><trkpt lat="39.8357617" lon="16.155"><ele>493.0</ele><time>2026-05-03T15:13:11.481Z</time></trkpt><trkpt lat="39.8356467" lon="16.1552483"><ele>493.0</ele><time>2026-05-03T15:13:12.481Z</time></trkpt><trkpt lat="39.8355517" lon="16.1555"><ele>493.0</ele><time>2026-05-03T15:13:13.482Z</time></trkpt><trkpt lat="39.83548" lon="16.1557633"><ele>493.0</ele><time>2026-05-03T15:13:14.481Z</time></trkpt><trkpt lat="39.8354183" lon="16.156035"><ele>493.0</ele><time>2026-05-03T15:13:15.482Z</time></trkpt><trkpt lat="39.8353567" lon="16.156315"><ele>493.0</ele><time>2026-05-03T15:13:16.482Z</time></trkpt><trkpt lat="39.8352783" lon="16.156595"><ele>494.5</ele><time>2026-05-03T15:13:17.482Z</time></trkpt><trkpt lat="39.83519" lon="16.1568783"><ele>496.0</ele><time>2026-05-03T15:13:18.482Z</time></trkpt><trkpt lat="39.8350983" lon="16.1571567"><ele>492.0</ele><time>2026-05-03T15:13:19.483Z</time></trkpt><trkpt lat="39.834995" lon="16.1574317"><ele>488.0</ele><time>2026-05-03T15:13:20.482Z</time></trkpt><trkpt lat="39.834885" lon="16.1576917"><ele>488.0</ele><time>2026-05-03T15:13:21.481Z</time></trkpt><trkpt lat="39.8347767" lon="16.1579383"><ele>488.0</ele><time>2026-05-03T15:13:22.483Z</time></trkpt><trkpt lat="39.8346717" lon="16.15817"><ele>488.0</ele><time>2026-05-03T15:13:23.483Z</time></trkpt><trkpt lat="39.8345717" lon="16.1583833"><ele>489.3333333333333</ele><time>2026-05-03T15:13:24.483Z</time></trkpt><trkpt lat="39.83447" lon="16.15857"><ele>490.66666666666663</ele><time>2026-05-03T15:13:25.482Z</time></trkpt><trkpt lat="39.834345" lon="16.15871"><ele>492.0</ele><time>2026-05-03T15:13:26.482Z</time></trkpt><trkpt lat="39.8341917" lon="16.1587983"><ele>487.66666666666663</ele><time>2026-05-03T15:13:27.482Z</time></trkpt><trkpt lat="39.8340167" lon="16.1588517"><ele>483.3333333333333</ele><time>2026-05-03T15:13:28.482Z</time></trkpt><trkpt lat="39.83383" lon="16.1588883"><ele>479.0</ele><time>2026-05-03T15:13:29.482Z</time></trkpt><trkpt lat="39.833655" lon="16.158935"><ele>479.0</ele><time>2026-05-03T15:13:30.483Z</time></trkpt><trkpt lat="39.8335033" lon="16.1590183"><ele>479.0</ele><time>2026-05-03T15:13:31.481Z</time></trkpt><trkpt lat="39.83337" lon="16.1591467"><ele>479.0</ele><time>2026-05-03T15:13:32.482Z</time></trkpt><trkpt lat="39.83325" lon="16.1593217"><ele>481.3333333333333</ele><time>2026-05-03T15:13:33.482Z</time></trkpt><trkpt lat="39.83313" lon="16.1595233"><ele>483.66666666666663</ele><time>2026-05-03T15:13:34.482Z</time></trkpt><trkpt lat="39.832995" lon="16.1597317"><ele>486.0</ele><time>2026-05-03T15:13:35.482Z</time></trkpt><trkpt lat="39.83284" lon="16.1599317"><ele>482.5</ele><time>2026-05-03T15:13:36.482Z</time></trkpt><trkpt lat="39.8326633" lon="16.16013"><ele>479.0</ele><time>2026-05-03T15:13:37.481Z</time></trkpt><trkpt lat="39.8324817" lon="16.1603283"><ele>479.0</ele><time>2026-05-03T15:13:38.481Z</time></trkpt><trkpt lat="39.8323067" lon="16.1605283"><ele>479.0</ele><time>2026-05-03T15:13:39.482Z</time></trkpt><trkpt lat="39.8321467" lon="16.160735"><ele>477.66666666666663</ele><time>2026-05-03T15:13:40.482Z</time></trkpt><trkpt lat="39.8319983" lon="16.160935"><ele>476.33333333333337</ele><time>2026-05-03T15:13:41.482Z</time></trkpt><trkpt lat="39.8318583" lon="16.1611183"><ele>475.0</ele><time>2026-05-03T15:13:42.481Z</time></trkpt><trkpt lat="39.8317" lon="16.161255"><ele>475.0</ele><time>2026-05-03T15:13:43.482Z</time></trkpt><trkpt lat="39.8315233" lon="16.1613617"><ele>475.0</ele><time>2026-05-03T15:13:44.482Z</time></trkpt><trkpt lat="39.8313367" lon="16.1614283"><ele>475.0</ele><time>2026-05-03T15:13:45.481Z</time></trkpt><trkpt lat="39.8311533" lon="16.16146"><ele>475.0</ele><time>2026-05-03T15:13:46.482Z</time></trkpt><trkpt lat="39.8309783" lon="16.1614883"><ele>475.0</ele><time>2026-05-03T15:13:47.482Z</time></trkpt><trkpt lat="39.8308133" lon="16.1615417"><ele>475.0</ele><time>2026-05-03T15:13:48.482Z</time></trkpt><trkpt lat="39.8306583" lon="16.16164"><ele>477.33333333333337</ele><time>2026-05-03T15:13:49.483Z</time></trkpt><trkpt lat="39.8305167" lon="16.161775"><ele>479.66666666666663</ele><time>2026-05-03T15:13:50.482Z</time></trkpt><trkpt lat="39.8303917" lon="16.1619217"><ele>482.0</ele><time>2026-05-03T15:13:51.482Z</time></trkpt><trkpt lat="39.8302833" lon="16.162065"><ele>482.0</ele><time>2026-05-03T15:13:52.482Z</time></trkpt><trkpt lat="39.83021" lon="16.1622217"><ele>482.0</ele><time>2026-05-03T15:13:53.482Z</time></trkpt><trkpt lat="39.83018" lon="16.162405"><ele>482.0</ele><time>2026-05-03T15:13:54.481Z</time></trkpt><trkpt lat="39.83019" lon="16.16261"><ele>482.0</ele><time>2026-05-03T15:13:55.481Z</time></trkpt><trkpt lat="39.8302217" lon="16.1628367"><ele>485.0</ele><time>2026-05-03T15:13:56.482Z</time></trkpt><trkpt lat="39.8302683" lon="16.16309"><ele>488.0</ele><time>2026-05-03T15:13:57.482Z</time></trkpt><trkpt lat="39.8303183" lon="16.16336"><ele>491.0</ele><time>2026-05-03T15:13:58.483Z</time></trkpt><trkpt lat="39.8303733" lon="16.1636517"><ele>491.0</ele><time>2026-05-03T15:13:59.482Z</time></trkpt><trkpt lat="39.8304383" lon="16.16395"><ele>491.0</ele><time>2026-05-03T15:14:00.483Z</time></trkpt><trkpt lat="39.8305133" lon="16.1642483"><ele>487.0</ele><time>2026-05-03T15:14:01.483Z</time></trkpt><trkpt lat="39.8306" lon="16.1645333"><ele>483.0</ele><time>2026-05-03T15:14:02.483Z</time></trkpt><trkpt lat="39.8306833" lon="16.1648133"><ele>481.33333333333337</ele><time>2026-05-03T15:14:03.482Z</time></trkpt><trkpt lat="39.830765" lon="16.165085"><ele>479.6666666666667</ele><time>2026-05-03T15:14:04.481Z</time></trkpt><trkpt lat="39.8308433" lon="16.1653483"><ele>478.0</ele><time>2026-05-03T15:14:05.483Z</time></trkpt><trkpt lat="39.8309233" lon="16.165605"><ele>481.6666666666667</ele><time>2026-05-03T15:14:06.482Z</time></trkpt><trkpt lat="39.8310167" lon="16.1658517"><ele>485.33333333333337</ele><time>2026-05-03T15:14:07.483Z</time></trkpt><trkpt lat="39.831125" lon="16.1660933"><ele>489.0</ele><time>2026-05-03T15:14:08.484Z</time></trkpt><trkpt lat="39.8312433" lon="16.166325"><ele>489.0</ele><time>2026-05-03T15:14:09.481Z</time></trkpt><trkpt lat="39.8313633" lon="16.1665533"><ele>489.0</ele><time>2026-05-03T15:14:10.482Z</time></trkpt><trkpt lat="39.831475" lon="16.1667783"><ele>489.0</ele><time>2026-05-03T15:14:11.483Z</time></trkpt><trkpt lat="39.8315633" lon="16.1670033"><ele>489.0</ele><time>2026-05-03T15:14:12.482Z</time></trkpt><trkpt lat="39.8316267" lon="16.1672383"><ele>489.0</ele><time>2026-05-03T15:14:13.482Z</time></trkpt><trkpt lat="39.83166" lon="16.1674867"><ele>489.0</ele><time>2026-05-03T15:14:14.483Z</time></trkpt><trkpt lat="39.8316883" lon="16.1677367"><ele>489.33333333333337</ele><time>2026-05-03T15:14:15.482Z</time></trkpt><trkpt lat="39.8317217" lon="16.16798"><ele>489.6666666666667</ele><time>2026-05-03T15:14:16.483Z</time></trkpt><trkpt lat="39.8317867" lon="16.168205"><ele>490.0</ele><time>2026-05-03T15:14:17.481Z</time></trkpt><trkpt lat="39.8318817" lon="16.1684233"><ele>495.33333333333337</ele><time>2026-05-03T15:14:18.482Z</time></trkpt><trkpt lat="39.83199" lon="16.16864"><ele>500.66666666666663</ele><time>2026-05-03T15:14:19.482Z</time></trkpt><trkpt lat="39.8320917" lon="16.1688733"><ele>506.0</ele><time>2026-05-03T15:14:20.482Z</time></trkpt><trkpt lat="39.8321733" lon="16.169125"><ele>506.0</ele><time>2026-05-03T15:14:21.481Z</time></trkpt><trkpt lat="39.8322383" lon="16.16939"><ele>506.0</ele><time>2026-05-03T15:14:22.482Z</time></trkpt><trkpt lat="39.8322917" lon="16.1696633"><ele>506.0</ele><time>2026-05-03T15:14:23.482Z</time></trkpt><trkpt lat="39.8323483" lon="16.169935"><ele>503.3333333333333</ele><time>2026-05-03T15:14:24.481Z</time></trkpt><trkpt lat="39.8324033" lon="16.1702017"><ele>500.66666666666663</ele><time>2026-05-03T15:14:25.483Z</time></trkpt><trkpt lat="39.8324483" lon="16.1704517"><ele>498.0</ele><time>2026-05-03T15:14:26.484Z</time></trkpt><trkpt lat="39.8324733" lon="16.1706833"><ele>499.33333333333337</ele><time>2026-05-03T15:14:27.481Z</time></trkpt><trkpt lat="39.8324667" lon="16.1709"><ele>500.6666666666667</ele><time>2026-05-03T15:14:28.482Z</time></trkpt><trkpt lat="39.83243" lon="16.1711117"><ele>502.0</ele><time>2026-05-03T15:14:29.482Z</time></trkpt><trkpt lat="39.8323817" lon="16.171335"><ele>504.0</ele><time>2026-05-03T15:14:30.481Z</time></trkpt><trkpt lat="39.832335" lon="16.17157"><ele>506.0</ele><time>2026-05-03T15:14:31.482Z</time></trkpt><trkpt lat="39.832295" lon="16.171815"><ele>508.0</ele><time>2026-05-03T15:14:32.482Z</time></trkpt><trkpt lat="39.832265" lon="16.1720667"><ele>508.0</ele><time>2026-05-03T15:14:33.482Z</time></trkpt><trkpt lat="39.8322483" lon="16.1723217"><ele>508.0</ele><time>2026-05-03T15:14:34.482Z</time></trkpt><trkpt lat="39.8322483" lon="16.1725817"><ele>508.0</ele><time>2026-05-03T15:14:35.481Z</time></trkpt><trkpt lat="39.8322633" lon="16.172845"><ele>509.6666666666667</ele><time>2026-05-03T15:14:36.482Z</time></trkpt><trkpt lat="39.8322933" lon="16.1731133"><ele>511.33333333333337</ele><time>2026-05-03T15:14:37.482Z</time></trkpt><trkpt lat="39.8323317" lon="16.1733783"><ele>513.0</ele><time>2026-05-03T15:14:38.481Z</time></trkpt><trkpt lat="39.8323833" lon="16.1736367"><ele>513.6666666666666</ele><time>2026-05-03T15:14:39.483Z</time></trkpt><trkpt lat="39.8324533" lon="16.1738833"><ele>514.3333333333333</ele><time>2026-05-03T15:14:40.482Z</time></trkpt><trkpt lat="39.8325417" lon="16.174115"><ele>515.0</ele><time>2026-05-03T15:14:41.483Z</time></trkpt><trkpt lat="39.8326417" lon="16.1743367"><ele>517.3333333333333</ele><time>2026-05-03T15:14:42.482Z</time></trkpt><trkpt lat="39.8327483" lon="16.1745517"><ele>519.6666666666666</ele><time>2026-05-03T15:14:43.483Z</time></trkpt><trkpt lat="39.83285" lon="16.1747733"><ele>522.0</ele><time>2026-05-03T15:14:44.482Z</time></trkpt><trkpt lat="39.8329433" lon="16.1750117"><ele>522.0</ele><time>2026-05-03T15:14:45.481Z</time></trkpt><trkpt lat="39.833025" lon="16.17527"><ele>522.0</ele><time>2026-05-03T15:14:46.482Z</time></trkpt><trkpt lat="39.8330967" lon="16.1755217"><ele>522.0</ele><time>2026-05-03T15:14:47.482Z</time></trkpt><trkpt lat="39.83316" lon="16.1757617"><ele>521.0</ele><time>2026-05-03T15:14:48.482Z</time></trkpt><trkpt lat="39.8332267" lon="16.1759833"><ele>520.0</ele><time>2026-05-03T15:14:49.48Z</time></trkpt><trkpt lat="39.8332967" lon="16.1761983"><ele>519.0</ele><time>2026-05-03T15:14:50.483Z</time></trkpt><trkpt lat="39.8333667" lon="16.1764083"><ele>519.0</ele><time>2026-05-03T15:14:51.481Z</time></trkpt><trkpt lat="39.8334433" lon="16.17663"><ele>519.0</ele><time>2026-05-03T15:14:52.482Z</time></trkpt><trkpt lat="39.8335333" lon="16.1768683"><ele>519.0</ele><time>2026-05-03T15:14:53.483Z</time></trkpt><trkpt lat="39.833625" lon="16.177125"><ele>521.0</ele><time>2026-05-03T15:14:54.48Z</time></trkpt><trkpt lat="39.8337183" lon="16.1773917"><ele>523.0</ele><time>2026-05-03T15:14:55.481Z</time></trkpt><trkpt lat="39.8338067" lon="16.1776617"><ele>523.0</ele><time>2026-05-03T15:14:56.483Z</time></trkpt><trkpt lat="39.833885" lon="16.17792"><ele>523.0</ele><time>2026-05-03T15:14:57.482Z</time></trkpt><trkpt lat="39.8339467" lon="16.1781717"><ele>523.0</ele><time>2026-05-03T15:14:58.483Z</time></trkpt><trkpt lat="39.833985" lon="16.1784067"><ele>524.0</ele><time>2026-05-03T15:14:59.482Z</time></trkpt><trkpt lat="39.8339967" lon="16.1786333"><ele>525.0</ele><time>2026-05-03T15:15:00.482Z</time></trkpt><trkpt lat="39.8339817" lon="16.1788633"><ele>526.0</ele><time>2026-05-03T15:15:01.481Z</time></trkpt><trkpt lat="39.8339267" lon="16.179095"><ele>526.6666666666667</ele><time>2026-05-03T15:15:02.482Z</time></trkpt><trkpt lat="39.833845" lon="16.1793183"><ele>527.3333333333334</ele><time>2026-05-03T15:15:03.481Z</time></trkpt><trkpt lat="39.833755" lon="16.1795433"><ele>528.0</ele><time>2026-05-03T15:15:04.482Z</time></trkpt><trkpt lat="39.833675" lon="16.1797667"><ele>526.0</ele><time>2026-05-03T15:15:05.482Z</time></trkpt><trkpt lat="39.8336267" lon="16.17999"><ele>524.0</ele><time>2026-05-03T15:15:06.48Z</time></trkpt><trkpt lat="39.83361" lon="16.1802"><ele>522.0</ele><time>2026-05-03T15:15:07.481Z</time></trkpt><trkpt lat="39.8336167" lon="16.1803783"><ele>522.0</ele><time>2026-05-03T15:15:08.482Z</time></trkpt><trkpt lat="39.8336517" lon="16.1805183"><ele>522.0</ele><time>2026-05-03T15:15:09.481Z</time></trkpt><trkpt lat="39.833715" lon="16.1806233"><ele>522.0</ele><time>2026-05-03T15:15:10.483Z</time></trkpt><trkpt lat="39.83379" lon="16.18071"><ele>522.0</ele><time>2026-05-03T15:15:11.482Z</time></trkpt><trkpt lat="39.83386" lon="16.1808167"><ele>522.0</ele><time>2026-05-03T15:15:12.481Z</time></trkpt><trkpt lat="39.8339267" lon="16.180955"><ele>517.6666666666666</ele><time>2026-05-03T15:15:13.482Z</time></trkpt><trkpt lat="39.8339683" lon="16.1811283"><ele>513.3333333333333</ele><time>2026-05-03T15:15:14.482Z</time></trkpt><trkpt lat="39.8339717" lon="16.1813283"><ele>509.0</ele><time>2026-05-03T15:15:15.483Z</time></trkpt><trkpt lat="39.833925" lon="16.1815317"><ele>504.3333333333333</ele><time>2026-05-03T15:15:16.482Z</time></trkpt><trkpt lat="39.8338333" lon="16.1817367"><ele>499.66666666666663</ele><time>2026-05-03T15:15:17.481Z</time></trkpt><trkpt lat="39.8337267" lon="16.1819483"><ele>495.0</ele><time>2026-05-03T15:15:18.481Z</time></trkpt><trkpt lat="39.83362" lon="16.1821717"><ele>497.66666666666663</ele><time>2026-05-03T15:15:19.482Z</time></trkpt><trkpt lat="39.8335067" lon="16.1823933"><ele>500.3333333333333</ele><time>2026-05-03T15:15:20.483Z</time></trkpt><trkpt lat="39.8333883" lon="16.1826017"><ele>503.0</ele><time>2026-05-03T15:15:21.481Z</time></trkpt><trkpt lat="39.8332783" lon="16.18279"><ele>503.0</ele><time>2026-05-03T15:15:22.482Z</time></trkpt><trkpt lat="39.833185" lon="16.1830333"><ele>503.0</ele><time>2026-05-03T15:15:23.482Z</time></trkpt><trkpt lat="39.8329933" lon="16.1832133"><ele>503.0</ele><time>2026-05-03T15:15:24.482Z</time></trkpt><trkpt lat="39.8328183" lon="16.183405"><ele>502.5</ele><time>2026-05-03T15:15:25.482Z</time></trkpt><trkpt lat="39.832665" lon="16.1836233"><ele>502.0</ele><time>2026-05-03T15:15:26.483Z</time></trkpt><trkpt lat="39.832515" lon="16.1838533"><ele>491.5</ele><time>2026-05-03T15:15:27.481Z</time></trkpt><trkpt lat="39.83238" lon="16.1840933"><ele>481.0</ele><time>2026-05-03T15:15:28.481Z</time></trkpt><trkpt lat="39.8322367" lon="16.1843283"><ele>481.0</ele><time>2026-05-03T15:15:29.481Z</time></trkpt><trkpt lat="39.8320983" lon="16.1845667"><ele>481.0</ele><time>2026-05-03T15:15:30.481Z</time></trkpt><trkpt lat="39.8319483" lon="16.184775"><ele>481.0</ele><time>2026-05-03T15:15:31.482Z</time></trkpt><trkpt lat="39.8317983" lon="16.1849817"><ele>480.6666666666667</ele><time>2026-05-03T15:15:32.482Z</time></trkpt><trkpt lat="39.8316617" lon="16.185185"><ele>480.33333333333337</ele><time>2026-05-03T15:15:33.481Z</time></trkpt><trkpt lat="39.8315317" lon="16.1853883"><ele>480.0</ele><time>2026-05-03T15:15:34.481Z</time></trkpt><trkpt lat="39.8314033" lon="16.18559"><ele>474.66666666666663</ele><time>2026-05-03T15:15:35.483Z</time></trkpt><trkpt lat="39.8312783" lon="16.185795"><ele>469.3333333333333</ele><time>2026-05-03T15:15:36.481Z</time></trkpt><trkpt lat="39.8311533" lon="16.1859967"><ele>464.0</ele><time>2026-05-03T15:15:37.482Z</time></trkpt><trkpt lat="39.831025" lon="16.1861967"><ele>462.3333333333333</ele><time>2026-05-03T15:15:38.483Z</time></trkpt><trkpt lat="39.8308983" lon="16.1863967"><ele>460.66666666666663</ele><time>2026-05-03T15:15:39.482Z</time></trkpt><trkpt lat="39.8307667" lon="16.1865983"><ele>459.0</ele><time>2026-05-03T15:15:40.481Z</time></trkpt><trkpt lat="39.8306367" lon="16.18679"><ele>459.0</ele><time>2026-05-03T15:15:41.482Z</time></trkpt><trkpt lat="39.8305033" lon="16.1869717"><ele>459.0</ele><time>2026-05-03T15:15:42.481Z</time></trkpt><trkpt lat="39.8303783" lon="16.1871383"><ele>459.0</ele><time>2026-05-03T15:15:43.482Z</time></trkpt><trkpt lat="39.8302433" lon="16.18727"><ele>457.33333333333337</ele><time>2026-05-03T15:15:44.483Z</time></trkpt><trkpt lat="39.8301017" lon="16.1873933"><ele>455.6666666666667</ele><time>2026-05-03T15:15:45.481Z</time></trkpt><trkpt lat="39.8299567" lon="16.1875167"><ele>454.0</ele><time>2026-05-03T15:15:46.481Z</time></trkpt><trkpt lat="39.8298033" lon="16.187645"><ele>454.0</ele><time>2026-05-03T15:15:47.482Z</time></trkpt><trkpt lat="39.8296517" lon="16.1877767"><ele>454.0</ele><time>2026-05-03T15:15:48.481Z</time></trkpt><trkpt lat="39.8294933" lon="16.1879067"><ele>454.0</ele><time>2026-05-03T15:15:49.481Z</time></trkpt><trkpt lat="39.82934" lon="16.1880333"><ele>453.33333333333337</ele><time>2026-05-03T15:15:50.482Z</time></trkpt><trkpt lat="39.8291933" lon="16.1881617"><ele>452.66666666666663</ele><time>2026-05-03T15:15:51.482Z</time></trkpt><trkpt lat="39.8290483" lon="16.1882967"><ele>452.0</ele><time>2026-05-03T15:15:52.481Z</time></trkpt><trkpt lat="39.8289017" lon="16.1884267"><ele>450.66666666666663</ele><time>2026-05-03T15:15:53.482Z</time></trkpt><trkpt lat="39.8287583" lon="16.1885517"><ele>449.33333333333337</ele><time>2026-05-03T15:15:54.482Z</time></trkpt><trkpt lat="39.8286217" lon="16.188675"><ele>448.0</ele><time>2026-05-03T15:15:55.481Z</time></trkpt><trkpt lat="39.8284833" lon="16.1888"><ele>447.33333333333337</ele><time>2026-05-03T15:15:56.482Z</time></trkpt><trkpt lat="39.8283417" lon="16.1889283"><ele>446.66666666666663</ele><time>2026-05-03T15:15:57.481Z</time></trkpt><trkpt lat="39.8281983" lon="16.18906"><ele>446.0</ele><time>2026-05-03T15:15:58.482Z</time></trkpt><trkpt lat="39.8280583" lon="16.1891917"><ele>445.3333333333333</ele><time>2026-05-03T15:15:59.482Z</time></trkpt><trkpt lat="39.82792" lon="16.1893167"><ele>444.66666666666663</ele><time>2026-05-03T15:16:00.481Z</time></trkpt><trkpt lat="39.8277883" lon="16.18944"><ele>444.0</ele><time>2026-05-03T15:16:01.481Z</time></trkpt><trkpt lat="39.8276583" lon="16.18956"><ele>443.0</ele><time>2026-05-03T15:16:02.481Z</time></trkpt><trkpt lat="39.8275267" lon="16.18968"><ele>442.0</ele><time>2026-05-03T15:16:03.481Z</time></trkpt><trkpt lat="39.82739" lon="16.1898017"><ele>441.0</ele><time>2026-05-03T15:16:04.482Z</time></trkpt><trkpt lat="39.8272467" lon="16.1899233"><ele>440.0</ele><time>2026-05-03T15:16:05.482Z</time></trkpt><trkpt lat="39.8271033" lon="16.190045"><ele>439.0</ele><time>2026-05-03T15:16:06.482Z</time></trkpt><trkpt lat="39.8269583" lon="16.190165"><ele>438.0</ele><time>2026-05-03T15:16:07.482Z</time></trkpt><trkpt lat="39.8268083" lon="16.1902917"><ele>437.33333333333337</ele><time>2026-05-03T15:16:08.482Z</time></trkpt><trkpt lat="39.82666" lon="16.1904267"><ele>436.6666666666667</ele><time>2026-05-03T15:16:09.482Z</time></trkpt><trkpt lat="39.8265103" lon="16.1905613"><ele>436.0</ele><time>2026-05-03T15:16:10.482Z</time></trkpt><trkpt lat="39.8263627" lon="16.190696"><ele>435.33333333333337</ele><time>2026-05-03T15:16:11.482Z</time></trkpt><trkpt lat="39.826215" lon="16.1908304"><ele>434.66666666666663</ele><time>2026-05-03T15:16:12.482Z</time></trkpt><trkpt lat="39.8260703" lon="16.1909666"><ele>434.0</ele><time>2026-05-03T15:16:13.483Z</time></trkpt><trkpt lat="39.8259205" lon="16.1911058"><ele>434.0</ele><time>2026-05-03T15:16:14.482Z</time></trkpt><trkpt lat="39.8257635" lon="16.1912467"><ele>434.0</ele><time>2026-05-03T15:16:15.482Z</time></trkpt><trkpt lat="39.825604" lon="16.1913892"><ele>434.0</ele><time>2026-05-03T15:16:16.482Z</time></trkpt><trkpt lat="39.8254483" lon="16.191529"><ele>432.3333333333333</ele><time>2026-05-03T15:16:17.482Z</time></trkpt><trkpt lat="39.8253003" lon="16.1916652"><ele>430.66666666666663</ele><time>2026-05-03T15:16:18.482Z</time></trkpt><trkpt lat="39.8251612" lon="16.1917849"><ele>429.0</ele><time>2026-05-03T15:16:19.482Z</time></trkpt><trkpt lat="39.8250268" lon="16.1919017"><ele>428.66666666666663</ele><time>2026-05-03T15:16:20.483Z</time></trkpt><trkpt lat="39.824896" lon="16.192016"><ele>428.3333333333333</ele><time>2026-05-03T15:16:21.482Z</time></trkpt><trkpt lat="39.8247653" lon="16.1921255"><ele>428.0</ele><time>2026-05-03T15:16:22.482Z</time></trkpt><trkpt lat="39.8246412" lon="16.1922316"><ele>428.0</ele><time>2026-05-03T15:16:23.482Z</time></trkpt><trkpt lat="39.8245201" lon="16.192335"><ele>428.0</ele><time>2026-05-03T15:16:24.482Z</time></trkpt><trkpt lat="39.8244048" lon="16.1924379"><ele>428.0</ele><time>2026-05-03T15:16:25.481Z</time></trkpt><trkpt lat="39.824293" lon="16.1925435"><ele>428.0</ele><time>2026-05-03T15:16:26.483Z</time></trkpt><trkpt lat="39.8241793" lon="16.1926499"><ele>426.75</ele><time>2026-05-03T15:16:27.483Z</time></trkpt><trkpt lat="39.8240597" lon="16.1927536"><ele>425.5</ele><time>2026-05-03T15:16:28.483Z</time></trkpt><trkpt lat="39.8239421" lon="16.1928566"><ele>424.25</ele><time>2026-05-03T15:16:29.481Z</time></trkpt><trkpt lat="39.8238249" lon="16.1929613"><ele>423.0</ele><time>2026-05-03T15:16:30.482Z</time></trkpt><trkpt lat="39.8237101" lon="16.1930652"><ele>423.0</ele><time>2026-05-03T15:16:31.482Z</time></trkpt><trkpt lat="39.8235982" lon="16.193169"><ele>423.0</ele><time>2026-05-03T15:16:32.482Z</time></trkpt><trkpt lat="39.8234892" lon="16.1932721"><ele>423.0</ele><time>2026-05-03T15:16:33.481Z</time></trkpt><trkpt lat="39.8233813" lon="16.193372"><ele>423.0</ele><time>2026-05-03T15:16:34.482Z</time></trkpt><trkpt lat="39.8232744" lon="16.1934699"><ele>421.75</ele><time>2026-05-03T15:16:35.481Z</time></trkpt><trkpt lat="39.8231679" lon="16.1935591"><ele>420.5</ele><time>2026-05-03T15:16:36.482Z</time></trkpt><trkpt lat="39.8230589" lon="16.1936489"><ele>419.25</ele><time>2026-05-03T15:16:37.482Z</time></trkpt><trkpt lat="39.822944" lon="16.1937418"><ele>418.0</ele><time>2026-05-03T15:16:38.483Z</time></trkpt><trkpt lat="39.8228274" lon="16.1938362"><ele>418.0</ele><time>2026-05-03T15:16:39.482Z</time></trkpt><trkpt lat="39.8227157" lon="16.1939296"><ele>418.0</ele><time>2026-05-03T15:16:40.482Z</time></trkpt><trkpt lat="39.822605" lon="16.1940208"><ele>418.0</ele><time>2026-05-03T15:16:41.482Z</time></trkpt><trkpt lat="39.82249" lon="16.1941133"><ele>418.0</ele><time>2026-05-03T15:16:42.482Z</time></trkpt><trkpt lat="39.822365" lon="16.194215"><ele>415.33333333333337</ele><time>2026-05-03T15:16:43.482Z</time></trkpt><trkpt lat="39.82223" lon="16.1943267"><ele>412.66666666666663</ele><time>2026-05-03T15:16:44.483Z</time></trkpt><trkpt lat="39.8220883" lon="16.194445"><ele>410.0</ele><time>2026-05-03T15:16:45.481Z</time></trkpt><trkpt lat="39.8219367" lon="16.1945683"><ele>409.3333333333333</ele><time>2026-05-03T15:16:46.481Z</time></trkpt><trkpt lat="39.821775" lon="16.1946933"><ele>408.66666666666663</ele><time>2026-05-03T15:16:47.486Z</time></trkpt><trkpt lat="39.8216083" lon="16.194825"><ele>408.0</ele><time>2026-05-03T15:16:48.482Z</time></trkpt><trkpt lat="39.821445" lon="16.1949533"><ele>407.66666666666663</ele><time>2026-05-03T15:16:49.481Z</time></trkpt><trkpt lat="39.82128" lon="16.1950733"><ele>407.3333333333333</ele><time>2026-05-03T15:16:50.482Z</time></trkpt><trkpt lat="39.821125" lon="16.1951967"><ele>407.0</ele><time>2026-05-03T15:16:51.482Z</time></trkpt><trkpt lat="39.82098" lon="16.1953067"><ele>406.66666666666663</ele><time>2026-05-03T15:16:52.486Z</time></trkpt><trkpt lat="39.8208267" lon="16.19541"><ele>406.33333333333337</ele><time>2026-05-03T15:16:53.482Z</time></trkpt><trkpt lat="39.8206933" lon="16.19551"><ele>406.0</ele><time>2026-05-03T15:16:54.482Z</time></trkpt><trkpt lat="39.820565" lon="16.1956133"><ele>406.0</ele><time>2026-05-03T15:16:55.482Z</time></trkpt><trkpt lat="39.82044" lon="16.1956983"><ele>406.0</ele><time>2026-05-03T15:16:56.483Z</time></trkpt><trkpt lat="39.8203267" lon="16.1958083"><ele>406.0</ele><time>2026-05-03T15:16:57.483Z</time></trkpt><trkpt lat="39.82021" lon="16.1959167"><ele>406.0</ele><time>2026-05-03T15:16:58.482Z</time></trkpt><trkpt lat="39.820105" lon="16.195985"><ele>404.5</ele><time>2026-05-03T15:16:59.482Z</time></trkpt><trkpt lat="39.81999" lon="16.19608"><ele>403.0</ele><time>2026-05-03T15:17:00.483Z</time></trkpt><trkpt lat="39.8198817" lon="16.1961533"><ele>401.5</ele><time>2026-05-03T15:17:01.482Z</time></trkpt><trkpt lat="39.8197817" lon="16.1962333"><ele>400.0</ele><time>2026-05-03T15:17:02.483Z</time></trkpt><trkpt lat="39.8196817" lon="16.1963133"><ele>400.0</ele><time>2026-05-03T15:17:03.482Z</time></trkpt><trkpt lat="39.8195767" lon="16.196395"><ele>400.0</ele><time>2026-05-03T15:17:04.482Z</time></trkpt><trkpt lat="39.8194667" lon="16.19648"><ele>400.0</ele><time>2026-05-03T15:17:05.482Z</time></trkpt><trkpt lat="39.8193567" lon="16.19658"><ele>400.0</ele><time>2026-05-03T15:17:06.482Z</time></trkpt><trkpt lat="39.8192383" lon="16.1966817"><ele>398.6666666666667</ele><time>2026-05-03T15:17:07.482Z</time></trkpt><trkpt lat="39.8191133" lon="16.1967817"><ele>397.33333333333337</ele><time>2026-05-03T15:17:08.484Z</time></trkpt><trkpt lat="39.818985" lon="16.1968817"><ele>396.0</ele><time>2026-05-03T15:17:09.481Z</time></trkpt><trkpt lat="39.8188467" lon="16.1969833"><ele>396.0</ele><time>2026-05-03T15:17:10.482Z</time></trkpt><trkpt lat="39.818705" lon="16.1970783"><ele>396.0</ele><time>2026-05-03T15:17:11.481Z</time></trkpt><trkpt lat="39.8185617" lon="16.19717"><ele>396.0</ele><time>2026-05-03T15:17:12.482Z</time></trkpt><trkpt lat="39.818425" lon="16.1972733"><ele>396.0</ele><time>2026-05-03T15:17:13.482Z</time></trkpt><trkpt lat="39.818285" lon="16.1973683"><ele>396.0</ele><time>2026-05-03T15:17:14.482Z</time></trkpt><trkpt lat="39.8181517" lon="16.1974633"><ele>396.0</ele><time>2026-05-03T15:17:15.482Z</time></trkpt><trkpt lat="39.8180217" lon="16.19756"><ele>396.0</ele><time>2026-05-03T15:17:16.482Z</time></trkpt><trkpt lat="39.8179183" lon="16.1976417"><ele>396.0</ele><time>2026-05-03T15:17:17.481Z</time></trkpt><trkpt lat="39.8178383" lon="16.1977083"><ele>396.0</ele><time>2026-05-03T15:17:18.482Z</time></trkpt><trkpt lat="39.817775" lon="16.1977617"><ele>396.0</ele><time>2026-05-03T15:17:19.482Z</time></trkpt><trkpt lat="39.81769" lon="16.1978217"><ele>396.0</ele><time>2026-05-03T15:17:21.482Z</time></trkpt><trkpt lat="39.8176683" lon="16.1979333"><ele>396.0</ele><time>2026-05-03T15:17:53.483Z</time></trkpt><trkpt lat="39.817705" lon="16.198025"><ele>396.0</ele><time>2026-05-03T15:17:54.482Z</time></trkpt><trkpt lat="39.8177633" lon="16.1981417"><ele>396.0</ele><time>2026-05-03T15:17:55.482Z</time></trkpt><trkpt lat="39.817815" lon="16.1982517"><ele>396.0</ele><time>2026-05-03T15:17:56.483Z</time></trkpt><trkpt lat="39.8178817" lon="16.1983783"><ele>396.0</ele><time>2026-05-03T15:17:57.481Z</time></trkpt><trkpt lat="39.8179367" lon="16.1984617"><ele>395.6666666666667</ele><time>2026-05-03T15:17:58.483Z</time></trkpt><trkpt lat="39.817975" lon="16.19854"><ele>395.33333333333337</ele><time>2026-05-03T15:17:59.483Z</time></trkpt><trkpt lat="39.8180233" lon="16.1986217"><ele>395.0</ele><time>2026-05-03T15:18:00.483Z</time></trkpt><trkpt lat="39.8180767" lon="16.19874"><ele>394.6666666666667</ele><time>2026-05-03T15:18:01.482Z</time></trkpt><trkpt lat="39.818125" lon="16.19884"><ele>394.33333333333337</ele><time>2026-05-03T15:18:02.483Z</time></trkpt><trkpt lat="39.8181717" lon="16.198935"><ele>394.0</ele><time>2026-05-03T15:18:03.482Z</time></trkpt><trkpt lat="39.8182217" lon="16.1990283"><ele>393.83333333333337</ele><time>2026-05-03T15:18:04.484Z</time></trkpt><trkpt lat="39.81827" lon="16.1991233"><ele>393.6666666666667</ele><time>2026-05-03T15:18:05.483Z</time></trkpt><trkpt lat="39.818315" lon="16.199215"><ele>393.5</ele><time>2026-05-03T15:18:06.482Z</time></trkpt><trkpt lat="39.8183617" lon="16.1992917"><ele>393.33333333333337</ele><time>2026-05-03T15:18:07.483Z</time></trkpt><trkpt lat="39.8184033" lon="16.19936"><ele>393.1666666666667</ele><time>2026-05-03T15:18:08.483Z</time></trkpt><trkpt lat="39.8184683" lon="16.1994783"><ele>393.0</ele><time>2026-05-03T15:18:10.482Z</time></trkpt><trkpt lat="39.8185233" lon="16.1995717"><ele>393.0</ele><time>2026-05-03T15:18:12.482Z</time></trkpt><trkpt lat="39.8185883" lon="16.19966"><ele>393.0</ele><time>2026-05-03T15:18:14.482Z</time></trkpt><trkpt lat="39.81866" lon="16.199775"><ele>393.0</ele><time>2026-05-03T15:18:16.482Z</time></trkpt><trkpt lat="39.8186967" lon="16.1998517"><ele>393.0</ele><time>2026-05-03T15:18:17.481Z</time></trkpt><trkpt lat="39.8187317" lon="16.1999333"><ele>393.0</ele><time>2026-05-03T15:18:18.482Z</time></trkpt><trkpt lat="39.8187717" lon="16.2000167"><ele>393.0</ele><time>2026-05-03T15:18:19.482Z</time></trkpt><trkpt lat="39.81881" lon="16.2001067"><ele>392.8333333333333</ele><time>2026-05-03T15:18:20.482Z</time></trkpt><trkpt lat="39.8188533" lon="16.2001967"><ele>392.66666666666663</ele><time>2026-05-03T15:18:21.482Z</time></trkpt><trkpt lat="39.8189017" lon="16.200285"><ele>392.5</ele><time>2026-05-03T15:18:22.481Z</time></trkpt><trkpt lat="39.81895" lon="16.2003767"><ele>392.3333333333333</ele><time>2026-05-03T15:18:23.482Z</time></trkpt><trkpt lat="39.8189917" lon="16.2004667"><ele>392.16666666666663</ele><time>2026-05-03T15:18:24.481Z</time></trkpt><trkpt lat="39.81903" lon="16.2005483"><ele>392.0</ele><time>2026-05-03T15:18:25.482Z</time></trkpt><trkpt lat="39.8190983" lon="16.2006767"><ele>391.66666666666663</ele><time>2026-05-03T15:18:27.481Z</time></trkpt><trkpt lat="39.8191533" lon="16.20078"><ele>391.3333333333333</ele><time>2026-05-03T15:18:29.482Z</time></trkpt><trkpt lat="39.8192367" lon="16.2008917"><ele>391.0</ele><time>2026-05-03T15:18:31.482Z</time></trkpt><trkpt lat="39.8192917" lon="16.200945"><ele>390.66666666666663</ele><time>2026-05-03T15:18:32.483Z</time></trkpt><trkpt lat="39.81934" lon="16.20101"><ele>390.3333333333333</ele><time>2026-05-03T15:18:33.481Z</time></trkpt><trkpt lat="39.8194" lon="16.2010767"><ele>390.0</ele><time>2026-05-03T15:18:34.482Z</time></trkpt><trkpt lat="39.8194533" lon="16.20114"><ele>390.0</ele><time>2026-05-03T15:18:35.483Z</time></trkpt><trkpt lat="39.8195" lon="16.2012033"><ele>390.0</ele><time>2026-05-03T15:18:36.482Z</time></trkpt><trkpt lat="39.819545" lon="16.2012667"><ele>390.0</ele><time>2026-05-03T15:18:37.482Z</time></trkpt><trkpt lat="39.8195933" lon="16.2013317"><ele>390.0</ele><time>2026-05-03T15:18:38.481Z</time></trkpt><trkpt lat="39.8196533" lon="16.2013983"><ele>390.0</ele><time>2026-05-03T15:18:39.482Z</time></trkpt><trkpt lat="39.81972" lon="16.20148"><ele>390.0</ele><time>2026-05-03T15:18:40.482Z</time></trkpt><trkpt lat="39.8197883" lon="16.2015767"><ele>389.0</ele><time>2026-05-03T15:18:41.483Z</time></trkpt><trkpt lat="39.81986" lon="16.2016867"><ele>388.0</ele><time>2026-05-03T15:18:42.481Z</time></trkpt><trkpt lat="39.8199433" lon="16.20181"><ele>387.0</ele><time>2026-05-03T15:18:43.481Z</time></trkpt><trkpt lat="39.8200333" lon="16.20194"><ele>386.0</ele><time>2026-05-03T15:18:44.483Z</time></trkpt><trkpt lat="39.820135" lon="16.2020717"><ele>385.75</ele><time>2026-05-03T15:18:45.482Z</time></trkpt><trkpt lat="39.8202333" lon="16.2022"><ele>385.5</ele><time>2026-05-03T15:18:46.481Z</time></trkpt><trkpt lat="39.8203317" lon="16.2023317"><ele>385.25</ele><time>2026-05-03T15:18:47.482Z</time></trkpt><trkpt lat="39.8204283" lon="16.2024633"><ele>385.0</ele><time>2026-05-03T15:18:48.482Z</time></trkpt><trkpt lat="39.8205183" lon="16.202595"><ele>385.0</ele><time>2026-05-03T15:18:49.482Z</time></trkpt><trkpt lat="39.8205983" lon="16.2027167"><ele>385.0</ele><time>2026-05-03T15:18:50.482Z</time></trkpt><trkpt lat="39.8206633" lon="16.2028217"><ele>385.0</ele><time>2026-05-03T15:18:51.482Z</time></trkpt><trkpt lat="39.820715" lon="16.202905"><ele>385.0</ele><time>2026-05-03T15:18:52.482Z</time></trkpt><trkpt lat="39.8207567" lon="16.20298"><ele>385.0</ele><time>2026-05-03T15:18:53.481Z</time></trkpt><trkpt lat="39.8208417" lon="16.2030817"><ele>385.00000000000006</ele><time>2026-05-03T15:18:55.484Z</time></trkpt><trkpt lat="39.8209483" lon="16.2031233"><ele>385.0</ele><time>2026-05-03T15:18:57.483Z</time></trkpt><trkpt lat="39.8210167" lon="16.2031117"><ele>385.0</ele><time>2026-05-03T15:18:58.482Z</time></trkpt><trkpt lat="39.8210933" lon="16.2030983"><ele>385.0</ele><time>2026-05-03T15:18:59.483Z</time></trkpt><trkpt lat="39.82118" lon="16.20311"><ele>385.00000000000006</ele><time>2026-05-03T15:19:00.482Z</time></trkpt><trkpt lat="39.8212733" lon="16.2031183"><ele>385.0</ele><time>2026-05-03T15:19:01.482Z</time></trkpt><trkpt lat="39.8213817" lon="16.20313"><ele>385.25</ele><time>2026-05-03T15:19:02.482Z</time></trkpt><trkpt lat="39.82149" lon="16.20315"><ele>385.5</ele><time>2026-05-03T15:19:03.482Z</time></trkpt><trkpt lat="39.8216133" lon="16.20317"><ele>385.75</ele><time>2026-05-03T15:19:04.483Z</time></trkpt><trkpt lat="39.8217283" lon="16.20319"><ele>386.0</ele><time>2026-05-03T15:19:05.482Z</time></trkpt><trkpt lat="39.82185" lon="16.2032067"><ele>386.5</ele><time>2026-05-03T15:19:06.482Z</time></trkpt><trkpt lat="39.821965" lon="16.2032267"><ele>387.0</ele><time>2026-05-03T15:19:07.482Z</time></trkpt><trkpt lat="39.8220667" lon="16.2032717"><ele>387.5</ele><time>2026-05-03T15:19:08.483Z</time></trkpt><trkpt lat="39.8221667" lon="16.20336"><ele>388.0</ele><time>2026-05-03T15:19:09.482Z</time></trkpt><trkpt lat="39.822245" lon="16.20347"><ele>388.0</ele><time>2026-05-03T15:19:10.482Z</time></trkpt><trkpt lat="39.8223017" lon="16.2036067"><ele>388.0</ele><time>2026-05-03T15:19:11.482Z</time></trkpt><trkpt lat="39.8223383" lon="16.2037733"><ele>388.0</ele><time>2026-05-03T15:19:12.483Z</time></trkpt><trkpt lat="39.82237" lon="16.2039433"><ele>388.0</ele><time>2026-05-03T15:19:13.483Z</time></trkpt><trkpt lat="39.8223967" lon="16.2040917"><ele>388.0</ele><time>2026-05-03T15:19:14.481Z</time></trkpt><trkpt lat="39.8224333" lon="16.2042467"><ele>388.0</ele><time>2026-05-03T15:19:15.481Z</time></trkpt><trkpt lat="39.822475" lon="16.2043867"><ele>388.0</ele><time>2026-05-03T15:19:16.483Z</time></trkpt><trkpt lat="39.8225" lon="16.2044983"><ele>388.0</ele><time>2026-05-03T15:19:17.482Z</time></trkpt><trkpt lat="39.82253" lon="16.2046033"><ele>388.0</ele><time>2026-05-03T15:19:18.482Z</time></trkpt><trkpt lat="39.8225517" lon="16.2046917"><ele>388.0</ele><time>2026-05-03T15:19:19.482Z</time></trkpt><trkpt lat="39.822595" lon="16.2048633"><ele>388.0</ele><time>2026-05-03T15:19:21.482Z</time></trkpt><trkpt lat="39.8226217" lon="16.2049783"><ele>388.0</ele><time>2026-05-03T15:19:22.483Z</time></trkpt><trkpt lat="39.8226467" lon="16.2051117"><ele>388.0</ele><time>2026-05-03T15:19:23.482Z</time></trkpt><trkpt lat="39.8226733" lon="16.20526"><ele>388.25</ele><time>2026-05-03T15:19:24.481Z</time></trkpt><trkpt lat="39.8227" lon="16.2054167"><ele>388.5</ele><time>2026-05-03T15:19:25.483Z</time></trkpt><trkpt lat="39.8227233" lon="16.205575"><ele>388.75</ele><time>2026-05-03T15:19:26.483Z</time></trkpt><trkpt lat="39.82273" lon="16.2057317"><ele>389.0</ele><time>2026-05-03T15:19:27.482Z</time></trkpt><trkpt lat="39.8227133" lon="16.2058967"><ele>388.25</ele><time>2026-05-03T15:19:28.482Z</time></trkpt><trkpt lat="39.8226733" lon="16.206055"><ele>387.5</ele><time>2026-05-03T15:19:29.482Z</time></trkpt><trkpt lat="39.8226017" lon="16.2062083"><ele>386.75</ele><time>2026-05-03T15:19:30.481Z</time></trkpt><trkpt lat="39.8225117" lon="16.20636"><ele>386.0</ele><time>2026-05-03T15:19:31.482Z</time></trkpt><trkpt lat="39.8224067" lon="16.2065067"><ele>384.3333333333333</ele><time>2026-05-03T15:19:32.483Z</time></trkpt><trkpt lat="39.8222933" lon="16.2066417"><ele>382.66666666666663</ele><time>2026-05-03T15:19:33.482Z</time></trkpt><trkpt lat="39.82218" lon="16.206775"><ele>381.0</ele><time>2026-05-03T15:19:34.483Z</time></trkpt><trkpt lat="39.8220617" lon="16.2069067"><ele>381.0</ele><time>2026-05-03T15:19:35.483Z</time></trkpt><trkpt lat="39.8219467" lon="16.20705"><ele>381.0</ele><time>2026-05-03T15:19:36.483Z</time></trkpt><trkpt lat="39.8218317" lon="16.2072017"><ele>381.0</ele><time>2026-05-03T15:19:37.484Z</time></trkpt><trkpt lat="39.8217167" lon="16.2073533"><ele>379.0</ele><time>2026-05-03T15:19:38.484Z</time></trkpt><trkpt lat="39.821605" lon="16.2075067"><ele>377.0</ele><time>2026-05-03T15:19:39.481Z</time></trkpt><trkpt lat="39.8215" lon="16.20765"><ele>375.0</ele><time>2026-05-03T15:19:40.482Z</time></trkpt><trkpt lat="39.8213967" lon="16.2078"><ele>375.0</ele><time>2026-05-03T15:19:41.481Z</time></trkpt><trkpt lat="39.8212883" lon="16.2079533"><ele>375.0</ele><time>2026-05-03T15:19:42.481Z</time></trkpt><trkpt lat="39.8211767" lon="16.2081033"><ele>375.0</ele><time>2026-05-03T15:19:43.481Z</time></trkpt><trkpt lat="39.821065" lon="16.2082567"><ele>375.0</ele><time>2026-05-03T15:19:44.483Z</time></trkpt><trkpt lat="39.8209567" lon="16.2084017"><ele>375.0</ele><time>2026-05-03T15:19:45.483Z</time></trkpt><trkpt lat="39.82085" lon="16.208535"><ele>375.0</ele><time>2026-05-03T15:19:46.481Z</time></trkpt><trkpt lat="39.8207517" lon="16.208655"><ele>375.0</ele><time>2026-05-03T15:19:47.482Z</time></trkpt><trkpt lat="39.8206667" lon="16.2087583"><ele>375.0</ele><time>2026-05-03T15:19:48.481Z</time></trkpt><trkpt lat="39.8205917" lon="16.2088517"><ele>375.0</ele><time>2026-05-03T15:19:49.482Z</time></trkpt><trkpt lat="39.8205233" lon="16.2089383"><ele>375.0</ele><time>2026-05-03T15:19:50.482Z</time></trkpt><trkpt lat="39.82046" lon="16.2090167"><ele>375.0</ele><time>2026-05-03T15:19:51.483Z</time></trkpt><trkpt lat="39.8204067" lon="16.20907"><ele>375.0</ele><time>2026-05-03T15:19:52.482Z</time></trkpt><trkpt lat="39.8202983" lon="16.2091433"><ele>374.6</ele><time>2026-05-03T15:19:54.482Z</time></trkpt><trkpt lat="39.820215" lon="16.2092683"><ele>374.2</ele><time>2026-05-03T15:19:56.482Z</time></trkpt><trkpt lat="39.8201917" lon="16.2093517"><ele>373.79999999999995</ele><time>2026-05-03T15:19:57.482Z</time></trkpt><trkpt lat="39.8201733" lon="16.2094383"><ele>373.4</ele><time>2026-05-03T15:19:58.483Z</time></trkpt><trkpt lat="39.8201283" lon="16.2095333"><ele>373.0</ele><time>2026-05-03T15:19:59.482Z</time></trkpt><trkpt lat="39.8200567" lon="16.2096517"><ele>372.5</ele><time>2026-05-03T15:20:00.483Z</time></trkpt><trkpt lat="39.8199733" lon="16.2097883"><ele>372.0</ele><time>2026-05-03T15:20:01.482Z</time></trkpt><trkpt lat="39.8198917" lon="16.2099367"><ele>371.5</ele><time>2026-05-03T15:20:02.483Z</time></trkpt><trkpt lat="39.8198" lon="16.2101033"><ele>371.0</ele><time>2026-05-03T15:20:03.483Z</time></trkpt><trkpt lat="39.8197017" lon="16.21026"><ele>370.0</ele><time>2026-05-03T15:20:04.483Z</time></trkpt><trkpt lat="39.8195933" lon="16.2104167"><ele>369.0</ele><time>2026-05-03T15:20:05.482Z</time></trkpt><trkpt lat="39.8194733" lon="16.2105683"><ele>368.0</ele><time>2026-05-03T15:20:06.483Z</time></trkpt><trkpt lat="39.8193517" lon="16.21071"><ele>367.75</ele><time>2026-05-03T15:20:07.482Z</time></trkpt><trkpt lat="39.8192367" lon="16.2108433"><ele>367.5</ele><time>2026-05-03T15:20:08.483Z</time></trkpt><trkpt lat="39.819125" lon="16.21097"><ele>367.25</ele><time>2026-05-03T15:20:09.482Z</time></trkpt><trkpt lat="39.8190217" lon="16.21108"><ele>367.0</ele><time>2026-05-03T15:20:10.482Z</time></trkpt><trkpt lat="39.8189283" lon="16.2111833"><ele>367.0</ele><time>2026-05-03T15:20:11.481Z</time></trkpt><trkpt lat="39.8188333" lon="16.211275"><ele>367.0</ele><time>2026-05-03T15:20:12.482Z</time></trkpt><trkpt lat="39.8187367" lon="16.2113483"><ele>367.0</ele><time>2026-05-03T15:20:13.484Z</time></trkpt><trkpt lat="39.81863" lon="16.21141"><ele>367.0</ele><time>2026-05-03T15:20:14.482Z</time></trkpt><trkpt lat="39.8184817" lon="16.211385"><ele>366.3333333333333</ele><time>2026-05-03T15:20:15.482Z</time></trkpt><trkpt lat="39.8183117" lon="16.2114217"><ele>365.6666666666667</ele><time>2026-05-03T15:20:16.484Z</time></trkpt><trkpt lat="39.8181717" lon="16.2114267"><ele>365.0</ele><time>2026-05-03T15:20:17.484Z</time></trkpt><trkpt lat="39.8180267" lon="16.2114017"><ele>365.0</ele><time>2026-05-03T15:20:18.484Z</time></trkpt><trkpt lat="39.8179017" lon="16.2114133"><ele>365.0</ele><time>2026-05-03T15:20:19.482Z</time></trkpt><trkpt lat="39.8177917" lon="16.2114267"><ele>365.0</ele><time>2026-05-03T15:20:20.483Z</time></trkpt><trkpt lat="39.8176833" lon="16.2114367"><ele>365.0</ele><time>2026-05-03T15:20:21.482Z</time></trkpt><trkpt lat="39.8176117" lon="16.2114533"><ele>365.0</ele><time>2026-05-03T15:20:22.482Z</time></trkpt><trkpt lat="39.8175333" lon="16.21146"><ele>364.4</ele><time>2026-05-03T15:20:23.483Z</time></trkpt><trkpt lat="39.8174283" lon="16.2114483"><ele>363.8</ele><time>2026-05-03T15:20:25.481Z</time></trkpt><trkpt lat="39.81733" lon="16.2113783"><ele>363.20000000000005</ele><time>2026-05-03T15:20:27.482Z</time></trkpt><trkpt lat="39.817275" lon="16.2113367"><ele>362.6</ele><time>2026-05-03T15:20:28.482Z</time></trkpt><trkpt lat="39.817195" lon="16.2113467"><ele>362.0</ele><time>2026-05-03T15:20:30.482Z</time></trkpt><trkpt lat="39.8172017" lon="16.21149"><ele>362.0</ele><time>2026-05-03T15:20:32.482Z</time></trkpt><trkpt lat="39.8172283" lon="16.211605"><ele>362.0</ele><time>2026-05-03T15:20:33.482Z</time></trkpt><trkpt lat="39.81726" lon="16.2117417"><ele>362.0</ele><time>2026-05-03T15:20:34.481Z</time></trkpt><trkpt lat="39.817295" lon="16.2118983"><ele>362.0</ele><time>2026-05-03T15:20:35.483Z</time></trkpt><trkpt lat="39.8173333" lon="16.2120667"><ele>362.0</ele><time>2026-05-03T15:20:36.481Z</time></trkpt><trkpt lat="39.81737" lon="16.2122333"><ele>362.0</ele><time>2026-05-03T15:20:37.482Z</time></trkpt><trkpt lat="39.8174017" lon="16.212395"><ele>362.0</ele><time>2026-05-03T15:20:38.484Z</time></trkpt><trkpt lat="39.8174283" lon="16.2125483"><ele>362.0</ele><time>2026-05-03T15:20:39.482Z</time></trkpt><trkpt lat="39.8174483" lon="16.2126883"><ele>361.83333333333337</ele><time>2026-05-03T15:20:40.481Z</time></trkpt><trkpt lat="39.8174683" lon="16.2128117"><ele>361.6666666666667</ele><time>2026-05-03T15:20:41.482Z</time></trkpt><trkpt lat="39.8174933" lon="16.2129217"><ele>361.5</ele><time>2026-05-03T15:20:42.482Z</time></trkpt><trkpt lat="39.8175217" lon="16.2130283"><ele>361.3333333333333</ele><time>2026-05-03T15:20:43.483Z</time></trkpt><trkpt lat="39.8175467" lon="16.2131333"><ele>361.16666666666663</ele><time>2026-05-03T15:20:44.484Z</time></trkpt><trkpt lat="39.8175717" lon="16.2132367"><ele>361.0</ele><time>2026-05-03T15:20:45.482Z</time></trkpt><trkpt lat="39.8175933" lon="16.2133333"><ele>360.8333333333333</ele><time>2026-05-03T15:20:46.482Z</time></trkpt><trkpt lat="39.8176133" lon="16.2134183"><ele>360.66666666666663</ele><time>2026-05-03T15:20:47.482Z</time></trkpt><trkpt lat="39.8176317" lon="16.2135"><ele>360.5</ele><time>2026-05-03T15:20:48.482Z</time></trkpt><trkpt lat="39.8176583" lon="16.2136433"><ele>360.3333333333333</ele><time>2026-05-03T15:20:50.483Z</time></trkpt><trkpt lat="39.8176767" lon="16.2137767"><ele>360.1666666666667</ele><time>2026-05-03T15:20:52.482Z</time></trkpt><trkpt lat="39.817705" lon="16.2138717"><ele>360.0</ele><time>2026-05-03T15:20:55.483Z</time></trkpt><trkpt lat="39.8177167" lon="16.2139717"><ele>360.0</ele><time>2026-05-03T15:21:29.484Z</time></trkpt><trkpt lat="39.8177717" lon="16.2141367"><ele>360.0</ele><time>2026-05-03T15:21:31.482Z</time></trkpt><trkpt lat="39.8178067" lon="16.21426"><ele>360.0</ele><time>2026-05-03T15:21:32.483Z</time></trkpt><trkpt lat="39.81784" lon="16.2144"><ele>360.0</ele><time>2026-05-03T15:21:33.481Z</time></trkpt><trkpt lat="39.81787" lon="16.2145467"><ele>360.0</ele><time>2026-05-03T15:21:34.481Z</time></trkpt><trkpt lat="39.8179017" lon="16.2147083"><ele>360.0</ele><time>2026-05-03T15:21:35.482Z</time></trkpt><trkpt lat="39.81794" lon="16.2148783"><ele>360.0</ele><time>2026-05-03T15:21:36.482Z</time></trkpt><trkpt lat="39.8179817" lon="16.2150567"><ele>360.0</ele><time>2026-05-03T15:21:37.482Z</time></trkpt><trkpt lat="39.8180233" lon="16.2152417"><ele>359.6666666666667</ele><time>2026-05-03T15:21:38.483Z</time></trkpt><trkpt lat="39.81807" lon="16.2154383"><ele>359.33333333333337</ele><time>2026-05-03T15:21:39.481Z</time></trkpt><trkpt lat="39.8181117" lon="16.2156333"><ele>359.0</ele><time>2026-05-03T15:21:40.482Z</time></trkpt><trkpt lat="39.8181517" lon="16.2158267"><ele>358.6666666666667</ele><time>2026-05-03T15:21:41.481Z</time></trkpt><trkpt lat="39.8181967" lon="16.2160183"><ele>358.3333333333333</ele><time>2026-05-03T15:21:42.482Z</time></trkpt><trkpt lat="39.8182383" lon="16.2162183"><ele>358.0</ele><time>2026-05-03T15:21:43.483Z</time></trkpt><trkpt lat="39.81828" lon="16.2164167"><ele>357.3333333333333</ele><time>2026-05-03T15:21:44.483Z</time></trkpt><trkpt lat="39.8183283" lon="16.2166167"><ele>356.6666666666667</ele><time>2026-05-03T15:21:45.483Z</time></trkpt><trkpt lat="39.8183717" lon="16.216825"><ele>356.0</ele><time>2026-05-03T15:21:46.483Z</time></trkpt><trkpt lat="39.818415" lon="16.21704"><ele>356.0</ele><time>2026-05-03T15:21:47.482Z</time></trkpt><trkpt lat="39.8184633" lon="16.21725"><ele>356.0</ele><time>2026-05-03T15:21:48.482Z</time></trkpt><trkpt lat="39.81851" lon="16.21746"><ele>356.0</ele><time>2026-05-03T15:21:49.483Z</time></trkpt><trkpt lat="39.8185583" lon="16.2176717"><ele>355.0</ele><time>2026-05-03T15:21:50.482Z</time></trkpt><trkpt lat="39.8186067" lon="16.2178883"><ele>354.0</ele><time>2026-05-03T15:21:51.482Z</time></trkpt><trkpt lat="39.8186533" lon="16.2181033"><ele>353.0</ele><time>2026-05-03T15:21:52.482Z</time></trkpt><trkpt lat="39.8187033" lon="16.2183217"><ele>352.33333333333337</ele><time>2026-05-03T15:21:53.482Z</time></trkpt><trkpt lat="39.8187533" lon="16.2185367"><ele>351.6666666666667</ele><time>2026-05-03T15:21:54.486Z</time></trkpt><trkpt lat="39.818805" lon="16.2187483"><ele>351.0</ele><time>2026-05-03T15:21:55.482Z</time></trkpt><trkpt lat="39.8188567" lon="16.2189583"><ele>350.6666666666667</ele><time>2026-05-03T15:21:56.483Z</time></trkpt><trkpt lat="39.8189033" lon="16.2191733"><ele>350.33333333333337</ele><time>2026-05-03T15:21:57.482Z</time></trkpt><trkpt lat="39.8189433" lon="16.2193867"><ele>350.0</ele><time>2026-05-03T15:21:58.482Z</time></trkpt><trkpt lat="39.81899" lon="16.2195983"><ele>350.0</ele><time>2026-05-03T15:21:59.481Z</time></trkpt><trkpt lat="39.81904" lon="16.2198167"><ele>350.0</ele><time>2026-05-03T15:22:00.481Z</time></trkpt><trkpt lat="39.8190883" lon="16.22004"><ele>350.0</ele><time>2026-05-03T15:22:01.481Z</time></trkpt><trkpt lat="39.819135" lon="16.2202617"><ele>349.6666666666667</ele><time>2026-05-03T15:22:02.482Z</time></trkpt><trkpt lat="39.8191833" lon="16.2204867"><ele>349.3333333333333</ele><time>2026-05-03T15:22:03.481Z</time></trkpt><trkpt lat="39.819235" lon="16.2207133"><ele>349.0</ele><time>2026-05-03T15:22:04.481Z</time></trkpt><trkpt lat="39.8192867" lon="16.22094"><ele>348.0</ele><time>2026-05-03T15:22:05.481Z</time></trkpt><trkpt lat="39.81934" lon="16.221165"><ele>347.0</ele><time>2026-05-03T15:22:06.481Z</time></trkpt><trkpt lat="39.8193883" lon="16.221385"><ele>346.0</ele><time>2026-05-03T15:22:07.481Z</time></trkpt><trkpt lat="39.8194383" lon="16.2216017"><ele>345.66666666666663</ele><time>2026-05-03T15:22:08.482Z</time></trkpt><trkpt lat="39.8194833" lon="16.2218183"><ele>345.3333333333333</ele><time>2026-05-03T15:22:09.481Z</time></trkpt><trkpt lat="39.81953" lon="16.22203"><ele>345.0</ele><time>2026-05-03T15:22:10.483Z</time></trkpt><trkpt lat="39.8195817" lon="16.2222417"><ele>344.3333333333333</ele><time>2026-05-03T15:22:11.481Z</time></trkpt><trkpt lat="39.8196267" lon="16.2224583"><ele>343.66666666666663</ele><time>2026-05-03T15:22:12.481Z</time></trkpt><trkpt lat="39.8196717" lon="16.222675"><ele>343.0</ele><time>2026-05-03T15:22:13.481Z</time></trkpt><trkpt lat="39.8197167" lon="16.2228917"><ele>343.0</ele><time>2026-05-03T15:22:14.482Z</time></trkpt><trkpt lat="39.81976" lon="16.2231033"><ele>343.0</ele><time>2026-05-03T15:22:15.481Z</time></trkpt><trkpt lat="39.819805" lon="16.22331"><ele>343.0</ele><time>2026-05-03T15:22:16.481Z</time></trkpt><trkpt lat="39.81985" lon="16.2235183"><ele>343.3333333333333</ele><time>2026-05-03T15:22:17.481Z</time></trkpt><trkpt lat="39.8198967" lon="16.2237267"><ele>343.6666666666667</ele><time>2026-05-03T15:22:18.481Z</time></trkpt><trkpt lat="39.8199417" lon="16.2239317"><ele>344.0</ele><time>2026-05-03T15:22:19.48Z</time></trkpt><trkpt lat="39.81999" lon="16.2241317"><ele>343.33333333333337</ele><time>2026-05-03T15:22:20.481Z</time></trkpt><trkpt lat="39.8200383" lon="16.2243317"><ele>342.6666666666667</ele><time>2026-05-03T15:22:21.48Z</time></trkpt><trkpt lat="39.8200833" lon="16.22453"><ele>342.0</ele><time>2026-05-03T15:22:22.481Z</time></trkpt><trkpt lat="39.8201233" lon="16.2247283"><ele>343.0</ele><time>2026-05-03T15:22:23.481Z</time></trkpt><trkpt lat="39.82016" lon="16.224925"><ele>344.0</ele><time>2026-05-03T15:22:24.482Z</time></trkpt><trkpt lat="39.8201883" lon="16.2251117"><ele>345.0</ele><time>2026-05-03T15:22:25.481Z</time></trkpt><trkpt lat="39.8202" lon="16.2252817"><ele>346.0</ele><time>2026-05-03T15:22:26.481Z</time></trkpt><trkpt lat="39.8201967" lon="16.2254267"><ele>346.0</ele><time>2026-05-03T15:22:27.481Z</time></trkpt><trkpt lat="39.8201783" lon="16.2255533"><ele>346.0</ele><time>2026-05-03T15:22:28.482Z</time></trkpt><trkpt lat="39.8201483" lon="16.22567"><ele>346.0</ele><time>2026-05-03T15:22:29.481Z</time></trkpt><trkpt lat="39.820105" lon="16.2257917"><ele>346.0</ele><time>2026-05-03T15:22:30.481Z</time></trkpt><trkpt lat="39.8200483" lon="16.22593"><ele>346.0</ele><time>2026-05-03T15:22:31.481Z</time></trkpt><trkpt lat="39.8199783" lon="16.2260733"><ele>345.3333333333333</ele><time>2026-05-03T15:22:32.482Z</time></trkpt><trkpt lat="39.8199067" lon="16.2262317"><ele>344.6666666666667</ele><time>2026-05-03T15:22:33.481Z</time></trkpt><trkpt lat="39.8198267" lon="16.2264067"><ele>344.0</ele><time>2026-05-03T15:22:34.481Z</time></trkpt><trkpt lat="39.8197433" lon="16.226595"><ele>344.0</ele><time>2026-05-03T15:22:35.482Z</time></trkpt><trkpt lat="39.8196567" lon="16.2267967"><ele>344.0</ele><time>2026-05-03T15:22:36.481Z</time></trkpt><trkpt lat="39.8195667" lon="16.2270133"><ele>344.0</ele><time>2026-05-03T15:22:37.483Z</time></trkpt><trkpt lat="39.8194717" lon="16.2272417"><ele>344.0</ele><time>2026-05-03T15:22:38.481Z</time></trkpt><trkpt lat="39.819375" lon="16.2274833"><ele>344.0</ele><time>2026-05-03T15:22:39.48Z</time></trkpt><trkpt lat="39.819275" lon="16.22773"><ele>344.0</ele><time>2026-05-03T15:22:40.48Z</time></trkpt><trkpt lat="39.8191717" lon="16.2279783"><ele>344.0</ele><time>2026-05-03T15:22:41.48Z</time></trkpt><trkpt lat="39.8190683" lon="16.2282283"><ele>344.0</ele><time>2026-05-03T15:22:42.481Z</time></trkpt><trkpt lat="39.8189683" lon="16.2284717"><ele>344.0</ele><time>2026-05-03T15:22:43.482Z</time></trkpt><trkpt lat="39.8188767" lon="16.2287067"><ele>344.0</ele><time>2026-05-03T15:22:44.482Z</time></trkpt><trkpt lat="39.8187867" lon="16.22893"><ele>344.0</ele><time>2026-05-03T15:22:45.48Z</time></trkpt><trkpt lat="39.818705" lon="16.2291383"><ele>344.0</ele><time>2026-05-03T15:22:46.481Z</time></trkpt><trkpt lat="39.8186283" lon="16.2293333"><ele>344.0</ele><time>2026-05-03T15:22:47.483Z</time></trkpt><trkpt lat="39.8185533" lon="16.2295183"><ele>344.0</ele><time>2026-05-03T15:22:48.481Z</time></trkpt><trkpt lat="39.81848" lon="16.2297017"><ele>344.0</ele><time>2026-05-03T15:22:49.482Z</time></trkpt><trkpt lat="39.8184" lon="16.2298867"><ele>345.0</ele><time>2026-05-03T15:22:50.483Z</time></trkpt><trkpt lat="39.8183167" lon="16.23007"><ele>346.0</ele><time>2026-05-03T15:22:51.481Z</time></trkpt><trkpt lat="39.8182283" lon="16.2302517"><ele>347.0</ele><time>2026-05-03T15:22:52.481Z</time></trkpt><trkpt lat="39.8181383" lon="16.2304317"><ele>347.0</ele><time>2026-05-03T15:22:53.482Z</time></trkpt><trkpt lat="39.81805" lon="16.230615"><ele>347.0</ele><time>2026-05-03T15:22:54.481Z</time></trkpt><trkpt lat="39.8179633" lon="16.2307983"><ele>347.0</ele><time>2026-05-03T15:22:55.481Z</time></trkpt><trkpt lat="39.8178783" lon="16.230985"><ele>347.33333333333337</ele><time>2026-05-03T15:22:56.481Z</time></trkpt><trkpt lat="39.81779" lon="16.231175"><ele>347.6666666666667</ele><time>2026-05-03T15:22:57.48Z</time></trkpt><trkpt lat="39.8177017" lon="16.2313633"><ele>348.0</ele><time>2026-05-03T15:22:58.48Z</time></trkpt><trkpt lat="39.817615" lon="16.2315517"><ele>347.0</ele><time>2026-05-03T15:22:59.481Z</time></trkpt><trkpt lat="39.8175317" lon="16.2317417"><ele>346.0</ele><time>2026-05-03T15:23:00.481Z</time></trkpt><trkpt lat="39.8174467" lon="16.2319333"><ele>345.0</ele><time>2026-05-03T15:23:01.481Z</time></trkpt><trkpt lat="39.81736" lon="16.2321233"><ele>344.6666666666667</ele><time>2026-05-03T15:23:02.481Z</time></trkpt><trkpt lat="39.8172683" lon="16.2323117"><ele>344.33333333333337</ele><time>2026-05-03T15:23:03.481Z</time></trkpt><trkpt lat="39.817175" lon="16.2325"><ele>344.0</ele><time>2026-05-03T15:23:04.48Z</time></trkpt><trkpt lat="39.817085" lon="16.2326867"><ele>344.0</ele><time>2026-05-03T15:23:05.482Z</time></trkpt><trkpt lat="39.816995" lon="16.2328783"><ele>344.0</ele><time>2026-05-03T15:23:06.48Z</time></trkpt><trkpt lat="39.8169033" lon="16.2330733"><ele>344.0</ele><time>2026-05-03T15:23:07.481Z</time></trkpt><trkpt lat="39.81681" lon="16.2332733"><ele>342.0</ele><time>2026-05-03T15:23:08.482Z</time></trkpt><trkpt lat="39.81672" lon="16.2334717"><ele>340.0</ele><time>2026-05-03T15:23:09.481Z</time></trkpt><trkpt lat="39.81663" lon="16.2336617"><ele>338.0</ele><time>2026-05-03T15:23:10.482Z</time></trkpt><trkpt lat="39.8165417" lon="16.2338483"><ele>337.6666666666667</ele><time>2026-05-03T15:23:11.482Z</time></trkpt><trkpt lat="39.81645" lon="16.23403"><ele>337.3333333333333</ele><time>2026-05-03T15:23:12.481Z</time></trkpt><trkpt lat="39.81635" lon="16.2341967"><ele>337.0</ele><time>2026-05-03T15:23:13.482Z</time></trkpt><trkpt lat="39.8162367" lon="16.2343467"><ele>337.0</ele><time>2026-05-03T15:23:14.482Z</time></trkpt><trkpt lat="39.8161183" lon="16.2344833"><ele>337.0</ele><time>2026-05-03T15:23:15.482Z</time></trkpt><trkpt lat="39.8160017" lon="16.2346133"><ele>337.0</ele><time>2026-05-03T15:23:16.481Z</time></trkpt><trkpt lat="39.815895" lon="16.2347317"><ele>335.75</ele><time>2026-05-03T15:23:17.481Z</time></trkpt><trkpt lat="39.8157933" lon="16.2348433"><ele>334.5</ele><time>2026-05-03T15:23:18.482Z</time></trkpt><trkpt lat="39.8156933" lon="16.2349333"><ele>333.25</ele><time>2026-05-03T15:23:19.481Z</time></trkpt><trkpt lat="39.81559" lon="16.2349867"><ele>332.0</ele><time>2026-05-03T15:23:20.482Z</time></trkpt><trkpt lat="39.8154767" lon="16.234995"><ele>332.0</ele><time>2026-05-03T15:23:21.48Z</time></trkpt><trkpt lat="39.8153533" lon="16.2349817"><ele>332.0</ele><time>2026-05-03T15:23:22.482Z</time></trkpt><trkpt lat="39.8152083" lon="16.23496"><ele>332.0</ele><time>2026-05-03T15:23:23.481Z</time></trkpt><trkpt lat="39.8150433" lon="16.23493"><ele>332.0</ele><time>2026-05-03T15:23:24.481Z</time></trkpt><trkpt lat="39.8148617" lon="16.2348967"><ele>330.0</ele><time>2026-05-03T15:23:25.482Z</time></trkpt><trkpt lat="39.814665" lon="16.2348567"><ele>328.0</ele><time>2026-05-03T15:23:26.482Z</time></trkpt><trkpt lat="39.8144617" lon="16.2348117"><ele>326.0</ele><time>2026-05-03T15:23:27.48Z</time></trkpt><trkpt lat="39.8142567" lon="16.234765"><ele>330.33333333333337</ele><time>2026-05-03T15:23:28.48Z</time></trkpt><trkpt lat="39.81405" lon="16.2347217"><ele>334.6666666666667</ele><time>2026-05-03T15:23:29.48Z</time></trkpt><trkpt lat="39.81385" lon="16.2346817"><ele>339.0</ele><time>2026-05-03T15:23:30.481Z</time></trkpt><trkpt lat="39.8136617" lon="16.2346567"><ele>341.3333333333333</ele><time>2026-05-03T15:23:31.482Z</time></trkpt><trkpt lat="39.8134817" lon="16.2346583"><ele>343.66666666666663</ele><time>2026-05-03T15:23:32.482Z</time></trkpt><trkpt lat="39.8133017" lon="16.234685"><ele>346.0</ele><time>2026-05-03T15:23:33.48Z</time></trkpt><trkpt lat="39.8131183" lon="16.234725"><ele>346.0</ele><time>2026-05-03T15:23:34.482Z</time></trkpt><trkpt lat="39.8129317" lon="16.2347883"><ele>346.0</ele><time>2026-05-03T15:23:35.481Z</time></trkpt><trkpt lat="39.8127417" lon="16.23485"><ele>346.0</ele><time>2026-05-03T15:23:36.48Z</time></trkpt><trkpt lat="39.81256" lon="16.2349167"><ele>346.66666666666663</ele><time>2026-05-03T15:23:37.481Z</time></trkpt><trkpt lat="39.8123817" lon="16.2349867"><ele>347.3333333333333</ele><time>2026-05-03T15:23:38.481Z</time></trkpt><trkpt lat="39.81221" lon="16.2350583"><ele>348.0</ele><time>2026-05-03T15:23:39.482Z</time></trkpt><trkpt lat="39.8120433" lon="16.235125"><ele>348.0</ele><time>2026-05-03T15:23:40.482Z</time></trkpt><trkpt lat="39.8118783" lon="16.2351817"><ele>348.0</ele><time>2026-05-03T15:23:41.481Z</time></trkpt><trkpt lat="39.8117183" lon="16.2352367"><ele>348.0</ele><time>2026-05-03T15:23:42.481Z</time></trkpt><trkpt lat="39.8115583" lon="16.2352933"><ele>348.0</ele><time>2026-05-03T15:23:43.482Z</time></trkpt><trkpt lat="39.8114" lon="16.235355"><ele>348.0</ele><time>2026-05-03T15:23:44.482Z</time></trkpt><trkpt lat="39.8112367" lon="16.23543"><ele>348.0</ele><time>2026-05-03T15:23:45.482Z</time></trkpt><trkpt lat="39.8110583" lon="16.2355033"><ele>347.6666666666667</ele><time>2026-05-03T15:23:46.481Z</time></trkpt><trkpt lat="39.8108667" lon="16.2355817"><ele>347.33333333333337</ele><time>2026-05-03T15:23:47.481Z</time></trkpt><trkpt lat="39.810655" lon="16.23566"><ele>347.0</ele><time>2026-05-03T15:23:48.48Z</time></trkpt><trkpt lat="39.810425" lon="16.2357417"><ele>346.5</ele><time>2026-05-03T15:23:49.482Z</time></trkpt><trkpt lat="39.8101867" lon="16.23582"><ele>346.0</ele><time>2026-05-03T15:23:50.481Z</time></trkpt><trkpt lat="39.8099483" lon="16.2358983"><ele>348.0</ele><time>2026-05-03T15:23:51.481Z</time></trkpt><trkpt lat="39.8097133" lon="16.235975"><ele>350.0</ele><time>2026-05-03T15:23:52.482Z</time></trkpt><trkpt lat="39.8094883" lon="16.236055"><ele>353.0</ele><time>2026-05-03T15:23:53.482Z</time></trkpt><trkpt lat="39.8092683" lon="16.2361317"><ele>356.0</ele><time>2026-05-03T15:23:54.482Z</time></trkpt><trkpt lat="39.8090483" lon="16.2361967"><ele>356.0</ele><time>2026-05-03T15:23:55.483Z</time></trkpt><trkpt lat="39.8088317" lon="16.2362367"><ele>356.0</ele><time>2026-05-03T15:23:56.482Z</time></trkpt><trkpt lat="39.8086267" lon="16.236255"><ele>356.0</ele><time>2026-05-03T15:23:57.48Z</time></trkpt><trkpt lat="39.8084267" lon="16.2362717"><ele>356.6666666666667</ele><time>2026-05-03T15:23:58.481Z</time></trkpt><trkpt lat="39.8082267" lon="16.2362967"><ele>357.3333333333333</ele><time>2026-05-03T15:23:59.481Z</time></trkpt><trkpt lat="39.808025" lon="16.2363417"><ele>358.0</ele><time>2026-05-03T15:24:00.484Z</time></trkpt><trkpt lat="39.8078183" lon="16.2364167"><ele>357.0</ele><time>2026-05-03T15:24:01.48Z</time></trkpt><trkpt lat="39.8076067" lon="16.2365183"><ele>356.0</ele><time>2026-05-03T15:24:02.482Z</time></trkpt><trkpt lat="39.807385" lon="16.2366317"><ele>356.0</ele><time>2026-05-03T15:24:03.481Z</time></trkpt><trkpt lat="39.8071533" lon="16.2367467"><ele>356.0</ele><time>2026-05-03T15:24:04.482Z</time></trkpt><trkpt lat="39.8069167" lon="16.236855"><ele>355.5</ele><time>2026-05-03T15:24:05.482Z</time></trkpt><trkpt lat="39.8066883" lon="16.236955"><ele>355.0</ele><time>2026-05-03T15:24:06.481Z</time></trkpt><trkpt lat="39.80647" lon="16.2370433"><ele>355.0</ele><time>2026-05-03T15:24:07.481Z</time></trkpt><trkpt lat="39.80626" lon="16.2371183"><ele>355.0</ele><time>2026-05-03T15:24:08.481Z</time></trkpt><trkpt lat="39.8060483" lon="16.2371567"><ele>355.0</ele><time>2026-05-03T15:24:09.481Z</time></trkpt><trkpt lat="39.8058317" lon="16.237165"><ele>354.5</ele><time>2026-05-03T15:24:10.481Z</time></trkpt><trkpt lat="39.8056067" lon="16.2371583"><ele>354.0</ele><time>2026-05-03T15:24:11.481Z</time></trkpt><trkpt lat="39.805375" lon="16.2371417"><ele>352.0</ele><time>2026-05-03T15:24:12.481Z</time></trkpt><trkpt lat="39.8051383" lon="16.2371233"><ele>350.0</ele><time>2026-05-03T15:24:13.481Z</time></trkpt><trkpt lat="39.8048933" lon="16.2371083"><ele>350.0</ele><time>2026-05-03T15:24:14.482Z</time></trkpt><trkpt lat="39.8046433" lon="16.2371"><ele>350.0</ele><time>2026-05-03T15:24:15.482Z</time></trkpt><trkpt lat="39.804385" lon="16.23709"><ele>348.0</ele><time>2026-05-03T15:24:16.481Z</time></trkpt><trkpt lat="39.8041233" lon="16.237085"><ele>346.0</ele><time>2026-05-03T15:24:17.482Z</time></trkpt><trkpt lat="39.8038567" lon="16.2370783"><ele>346.0</ele><time>2026-05-03T15:24:18.481Z</time></trkpt><trkpt lat="39.8035917" lon="16.237065"><ele>346.0</ele><time>2026-05-03T15:24:19.483Z</time></trkpt><trkpt lat="39.8033333" lon="16.2370533"><ele>343.5</ele><time>2026-05-03T15:24:20.481Z</time></trkpt><trkpt lat="39.80308" lon="16.23704"><ele>341.0</ele><time>2026-05-03T15:24:21.48Z</time></trkpt><trkpt lat="39.80284" lon="16.2370283"><ele>339.0</ele><time>2026-05-03T15:24:22.481Z</time></trkpt><trkpt lat="39.8025967" lon="16.2370183"><ele>337.0</ele><time>2026-05-03T15:24:23.482Z</time></trkpt><trkpt lat="39.802355" lon="16.2370067"><ele>337.0</ele><time>2026-05-03T15:24:24.482Z</time></trkpt><trkpt lat="39.8021133" lon="16.2369933"><ele>337.0</ele><time>2026-05-03T15:24:25.481Z</time></trkpt><trkpt lat="39.8018717" lon="16.2369817"><ele>338.0</ele><time>2026-05-03T15:24:26.482Z</time></trkpt><trkpt lat="39.8016317" lon="16.23697"><ele>339.0</ele><time>2026-05-03T15:24:27.482Z</time></trkpt><trkpt lat="39.8013933" lon="16.236955"><ele>339.0</ele><time>2026-05-03T15:24:28.481Z</time></trkpt><trkpt lat="39.8011583" lon="16.2369317"><ele>339.0</ele><time>2026-05-03T15:24:29.482Z</time></trkpt><trkpt lat="39.800925" lon="16.2368883"><ele>338.5</ele><time>2026-05-03T15:24:30.482Z</time></trkpt><trkpt lat="39.8007" lon="16.2368217"><ele>338.0</ele><time>2026-05-03T15:24:31.482Z</time></trkpt><trkpt lat="39.8004767" lon="16.2367367"><ele>338.0</ele><time>2026-05-03T15:24:32.483Z</time></trkpt><trkpt lat="39.800255" lon="16.236645"><ele>338.0</ele><time>2026-05-03T15:24:33.481Z</time></trkpt><trkpt lat="39.8000383" lon="16.236545"><ele>339.0</ele><time>2026-05-03T15:24:34.482Z</time></trkpt><trkpt lat="39.79982" lon="16.2364467"><ele>340.0</ele><time>2026-05-03T15:24:35.482Z</time></trkpt><trkpt lat="39.7996" lon="16.2363467"><ele>340.0</ele><time>2026-05-03T15:24:36.481Z</time></trkpt><trkpt lat="39.7993833" lon="16.2362483"><ele>340.0</ele><time>2026-05-03T15:24:37.482Z</time></trkpt><trkpt lat="39.7991667" lon="16.236155"><ele>341.3333333333333</ele><time>2026-05-03T15:24:38.483Z</time></trkpt><trkpt lat="39.7989533" lon="16.2360717"><ele>342.6666666666667</ele><time>2026-05-03T15:24:39.48Z</time></trkpt><trkpt lat="39.7987433" lon="16.236015"><ele>344.0</ele><time>2026-05-03T15:24:40.482Z</time></trkpt><trkpt lat="39.7985333" lon="16.2359817"><ele>344.33333333333337</ele><time>2026-05-03T15:24:41.482Z</time></trkpt><trkpt lat="39.7983267" lon="16.2359633"><ele>344.6666666666667</ele><time>2026-05-03T15:24:42.482Z</time></trkpt><trkpt lat="39.7981283" lon="16.2359483"><ele>345.0</ele><time>2026-05-03T15:24:43.482Z</time></trkpt><trkpt lat="39.7979433" lon="16.2359417"><ele>345.0</ele><time>2026-05-03T15:24:44.481Z</time></trkpt><trkpt lat="39.7977683" lon="16.2359417"><ele>345.0</ele><time>2026-05-03T15:24:45.482Z</time></trkpt><trkpt lat="39.7976033" lon="16.2359433"><ele>345.0</ele><time>2026-05-03T15:24:46.481Z</time></trkpt><trkpt lat="39.7974433" lon="16.2359467"><ele>346.6666666666667</ele><time>2026-05-03T15:24:47.482Z</time></trkpt><trkpt lat="39.79729" lon="16.23595"><ele>348.33333333333337</ele><time>2026-05-03T15:24:48.481Z</time></trkpt><trkpt lat="39.7971367" lon="16.23596"><ele>350.0</ele><time>2026-05-03T15:24:49.481Z</time></trkpt><trkpt lat="39.7969817" lon="16.2359717"><ele>350.0</ele><time>2026-05-03T15:24:50.483Z</time></trkpt><trkpt lat="39.79682" lon="16.2359883"><ele>350.0</ele><time>2026-05-03T15:24:51.48Z</time></trkpt><trkpt lat="39.79666" lon="16.2360033"><ele>350.0</ele><time>2026-05-03T15:24:52.483Z</time></trkpt><trkpt lat="39.7965017" lon="16.2360217"><ele>350.0</ele><time>2026-05-03T15:24:53.483Z</time></trkpt><trkpt lat="39.7963433" lon="16.2360417"><ele>350.0</ele><time>2026-05-03T15:24:54.483Z</time></trkpt><trkpt lat="39.796185" lon="16.236065"><ele>350.0</ele><time>2026-05-03T15:24:55.48Z</time></trkpt><trkpt lat="39.796025" lon="16.2360917"><ele>349.6666666666667</ele><time>2026-05-03T15:24:56.482Z</time></trkpt><trkpt lat="39.7958667" lon="16.236125"><ele>349.3333333333333</ele><time>2026-05-03T15:24:57.481Z</time></trkpt><trkpt lat="39.7957117" lon="16.2361633"><ele>349.0</ele><time>2026-05-03T15:24:58.48Z</time></trkpt><trkpt lat="39.795555" lon="16.236205"><ele>349.0</ele><time>2026-05-03T15:24:59.482Z</time></trkpt><trkpt lat="39.7953967" lon="16.2362483"><ele>349.0</ele><time>2026-05-03T15:25:00.48Z</time></trkpt><trkpt lat="39.79524" lon="16.2363017"><ele>349.0</ele><time>2026-05-03T15:25:01.483Z</time></trkpt><trkpt lat="39.7950817" lon="16.2363733"><ele>349.3333333333333</ele><time>2026-05-03T15:25:02.481Z</time></trkpt><trkpt lat="39.7949233" lon="16.23646"><ele>349.6666666666667</ele><time>2026-05-03T15:25:03.482Z</time></trkpt><trkpt lat="39.7947683" lon="16.23656"><ele>350.0</ele><time>2026-05-03T15:25:04.482Z</time></trkpt><trkpt lat="39.7946167" lon="16.2366633"><ele>350.33333333333337</ele><time>2026-05-03T15:25:05.482Z</time></trkpt><trkpt lat="39.7944633" lon="16.2367583"><ele>350.6666666666667</ele><time>2026-05-03T15:25:06.482Z</time></trkpt><trkpt lat="39.79431" lon="16.2368533"><ele>351.0</ele><time>2026-05-03T15:25:07.481Z</time></trkpt><trkpt lat="39.7941533" lon="16.2369367"><ele>351.0</ele><time>2026-05-03T15:25:08.481Z</time></trkpt><trkpt lat="39.7939933" lon="16.2370217"><ele>351.0</ele><time>2026-05-03T15:25:09.482Z</time></trkpt><trkpt lat="39.7938333" lon="16.2371017"><ele>351.0</ele><time>2026-05-03T15:25:10.481Z</time></trkpt><trkpt lat="39.7936717" lon="16.237185"><ele>351.0</ele><time>2026-05-03T15:25:11.48Z</time></trkpt><trkpt lat="39.7935067" lon="16.2372633"><ele>351.0</ele><time>2026-05-03T15:25:12.481Z</time></trkpt><trkpt lat="39.793345" lon="16.2373467"><ele>351.0</ele><time>2026-05-03T15:25:13.481Z</time></trkpt><trkpt lat="39.7931817" lon="16.237425"><ele>351.0</ele><time>2026-05-03T15:25:14.482Z</time></trkpt><trkpt lat="39.7930217" lon="16.2375083"><ele>351.0</ele><time>2026-05-03T15:25:15.481Z</time></trkpt><trkpt lat="39.79286" lon="16.2375917"><ele>351.0</ele><time>2026-05-03T15:25:16.482Z</time></trkpt><trkpt lat="39.7926983" lon="16.2376717"><ele>351.0</ele><time>2026-05-03T15:25:17.482Z</time></trkpt><trkpt lat="39.792535" lon="16.2377517"><ele>351.0</ele><time>2026-05-03T15:25:18.481Z</time></trkpt><trkpt lat="39.79237" lon="16.2378317"><ele>351.0</ele><time>2026-05-03T15:25:19.482Z</time></trkpt><trkpt lat="39.792205" lon="16.2379083"><ele>351.0</ele><time>2026-05-03T15:25:20.481Z</time></trkpt><trkpt lat="39.79204" lon="16.2379833"><ele>351.0</ele><time>2026-05-03T15:25:21.482Z</time></trkpt><trkpt lat="39.7918683" lon="16.2380517"><ele>351.0</ele><time>2026-05-03T15:25:22.481Z</time></trkpt><trkpt lat="39.7916917" lon="16.238115"><ele>351.6666666666667</ele><time>2026-05-03T15:25:23.481Z</time></trkpt><trkpt lat="39.791515" lon="16.2381717"><ele>352.33333333333337</ele><time>2026-05-03T15:25:24.481Z</time></trkpt><trkpt lat="39.7913433" lon="16.23822"><ele>353.0</ele><time>2026-05-03T15:25:25.48Z</time></trkpt><trkpt lat="39.791175" lon="16.2382617"><ele>353.0</ele><time>2026-05-03T15:25:26.481Z</time></trkpt><trkpt lat="39.791015" lon="16.2383033"><ele>353.0</ele><time>2026-05-03T15:25:27.481Z</time></trkpt><trkpt lat="39.790855" lon="16.2383433"><ele>353.0</ele><time>2026-05-03T15:25:28.482Z</time></trkpt><trkpt lat="39.7906933" lon="16.2383933"><ele>353.6666666666667</ele><time>2026-05-03T15:25:29.482Z</time></trkpt><trkpt lat="39.79053" lon="16.2384567"><ele>354.3333333333333</ele><time>2026-05-03T15:25:30.481Z</time></trkpt><trkpt lat="39.7903667" lon="16.2385317"><ele>355.0</ele><time>2026-05-03T15:25:31.481Z</time></trkpt><trkpt lat="39.7902017" lon="16.238605"><ele>355.0</ele><time>2026-05-03T15:25:32.482Z</time></trkpt><trkpt lat="39.7900367" lon="16.2386733"><ele>355.0</ele><time>2026-05-03T15:25:33.482Z</time></trkpt><trkpt lat="39.789875" lon="16.2387417"><ele>355.0</ele><time>2026-05-03T15:25:34.481Z</time></trkpt><trkpt lat="39.78972" lon="16.2388133"><ele>355.0</ele><time>2026-05-03T15:25:35.481Z</time></trkpt><trkpt lat="39.7895667" lon="16.23889"><ele>355.0</ele><time>2026-05-03T15:25:36.482Z</time></trkpt><trkpt lat="39.7894117" lon="16.2389733"><ele>355.0</ele><time>2026-05-03T15:25:37.481Z</time></trkpt><trkpt lat="39.7892617" lon="16.2390767"><ele>355.3333333333333</ele><time>2026-05-03T15:25:38.483Z</time></trkpt><trkpt lat="39.7891117" lon="16.23919"><ele>355.6666666666667</ele><time>2026-05-03T15:25:39.482Z</time></trkpt><trkpt lat="39.7889617" lon="16.239315"><ele>356.0</ele><time>2026-05-03T15:25:40.481Z</time></trkpt><trkpt lat="39.7888133" lon="16.2394417"><ele>356.0</ele><time>2026-05-03T15:25:41.482Z</time></trkpt><trkpt lat="39.7886633" lon="16.239565"><ele>356.0</ele><time>2026-05-03T15:25:42.481Z</time></trkpt><trkpt lat="39.7885133" lon="16.2396883"><ele>356.0</ele><time>2026-05-03T15:25:43.482Z</time></trkpt><trkpt lat="39.7883633" lon="16.2398167"><ele>356.0</ele><time>2026-05-03T15:25:44.482Z</time></trkpt><trkpt lat="39.788215" lon="16.2399383"><ele>356.0</ele><time>2026-05-03T15:25:45.48Z</time></trkpt><trkpt lat="39.7880633" lon="16.2400567"><ele>356.0</ele><time>2026-05-03T15:25:46.482Z</time></trkpt><trkpt lat="39.787905" lon="16.2401683"><ele>356.0</ele><time>2026-05-03T15:25:47.482Z</time></trkpt><trkpt lat="39.78774" lon="16.2402717"><ele>356.0</ele><time>2026-05-03T15:25:48.481Z</time></trkpt><trkpt lat="39.7875717" lon="16.240365"><ele>356.0</ele><time>2026-05-03T15:25:49.48Z</time></trkpt><trkpt lat="39.7873933" lon="16.240445"><ele>355.6666666666667</ele><time>2026-05-03T15:25:50.482Z</time></trkpt><trkpt lat="39.7872167" lon="16.24051"><ele>355.3333333333333</ele><time>2026-05-03T15:25:51.48Z</time></trkpt><trkpt lat="39.78703" lon="16.24055"><ele>355.0</ele><time>2026-05-03T15:25:52.482Z</time></trkpt><trkpt lat="39.7868467" lon="16.24058"><ele>354.3333333333333</ele><time>2026-05-03T15:25:53.482Z</time></trkpt><trkpt lat="39.786665" lon="16.240605"><ele>353.6666666666667</ele><time>2026-05-03T15:25:54.481Z</time></trkpt><trkpt lat="39.78649" lon="16.240625"><ele>353.0</ele><time>2026-05-03T15:25:55.482Z</time></trkpt><trkpt lat="39.7863233" lon="16.2406417"><ele>354.6666666666667</ele><time>2026-05-03T15:25:56.483Z</time></trkpt><trkpt lat="39.786165" lon="16.2406517"><ele>356.3333333333333</ele><time>2026-05-03T15:25:57.482Z</time></trkpt><trkpt lat="39.7860117" lon="16.2406567"><ele>358.0</ele><time>2026-05-03T15:25:58.481Z</time></trkpt><trkpt lat="39.785855" lon="16.240645"><ele>356.3333333333333</ele><time>2026-05-03T15:25:59.481Z</time></trkpt><trkpt lat="39.7856967" lon="16.2406233"><ele>354.6666666666667</ele><time>2026-05-03T15:26:00.481Z</time></trkpt><trkpt lat="39.785545" lon="16.2405967"><ele>353.0</ele><time>2026-05-03T15:26:01.481Z</time></trkpt><trkpt lat="39.7853933" lon="16.2405667"><ele>353.0</ele><time>2026-05-03T15:26:02.482Z</time></trkpt><trkpt lat="39.785245" lon="16.240535"><ele>353.0</ele><time>2026-05-03T15:26:03.481Z</time></trkpt><trkpt lat="39.7851017" lon="16.2405067"><ele>353.0</ele><time>2026-05-03T15:26:04.481Z</time></trkpt><trkpt lat="39.784965" lon="16.2404817"><ele>353.0</ele><time>2026-05-03T15:26:05.481Z</time></trkpt><trkpt lat="39.7848267" lon="16.2404483"><ele>353.6666666666667</ele><time>2026-05-03T15:26:06.481Z</time></trkpt><trkpt lat="39.7846817" lon="16.2404133"><ele>354.3333333333333</ele><time>2026-05-03T15:26:07.482Z</time></trkpt><trkpt lat="39.78453" lon="16.2403667"><ele>355.0</ele><time>2026-05-03T15:26:08.482Z</time></trkpt><trkpt lat="39.7843767" lon="16.2403183"><ele>354.0</ele><time>2026-05-03T15:26:09.482Z</time></trkpt><trkpt lat="39.7842167" lon="16.2402833"><ele>353.0</ele><time>2026-05-03T15:26:10.481Z</time></trkpt><trkpt lat="39.78406" lon="16.2402567"><ele>352.0</ele><time>2026-05-03T15:26:11.481Z</time></trkpt><trkpt lat="39.7839033" lon="16.24024"><ele>352.0</ele><time>2026-05-03T15:26:12.48Z</time></trkpt><trkpt lat="39.7837517" lon="16.240235"><ele>352.0</ele><time>2026-05-03T15:26:13.48Z</time></trkpt><trkpt lat="39.7836067" lon="16.240245"><ele>352.0</ele><time>2026-05-03T15:26:14.481Z</time></trkpt><trkpt lat="39.7834617" lon="16.24026"><ele>352.0</ele><time>2026-05-03T15:26:15.482Z</time></trkpt><trkpt lat="39.78332" lon="16.2402717"><ele>351.25</ele><time>2026-05-03T15:26:16.481Z</time></trkpt><trkpt lat="39.7831767" lon="16.2402917"><ele>350.5</ele><time>2026-05-03T15:26:17.481Z</time></trkpt><trkpt lat="39.78304" lon="16.2403117"><ele>349.75</ele><time>2026-05-03T15:26:18.481Z</time></trkpt><trkpt lat="39.782905" lon="16.2403383"><ele>349.0</ele><time>2026-05-03T15:26:19.481Z</time></trkpt><trkpt lat="39.782775" lon="16.2403667"><ele>347.25</ele><time>2026-05-03T15:26:20.482Z</time></trkpt><trkpt lat="39.782645" lon="16.2404017"><ele>345.5</ele><time>2026-05-03T15:26:21.48Z</time></trkpt><trkpt lat="39.7825133" lon="16.24044"><ele>343.75</ele><time>2026-05-03T15:26:22.482Z</time></trkpt><trkpt lat="39.7823767" lon="16.2404767"><ele>342.0</ele><time>2026-05-03T15:26:23.481Z</time></trkpt><trkpt lat="39.78224" lon="16.2405033"><ele>342.0</ele><time>2026-05-03T15:26:24.481Z</time></trkpt><trkpt lat="39.7820983" lon="16.24052"><ele>342.0</ele><time>2026-05-03T15:26:25.481Z</time></trkpt><trkpt lat="39.78196" lon="16.2405333"><ele>342.0</ele><time>2026-05-03T15:26:26.481Z</time></trkpt><trkpt lat="39.78183" lon="16.240545"><ele>342.0</ele><time>2026-05-03T15:26:27.48Z</time></trkpt><trkpt lat="39.7817017" lon="16.2405533"><ele>340.75</ele><time>2026-05-03T15:26:28.482Z</time></trkpt><trkpt lat="39.78157" lon="16.2405617"><ele>339.5</ele><time>2026-05-03T15:26:29.481Z</time></trkpt><trkpt lat="39.7814317" lon="16.2405733"><ele>338.25</ele><time>2026-05-03T15:26:30.482Z</time></trkpt><trkpt lat="39.7812817" lon="16.24058"><ele>337.0</ele><time>2026-05-03T15:26:31.481Z</time></trkpt><trkpt lat="39.7811283" lon="16.240585"><ele>335.66666666666663</ele><time>2026-05-03T15:26:32.482Z</time></trkpt><trkpt lat="39.78097" lon="16.2405917"><ele>334.3333333333333</ele><time>2026-05-03T15:26:33.481Z</time></trkpt><trkpt lat="39.7808083" lon="16.2405967"><ele>333.0</ele><time>2026-05-03T15:26:34.482Z</time></trkpt><trkpt lat="39.7806467" lon="16.2406"><ele>333.0</ele><time>2026-05-03T15:26:35.481Z</time></trkpt><trkpt lat="39.7804833" lon="16.24061"><ele>333.0</ele><time>2026-05-03T15:26:36.48Z</time></trkpt><trkpt lat="39.7803217" lon="16.2406267"><ele>333.0</ele><time>2026-05-03T15:26:37.481Z</time></trkpt><trkpt lat="39.7801633" lon="16.2406617"><ele>334.6666666666667</ele><time>2026-05-03T15:26:38.481Z</time></trkpt><trkpt lat="39.7800083" lon="16.2407183"><ele>336.33333333333337</ele><time>2026-05-03T15:26:39.48Z</time></trkpt><trkpt lat="39.7798617" lon="16.2407967"><ele>338.0</ele><time>2026-05-03T15:26:40.481Z</time></trkpt><trkpt lat="39.7797217" lon="16.2409"><ele>338.0</ele><time>2026-05-03T15:26:41.482Z</time></trkpt><trkpt lat="39.7795833" lon="16.24102"><ele>338.0</ele><time>2026-05-03T15:26:42.481Z</time></trkpt><trkpt lat="39.7794433" lon="16.241135"><ele>338.0</ele><time>2026-05-03T15:26:43.481Z</time></trkpt><trkpt lat="39.7793033" lon="16.2412483"><ele>336.6666666666667</ele><time>2026-05-03T15:26:44.482Z</time></trkpt><trkpt lat="39.77917" lon="16.2413617"><ele>335.3333333333333</ele><time>2026-05-03T15:26:45.481Z</time></trkpt><trkpt lat="39.7790417" lon="16.2414717"><ele>334.0</ele><time>2026-05-03T15:26:46.482Z</time></trkpt><trkpt lat="39.778925" lon="16.2415883"><ele>334.0</ele><time>2026-05-03T15:26:47.481Z</time></trkpt><trkpt lat="39.778815" lon="16.2417083"><ele>334.0</ele><time>2026-05-03T15:26:48.481Z</time></trkpt><trkpt lat="39.7787167" lon="16.2418367"><ele>334.0</ele><time>2026-05-03T15:26:49.482Z</time></trkpt><trkpt lat="39.77863" lon="16.2419767"><ele>334.0</ele><time>2026-05-03T15:26:50.482Z</time></trkpt><trkpt lat="39.7785483" lon="16.2421333"><ele>332.0</ele><time>2026-05-03T15:26:51.483Z</time></trkpt><trkpt lat="39.77846" lon="16.24231"><ele>330.0</ele><time>2026-05-03T15:26:52.481Z</time></trkpt><trkpt lat="39.7783717" lon="16.2424917"><ele>328.0</ele><time>2026-05-03T15:26:53.482Z</time></trkpt><trkpt lat="39.7782883" lon="16.2426683"><ele>328.0</ele><time>2026-05-03T15:26:54.481Z</time></trkpt><trkpt lat="39.7782067" lon="16.24284"><ele>328.0</ele><time>2026-05-03T15:26:55.481Z</time></trkpt><trkpt lat="39.77813" lon="16.24301"><ele>328.0</ele><time>2026-05-03T15:26:56.481Z</time></trkpt><trkpt lat="39.7780533" lon="16.24318"><ele>327.66666666666663</ele><time>2026-05-03T15:26:57.481Z</time></trkpt><trkpt lat="39.7779667" lon="16.2433533"><ele>327.3333333333333</ele><time>2026-05-03T15:26:58.481Z</time></trkpt><trkpt lat="39.7778633" lon="16.2435283"><ele>327.0</ele><time>2026-05-03T15:26:59.48Z</time></trkpt><trkpt lat="39.777755" lon="16.24371"><ele>323.3333333333333</ele><time>2026-05-03T15:27:00.482Z</time></trkpt><trkpt lat="39.777645" lon="16.2438933"><ele>319.66666666666663</ele><time>2026-05-03T15:27:01.482Z</time></trkpt><trkpt lat="39.777535" lon="16.244085"><ele>316.0</ele><time>2026-05-03T15:27:02.485Z</time></trkpt><trkpt lat="39.7774233" lon="16.244285"><ele>316.0</ele><time>2026-05-03T15:27:03.481Z</time></trkpt><trkpt lat="39.7773083" lon="16.2445"><ele>316.0</ele><time>2026-05-03T15:27:04.481Z</time></trkpt><trkpt lat="39.77719" lon="16.2447233"><ele>316.0</ele><time>2026-05-03T15:27:05.481Z</time></trkpt><trkpt lat="39.7770583" lon="16.2449483"><ele>317.0</ele><time>2026-05-03T15:27:06.481Z</time></trkpt><trkpt lat="39.776925" lon="16.2451817"><ele>318.0</ele><time>2026-05-03T15:27:07.482Z</time></trkpt><trkpt lat="39.7767883" lon="16.2454233"><ele>312.5</ele><time>2026-05-03T15:27:08.482Z</time></trkpt><trkpt lat="39.7766517" lon="16.2456717"><ele>307.0</ele><time>2026-05-03T15:27:09.483Z</time></trkpt><trkpt lat="39.776515" lon="16.2459383"><ele>307.0</ele><time>2026-05-03T15:27:10.481Z</time></trkpt><trkpt lat="39.7763817" lon="16.2462017"><ele>307.0</ele><time>2026-05-03T15:27:11.481Z</time></trkpt><trkpt lat="39.7762583" lon="16.2464567"><ele>305.66666666666663</ele><time>2026-05-03T15:27:12.481Z</time></trkpt><trkpt lat="39.7761333" lon="16.2467017"><ele>304.3333333333333</ele><time>2026-05-03T15:27:13.481Z</time></trkpt><trkpt lat="39.7760133" lon="16.2469367"><ele>303.0</ele><time>2026-05-03T15:27:14.481Z</time></trkpt><trkpt lat="39.775895" lon="16.2471733"><ele>295.5</ele><time>2026-05-03T15:27:15.481Z</time></trkpt><trkpt lat="39.77577" lon="16.2474183"><ele>288.0</ele><time>2026-05-03T15:27:16.481Z</time></trkpt><trkpt lat="39.7756417" lon="16.2476683"><ele>288.0</ele><time>2026-05-03T15:27:17.482Z</time></trkpt><trkpt lat="39.77551" lon="16.247925"><ele>288.0</ele><time>2026-05-03T15:27:18.481Z</time></trkpt><trkpt lat="39.775375" lon="16.2481817"><ele>286.5</ele><time>2026-05-03T15:27:19.481Z</time></trkpt><trkpt lat="39.7752383" lon="16.2484417"><ele>285.0</ele><time>2026-05-03T15:27:20.482Z</time></trkpt><trkpt lat="39.77497" lon="16.24896"><ele>285.0</ele><time>2026-05-03T15:27:22.482Z</time></trkpt><trkpt lat="39.7748417" lon="16.2492083"><ele>285.0</ele><time>2026-05-03T15:27:23.481Z</time></trkpt><trkpt lat="39.7747183" lon="16.2494467"><ele>285.0</ele><time>2026-05-03T15:27:24.482Z</time></trkpt><trkpt lat="39.7745967" lon="16.2496817"><ele>285.0</ele><time>2026-05-03T15:27:25.481Z</time></trkpt><trkpt lat="39.774475" lon="16.24992"><ele>285.0</ele><time>2026-05-03T15:27:26.482Z</time></trkpt><trkpt lat="39.7743533" lon="16.2501533"><ele>282.3333333333333</ele><time>2026-05-03T15:27:27.481Z</time></trkpt><trkpt lat="39.7742367" lon="16.250375"><ele>279.66666666666663</ele><time>2026-05-03T15:27:28.482Z</time></trkpt><trkpt lat="39.7741217" lon="16.2505867"><ele>277.0</ele><time>2026-05-03T15:27:29.481Z</time></trkpt><trkpt lat="39.7740067" lon="16.2507683"><ele>276.25</ele><time>2026-05-03T15:27:30.481Z</time></trkpt><trkpt lat="39.773895" lon="16.2509183"><ele>275.5</ele><time>2026-05-03T15:27:31.482Z</time></trkpt><trkpt lat="39.77379" lon="16.2510483"><ele>274.75</ele><time>2026-05-03T15:27:32.482Z</time></trkpt><trkpt lat="39.7736933" lon="16.2511567"><ele>274.0</ele><time>2026-05-03T15:27:33.482Z</time></trkpt><trkpt lat="39.7736017" lon="16.2512483"><ele>273.0</ele><time>2026-05-03T15:27:34.482Z</time></trkpt><trkpt lat="39.7735033" lon="16.2513217"><ele>272.0</ele><time>2026-05-03T15:27:35.482Z</time></trkpt><trkpt lat="39.7734033" lon="16.2513933"><ele>271.0</ele><time>2026-05-03T15:27:36.481Z</time></trkpt><trkpt lat="39.77329" lon="16.2514633"><ele>270.0</ele><time>2026-05-03T15:27:37.483Z</time></trkpt><trkpt lat="39.77316" lon="16.2515383"><ele>270.0</ele><time>2026-05-03T15:27:38.482Z</time></trkpt><trkpt lat="39.773" lon="16.2516217"><ele>270.0</ele><time>2026-05-03T15:27:39.482Z</time></trkpt><trkpt lat="39.7728133" lon="16.25171"><ele>270.0</ele><time>2026-05-03T15:27:40.481Z</time></trkpt><trkpt lat="39.7725967" lon="16.2518017"><ele>266.0</ele><time>2026-05-03T15:27:41.481Z</time></trkpt><trkpt lat="39.77236" lon="16.2519017"><ele>262.0</ele><time>2026-05-03T15:27:42.481Z</time></trkpt><trkpt lat="39.7721033" lon="16.2520017"><ele>260.0</ele><time>2026-05-03T15:27:43.482Z</time></trkpt><trkpt lat="39.7718383" lon="16.2520983"><ele>258.0</ele><time>2026-05-03T15:27:44.482Z</time></trkpt><trkpt lat="39.7715683" lon="16.2521967"><ele>258.5</ele><time>2026-05-03T15:27:45.481Z</time></trkpt><trkpt lat="39.7712917" lon="16.252305"><ele>259.0</ele><time>2026-05-03T15:27:46.48Z</time></trkpt><trkpt lat="39.7710133" lon="16.252415"><ele>256.0</ele><time>2026-05-03T15:27:47.481Z</time></trkpt><trkpt lat="39.7707333" lon="16.2525233"><ele>253.0</ele><time>2026-05-03T15:27:48.48Z</time></trkpt><trkpt lat="39.770455" lon="16.2526317"><ele>250.0</ele><time>2026-05-03T15:27:49.481Z</time></trkpt><trkpt lat="39.7701783" lon="16.2527417"><ele>247.0</ele><time>2026-05-03T15:27:50.482Z</time></trkpt><trkpt lat="39.7699033" lon="16.25285"><ele>247.0</ele><time>2026-05-03T15:27:51.48Z</time></trkpt><trkpt lat="39.76963" lon="16.2529533"><ele>247.0</ele><time>2026-05-03T15:27:52.483Z</time></trkpt><trkpt lat="39.7693683" lon="16.2530517"><ele>246.0</ele><time>2026-05-03T15:27:53.483Z</time></trkpt><trkpt lat="39.7691233" lon="16.2531467"><ele>245.0</ele><time>2026-05-03T15:27:54.482Z</time></trkpt><trkpt lat="39.76889" lon="16.253235"><ele>245.0</ele><time>2026-05-03T15:27:55.481Z</time></trkpt><trkpt lat="39.768665" lon="16.2533083"><ele>245.0</ele><time>2026-05-03T15:27:56.482Z</time></trkpt><trkpt lat="39.7684383" lon="16.2533567"><ele>242.5</ele><time>2026-05-03T15:27:57.48Z</time></trkpt><trkpt lat="39.7682017" lon="16.2533833"><ele>240.0</ele><time>2026-05-03T15:27:58.481Z</time></trkpt><trkpt lat="39.767955" lon="16.2534"><ele>240.0</ele><time>2026-05-03T15:27:59.482Z</time></trkpt><trkpt lat="39.7677017" lon="16.2534183"><ele>240.0</ele><time>2026-05-03T15:28:00.482Z</time></trkpt><trkpt lat="39.76744" lon="16.2534383"><ele>237.0</ele><time>2026-05-03T15:28:01.481Z</time></trkpt><trkpt lat="39.7671683" lon="16.2534583"><ele>234.0</ele><time>2026-05-03T15:28:02.482Z</time></trkpt><trkpt lat="39.76689" lon="16.2534783"><ele>230.0</ele><time>2026-05-03T15:28:03.481Z</time></trkpt><trkpt lat="39.7666083" lon="16.2534983"><ele>226.0</ele><time>2026-05-03T15:28:04.482Z</time></trkpt><trkpt lat="39.7663217" lon="16.253515"><ele>226.0</ele><time>2026-05-03T15:28:05.482Z</time></trkpt><trkpt lat="39.76604" lon="16.2535283"><ele>226.0</ele><time>2026-05-03T15:28:06.482Z</time></trkpt><trkpt lat="39.765775" lon="16.2535433"><ele>221.5</ele><time>2026-05-03T15:28:07.481Z</time></trkpt><trkpt lat="39.7655167" lon="16.25356"><ele>217.0</ele><time>2026-05-03T15:28:08.482Z</time></trkpt><trkpt lat="39.7652683" lon="16.253575"><ele>214.0</ele><time>2026-05-03T15:28:09.48Z</time></trkpt><trkpt lat="39.76503" lon="16.2535917"><ele>211.0</ele><time>2026-05-03T15:28:10.481Z</time></trkpt><trkpt lat="39.7648" lon="16.2536067"><ele>211.0</ele><time>2026-05-03T15:28:11.482Z</time></trkpt><trkpt lat="39.7645733" lon="16.253625"><ele>211.0</ele><time>2026-05-03T15:28:12.482Z</time></trkpt><trkpt lat="39.764355" lon="16.2536433"><ele>211.0</ele><time>2026-05-03T15:28:13.481Z</time></trkpt><trkpt lat="39.7641433" lon="16.253675"><ele>209.0</ele><time>2026-05-03T15:28:14.481Z</time></trkpt><trkpt lat="39.7639367" lon="16.25374"><ele>207.0</ele><time>2026-05-03T15:28:15.481Z</time></trkpt><trkpt lat="39.76373" lon="16.2538367"><ele>205.0</ele><time>2026-05-03T15:28:16.481Z</time></trkpt><trkpt lat="39.7635217" lon="16.2539583"><ele>203.0</ele><time>2026-05-03T15:28:17.482Z</time></trkpt><trkpt lat="39.7633083" lon="16.2540933"><ele>201.0</ele><time>2026-05-03T15:28:18.481Z</time></trkpt><trkpt lat="39.7630883" lon="16.2542333"><ele>201.0</ele><time>2026-05-03T15:28:19.481Z</time></trkpt><trkpt lat="39.7628617" lon="16.2543783"><ele>201.0</ele><time>2026-05-03T15:28:20.483Z</time></trkpt><trkpt lat="39.76263" lon="16.2545233"><ele>197.5</ele><time>2026-05-03T15:28:21.481Z</time></trkpt><trkpt lat="39.7623983" lon="16.2546667"><ele>194.0</ele><time>2026-05-03T15:28:22.482Z</time></trkpt><trkpt lat="39.762175" lon="16.2548083"><ele>193.5</ele><time>2026-05-03T15:28:23.482Z</time></trkpt><trkpt lat="39.761955" lon="16.2549483"><ele>193.0</ele><time>2026-05-03T15:28:24.482Z</time></trkpt><trkpt lat="39.761735" lon="16.25509"><ele>188.5</ele><time>2026-05-03T15:28:25.481Z</time></trkpt><trkpt lat="39.7615233" lon="16.255225"><ele>184.0</ele><time>2026-05-03T15:28:26.483Z</time></trkpt><trkpt lat="39.7613233" lon="16.25535"><ele>184.0</ele><time>2026-05-03T15:28:27.482Z</time></trkpt><trkpt lat="39.76114" lon="16.2554617"><ele>184.0</ele><time>2026-05-03T15:28:28.482Z</time></trkpt><trkpt lat="39.760975" lon="16.2555717"><ele>184.0</ele><time>2026-05-03T15:28:29.482Z</time></trkpt><trkpt lat="39.7608333" lon="16.25569"><ele>181.66666666666669</ele><time>2026-05-03T15:28:30.481Z</time></trkpt><trkpt lat="39.7607133" lon="16.255835"><ele>179.33333333333334</ele><time>2026-05-03T15:28:31.481Z</time></trkpt><trkpt lat="39.76062" lon="16.2560167"><ele>177.0</ele><time>2026-05-03T15:28:32.482Z</time></trkpt><trkpt lat="39.7605533" lon="16.2562317"><ele>176.0</ele><time>2026-05-03T15:28:33.482Z</time></trkpt><trkpt lat="39.7605067" lon="16.2564783"><ele>175.0</ele><time>2026-05-03T15:28:34.482Z</time></trkpt><trkpt lat="39.7604733" lon="16.2567467"><ele>174.0</ele><time>2026-05-03T15:28:35.482Z</time></trkpt><trkpt lat="39.7604383" lon="16.2570083"><ele>174.0</ele><time>2026-05-03T15:28:36.482Z</time></trkpt><trkpt lat="39.7604017" lon="16.257245"><ele>174.0</ele><time>2026-05-03T15:28:37.482Z</time></trkpt><trkpt lat="39.7603583" lon="16.257445"><ele>174.0</ele><time>2026-05-03T15:28:38.482Z</time></trkpt><trkpt lat="39.7602883" lon="16.2576083"><ele>169.66666666666666</ele><time>2026-05-03T15:28:39.483Z</time></trkpt><trkpt lat="39.7601833" lon="16.2577267"><ele>165.33333333333331</ele><time>2026-05-03T15:28:40.481Z</time></trkpt><trkpt lat="39.7600433" lon="16.25781"><ele>161.0</ele><time>2026-05-03T15:28:41.482Z</time></trkpt><trkpt lat="39.7598767" lon="16.2578783"><ele>161.0</ele><time>2026-05-03T15:28:42.481Z</time></trkpt><trkpt lat="39.7596883" lon="16.2579517"><ele>161.0</ele><time>2026-05-03T15:28:43.48Z</time></trkpt><trkpt lat="39.75948" lon="16.2580267"><ele>161.0</ele><time>2026-05-03T15:28:44.482Z</time></trkpt><trkpt lat="39.75927" lon="16.258105"><ele>158.0</ele><time>2026-05-03T15:28:45.481Z</time></trkpt><trkpt lat="39.75907" lon="16.25819"><ele>155.0</ele><time>2026-05-03T15:28:46.482Z</time></trkpt><trkpt lat="39.7588833" lon="16.2582867"><ele>152.0</ele><time>2026-05-03T15:28:47.482Z</time></trkpt><trkpt lat="39.7587083" lon="16.258395"><ele>152.0</ele><time>2026-05-03T15:28:48.481Z</time></trkpt><trkpt lat="39.7585483" lon="16.2585"><ele>152.0</ele><time>2026-05-03T15:28:49.482Z</time></trkpt><trkpt lat="39.7584067" lon="16.2585967"><ele>152.0</ele><time>2026-05-03T15:28:50.482Z</time></trkpt><trkpt lat="39.7582817" lon="16.25868"><ele>148.75</ele><time>2026-05-03T15:28:51.481Z</time></trkpt><trkpt lat="39.7581667" lon="16.258735"><ele>145.5</ele><time>2026-05-03T15:28:52.481Z</time></trkpt><trkpt lat="39.75806" lon="16.25875"><ele>142.25</ele><time>2026-05-03T15:28:53.482Z</time></trkpt><trkpt lat="39.75795" lon="16.2587067"><ele>139.0</ele><time>2026-05-03T15:28:54.481Z</time></trkpt><trkpt lat="39.75783" lon="16.2586133"><ele>137.66666666666669</ele><time>2026-05-03T15:28:55.482Z</time></trkpt><trkpt lat="39.7576983" lon="16.25848"><ele>136.33333333333334</ele><time>2026-05-03T15:28:56.482Z</time></trkpt><trkpt lat="39.7575483" lon="16.258325"><ele>135.0</ele><time>2026-05-03T15:28:57.481Z</time></trkpt><trkpt lat="39.7573733" lon="16.258155"><ele>131.5</ele><time>2026-05-03T15:28:58.482Z</time></trkpt><trkpt lat="39.7571817" lon="16.2579717"><ele>128.0</ele><time>2026-05-03T15:28:59.482Z</time></trkpt><trkpt lat="39.7569883" lon="16.25779"><ele>126.0</ele><time>2026-05-03T15:29:00.482Z</time></trkpt><trkpt lat="39.7568" lon="16.2576183"><ele>124.0</ele><time>2026-05-03T15:29:01.482Z</time></trkpt><trkpt lat="39.7566167" lon="16.25746"><ele>124.0</ele><time>2026-05-03T15:29:02.482Z</time></trkpt><trkpt lat="39.75644" lon="16.257315"><ele>124.0</ele><time>2026-05-03T15:29:03.483Z</time></trkpt><trkpt lat="39.75627" lon="16.2571833"><ele>124.0</ele><time>2026-05-03T15:29:04.483Z</time></trkpt><trkpt lat="39.7561017" lon="16.2570717"><ele>120.33333333333334</ele><time>2026-05-03T15:29:05.482Z</time></trkpt><trkpt lat="39.7559233" lon="16.2569933"><ele>116.66666666666666</ele><time>2026-05-03T15:29:06.481Z</time></trkpt><trkpt lat="39.75573" lon="16.2569567"><ele>113.0</ele><time>2026-05-03T15:29:07.482Z</time></trkpt><trkpt lat="39.7555217" lon="16.256955"><ele>113.0</ele><time>2026-05-03T15:29:08.481Z</time></trkpt><trkpt lat="39.7553" lon="16.2569717"><ele>113.0</ele><time>2026-05-03T15:29:09.481Z</time></trkpt><trkpt lat="39.7550817" lon="16.2569933"><ele>113.0</ele><time>2026-05-03T15:29:10.481Z</time></trkpt><trkpt lat="39.754885" lon="16.2570033"><ele>111.75</ele><time>2026-05-03T15:29:11.482Z</time></trkpt><trkpt lat="39.7547217" lon="16.2570183"><ele>110.5</ele><time>2026-05-03T15:29:12.483Z</time></trkpt><trkpt lat="39.75459" lon="16.257065"><ele>109.25</ele><time>2026-05-03T15:29:13.482Z</time></trkpt><trkpt lat="39.7544683" lon="16.2571583"><ele>108.0</ele><time>2026-05-03T15:29:14.482Z</time></trkpt><trkpt lat="39.75436" lon="16.2573"><ele>106.33333333333334</ele><time>2026-05-03T15:29:15.481Z</time></trkpt><trkpt lat="39.7542717" lon="16.2574833"><ele>104.66666666666667</ele><time>2026-05-03T15:29:16.482Z</time></trkpt><trkpt lat="39.754195" lon="16.2576933"><ele>103.0</ele><time>2026-05-03T15:29:17.481Z</time></trkpt><trkpt lat="39.7541117" lon="16.257915"><ele>103.33333333333334</ele><time>2026-05-03T15:29:18.481Z</time></trkpt><trkpt lat="39.7540067" lon="16.2581433"><ele>103.66666666666666</ele><time>2026-05-03T15:29:19.483Z</time></trkpt><trkpt lat="39.753885" lon="16.258375"><ele>104.0</ele><time>2026-05-03T15:29:20.482Z</time></trkpt><trkpt lat="39.7537583" lon="16.2586033"><ele>104.0</ele><time>2026-05-03T15:29:21.482Z</time></trkpt><trkpt lat="39.7536333" lon="16.2588217"><ele>104.0</ele><time>2026-05-03T15:29:22.481Z</time></trkpt><trkpt lat="39.7535033" lon="16.25903"><ele>104.0</ele><time>2026-05-03T15:29:23.482Z</time></trkpt><trkpt lat="39.753365" lon="16.2592183"><ele>102.0</ele><time>2026-05-03T15:29:24.483Z</time></trkpt><trkpt lat="39.7532167" lon="16.25938"><ele>100.0</ele><time>2026-05-03T15:29:25.481Z</time></trkpt><trkpt lat="39.7530567" lon="16.2595083"><ele>98.0</ele><time>2026-05-03T15:29:26.483Z</time></trkpt><trkpt lat="39.7528817" lon="16.2596317"><ele>96.66666666666666</ele><time>2026-05-03T15:29:27.482Z</time></trkpt><trkpt lat="39.7526933" lon="16.2597567"><ele>95.33333333333333</ele><time>2026-05-03T15:29:28.482Z</time></trkpt><trkpt lat="39.7524917" lon="16.2598867"><ele>94.0</ele><time>2026-05-03T15:29:29.482Z</time></trkpt><trkpt lat="39.75228" lon="16.2600167"><ele>92.5</ele><time>2026-05-03T15:29:30.482Z</time></trkpt><trkpt lat="39.7520633" lon="16.2601567"><ele>91.0</ele><time>2026-05-03T15:29:31.486Z</time></trkpt><trkpt lat="39.7518333" lon="16.2603033"><ele>90.0</ele><time>2026-05-03T15:29:32.482Z</time></trkpt><trkpt lat="39.7515967" lon="16.2604533"><ele>89.0</ele><time>2026-05-03T15:29:33.481Z</time></trkpt><trkpt lat="39.7513517" lon="16.2606133"><ele>87.0</ele><time>2026-05-03T15:29:34.482Z</time></trkpt><trkpt lat="39.7510933" lon="16.2607817"><ele>85.0</ele><time>2026-05-03T15:29:35.482Z</time></trkpt><trkpt lat="39.75082" lon="16.26096"><ele>85.0</ele><time>2026-05-03T15:29:36.482Z</time></trkpt><trkpt lat="39.750545" lon="16.261135"><ele>85.0</ele><time>2026-05-03T15:29:37.482Z</time></trkpt><trkpt lat="39.7502733" lon="16.2613017"><ele>84.0</ele><time>2026-05-03T15:29:38.482Z</time></trkpt><trkpt lat="39.750005" lon="16.2614667"><ele>83.0</ele><time>2026-05-03T15:29:39.481Z</time></trkpt><trkpt lat="39.7497383" lon="16.2616317"><ele>83.0</ele><time>2026-05-03T15:29:40.481Z</time></trkpt><trkpt lat="39.749475" lon="16.2618"><ele>83.0</ele><time>2026-05-03T15:29:41.484Z</time></trkpt><trkpt lat="39.74921" lon="16.2619717"><ele>82.0</ele><time>2026-05-03T15:29:42.482Z</time></trkpt><trkpt lat="39.7489467" lon="16.26215"><ele>81.0</ele><time>2026-05-03T15:29:43.481Z</time></trkpt><trkpt lat="39.7486817" lon="16.2623233"><ele>81.0</ele><time>2026-05-03T15:29:44.481Z</time></trkpt><trkpt lat="39.74841" lon="16.26249"><ele>81.0</ele><time>2026-05-03T15:29:45.482Z</time></trkpt><trkpt lat="39.748135" lon="16.2626567"><ele>81.0</ele><time>2026-05-03T15:29:46.481Z</time></trkpt><trkpt lat="39.7478533" lon="16.2628317"><ele>81.0</ele><time>2026-05-03T15:29:47.482Z</time></trkpt><trkpt lat="39.7475683" lon="16.2630083"><ele>80.0</ele><time>2026-05-03T15:29:48.481Z</time></trkpt><trkpt lat="39.74728" lon="16.2631917"><ele>79.0</ele><time>2026-05-03T15:29:49.483Z</time></trkpt><trkpt lat="39.7469867" lon="16.263375"><ele>77.5</ele><time>2026-05-03T15:29:50.482Z</time></trkpt><trkpt lat="39.7466917" lon="16.2635617"><ele>76.0</ele><time>2026-05-03T15:29:51.481Z</time></trkpt><trkpt lat="39.746395" lon="16.2637483"><ele>76.0</ele><time>2026-05-03T15:29:52.481Z</time></trkpt><trkpt lat="39.7461033" lon="16.2639383"><ele>76.0</ele><time>2026-05-03T15:29:53.482Z</time></trkpt><trkpt lat="39.7458117" lon="16.264125"><ele>76.5</ele><time>2026-05-03T15:29:54.482Z</time></trkpt><trkpt lat="39.7455167" lon="16.26431"><ele>77.0</ele><time>2026-05-03T15:29:55.482Z</time></trkpt><trkpt lat="39.7452233" lon="16.2644967"><ele>76.5</ele><time>2026-05-03T15:29:56.482Z</time></trkpt><trkpt lat="39.7449283" lon="16.2646867"><ele>76.0</ele><time>2026-05-03T15:29:57.483Z</time></trkpt><trkpt lat="39.7446317" lon="16.2648767"><ele>76.5</ele><time>2026-05-03T15:29:58.483Z</time></trkpt><trkpt lat="39.7443367" lon="16.26507"><ele>77.0</ele><time>2026-05-03T15:29:59.483Z</time></trkpt><trkpt lat="39.7440383" lon="16.26526"><ele>77.0</ele><time>2026-05-03T15:30:00.481Z</time></trkpt><trkpt lat="39.74374" lon="16.26545"><ele>77.0</ele><time>2026-05-03T15:30:01.484Z</time></trkpt><trkpt lat="39.7434433" lon="16.2656433"><ele>75.5</ele><time>2026-05-03T15:30:02.484Z</time></trkpt><trkpt lat="39.7431467" lon="16.2658333"><ele>74.0</ele><time>2026-05-03T15:30:03.484Z</time></trkpt><trkpt lat="39.7428517" lon="16.2660217"><ele>74.5</ele><time>2026-05-03T15:30:04.484Z</time></trkpt><trkpt lat="39.7425583" lon="16.2662083"><ele>75.0</ele><time>2026-05-03T15:30:05.484Z</time></trkpt><trkpt lat="39.7422667" lon="16.2663967"><ele>75.0</ele><time>2026-05-03T15:30:06.484Z</time></trkpt><trkpt lat="39.7419783" lon="16.266585"><ele>75.0</ele><time>2026-05-03T15:30:07.483Z</time></trkpt><trkpt lat="39.7416917" lon="16.2667717"><ele>75.0</ele><time>2026-05-03T15:30:08.485Z</time></trkpt><trkpt lat="39.7414083" lon="16.2669533"><ele>75.0</ele><time>2026-05-03T15:30:09.484Z</time></trkpt><trkpt lat="39.7411383" lon="16.2671233"><ele>73.5</ele><time>2026-05-03T15:30:10.483Z</time></trkpt><trkpt lat="39.740885" lon="16.2672867"><ele>72.0</ele><time>2026-05-03T15:30:11.482Z</time></trkpt><trkpt lat="39.7406433" lon="16.2674417"><ele>72.0</ele><time>2026-05-03T15:30:12.481Z</time></trkpt><trkpt lat="39.7404083" lon="16.2675983"><ele>72.0</ele><time>2026-05-03T15:30:13.483Z</time></trkpt><trkpt lat="39.7401717" lon="16.26776"><ele>73.0</ele><time>2026-05-03T15:30:14.483Z</time></trkpt><trkpt lat="39.73993" lon="16.267915"><ele>74.0</ele><time>2026-05-03T15:30:15.481Z</time></trkpt><trkpt lat="39.7396833" lon="16.2680633"><ele>74.0</ele><time>2026-05-03T15:30:16.482Z</time></trkpt><trkpt lat="39.7394333" lon="16.2682117"><ele>74.0</ele><time>2026-05-03T15:30:17.482Z</time></trkpt><trkpt lat="39.73918" lon="16.2683633"><ele>74.0</ele><time>2026-05-03T15:30:18.481Z</time></trkpt><trkpt lat="39.7389233" lon="16.26852"><ele>74.0</ele><time>2026-05-03T15:30:19.482Z</time></trkpt><trkpt lat="39.7386667" lon="16.2686767"><ele>74.0</ele><time>2026-05-03T15:30:20.483Z</time></trkpt><trkpt lat="39.73841" lon="16.2688333"><ele>74.0</ele><time>2026-05-03T15:30:21.482Z</time></trkpt><trkpt lat="39.7381583" lon="16.2689933"><ele>74.0</ele><time>2026-05-03T15:30:22.481Z</time></trkpt><trkpt lat="39.7379117" lon="16.26915"><ele>74.0</ele><time>2026-05-03T15:30:23.482Z</time></trkpt><trkpt lat="39.7376783" lon="16.269295"><ele>74.0</ele><time>2026-05-03T15:30:24.482Z</time></trkpt><trkpt lat="39.73746" lon="16.2694317"><ele>74.0</ele><time>2026-05-03T15:30:25.481Z</time></trkpt><trkpt lat="39.7372567" lon="16.2695583"><ele>74.0</ele><time>2026-05-03T15:30:26.483Z</time></trkpt><trkpt lat="39.7370633" lon="16.26968"><ele>74.0</ele><time>2026-05-03T15:30:27.482Z</time></trkpt><trkpt lat="39.7368783" lon="16.2697983"><ele>74.0</ele><time>2026-05-03T15:30:28.483Z</time></trkpt><trkpt lat="39.73669" lon="16.2699233"><ele>73.0</ele><time>2026-05-03T15:30:29.482Z</time></trkpt><trkpt lat="39.7364967" lon="16.27005"><ele>72.0</ele><time>2026-05-03T15:30:30.483Z</time></trkpt><trkpt lat="39.7363017" lon="16.270175"><ele>71.0</ele><time>2026-05-03T15:30:31.484Z</time></trkpt><trkpt lat="39.7361067" lon="16.2702983"><ele>69.66666666666667</ele><time>2026-05-03T15:30:32.485Z</time></trkpt><trkpt lat="39.7359117" lon="16.2704267"><ele>68.33333333333333</ele><time>2026-05-03T15:30:33.484Z</time></trkpt><trkpt lat="39.7357167" lon="16.27056"><ele>67.0</ele><time>2026-05-03T15:30:34.484Z</time></trkpt><trkpt lat="39.73552" lon="16.2706933"><ele>67.0</ele><time>2026-05-03T15:30:35.484Z</time></trkpt><trkpt lat="39.735325" lon="16.2708233"><ele>67.0</ele><time>2026-05-03T15:30:36.483Z</time></trkpt><trkpt lat="39.7351367" lon="16.2709383"><ele>67.0</ele><time>2026-05-03T15:30:37.484Z</time></trkpt><trkpt lat="39.7349533" lon="16.271035"><ele>65.33333333333333</ele><time>2026-05-03T15:30:38.483Z</time></trkpt><trkpt lat="39.7347633" lon="16.2711017"><ele>63.66666666666667</ele><time>2026-05-03T15:30:39.483Z</time></trkpt><trkpt lat="39.73456" lon="16.2711383"><ele>62.0</ele><time>2026-05-03T15:30:40.483Z</time></trkpt><trkpt lat="39.7343467" lon="16.2711567"><ele>61.0</ele><time>2026-05-03T15:30:41.482Z</time></trkpt><trkpt lat="39.7341233" lon="16.2711667"><ele>60.0</ele><time>2026-05-03T15:30:42.481Z</time></trkpt><trkpt lat="39.73389" lon="16.2711733"><ele>60.0</ele><time>2026-05-03T15:30:43.481Z</time></trkpt><trkpt lat="39.73365" lon="16.2711817"><ele>60.0</ele><time>2026-05-03T15:30:44.481Z</time></trkpt><trkpt lat="39.733405" lon="16.2711933"><ele>59.5</ele><time>2026-05-03T15:30:45.482Z</time></trkpt><trkpt lat="39.7331533" lon="16.2712033"><ele>59.0</ele><time>2026-05-03T15:30:46.482Z</time></trkpt><trkpt lat="39.7328967" lon="16.2712167"><ele>59.0</ele><time>2026-05-03T15:30:47.482Z</time></trkpt><trkpt lat="39.7326433" lon="16.27123"><ele>59.0</ele><time>2026-05-03T15:30:48.482Z</time></trkpt><trkpt lat="39.732395" lon="16.2712467"><ele>59.0</ele><time>2026-05-03T15:30:49.483Z</time></trkpt><trkpt lat="39.73216" lon="16.2712583"><ele>59.0</ele><time>2026-05-03T15:30:50.483Z</time></trkpt><trkpt lat="39.7319217" lon="16.2712717"><ele>58.5</ele><time>2026-05-03T15:30:51.482Z</time></trkpt><trkpt lat="39.731685" lon="16.2712817"><ele>58.0</ele><time>2026-05-03T15:30:52.481Z</time></trkpt><trkpt lat="39.73144" lon="16.27129"><ele>58.0</ele><time>2026-05-03T15:30:53.482Z</time></trkpt><trkpt lat="39.731195" lon="16.2712967"><ele>58.0</ele><time>2026-05-03T15:30:54.482Z</time></trkpt><trkpt lat="39.7309533" lon="16.271305"><ele>57.0</ele><time>2026-05-03T15:30:55.482Z</time></trkpt><trkpt lat="39.7307083" lon="16.2713133"><ele>56.0</ele><time>2026-05-03T15:30:56.483Z</time></trkpt><trkpt lat="39.73046" lon="16.2713217"><ele>56.5</ele><time>2026-05-03T15:30:57.481Z</time></trkpt><trkpt lat="39.7302117" lon="16.27133"><ele>57.0</ele><time>2026-05-03T15:30:58.481Z</time></trkpt><trkpt lat="39.7299667" lon="16.2713367"><ele>57.0</ele><time>2026-05-03T15:30:59.481Z</time></trkpt><trkpt lat="39.7297283" lon="16.271345"><ele>57.0</ele><time>2026-05-03T15:31:00.482Z</time></trkpt><trkpt lat="39.7295" lon="16.27136"><ele>57.0</ele><time>2026-05-03T15:31:01.483Z</time></trkpt><trkpt lat="39.729285" lon="16.2713917"><ele>57.0</ele><time>2026-05-03T15:31:02.483Z</time></trkpt><trkpt lat="39.7290817" lon="16.27145"><ele>57.0</ele><time>2026-05-03T15:31:03.483Z</time></trkpt><trkpt lat="39.7288867" lon="16.2715417"><ele>56.66666666666667</ele><time>2026-05-03T15:31:04.483Z</time></trkpt><trkpt lat="39.728705" lon="16.2716683"><ele>56.333333333333336</ele><time>2026-05-03T15:31:05.484Z</time></trkpt><trkpt lat="39.7285417" lon="16.27183"><ele>56.0</ele><time>2026-05-03T15:31:06.484Z</time></trkpt><trkpt lat="39.7283983" lon="16.2720233"><ele>57.0</ele><time>2026-05-03T15:31:07.484Z</time></trkpt><trkpt lat="39.7282667" lon="16.2722383"><ele>58.0</ele><time>2026-05-03T15:31:08.485Z</time></trkpt><trkpt lat="39.72814" lon="16.27247"><ele>59.0</ele><time>2026-05-03T15:31:09.483Z</time></trkpt><trkpt lat="39.7280117" lon="16.2727133"><ele>59.0</ele><time>2026-05-03T15:31:10.484Z</time></trkpt><trkpt lat="39.7278817" lon="16.2729583"><ele>59.0</ele><time>2026-05-03T15:31:11.481Z</time></trkpt><trkpt lat="39.727755" lon="16.273195"><ele>61.333333333333336</ele><time>2026-05-03T15:31:12.482Z</time></trkpt><trkpt lat="39.7276417" lon="16.27341"><ele>63.66666666666667</ele><time>2026-05-03T15:31:13.482Z</time></trkpt><trkpt lat="39.7275433" lon="16.2735967"><ele>66.0</ele><time>2026-05-03T15:31:14.483Z</time></trkpt><trkpt lat="39.727455" lon="16.2737583"><ele>66.0</ele><time>2026-05-03T15:31:15.481Z</time></trkpt><trkpt lat="39.7273717" lon="16.2739017"><ele>66.0</ele><time>2026-05-03T15:31:16.482Z</time></trkpt><trkpt lat="39.72729" lon="16.2740333"><ele>66.0</ele><time>2026-05-03T15:31:17.482Z</time></trkpt><trkpt lat="39.727205" lon="16.2741433"><ele>66.0</ele><time>2026-05-03T15:31:18.482Z</time></trkpt><trkpt lat="39.7271183" lon="16.2742217"><ele>66.0</ele><time>2026-05-03T15:31:19.481Z</time></trkpt><trkpt lat="39.7270333" lon="16.2742717"><ele>66.0</ele><time>2026-05-03T15:31:20.482Z</time></trkpt><trkpt lat="39.7269567" lon="16.2743"><ele>66.0</ele><time>2026-05-03T15:31:21.482Z</time></trkpt><trkpt lat="39.7268533" lon="16.274285"><ele>66.0</ele><time>2026-05-03T15:31:23.481Z</time></trkpt><trkpt lat="39.7267617" lon="16.2742433"><ele>66.0</ele><time>2026-05-03T15:31:25.483Z</time></trkpt><trkpt lat="39.726675" lon="16.2742167"><ele>66.0</ele><time>2026-05-03T15:31:27.481Z</time></trkpt><trkpt lat="39.7266133" lon="16.2742567"><ele>66.0</ele><time>2026-05-03T15:31:29.481Z</time></trkpt><trkpt lat="39.7265567" lon="16.2743233"><ele>66.0</ele><time>2026-05-03T15:31:32.482Z</time></trkpt><trkpt lat="39.7264883" lon="16.2743017"><ele>66.0</ele><time>2026-05-03T15:31:38.482Z</time></trkpt><trkpt lat="39.7264433" lon="16.274205"><ele>66.0</ele><time>2026-05-03T15:31:42.481Z</time></trkpt><trkpt lat="39.726415" lon="16.2741117"><ele>66.0</ele><time>2026-05-03T15:31:44.484Z</time></trkpt><trkpt lat="39.7264317" lon="16.2739517"><ele>66.0</ele><time>2026-05-03T15:31:46.482Z</time></trkpt><trkpt lat="39.7264467" lon="16.2738617"><ele>66.0</ele><time>2026-05-03T15:31:47.482Z</time></trkpt><trkpt lat="39.7264567" lon="16.2737683"><ele>66.0</ele><time>2026-05-03T15:31:48.482Z</time></trkpt><trkpt lat="39.7264617" lon="16.2736633"><ele>66.0</ele><time>2026-05-03T15:31:49.481Z</time></trkpt><trkpt lat="39.726475" lon="16.2735483"><ele>66.0</ele><time>2026-05-03T15:31:50.481Z</time></trkpt><trkpt lat="39.726485" lon="16.27343"><ele>66.0</ele><time>2026-05-03T15:31:51.482Z</time></trkpt><trkpt lat="39.7264967" lon="16.2732967"><ele>66.0</ele><time>2026-05-03T15:31:52.481Z</time></trkpt><trkpt lat="39.72651" lon="16.27315"><ele>66.0</ele><time>2026-05-03T15:31:53.482Z</time></trkpt><trkpt lat="39.7265217" lon="16.272995"><ele>66.0</ele><time>2026-05-03T15:31:54.48Z</time></trkpt><trkpt lat="39.7265333" lon="16.2728283"><ele>66.0</ele><time>2026-05-03T15:31:55.481Z</time></trkpt><trkpt lat="39.726545" lon="16.2726517"><ele>66.66666666666667</ele><time>2026-05-03T15:31:56.482Z</time></trkpt><trkpt lat="39.7265583" lon="16.2724633"><ele>67.33333333333334</ele><time>2026-05-03T15:31:57.48Z</time></trkpt><trkpt lat="39.726575" lon="16.2722667"><ele>68.0</ele><time>2026-05-03T15:31:58.482Z</time></trkpt><trkpt lat="39.7265917" lon="16.2720617"><ele>68.66666666666667</ele><time>2026-05-03T15:31:59.482Z</time></trkpt><trkpt lat="39.7266083" lon="16.2718483"><ele>69.33333333333333</ele><time>2026-05-03T15:32:00.483Z</time></trkpt><trkpt lat="39.7266283" lon="16.2716283"><ele>70.0</ele><time>2026-05-03T15:32:01.483Z</time></trkpt><trkpt lat="39.7266517" lon="16.2714033"><ele>70.0</ele><time>2026-05-03T15:32:02.484Z</time></trkpt><trkpt lat="39.7266783" lon="16.271165"><ele>70.0</ele><time>2026-05-03T15:32:03.484Z</time></trkpt><trkpt lat="39.7267083" lon="16.2709183"><ele>70.0</ele><time>2026-05-03T15:32:04.484Z</time></trkpt><trkpt lat="39.7267417" lon="16.2706633"><ele>70.0</ele><time>2026-05-03T15:32:05.484Z</time></trkpt><trkpt lat="39.7267667" lon="16.270395"><ele>70.0</ele><time>2026-05-03T15:32:06.483Z</time></trkpt><trkpt lat="39.72678" lon="16.2701217"><ele>70.0</ele><time>2026-05-03T15:32:07.484Z</time></trkpt><trkpt lat="39.7267867" lon="16.269835"><ele>70.5</ele><time>2026-05-03T15:32:08.484Z</time></trkpt><trkpt lat="39.726785" lon="16.26954"><ele>71.0</ele><time>2026-05-03T15:32:09.484Z</time></trkpt><trkpt lat="39.7267833" lon="16.269235"><ele>71.5</ele><time>2026-05-03T15:32:10.483Z</time></trkpt><trkpt lat="39.7267717" lon="16.2689233"><ele>72.0</ele><time>2026-05-03T15:32:11.481Z</time></trkpt><trkpt lat="39.726755" lon="16.268595"><ele>72.0</ele><time>2026-05-03T15:32:12.481Z</time></trkpt><trkpt lat="39.7267267" lon="16.2682467"><ele>72.0</ele><time>2026-05-03T15:32:13.483Z</time></trkpt><trkpt lat="39.7266933" lon="16.2678933"><ele>72.5</ele><time>2026-05-03T15:32:14.483Z</time></trkpt><trkpt lat="39.7266483" lon="16.2675433"><ele>73.0</ele><time>2026-05-03T15:32:15.481Z</time></trkpt><trkpt lat="39.7265967" lon="16.267185"><ele>74.0</ele><time>2026-05-03T15:32:16.482Z</time></trkpt><trkpt lat="39.72653" lon="16.2668167"><ele>75.0</ele><time>2026-05-03T15:32:17.481Z</time></trkpt><trkpt lat="39.7264483" lon="16.26644"><ele>75.0</ele><time>2026-05-03T15:32:18.481Z</time></trkpt><trkpt lat="39.7263567" lon="16.2660517"><ele>75.0</ele><time>2026-05-03T15:32:19.481Z</time></trkpt><trkpt lat="39.7262583" lon="16.2656567"><ele>75.0</ele><time>2026-05-03T15:32:20.482Z</time></trkpt><trkpt lat="39.7261567" lon="16.2652533"><ele>75.0</ele><time>2026-05-03T15:32:21.482Z</time></trkpt><trkpt lat="39.726055" lon="16.2648467"><ele>75.0</ele><time>2026-05-03T15:32:22.482Z</time></trkpt><trkpt lat="39.7259567" lon="16.2644433"><ele>75.0</ele><time>2026-05-03T15:32:23.482Z</time></trkpt><trkpt lat="39.7258617" lon="16.264045"><ele>75.0</ele><time>2026-05-03T15:32:24.482Z</time></trkpt><trkpt lat="39.725765" lon="16.263645"><ele>75.0</ele><time>2026-05-03T15:32:25.483Z</time></trkpt><trkpt lat="39.72567" lon="16.2632433"><ele>75.0</ele><time>2026-05-03T15:32:26.483Z</time></trkpt><trkpt lat="39.725575" lon="16.26284"><ele>75.0</ele><time>2026-05-03T15:32:27.481Z</time></trkpt><trkpt lat="39.72548" lon="16.2624333"><ele>76.0</ele><time>2026-05-03T15:32:28.481Z</time></trkpt><trkpt lat="39.72539" lon="16.262025"><ele>77.0</ele><time>2026-05-03T15:32:29.482Z</time></trkpt><trkpt lat="39.7253" lon="16.2616117"><ele>77.0</ele><time>2026-05-03T15:32:30.484Z</time></trkpt><trkpt lat="39.7252133" lon="16.261195"><ele>77.0</ele><time>2026-05-03T15:32:31.484Z</time></trkpt><trkpt lat="39.725125" lon="16.260775"><ele>77.5</ele><time>2026-05-03T15:32:32.484Z</time></trkpt><trkpt lat="39.7250383" lon="16.2603533"><ele>78.0</ele><time>2026-05-03T15:32:33.484Z</time></trkpt><trkpt lat="39.72495" lon="16.2599267"><ele>79.0</ele><time>2026-05-03T15:32:34.483Z</time></trkpt><trkpt lat="39.724865" lon="16.2595017"><ele>80.0</ele><time>2026-05-03T15:32:35.483Z</time></trkpt><trkpt lat="39.72478" lon="16.25908"><ele>80.5</ele><time>2026-05-03T15:32:36.484Z</time></trkpt><trkpt lat="39.7246983" lon="16.2586583"><ele>81.0</ele><time>2026-05-03T15:32:37.484Z</time></trkpt><trkpt lat="39.72462" lon="16.2582483"><ele>81.5</ele><time>2026-05-03T15:32:38.484Z</time></trkpt><trkpt lat="39.7245467" lon="16.2578483"><ele>82.0</ele><time>2026-05-03T15:32:39.484Z</time></trkpt><trkpt lat="39.724475" lon="16.2574583"><ele>82.5</ele><time>2026-05-03T15:32:40.483Z</time></trkpt><trkpt lat="39.7244033" lon="16.2570733"><ele>83.0</ele><time>2026-05-03T15:32:41.482Z</time></trkpt><trkpt lat="39.7243317" lon="16.2566917"><ele>83.0</ele><time>2026-05-03T15:32:42.481Z</time></trkpt><trkpt lat="39.7242617" lon="16.2563133"><ele>83.0</ele><time>2026-05-03T15:32:43.482Z</time></trkpt><trkpt lat="39.7241883" lon="16.255935"><ele>84.0</ele><time>2026-05-03T15:32:44.481Z</time></trkpt><trkpt lat="39.724115" lon="16.25556"><ele>85.0</ele><time>2026-05-03T15:32:45.481Z</time></trkpt><trkpt lat="39.7240367" lon="16.2551833"><ele>85.0</ele><time>2026-05-03T15:32:46.482Z</time></trkpt><trkpt lat="39.7239617" lon="16.2548067"><ele>85.0</ele><time>2026-05-03T15:32:47.482Z</time></trkpt><trkpt lat="39.7238867" lon="16.254425"><ele>85.5</ele><time>2026-05-03T15:32:48.482Z</time></trkpt><trkpt lat="39.7238117" lon="16.25404"><ele>86.0</ele><time>2026-05-03T15:32:49.482Z</time></trkpt><trkpt lat="39.7237417" lon="16.25365"><ele>87.0</ele><time>2026-05-03T15:32:50.481Z</time></trkpt><trkpt lat="39.7236717" lon="16.2532583"><ele>88.0</ele><time>2026-05-03T15:32:51.482Z</time></trkpt><trkpt lat="39.7235983" lon="16.2528633"><ele>87.5</ele><time>2026-05-03T15:32:52.481Z</time></trkpt><trkpt lat="39.723525" lon="16.25247"><ele>87.0</ele><time>2026-05-03T15:32:53.481Z</time></trkpt><trkpt lat="39.7234483" lon="16.2520783"><ele>88.0</ele><time>2026-05-03T15:32:54.481Z</time></trkpt><trkpt lat="39.723375" lon="16.2516883"><ele>89.0</ele><time>2026-05-03T15:32:55.481Z</time></trkpt><trkpt lat="39.7233033" lon="16.2513033"><ele>89.5</ele><time>2026-05-03T15:32:56.481Z</time></trkpt><trkpt lat="39.7232317" lon="16.2509217"><ele>90.0</ele><time>2026-05-03T15:32:57.483Z</time></trkpt><trkpt lat="39.723165" lon="16.250545"><ele>90.5</ele><time>2026-05-03T15:32:58.483Z</time></trkpt><trkpt lat="39.723095" lon="16.2501583"><ele>91.0</ele><time>2026-05-03T15:32:59.482Z</time></trkpt><trkpt lat="39.7230283" lon="16.2497633"><ele>91.5</ele><time>2026-05-03T15:33:00.484Z</time></trkpt><trkpt lat="39.7229533" lon="16.24937"><ele>92.0</ele><time>2026-05-03T15:33:01.484Z</time></trkpt><trkpt lat="39.72288" lon="16.2489717"><ele>92.0</ele><time>2026-05-03T15:33:02.485Z</time></trkpt><trkpt lat="39.7228083" lon="16.2485667"><ele>92.0</ele><time>2026-05-03T15:33:03.484Z</time></trkpt><trkpt lat="39.7227167" lon="16.2481683"><ele>93.0</ele><time>2026-05-03T15:33:04.484Z</time></trkpt><trkpt lat="39.7226467" lon="16.2477633"><ele>94.0</ele><time>2026-05-03T15:33:05.484Z</time></trkpt><trkpt lat="39.7225817" lon="16.247365"><ele>95.0</ele><time>2026-05-03T15:33:06.484Z</time></trkpt><trkpt lat="39.722515" lon="16.2469533"><ele>96.0</ele><time>2026-05-03T15:33:07.484Z</time></trkpt><trkpt lat="39.7224483" lon="16.2465483"><ele>96.5</ele><time>2026-05-03T15:33:08.482Z</time></trkpt><trkpt lat="39.7223833" lon="16.2461433"><ele>97.0</ele><time>2026-05-03T15:33:09.481Z</time></trkpt><trkpt lat="39.7223167" lon="16.2457383"><ele>98.0</ele><time>2026-05-03T15:33:10.483Z</time></trkpt><trkpt lat="39.72225" lon="16.24533"><ele>99.0</ele><time>2026-05-03T15:33:11.483Z</time></trkpt><trkpt lat="39.7221783" lon="16.2449183"><ele>98.5</ele><time>2026-05-03T15:33:12.483Z</time></trkpt><trkpt lat="39.72211" lon="16.2445117"><ele>98.0</ele><time>2026-05-03T15:33:13.483Z</time></trkpt><trkpt lat="39.72204" lon="16.2441033"><ele>99.0</ele><time>2026-05-03T15:33:14.483Z</time></trkpt><trkpt lat="39.7219717" lon="16.243695"><ele>100.0</ele><time>2026-05-03T15:33:15.484Z</time></trkpt><trkpt lat="39.7219" lon="16.2432933"><ele>100.5</ele><time>2026-05-03T15:33:16.482Z</time></trkpt><trkpt lat="39.721835" lon="16.242895"><ele>101.0</ele><time>2026-05-03T15:33:17.481Z</time></trkpt><trkpt lat="39.72177" lon="16.2425067"><ele>102.5</ele><time>2026-05-03T15:33:18.482Z</time></trkpt><trkpt lat="39.7217033" lon="16.2421333"><ele>104.0</ele><time>2026-05-03T15:33:19.482Z</time></trkpt><trkpt lat="39.7216433" lon="16.2417717"><ele>105.5</ele><time>2026-05-03T15:33:20.482Z</time></trkpt><trkpt lat="39.7215933" lon="16.241435"><ele>107.0</ele><time>2026-05-03T15:33:21.482Z</time></trkpt><trkpt lat="39.7215467" lon="16.2411083"><ele>107.0</ele><time>2026-05-03T15:33:22.482Z</time></trkpt><trkpt lat="39.72151" lon="16.24079"><ele>107.0</ele><time>2026-05-03T15:33:23.482Z</time></trkpt><trkpt lat="39.72148" lon="16.2404933"><ele>107.0</ele><time>2026-05-03T15:33:24.482Z</time></trkpt><trkpt lat="39.7214617" lon="16.2402167"><ele>107.0</ele><time>2026-05-03T15:33:25.482Z</time></trkpt><trkpt lat="39.7214417" lon="16.2399617"><ele>107.0</ele><time>2026-05-03T15:33:26.482Z</time></trkpt><trkpt lat="39.7214267" lon="16.239745"><ele>106.99999999999999</ele><time>2026-05-03T15:33:27.481Z</time></trkpt><trkpt lat="39.7214167" lon="16.2395767"><ele>107.0</ele><time>2026-05-03T15:33:28.482Z</time></trkpt><trkpt lat="39.7214067" lon="16.2394617"><ele>107.0</ele><time>2026-05-03T15:33:29.481Z</time></trkpt><trkpt lat="39.7213967" lon="16.2393767"><ele>107.0</ele><time>2026-05-03T15:33:30.482Z</time></trkpt><trkpt lat="39.72139" lon="16.2392533"><ele>106.99999999999999</ele><time>2026-05-03T15:33:32.481Z</time></trkpt><trkpt lat="39.7213883" lon="16.239165"><ele>107.0</ele><time>2026-05-03T15:33:34.483Z</time></trkpt><trkpt lat="39.7213867" lon="16.2390467"><ele>107.19999999999999</ele><time>2026-05-03T15:33:37.482Z</time></trkpt><trkpt lat="39.72138" lon="16.2389533"><ele>107.39999999999999</ele><time>2026-05-03T15:33:40.481Z</time></trkpt><trkpt lat="39.7213733" lon="16.2388617"><ele>107.60000000000001</ele><time>2026-05-03T15:33:43.483Z</time></trkpt><trkpt lat="39.7213617" lon="16.2387567"><ele>107.80000000000001</ele><time>2026-05-03T15:33:45.481Z</time></trkpt><trkpt lat="39.7213333" lon="16.23857"><ele>108.0</ele><time>2026-05-03T15:33:47.481Z</time></trkpt><trkpt lat="39.7213133" lon="16.238435"><ele>108.0</ele><time>2026-05-03T15:33:48.482Z</time></trkpt><trkpt lat="39.72129" lon="16.2382767"><ele>108.0</ele><time>2026-05-03T15:33:49.482Z</time></trkpt><trkpt lat="39.721265" lon="16.23811"><ele>108.0</ele><time>2026-05-03T15:33:50.482Z</time></trkpt><trkpt lat="39.7212467" lon="16.2379283"><ele>108.0</ele><time>2026-05-03T15:33:51.482Z</time></trkpt><trkpt lat="39.7212183" lon="16.23774"><ele>108.33333333333334</ele><time>2026-05-03T15:33:52.482Z</time></trkpt><trkpt lat="39.7211817" lon="16.2375317"><ele>108.66666666666667</ele><time>2026-05-03T15:33:53.482Z</time></trkpt><trkpt lat="39.7211433" lon="16.2373"><ele>109.0</ele><time>2026-05-03T15:33:54.481Z</time></trkpt><trkpt lat="39.7211067" lon="16.237055"><ele>110.33333333333334</ele><time>2026-05-03T15:33:55.482Z</time></trkpt><trkpt lat="39.7210583" lon="16.236805"><ele>111.66666666666666</ele><time>2026-05-03T15:33:56.481Z</time></trkpt><trkpt lat="39.7210017" lon="16.2365433"><ele>113.0</ele><time>2026-05-03T15:33:57.482Z</time></trkpt><trkpt lat="39.7209317" lon="16.2362767"><ele>115.5</ele><time>2026-05-03T15:33:58.481Z</time></trkpt><trkpt lat="39.7208533" lon="16.236"><ele>118.0</ele><time>2026-05-03T15:33:59.482Z</time></trkpt><trkpt lat="39.7207633" lon="16.23572"><ele>120.0</ele><time>2026-05-03T15:34:00.481Z</time></trkpt><trkpt lat="39.7206667" lon="16.2354283"><ele>122.0</ele><time>2026-05-03T15:34:01.481Z</time></trkpt><trkpt lat="39.7205617" lon="16.2351217"><ele>122.0</ele><time>2026-05-03T15:34:02.481Z</time></trkpt><trkpt lat="39.720455" lon="16.23481"><ele>122.0</ele><time>2026-05-03T15:34:03.481Z</time></trkpt><trkpt lat="39.7203433" lon="16.2345"><ele>123.0</ele><time>2026-05-03T15:34:04.481Z</time></trkpt><trkpt lat="39.7202233" lon="16.2341967"><ele>124.0</ele><time>2026-05-03T15:34:05.481Z</time></trkpt><trkpt lat="39.7201017" lon="16.2338967"><ele>124.0</ele><time>2026-05-03T15:34:06.482Z</time></trkpt><trkpt lat="39.7199817" lon="16.23361"><ele>124.0</ele><time>2026-05-03T15:34:07.482Z</time></trkpt><trkpt lat="39.719865" lon="16.2333433"><ele>126.0</ele><time>2026-05-03T15:34:08.481Z</time></trkpt><trkpt lat="39.7197533" lon="16.233105"><ele>128.0</ele><time>2026-05-03T15:34:09.481Z</time></trkpt><trkpt lat="39.7196533" lon="16.23288"><ele>130.0</ele><time>2026-05-03T15:34:10.484Z</time></trkpt><trkpt lat="39.71957" lon="16.2326767"><ele>130.0</ele><time>2026-05-03T15:34:11.482Z</time></trkpt><trkpt lat="39.7195117" lon="16.2324933"><ele>130.0</ele><time>2026-05-03T15:34:12.481Z</time></trkpt><trkpt lat="39.7194767" lon="16.2323317"><ele>130.0</ele><time>2026-05-03T15:34:13.482Z</time></trkpt><trkpt lat="39.7194583" lon="16.2321833"><ele>130.0</ele><time>2026-05-03T15:34:14.483Z</time></trkpt><trkpt lat="39.7194333" lon="16.23205"><ele>129.4</ele><time>2026-05-03T15:34:15.481Z</time></trkpt><trkpt lat="39.7193917" lon="16.2319433"><ele>128.8</ele><time>2026-05-03T15:34:16.482Z</time></trkpt><trkpt lat="39.71934" lon="16.231865"><ele>128.2</ele><time>2026-05-03T15:34:17.482Z</time></trkpt><trkpt lat="39.719285" lon="16.23181"><ele>127.6</ele><time>2026-05-03T15:34:18.482Z</time></trkpt><trkpt lat="39.7192017" lon="16.2317"><ele>127.0</ele><time>2026-05-03T15:34:20.482Z</time></trkpt><trkpt lat="39.7191617" lon="16.2315933"><ele>127.00000000000001</ele><time>2026-05-03T15:34:22.482Z</time></trkpt><trkpt lat="39.7191267" lon="16.23148"><ele>127.0</ele><time>2026-05-03T15:34:24.481Z</time></trkpt><trkpt lat="39.7190967" lon="16.2313883"><ele>127.0</ele><time>2026-05-03T15:34:26.482Z</time></trkpt><trkpt lat="39.7190667" lon="16.2312767"><ele>127.0</ele><time>2026-05-03T15:34:29.482Z</time></trkpt><trkpt lat="39.719045" lon="16.2311633"><ele>127.00000000000001</ele><time>2026-05-03T15:34:32.482Z</time></trkpt><trkpt lat="39.7190317" lon="16.23108"><ele>127.0</ele><time>2026-05-03T15:34:35.482Z</time></trkpt><trkpt lat="39.719015" lon="16.2309733"><ele>128.16666666666669</ele><time>2026-05-03T15:34:38.484Z</time></trkpt><trkpt lat="39.7189983" lon="16.2308633"><ele>129.33333333333334</ele><time>2026-05-03T15:34:41.483Z</time></trkpt><trkpt lat="39.71899" lon="16.2307667"><ele>130.5</ele><time>2026-05-03T15:34:44.482Z</time></trkpt><trkpt lat="39.718975" lon="16.23067"><ele>131.66666666666666</ele><time>2026-05-03T15:34:47.483Z</time></trkpt><trkpt lat="39.71896" lon="16.2305783"><ele>132.83333333333331</ele><time>2026-05-03T15:34:50.483Z</time></trkpt><trkpt lat="39.7189433" lon="16.2304867"><ele>134.0</ele><time>2026-05-03T15:34:53.482Z</time></trkpt><trkpt lat="39.7189217" lon="16.2303883"><ele>134.0</ele><time>2026-05-03T15:34:57.481Z</time></trkpt><trkpt lat="39.7188967" lon="16.2302983"><ele>134.0</ele><time>2026-05-03T15:35:00.482Z</time></trkpt><trkpt lat="39.7188633" lon="16.2303767"><ele>134.0</ele><time>2026-05-03T15:35:23.482Z</time></trkpt><trkpt lat="39.7189" lon="16.2304967"><ele>134.0</ele><time>2026-05-03T15:35:25.483Z</time></trkpt><trkpt lat="39.7189317" lon="16.2305983"><ele>134.0</ele><time>2026-05-03T15:35:26.483Z</time></trkpt><trkpt lat="39.7189817" lon="16.2308217"><ele>134.0</ele><time>2026-05-03T15:35:27.484Z</time></trkpt><trkpt lat="39.7189967" lon="16.2309683"><ele>134.0</ele><time>2026-05-03T15:35:28.481Z</time></trkpt><trkpt lat="39.7190167" lon="16.2310983"><ele>134.0</ele><time>2026-05-03T15:35:29.482Z</time></trkpt><trkpt lat="39.7190333" lon="16.23121"><ele>134.0</ele><time>2026-05-03T15:35:30.483Z</time></trkpt><trkpt lat="39.7190483" lon="16.2313283"><ele>134.0</ele><time>2026-05-03T15:35:31.482Z</time></trkpt><trkpt lat="39.7190667" lon="16.2314433"><ele>132.83333333333331</ele><time>2026-05-03T15:35:32.483Z</time></trkpt><trkpt lat="39.7190867" lon="16.2315583"><ele>131.66666666666666</ele><time>2026-05-03T15:35:33.481Z</time></trkpt><trkpt lat="39.7191017" lon="16.2316633"><ele>130.5</ele><time>2026-05-03T15:35:34.482Z</time></trkpt><trkpt lat="39.7191117" lon="16.23176"><ele>129.33333333333334</ele><time>2026-05-03T15:35:35.485Z</time></trkpt><trkpt lat="39.71911" lon="16.23185"><ele>128.16666666666669</ele><time>2026-05-03T15:35:36.481Z</time></trkpt><trkpt lat="39.719075" lon="16.2319983"><ele>127.0</ele><time>2026-05-03T15:35:38.482Z</time></trkpt><trkpt lat="39.7190533" lon="16.2321417"><ele>127.0</ele><time>2026-05-03T15:35:40.482Z</time></trkpt><trkpt lat="39.719105" lon="16.2322833"><ele>126.99999999999999</ele><time>2026-05-03T15:35:42.482Z</time></trkpt><trkpt lat="39.7191633" lon="16.23235"><ele>126.99999999999999</ele><time>2026-05-03T15:35:43.481Z</time></trkpt><trkpt lat="39.7192333" lon="16.2324083"><ele>127.0</ele><time>2026-05-03T15:35:44.482Z</time></trkpt><trkpt lat="39.719315" lon="16.2324567"><ele>127.0</ele><time>2026-05-03T15:35:45.482Z</time></trkpt><trkpt lat="39.7194067" lon="16.23257"><ele>127.75</ele><time>2026-05-03T15:35:46.482Z</time></trkpt><trkpt lat="39.71947" lon="16.2326517"><ele>128.5</ele><time>2026-05-03T15:35:47.483Z</time></trkpt><trkpt lat="39.71954" lon="16.2327617"><ele>129.25</ele><time>2026-05-03T15:35:48.482Z</time></trkpt><trkpt lat="39.7196083" lon="16.2328967"><ele>130.0</ele><time>2026-05-03T15:35:49.483Z</time></trkpt><trkpt lat="39.7196833" lon="16.233055"><ele>128.0</ele><time>2026-05-03T15:35:50.482Z</time></trkpt><trkpt lat="39.7197567" lon="16.23322"><ele>126.0</ele><time>2026-05-03T15:35:51.481Z</time></trkpt><trkpt lat="39.7198317" lon="16.233395"><ele>124.0</ele><time>2026-05-03T15:35:52.482Z</time></trkpt><trkpt lat="39.7199083" lon="16.233575"><ele>124.0</ele><time>2026-05-03T15:35:53.482Z</time></trkpt><trkpt lat="39.7199867" lon="16.2337667"><ele>124.0</ele><time>2026-05-03T15:35:54.482Z</time></trkpt><trkpt lat="39.7200667" lon="16.2339633"><ele>124.0</ele><time>2026-05-03T15:35:55.482Z</time></trkpt><trkpt lat="39.720145" lon="16.2341683"><ele>124.66666666666667</ele><time>2026-05-03T15:35:56.482Z</time></trkpt><trkpt lat="39.7202217" lon="16.2343767"><ele>125.33333333333334</ele><time>2026-05-03T15:35:57.482Z</time></trkpt><trkpt lat="39.7202967" lon="16.23458"><ele>126.0</ele><time>2026-05-03T15:35:58.481Z</time></trkpt><trkpt lat="39.7203667" lon="16.2347733"><ele>124.66666666666666</ele><time>2026-05-03T15:35:59.483Z</time></trkpt><trkpt lat="39.72043" lon="16.2349617"><ele>123.33333333333333</ele><time>2026-05-03T15:36:00.482Z</time></trkpt><trkpt lat="39.72049" lon="16.2351433"><ele>122.0</ele><time>2026-05-03T15:36:01.482Z</time></trkpt><trkpt lat="39.7205467" lon="16.2353233"><ele>122.0</ele><time>2026-05-03T15:36:02.483Z</time></trkpt><trkpt lat="39.7206017" lon="16.235505"><ele>122.0</ele><time>2026-05-03T15:36:03.483Z</time></trkpt><trkpt lat="39.720655" lon="16.23569"><ele>122.0</ele><time>2026-05-03T15:36:04.481Z</time></trkpt><trkpt lat="39.7207067" lon="16.2358817"><ele>120.66666666666666</ele><time>2026-05-03T15:36:05.481Z</time></trkpt><trkpt lat="39.7207617" lon="16.2360867"><ele>119.33333333333334</ele><time>2026-05-03T15:36:06.481Z</time></trkpt><trkpt lat="39.7208117" lon="16.2362883"><ele>118.0</ele><time>2026-05-03T15:36:07.482Z</time></trkpt><trkpt lat="39.72086" lon="16.2364883"><ele>116.75</ele><time>2026-05-03T15:36:08.483Z</time></trkpt><trkpt lat="39.7209017" lon="16.23667"><ele>115.5</ele><time>2026-05-03T15:36:09.481Z</time></trkpt><trkpt lat="39.720945" lon="16.2368583"><ele>114.25</ele><time>2026-05-03T15:36:10.481Z</time></trkpt><trkpt lat="39.7209817" lon="16.2370383"><ele>113.0</ele><time>2026-05-03T15:36:11.482Z</time></trkpt><trkpt lat="39.7210167" lon="16.2372133"><ele>112.0</ele><time>2026-05-03T15:36:12.482Z</time></trkpt><trkpt lat="39.7210367" lon="16.2373767"><ele>111.0</ele><time>2026-05-03T15:36:13.482Z</time></trkpt><trkpt lat="39.72103" lon="16.237535"><ele>110.0</ele><time>2026-05-03T15:36:14.482Z</time></trkpt><trkpt lat="39.720995" lon="16.237675"><ele>109.0</ele><time>2026-05-03T15:36:15.482Z</time></trkpt><trkpt lat="39.7209283" lon="16.2377883"><ele>109.0</ele><time>2026-05-03T15:36:16.481Z</time></trkpt><trkpt lat="39.7208383" lon="16.2378833"><ele>109.0</ele><time>2026-05-03T15:36:17.483Z</time></trkpt><trkpt lat="39.7207383" lon="16.2379667"><ele>109.0</ele><time>2026-05-03T15:36:18.481Z</time></trkpt><trkpt lat="39.72062" lon="16.2380017"><ele>109.0</ele><time>2026-05-03T15:36:19.482Z</time></trkpt><trkpt lat="39.7204967" lon="16.2379883"><ele>109.0</ele><time>2026-05-03T15:36:20.483Z</time></trkpt><trkpt lat="39.720385" lon="16.2378883"><ele>109.0</ele><time>2026-05-03T15:36:21.482Z</time></trkpt><trkpt lat="39.7202783" lon="16.237775"><ele>109.0</ele><time>2026-05-03T15:36:22.482Z</time></trkpt><trkpt lat="39.7202083" lon="16.2376517"><ele>109.0</ele><time>2026-05-03T15:36:23.482Z</time></trkpt><trkpt lat="39.72015" lon="16.2374883"><ele>109.25</ele><time>2026-05-03T15:36:24.482Z</time></trkpt><trkpt lat="39.7201233" lon="16.2373017"><ele>109.5</ele><time>2026-05-03T15:36:25.481Z</time></trkpt><trkpt lat="39.7201383" lon="16.23712"><ele>109.75</ele><time>2026-05-03T15:36:26.482Z</time></trkpt><trkpt lat="39.7202" lon="16.2369483"><ele>110.0</ele><time>2026-05-03T15:36:27.481Z</time></trkpt><trkpt lat="39.7202933" lon="16.2368"><ele>111.0</ele><time>2026-05-03T15:36:28.482Z</time></trkpt><trkpt lat="39.7204117" lon="16.2366667"><ele>112.0</ele><time>2026-05-03T15:36:29.481Z</time></trkpt><trkpt lat="39.7205533" lon="16.2365483"><ele>113.0</ele><time>2026-05-03T15:36:30.482Z</time></trkpt><trkpt lat="39.7207117" lon="16.2364533"><ele>114.66666666666666</ele><time>2026-05-03T15:36:31.482Z</time></trkpt><trkpt lat="39.720875" lon="16.2363883"><ele>116.33333333333334</ele><time>2026-05-03T15:36:32.481Z</time></trkpt><trkpt lat="39.72104" lon="16.2363583"><ele>118.0</ele><time>2026-05-03T15:36:33.482Z</time></trkpt><trkpt lat="39.7212167" lon="16.2363517"><ele>119.33333333333334</ele><time>2026-05-03T15:36:34.482Z</time></trkpt><trkpt lat="39.7213917" lon="16.2363683"><ele>120.66666666666666</ele><time>2026-05-03T15:36:35.481Z</time></trkpt><trkpt lat="39.72156" lon="16.23641"><ele>122.0</ele><time>2026-05-03T15:36:36.482Z</time></trkpt><trkpt lat="39.7216983" lon="16.23644"><ele>122.0</ele><time>2026-05-03T15:36:37.482Z</time></trkpt><trkpt lat="39.7218333" lon="16.2364617"><ele>121.99999999999999</ele><time>2026-05-03T15:36:38.481Z</time></trkpt><trkpt lat="39.7219517" lon="16.2364667"><ele>121.99999999999999</ele><time>2026-05-03T15:36:39.483Z</time></trkpt><trkpt lat="39.7220467" lon="16.2364433"><ele>122.0</ele><time>2026-05-03T15:36:40.482Z</time></trkpt><trkpt lat="39.7221317" lon="16.2364483"><ele>122.0</ele><time>2026-05-03T15:36:41.483Z</time></trkpt><trkpt lat="39.7222133" lon="16.236465"><ele>119.6</ele><time>2026-05-03T15:36:42.481Z</time></trkpt><trkpt lat="39.7223" lon="16.2364933"><ele>117.19999999999999</ele><time>2026-05-03T15:36:43.482Z</time></trkpt><trkpt lat="39.722395" lon="16.2365467"><ele>114.8</ele><time>2026-05-03T15:36:44.483Z</time></trkpt><trkpt lat="39.7224867" lon="16.236625"><ele>112.4</ele><time>2026-05-03T15:36:45.483Z</time></trkpt><trkpt lat="39.7225733" lon="16.2367183"><ele>110.0</ele><time>2026-05-03T15:36:46.482Z</time></trkpt><trkpt lat="39.7226467" lon="16.23683"><ele>110.0</ele><time>2026-05-03T15:36:47.483Z</time></trkpt><trkpt lat="39.72271" lon="16.2369483"><ele>110.0</ele><time>2026-05-03T15:36:48.482Z</time></trkpt><trkpt lat="39.7227617" lon="16.2370767"><ele>110.0</ele><time>2026-05-03T15:36:49.483Z</time></trkpt><trkpt lat="39.7228017" lon="16.2372083"><ele>110.0</ele><time>2026-05-03T15:36:50.483Z</time></trkpt><trkpt lat="39.7228283" lon="16.2373467"><ele>110.0</ele><time>2026-05-03T15:36:51.481Z</time></trkpt><trkpt lat="39.7228383" lon="16.2375033"><ele>109.25</ele><time>2026-05-03T15:36:52.483Z</time></trkpt><trkpt lat="39.722835" lon="16.2376617"><ele>108.5</ele><time>2026-05-03T15:36:53.483Z</time></trkpt><trkpt lat="39.72281" lon="16.2378217"><ele>107.75</ele><time>2026-05-03T15:36:54.482Z</time></trkpt><trkpt lat="39.722765" lon="16.23798"><ele>107.0</ele><time>2026-05-03T15:36:55.482Z</time></trkpt><trkpt lat="39.7226983" lon="16.23813"><ele>107.0</ele><time>2026-05-03T15:36:56.483Z</time></trkpt><trkpt lat="39.7226067" lon="16.23827"><ele>107.0</ele><time>2026-05-03T15:36:57.482Z</time></trkpt><trkpt lat="39.722505" lon="16.23839"><ele>107.0</ele><time>2026-05-03T15:36:58.483Z</time></trkpt><trkpt lat="39.72239" lon="16.2384867"><ele>107.0</ele><time>2026-05-03T15:36:59.482Z</time></trkpt><trkpt lat="39.7222667" lon="16.2385683"><ele>107.0</ele><time>2026-05-03T15:37:00.482Z</time></trkpt><trkpt lat="39.722135" lon="16.2386467"><ele>107.0</ele><time>2026-05-03T15:37:01.483Z</time></trkpt><trkpt lat="39.7219933" lon="16.2387233"><ele>107.0</ele><time>2026-05-03T15:37:02.483Z</time></trkpt><trkpt lat="39.721845" lon="16.2388083"><ele>107.0</ele><time>2026-05-03T15:37:03.483Z</time></trkpt><trkpt lat="39.7216883" lon="16.2389"><ele>107.0</ele><time>2026-05-03T15:37:04.482Z</time></trkpt><trkpt lat="39.7215217" lon="16.2389967"><ele>107.0</ele><time>2026-05-03T15:37:05.482Z</time></trkpt><trkpt lat="39.7213433" lon="16.2390967"><ele>107.0</ele><time>2026-05-03T15:37:06.482Z</time></trkpt><trkpt lat="39.7211533" lon="16.2392067"><ele>107.0</ele><time>2026-05-03T15:37:07.483Z</time></trkpt><trkpt lat="39.7209483" lon="16.23932"><ele>107.0</ele><time>2026-05-03T15:37:08.483Z</time></trkpt><trkpt lat="39.7207267" lon="16.2394417"><ele>108.0</ele><time>2026-05-03T15:37:09.482Z</time></trkpt><trkpt lat="39.7204817" lon="16.239565"><ele>109.0</ele><time>2026-05-03T15:37:10.482Z</time></trkpt><trkpt lat="39.720235" lon="16.239695"><ele>108.5</ele><time>2026-05-03T15:37:11.483Z</time></trkpt><trkpt lat="39.7199817" lon="16.2398317"><ele>108.0</ele><time>2026-05-03T15:37:12.482Z</time></trkpt><trkpt lat="39.7197367" lon="16.2399633"><ele>108.0</ele><time>2026-05-03T15:37:13.483Z</time></trkpt><trkpt lat="39.719455" lon="16.2401017"><ele>108.0</ele><time>2026-05-03T15:37:14.482Z</time></trkpt><trkpt lat="39.71918" lon="16.2402467"><ele>107.5</ele><time>2026-05-03T15:37:15.482Z</time></trkpt><trkpt lat="39.7189117" lon="16.24039"><ele>107.0</ele><time>2026-05-03T15:37:16.481Z</time></trkpt><trkpt lat="39.7186367" lon="16.2405317"><ele>107.0</ele><time>2026-05-03T15:37:17.483Z</time></trkpt><trkpt lat="39.7183567" lon="16.240675"><ele>107.0</ele><time>2026-05-03T15:37:18.483Z</time></trkpt><trkpt lat="39.7180717" lon="16.2408217"><ele>107.0</ele><time>2026-05-03T15:37:19.483Z</time></trkpt><trkpt lat="39.7177883" lon="16.2409683"><ele>107.0</ele><time>2026-05-03T15:37:20.483Z</time></trkpt><trkpt lat="39.71751" lon="16.2411133"><ele>109.0</ele><time>2026-05-03T15:37:21.482Z</time></trkpt><trkpt lat="39.7172317" lon="16.24126"><ele>111.0</ele><time>2026-05-03T15:37:22.482Z</time></trkpt><trkpt lat="39.7169517" lon="16.2414083"><ele>110.5</ele><time>2026-05-03T15:37:23.482Z</time></trkpt><trkpt lat="39.716675" lon="16.2415483"><ele>110.0</ele><time>2026-05-03T15:37:24.482Z</time></trkpt><trkpt lat="39.7164083" lon="16.2416833"><ele>110.0</ele><time>2026-05-03T15:37:25.482Z</time></trkpt><trkpt lat="39.71615" lon="16.2418167"><ele>110.0</ele><time>2026-05-03T15:37:26.483Z</time></trkpt><trkpt lat="39.7158967" lon="16.2419517"><ele>110.5</ele><time>2026-05-03T15:37:27.483Z</time></trkpt><trkpt lat="39.715645" lon="16.2420883"><ele>111.0</ele><time>2026-05-03T15:37:28.483Z</time></trkpt><trkpt lat="39.7153917" lon="16.24223"><ele>108.5</ele><time>2026-05-03T15:37:29.483Z</time></trkpt><trkpt lat="39.7151317" lon="16.2423783"><ele>106.0</ele><time>2026-05-03T15:37:30.483Z</time></trkpt><trkpt lat="39.7148583" lon="16.24253"><ele>106.0</ele><time>2026-05-03T15:37:31.482Z</time></trkpt><trkpt lat="39.7145783" lon="16.2426783"><ele>106.0</ele><time>2026-05-03T15:37:32.483Z</time></trkpt><trkpt lat="39.714295" lon="16.2428233"><ele>103.5</ele><time>2026-05-03T15:37:33.481Z</time></trkpt><trkpt lat="39.7140067" lon="16.2429667"><ele>101.0</ele><time>2026-05-03T15:37:34.481Z</time></trkpt><trkpt lat="39.7137133" lon="16.2431083"><ele>96.5</ele><time>2026-05-03T15:37:35.481Z</time></trkpt><trkpt lat="39.71342" lon="16.2432417"><ele>92.0</ele><time>2026-05-03T15:37:36.481Z</time></trkpt><trkpt lat="39.7131217" lon="16.2433633"><ele>92.0</ele><time>2026-05-03T15:37:37.482Z</time></trkpt><trkpt lat="39.7128183" lon="16.2434717"><ele>92.0</ele><time>2026-05-03T15:37:38.482Z</time></trkpt><trkpt lat="39.71251" lon="16.2435717"><ele>90.0</ele><time>2026-05-03T15:37:39.481Z</time></trkpt><trkpt lat="39.7122" lon="16.2436583"><ele>88.0</ele><time>2026-05-03T15:37:40.481Z</time></trkpt><trkpt lat="39.7118867" lon="16.2437333"><ele>94.5</ele><time>2026-05-03T15:37:41.481Z</time></trkpt><trkpt lat="39.71157" lon="16.2438"><ele>101.0</ele><time>2026-05-03T15:37:42.48Z</time></trkpt><trkpt lat="39.7112517" lon="16.2438617"><ele>106.5</ele><time>2026-05-03T15:37:43.482Z</time></trkpt><trkpt lat="39.7109317" lon="16.2439083"><ele>112.0</ele><time>2026-05-03T15:37:44.483Z</time></trkpt><trkpt lat="39.7106067" lon="16.2439483"><ele>105.5</ele><time>2026-05-03T15:37:45.481Z</time></trkpt><trkpt lat="39.7102733" lon="16.2439717"><ele>99.0</ele><time>2026-05-03T15:37:46.481Z</time></trkpt><trkpt lat="39.70994" lon="16.2439883"><ele>98.0</ele><time>2026-05-03T15:37:47.481Z</time></trkpt><trkpt lat="39.709605" lon="16.2439917"><ele>97.0</ele><time>2026-05-03T15:37:48.48Z</time></trkpt><trkpt lat="39.7092733" lon="16.2439817"><ele>99.5</ele><time>2026-05-03T15:37:49.48Z</time></trkpt><trkpt lat="39.7089433" lon="16.2439617"><ele>102.0</ele><time>2026-05-03T15:37:50.48Z</time></trkpt><trkpt lat="39.7086183" lon="16.2439283"><ele>103.5</ele><time>2026-05-03T15:37:51.481Z</time></trkpt><trkpt lat="39.7082967" lon="16.2438783"><ele>105.0</ele><time>2026-05-03T15:37:52.481Z</time></trkpt><trkpt lat="39.7079783" lon="16.24382"><ele>102.5</ele><time>2026-05-03T15:37:53.481Z</time></trkpt><trkpt lat="39.7076633" lon="16.2437483"><ele>100.0</ele><time>2026-05-03T15:37:54.481Z</time></trkpt><trkpt lat="39.70735" lon="16.2436667"><ele>100.0</ele><time>2026-05-03T15:37:55.48Z</time></trkpt><trkpt lat="39.7070417" lon="16.243575"><ele>100.0</ele><time>2026-05-03T15:37:56.482Z</time></trkpt><trkpt lat="39.7067367" lon="16.243475"><ele>100.0</ele><time>2026-05-03T15:37:57.481Z</time></trkpt><trkpt lat="39.70644" lon="16.2433667"><ele>100.0</ele><time>2026-05-03T15:37:58.481Z</time></trkpt><trkpt lat="39.705885" lon="16.2431217"><ele>100.0</ele><time>2026-05-03T15:38:00.481Z</time></trkpt><trkpt lat="39.7056233" lon="16.2429933"><ele>100.0</ele><time>2026-05-03T15:38:01.482Z</time></trkpt><trkpt lat="39.70537" lon="16.242865"><ele>96.0</ele><time>2026-05-03T15:38:02.482Z</time></trkpt><trkpt lat="39.7051233" lon="16.2427367"><ele>92.0</ele><time>2026-05-03T15:38:03.481Z</time></trkpt><trkpt lat="39.704885" lon="16.2426083"><ele>92.0</ele><time>2026-05-03T15:38:04.48Z</time></trkpt><trkpt lat="39.7046583" lon="16.2424767"><ele>92.0</ele><time>2026-05-03T15:38:05.481Z</time></trkpt><trkpt lat="39.70444" lon="16.2423467"><ele>92.0</ele><time>2026-05-03T15:38:06.481Z</time></trkpt><trkpt lat="39.7042267" lon="16.2422183"><ele>92.0</ele><time>2026-05-03T15:38:07.482Z</time></trkpt><trkpt lat="39.7040183" lon="16.2420933"><ele>92.0</ele><time>2026-05-03T15:38:08.481Z</time></trkpt><trkpt lat="39.7038067" lon="16.241965"><ele>92.0</ele><time>2026-05-03T15:38:09.481Z</time></trkpt><trkpt lat="39.7035983" lon="16.2418367"><ele>91.33333333333334</ele><time>2026-05-03T15:38:10.481Z</time></trkpt><trkpt lat="39.7033983" lon="16.2417133"><ele>90.66666666666667</ele><time>2026-05-03T15:38:11.482Z</time></trkpt><trkpt lat="39.7032083" lon="16.2415967"><ele>90.0</ele><time>2026-05-03T15:38:12.481Z</time></trkpt><trkpt lat="39.7030267" lon="16.24149"><ele>90.0</ele><time>2026-05-03T15:38:13.48Z</time></trkpt><trkpt lat="39.702855" lon="16.2413967"><ele>90.0</ele><time>2026-05-03T15:38:14.482Z</time></trkpt><trkpt lat="39.702675" lon="16.2412917"><ele>90.0</ele><time>2026-05-03T15:38:15.482Z</time></trkpt><trkpt lat="39.7025183" lon="16.2412017"><ele>90.0</ele><time>2026-05-03T15:38:16.48Z</time></trkpt><trkpt lat="39.702345" lon="16.2411017"><ele>90.0</ele><time>2026-05-03T15:38:17.481Z</time></trkpt><trkpt lat="39.7021717" lon="16.240995"><ele>90.0</ele><time>2026-05-03T15:38:18.482Z</time></trkpt><trkpt lat="39.701995" lon="16.2408917"><ele>89.66666666666667</ele><time>2026-05-03T15:38:19.482Z</time></trkpt><trkpt lat="39.7018217" lon="16.2407783"><ele>89.33333333333334</ele><time>2026-05-03T15:38:20.481Z</time></trkpt><trkpt lat="39.7016583" lon="16.2406767"><ele>89.0</ele><time>2026-05-03T15:38:21.48Z</time></trkpt><trkpt lat="39.70149" lon="16.240575"><ele>89.0</ele><time>2026-05-03T15:38:22.481Z</time></trkpt><trkpt lat="39.7013183" lon="16.2404717"><ele>89.0</ele><time>2026-05-03T15:38:23.481Z</time></trkpt><trkpt lat="39.7011533" lon="16.24037"><ele>89.0</ele><time>2026-05-03T15:38:24.481Z</time></trkpt><trkpt lat="39.70099" lon="16.240275"><ele>89.0</ele><time>2026-05-03T15:38:25.481Z</time></trkpt><trkpt lat="39.7008283" lon="16.24018"><ele>89.0</ele><time>2026-05-03T15:38:26.482Z</time></trkpt><trkpt lat="39.7006617" lon="16.2400817"><ele>89.0</ele><time>2026-05-03T15:38:27.481Z</time></trkpt><trkpt lat="39.700495" lon="16.2399783"><ele>89.0</ele><time>2026-05-03T15:38:28.48Z</time></trkpt><trkpt lat="39.7003233" lon="16.23987"><ele>89.0</ele><time>2026-05-03T15:38:29.482Z</time></trkpt><trkpt lat="39.70015" lon="16.239765"><ele>89.0</ele><time>2026-05-03T15:38:30.481Z</time></trkpt><trkpt lat="39.699975" lon="16.2396567"><ele>89.0</ele><time>2026-05-03T15:38:31.48Z</time></trkpt><trkpt lat="39.6997983" lon="16.2395483"><ele>89.0</ele><time>2026-05-03T15:38:32.482Z</time></trkpt><trkpt lat="39.69962" lon="16.2394417"><ele>89.0</ele><time>2026-05-03T15:38:33.481Z</time></trkpt><trkpt lat="39.6994417" lon="16.239335"><ele>88.33333333333334</ele><time>2026-05-03T15:38:34.481Z</time></trkpt><trkpt lat="39.69927" lon="16.23923"><ele>87.66666666666667</ele><time>2026-05-03T15:38:35.48Z</time></trkpt><trkpt lat="39.6991083" lon="16.239135"><ele>87.0</ele><time>2026-05-03T15:38:36.481Z</time></trkpt><trkpt lat="39.69895" lon="16.23904"><ele>87.33333333333333</ele><time>2026-05-03T15:38:37.482Z</time></trkpt><trkpt lat="39.6987933" lon="16.2389467"><ele>87.66666666666666</ele><time>2026-05-03T15:38:38.481Z</time></trkpt><trkpt lat="39.6986367" lon="16.2388517"><ele>88.0</ele><time>2026-05-03T15:38:39.482Z</time></trkpt><trkpt lat="39.6984817" lon="16.2387567"><ele>88.0</ele><time>2026-05-03T15:38:40.482Z</time></trkpt><trkpt lat="39.6983233" lon="16.23866"><ele>88.0</ele><time>2026-05-03T15:38:41.482Z</time></trkpt><trkpt lat="39.69816" lon="16.23856"><ele>88.0</ele><time>2026-05-03T15:38:42.481Z</time></trkpt><trkpt lat="39.6979883" lon="16.2384533"><ele>88.0</ele><time>2026-05-03T15:38:43.481Z</time></trkpt><trkpt lat="39.6978067" lon="16.2383417"><ele>88.0</ele><time>2026-05-03T15:38:44.482Z</time></trkpt><trkpt lat="39.697615" lon="16.2382267"><ele>88.0</ele><time>2026-05-03T15:38:45.481Z</time></trkpt><trkpt lat="39.6974117" lon="16.2381067"><ele>87.5</ele><time>2026-05-03T15:38:46.48Z</time></trkpt><trkpt lat="39.6971983" lon="16.23798"><ele>87.0</ele><time>2026-05-03T15:38:47.481Z</time></trkpt><trkpt lat="39.6969717" lon="16.237845"><ele>88.5</ele><time>2026-05-03T15:38:48.481Z</time></trkpt><trkpt lat="39.6967383" lon="16.2377017"><ele>90.0</ele><time>2026-05-03T15:38:49.481Z</time></trkpt><trkpt lat="39.696495" lon="16.23755"><ele>90.0</ele><time>2026-05-03T15:38:50.482Z</time></trkpt><trkpt lat="39.6962467" lon="16.2373933"><ele>90.0</ele><time>2026-05-03T15:38:51.48Z</time></trkpt><trkpt lat="39.6959917" lon="16.23723"><ele>90.5</ele><time>2026-05-03T15:38:52.481Z</time></trkpt><trkpt lat="39.6957333" lon="16.23706"><ele>91.0</ele><time>2026-05-03T15:38:53.481Z</time></trkpt><trkpt lat="39.6954683" lon="16.2368783"><ele>92.0</ele><time>2026-05-03T15:38:54.482Z</time></trkpt><trkpt lat="39.6952017" lon="16.236685"><ele>93.0</ele><time>2026-05-03T15:38:55.481Z</time></trkpt><trkpt lat="39.6949333" lon="16.23648"><ele>93.0</ele><time>2026-05-03T15:38:56.482Z</time></trkpt><trkpt lat="39.6946667" lon="16.236265"><ele>93.0</ele><time>2026-05-03T15:38:57.481Z</time></trkpt><trkpt lat="39.6944017" lon="16.2360367"><ele>93.0</ele><time>2026-05-03T15:38:58.481Z</time></trkpt><trkpt lat="39.69414" lon="16.2357967"><ele>93.0</ele><time>2026-05-03T15:38:59.481Z</time></trkpt><trkpt lat="39.6938817" lon="16.2355433"><ele>93.5</ele><time>2026-05-03T15:39:00.481Z</time></trkpt><trkpt lat="39.6936283" lon="16.2352783"><ele>94.0</ele><time>2026-05-03T15:39:01.48Z</time></trkpt><trkpt lat="39.69338" lon="16.2350017"><ele>92.5</ele><time>2026-05-03T15:39:02.48Z</time></trkpt><trkpt lat="39.6931317" lon="16.2347167"><ele>91.0</ele><time>2026-05-03T15:39:03.482Z</time></trkpt><trkpt lat="39.6928883" lon="16.23442"><ele>91.5</ele><time>2026-05-03T15:39:04.481Z</time></trkpt><trkpt lat="39.6926483" lon="16.2341167"><ele>92.0</ele><time>2026-05-03T15:39:05.481Z</time></trkpt><trkpt lat="39.6924133" lon="16.2338067"><ele>92.0</ele><time>2026-05-03T15:39:06.482Z</time></trkpt><trkpt lat="39.6921817" lon="16.23349"><ele>92.0</ele><time>2026-05-03T15:39:07.481Z</time></trkpt><trkpt lat="39.6919517" lon="16.2331667"><ele>93.0</ele><time>2026-05-03T15:39:08.481Z</time></trkpt><trkpt lat="39.6917217" lon="16.2328417"><ele>94.0</ele><time>2026-05-03T15:39:09.481Z</time></trkpt><trkpt lat="39.69149" lon="16.232515"><ele>94.0</ele><time>2026-05-03T15:39:10.481Z</time></trkpt><trkpt lat="39.6912583" lon="16.2321867"><ele>94.0</ele><time>2026-05-03T15:39:11.48Z</time></trkpt><trkpt lat="39.6910233" lon="16.23186"><ele>95.5</ele><time>2026-05-03T15:39:12.481Z</time></trkpt><trkpt lat="39.69079" lon="16.2315317"><ele>97.0</ele><time>2026-05-03T15:39:13.481Z</time></trkpt><trkpt lat="39.690555" lon="16.2312033"><ele>97.0</ele><time>2026-05-03T15:39:14.482Z</time></trkpt><trkpt lat="39.69032" lon="16.230875"><ele>97.0</ele><time>2026-05-03T15:39:15.48Z</time></trkpt><trkpt lat="39.6900867" lon="16.2305433"><ele>98.0</ele><time>2026-05-03T15:39:16.481Z</time></trkpt><trkpt lat="39.689855" lon="16.230215"><ele>99.0</ele><time>2026-05-03T15:39:17.481Z</time></trkpt><trkpt lat="39.689625" lon="16.2298883"><ele>99.0</ele><time>2026-05-03T15:39:18.481Z</time></trkpt><trkpt lat="39.6893933" lon="16.2295633"><ele>99.0</ele><time>2026-05-03T15:39:19.48Z</time></trkpt><trkpt lat="39.6891617" lon="16.229235"><ele>98.0</ele><time>2026-05-03T15:39:20.482Z</time></trkpt><trkpt lat="39.68893" lon="16.2289067"><ele>97.0</ele><time>2026-05-03T15:39:21.482Z</time></trkpt><trkpt lat="39.6886983" lon="16.2285783"><ele>97.0</ele><time>2026-05-03T15:39:22.481Z</time></trkpt><trkpt lat="39.688465" lon="16.2282467"><ele>97.0</ele><time>2026-05-03T15:39:23.481Z</time></trkpt><trkpt lat="39.6882333" lon="16.22793"><ele>97.0</ele><time>2026-05-03T15:39:24.481Z</time></trkpt><trkpt lat="39.6879967" lon="16.22761"><ele>97.0</ele><time>2026-05-03T15:39:25.482Z</time></trkpt><trkpt lat="39.687775" lon="16.2272733"><ele>97.5</ele><time>2026-05-03T15:39:26.481Z</time></trkpt><trkpt lat="39.6875417" lon="16.226955"><ele>98.0</ele><time>2026-05-03T15:39:27.481Z</time></trkpt><trkpt lat="39.6873" lon="16.2266317"><ele>96.5</ele><time>2026-05-03T15:39:28.481Z</time></trkpt><trkpt lat="39.6870517" lon="16.226315"><ele>95.0</ele><time>2026-05-03T15:39:29.481Z</time></trkpt><trkpt lat="39.6868083" lon="16.2259983"><ele>95.0</ele><time>2026-05-03T15:39:30.481Z</time></trkpt><trkpt lat="39.68656" lon="16.2256917"><ele>95.0</ele><time>2026-05-03T15:39:31.481Z</time></trkpt><trkpt lat="39.6863083" lon="16.2253867"><ele>94.0</ele><time>2026-05-03T15:39:32.481Z</time></trkpt><trkpt lat="39.6860567" lon="16.22508"><ele>93.0</ele><time>2026-05-03T15:39:33.48Z</time></trkpt><trkpt lat="39.6858083" lon="16.2247717"><ele>92.0</ele><time>2026-05-03T15:39:34.481Z</time></trkpt><trkpt lat="39.6855617" lon="16.224465"><ele>91.0</ele><time>2026-05-03T15:39:35.48Z</time></trkpt><trkpt lat="39.68532" lon="16.2241583"><ele>90.5</ele><time>2026-05-03T15:39:36.48Z</time></trkpt><trkpt lat="39.6850767" lon="16.22385"><ele>90.0</ele><time>2026-05-03T15:39:37.481Z</time></trkpt><trkpt lat="39.684835" lon="16.223545"><ele>90.0</ele><time>2026-05-03T15:39:38.482Z</time></trkpt><trkpt lat="39.6845933" lon="16.223245"><ele>90.0</ele><time>2026-05-03T15:39:39.48Z</time></trkpt><trkpt lat="39.6843517" lon="16.2229483"><ele>89.5</ele><time>2026-05-03T15:39:40.48Z</time></trkpt><trkpt lat="39.6841083" lon="16.2226517"><ele>89.0</ele><time>2026-05-03T15:39:41.481Z</time></trkpt><trkpt lat="39.683865" lon="16.222355"><ele>88.5</ele><time>2026-05-03T15:39:42.483Z</time></trkpt><trkpt lat="39.683615" lon="16.22206"><ele>88.0</ele><time>2026-05-03T15:39:43.481Z</time></trkpt><trkpt lat="39.683365" lon="16.221775"><ele>88.5</ele><time>2026-05-03T15:39:44.481Z</time></trkpt><trkpt lat="39.6831083" lon="16.221485"><ele>89.0</ele><time>2026-05-03T15:39:45.481Z</time></trkpt><trkpt lat="39.6828433" lon="16.2212083"><ele>89.5</ele><time>2026-05-03T15:39:46.481Z</time></trkpt><trkpt lat="39.68257" lon="16.220945"><ele>90.0</ele><time>2026-05-03T15:39:47.481Z</time></trkpt><trkpt lat="39.68229" lon="16.2206933"><ele>90.0</ele><time>2026-05-03T15:39:48.481Z</time></trkpt><trkpt lat="39.682005" lon="16.22045"><ele>90.0</ele><time>2026-05-03T15:39:49.481Z</time></trkpt><trkpt lat="39.6817167" lon="16.22022"><ele>90.0</ele><time>2026-05-03T15:39:50.482Z</time></trkpt><trkpt lat="39.68142" lon="16.2200033"><ele>90.0</ele><time>2026-05-03T15:39:51.481Z</time></trkpt><trkpt lat="39.68112" lon="16.2197967"><ele>90.5</ele><time>2026-05-03T15:39:52.481Z</time></trkpt><trkpt lat="39.6808133" lon="16.2195983"><ele>91.0</ele><time>2026-05-03T15:39:53.481Z</time></trkpt><trkpt lat="39.6805067" lon="16.2194167"><ele>92.0</ele><time>2026-05-03T15:39:54.481Z</time></trkpt><trkpt lat="39.680185" lon="16.219225"><ele>93.0</ele><time>2026-05-03T15:39:55.482Z</time></trkpt><trkpt lat="39.679875" lon="16.219055"><ele>92.5</ele><time>2026-05-03T15:39:56.482Z</time></trkpt><trkpt lat="39.67955" lon="16.2189017"><ele>92.0</ele><time>2026-05-03T15:39:57.481Z</time></trkpt><trkpt lat="39.679225" lon="16.2187683"><ele>92.0</ele><time>2026-05-03T15:39:58.48Z</time></trkpt><trkpt lat="39.6788883" lon="16.2186467"><ele>92.0</ele><time>2026-05-03T15:39:59.48Z</time></trkpt><trkpt lat="39.678555" lon="16.2185267"><ele>92.5</ele><time>2026-05-03T15:40:00.482Z</time></trkpt><trkpt lat="39.6782167" lon="16.218415"><ele>93.0</ele><time>2026-05-03T15:40:01.48Z</time></trkpt><trkpt lat="39.677885" lon="16.2183083"><ele>93.0</ele><time>2026-05-03T15:40:02.482Z</time></trkpt><trkpt lat="39.6775483" lon="16.2181933"><ele>93.0</ele><time>2026-05-03T15:40:03.482Z</time></trkpt><trkpt lat="39.6772183" lon="16.21808"><ele>93.5</ele><time>2026-05-03T15:40:04.482Z</time></trkpt><trkpt lat="39.676895" lon="16.2179717"><ele>94.0</ele><time>2026-05-03T15:40:05.481Z</time></trkpt><trkpt lat="39.6765833" lon="16.2178683"><ele>94.0</ele><time>2026-05-03T15:40:06.482Z</time></trkpt><trkpt lat="39.6762683" lon="16.2177617"><ele>94.0</ele><time>2026-05-03T15:40:07.481Z</time></trkpt><trkpt lat="39.675945" lon="16.2176533"><ele>94.0</ele><time>2026-05-03T15:40:08.482Z</time></trkpt><trkpt lat="39.6756133" lon="16.2175417"><ele>94.0</ele><time>2026-05-03T15:40:09.482Z</time></trkpt><trkpt lat="39.6752767" lon="16.21743"><ele>93.0</ele><time>2026-05-03T15:40:10.482Z</time></trkpt><trkpt lat="39.674935" lon="16.217315"><ele>92.0</ele><time>2026-05-03T15:40:11.482Z</time></trkpt><trkpt lat="39.6745933" lon="16.2172"><ele>92.0</ele><time>2026-05-03T15:40:12.482Z</time></trkpt><trkpt lat="39.67425" lon="16.2170867"><ele>92.0</ele><time>2026-05-03T15:40:13.481Z</time></trkpt><trkpt lat="39.673905" lon="16.2169733"><ele>92.0</ele><time>2026-05-03T15:40:14.482Z</time></trkpt><trkpt lat="39.6735617" lon="16.21686"><ele>92.0</ele><time>2026-05-03T15:40:15.481Z</time></trkpt><trkpt lat="39.673215" lon="16.216745"><ele>92.0</ele><time>2026-05-03T15:40:16.482Z</time></trkpt><trkpt lat="39.6728717" lon="16.2166367"><ele>92.0</ele><time>2026-05-03T15:40:17.48Z</time></trkpt><trkpt lat="39.6725233" lon="16.2165233"><ele>91.0</ele><time>2026-05-03T15:40:18.481Z</time></trkpt><trkpt lat="39.6721767" lon="16.2164067"><ele>90.0</ele><time>2026-05-03T15:40:19.481Z</time></trkpt><trkpt lat="39.6718313" lon="16.2162928"><ele>90.0</ele><time>2026-05-03T15:40:20.481Z</time></trkpt><trkpt lat="39.6714854" lon="16.2161758"><ele>90.0</ele><time>2026-05-03T15:40:21.481Z</time></trkpt><trkpt lat="39.6711395" lon="16.2160564"><ele>89.0</ele><time>2026-05-03T15:40:22.484Z</time></trkpt><trkpt lat="39.6707951" lon="16.2159358"><ele>88.0</ele><time>2026-05-03T15:40:23.482Z</time></trkpt><trkpt lat="39.670451" lon="16.2158199"><ele>87.5</ele><time>2026-05-03T15:40:24.481Z</time></trkpt><trkpt lat="39.6701078" lon="16.2157049"><ele>87.0</ele><time>2026-05-03T15:40:25.482Z</time></trkpt><trkpt lat="39.6697663" lon="16.2155924"><ele>86.5</ele><time>2026-05-03T15:40:26.482Z</time></trkpt><trkpt lat="39.6694248" lon="16.2154794"><ele>86.0</ele><time>2026-05-03T15:40:27.481Z</time></trkpt><trkpt lat="39.6690845" lon="16.2153639"><ele>86.0</ele><time>2026-05-03T15:40:28.482Z</time></trkpt><trkpt lat="39.6687443" lon="16.2152476"><ele>86.0</ele><time>2026-05-03T15:40:29.481Z</time></trkpt><trkpt lat="39.668403" lon="16.215131"><ele>86.0</ele><time>2026-05-03T15:40:30.481Z</time></trkpt><trkpt lat="39.6680627" lon="16.2150178"><ele>86.0</ele><time>2026-05-03T15:40:31.481Z</time></trkpt><trkpt lat="39.6677254" lon="16.214907"><ele>86.5</ele><time>2026-05-03T15:40:32.481Z</time></trkpt><trkpt lat="39.6673862" lon="16.2147956"><ele>87.0</ele><time>2026-05-03T15:40:33.481Z</time></trkpt><trkpt lat="39.6670462" lon="16.2146839"><ele>86.0</ele><time>2026-05-03T15:40:34.482Z</time></trkpt><trkpt lat="39.6667062" lon="16.2145699"><ele>85.0</ele><time>2026-05-03T15:40:35.481Z</time></trkpt><trkpt lat="39.6663664" lon="16.2144576"><ele>84.5</ele><time>2026-05-03T15:40:36.481Z</time></trkpt><trkpt lat="39.6660278" lon="16.2143494"><ele>84.0</ele><time>2026-05-03T15:40:37.481Z</time></trkpt><trkpt lat="39.6656892" lon="16.2142493"><ele>84.0</ele><time>2026-05-03T15:40:38.482Z</time></trkpt><trkpt lat="39.6653495" lon="16.2141609"><ele>84.0</ele><time>2026-05-03T15:40:39.481Z</time></trkpt><trkpt lat="39.6650081" lon="16.2140832"><ele>84.0</ele><time>2026-05-03T15:40:40.48Z</time></trkpt><trkpt lat="39.6646651" lon="16.2140186"><ele>84.0</ele><time>2026-05-03T15:40:41.481Z</time></trkpt><trkpt lat="39.6643217" lon="16.2139636"><ele>83.5</ele><time>2026-05-03T15:40:42.481Z</time></trkpt><trkpt lat="39.6639771" lon="16.2139248"><ele>83.0</ele><time>2026-05-03T15:40:43.482Z</time></trkpt><trkpt lat="39.663632" lon="16.2139003"><ele>83.0</ele><time>2026-05-03T15:40:44.482Z</time></trkpt><trkpt lat="39.663288" lon="16.2138895"><ele>83.0</ele><time>2026-05-03T15:40:45.482Z</time></trkpt><trkpt lat="39.6629434" lon="16.2138921"><ele>83.0</ele><time>2026-05-03T15:40:46.482Z</time></trkpt><trkpt lat="39.6625987" lon="16.2139066"><ele>83.0</ele><time>2026-05-03T15:40:47.482Z</time></trkpt><trkpt lat="39.6622538" lon="16.2139325"><ele>82.5</ele><time>2026-05-03T15:40:48.481Z</time></trkpt><trkpt lat="39.66191" lon="16.2139725"><ele>82.0</ele><time>2026-05-03T15:40:49.482Z</time></trkpt><trkpt lat="39.6615682" lon="16.214022"><ele>82.0</ele><time>2026-05-03T15:40:50.482Z</time></trkpt><trkpt lat="39.6612269" lon="16.2140791"><ele>82.0</ele><time>2026-05-03T15:40:51.482Z</time></trkpt><trkpt lat="39.6608882" lon="16.2141484"><ele>82.5</ele><time>2026-05-03T15:40:52.481Z</time></trkpt><trkpt lat="39.660553" lon="16.2142238"><ele>83.0</ele><time>2026-05-03T15:40:53.481Z</time></trkpt><trkpt lat="39.6602195" lon="16.2143017"><ele>83.0</ele><time>2026-05-03T15:40:54.482Z</time></trkpt><trkpt lat="39.6598861" lon="16.2143822"><ele>83.0</ele><time>2026-05-03T15:40:55.481Z</time></trkpt><trkpt lat="39.6595517" lon="16.2144632"><ele>82.5</ele><time>2026-05-03T15:40:56.482Z</time></trkpt><trkpt lat="39.6592197" lon="16.2145442"><ele>82.0</ele><time>2026-05-03T15:40:57.481Z</time></trkpt><trkpt lat="39.6588893" lon="16.2146246"><ele>82.5</ele><time>2026-05-03T15:40:58.482Z</time></trkpt><trkpt lat="39.6585586" lon="16.2147027"><ele>83.0</ele><time>2026-05-03T15:40:59.482Z</time></trkpt><trkpt lat="39.6582285" lon="16.2147821"><ele>83.0</ele><time>2026-05-03T15:41:00.482Z</time></trkpt><trkpt lat="39.6579013" lon="16.2148617"><ele>83.0</ele><time>2026-05-03T15:41:01.482Z</time></trkpt><trkpt lat="39.6575763" lon="16.2149391"><ele>83.0</ele><time>2026-05-03T15:41:02.482Z</time></trkpt><trkpt lat="39.6572502" lon="16.2150183"><ele>83.0</ele><time>2026-05-03T15:41:03.481Z</time></trkpt><trkpt lat="39.656921" lon="16.2150926"><ele>83.0</ele><time>2026-05-03T15:41:04.481Z</time></trkpt><trkpt lat="39.6566007" lon="16.2151803"><ele>83.0</ele><time>2026-05-03T15:41:05.481Z</time></trkpt><trkpt lat="39.6562721" lon="16.2152678"><ele>82.5</ele><time>2026-05-03T15:41:06.482Z</time></trkpt><trkpt lat="39.6559387" lon="16.2153497"><ele>82.0</ele><time>2026-05-03T15:41:07.481Z</time></trkpt><trkpt lat="39.6556047" lon="16.2154257"><ele>82.5</ele><time>2026-05-03T15:41:08.481Z</time></trkpt><trkpt lat="39.6552722" lon="16.215497"><ele>83.0</ele><time>2026-05-03T15:41:09.48Z</time></trkpt><trkpt lat="39.6549377" lon="16.2155685"><ele>83.0</ele><time>2026-05-03T15:41:10.481Z</time></trkpt><trkpt lat="39.6546025" lon="16.2156426"><ele>83.0</ele><time>2026-05-03T15:41:11.481Z</time></trkpt><trkpt lat="39.6542635" lon="16.2157174"><ele>83.5</ele><time>2026-05-03T15:41:12.481Z</time></trkpt><trkpt lat="39.6539258" lon="16.2157907"><ele>84.0</ele><time>2026-05-03T15:41:13.481Z</time></trkpt><trkpt lat="39.6535888" lon="16.2158584"><ele>84.0</ele><time>2026-05-03T15:41:14.483Z</time></trkpt><trkpt lat="39.6532551" lon="16.2159299"><ele>84.0</ele><time>2026-05-03T15:41:15.48Z</time></trkpt><trkpt lat="39.6529218" lon="16.2160017"><ele>83.5</ele><time>2026-05-03T15:41:16.482Z</time></trkpt><trkpt lat="39.6525958" lon="16.2160747"><ele>83.0</ele><time>2026-05-03T15:41:17.482Z</time></trkpt><trkpt lat="39.6522811" lon="16.21615"><ele>83.0</ele><time>2026-05-03T15:41:18.481Z</time></trkpt><trkpt lat="39.6519813" lon="16.216226"><ele>83.0</ele><time>2026-05-03T15:41:19.482Z</time></trkpt><trkpt lat="39.6516981" lon="16.2163068"><ele>83.0</ele><time>2026-05-03T15:41:20.483Z</time></trkpt><trkpt lat="39.6514276" lon="16.2163974"><ele>83.0</ele><time>2026-05-03T15:41:21.482Z</time></trkpt><trkpt lat="39.6511608" lon="16.2165071"><ele>84.0</ele><time>2026-05-03T15:41:22.483Z</time></trkpt><trkpt lat="39.6508896" lon="16.216639"><ele>85.0</ele><time>2026-05-03T15:41:23.483Z</time></trkpt><trkpt lat="39.6506139" lon="16.2167846"><ele>85.0</ele><time>2026-05-03T15:41:24.482Z</time></trkpt><trkpt lat="39.6503313" lon="16.2169415"><ele>85.0</ele><time>2026-05-03T15:41:25.482Z</time></trkpt><trkpt lat="39.6500448" lon="16.2171116"><ele>89.0</ele><time>2026-05-03T15:41:26.482Z</time></trkpt><trkpt lat="39.6497617" lon="16.217305"><ele>93.0</ele><time>2026-05-03T15:41:27.48Z</time></trkpt><trkpt lat="39.64948" lon="16.217515"><ele>92.0</ele><time>2026-05-03T15:41:28.481Z</time></trkpt><trkpt lat="39.6492017" lon="16.2177433"><ele>91.0</ele><time>2026-05-03T15:41:29.481Z</time></trkpt><trkpt lat="39.64893" lon="16.21799"><ele>90.5</ele><time>2026-05-03T15:41:30.481Z</time></trkpt><trkpt lat="39.6486633" lon="16.218255"><ele>90.0</ele><time>2026-05-03T15:41:31.483Z</time></trkpt><trkpt lat="39.6484" lon="16.2185333"><ele>90.0</ele><time>2026-05-03T15:41:32.485Z</time></trkpt><trkpt lat="39.648145" lon="16.2188283"><ele>90.0</ele><time>2026-05-03T15:41:33.482Z</time></trkpt><trkpt lat="39.6479" lon="16.2191383"><ele>89.0</ele><time>2026-05-03T15:41:34.482Z</time></trkpt><trkpt lat="39.64766" lon="16.2194617"><ele>88.0</ele><time>2026-05-03T15:41:35.482Z</time></trkpt><trkpt lat="39.6474333" lon="16.2197967"><ele>88.0</ele><time>2026-05-03T15:41:36.481Z</time></trkpt><trkpt lat="39.6472183" lon="16.2201433"><ele>88.0</ele><time>2026-05-03T15:41:37.48Z</time></trkpt><trkpt lat="39.6470133" lon="16.2205"><ele>92.5</ele><time>2026-05-03T15:41:38.482Z</time></trkpt><trkpt lat="39.64682" lon="16.2208667"><ele>97.0</ele><time>2026-05-03T15:41:39.482Z</time></trkpt><trkpt lat="39.646635" lon="16.2212433"><ele>96.0</ele><time>2026-05-03T15:41:40.481Z</time></trkpt><trkpt lat="39.64646" lon="16.22163"><ele>95.0</ele><time>2026-05-03T15:41:41.481Z</time></trkpt><trkpt lat="39.6462933" lon="16.2220217"><ele>95.0</ele><time>2026-05-03T15:41:42.48Z</time></trkpt><trkpt lat="39.6461333" lon="16.222415"><ele>95.0</ele><time>2026-05-03T15:41:43.482Z</time></trkpt><trkpt lat="39.6459767" lon="16.2228117"><ele>98.5</ele><time>2026-05-03T15:41:44.482Z</time></trkpt><trkpt lat="39.6458217" lon="16.2232133"><ele>102.0</ele><time>2026-05-03T15:41:45.482Z</time></trkpt><trkpt lat="39.6456633" lon="16.22361"><ele>98.5</ele><time>2026-05-03T15:41:46.481Z</time></trkpt><trkpt lat="39.6455033" lon="16.2240083"><ele>95.0</ele><time>2026-05-03T15:41:47.482Z</time></trkpt><trkpt lat="39.6453433" lon="16.2244067"><ele>96.5</ele><time>2026-05-03T15:41:48.481Z</time></trkpt><trkpt lat="39.6451817" lon="16.2248"><ele>98.0</ele><time>2026-05-03T15:41:49.481Z</time></trkpt><trkpt lat="39.6450133" lon="16.2251833"><ele>92.0</ele><time>2026-05-03T15:41:50.482Z</time></trkpt><trkpt lat="39.644835" lon="16.2255567"><ele>86.0</ele><time>2026-05-03T15:41:51.482Z</time></trkpt><trkpt lat="39.6446483" lon="16.2259217"><ele>84.5</ele><time>2026-05-03T15:41:52.482Z</time></trkpt><trkpt lat="39.6444517" lon="16.2262767"><ele>83.0</ele><time>2026-05-03T15:41:53.483Z</time></trkpt><trkpt lat="39.6442433" lon="16.2266217"><ele>83.0</ele><time>2026-05-03T15:41:54.482Z</time></trkpt><trkpt lat="39.6440233" lon="16.226955"><ele>83.0</ele><time>2026-05-03T15:41:55.482Z</time></trkpt><trkpt lat="39.6437917" lon="16.22728"><ele>83.0</ele><time>2026-05-03T15:41:56.482Z</time></trkpt><trkpt lat="39.6435467" lon="16.2275967"><ele>83.0</ele><time>2026-05-03T15:41:57.481Z</time></trkpt><trkpt lat="39.6432917" lon="16.2279017"><ele>83.0</ele><time>2026-05-03T15:41:58.482Z</time></trkpt><trkpt lat="39.643025" lon="16.2281933"><ele>83.0</ele><time>2026-05-03T15:41:59.481Z</time></trkpt><trkpt lat="39.6427483" lon="16.2284683"><ele>82.5</ele><time>2026-05-03T15:42:00.481Z</time></trkpt><trkpt lat="39.6424617" lon="16.2287267"><ele>82.0</ele><time>2026-05-03T15:42:01.48Z</time></trkpt><trkpt lat="39.642165" lon="16.2289667"><ele>81.5</ele><time>2026-05-03T15:42:02.481Z</time></trkpt><trkpt lat="39.6418633" lon="16.22919"><ele>81.0</ele><time>2026-05-03T15:42:03.481Z</time></trkpt><trkpt lat="39.6415567" lon="16.2293917"><ele>81.0</ele><time>2026-05-03T15:42:04.481Z</time></trkpt><trkpt lat="39.64124" lon="16.2295783"><ele>81.0</ele><time>2026-05-03T15:42:05.481Z</time></trkpt><trkpt lat="39.6409217" lon="16.2297517"><ele>81.0</ele><time>2026-05-03T15:42:06.482Z</time></trkpt><trkpt lat="39.6405917" lon="16.2298933"><ele>81.0</ele><time>2026-05-03T15:42:07.483Z</time></trkpt><trkpt lat="39.6402517" lon="16.2300183"><ele>82.5</ele><time>2026-05-03T15:42:08.483Z</time></trkpt><trkpt lat="39.6399333" lon="16.2301683"><ele>84.0</ele><time>2026-05-03T15:42:09.482Z</time></trkpt><trkpt lat="39.639615" lon="16.2303067"><ele>85.5</ele><time>2026-05-03T15:42:10.482Z</time></trkpt><trkpt lat="39.6392983" lon="16.230435"><ele>87.0</ele><time>2026-05-03T15:42:11.482Z</time></trkpt><trkpt lat="39.6389817" lon="16.2305683"><ele>87.0</ele><time>2026-05-03T15:42:12.482Z</time></trkpt><trkpt lat="39.6386683" lon="16.2307017"><ele>87.0</ele><time>2026-05-03T15:42:13.481Z</time></trkpt><trkpt lat="39.638355" lon="16.23083"><ele>87.5</ele><time>2026-05-03T15:42:14.482Z</time></trkpt><trkpt lat="39.638045" lon="16.23096"><ele>88.0</ele><time>2026-05-03T15:42:15.481Z</time></trkpt><trkpt lat="39.637735" lon="16.231085"><ele>89.0</ele><time>2026-05-03T15:42:16.482Z</time></trkpt><trkpt lat="39.6374267" lon="16.231205"><ele>90.0</ele><time>2026-05-03T15:42:17.482Z</time></trkpt><trkpt lat="39.637115" lon="16.23132"><ele>91.0</ele><time>2026-05-03T15:42:18.481Z</time></trkpt><trkpt lat="39.6368017" lon="16.2314233"><ele>92.0</ele><time>2026-05-03T15:42:19.48Z</time></trkpt><trkpt lat="39.63649" lon="16.23152"><ele>92.0</ele><time>2026-05-03T15:42:20.481Z</time></trkpt><trkpt lat="39.636175" lon="16.231605"><ele>92.0</ele><time>2026-05-03T15:42:21.48Z</time></trkpt><trkpt lat="39.6358617" lon="16.2316733"><ele>93.5</ele><time>2026-05-03T15:42:22.481Z</time></trkpt><trkpt lat="39.6355483" lon="16.2317233"><ele>95.0</ele><time>2026-05-03T15:42:23.48Z</time></trkpt><trkpt lat="39.6352383" lon="16.2317583"><ele>97.5</ele><time>2026-05-03T15:42:24.481Z</time></trkpt><trkpt lat="39.6349333" lon="16.2317783"><ele>100.0</ele><time>2026-05-03T15:42:25.481Z</time></trkpt><trkpt lat="39.63463" lon="16.2317817"><ele>101.0</ele><time>2026-05-03T15:42:26.481Z</time></trkpt><trkpt lat="39.6343267" lon="16.2317717"><ele>102.0</ele><time>2026-05-03T15:42:27.482Z</time></trkpt><trkpt lat="39.6340217" lon="16.2317483"><ele>102.0</ele><time>2026-05-03T15:42:28.482Z</time></trkpt><trkpt lat="39.6337083" lon="16.2317117"><ele>102.0</ele><time>2026-05-03T15:42:29.482Z</time></trkpt><trkpt lat="39.6334033" lon="16.231665"><ele>103.0</ele><time>2026-05-03T15:42:30.482Z</time></trkpt><trkpt lat="39.6330883" lon="16.2316"><ele>104.0</ele><time>2026-05-03T15:42:31.482Z</time></trkpt><trkpt lat="39.6327733" lon="16.2315117"><ele>104.5</ele><time>2026-05-03T15:42:32.481Z</time></trkpt><trkpt lat="39.6324583" lon="16.2314"><ele>105.0</ele><time>2026-05-03T15:42:33.482Z</time></trkpt><trkpt lat="39.6321383" lon="16.2312717"><ele>107.5</ele><time>2026-05-03T15:42:34.481Z</time></trkpt><trkpt lat="39.6318233" lon="16.231125"><ele>110.0</ele><time>2026-05-03T15:42:35.483Z</time></trkpt><trkpt lat="39.6315133" lon="16.230965"><ele>110.0</ele><time>2026-05-03T15:42:36.482Z</time></trkpt><trkpt lat="39.6312017" lon="16.2307917"><ele>110.0</ele><time>2026-05-03T15:42:37.482Z</time></trkpt><trkpt lat="39.630895" lon="16.2306233"><ele>110.0</ele><time>2026-05-03T15:42:38.481Z</time></trkpt><trkpt lat="39.6305883" lon="16.2304583"><ele>110.0</ele><time>2026-05-03T15:42:39.481Z</time></trkpt><trkpt lat="39.6302733" lon="16.23029"><ele>115.0</ele><time>2026-05-03T15:42:40.481Z</time></trkpt><trkpt lat="39.629975" lon="16.230135"><ele>120.0</ele><time>2026-05-03T15:42:41.481Z</time></trkpt><trkpt lat="39.6296667" lon="16.22998"><ele>122.0</ele><time>2026-05-03T15:42:42.482Z</time></trkpt><trkpt lat="39.6293533" lon="16.2298417"><ele>124.0</ele><time>2026-05-03T15:42:43.482Z</time></trkpt><trkpt lat="39.6290367" lon="16.2297183"><ele>122.5</ele><time>2026-05-03T15:42:44.482Z</time></trkpt><trkpt lat="39.6287067" lon="16.229605"><ele>121.0</ele><time>2026-05-03T15:42:45.482Z</time></trkpt><trkpt lat="39.6283667" lon="16.2295017"><ele>121.0</ele><time>2026-05-03T15:42:46.482Z</time></trkpt><trkpt lat="39.6280333" lon="16.2294083"><ele>121.0</ele><time>2026-05-03T15:42:47.481Z</time></trkpt><trkpt lat="39.6277017" lon="16.2293217"><ele>122.0</ele><time>2026-05-03T15:42:48.481Z</time></trkpt><trkpt lat="39.6273583" lon="16.2292383"><ele>123.0</ele><time>2026-05-03T15:42:49.48Z</time></trkpt><trkpt lat="39.627025" lon="16.2291467"><ele>123.0</ele><time>2026-05-03T15:42:50.482Z</time></trkpt><trkpt lat="39.6266933" lon="16.229055"><ele>123.0</ele><time>2026-05-03T15:42:51.481Z</time></trkpt><trkpt lat="39.6263633" lon="16.2289717"><ele>124.0</ele><time>2026-05-03T15:42:52.481Z</time></trkpt><trkpt lat="39.6260317" lon="16.2288983"><ele>125.0</ele><time>2026-05-03T15:42:53.482Z</time></trkpt><trkpt lat="39.6257017" lon="16.22884"><ele>125.0</ele><time>2026-05-03T15:42:54.482Z</time></trkpt><trkpt lat="39.6253683" lon="16.2287967"><ele>125.0</ele><time>2026-05-03T15:42:55.481Z</time></trkpt><trkpt lat="39.625035" lon="16.2287733"><ele>126.5</ele><time>2026-05-03T15:42:56.481Z</time></trkpt><trkpt lat="39.6247033" lon="16.2287683"><ele>128.0</ele><time>2026-05-03T15:42:57.482Z</time></trkpt><trkpt lat="39.6243733" lon="16.22878"><ele>128.5</ele><time>2026-05-03T15:42:58.482Z</time></trkpt><trkpt lat="39.6240417" lon="16.2288083"><ele>129.0</ele><time>2026-05-03T15:42:59.48Z</time></trkpt><trkpt lat="39.6237133" lon="16.2288517"><ele>130.0</ele><time>2026-05-03T15:43:00.482Z</time></trkpt><trkpt lat="39.62339" lon="16.22891"><ele>131.0</ele><time>2026-05-03T15:43:01.481Z</time></trkpt><trkpt lat="39.6230683" lon="16.22898"><ele>135.0</ele><time>2026-05-03T15:43:02.481Z</time></trkpt><trkpt lat="39.6227483" lon="16.229055"><ele>139.0</ele><time>2026-05-03T15:43:03.481Z</time></trkpt><trkpt lat="39.62243" lon="16.229135"><ele>139.0</ele><time>2026-05-03T15:43:04.482Z</time></trkpt><trkpt lat="39.6221133" lon="16.2292183"><ele>139.0</ele><time>2026-05-03T15:43:05.481Z</time></trkpt><trkpt lat="39.621795" lon="16.2293"><ele>142.0</ele><time>2026-05-03T15:43:06.481Z</time></trkpt><trkpt lat="39.62148" lon="16.2293833"><ele>145.0</ele><time>2026-05-03T15:43:07.482Z</time></trkpt><trkpt lat="39.6211633" lon="16.2294683"><ele>145.0</ele><time>2026-05-03T15:43:08.482Z</time></trkpt><trkpt lat="39.62085" lon="16.2295533"><ele>145.0</ele><time>2026-05-03T15:43:09.481Z</time></trkpt><trkpt lat="39.62054" lon="16.2296333"><ele>145.5</ele><time>2026-05-03T15:43:10.482Z</time></trkpt><trkpt lat="39.6202333" lon="16.2297083"><ele>146.0</ele><time>2026-05-03T15:43:11.482Z</time></trkpt><trkpt lat="39.61993" lon="16.2297783"><ele>147.5</ele><time>2026-05-03T15:43:12.482Z</time></trkpt><trkpt lat="39.61963" lon="16.22984"><ele>149.0</ele><time>2026-05-03T15:43:13.482Z</time></trkpt><trkpt lat="39.61933" lon="16.2298967"><ele>149.0</ele><time>2026-05-03T15:43:14.481Z</time></trkpt><trkpt lat="39.6190267" lon="16.2299417"><ele>149.0</ele><time>2026-05-03T15:43:15.482Z</time></trkpt><trkpt lat="39.6187217" lon="16.2299683"><ele>150.5</ele><time>2026-05-03T15:43:16.482Z</time></trkpt><trkpt lat="39.618415" lon="16.2299783"><ele>152.0</ele><time>2026-05-03T15:43:17.48Z</time></trkpt><trkpt lat="39.618105" lon="16.2299717"><ele>152.0</ele><time>2026-05-03T15:43:18.481Z</time></trkpt><trkpt lat="39.6177967" lon="16.2299567"><ele>152.0</ele><time>2026-05-03T15:43:19.482Z</time></trkpt><trkpt lat="39.6174867" lon="16.2299317"><ele>152.0</ele><time>2026-05-03T15:43:20.482Z</time></trkpt><trkpt lat="39.6171767" lon="16.229905"><ele>152.0</ele><time>2026-05-03T15:43:21.481Z</time></trkpt><trkpt lat="39.61687" lon="16.2298783"><ele>156.5</ele><time>2026-05-03T15:43:22.482Z</time></trkpt><trkpt lat="39.616565" lon="16.22986"><ele>161.0</ele><time>2026-05-03T15:43:23.481Z</time></trkpt><trkpt lat="39.6162617" lon="16.2298533"><ele>162.0</ele><time>2026-05-03T15:43:24.482Z</time></trkpt><trkpt lat="39.61596" lon="16.2298583"><ele>163.0</ele><time>2026-05-03T15:43:25.482Z</time></trkpt><trkpt lat="39.6156583" lon="16.2298783"><ele>163.0</ele><time>2026-05-03T15:43:26.483Z</time></trkpt><trkpt lat="39.6153567" lon="16.22991"><ele>163.0</ele><time>2026-05-03T15:43:27.482Z</time></trkpt><trkpt lat="39.61506" lon="16.2299567"><ele>162.5</ele><time>2026-05-03T15:43:28.482Z</time></trkpt><trkpt lat="39.614765" lon="16.2300117"><ele>162.0</ele><time>2026-05-03T15:43:29.482Z</time></trkpt><trkpt lat="39.6144717" lon="16.2300817"><ele>162.0</ele><time>2026-05-03T15:43:30.481Z</time></trkpt><trkpt lat="39.6141783" lon="16.2301633"><ele>162.0</ele><time>2026-05-03T15:43:31.483Z</time></trkpt><trkpt lat="39.6138867" lon="16.2302483"><ele>164.0</ele><time>2026-05-03T15:43:32.483Z</time></trkpt><trkpt lat="39.6135933" lon="16.2303367"><ele>166.0</ele><time>2026-05-03T15:43:33.482Z</time></trkpt><trkpt lat="39.6132967" lon="16.2304283"><ele>166.0</ele><time>2026-05-03T15:43:34.482Z</time></trkpt><trkpt lat="39.613" lon="16.2305217"><ele>166.0</ele><time>2026-05-03T15:43:35.482Z</time></trkpt><trkpt lat="39.6127017" lon="16.2306133"><ele>169.0</ele><time>2026-05-03T15:43:36.482Z</time></trkpt><trkpt lat="39.6124017" lon="16.2307083"><ele>172.0</ele><time>2026-05-03T15:43:37.481Z</time></trkpt><trkpt lat="39.6121017" lon="16.2308033"><ele>172.0</ele><time>2026-05-03T15:43:38.483Z</time></trkpt><trkpt lat="39.6118017" lon="16.23091"><ele>172.0</ele><time>2026-05-03T15:43:39.482Z</time></trkpt><trkpt lat="39.6114917" lon="16.23101"><ele>172.0</ele><time>2026-05-03T15:43:40.481Z</time></trkpt><trkpt lat="39.6111917" lon="16.2311033"><ele>172.0</ele><time>2026-05-03T15:43:41.482Z</time></trkpt><trkpt lat="39.610895" lon="16.2312083"><ele>175.0</ele><time>2026-05-03T15:43:42.482Z</time></trkpt><trkpt lat="39.6105883" lon="16.2313033"><ele>178.0</ele><time>2026-05-03T15:43:43.482Z</time></trkpt><trkpt lat="39.6102767" lon="16.2313983"><ele>172.0</ele><time>2026-05-03T15:43:44.482Z</time></trkpt><trkpt lat="39.6112169" lon="16.2310542"><ele>144.0</ele><time>2026-05-03T15:44:04.669Z</time></trkpt><trkpt lat="39.601355" lon="16.236465"><ele>138.0</ele><time>2026-05-03T15:44:14.482Z</time></trkpt><trkpt lat="39.60115" lon="16.2367117"><ele>132.0</ele><time>2026-05-03T15:44:15.481Z</time></trkpt><trkpt lat="39.60096" lon="16.236965"><ele>132.0</ele><time>2026-05-03T15:44:16.483Z</time></trkpt><trkpt lat="39.60078" lon="16.2372183"><ele>132.0</ele><time>2026-05-03T15:44:17.481Z</time></trkpt><trkpt lat="39.6006067" lon="16.23748"><ele>135.5</ele><time>2026-05-03T15:44:18.48Z</time></trkpt><trkpt lat="39.6004367" lon="16.237745"><ele>139.0</ele><time>2026-05-03T15:44:19.482Z</time></trkpt><trkpt lat="39.600275" lon="16.238015"><ele>133.5</ele><time>2026-05-03T15:44:20.482Z</time></trkpt><trkpt lat="39.6001167" lon="16.2382867"><ele>128.0</ele><time>2026-05-03T15:44:21.482Z</time></trkpt><trkpt lat="39.59996" lon="16.2385633"><ele>128.0</ele><time>2026-05-03T15:44:22.481Z</time></trkpt><trkpt lat="39.5998033" lon="16.2388483"><ele>128.0</ele><time>2026-05-03T15:44:23.481Z</time></trkpt><trkpt lat="39.5996417" lon="16.2391517"><ele>120.0</ele><time>2026-05-03T15:44:24.481Z</time></trkpt><trkpt lat="39.599475" lon="16.2394683"><ele>112.0</ele><time>2026-05-03T15:44:25.482Z</time></trkpt><trkpt lat="39.5992983" lon="16.239795"><ele>114.0</ele><time>2026-05-03T15:44:26.483Z</time></trkpt><trkpt lat="39.59911" lon="16.2401283"><ele>116.0</ele><time>2026-05-03T15:44:27.482Z</time></trkpt><trkpt lat="39.5989133" lon="16.2404633"><ele>116.0</ele><time>2026-05-03T15:44:28.482Z</time></trkpt><trkpt lat="39.5987133" lon="16.240805"><ele>116.0</ele><time>2026-05-03T15:44:29.481Z</time></trkpt><trkpt lat="39.5985033" lon="16.241145"><ele>112.5</ele><time>2026-05-03T15:44:30.482Z</time></trkpt><trkpt lat="39.5982883" lon="16.241485"><ele>109.0</ele><time>2026-05-03T15:44:31.481Z</time></trkpt><trkpt lat="39.5980617" lon="16.2418167"><ele>109.0</ele><time>2026-05-03T15:44:32.482Z</time></trkpt><trkpt lat="39.597825" lon="16.2421417"><ele>109.0</ele><time>2026-05-03T15:44:33.482Z</time></trkpt><trkpt lat="39.5975767" lon="16.2424567"><ele>109.0</ele><time>2026-05-03T15:44:34.482Z</time></trkpt><trkpt lat="39.59732" lon="16.2427583"><ele>109.0</ele><time>2026-05-03T15:44:35.482Z</time></trkpt><trkpt lat="39.5970517" lon="16.24305"><ele>108.5</ele><time>2026-05-03T15:44:36.482Z</time></trkpt><trkpt lat="39.596775" lon="16.243325"><ele>108.0</ele><time>2026-05-03T15:44:37.48Z</time></trkpt><trkpt lat="39.596495" lon="16.2435933"><ele>108.0</ele><time>2026-05-03T15:44:38.481Z</time></trkpt><trkpt lat="39.5962033" lon="16.2438433"><ele>108.0</ele><time>2026-05-03T15:44:39.482Z</time></trkpt><trkpt lat="39.5959017" lon="16.24408"><ele>103.0</ele><time>2026-05-03T15:44:40.481Z</time></trkpt><trkpt lat="39.5955917" lon="16.2443033"><ele>98.0</ele><time>2026-05-03T15:44:41.482Z</time></trkpt><trkpt lat="39.5952767" lon="16.2445167"><ele>98.0</ele><time>2026-05-03T15:44:42.488Z</time></trkpt><trkpt lat="39.5949483" lon="16.2447183"><ele>98.0</ele><time>2026-05-03T15:44:43.482Z</time></trkpt><trkpt lat="39.5945967" lon="16.2449267"><ele>92.0</ele><time>2026-05-03T15:44:44.483Z</time></trkpt><trkpt lat="39.594285" lon="16.2450683"><ele>86.0</ele><time>2026-05-03T15:44:45.481Z</time></trkpt><trkpt lat="39.5939717" lon="16.2452117"><ele>77.5</ele><time>2026-05-03T15:44:46.48Z</time></trkpt><trkpt lat="39.5936483" lon="16.2453367"><ele>69.0</ele><time>2026-05-03T15:44:47.482Z</time></trkpt><trkpt lat="39.5933217" lon="16.24545"><ele>69.0</ele><time>2026-05-03T15:44:48.482Z</time></trkpt><trkpt lat="39.59299" lon="16.24555"><ele>69.0</ele><time>2026-05-03T15:44:49.481Z</time></trkpt><trkpt lat="39.5926517" lon="16.2456317"><ele>70.0</ele><time>2026-05-03T15:44:50.482Z</time></trkpt><trkpt lat="39.59231" lon="16.2456983"><ele>71.0</ele><time>2026-05-03T15:44:51.482Z</time></trkpt><trkpt lat="39.5919683" lon="16.2457517"><ele>75.0</ele><time>2026-05-03T15:44:52.482Z</time></trkpt><trkpt lat="39.591625" lon="16.2457933"><ele>79.0</ele><time>2026-05-03T15:44:53.482Z</time></trkpt><trkpt lat="39.59128" lon="16.2458217"><ele>76.5</ele><time>2026-05-03T15:44:54.481Z</time></trkpt><trkpt lat="39.590935" lon="16.2458417"><ele>74.0</ele><time>2026-05-03T15:44:55.483Z</time></trkpt><trkpt lat="39.5905917" lon="16.2458483"><ele>73.5</ele><time>2026-05-03T15:44:56.482Z</time></trkpt><trkpt lat="39.5902483" lon="16.245845"><ele>73.0</ele><time>2026-05-03T15:44:57.481Z</time></trkpt><trkpt lat="39.5899067" lon="16.24584"><ele>73.0</ele><time>2026-05-03T15:44:58.482Z</time></trkpt><trkpt lat="39.589565" lon="16.245835"><ele>73.0</ele><time>2026-05-03T15:44:59.481Z</time></trkpt><trkpt lat="39.5892217" lon="16.245825"><ele>71.0</ele><time>2026-05-03T15:45:00.482Z</time></trkpt><trkpt lat="39.588875" lon="16.2458117"><ele>69.0</ele><time>2026-05-03T15:45:01.482Z</time></trkpt><trkpt lat="39.58853" lon="16.245785"><ele>66.5</ele><time>2026-05-03T15:45:02.483Z</time></trkpt><trkpt lat="39.58818" lon="16.24577"><ele>64.0</ele><time>2026-05-03T15:45:03.481Z</time></trkpt><trkpt lat="39.5878433" lon="16.245765"><ele>62.5</ele><time>2026-05-03T15:45:04.482Z</time></trkpt><trkpt lat="39.5875067" lon="16.245755"><ele>61.0</ele><time>2026-05-03T15:45:05.482Z</time></trkpt><trkpt lat="39.587165" lon="16.245745"><ele>60.5</ele><time>2026-05-03T15:45:06.481Z</time></trkpt><trkpt lat="39.5868167" lon="16.24574"><ele>60.0</ele><time>2026-05-03T15:45:07.481Z</time></trkpt><trkpt lat="39.5864683" lon="16.2457233"><ele>60.0</ele><time>2026-05-03T15:45:08.482Z</time></trkpt><trkpt lat="39.586125" lon="16.2457017"><ele>60.0</ele><time>2026-05-03T15:45:09.482Z</time></trkpt><trkpt lat="39.5857783" lon="16.2456783"><ele>60.0</ele><time>2026-05-03T15:45:10.482Z</time></trkpt><trkpt lat="39.5854317" lon="16.2456533"><ele>60.0</ele><time>2026-05-03T15:45:11.482Z</time></trkpt><trkpt lat="39.585095" lon="16.2456333"><ele>60.0</ele><time>2026-05-03T15:45:12.484Z</time></trkpt><trkpt lat="39.5847483" lon="16.2455867"><ele>60.0</ele><time>2026-05-03T15:45:13.482Z</time></trkpt><trkpt lat="39.5844033" lon="16.24554"><ele>60.0</ele><time>2026-05-03T15:45:14.482Z</time></trkpt><trkpt lat="39.5840733" lon="16.2455067"><ele>60.0</ele><time>2026-05-03T15:45:15.482Z</time></trkpt><trkpt lat="39.5837383" lon="16.245465"><ele>60.5</ele><time>2026-05-03T15:45:16.482Z</time></trkpt><trkpt lat="39.5833917" lon="16.245415"><ele>61.0</ele><time>2026-05-03T15:45:17.481Z</time></trkpt><trkpt lat="39.583045" lon="16.2453467"><ele>61.5</ele><time>2026-05-03T15:45:18.481Z</time></trkpt><trkpt lat="39.5827017" lon="16.2452633"><ele>62.0</ele><time>2026-05-03T15:45:19.482Z</time></trkpt><trkpt lat="39.5823617" lon="16.2451567"><ele>62.0</ele><time>2026-05-03T15:45:20.482Z</time></trkpt><trkpt lat="39.5820233" lon="16.2450433"><ele>62.0</ele><time>2026-05-03T15:45:21.481Z</time></trkpt><trkpt lat="39.5816883" lon="16.244925"><ele>61.0</ele><time>2026-05-03T15:45:22.481Z</time></trkpt><trkpt lat="39.5813583" lon="16.2447967"><ele>60.0</ele><time>2026-05-03T15:45:23.483Z</time></trkpt><trkpt lat="39.5810317" lon="16.2446583"><ele>59.5</ele><time>2026-05-03T15:45:24.482Z</time></trkpt><trkpt lat="39.5807083" lon="16.2445133"><ele>59.0</ele><time>2026-05-03T15:45:25.482Z</time></trkpt><trkpt lat="39.5803917" lon="16.2443533"><ele>60.5</ele><time>2026-05-03T15:45:26.482Z</time></trkpt><trkpt lat="39.58008" lon="16.2441833"><ele>62.0</ele><time>2026-05-03T15:45:27.482Z</time></trkpt><trkpt lat="39.5797733" lon="16.2440033"><ele>62.0</ele><time>2026-05-03T15:45:28.481Z</time></trkpt><trkpt lat="39.57947" lon="16.2438133"><ele>62.0</ele><time>2026-05-03T15:45:29.482Z</time></trkpt><trkpt lat="39.5791717" lon="16.2436117"><ele>62.0</ele><time>2026-05-03T15:45:30.482Z</time></trkpt><trkpt lat="39.5788767" lon="16.2434"><ele>62.0</ele><time>2026-05-03T15:45:31.481Z</time></trkpt><trkpt lat="39.578585" lon="16.24318"><ele>62.5</ele><time>2026-05-03T15:45:32.482Z</time></trkpt><trkpt lat="39.578295" lon="16.2429483"><ele>63.0</ele><time>2026-05-03T15:45:33.483Z</time></trkpt><trkpt lat="39.5780083" lon="16.2427067"><ele>62.0</ele><time>2026-05-03T15:45:34.482Z</time></trkpt><trkpt lat="39.5777217" lon="16.24246"><ele>61.0</ele><time>2026-05-03T15:45:35.482Z</time></trkpt><trkpt lat="39.5774333" lon="16.2422083"><ele>60.5</ele><time>2026-05-03T15:45:36.483Z</time></trkpt><trkpt lat="39.5771433" lon="16.2419483"><ele>60.0</ele><time>2026-05-03T15:45:37.482Z</time></trkpt><trkpt lat="39.576855" lon="16.2416867"><ele>63.5</ele><time>2026-05-03T15:45:38.483Z</time></trkpt><trkpt lat="39.5765667" lon="16.2414217"><ele>67.0</ele><time>2026-05-03T15:45:39.482Z</time></trkpt><trkpt lat="39.576285" lon="16.24116"><ele>65.5</ele><time>2026-05-03T15:45:40.482Z</time></trkpt><trkpt lat="39.5760067" lon="16.2409067"><ele>64.0</ele><time>2026-05-03T15:45:41.483Z</time></trkpt><trkpt lat="39.5757367" lon="16.2406567"><ele>63.5</ele><time>2026-05-03T15:45:42.481Z</time></trkpt><trkpt lat="39.5754717" lon="16.2404133"><ele>63.0</ele><time>2026-05-03T15:45:43.482Z</time></trkpt><trkpt lat="39.5752167" lon="16.2401817"><ele>63.0</ele><time>2026-05-03T15:45:44.483Z</time></trkpt><trkpt lat="39.5749683" lon="16.2399633"><ele>63.0</ele><time>2026-05-03T15:45:45.482Z</time></trkpt><trkpt lat="39.57472" lon="16.239755"><ele>63.0</ele><time>2026-05-03T15:45:46.482Z</time></trkpt><trkpt lat="39.5744733" lon="16.2395533"><ele>63.0</ele><time>2026-05-03T15:45:47.482Z</time></trkpt><trkpt lat="39.574225" lon="16.2393617"><ele>63.0</ele><time>2026-05-03T15:45:48.481Z</time></trkpt><trkpt lat="39.5739733" lon="16.239175"><ele>63.0</ele><time>2026-05-03T15:45:49.482Z</time></trkpt><trkpt lat="39.5737183" lon="16.2389967"><ele>65.0</ele><time>2026-05-03T15:45:50.482Z</time></trkpt><trkpt lat="39.5734517" lon="16.238825"><ele>67.0</ele><time>2026-05-03T15:45:51.482Z</time></trkpt><trkpt lat="39.573175" lon="16.2386617"><ele>67.0</ele><time>2026-05-03T15:45:52.482Z</time></trkpt><trkpt lat="39.5728917" lon="16.2385083"><ele>67.0</ele><time>2026-05-03T15:45:53.482Z</time></trkpt><trkpt lat="39.5725983" lon="16.2383683"><ele>66.5</ele><time>2026-05-03T15:45:54.482Z</time></trkpt><trkpt lat="39.5723" lon="16.2382383"><ele>66.0</ele><time>2026-05-03T15:45:55.481Z</time></trkpt><trkpt lat="39.5719967" lon="16.23812"><ele>66.0</ele><time>2026-05-03T15:45:56.482Z</time></trkpt><trkpt lat="39.57169" lon="16.2380083"><ele>66.0</ele><time>2026-05-03T15:45:57.482Z</time></trkpt><trkpt lat="39.5713767" lon="16.2379"><ele>65.5</ele><time>2026-05-03T15:45:58.482Z</time></trkpt><trkpt lat="39.571055" lon="16.2377917"><ele>65.0</ele><time>2026-05-03T15:45:59.482Z</time></trkpt><trkpt lat="39.5707283" lon="16.2376883"><ele>65.0</ele><time>2026-05-03T15:46:00.481Z</time></trkpt><trkpt lat="39.5703967" lon="16.2375883"><ele>65.0</ele><time>2026-05-03T15:46:01.481Z</time></trkpt><trkpt lat="39.5700617" lon="16.23749"><ele>65.0</ele><time>2026-05-03T15:46:02.483Z</time></trkpt><trkpt lat="39.569725" lon="16.23739"><ele>65.0</ele><time>2026-05-03T15:46:03.482Z</time></trkpt><trkpt lat="39.5693883" lon="16.2372917"><ele>65.0</ele><time>2026-05-03T15:46:04.482Z</time></trkpt><trkpt lat="39.56905" lon="16.23719"><ele>65.0</ele><time>2026-05-03T15:46:05.481Z</time></trkpt><trkpt lat="39.5687117" lon="16.23709"><ele>65.0</ele><time>2026-05-03T15:46:06.481Z</time></trkpt><trkpt lat="39.5683733" lon="16.2369917"><ele>65.0</ele><time>2026-05-03T15:46:07.482Z</time></trkpt><trkpt lat="39.5680333" lon="16.236895"><ele>64.0</ele><time>2026-05-03T15:46:08.483Z</time></trkpt><trkpt lat="39.5676917" lon="16.2367983"><ele>63.0</ele><time>2026-05-03T15:46:09.482Z</time></trkpt><trkpt lat="39.5673517" lon="16.2367"><ele>63.0</ele><time>2026-05-03T15:46:10.482Z</time></trkpt><trkpt lat="39.56701" lon="16.2366"><ele>63.0</ele><time>2026-05-03T15:46:11.482Z</time></trkpt><trkpt lat="39.56667" lon="16.2364983"><ele>64.0</ele><time>2026-05-03T15:46:12.482Z</time></trkpt><trkpt lat="39.5663317" lon="16.236395"><ele>65.0</ele><time>2026-05-03T15:46:13.481Z</time></trkpt><trkpt lat="39.56599" lon="16.2362917"><ele>65.0</ele><time>2026-05-03T15:46:14.482Z</time></trkpt><trkpt lat="39.5656483" lon="16.23619"><ele>65.0</ele><time>2026-05-03T15:46:15.482Z</time></trkpt><trkpt lat="39.565305" lon="16.23609"><ele>65.0</ele><time>2026-05-03T15:46:16.483Z</time></trkpt><trkpt lat="39.5649617" lon="16.2359933"><ele>65.0</ele><time>2026-05-03T15:46:17.483Z</time></trkpt><trkpt lat="39.5646183" lon="16.235895"><ele>64.5</ele><time>2026-05-03T15:46:18.483Z</time></trkpt><trkpt lat="39.564275" lon="16.2357983"><ele>64.0</ele><time>2026-05-03T15:46:19.481Z</time></trkpt><trkpt lat="39.5639333" lon="16.2357"><ele>64.5</ele><time>2026-05-03T15:46:20.482Z</time></trkpt><trkpt lat="39.5635933" lon="16.2356"><ele>65.0</ele><time>2026-05-03T15:46:21.482Z</time></trkpt><trkpt lat="39.5632533" lon="16.235495"><ele>65.0</ele><time>2026-05-03T15:46:22.482Z</time></trkpt><trkpt lat="39.5629167" lon="16.2353867"><ele>65.0</ele><time>2026-05-03T15:46:23.482Z</time></trkpt><trkpt lat="39.56258" lon="16.2352733"><ele>65.0</ele><time>2026-05-03T15:46:24.482Z</time></trkpt><trkpt lat="39.562245" lon="16.235155"><ele>65.0</ele><time>2026-05-03T15:46:25.482Z</time></trkpt><trkpt lat="39.5619117" lon="16.2350333"><ele>65.5</ele><time>2026-05-03T15:46:26.482Z</time></trkpt><trkpt lat="39.56158" lon="16.2349117"><ele>66.0</ele><time>2026-05-03T15:46:27.482Z</time></trkpt><trkpt lat="39.56125" lon="16.234785"><ele>67.0</ele><time>2026-05-03T15:46:28.481Z</time></trkpt><trkpt lat="39.56092" lon="16.234655"><ele>68.0</ele><time>2026-05-03T15:46:29.481Z</time></trkpt><trkpt lat="39.5605917" lon="16.2345183"><ele>67.5</ele><time>2026-05-03T15:46:30.482Z</time></trkpt><trkpt lat="39.5602633" lon="16.2343783"><ele>67.0</ele><time>2026-05-03T15:46:31.482Z</time></trkpt><trkpt lat="39.55994" lon="16.2342367"><ele>67.0</ele><time>2026-05-03T15:46:32.483Z</time></trkpt><trkpt lat="39.5596167" lon="16.23409"><ele>67.0</ele><time>2026-05-03T15:46:33.482Z</time></trkpt><trkpt lat="39.5592967" lon="16.2339417"><ele>68.0</ele><time>2026-05-03T15:46:34.482Z</time></trkpt><trkpt lat="39.55898" lon="16.2337917"><ele>69.0</ele><time>2026-05-03T15:46:35.483Z</time></trkpt><trkpt lat="39.558665" lon="16.2336433"><ele>69.5</ele><time>2026-05-03T15:46:36.482Z</time></trkpt><trkpt lat="39.558355" lon="16.2334933"><ele>70.0</ele><time>2026-05-03T15:46:37.483Z</time></trkpt><trkpt lat="39.5580467" lon="16.233345"><ele>70.0</ele><time>2026-05-03T15:46:38.483Z</time></trkpt><trkpt lat="39.5577417" lon="16.2331983"><ele>70.0</ele><time>2026-05-03T15:46:39.482Z</time></trkpt><trkpt lat="39.557435" lon="16.2330533"><ele>69.5</ele><time>2026-05-03T15:46:40.482Z</time></trkpt><trkpt lat="39.55713" lon="16.23291"><ele>69.0</ele><time>2026-05-03T15:46:41.481Z</time></trkpt><trkpt lat="39.556825" lon="16.2327683"><ele>69.0</ele><time>2026-05-03T15:46:42.483Z</time></trkpt><trkpt lat="39.5565217" lon="16.232625"><ele>69.0</ele><time>2026-05-03T15:46:43.482Z</time></trkpt><trkpt lat="39.5562217" lon="16.2324817"><ele>70.5</ele><time>2026-05-03T15:46:44.483Z</time></trkpt><trkpt lat="39.5559233" lon="16.2323367"><ele>72.0</ele><time>2026-05-03T15:46:45.481Z</time></trkpt><trkpt lat="39.5556283" lon="16.2321933"><ele>72.5</ele><time>2026-05-03T15:46:46.482Z</time></trkpt><trkpt lat="39.5553333" lon="16.2320533"><ele>73.0</ele><time>2026-05-03T15:46:47.482Z</time></trkpt><trkpt lat="39.555035" lon="16.2319133"><ele>73.0</ele><time>2026-05-03T15:46:48.482Z</time></trkpt><trkpt lat="39.5547333" lon="16.2317733"><ele>73.0</ele><time>2026-05-03T15:46:49.483Z</time></trkpt><trkpt lat="39.5544283" lon="16.23163"><ele>72.5</ele><time>2026-05-03T15:46:50.482Z</time></trkpt><trkpt lat="39.55412" lon="16.2314883"><ele>72.0</ele><time>2026-05-03T15:46:51.481Z</time></trkpt><trkpt lat="39.5538067" lon="16.2313417"><ele>72.0</ele><time>2026-05-03T15:46:52.483Z</time></trkpt><trkpt lat="39.5534917" lon="16.2311917"><ele>72.0</ele><time>2026-05-03T15:46:53.482Z</time></trkpt><trkpt lat="39.5531733" lon="16.2310417"><ele>72.0</ele><time>2026-05-03T15:46:54.482Z</time></trkpt><trkpt lat="39.552855" lon="16.2308917"><ele>72.0</ele><time>2026-05-03T15:46:55.482Z</time></trkpt><trkpt lat="39.5525333" lon="16.2307383"><ele>71.5</ele><time>2026-05-03T15:46:56.482Z</time></trkpt><trkpt lat="39.552215" lon="16.230585"><ele>71.0</ele><time>2026-05-03T15:46:57.482Z</time></trkpt><trkpt lat="39.5518983" lon="16.23043"><ele>72.0</ele><time>2026-05-03T15:46:58.482Z</time></trkpt><trkpt lat="39.5515833" lon="16.2302767"><ele>73.0</ele><time>2026-05-03T15:46:59.481Z</time></trkpt><trkpt lat="39.551265" lon="16.2301217"><ele>72.5</ele><time>2026-05-03T15:47:00.482Z</time></trkpt><trkpt lat="39.5509488" lon="16.2299649"><ele>72.0</ele><time>2026-05-03T15:47:01.481Z</time></trkpt><trkpt lat="39.5506333" lon="16.2298081"><ele>72.0</ele><time>2026-05-03T15:47:02.483Z</time></trkpt><trkpt lat="39.5503189" lon="16.2296542"><ele>72.0</ele><time>2026-05-03T15:47:03.481Z</time></trkpt><trkpt lat="39.5500035" lon="16.2295051"><ele>72.0</ele><time>2026-05-03T15:47:04.482Z</time></trkpt><trkpt lat="39.5496886" lon="16.2293556"><ele>72.0</ele><time>2026-05-03T15:47:05.482Z</time></trkpt><trkpt lat="39.5493736" lon="16.2292069"><ele>72.0</ele><time>2026-05-03T15:47:06.482Z</time></trkpt><trkpt lat="39.5490583" lon="16.2290594"><ele>72.0</ele><time>2026-05-03T15:47:07.481Z</time></trkpt><trkpt lat="39.5487429" lon="16.2289089"><ele>71.5</ele><time>2026-05-03T15:47:08.482Z</time></trkpt><trkpt lat="39.5484263" lon="16.2287551"><ele>71.0</ele><time>2026-05-03T15:47:09.482Z</time></trkpt><trkpt lat="39.5481083" lon="16.2286027"><ele>71.0</ele><time>2026-05-03T15:47:10.481Z</time></trkpt><trkpt lat="39.5477897" lon="16.2284518"><ele>71.0</ele><time>2026-05-03T15:47:11.483Z</time></trkpt><trkpt lat="39.5474697" lon="16.2283002"><ele>71.0</ele><time>2026-05-03T15:47:12.482Z</time></trkpt><trkpt lat="39.547148" lon="16.2281506"><ele>71.0</ele><time>2026-05-03T15:47:13.483Z</time></trkpt><trkpt lat="39.5468252" lon="16.2279951"><ele>71.0</ele><time>2026-05-03T15:47:14.483Z</time></trkpt><trkpt lat="39.5464989" lon="16.2278371"><ele>71.0</ele><time>2026-05-03T15:47:15.482Z</time></trkpt><trkpt lat="39.5461734" lon="16.2276789"><ele>70.5</ele><time>2026-05-03T15:47:16.482Z</time></trkpt><trkpt lat="39.5458465" lon="16.2275202"><ele>70.0</ele><time>2026-05-03T15:47:17.482Z</time></trkpt><trkpt lat="39.5455183" lon="16.2273605"><ele>71.5</ele><time>2026-05-03T15:47:18.483Z</time></trkpt><trkpt lat="39.5451884" lon="16.2272004"><ele>73.0</ele><time>2026-05-03T15:47:19.482Z</time></trkpt><trkpt lat="39.5448555" lon="16.2270425"><ele>72.5</ele><time>2026-05-03T15:47:20.482Z</time></trkpt><trkpt lat="39.5445229" lon="16.2268888"><ele>72.0</ele><time>2026-05-03T15:47:21.481Z</time></trkpt><trkpt lat="39.5441896" lon="16.2267342"><ele>72.0</ele><time>2026-05-03T15:47:22.483Z</time></trkpt><trkpt lat="39.5438549" lon="16.2265792"><ele>72.0</ele><time>2026-05-03T15:47:23.483Z</time></trkpt><trkpt lat="39.5435196" lon="16.2264216"><ele>72.5</ele><time>2026-05-03T15:47:24.483Z</time></trkpt><trkpt lat="39.5431833" lon="16.2262599"><ele>73.0</ele><time>2026-05-03T15:47:25.481Z</time></trkpt><trkpt lat="39.5428479" lon="16.2260981"><ele>73.0</ele><time>2026-05-03T15:47:26.483Z</time></trkpt><trkpt lat="39.5425128" lon="16.2259364"><ele>73.0</ele><time>2026-05-03T15:47:27.482Z</time></trkpt><trkpt lat="39.5421779" lon="16.2257747"><ele>73.5</ele><time>2026-05-03T15:47:28.483Z</time></trkpt><trkpt lat="39.5418442" lon="16.2256109"><ele>74.0</ele><time>2026-05-03T15:47:29.482Z</time></trkpt><trkpt lat="39.541511" lon="16.2254486"><ele>75.5</ele><time>2026-05-03T15:47:30.482Z</time></trkpt><trkpt lat="39.5411824" lon="16.2252917"><ele>77.0</ele><time>2026-05-03T15:47:31.481Z</time></trkpt><trkpt lat="39.5408545" lon="16.2251326"><ele>77.0</ele><time>2026-05-03T15:47:32.483Z</time></trkpt><trkpt lat="39.5405276" lon="16.2249769"><ele>77.0</ele><time>2026-05-03T15:47:33.482Z</time></trkpt><trkpt lat="39.5402008" lon="16.2248183"><ele>77.5</ele><time>2026-05-03T15:47:34.481Z</time></trkpt><trkpt lat="39.539873" lon="16.224661"><ele>78.0</ele><time>2026-05-03T15:47:35.481Z</time></trkpt><trkpt lat="39.5395461" lon="16.2245031"><ele>76.5</ele><time>2026-05-03T15:47:36.481Z</time></trkpt><trkpt lat="39.5392197" lon="16.224345"><ele>75.0</ele><time>2026-05-03T15:47:37.482Z</time></trkpt><trkpt lat="39.538894" lon="16.2241867"><ele>74.5</ele><time>2026-05-03T15:47:38.483Z</time></trkpt><trkpt lat="39.5385706" lon="16.2240309"><ele>74.0</ele><time>2026-05-03T15:47:39.482Z</time></trkpt><trkpt lat="39.5382495" lon="16.2238785"><ele>74.0</ele><time>2026-05-03T15:47:40.482Z</time></trkpt><trkpt lat="39.5379313" lon="16.2237295"><ele>74.0</ele><time>2026-05-03T15:47:41.482Z</time></trkpt><trkpt lat="39.5376126" lon="16.2235842"><ele>74.0</ele><time>2026-05-03T15:47:42.482Z</time></trkpt><trkpt lat="39.5372929" lon="16.223438"><ele>74.0</ele><time>2026-05-03T15:47:43.481Z</time></trkpt><trkpt lat="39.5369717" lon="16.223289"><ele>75.5</ele><time>2026-05-03T15:47:44.482Z</time></trkpt><trkpt lat="39.5366498" lon="16.2231346"><ele>77.0</ele><time>2026-05-03T15:47:45.482Z</time></trkpt><trkpt lat="39.5363279" lon="16.2229785"><ele>77.0</ele><time>2026-05-03T15:47:46.483Z</time></trkpt><trkpt lat="39.5360087" lon="16.2228197"><ele>77.0</ele><time>2026-05-03T15:47:47.482Z</time></trkpt><trkpt lat="39.5357051" lon="16.222672"><ele>77.0</ele><time>2026-05-03T15:47:48.482Z</time></trkpt><trkpt lat="39.5353965" lon="16.2225125"><ele>77.0</ele><time>2026-05-03T15:47:49.482Z</time></trkpt><trkpt lat="39.5350932" lon="16.222347"><ele>77.0</ele><time>2026-05-03T15:47:50.483Z</time></trkpt><trkpt lat="39.5347812" lon="16.222174"><ele>77.0</ele><time>2026-05-03T15:47:51.483Z</time></trkpt><trkpt lat="39.534469" lon="16.2219955"><ele>77.0</ele><time>2026-05-03T15:47:52.483Z</time></trkpt><trkpt lat="39.534144" lon="16.2218106"><ele>77.0</ele><time>2026-05-03T15:47:53.483Z</time></trkpt><trkpt lat="39.5338238" lon="16.2216235"><ele>77.5</ele><time>2026-05-03T15:47:54.483Z</time></trkpt><trkpt lat="39.5335113" lon="16.2214458"><ele>78.0</ele><time>2026-05-03T15:47:55.483Z</time></trkpt><trkpt lat="39.5332058" lon="16.2212702"><ele>78.0</ele><time>2026-05-03T15:47:56.483Z</time></trkpt><trkpt lat="39.5329095" lon="16.2210985"><ele>78.0</ele><time>2026-05-03T15:47:57.482Z</time></trkpt><trkpt lat="39.5326162" lon="16.2209284"><ele>78.5</ele><time>2026-05-03T15:47:58.482Z</time></trkpt><trkpt lat="39.532325" lon="16.2207579"><ele>79.0</ele><time>2026-05-03T15:47:59.482Z</time></trkpt><trkpt lat="39.5320358" lon="16.2205865"><ele>79.0</ele><time>2026-05-03T15:48:00.482Z</time></trkpt><trkpt lat="39.5317449" lon="16.2204161"><ele>79.0</ele><time>2026-05-03T15:48:01.482Z</time></trkpt><trkpt lat="39.5314562" lon="16.2202486"><ele>78.5</ele><time>2026-05-03T15:48:02.482Z</time></trkpt><trkpt lat="39.5311674" lon="16.2200849"><ele>78.0</ele><time>2026-05-03T15:48:03.482Z</time></trkpt><trkpt lat="39.5308767" lon="16.2199167"><ele>77.5</ele><time>2026-05-03T15:48:04.481Z</time></trkpt><trkpt lat="39.530585" lon="16.2197467"><ele>77.0</ele><time>2026-05-03T15:48:05.482Z</time></trkpt><trkpt lat="39.53029" lon="16.219575"><ele>77.0</ele><time>2026-05-03T15:48:06.481Z</time></trkpt><trkpt lat="39.529995" lon="16.2194017"><ele>77.0</ele><time>2026-05-03T15:48:07.48Z</time></trkpt><trkpt lat="39.5296967" lon="16.2192283"><ele>77.0</ele><time>2026-05-03T15:48:08.482Z</time></trkpt><trkpt lat="39.5293983" lon="16.219055"><ele>77.0</ele><time>2026-05-03T15:48:09.483Z</time></trkpt><trkpt lat="39.5291" lon="16.2188833"><ele>77.5</ele><time>2026-05-03T15:48:10.483Z</time></trkpt><trkpt lat="39.5288033" lon="16.218715"><ele>78.0</ele><time>2026-05-03T15:48:11.485Z</time></trkpt><trkpt lat="39.5285083" lon="16.2185433"><ele>78.0</ele><time>2026-05-03T15:48:12.483Z</time></trkpt><trkpt lat="39.528215" lon="16.218365"><ele>78.0</ele><time>2026-05-03T15:48:13.482Z</time></trkpt><trkpt lat="39.5279217" lon="16.218185"><ele>77.5</ele><time>2026-05-03T15:48:14.483Z</time></trkpt><trkpt lat="39.5276333" lon="16.217995"><ele>77.0</ele><time>2026-05-03T15:48:15.482Z</time></trkpt><trkpt lat="39.5273467" lon="16.217795"><ele>77.0</ele><time>2026-05-03T15:48:16.481Z</time></trkpt><trkpt lat="39.5270667" lon="16.2175883"><ele>77.0</ele><time>2026-05-03T15:48:17.482Z</time></trkpt><trkpt lat="39.52679" lon="16.2173733"><ele>76.5</ele><time>2026-05-03T15:48:18.483Z</time></trkpt><trkpt lat="39.52652" lon="16.2171517"><ele>76.0</ele><time>2026-05-03T15:48:19.483Z</time></trkpt><trkpt lat="39.5262517" lon="16.2169233"><ele>76.5</ele><time>2026-05-03T15:48:20.485Z</time></trkpt><trkpt lat="39.5259883" lon="16.2166917"><ele>77.0</ele><time>2026-05-03T15:48:21.483Z</time></trkpt><trkpt lat="39.5257267" lon="16.216455"><ele>77.0</ele><time>2026-05-03T15:48:22.483Z</time></trkpt><trkpt lat="39.525465" lon="16.2162183"><ele>77.0</ele><time>2026-05-03T15:48:23.483Z</time></trkpt><trkpt lat="39.5252" lon="16.2159833"><ele>77.5</ele><time>2026-05-03T15:48:24.482Z</time></trkpt><trkpt lat="39.524935" lon="16.215745"><ele>78.0</ele><time>2026-05-03T15:48:25.484Z</time></trkpt><trkpt lat="39.5246683" lon="16.2155017"><ele>77.5</ele><time>2026-05-03T15:48:26.484Z</time></trkpt><trkpt lat="39.5243983" lon="16.2152583"><ele>77.0</ele><time>2026-05-03T15:48:27.482Z</time></trkpt><trkpt lat="39.524125" lon="16.2150133"><ele>78.0</ele><time>2026-05-03T15:48:28.483Z</time></trkpt><trkpt lat="39.5238533" lon="16.2147767"><ele>79.0</ele><time>2026-05-03T15:48:29.483Z</time></trkpt><trkpt lat="39.5235767" lon="16.2145433"><ele>79.0</ele><time>2026-05-03T15:48:30.483Z</time></trkpt><trkpt lat="39.5232933" lon="16.2143167"><ele>79.0</ele><time>2026-05-03T15:48:31.481Z</time></trkpt><trkpt lat="39.5230117" lon="16.21411"><ele>81.0</ele><time>2026-05-03T15:48:32.482Z</time></trkpt><trkpt lat="39.5227283" lon="16.2139183"><ele>83.0</ele><time>2026-05-03T15:48:33.483Z</time></trkpt><trkpt lat="39.5224383" lon="16.2137433"><ele>83.0</ele><time>2026-05-03T15:48:34.482Z</time></trkpt><trkpt lat="39.5221383" lon="16.2135733"><ele>83.0</ele><time>2026-05-03T15:48:35.481Z</time></trkpt><trkpt lat="39.52183" lon="16.2134183"><ele>83.0</ele><time>2026-05-03T15:48:36.482Z</time></trkpt><trkpt lat="39.52151" lon="16.2132717"><ele>83.0</ele><time>2026-05-03T15:48:37.481Z</time></trkpt><trkpt lat="39.5211783" lon="16.2131367"><ele>83.5</ele><time>2026-05-03T15:48:38.482Z</time></trkpt><trkpt lat="39.52084" lon="16.213005"><ele>84.0</ele><time>2026-05-03T15:48:39.481Z</time></trkpt><trkpt lat="39.5204917" lon="16.212875"><ele>83.5</ele><time>2026-05-03T15:48:40.481Z</time></trkpt><trkpt lat="39.52014" lon="16.2127417"><ele>83.0</ele><time>2026-05-03T15:48:41.482Z</time></trkpt><trkpt lat="39.5197867" lon="16.2126017"><ele>83.5</ele><time>2026-05-03T15:48:42.482Z</time></trkpt><trkpt lat="39.51943" lon="16.2124583"><ele>84.0</ele><time>2026-05-03T15:48:43.482Z</time></trkpt><trkpt lat="39.51907" lon="16.2123167"><ele>85.0</ele><time>2026-05-03T15:48:44.483Z</time></trkpt><trkpt lat="39.518705" lon="16.2121717"><ele>86.0</ele><time>2026-05-03T15:48:45.482Z</time></trkpt><trkpt lat="39.518335" lon="16.2120317"><ele>86.0</ele><time>2026-05-03T15:48:46.482Z</time></trkpt><trkpt lat="39.51796" lon="16.2118883"><ele>86.0</ele><time>2026-05-03T15:48:47.482Z</time></trkpt><trkpt lat="39.5175817" lon="16.21174"><ele>86.0</ele><time>2026-05-03T15:48:48.482Z</time></trkpt><trkpt lat="39.5172067" lon="16.2115933"><ele>86.0</ele><time>2026-05-03T15:48:49.482Z</time></trkpt><trkpt lat="39.5168233" lon="16.2114217"><ele>88.0</ele><time>2026-05-03T15:48:50.483Z</time></trkpt><trkpt lat="39.5164433" lon="16.2112833"><ele>90.0</ele><time>2026-05-03T15:48:51.481Z</time></trkpt><trkpt lat="39.5160567" lon="16.2111367"><ele>90.0</ele><time>2026-05-03T15:48:52.483Z</time></trkpt><trkpt lat="39.5156567" lon="16.2109883"><ele>90.0</ele><time>2026-05-03T15:48:53.482Z</time></trkpt><trkpt lat="39.5152433" lon="16.210835"><ele>90.0</ele><time>2026-05-03T15:48:54.483Z</time></trkpt><trkpt lat="39.514825" lon="16.2106767"><ele>90.0</ele><time>2026-05-03T15:48:55.482Z</time></trkpt><trkpt lat="39.514405" lon="16.2105183"><ele>90.0</ele><time>2026-05-03T15:48:56.483Z</time></trkpt><trkpt lat="39.5139867" lon="16.2103717"><ele>90.0</ele><time>2026-05-03T15:48:57.482Z</time></trkpt><trkpt lat="39.5135717" lon="16.2102417"><ele>90.0</ele><time>2026-05-03T15:48:58.483Z</time></trkpt><trkpt lat="39.5131567" lon="16.2101317"><ele>90.0</ele><time>2026-05-03T15:48:59.482Z</time></trkpt><trkpt lat="39.5127467" lon="16.2100467"><ele>90.5</ele><time>2026-05-03T15:49:00.482Z</time></trkpt><trkpt lat="39.51235" lon="16.2099883"><ele>91.0</ele><time>2026-05-03T15:49:01.482Z</time></trkpt><trkpt lat="39.511965" lon="16.20995"><ele>91.0</ele><time>2026-05-03T15:49:02.482Z</time></trkpt><trkpt lat="39.5115883" lon="16.2099267"><ele>91.0</ele><time>2026-05-03T15:49:03.482Z</time></trkpt><trkpt lat="39.51122" lon="16.2099117"><ele>91.0</ele><time>2026-05-03T15:49:04.481Z</time></trkpt><trkpt lat="39.5108567" lon="16.2098983"><ele>91.0</ele><time>2026-05-03T15:49:05.482Z</time></trkpt><trkpt lat="39.5104917" lon="16.2098867"><ele>91.0</ele><time>2026-05-03T15:49:06.482Z</time></trkpt><trkpt lat="39.510125" lon="16.209875"><ele>91.0</ele><time>2026-05-03T15:49:07.482Z</time></trkpt><trkpt lat="39.5097617" lon="16.2098683"><ele>90.5</ele><time>2026-05-03T15:49:08.483Z</time></trkpt><trkpt lat="39.5093983" lon="16.20987"><ele>90.0</ele><time>2026-05-03T15:49:09.482Z</time></trkpt><trkpt lat="39.5090217" lon="16.2098617"><ele>89.5</ele><time>2026-05-03T15:49:10.482Z</time></trkpt><trkpt lat="39.5086383" lon="16.20985"><ele>89.0</ele><time>2026-05-03T15:49:11.483Z</time></trkpt><trkpt lat="39.5082517" lon="16.209845"><ele>88.5</ele><time>2026-05-03T15:49:12.483Z</time></trkpt><trkpt lat="39.507865" lon="16.2098433"><ele>88.0</ele><time>2026-05-03T15:49:13.482Z</time></trkpt><trkpt lat="39.5074817" lon="16.2098367"><ele>88.0</ele><time>2026-05-03T15:49:14.482Z</time></trkpt><trkpt lat="39.5070933" lon="16.2098267"><ele>88.0</ele><time>2026-05-03T15:49:15.481Z</time></trkpt><trkpt lat="39.506705" lon="16.209815"><ele>86.5</ele><time>2026-05-03T15:49:16.482Z</time></trkpt><trkpt lat="39.50632" lon="16.2098017"><ele>85.0</ele><time>2026-05-03T15:49:17.483Z</time></trkpt><trkpt lat="39.505935" lon="16.2097917"><ele>84.0</ele><time>2026-05-03T15:49:18.483Z</time></trkpt><trkpt lat="39.5055567" lon="16.2097817"><ele>83.0</ele><time>2026-05-03T15:49:19.485Z</time></trkpt><trkpt lat="39.5051667" lon="16.2097633"><ele>83.0</ele><time>2026-05-03T15:49:20.483Z</time></trkpt><trkpt lat="39.50478" lon="16.20974"><ele>83.0</ele><time>2026-05-03T15:49:21.483Z</time></trkpt><trkpt lat="39.5044033" lon="16.2097467"><ele>82.5</ele><time>2026-05-03T15:49:22.484Z</time></trkpt><trkpt lat="39.5040167" lon="16.2097483"><ele>82.0</ele><time>2026-05-03T15:49:23.483Z</time></trkpt><trkpt lat="39.50362" lon="16.2097583"><ele>82.0</ele><time>2026-05-03T15:49:24.483Z</time></trkpt><trkpt lat="39.50323" lon="16.20978"><ele>82.0</ele><time>2026-05-03T15:49:25.484Z</time></trkpt><trkpt lat="39.50284" lon="16.2098117"><ele>83.0</ele><time>2026-05-03T15:49:26.483Z</time></trkpt><trkpt lat="39.5024433" lon="16.2098567"><ele>84.0</ele><time>2026-05-03T15:49:27.482Z</time></trkpt><trkpt lat="39.5020483" lon="16.20992"><ele>84.5</ele><time>2026-05-03T15:49:28.482Z</time></trkpt><trkpt lat="39.501655" lon="16.20999"><ele>85.0</ele><time>2026-05-03T15:49:29.484Z</time></trkpt><trkpt lat="39.501265" lon="16.2100817"><ele>85.0</ele><time>2026-05-03T15:49:30.483Z</time></trkpt><trkpt lat="39.5008917" lon="16.21018"><ele>85.0</ele><time>2026-05-03T15:49:31.481Z</time></trkpt><trkpt lat="39.5005167" lon="16.2102783"><ele>85.5</ele><time>2026-05-03T15:49:32.482Z</time></trkpt><trkpt lat="39.5001483" lon="16.2103833"><ele>86.0</ele><time>2026-05-03T15:49:33.482Z</time></trkpt><trkpt lat="39.499765" lon="16.2104833"><ele>86.0</ele><time>2026-05-03T15:49:34.483Z</time></trkpt><trkpt lat="39.49938" lon="16.2105783"><ele>86.0</ele><time>2026-05-03T15:49:35.483Z</time></trkpt><trkpt lat="39.498995" lon="16.2106733"><ele>87.5</ele><time>2026-05-03T15:49:36.483Z</time></trkpt><trkpt lat="39.49861" lon="16.2107683"><ele>89.0</ele><time>2026-05-03T15:49:37.482Z</time></trkpt><trkpt lat="39.4982217" lon="16.2108667"><ele>88.5</ele><time>2026-05-03T15:49:38.483Z</time></trkpt><trkpt lat="39.4978367" lon="16.2109683"><ele>88.0</ele><time>2026-05-03T15:49:39.482Z</time></trkpt><trkpt lat="39.49745" lon="16.21107"><ele>88.5</ele><time>2026-05-03T15:49:40.482Z</time></trkpt><trkpt lat="39.497065" lon="16.2111667"><ele>89.0</ele><time>2026-05-03T15:49:41.484Z</time></trkpt><trkpt lat="39.49668" lon="16.2112633"><ele>89.0</ele><time>2026-05-03T15:49:42.481Z</time></trkpt><trkpt lat="39.4962933" lon="16.2113517"><ele>89.0</ele><time>2026-05-03T15:49:43.482Z</time></trkpt><trkpt lat="39.4959083" lon="16.2114367"><ele>89.0</ele><time>2026-05-03T15:49:44.484Z</time></trkpt><trkpt lat="39.4955183" lon="16.211515"><ele>89.0</ele><time>2026-05-03T15:49:45.482Z</time></trkpt><trkpt lat="39.4951283" lon="16.2115883"><ele>89.0</ele><time>2026-05-03T15:49:46.482Z</time></trkpt><trkpt lat="39.494735" lon="16.2116517"><ele>89.0</ele><time>2026-05-03T15:49:47.481Z</time></trkpt><trkpt lat="39.4943367" lon="16.2117083"><ele>88.5</ele><time>2026-05-03T15:49:48.482Z</time></trkpt><trkpt lat="39.49394" lon="16.21176"><ele>88.0</ele><time>2026-05-03T15:49:49.483Z</time></trkpt><trkpt lat="39.4935467" lon="16.2118167"><ele>88.0</ele><time>2026-05-03T15:49:50.482Z</time></trkpt><trkpt lat="39.4931617" lon="16.21188"><ele>88.0</ele><time>2026-05-03T15:49:51.481Z</time></trkpt><trkpt lat="39.4927817" lon="16.2119517"><ele>88.5</ele><time>2026-05-03T15:49:52.483Z</time></trkpt><trkpt lat="39.4924067" lon="16.2120317"><ele>89.0</ele><time>2026-05-03T15:49:53.484Z</time></trkpt><trkpt lat="39.4920333" lon="16.2121183"><ele>89.0</ele><time>2026-05-03T15:49:54.483Z</time></trkpt><trkpt lat="39.4916633" lon="16.2122067"><ele>89.0</ele><time>2026-05-03T15:49:55.483Z</time></trkpt><trkpt lat="39.4912983" lon="16.212295"><ele>89.0</ele><time>2026-05-03T15:49:56.483Z</time></trkpt><trkpt lat="39.4909333" lon="16.2123833"><ele>89.0</ele><time>2026-05-03T15:49:57.483Z</time></trkpt><trkpt lat="39.4905667" lon="16.2124717"><ele>89.5</ele><time>2026-05-03T15:49:58.484Z</time></trkpt><trkpt lat="39.4902" lon="16.2125633"><ele>90.0</ele><time>2026-05-03T15:49:59.485Z</time></trkpt><trkpt lat="39.4898333" lon="16.2126583"><ele>89.5</ele><time>2026-05-03T15:50:00.481Z</time></trkpt><trkpt lat="39.4894633" lon="16.2127533"><ele>89.0</ele><time>2026-05-03T15:50:01.483Z</time></trkpt><trkpt lat="39.489095" lon="16.2128467"><ele>89.0</ele><time>2026-05-03T15:50:02.481Z</time></trkpt><trkpt lat="39.48873" lon="16.2129367"><ele>89.0</ele><time>2026-05-03T15:50:03.482Z</time></trkpt><trkpt lat="39.4883717" lon="16.213025"><ele>89.0</ele><time>2026-05-03T15:50:04.483Z</time></trkpt><trkpt lat="39.4880183" lon="16.2131133"><ele>89.0</ele><time>2026-05-03T15:50:05.482Z</time></trkpt><trkpt lat="39.4876683" lon="16.2132033"><ele>89.0</ele><time>2026-05-03T15:50:06.484Z</time></trkpt><trkpt lat="39.4873217" lon="16.213295"><ele>89.0</ele><time>2026-05-03T15:50:07.483Z</time></trkpt><trkpt lat="39.486975" lon="16.2133833"><ele>89.5</ele><time>2026-05-03T15:50:08.483Z</time></trkpt><trkpt lat="39.4866333" lon="16.213475"><ele>90.0</ele><time>2026-05-03T15:50:09.483Z</time></trkpt><trkpt lat="39.4862917" lon="16.2135633"><ele>90.0</ele><time>2026-05-03T15:50:10.481Z</time></trkpt><trkpt lat="39.485955" lon="16.21365"><ele>90.0</ele><time>2026-05-03T15:50:11.484Z</time></trkpt><trkpt lat="39.4856217" lon="16.2137333"><ele>90.5</ele><time>2026-05-03T15:50:12.483Z</time></trkpt><trkpt lat="39.4852933" lon="16.2138167"><ele>91.0</ele><time>2026-05-03T15:50:13.482Z</time></trkpt><trkpt lat="39.4849633" lon="16.2138967"><ele>91.0</ele><time>2026-05-03T15:50:14.484Z</time></trkpt><trkpt lat="39.4846333" lon="16.2139783"><ele>91.0</ele><time>2026-05-03T15:50:15.484Z</time></trkpt><trkpt lat="39.4842967" lon="16.2140583"><ele>91.5</ele><time>2026-05-03T15:50:16.484Z</time></trkpt><trkpt lat="39.4839567" lon="16.2141417"><ele>92.0</ele><time>2026-05-03T15:50:17.483Z</time></trkpt><trkpt lat="39.483615" lon="16.2142267"><ele>92.5</ele><time>2026-05-03T15:50:18.483Z</time></trkpt><trkpt lat="39.4832767" lon="16.2143133"><ele>93.0</ele><time>2026-05-03T15:50:19.483Z</time></trkpt><trkpt lat="39.4829467" lon="16.2143967"><ele>93.5</ele><time>2026-05-03T15:50:20.483Z</time></trkpt><trkpt lat="39.4826233" lon="16.2144783"><ele>94.0</ele><time>2026-05-03T15:50:21.484Z</time></trkpt><trkpt lat="39.4823033" lon="16.2145617"><ele>94.5</ele><time>2026-05-03T15:50:22.484Z</time></trkpt><trkpt lat="39.4819867" lon="16.2146417"><ele>95.0</ele><time>2026-05-03T15:50:23.484Z</time></trkpt><trkpt lat="39.4816683" lon="16.2147217"><ele>95.0</ele><time>2026-05-03T15:50:24.483Z</time></trkpt><trkpt lat="39.4813517" lon="16.2148"><ele>95.0</ele><time>2026-05-03T15:50:25.484Z</time></trkpt><trkpt lat="39.48103" lon="16.2148817"><ele>95.5</ele><time>2026-05-03T15:50:26.483Z</time></trkpt><trkpt lat="39.4807033" lon="16.214965"><ele>96.0</ele><time>2026-05-03T15:50:27.482Z</time></trkpt><trkpt lat="39.48037" lon="16.215045"><ele>96.0</ele><time>2026-05-03T15:50:28.482Z</time></trkpt><trkpt lat="39.4800333" lon="16.2151267"><ele>96.0</ele><time>2026-05-03T15:50:29.483Z</time></trkpt><trkpt lat="39.4796983" lon="16.2152083"><ele>95.5</ele><time>2026-05-03T15:50:30.482Z</time></trkpt><trkpt lat="39.4793633" lon="16.2152917"><ele>95.0</ele><time>2026-05-03T15:50:31.482Z</time></trkpt><trkpt lat="39.47903" lon="16.215375"><ele>96.0</ele><time>2026-05-03T15:50:32.483Z</time></trkpt><trkpt lat="39.4787" lon="16.2154617"><ele>97.0</ele><time>2026-05-03T15:50:33.482Z</time></trkpt><trkpt lat="39.4783717" lon="16.2155467"><ele>97.0</ele><time>2026-05-03T15:50:34.483Z</time></trkpt><trkpt lat="39.4780467" lon="16.2156283"><ele>97.0</ele><time>2026-05-03T15:50:35.482Z</time></trkpt><trkpt lat="39.4777217" lon="16.2157083"><ele>96.0</ele><time>2026-05-03T15:50:36.482Z</time></trkpt><trkpt lat="39.4774" lon="16.2157883"><ele>95.0</ele><time>2026-05-03T15:50:37.482Z</time></trkpt><trkpt lat="39.4770767" lon="16.2158717"><ele>94.0</ele><time>2026-05-03T15:50:38.482Z</time></trkpt><trkpt lat="39.4767483" lon="16.2159567"><ele>93.0</ele><time>2026-05-03T15:50:39.483Z</time></trkpt><trkpt lat="39.47642" lon="16.216045"><ele>93.0</ele><time>2026-05-03T15:50:40.482Z</time></trkpt><trkpt lat="39.4760883" lon="16.2161383"><ele>93.0</ele><time>2026-05-03T15:50:41.482Z</time></trkpt><trkpt lat="39.4757583" lon="16.2162367"><ele>92.5</ele><time>2026-05-03T15:50:42.483Z</time></trkpt><trkpt lat="39.4754283" lon="16.2163433"><ele>92.0</ele><time>2026-05-03T15:50:43.484Z</time></trkpt><trkpt lat="39.4751" lon="16.2164583"><ele>92.5</ele><time>2026-05-03T15:50:44.484Z</time></trkpt><trkpt lat="39.4747733" lon="16.216585"><ele>93.0</ele><time>2026-05-03T15:50:45.483Z</time></trkpt><trkpt lat="39.47445" lon="16.21672"><ele>93.0</ele><time>2026-05-03T15:50:46.483Z</time></trkpt><trkpt lat="39.474125" lon="16.21686"><ele>93.0</ele><time>2026-05-03T15:50:47.483Z</time></trkpt><trkpt lat="39.4738" lon="16.217"><ele>93.0</ele><time>2026-05-03T15:50:48.482Z</time></trkpt><trkpt lat="39.473475" lon="16.2171383"><ele>93.0</ele><time>2026-05-03T15:50:49.482Z</time></trkpt><trkpt lat="39.4731483" lon="16.2172733"><ele>93.0</ele><time>2026-05-03T15:50:50.483Z</time></trkpt><trkpt lat="39.4728167" lon="16.2174083"><ele>93.0</ele><time>2026-05-03T15:50:51.483Z</time></trkpt><trkpt lat="39.472485" lon="16.2175483"><ele>93.0</ele><time>2026-05-03T15:50:52.483Z</time></trkpt><trkpt lat="39.47215" lon="16.21769"><ele>93.0</ele><time>2026-05-03T15:50:53.484Z</time></trkpt><trkpt lat="39.47181" lon="16.2178317"><ele>93.0</ele><time>2026-05-03T15:50:54.484Z</time></trkpt><trkpt lat="39.47147" lon="16.2179783"><ele>93.0</ele><time>2026-05-03T15:50:55.482Z</time></trkpt><trkpt lat="39.4711317" lon="16.2181283"><ele>95.0</ele><time>2026-05-03T15:50:56.484Z</time></trkpt><trkpt lat="39.4707933" lon="16.2182783"><ele>97.0</ele><time>2026-05-03T15:50:57.483Z</time></trkpt><trkpt lat="39.4704517" lon="16.2184267"><ele>96.5</ele><time>2026-05-03T15:50:58.482Z</time></trkpt><trkpt lat="39.47011" lon="16.2185733"><ele>96.0</ele><time>2026-05-03T15:50:59.484Z</time></trkpt><trkpt lat="39.4697667" lon="16.2187167"><ele>96.0</ele><time>2026-05-03T15:51:00.486Z</time></trkpt><trkpt lat="39.46942" lon="16.2188583"><ele>96.0</ele><time>2026-05-03T15:51:01.482Z</time></trkpt><trkpt lat="39.4690733" lon="16.2190033"><ele>96.5</ele><time>2026-05-03T15:51:02.482Z</time></trkpt><trkpt lat="39.4687233" lon="16.21915"><ele>97.0</ele><time>2026-05-03T15:51:03.481Z</time></trkpt><trkpt lat="39.468375" lon="16.2193"><ele>97.0</ele><time>2026-05-03T15:51:04.481Z</time></trkpt><trkpt lat="39.4680283" lon="16.2194517"><ele>97.0</ele><time>2026-05-03T15:51:05.482Z</time></trkpt><trkpt lat="39.4676867" lon="16.2196033"><ele>97.0</ele><time>2026-05-03T15:51:06.481Z</time></trkpt><trkpt lat="39.4673483" lon="16.219755"><ele>97.0</ele><time>2026-05-03T15:51:07.481Z</time></trkpt><trkpt lat="39.46701" lon="16.219905"><ele>97.0</ele><time>2026-05-03T15:51:08.482Z</time></trkpt><trkpt lat="39.4666717" lon="16.22006"><ele>97.0</ele><time>2026-05-03T15:51:09.482Z</time></trkpt><trkpt lat="39.4663333" lon="16.2202183"><ele>97.5</ele><time>2026-05-03T15:51:10.481Z</time></trkpt><trkpt lat="39.4659933" lon="16.2203867"><ele>98.0</ele><time>2026-05-03T15:51:11.481Z</time></trkpt><trkpt lat="39.4656517" lon="16.22057"><ele>99.0</ele><time>2026-05-03T15:51:12.482Z</time></trkpt><trkpt lat="39.4653133" lon="16.2207683"><ele>100.0</ele><time>2026-05-03T15:51:13.481Z</time></trkpt><trkpt lat="39.4649783" lon="16.2209783"><ele>100.0</ele><time>2026-05-03T15:51:14.481Z</time></trkpt><trkpt lat="39.4646483" lon="16.221195"><ele>100.0</ele><time>2026-05-03T15:51:15.482Z</time></trkpt><trkpt lat="39.4643267" lon="16.22142"><ele>99.0</ele><time>2026-05-03T15:51:16.482Z</time></trkpt><trkpt lat="39.46401" lon="16.22165"><ele>98.0</ele><time>2026-05-03T15:51:17.481Z</time></trkpt><trkpt lat="39.4637017" lon="16.2218867"><ele>98.0</ele><time>2026-05-03T15:51:18.481Z</time></trkpt><trkpt lat="39.4634017" lon="16.2221233"><ele>98.0</ele><time>2026-05-03T15:51:19.482Z</time></trkpt><trkpt lat="39.46312" lon="16.22236"><ele>98.5</ele><time>2026-05-03T15:51:20.483Z</time></trkpt><trkpt lat="39.4628533" lon="16.2226017"><ele>99.0</ele><time>2026-05-03T15:51:21.482Z</time></trkpt><trkpt lat="39.46259" lon="16.2228483"><ele>99.0</ele><time>2026-05-03T15:51:22.482Z</time></trkpt><trkpt lat="39.4623317" lon="16.2231017"><ele>99.0</ele><time>2026-05-03T15:51:23.482Z</time></trkpt><trkpt lat="39.4620733" lon="16.2233633"><ele>99.5</ele><time>2026-05-03T15:51:24.481Z</time></trkpt><trkpt lat="39.4618133" lon="16.2236317"><ele>100.0</ele><time>2026-05-03T15:51:25.482Z</time></trkpt><trkpt lat="39.46156" lon="16.2239083"><ele>100.0</ele><time>2026-05-03T15:51:26.483Z</time></trkpt><trkpt lat="39.46131" lon="16.224195"><ele>100.0</ele><time>2026-05-03T15:51:27.481Z</time></trkpt><trkpt lat="39.4610633" lon="16.2244917"><ele>100.0</ele><time>2026-05-03T15:51:28.481Z</time></trkpt><trkpt lat="39.4608167" lon="16.2247967"><ele>100.0</ele><time>2026-05-03T15:51:29.48Z</time></trkpt><trkpt lat="39.4605733" lon="16.2251133"><ele>100.0</ele><time>2026-05-03T15:51:30.48Z</time></trkpt><trkpt lat="39.4603333" lon="16.2254367"><ele>100.0</ele><time>2026-05-03T15:51:31.482Z</time></trkpt><trkpt lat="39.4600933" lon="16.2257683"><ele>100.0</ele><time>2026-05-03T15:51:32.482Z</time></trkpt><trkpt lat="39.4598517" lon="16.2261067"><ele>100.0</ele><time>2026-05-03T15:51:33.48Z</time></trkpt><trkpt lat="39.4596083" lon="16.226455"><ele>101.5</ele><time>2026-05-03T15:51:34.481Z</time></trkpt><trkpt lat="39.4593633" lon="16.2268117"><ele>103.0</ele><time>2026-05-03T15:51:35.481Z</time></trkpt><trkpt lat="39.4591133" lon="16.2271717"><ele>103.5</ele><time>2026-05-03T15:51:36.48Z</time></trkpt><trkpt lat="39.45886" lon="16.227535"><ele>104.0</ele><time>2026-05-03T15:51:37.481Z</time></trkpt><trkpt lat="39.4586017" lon="16.2279"><ele>103.0</ele><time>2026-05-03T15:51:38.482Z</time></trkpt><trkpt lat="39.458345" lon="16.2282717"><ele>102.0</ele><time>2026-05-03T15:51:39.48Z</time></trkpt><trkpt lat="39.4580867" lon="16.2286433"><ele>102.5</ele><time>2026-05-03T15:51:40.482Z</time></trkpt><trkpt lat="39.4578267" lon="16.2290183"><ele>103.0</ele><time>2026-05-03T15:51:41.482Z</time></trkpt><trkpt lat="39.457565" lon="16.2293983"><ele>103.0</ele><time>2026-05-03T15:51:42.482Z</time></trkpt><trkpt lat="39.457305" lon="16.229775"><ele>103.0</ele><time>2026-05-03T15:51:43.484Z</time></trkpt><trkpt lat="39.45704" lon="16.230155"><ele>103.0</ele><time>2026-05-03T15:51:44.481Z</time></trkpt><trkpt lat="39.456775" lon="16.2305333"><ele>103.0</ele><time>2026-05-03T15:51:45.481Z</time></trkpt><trkpt lat="39.4565117" lon="16.2309167"><ele>102.5</ele><time>2026-05-03T15:51:46.481Z</time></trkpt><trkpt lat="39.4562417" lon="16.2312967"><ele>102.0</ele><time>2026-05-03T15:51:47.482Z</time></trkpt><trkpt lat="39.45599" lon="16.2316717"><ele>103.0</ele><time>2026-05-03T15:51:48.48Z</time></trkpt><trkpt lat="39.455715" lon="16.2320533"><ele>104.0</ele><time>2026-05-03T15:51:49.481Z</time></trkpt><trkpt lat="39.455445" lon="16.2324367"><ele>104.0</ele><time>2026-05-03T15:51:50.481Z</time></trkpt><trkpt lat="39.4551867" lon="16.232815"><ele>104.0</ele><time>2026-05-03T15:51:51.481Z</time></trkpt><trkpt lat="39.4549183" lon="16.23319"><ele>104.0</ele><time>2026-05-03T15:51:52.481Z</time></trkpt><trkpt lat="39.4546583" lon="16.2335533"><ele>104.0</ele><time>2026-05-03T15:51:53.481Z</time></trkpt><trkpt lat="39.454395" lon="16.233905"><ele>104.0</ele><time>2026-05-03T15:51:54.481Z</time></trkpt><trkpt lat="39.4541233" lon="16.2342417"><ele>104.0</ele><time>2026-05-03T15:51:55.482Z</time></trkpt><trkpt lat="39.45384" lon="16.2345633"><ele>104.0</ele><time>2026-05-03T15:51:56.481Z</time></trkpt><trkpt lat="39.4535467" lon="16.2348683"><ele>104.0</ele><time>2026-05-03T15:51:57.48Z</time></trkpt><trkpt lat="39.453245" lon="16.2351633"><ele>105.0</ele><time>2026-05-03T15:51:58.481Z</time></trkpt><trkpt lat="39.4529367" lon="16.23545"><ele>106.0</ele><time>2026-05-03T15:51:59.48Z</time></trkpt><trkpt lat="39.4526183" lon="16.235725"><ele>106.0</ele><time>2026-05-03T15:52:00.481Z</time></trkpt><trkpt lat="39.4522933" lon="16.235985"><ele>106.0</ele><time>2026-05-03T15:52:01.48Z</time></trkpt><trkpt lat="39.451965" lon="16.2362267"><ele>106.5</ele><time>2026-05-03T15:52:02.483Z</time></trkpt><trkpt lat="39.4516383" lon="16.2364467"><ele>107.0</ele><time>2026-05-03T15:52:03.481Z</time></trkpt><trkpt lat="39.4513083" lon="16.23665"><ele>109.5</ele><time>2026-05-03T15:52:04.481Z</time></trkpt><trkpt lat="39.450975" lon="16.236835"><ele>112.0</ele><time>2026-05-03T15:52:05.481Z</time></trkpt><trkpt lat="39.450635" lon="16.2370017"><ele>111.5</ele><time>2026-05-03T15:52:06.481Z</time></trkpt><trkpt lat="39.45029" lon="16.237155"><ele>111.0</ele><time>2026-05-03T15:52:07.481Z</time></trkpt><trkpt lat="39.4499367" lon="16.2372933"><ele>111.5</ele><time>2026-05-03T15:52:08.481Z</time></trkpt><trkpt lat="39.44958" lon="16.2374183"><ele>112.0</ele><time>2026-05-03T15:52:09.481Z</time></trkpt><trkpt lat="39.44922" lon="16.2375267"><ele>112.0</ele><time>2026-05-03T15:52:10.481Z</time></trkpt><trkpt lat="39.448855" lon="16.23762"><ele>112.0</ele><time>2026-05-03T15:52:11.482Z</time></trkpt><trkpt lat="39.4484833" lon="16.2376983"><ele>113.0</ele><time>2026-05-03T15:52:12.481Z</time></trkpt><trkpt lat="39.44811" lon="16.2377633"><ele>114.0</ele><time>2026-05-03T15:52:13.481Z</time></trkpt><trkpt lat="39.4477333" lon="16.2378117"><ele>116.5</ele><time>2026-05-03T15:52:14.482Z</time></trkpt><trkpt lat="39.4473533" lon="16.2378383"><ele>119.0</ele><time>2026-05-03T15:52:15.481Z</time></trkpt><trkpt lat="39.4469767" lon="16.2378517"><ele>120.5</ele><time>2026-05-03T15:52:16.484Z</time></trkpt><trkpt lat="39.446605" lon="16.23785"><ele>122.0</ele><time>2026-05-03T15:52:17.481Z</time></trkpt><trkpt lat="39.4462417" lon="16.23784"><ele>122.5</ele><time>2026-05-03T15:52:18.48Z</time></trkpt><trkpt lat="39.4458883" lon="16.23782"><ele>123.0</ele><time>2026-05-03T15:52:19.482Z</time></trkpt><trkpt lat="39.4455383" lon="16.237795"><ele>123.5</ele><time>2026-05-03T15:52:20.482Z</time></trkpt><trkpt lat="39.4451917" lon="16.2377683"><ele>124.0</ele><time>2026-05-03T15:52:21.481Z</time></trkpt><trkpt lat="39.4448483" lon="16.2377483"><ele>123.5</ele><time>2026-05-03T15:52:22.482Z</time></trkpt><trkpt lat="39.444505" lon="16.23773"><ele>123.0</ele><time>2026-05-03T15:52:23.483Z</time></trkpt><trkpt lat="39.4441583" lon="16.23772"><ele>123.0</ele><time>2026-05-03T15:52:24.481Z</time></trkpt><trkpt lat="39.4438117" lon="16.237725"><ele>123.0</ele><time>2026-05-03T15:52:25.481Z</time></trkpt><trkpt lat="39.44347" lon="16.2377417"><ele>124.0</ele><time>2026-05-03T15:52:26.482Z</time></trkpt><trkpt lat="39.443125" lon="16.237775"><ele>125.0</ele><time>2026-05-03T15:52:27.481Z</time></trkpt><trkpt lat="39.4427783" lon="16.23783"><ele>123.0</ele><time>2026-05-03T15:52:28.482Z</time></trkpt><trkpt lat="39.4424317" lon="16.2379067"><ele>121.0</ele><time>2026-05-03T15:52:29.48Z</time></trkpt><trkpt lat="39.442085" lon="16.238"><ele>120.5</ele><time>2026-05-03T15:52:30.481Z</time></trkpt><trkpt lat="39.4417417" lon="16.2381083"><ele>120.0</ele><time>2026-05-03T15:52:31.481Z</time></trkpt><trkpt lat="39.4413983" lon="16.2382283"><ele>119.5</ele><time>2026-05-03T15:52:32.482Z</time></trkpt><trkpt lat="39.441055" lon="16.2383683"><ele>119.0</ele><time>2026-05-03T15:52:33.481Z</time></trkpt><trkpt lat="39.4407117" lon="16.2385217"><ele>119.0</ele><time>2026-05-03T15:52:34.481Z</time></trkpt><trkpt lat="39.44037" lon="16.238685"><ele>119.0</ele><time>2026-05-03T15:52:35.481Z</time></trkpt><trkpt lat="39.44003" lon="16.2388533"><ele>118.5</ele><time>2026-05-03T15:52:36.481Z</time></trkpt><trkpt lat="39.4396883" lon="16.2390217"><ele>118.0</ele><time>2026-05-03T15:52:37.481Z</time></trkpt><trkpt lat="39.4393483" lon="16.2391917"><ele>120.5</ele><time>2026-05-03T15:52:38.482Z</time></trkpt><trkpt lat="39.4390083" lon="16.2393583"><ele>123.0</ele><time>2026-05-03T15:52:39.482Z</time></trkpt><trkpt lat="39.43867" lon="16.2395283"><ele>124.5</ele><time>2026-05-03T15:52:40.481Z</time></trkpt><trkpt lat="39.43833" lon="16.2396967"><ele>126.0</ele><time>2026-05-03T15:52:41.481Z</time></trkpt><trkpt lat="39.4379883" lon="16.2398617"><ele>126.0</ele><time>2026-05-03T15:52:42.482Z</time></trkpt><trkpt lat="39.437655" lon="16.2400233"><ele>126.0</ele><time>2026-05-03T15:52:43.481Z</time></trkpt><trkpt lat="39.4373283" lon="16.24018"><ele>126.5</ele><time>2026-05-03T15:52:44.482Z</time></trkpt><trkpt lat="39.437005" lon="16.240325"><ele>127.0</ele><time>2026-05-03T15:52:45.481Z</time></trkpt><trkpt lat="39.4366783" lon="16.240455"><ele>127.0</ele><time>2026-05-03T15:52:46.481Z</time></trkpt><trkpt lat="39.4363483" lon="16.2405683"><ele>127.0</ele><time>2026-05-03T15:52:47.482Z</time></trkpt><trkpt lat="39.4360167" lon="16.2406633"><ele>127.0</ele><time>2026-05-03T15:52:48.48Z</time></trkpt><trkpt lat="39.4356883" lon="16.2407467"><ele>127.0</ele><time>2026-05-03T15:52:49.482Z</time></trkpt><trkpt lat="39.4353583" lon="16.24081"><ele>127.0</ele><time>2026-05-03T15:52:50.483Z</time></trkpt><trkpt lat="39.43502" lon="16.2408533"><ele>127.0</ele><time>2026-05-03T15:52:51.484Z</time></trkpt><trkpt lat="39.43468" lon="16.2408717"><ele>128.0</ele><time>2026-05-03T15:52:52.482Z</time></trkpt><trkpt lat="39.4343467" lon="16.24089"><ele>129.0</ele><time>2026-05-03T15:52:53.481Z</time></trkpt><trkpt lat="39.4340083" lon="16.2409117"><ele>129.5</ele><time>2026-05-03T15:52:54.482Z</time></trkpt><trkpt lat="39.4336633" lon="16.2409183"><ele>130.0</ele><time>2026-05-03T15:52:55.481Z</time></trkpt><trkpt lat="39.4333183" lon="16.240925"><ele>130.0</ele><time>2026-05-03T15:52:56.482Z</time></trkpt><trkpt lat="39.432975" lon="16.2409317"><ele>130.0</ele><time>2026-05-03T15:52:57.481Z</time></trkpt><trkpt lat="39.43263" lon="16.2409317"><ele>131.0</ele><time>2026-05-03T15:52:58.481Z</time></trkpt><trkpt lat="39.432285" lon="16.2409383"><ele>132.0</ele><time>2026-05-03T15:52:59.481Z</time></trkpt><trkpt lat="39.4319417" lon="16.2409417"><ele>132.0</ele><time>2026-05-03T15:53:00.481Z</time></trkpt><trkpt lat="39.431595" lon="16.2409467"><ele>132.0</ele><time>2026-05-03T15:53:01.481Z</time></trkpt><trkpt lat="39.4312483" lon="16.2409517"><ele>132.5</ele><time>2026-05-03T15:53:02.481Z</time></trkpt><trkpt lat="39.430905" lon="16.24096"><ele>133.0</ele><time>2026-05-03T15:53:03.48Z</time></trkpt><trkpt lat="39.4305617" lon="16.2409667"><ele>133.5</ele><time>2026-05-03T15:53:04.482Z</time></trkpt><trkpt lat="39.430215" lon="16.2409817"><ele>134.0</ele><time>2026-05-03T15:53:05.48Z</time></trkpt><trkpt lat="39.4298667" lon="16.241005"><ele>134.5</ele><time>2026-05-03T15:53:06.481Z</time></trkpt><trkpt lat="39.429515" lon="16.24104"><ele>135.0</ele><time>2026-05-03T15:53:07.481Z</time></trkpt><trkpt lat="39.42916" lon="16.241085"><ele>138.0</ele><time>2026-05-03T15:53:08.482Z</time></trkpt><trkpt lat="39.4288067" lon="16.2411417"><ele>141.0</ele><time>2026-05-03T15:53:09.481Z</time></trkpt><trkpt lat="39.4284517" lon="16.2412"><ele>141.0</ele><time>2026-05-03T15:53:10.482Z</time></trkpt><trkpt lat="39.4281" lon="16.241265"><ele>141.0</ele><time>2026-05-03T15:53:11.48Z</time></trkpt><trkpt lat="39.4277483" lon="16.2413283"><ele>141.0</ele><time>2026-05-03T15:53:12.481Z</time></trkpt><trkpt lat="39.4274017" lon="16.2413983"><ele>141.0</ele><time>2026-05-03T15:53:13.482Z</time></trkpt><trkpt lat="39.4270567" lon="16.2414633"><ele>140.5</ele><time>2026-05-03T15:53:14.482Z</time></trkpt><trkpt lat="39.4267117" lon="16.24153"><ele>140.0</ele><time>2026-05-03T15:53:15.481Z</time></trkpt><trkpt lat="39.426365" lon="16.24159"><ele>140.0</ele><time>2026-05-03T15:53:16.482Z</time></trkpt><trkpt lat="39.4260233" lon="16.2416567"><ele>140.0</ele><time>2026-05-03T15:53:17.482Z</time></trkpt><trkpt lat="39.4256817" lon="16.2417217"><ele>140.5</ele><time>2026-05-03T15:53:18.481Z</time></trkpt><trkpt lat="39.425355" lon="16.2417917"><ele>141.0</ele><time>2026-05-03T15:53:19.481Z</time></trkpt><trkpt lat="39.42501" lon="16.241825"><ele>141.0</ele><time>2026-05-03T15:53:20.481Z</time></trkpt><trkpt lat="39.4246833" lon="16.241895"><ele>141.0</ele><time>2026-05-03T15:53:21.481Z</time></trkpt><trkpt lat="39.4243717" lon="16.24196"><ele>141.5</ele><time>2026-05-03T15:53:22.481Z</time></trkpt><trkpt lat="39.4240617" lon="16.24202"><ele>142.0</ele><time>2026-05-03T15:53:23.482Z</time></trkpt><trkpt lat="39.4237567" lon="16.24208"><ele>142.0</ele><time>2026-05-03T15:53:24.482Z</time></trkpt><trkpt lat="39.4234583" lon="16.2421383"><ele>142.0</ele><time>2026-05-03T15:53:25.48Z</time></trkpt><trkpt lat="39.4231717" lon="16.242195"><ele>142.0</ele><time>2026-05-03T15:53:26.482Z</time></trkpt><trkpt lat="39.42288" lon="16.2422567"><ele>142.0</ele><time>2026-05-03T15:53:27.484Z</time></trkpt><trkpt lat="39.4225817" lon="16.24232"><ele>142.0</ele><time>2026-05-03T15:53:28.481Z</time></trkpt><trkpt lat="39.4222883" lon="16.24238"><ele>142.0</ele><time>2026-05-03T15:53:29.482Z</time></trkpt><trkpt lat="39.421995" lon="16.242435"><ele>142.5</ele><time>2026-05-03T15:53:30.482Z</time></trkpt><trkpt lat="39.4217033" lon="16.24249"><ele>143.0</ele><time>2026-05-03T15:53:31.482Z</time></trkpt><trkpt lat="39.4214167" lon="16.2425433"><ele>143.0</ele><time>2026-05-03T15:53:32.482Z</time></trkpt><trkpt lat="39.4211367" lon="16.2425983"><ele>143.0</ele><time>2026-05-03T15:53:33.482Z</time></trkpt><trkpt lat="39.4208583" lon="16.2426533"><ele>143.0</ele><time>2026-05-03T15:53:34.482Z</time></trkpt><trkpt lat="39.42058" lon="16.2427083"><ele>143.0</ele><time>2026-05-03T15:53:35.482Z</time></trkpt><trkpt lat="39.4203" lon="16.24277"><ele>143.5</ele><time>2026-05-03T15:53:36.481Z</time></trkpt><trkpt lat="39.4200217" lon="16.242835"><ele>144.0</ele><time>2026-05-03T15:53:37.482Z</time></trkpt><trkpt lat="39.4197433" lon="16.242905"><ele>143.5</ele><time>2026-05-03T15:53:38.482Z</time></trkpt><trkpt lat="39.419465" lon="16.2429767"><ele>143.0</ele><time>2026-05-03T15:53:39.481Z</time></trkpt><trkpt lat="39.4191867" lon="16.2430517"><ele>142.5</ele><time>2026-05-03T15:53:40.481Z</time></trkpt><trkpt lat="39.41891" lon="16.2431317"><ele>142.0</ele><time>2026-05-03T15:53:41.482Z</time></trkpt><trkpt lat="39.4186367" lon="16.2432217"><ele>142.0</ele><time>2026-05-03T15:53:42.481Z</time></trkpt><trkpt lat="39.418365" lon="16.2433117"><ele>142.0</ele><time>2026-05-03T15:53:43.482Z</time></trkpt><trkpt lat="39.41809" lon="16.2434067"><ele>142.0</ele><time>2026-05-03T15:53:44.481Z</time></trkpt><trkpt lat="39.4178117" lon="16.2435"><ele>142.0</ele><time>2026-05-03T15:53:45.481Z</time></trkpt><trkpt lat="39.417535" lon="16.2435967"><ele>142.0</ele><time>2026-05-03T15:53:46.481Z</time></trkpt><trkpt lat="39.4172583" lon="16.2436933"><ele>142.0</ele><time>2026-05-03T15:53:47.482Z</time></trkpt><trkpt lat="39.416985" lon="16.243795"><ele>139.0</ele><time>2026-05-03T15:53:48.482Z</time></trkpt><trkpt lat="39.4167117" lon="16.2438967"><ele>136.0</ele><time>2026-05-03T15:53:49.483Z</time></trkpt><trkpt lat="39.41644" lon="16.2439983"><ele>133.5</ele><time>2026-05-03T15:53:50.482Z</time></trkpt><trkpt lat="39.416165" lon="16.2440967"><ele>131.0</ele><time>2026-05-03T15:53:51.482Z</time></trkpt><trkpt lat="39.41589" lon="16.2441967"><ele>131.0</ele><time>2026-05-03T15:53:52.481Z</time></trkpt><trkpt lat="39.4156167" lon="16.24429"><ele>131.0</ele><time>2026-05-03T15:53:53.481Z</time></trkpt><trkpt lat="39.415345" lon="16.244375"><ele>133.5</ele><time>2026-05-03T15:53:54.481Z</time></trkpt><trkpt lat="39.415075" lon="16.2444567"><ele>136.0</ele><time>2026-05-03T15:53:55.481Z</time></trkpt><trkpt lat="39.4148083" lon="16.2445317"><ele>141.0</ele><time>2026-05-03T15:53:56.482Z</time></trkpt><trkpt lat="39.4145417" lon="16.2446"><ele>146.0</ele><time>2026-05-03T15:53:57.481Z</time></trkpt><trkpt lat="39.4142733" lon="16.24466"><ele>146.0</ele><time>2026-05-03T15:53:58.481Z</time></trkpt><trkpt lat="39.414005" lon="16.2447083"><ele>146.0</ele><time>2026-05-03T15:53:59.48Z</time></trkpt><trkpt lat="39.4137333" lon="16.2447467"><ele>146.0</ele><time>2026-05-03T15:54:00.482Z</time></trkpt><trkpt lat="39.41346" lon="16.2447767"><ele>146.0</ele><time>2026-05-03T15:54:01.482Z</time></trkpt><trkpt lat="39.413185" lon="16.2448017"><ele>144.0</ele><time>2026-05-03T15:54:02.482Z</time></trkpt><trkpt lat="39.4129067" lon="16.24482"><ele>142.0</ele><time>2026-05-03T15:54:03.482Z</time></trkpt><trkpt lat="39.4126283" lon="16.2448317"><ele>142.0</ele><time>2026-05-03T15:54:04.481Z</time></trkpt><trkpt lat="39.4123433" lon="16.24483"><ele>142.0</ele><time>2026-05-03T15:54:05.484Z</time></trkpt><trkpt lat="39.4120517" lon="16.2448183"><ele>143.0</ele><time>2026-05-03T15:54:06.481Z</time></trkpt><trkpt lat="39.4117633" lon="16.244805"><ele>144.0</ele><time>2026-05-03T15:54:07.481Z</time></trkpt><trkpt lat="39.4114683" lon="16.2447817"><ele>145.5</ele><time>2026-05-03T15:54:08.482Z</time></trkpt><trkpt lat="39.4111733" lon="16.2447517"><ele>147.0</ele><time>2026-05-03T15:54:09.482Z</time></trkpt><trkpt lat="39.4108817" lon="16.2447217"><ele>147.0</ele><time>2026-05-03T15:54:10.481Z</time></trkpt><trkpt lat="39.4105917" lon="16.2446867"><ele>147.0</ele><time>2026-05-03T15:54:11.48Z</time></trkpt><trkpt lat="39.4103033" lon="16.2446533"><ele>147.5</ele><time>2026-05-03T15:54:12.482Z</time></trkpt><trkpt lat="39.410015" lon="16.2446167"><ele>148.0</ele><time>2026-05-03T15:54:13.482Z</time></trkpt><trkpt lat="39.4097233" lon="16.244575"><ele>148.5</ele><time>2026-05-03T15:54:14.481Z</time></trkpt><trkpt lat="39.4094333" lon="16.2445367"><ele>149.0</ele><time>2026-05-03T15:54:15.481Z</time></trkpt><trkpt lat="39.4091417" lon="16.2445017"><ele>149.0</ele><time>2026-05-03T15:54:16.482Z</time></trkpt><trkpt lat="39.4088483" lon="16.244465"><ele>149.0</ele><time>2026-05-03T15:54:17.481Z</time></trkpt><trkpt lat="39.4085533" lon="16.2444317"><ele>149.5</ele><time>2026-05-03T15:54:18.482Z</time></trkpt><trkpt lat="39.40826" lon="16.244395"><ele>150.0</ele><time>2026-05-03T15:54:19.481Z</time></trkpt><trkpt lat="39.4079683" lon="16.2443567"><ele>149.0</ele><time>2026-05-03T15:54:20.482Z</time></trkpt><trkpt lat="39.4076767" lon="16.2443167"><ele>148.0</ele><time>2026-05-03T15:54:21.481Z</time></trkpt><trkpt lat="39.407385" lon="16.2442783"><ele>149.5</ele><time>2026-05-03T15:54:22.481Z</time></trkpt><trkpt lat="39.40709" lon="16.24424"><ele>151.0</ele><time>2026-05-03T15:54:23.482Z</time></trkpt><trkpt lat="39.4067933" lon="16.244205"><ele>151.0</ele><time>2026-05-03T15:54:24.481Z</time></trkpt><trkpt lat="39.4064933" lon="16.24417"><ele>151.0</ele><time>2026-05-03T15:54:25.482Z</time></trkpt><trkpt lat="39.4061917" lon="16.244135"><ele>151.0</ele><time>2026-05-03T15:54:26.481Z</time></trkpt><trkpt lat="39.4058867" lon="16.2441017"><ele>151.0</ele><time>2026-05-03T15:54:27.482Z</time></trkpt><trkpt lat="39.4055817" lon="16.2440683"><ele>150.5</ele><time>2026-05-03T15:54:28.482Z</time></trkpt><trkpt lat="39.40527" lon="16.2440267"><ele>150.0</ele><time>2026-05-03T15:54:29.481Z</time></trkpt><trkpt lat="39.404955" lon="16.2439833"><ele>151.0</ele><time>2026-05-03T15:54:30.482Z</time></trkpt><trkpt lat="39.404635" lon="16.24394"><ele>152.0</ele><time>2026-05-03T15:54:31.482Z</time></trkpt><trkpt lat="39.4043117" lon="16.243895"><ele>152.0</ele><time>2026-05-03T15:54:32.482Z</time></trkpt><trkpt lat="39.4039817" lon="16.243855"><ele>152.0</ele><time>2026-05-03T15:54:33.481Z</time></trkpt><trkpt lat="39.4036483" lon="16.2438133"><ele>150.0</ele><time>2026-05-03T15:54:34.481Z</time></trkpt><trkpt lat="39.4033117" lon="16.2437733"><ele>148.0</ele><time>2026-05-03T15:54:35.482Z</time></trkpt><trkpt lat="39.40297" lon="16.2437333"><ele>146.0</ele><time>2026-05-03T15:54:36.481Z</time></trkpt><trkpt lat="39.402625" lon="16.2436933"><ele>144.0</ele><time>2026-05-03T15:54:37.482Z</time></trkpt><trkpt lat="39.4022767" lon="16.24365"><ele>143.5</ele><time>2026-05-03T15:54:38.482Z</time></trkpt><trkpt lat="39.4019233" lon="16.2436033"><ele>143.0</ele><time>2026-05-03T15:54:39.48Z</time></trkpt><trkpt lat="39.4015667" lon="16.243555"><ele>144.0</ele><time>2026-05-03T15:54:40.481Z</time></trkpt><trkpt lat="39.4012083" lon="16.2435067"><ele>145.0</ele><time>2026-05-03T15:54:41.482Z</time></trkpt><trkpt lat="39.4008483" lon="16.2434617"><ele>144.5</ele><time>2026-05-03T15:54:42.482Z</time></trkpt><trkpt lat="39.4004883" lon="16.24342"><ele>144.0</ele><time>2026-05-03T15:54:43.482Z</time></trkpt><trkpt lat="39.4001267" lon="16.2433817"><ele>144.0</ele><time>2026-05-03T15:54:44.482Z</time></trkpt><trkpt lat="39.399765" lon="16.24334"><ele>144.0</ele><time>2026-05-03T15:54:45.48Z</time></trkpt><trkpt lat="39.3994017" lon="16.2432917"><ele>144.0</ele><time>2026-05-03T15:54:46.481Z</time></trkpt><trkpt lat="39.3990383" lon="16.2432433"><ele>144.0</ele><time>2026-05-03T15:54:47.482Z</time></trkpt><trkpt lat="39.398675" lon="16.2431933"><ele>144.5</ele><time>2026-05-03T15:54:48.48Z</time></trkpt><trkpt lat="39.3983117" lon="16.243145"><ele>145.0</ele><time>2026-05-03T15:54:49.482Z</time></trkpt><trkpt lat="39.3979467" lon="16.2430967"><ele>145.5</ele><time>2026-05-03T15:54:50.481Z</time></trkpt><trkpt lat="39.39758" lon="16.2430483"><ele>146.0</ele><time>2026-05-03T15:54:51.481Z</time></trkpt><trkpt lat="39.3972133" lon="16.243"><ele>147.0</ele><time>2026-05-03T15:54:52.482Z</time></trkpt><trkpt lat="39.3968483" lon="16.2429483"><ele>148.0</ele><time>2026-05-03T15:54:53.481Z</time></trkpt><trkpt lat="39.3964833" lon="16.2429017"><ele>150.0</ele><time>2026-05-03T15:54:54.482Z</time></trkpt><trkpt lat="39.39612" lon="16.2428533"><ele>152.0</ele><time>2026-05-03T15:54:55.482Z</time></trkpt><trkpt lat="39.3957567" lon="16.24281"><ele>154.0</ele><time>2026-05-03T15:54:56.482Z</time></trkpt><trkpt lat="39.3953967" lon="16.24277"><ele>156.0</ele><time>2026-05-03T15:54:57.48Z</time></trkpt><trkpt lat="39.3950417" lon="16.2427283"><ele>156.0</ele><time>2026-05-03T15:54:58.481Z</time></trkpt><trkpt lat="39.3946883" lon="16.2426817"><ele>156.0</ele><time>2026-05-03T15:54:59.482Z</time></trkpt><trkpt lat="39.39434" lon="16.2426317"><ele>156.5</ele><time>2026-05-03T15:55:00.483Z</time></trkpt><trkpt lat="39.3939933" lon="16.2425733"><ele>157.0</ele><time>2026-05-03T15:55:01.481Z</time></trkpt><trkpt lat="39.3936483" lon="16.24251"><ele>158.5</ele><time>2026-05-03T15:55:02.482Z</time></trkpt><trkpt lat="39.3933067" lon="16.24244"><ele>160.0</ele><time>2026-05-03T15:55:03.481Z</time></trkpt><trkpt lat="39.392965" lon="16.2423583"><ele>162.0</ele><time>2026-05-03T15:55:04.482Z</time></trkpt><trkpt lat="39.39263" lon="16.2422617"><ele>164.0</ele><time>2026-05-03T15:55:05.481Z</time></trkpt><trkpt lat="39.3923" lon="16.2421467"><ele>164.0</ele><time>2026-05-03T15:55:06.481Z</time></trkpt><trkpt lat="39.391975" lon="16.2420167"><ele>164.0</ele><time>2026-05-03T15:55:07.483Z</time></trkpt><trkpt lat="39.3916567" lon="16.2418733"><ele>164.0</ele><time>2026-05-03T15:55:08.487Z</time></trkpt><trkpt lat="39.391345" lon="16.2417133"><ele>164.0</ele><time>2026-05-03T15:55:09.482Z</time></trkpt><trkpt lat="39.3910367" lon="16.2415383"><ele>165.0</ele><time>2026-05-03T15:55:10.482Z</time></trkpt><trkpt lat="39.3907333" lon="16.2413467"><ele>166.0</ele><time>2026-05-03T15:55:11.481Z</time></trkpt><trkpt lat="39.3904317" lon="16.24114"><ele>166.0</ele><time>2026-05-03T15:55:12.482Z</time></trkpt><trkpt lat="39.390135" lon="16.240915"><ele>166.0</ele><time>2026-05-03T15:55:13.482Z</time></trkpt><trkpt lat="39.38984" lon="16.240675"><ele>165.5</ele><time>2026-05-03T15:55:14.482Z</time></trkpt><trkpt lat="39.3895517" lon="16.2404267"><ele>165.0</ele><time>2026-05-03T15:55:15.481Z</time></trkpt><trkpt lat="39.38927" lon="16.24017"><ele>165.0</ele><time>2026-05-03T15:55:16.482Z</time></trkpt><trkpt lat="39.388995" lon="16.2399117"><ele>165.0</ele><time>2026-05-03T15:55:17.481Z</time></trkpt><trkpt lat="39.388725" lon="16.23965"><ele>164.0</ele><time>2026-05-03T15:55:18.482Z</time></trkpt><trkpt lat="39.38846" lon="16.23939"><ele>163.0</ele><time>2026-05-03T15:55:19.482Z</time></trkpt><trkpt lat="39.3881983" lon="16.2391367"><ele>161.5</ele><time>2026-05-03T15:55:20.482Z</time></trkpt><trkpt lat="39.38794" lon="16.2388917"><ele>160.0</ele><time>2026-05-03T15:55:21.483Z</time></trkpt><trkpt lat="39.3876817" lon="16.2386517"><ele>160.0</ele><time>2026-05-03T15:55:22.482Z</time></trkpt><trkpt lat="39.3874217" lon="16.238415"><ele>160.0</ele><time>2026-05-03T15:55:23.482Z</time></trkpt><trkpt lat="39.38716" lon="16.2381867"><ele>162.5</ele><time>2026-05-03T15:55:24.482Z</time></trkpt><trkpt lat="39.3868967" lon="16.2379667"><ele>165.0</ele><time>2026-05-03T15:55:25.481Z</time></trkpt><trkpt lat="39.3866267" lon="16.2377583"><ele>165.0</ele><time>2026-05-03T15:55:26.482Z</time></trkpt><trkpt lat="39.38635" lon="16.237565"><ele>165.0</ele><time>2026-05-03T15:55:27.482Z</time></trkpt><trkpt lat="39.3860633" lon="16.2373833"><ele>166.0</ele><time>2026-05-03T15:55:28.481Z</time></trkpt><trkpt lat="39.3857717" lon="16.237215"><ele>167.0</ele><time>2026-05-03T15:55:29.482Z</time></trkpt><trkpt lat="39.385475" lon="16.2370583"><ele>163.0</ele><time>2026-05-03T15:55:30.482Z</time></trkpt><trkpt lat="39.3851717" lon="16.2369167"><ele>159.0</ele><time>2026-05-03T15:55:31.481Z</time></trkpt><trkpt lat="39.38486" lon="16.2367883"><ele>159.0</ele><time>2026-05-03T15:55:32.481Z</time></trkpt><trkpt lat="39.3845433" lon="16.2366733"><ele>159.0</ele><time>2026-05-03T15:55:33.482Z</time></trkpt><trkpt lat="39.3842267" lon="16.2365767"><ele>159.0</ele><time>2026-05-03T15:55:34.481Z</time></trkpt><trkpt lat="39.3839033" lon="16.2364967"><ele>159.0</ele><time>2026-05-03T15:55:35.482Z</time></trkpt><trkpt lat="39.3835733" lon="16.2364283"><ele>159.0</ele><time>2026-05-03T15:55:36.482Z</time></trkpt><trkpt lat="39.3832383" lon="16.2363783"><ele>159.0</ele><time>2026-05-03T15:55:37.482Z</time></trkpt><trkpt lat="39.3828983" lon="16.2363467"><ele>159.0</ele><time>2026-05-03T15:55:38.481Z</time></trkpt><trkpt lat="39.3825533" lon="16.23632"><ele>159.0</ele><time>2026-05-03T15:55:39.48Z</time></trkpt><trkpt lat="39.3822033" lon="16.2362967"><ele>160.0</ele><time>2026-05-03T15:55:40.482Z</time></trkpt><trkpt lat="39.3818533" lon="16.2362967"><ele>161.0</ele><time>2026-05-03T15:55:41.48Z</time></trkpt><trkpt lat="39.3815033" lon="16.2363"><ele>161.0</ele><time>2026-05-03T15:55:42.482Z</time></trkpt><trkpt lat="39.38116" lon="16.236305"><ele>161.0</ele><time>2026-05-03T15:55:43.482Z</time></trkpt><trkpt lat="39.380815" lon="16.236305"><ele>161.5</ele><time>2026-05-03T15:55:44.482Z</time></trkpt><trkpt lat="39.3804683" lon="16.2363067"><ele>162.0</ele><time>2026-05-03T15:55:45.482Z</time></trkpt><trkpt lat="39.3801233" lon="16.2363083"><ele>162.0</ele><time>2026-05-03T15:55:46.481Z</time></trkpt><trkpt lat="39.3797767" lon="16.2363133"><ele>162.0</ele><time>2026-05-03T15:55:47.481Z</time></trkpt><trkpt lat="39.37943" lon="16.2363217"><ele>163.0</ele><time>2026-05-03T15:55:48.481Z</time></trkpt><trkpt lat="39.3790817" lon="16.23633"><ele>164.0</ele><time>2026-05-03T15:55:49.482Z</time></trkpt><trkpt lat="39.378735" lon="16.236335"><ele>166.5</ele><time>2026-05-03T15:55:50.482Z</time></trkpt><trkpt lat="39.3783883" lon="16.2363367"><ele>169.0</ele><time>2026-05-03T15:55:51.482Z</time></trkpt><trkpt lat="39.3780417" lon="16.236335"><ele>171.0</ele><time>2026-05-03T15:55:52.482Z</time></trkpt><trkpt lat="39.377695" lon="16.236335"><ele>173.0</ele><time>2026-05-03T15:55:53.481Z</time></trkpt><trkpt lat="39.3773483" lon="16.2363383"><ele>173.5</ele><time>2026-05-03T15:55:54.482Z</time></trkpt><trkpt lat="39.3770017" lon="16.2363433"><ele>174.0</ele><time>2026-05-03T15:55:55.482Z</time></trkpt><trkpt lat="39.37665" lon="16.2363467"><ele>173.0</ele><time>2026-05-03T15:55:56.483Z</time></trkpt><trkpt lat="39.3762983" lon="16.2363483"><ele>172.0</ele><time>2026-05-03T15:55:57.482Z</time></trkpt><trkpt lat="39.3759433" lon="16.2363517"><ele>172.0</ele><time>2026-05-03T15:55:58.48Z</time></trkpt><trkpt lat="39.3755867" lon="16.2363533"><ele>172.0</ele><time>2026-05-03T15:55:59.481Z</time></trkpt><trkpt lat="39.3752283" lon="16.236355"><ele>172.0</ele><time>2026-05-03T15:56:00.482Z</time></trkpt><trkpt lat="39.3748717" lon="16.2363583"><ele>172.0</ele><time>2026-05-03T15:56:01.482Z</time></trkpt><trkpt lat="39.3745133" lon="16.23636"><ele>172.0</ele><time>2026-05-03T15:56:02.482Z</time></trkpt><trkpt lat="39.3741583" lon="16.23636"><ele>172.0</ele><time>2026-05-03T15:56:03.483Z</time></trkpt><trkpt lat="39.3738" lon="16.2363617"><ele>175.5</ele><time>2026-05-03T15:56:04.482Z</time></trkpt><trkpt lat="39.3734433" lon="16.2363667"><ele>179.0</ele><time>2026-05-03T15:56:05.48Z</time></trkpt><trkpt lat="39.373085" lon="16.2363717"><ele>182.5</ele><time>2026-05-03T15:56:06.482Z</time></trkpt><trkpt lat="39.372725" lon="16.2363767"><ele>186.0</ele><time>2026-05-03T15:56:07.482Z</time></trkpt><trkpt lat="39.37236" lon="16.2363833"><ele>182.5</ele><time>2026-05-03T15:56:08.482Z</time></trkpt><trkpt lat="39.3719933" lon="16.2363867"><ele>179.0</ele><time>2026-05-03T15:56:09.484Z</time></trkpt><trkpt lat="39.3716317" lon="16.2363883"><ele>176.5</ele><time>2026-05-03T15:56:10.481Z</time></trkpt><trkpt lat="39.3712733" lon="16.23639"><ele>174.0</ele><time>2026-05-03T15:56:11.482Z</time></trkpt><trkpt lat="39.37092" lon="16.2363933"><ele>174.0</ele><time>2026-05-03T15:56:12.481Z</time></trkpt><trkpt lat="39.3705733" lon="16.236395"><ele>174.0</ele><time>2026-05-03T15:56:13.481Z</time></trkpt><trkpt lat="39.3702267" lon="16.2363967"><ele>174.0</ele><time>2026-05-03T15:56:14.482Z</time></trkpt><trkpt lat="39.36988" lon="16.2364017"><ele>174.0</ele><time>2026-05-03T15:56:15.482Z</time></trkpt><trkpt lat="39.369535" lon="16.2364033"><ele>174.5</ele><time>2026-05-03T15:56:16.482Z</time></trkpt><trkpt lat="39.3691933" lon="16.2364017"><ele>175.0</ele><time>2026-05-03T15:56:17.482Z</time></trkpt><trkpt lat="39.368855" lon="16.236395"><ele>177.5</ele><time>2026-05-03T15:56:18.482Z</time></trkpt><trkpt lat="39.36852" lon="16.2363833"><ele>180.0</ele><time>2026-05-03T15:56:19.481Z</time></trkpt><trkpt lat="39.3681817" lon="16.2363617"><ele>182.0</ele><time>2026-05-03T15:56:20.483Z</time></trkpt><trkpt lat="39.3678417" lon="16.2363233"><ele>184.0</ele><time>2026-05-03T15:56:21.482Z</time></trkpt><trkpt lat="39.3674983" lon="16.2362667"><ele>182.5</ele><time>2026-05-03T15:56:22.48Z</time></trkpt><trkpt lat="39.367155" lon="16.2361917"><ele>181.0</ele><time>2026-05-03T15:56:23.481Z</time></trkpt><trkpt lat="39.3668133" lon="16.2361"><ele>181.0</ele><time>2026-05-03T15:56:24.482Z</time></trkpt><trkpt lat="39.3664783" lon="16.2359917"><ele>181.0</ele><time>2026-05-03T15:56:25.481Z</time></trkpt><trkpt lat="39.3661433" lon="16.23587"><ele>181.0</ele><time>2026-05-03T15:56:26.482Z</time></trkpt><trkpt lat="39.36581" lon="16.235745"><ele>181.0</ele><time>2026-05-03T15:56:27.482Z</time></trkpt><trkpt lat="39.3654767" lon="16.235615"><ele>183.5</ele><time>2026-05-03T15:56:28.482Z</time></trkpt><trkpt lat="39.3651517" lon="16.23549"><ele>186.0</ele><time>2026-05-03T15:56:29.482Z</time></trkpt><trkpt lat="39.36483" lon="16.2353633"><ele>183.0</ele><time>2026-05-03T15:56:30.482Z</time></trkpt><trkpt lat="39.3645167" lon="16.23524"><ele>180.0</ele><time>2026-05-03T15:56:31.481Z</time></trkpt><trkpt lat="39.364205" lon="16.23511"><ele>180.0</ele><time>2026-05-03T15:56:32.482Z</time></trkpt><trkpt lat="39.3638983" lon="16.2349817"><ele>180.0</ele><time>2026-05-03T15:56:33.481Z</time></trkpt><trkpt lat="39.3635917" lon="16.2348533"><ele>180.5</ele><time>2026-05-03T15:56:34.482Z</time></trkpt><trkpt lat="39.36329" lon="16.234725"><ele>181.0</ele><time>2026-05-03T15:56:35.481Z</time></trkpt><trkpt lat="39.3629917" lon="16.2345983"><ele>182.5</ele><time>2026-05-03T15:56:36.481Z</time></trkpt><trkpt lat="39.3626933" lon="16.234475"><ele>184.0</ele><time>2026-05-03T15:56:37.482Z</time></trkpt><trkpt lat="39.362395" lon="16.2343567"><ele>183.5</ele><time>2026-05-03T15:56:38.483Z</time></trkpt><trkpt lat="39.3620967" lon="16.23424"><ele>183.0</ele><time>2026-05-03T15:56:39.482Z</time></trkpt><trkpt lat="39.3617983" lon="16.2341283"><ele>183.0</ele><time>2026-05-03T15:56:40.481Z</time></trkpt><trkpt lat="39.361495" lon="16.2340167"><ele>183.0</ele><time>2026-05-03T15:56:41.481Z</time></trkpt><trkpt lat="39.36119" lon="16.2339233"><ele>186.5</ele><time>2026-05-03T15:56:42.481Z</time></trkpt><trkpt lat="39.36088" lon="16.2338383"><ele>190.0</ele><time>2026-05-03T15:56:43.482Z</time></trkpt><trkpt lat="39.3605567" lon="16.2337533"><ele>188.5</ele><time>2026-05-03T15:56:44.483Z</time></trkpt><trkpt lat="39.360235" lon="16.2336733"><ele>187.0</ele><time>2026-05-03T15:56:45.481Z</time></trkpt><trkpt lat="39.359915" lon="16.2336133"><ele>187.0</ele><time>2026-05-03T15:56:46.482Z</time></trkpt><trkpt lat="39.359595" lon="16.2335683"><ele>187.0</ele><time>2026-05-03T15:56:47.483Z</time></trkpt><trkpt lat="39.359275" lon="16.233535"><ele>187.0</ele><time>2026-05-03T15:56:48.482Z</time></trkpt><trkpt lat="39.3589567" lon="16.2335133"><ele>187.0</ele><time>2026-05-03T15:56:49.482Z</time></trkpt><trkpt lat="39.358635" lon="16.2335"><ele>190.5</ele><time>2026-05-03T15:56:50.481Z</time></trkpt><trkpt lat="39.3583217" lon="16.2334917"><ele>194.0</ele><time>2026-05-03T15:56:51.482Z</time></trkpt><trkpt lat="39.3580167" lon="16.2334883"><ele>195.5</ele><time>2026-05-03T15:56:52.481Z</time></trkpt><trkpt lat="39.35772" lon="16.2334867"><ele>197.0</ele><time>2026-05-03T15:56:53.481Z</time></trkpt><trkpt lat="39.357435" lon="16.2334867"><ele>199.5</ele><time>2026-05-03T15:56:54.483Z</time></trkpt><trkpt lat="39.3571533" lon="16.23349"><ele>202.0</ele><time>2026-05-03T15:56:55.482Z</time></trkpt><trkpt lat="39.3568783" lon="16.2334917"><ele>202.0</ele><time>2026-05-03T15:56:56.481Z</time></trkpt><trkpt lat="39.3566017" lon="16.2334933"><ele>202.0</ele><time>2026-05-03T15:56:57.482Z</time></trkpt><trkpt lat="39.3563233" lon="16.2334967"><ele>201.5</ele><time>2026-05-03T15:56:58.481Z</time></trkpt><trkpt lat="39.356045" lon="16.2335017"><ele>201.0</ele><time>2026-05-03T15:56:59.482Z</time></trkpt><trkpt lat="39.3557683" lon="16.2335067"><ele>198.5</ele><time>2026-05-03T15:57:00.482Z</time></trkpt><trkpt lat="39.35549" lon="16.233515"><ele>196.0</ele><time>2026-05-03T15:57:01.482Z</time></trkpt><trkpt lat="39.3552133" lon="16.2335217"><ele>196.0</ele><time>2026-05-03T15:57:02.482Z</time></trkpt><trkpt lat="39.3549417" lon="16.233525"><ele>196.0</ele><time>2026-05-03T15:57:03.483Z</time></trkpt><trkpt lat="39.354675" lon="16.2335333"><ele>196.0</ele><time>2026-05-03T15:57:04.481Z</time></trkpt><trkpt lat="39.3544067" lon="16.2335467"><ele>196.0</ele><time>2026-05-03T15:57:05.481Z</time></trkpt><trkpt lat="39.3541533" lon="16.2335583"><ele>196.0</ele><time>2026-05-03T15:57:06.481Z</time></trkpt><trkpt lat="39.3538967" lon="16.2335767"><ele>196.0</ele><time>2026-05-03T15:57:07.483Z</time></trkpt><trkpt lat="39.35364" lon="16.2335967"><ele>196.0</ele><time>2026-05-03T15:57:08.482Z</time></trkpt><trkpt lat="39.353385" lon="16.2336167"><ele>196.0</ele><time>2026-05-03T15:57:09.481Z</time></trkpt><trkpt lat="39.35313" lon="16.233645"><ele>196.0</ele><time>2026-05-03T15:57:10.482Z</time></trkpt><trkpt lat="39.3528733" lon="16.2336833"><ele>196.0</ele><time>2026-05-03T15:57:11.482Z</time></trkpt><trkpt lat="39.35261" lon="16.233725"><ele>196.0</ele><time>2026-05-03T15:57:12.482Z</time></trkpt><trkpt lat="39.3523417" lon="16.2337733"><ele>196.0</ele><time>2026-05-03T15:57:13.482Z</time></trkpt><trkpt lat="39.3520667" lon="16.2338233"><ele>196.0</ele><time>2026-05-03T15:57:14.481Z</time></trkpt><trkpt lat="39.351785" lon="16.2338833"><ele>196.0</ele><time>2026-05-03T15:57:15.482Z</time></trkpt><trkpt lat="39.3514983" lon="16.23395"><ele>196.0</ele><time>2026-05-03T15:57:16.483Z</time></trkpt><trkpt lat="39.3512067" lon="16.2340183"><ele>196.0</ele><time>2026-05-03T15:57:17.482Z</time></trkpt><trkpt lat="39.3509167" lon="16.2340883"><ele>196.0</ele><time>2026-05-03T15:57:18.481Z</time></trkpt><trkpt lat="39.3506167" lon="16.234165"><ele>196.0</ele><time>2026-05-03T15:57:19.481Z</time></trkpt><trkpt lat="39.3503067" lon="16.2342267"><ele>196.0</ele><time>2026-05-03T15:57:20.482Z</time></trkpt><trkpt lat="39.3499917" lon="16.2342967"><ele>196.0</ele><time>2026-05-03T15:57:21.482Z</time></trkpt><trkpt lat="39.3496767" lon="16.234375"><ele>196.5</ele><time>2026-05-03T15:57:22.482Z</time></trkpt><trkpt lat="39.3493583" lon="16.2344583"><ele>197.0</ele><time>2026-05-03T15:57:23.482Z</time></trkpt><trkpt lat="39.3490417" lon="16.23454"><ele>197.0</ele><time>2026-05-03T15:57:24.481Z</time></trkpt><trkpt lat="39.3487233" lon="16.2346233"><ele>197.0</ele><time>2026-05-03T15:57:25.482Z</time></trkpt><trkpt lat="39.3484" lon="16.2347067"><ele>197.0</ele><time>2026-05-03T15:57:26.482Z</time></trkpt><trkpt lat="39.3480817" lon="16.2347917"><ele>197.0</ele><time>2026-05-03T15:57:27.481Z</time></trkpt><trkpt lat="39.3477617" lon="16.2348767"><ele>196.0</ele><time>2026-05-03T15:57:28.481Z</time></trkpt><trkpt lat="39.34744" lon="16.23495"><ele>195.0</ele><time>2026-05-03T15:57:29.482Z</time></trkpt><trkpt lat="39.34712" lon="16.23501"><ele>194.0</ele><time>2026-05-03T15:57:30.48Z</time></trkpt><trkpt lat="39.3468017" lon="16.2350533"><ele>193.0</ele><time>2026-05-03T15:57:31.482Z</time></trkpt><trkpt lat="39.3464833" lon="16.2350767"><ele>195.0</ele><time>2026-05-03T15:57:32.483Z</time></trkpt><trkpt lat="39.3461667" lon="16.2350867"><ele>197.0</ele><time>2026-05-03T15:57:33.482Z</time></trkpt><trkpt lat="39.3458533" lon="16.2350867"><ele>199.0</ele><time>2026-05-03T15:57:34.482Z</time></trkpt><trkpt lat="39.3455367" lon="16.2350733"><ele>201.0</ele><time>2026-05-03T15:57:35.482Z</time></trkpt><trkpt lat="39.3452133" lon="16.2350467"><ele>201.0</ele><time>2026-05-03T15:57:36.482Z</time></trkpt><trkpt lat="39.3448883" lon="16.235005"><ele>201.0</ele><time>2026-05-03T15:57:37.481Z</time></trkpt><trkpt lat="39.3445633" lon="16.234955"><ele>201.0</ele><time>2026-05-03T15:57:38.483Z</time></trkpt><trkpt lat="39.34424" lon="16.234895"><ele>201.0</ele><time>2026-05-03T15:57:39.481Z</time></trkpt><trkpt lat="39.3439167" lon="16.2348333"><ele>202.5</ele><time>2026-05-03T15:57:40.482Z</time></trkpt><trkpt lat="39.3435983" lon="16.2347767"><ele>204.0</ele><time>2026-05-03T15:57:41.481Z</time></trkpt><trkpt lat="39.34328" lon="16.2347217"><ele>203.0</ele><time>2026-05-03T15:57:42.482Z</time></trkpt><trkpt lat="39.3429617" lon="16.23467"><ele>202.0</ele><time>2026-05-03T15:57:43.482Z</time></trkpt><trkpt lat="39.3426483" lon="16.2346233"><ele>202.0</ele><time>2026-05-03T15:57:44.482Z</time></trkpt><trkpt lat="39.34234" lon="16.2345833"><ele>202.0</ele><time>2026-05-03T15:57:45.482Z</time></trkpt><trkpt lat="39.3420417" lon="16.2345517"><ele>201.5</ele><time>2026-05-03T15:57:46.482Z</time></trkpt><trkpt lat="39.3417567" lon="16.2345333"><ele>201.0</ele><time>2026-05-03T15:57:47.481Z</time></trkpt><trkpt lat="39.3414717" lon="16.2345267"><ele>199.5</ele><time>2026-05-03T15:57:48.482Z</time></trkpt><trkpt lat="39.34119" lon="16.2345317"><ele>198.0</ele><time>2026-05-03T15:57:49.481Z</time></trkpt><trkpt lat="39.3409033" lon="16.2345483"><ele>198.0</ele><time>2026-05-03T15:57:50.483Z</time></trkpt><trkpt lat="39.3406033" lon="16.2345767"><ele>198.0</ele><time>2026-05-03T15:57:51.482Z</time></trkpt><trkpt lat="39.3402933" lon="16.2346183"><ele>197.5</ele><time>2026-05-03T15:57:52.482Z</time></trkpt><trkpt lat="39.3399783" lon="16.2346767"><ele>197.0</ele><time>2026-05-03T15:57:53.482Z</time></trkpt><trkpt lat="39.33966" lon="16.23475"><ele>195.0</ele><time>2026-05-03T15:57:54.482Z</time></trkpt><trkpt lat="39.3393367" lon="16.2348417"><ele>193.0</ele><time>2026-05-03T15:57:55.482Z</time></trkpt><trkpt lat="39.3390117" lon="16.2349483"><ele>192.5</ele><time>2026-05-03T15:57:56.482Z</time></trkpt><trkpt lat="39.3386883" lon="16.23507"><ele>192.0</ele><time>2026-05-03T15:57:57.484Z</time></trkpt><trkpt lat="39.3383633" lon="16.2351967"><ele>193.5</ele><time>2026-05-03T15:57:58.481Z</time></trkpt><trkpt lat="39.338035" lon="16.2353283"><ele>195.0</ele><time>2026-05-03T15:57:59.483Z</time></trkpt><trkpt lat="39.3377083" lon="16.2354567"><ele>195.0</ele><time>2026-05-03T15:58:00.481Z</time></trkpt><trkpt lat="39.3373817" lon="16.2355867"><ele>195.0</ele><time>2026-05-03T15:58:01.48Z</time></trkpt><trkpt lat="39.3370567" lon="16.2357183"><ele>194.5</ele><time>2026-05-03T15:58:02.482Z</time></trkpt><trkpt lat="39.3367333" lon="16.235855"><ele>194.0</ele><time>2026-05-03T15:58:03.482Z</time></trkpt><trkpt lat="39.3364117" lon="16.23599"><ele>195.5</ele><time>2026-05-03T15:58:04.481Z</time></trkpt><trkpt lat="39.33609" lon="16.2361233"><ele>197.0</ele><time>2026-05-03T15:58:05.481Z</time></trkpt><trkpt lat="39.3357667" lon="16.236255"><ele>197.0</ele><time>2026-05-03T15:58:06.481Z</time></trkpt><trkpt lat="39.335445" lon="16.2363867"><ele>197.0</ele><time>2026-05-03T15:58:07.481Z</time></trkpt><trkpt lat="39.335125" lon="16.23652"><ele>198.0</ele><time>2026-05-03T15:58:08.481Z</time></trkpt><trkpt lat="39.334805" lon="16.2366517"><ele>199.0</ele><time>2026-05-03T15:58:09.482Z</time></trkpt><trkpt lat="39.334485" lon="16.236785"><ele>200.0</ele><time>2026-05-03T15:58:10.481Z</time></trkpt><trkpt lat="39.3341633" lon="16.23692"><ele>201.0</ele><time>2026-05-03T15:58:11.482Z</time></trkpt><trkpt lat="39.3338433" lon="16.2370533"><ele>203.0</ele><time>2026-05-03T15:58:12.482Z</time></trkpt><trkpt lat="39.3335317" lon="16.2371867"><ele>205.0</ele><time>2026-05-03T15:58:13.481Z</time></trkpt><trkpt lat="39.33323" lon="16.2373217"><ele>206.0</ele><time>2026-05-03T15:58:14.483Z</time></trkpt><trkpt lat="39.33294" lon="16.2374533"><ele>207.0</ele><time>2026-05-03T15:58:15.482Z</time></trkpt><trkpt lat="39.332655" lon="16.23758"><ele>207.0</ele><time>2026-05-03T15:58:16.482Z</time></trkpt><trkpt lat="39.3323733" lon="16.2377017"><ele>207.0</ele><time>2026-05-03T15:58:17.482Z</time></trkpt><trkpt lat="39.3320933" lon="16.2378217"><ele>208.5</ele><time>2026-05-03T15:58:18.482Z</time></trkpt><trkpt lat="39.3318167" lon="16.2379383"><ele>210.0</ele><time>2026-05-03T15:58:19.482Z</time></trkpt><trkpt lat="39.33154" lon="16.2380533"><ele>211.5</ele><time>2026-05-03T15:58:20.482Z</time></trkpt><trkpt lat="39.331265" lon="16.2381683"><ele>213.0</ele><time>2026-05-03T15:58:21.481Z</time></trkpt><trkpt lat="39.3309883" lon="16.23828"><ele>213.0</ele><time>2026-05-03T15:58:22.482Z</time></trkpt><trkpt lat="39.3307133" lon="16.2383917"><ele>213.0</ele><time>2026-05-03T15:58:23.482Z</time></trkpt><trkpt lat="39.3304417" lon="16.2385083"><ele>214.0</ele><time>2026-05-03T15:58:24.482Z</time></trkpt><trkpt lat="39.3301667" lon="16.2386267"><ele>215.0</ele><time>2026-05-03T15:58:25.481Z</time></trkpt><trkpt lat="39.32989" lon="16.238745"><ele>215.5</ele><time>2026-05-03T15:58:26.481Z</time></trkpt><trkpt lat="39.32961" lon="16.238865"><ele>216.0</ele><time>2026-05-03T15:58:27.482Z</time></trkpt><trkpt lat="39.3293233" lon="16.2389967"><ele>216.0</ele><time>2026-05-03T15:58:28.481Z</time></trkpt><trkpt lat="39.3290433" lon="16.2391283"><ele>216.0</ele><time>2026-05-03T15:58:29.482Z</time></trkpt><trkpt lat="39.328765" lon="16.239245"><ele>216.5</ele><time>2026-05-03T15:58:30.482Z</time></trkpt><trkpt lat="39.328495" lon="16.2393467"><ele>217.0</ele><time>2026-05-03T15:58:31.483Z</time></trkpt><trkpt lat="39.3282367" lon="16.2394233"><ele>218.0</ele><time>2026-05-03T15:58:32.481Z</time></trkpt><trkpt lat="39.3279817" lon="16.23949"><ele>219.0</ele><time>2026-05-03T15:58:33.482Z</time></trkpt><trkpt lat="39.3277333" lon="16.23954"><ele>219.0</ele><time>2026-05-03T15:58:34.482Z</time></trkpt><trkpt lat="39.3274833" lon="16.23958"><ele>219.0</ele><time>2026-05-03T15:58:35.482Z</time></trkpt><trkpt lat="39.3272317" lon="16.2396133"><ele>220.5</ele><time>2026-05-03T15:58:36.481Z</time></trkpt><trkpt lat="39.3269833" lon="16.2396417"><ele>222.0</ele><time>2026-05-03T15:58:37.481Z</time></trkpt><trkpt lat="39.32673" lon="16.2396583"><ele>222.0</ele><time>2026-05-03T15:58:38.482Z</time></trkpt><trkpt lat="39.3264683" lon="16.2396667"><ele>222.0</ele><time>2026-05-03T15:58:39.482Z</time></trkpt><trkpt lat="39.3262" lon="16.2396683"><ele>223.5</ele><time>2026-05-03T15:58:40.482Z</time></trkpt><trkpt lat="39.3259283" lon="16.2396683"><ele>225.0</ele><time>2026-05-03T15:58:41.482Z</time></trkpt><trkpt lat="39.3256533" lon="16.2396633"><ele>224.0</ele><time>2026-05-03T15:58:42.482Z</time></trkpt><trkpt lat="39.3253733" lon="16.239655"><ele>223.0</ele><time>2026-05-03T15:58:43.482Z</time></trkpt><trkpt lat="39.3250883" lon="16.23965"><ele>223.0</ele><time>2026-05-03T15:58:44.481Z</time></trkpt><trkpt lat="39.3248067" lon="16.23964"><ele>223.0</ele><time>2026-05-03T15:58:45.482Z</time></trkpt><trkpt lat="39.324525" lon="16.2396383"><ele>223.5</ele><time>2026-05-03T15:58:46.482Z</time></trkpt><trkpt lat="39.3242467" lon="16.2396383"><ele>224.0</ele><time>2026-05-03T15:58:47.482Z</time></trkpt><trkpt lat="39.32397" lon="16.239645"><ele>222.5</ele><time>2026-05-03T15:58:48.483Z</time></trkpt><trkpt lat="39.323695" lon="16.239655"><ele>221.0</ele><time>2026-05-03T15:58:49.483Z</time></trkpt><trkpt lat="39.3234183" lon="16.23967"><ele>221.0</ele><time>2026-05-03T15:58:50.482Z</time></trkpt><trkpt lat="39.32314" lon="16.23969"><ele>221.0</ele><time>2026-05-03T15:58:51.482Z</time></trkpt><trkpt lat="39.322865" lon="16.2397217"><ele>220.0</ele><time>2026-05-03T15:58:52.482Z</time></trkpt><trkpt lat="39.3225883" lon="16.239765"><ele>219.0</ele><time>2026-05-03T15:58:53.482Z</time></trkpt><trkpt lat="39.3223117" lon="16.2398167"><ele>217.0</ele><time>2026-05-03T15:58:54.482Z</time></trkpt><trkpt lat="39.3220383" lon="16.2398783"><ele>215.0</ele><time>2026-05-03T15:58:55.482Z</time></trkpt><trkpt lat="39.3217633" lon="16.2399483"><ele>215.0</ele><time>2026-05-03T15:58:56.482Z</time></trkpt><trkpt lat="39.3214917" lon="16.2400267"><ele>215.0</ele><time>2026-05-03T15:58:57.483Z</time></trkpt><trkpt lat="39.3212217" lon="16.2401167"><ele>214.0</ele><time>2026-05-03T15:58:58.482Z</time></trkpt><trkpt lat="39.3209517" lon="16.2402117"><ele>213.0</ele><time>2026-05-03T15:58:59.482Z</time></trkpt><trkpt lat="39.3206783" lon="16.24031"><ele>212.0</ele><time>2026-05-03T15:59:00.481Z</time></trkpt><trkpt lat="39.3204033" lon="16.240415"><ele>211.0</ele><time>2026-05-03T15:59:01.482Z</time></trkpt><trkpt lat="39.3201283" lon="16.2405283"><ele>211.0</ele><time>2026-05-03T15:59:02.483Z</time></trkpt><trkpt lat="39.3198517" lon="16.24064"><ele>211.0</ele><time>2026-05-03T15:59:03.481Z</time></trkpt><trkpt lat="39.3195733" lon="16.2407533"><ele>211.5</ele><time>2026-05-03T15:59:04.482Z</time></trkpt><trkpt lat="39.3192933" lon="16.2408617"><ele>212.0</ele><time>2026-05-03T15:59:05.482Z</time></trkpt><trkpt lat="39.3190133" lon="16.240965"><ele>210.5</ele><time>2026-05-03T15:59:06.481Z</time></trkpt><trkpt lat="39.3187333" lon="16.24106"><ele>209.0</ele><time>2026-05-03T15:59:07.48Z</time></trkpt><trkpt lat="39.3184583" lon="16.241145"><ele>209.0</ele><time>2026-05-03T15:59:08.482Z</time></trkpt><trkpt lat="39.3181883" lon="16.2412183"><ele>209.0</ele><time>2026-05-03T15:59:09.481Z</time></trkpt><trkpt lat="39.31792" lon="16.24128"><ele>209.5</ele><time>2026-05-03T15:59:10.482Z</time></trkpt><trkpt lat="39.317655" lon="16.241325"><ele>210.0</ele><time>2026-05-03T15:59:11.482Z</time></trkpt><trkpt lat="39.31739" lon="16.2413517"><ele>211.0</ele><time>2026-05-03T15:59:12.482Z</time></trkpt><trkpt lat="39.317125" lon="16.2413683"><ele>212.0</ele><time>2026-05-03T15:59:13.482Z</time></trkpt><trkpt lat="39.31686" lon="16.2413717"><ele>212.0</ele><time>2026-05-03T15:59:14.483Z</time></trkpt><trkpt lat="39.3165917" lon="16.2413617"><ele>212.0</ele><time>2026-05-03T15:59:15.481Z</time></trkpt><trkpt lat="39.316325" lon="16.241335"><ele>212.5</ele><time>2026-05-03T15:59:16.482Z</time></trkpt><trkpt lat="39.31606" lon="16.241295"><ele>213.0</ele><time>2026-05-03T15:59:17.481Z</time></trkpt><trkpt lat="39.3157983" lon="16.2412417"><ele>215.5</ele><time>2026-05-03T15:59:18.482Z</time></trkpt><trkpt lat="39.3155383" lon="16.241175"><ele>218.0</ele><time>2026-05-03T15:59:19.482Z</time></trkpt><trkpt lat="39.3152817" lon="16.2410967"><ele>218.0</ele><time>2026-05-03T15:59:20.483Z</time></trkpt><trkpt lat="39.3150267" lon="16.2410017"><ele>218.0</ele><time>2026-05-03T15:59:21.482Z</time></trkpt><trkpt lat="39.314775" lon="16.2408933"><ele>224.5</ele><time>2026-05-03T15:59:22.483Z</time></trkpt><trkpt lat="39.3145233" lon="16.2407733"><ele>231.0</ele><time>2026-05-03T15:59:23.482Z</time></trkpt><trkpt lat="39.31427" lon="16.2406383"><ele>232.0</ele><time>2026-05-03T15:59:24.482Z</time></trkpt><trkpt lat="39.3140183" lon="16.24049"><ele>233.0</ele><time>2026-05-03T15:59:25.482Z</time></trkpt><trkpt lat="39.31377" lon="16.240335"><ele>233.0</ele><time>2026-05-03T15:59:26.483Z</time></trkpt><trkpt lat="39.3135267" lon="16.24017"><ele>233.0</ele><time>2026-05-03T15:59:27.482Z</time></trkpt><trkpt lat="39.313285" lon="16.2400017"><ele>232.5</ele><time>2026-05-03T15:59:28.481Z</time></trkpt><trkpt lat="39.3130433" lon="16.2398283"><ele>232.0</ele><time>2026-05-03T15:59:29.482Z</time></trkpt><trkpt lat="39.3128017" lon="16.2396583"><ele>232.0</ele><time>2026-05-03T15:59:30.481Z</time></trkpt><trkpt lat="39.3125633" lon="16.2394933"><ele>232.0</ele><time>2026-05-03T15:59:31.482Z</time></trkpt><trkpt lat="39.312325" lon="16.2393333"><ele>240.0</ele><time>2026-05-03T15:59:32.482Z</time></trkpt><trkpt lat="39.312085" lon="16.2391783"><ele>248.0</ele><time>2026-05-03T15:59:33.482Z</time></trkpt><trkpt lat="39.311845" lon="16.239035"><ele>247.0</ele><time>2026-05-03T15:59:34.482Z</time></trkpt><trkpt lat="39.3116017" lon="16.2389033"><ele>246.0</ele><time>2026-05-03T15:59:35.481Z</time></trkpt><trkpt lat="39.3113567" lon="16.238785"><ele>246.0</ele><time>2026-05-03T15:59:36.482Z</time></trkpt><trkpt lat="39.3111083" lon="16.238675"><ele>246.0</ele><time>2026-05-03T15:59:37.482Z</time></trkpt><trkpt lat="39.3108567" lon="16.2385717"><ele>246.0</ele><time>2026-05-03T15:59:38.482Z</time></trkpt><trkpt lat="39.3106033" lon="16.2384717"><ele>246.0</ele><time>2026-05-03T15:59:39.481Z</time></trkpt><trkpt lat="39.3103483" lon="16.23838"><ele>251.0</ele><time>2026-05-03T15:59:40.482Z</time></trkpt><trkpt lat="39.31009" lon="16.2382883"><ele>256.0</ele><time>2026-05-03T15:59:41.482Z</time></trkpt><trkpt lat="39.30983" lon="16.2382033"><ele>258.0</ele><time>2026-05-03T15:59:42.482Z</time></trkpt><trkpt lat="39.3095683" lon="16.23812"><ele>260.0</ele><time>2026-05-03T15:59:43.481Z</time></trkpt><trkpt lat="39.3093033" lon="16.2380383"><ele>260.0</ele><time>2026-05-03T15:59:44.481Z</time></trkpt><trkpt lat="39.3090317" lon="16.2379517"><ele>260.0</ele><time>2026-05-03T15:59:45.481Z</time></trkpt><trkpt lat="39.3087533" lon="16.2378633"><ele>267.0</ele><time>2026-05-03T15:59:46.481Z</time></trkpt><trkpt lat="39.3084667" lon="16.2377717"><ele>274.0</ele><time>2026-05-03T15:59:47.481Z</time></trkpt><trkpt lat="39.3081717" lon="16.237675"><ele>281.0</ele><time>2026-05-03T15:59:48.482Z</time></trkpt><trkpt lat="39.307875" lon="16.23758"><ele>288.0</ele><time>2026-05-03T15:59:49.483Z</time></trkpt><trkpt lat="39.3075833" lon="16.2374783"><ele>288.0</ele><time>2026-05-03T15:59:50.483Z</time></trkpt><trkpt lat="39.30729" lon="16.2373767"><ele>288.0</ele><time>2026-05-03T15:59:51.482Z</time></trkpt><trkpt lat="39.3069967" lon="16.2372717"><ele>282.0</ele><time>2026-05-03T15:59:52.483Z</time></trkpt><trkpt lat="39.3067017" lon="16.2371633"><ele>276.0</ele><time>2026-05-03T15:59:53.482Z</time></trkpt><trkpt lat="39.3026767" lon="16.2359367"><ele>276.0</ele><time>2026-05-03T16:00:05.484Z</time></trkpt><trkpt lat="39.3023333" lon="16.235875"><ele>276.0</ele><time>2026-05-03T16:00:06.483Z</time></trkpt><trkpt lat="39.3020067" lon="16.2358217"><ele>273.0</ele><time>2026-05-03T16:00:07.482Z</time></trkpt><trkpt lat="39.301655" lon="16.2357967"><ele>270.0</ele><time>2026-05-03T16:00:08.483Z</time></trkpt><trkpt lat="39.3013167" lon="16.2357983"><ele>269.0</ele><time>2026-05-03T16:00:09.482Z</time></trkpt><trkpt lat="39.3009733" lon="16.2358283"><ele>268.0</ele><time>2026-05-03T16:00:10.482Z</time></trkpt><trkpt lat="39.300635" lon="16.2358667"><ele>269.0</ele><time>2026-05-03T16:00:11.483Z</time></trkpt><trkpt lat="39.3003" lon="16.23592"><ele>270.0</ele><time>2026-05-03T16:00:12.483Z</time></trkpt><trkpt lat="39.29997" lon="16.23599"><ele>273.5</ele><time>2026-05-03T16:00:13.483Z</time></trkpt><trkpt lat="39.2996417" lon="16.23607"><ele>277.0</ele><time>2026-05-03T16:00:14.483Z</time></trkpt><trkpt lat="39.2993167" lon="16.2361633"><ele>277.0</ele><time>2026-05-03T16:00:15.482Z</time></trkpt><trkpt lat="39.29899" lon="16.23626"><ele>277.0</ele><time>2026-05-03T16:00:16.482Z</time></trkpt><trkpt lat="39.2986583" lon="16.23636"><ele>279.5</ele><time>2026-05-03T16:00:17.482Z</time></trkpt><trkpt lat="39.2983217" lon="16.23645"><ele>282.0</ele><time>2026-05-03T16:00:18.481Z</time></trkpt><trkpt lat="39.297985" lon="16.2365433"><ele>285.5</ele><time>2026-05-03T16:00:19.483Z</time></trkpt><trkpt lat="39.29765" lon="16.2366417"><ele>289.0</ele><time>2026-05-03T16:00:20.483Z</time></trkpt><trkpt lat="39.2973117" lon="16.2367417"><ele>290.5</ele><time>2026-05-03T16:00:21.483Z</time></trkpt><trkpt lat="39.2969783" lon="16.2368433"><ele>292.0</ele><time>2026-05-03T16:00:22.482Z</time></trkpt><trkpt lat="39.2966517" lon="16.236945"><ele>297.0</ele><time>2026-05-03T16:00:23.483Z</time></trkpt><trkpt lat="39.2963283" lon="16.237045"><ele>302.0</ele><time>2026-05-03T16:00:24.482Z</time></trkpt><trkpt lat="39.2960133" lon="16.2371417"><ele>302.0</ele><time>2026-05-03T16:00:25.482Z</time></trkpt><trkpt lat="39.295705" lon="16.237235"><ele>302.0</ele><time>2026-05-03T16:00:26.483Z</time></trkpt><trkpt lat="39.2954033" lon="16.2373267"><ele>313.0</ele><time>2026-05-03T16:00:27.481Z</time></trkpt><trkpt lat="39.2950983" lon="16.2374233"><ele>324.0</ele><time>2026-05-03T16:00:28.481Z</time></trkpt><trkpt lat="39.2947883" lon="16.2375217"><ele>335.0</ele><time>2026-05-03T16:00:29.482Z</time></trkpt><trkpt lat="39.2944767" lon="16.237625"><ele>346.0</ele><time>2026-05-03T16:00:30.482Z</time></trkpt><trkpt lat="39.29417" lon="16.2377233"><ele>348.0</ele><time>2026-05-03T16:00:31.482Z</time></trkpt><trkpt lat="39.2938717" lon="16.2378183"><ele>350.0</ele><time>2026-05-03T16:00:32.483Z</time></trkpt><trkpt lat="39.2935883" lon="16.2379067"><ele>350.0</ele><time>2026-05-03T16:00:33.482Z</time></trkpt><trkpt lat="39.2933167" lon="16.23799"><ele>350.0</ele><time>2026-05-03T16:00:34.482Z</time></trkpt><trkpt lat="39.2930317" lon="16.2380783"><ele>318.0</ele><time>2026-05-03T16:00:35.481Z</time></trkpt><trkpt lat="39.2919483" lon="16.2383583"><ele>318.0</ele><time>2026-05-03T16:00:39.482Z</time></trkpt><trkpt lat="39.2917933" lon="16.2384667"><ele>318.0</ele><time>2026-05-03T16:00:40.48Z</time></trkpt><trkpt lat="39.2915883" lon="16.2385317"><ele>318.0</ele><time>2026-05-03T16:00:41.481Z</time></trkpt><trkpt lat="39.29134" lon="16.2385817"><ele>319.5</ele><time>2026-05-03T16:00:42.482Z</time></trkpt><trkpt lat="39.2910933" lon="16.2386183"><ele>321.0</ele><time>2026-05-03T16:00:43.481Z</time></trkpt><trkpt lat="39.2908333" lon="16.2386967"><ele>326.5</ele><time>2026-05-03T16:00:44.482Z</time></trkpt><trkpt lat="39.2905783" lon="16.23878"><ele>332.0</ele><time>2026-05-03T16:00:45.482Z</time></trkpt><trkpt lat="39.2903217" lon="16.2388633"><ele>332.0</ele><time>2026-05-03T16:00:46.482Z</time></trkpt><trkpt lat="39.2900633" lon="16.2389433"><ele>332.0</ele><time>2026-05-03T16:00:47.482Z</time></trkpt><trkpt lat="39.2898017" lon="16.2390217"><ele>316.0</ele><time>2026-05-03T16:00:48.482Z</time></trkpt><trkpt lat="39.2895383" lon="16.2391"><ele>300.0</ele><time>2026-05-03T16:00:49.481Z</time></trkpt><trkpt lat="39.28927" lon="16.2391833"><ele>300.0</ele><time>2026-05-03T16:00:50.484Z</time></trkpt><trkpt lat="39.2890017" lon="16.2392767"><ele>300.0</ele><time>2026-05-03T16:00:51.482Z</time></trkpt><trkpt lat="39.28873" lon="16.2393783"><ele>285.5</ele><time>2026-05-03T16:00:52.482Z</time></trkpt><trkpt lat="39.28846" lon="16.2394967"><ele>271.0</ele><time>2026-05-03T16:00:53.483Z</time></trkpt><trkpt lat="39.288195" lon="16.2396317"><ele>269.5</ele><time>2026-05-03T16:00:54.482Z</time></trkpt><trkpt lat="39.2879367" lon="16.239785"><ele>268.0</ele><time>2026-05-03T16:00:55.484Z</time></trkpt><trkpt lat="39.287685" lon="16.2399567"><ele>274.5</ele><time>2026-05-03T16:00:56.482Z</time></trkpt><trkpt lat="39.2874383" lon="16.2401383"><ele>281.0</ele><time>2026-05-03T16:00:57.482Z</time></trkpt><trkpt lat="39.2871967" lon="16.240335"><ele>298.5</ele><time>2026-05-03T16:00:58.481Z</time></trkpt><trkpt lat="39.2869633" lon="16.24054"><ele>316.0</ele><time>2026-05-03T16:00:59.483Z</time></trkpt><trkpt lat="39.2867367" lon="16.2407533"><ele>317.0</ele><time>2026-05-03T16:01:00.482Z</time></trkpt><trkpt lat="39.2865117" lon="16.24097"><ele>318.0</ele><time>2026-05-03T16:01:01.483Z</time></trkpt><trkpt lat="39.2862883" lon="16.2411867"><ele>331.0</ele><time>2026-05-03T16:01:02.482Z</time></trkpt><trkpt lat="39.2860567" lon="16.2413983"><ele>344.0</ele><time>2026-05-03T16:01:03.482Z</time></trkpt><trkpt lat="39.2858383" lon="16.241615"><ele>344.0</ele><time>2026-05-03T16:01:04.482Z</time></trkpt><trkpt lat="39.2856217" lon="16.24183"><ele>344.0</ele><time>2026-05-03T16:01:05.481Z</time></trkpt><trkpt lat="39.2854067" lon="16.24204"><ele>350.5</ele><time>2026-05-03T16:01:06.482Z</time></trkpt><trkpt lat="39.2851967" lon="16.2422417"><ele>357.0</ele><time>2026-05-03T16:01:07.481Z</time></trkpt><trkpt lat="39.284985" lon="16.242445"><ele>357.0</ele><time>2026-05-03T16:01:08.482Z</time></trkpt><trkpt lat="39.2847733" lon="16.2426467"><ele>357.0</ele><time>2026-05-03T16:01:09.481Z</time></trkpt><trkpt lat="39.283225" lon="16.2441383"><ele>355.0</ele><time>2026-05-03T16:01:16.482Z</time></trkpt><trkpt lat="39.2829867" lon="16.2443733"><ele>353.0</ele><time>2026-05-03T16:01:17.481Z</time></trkpt><trkpt lat="39.2827683" lon="16.2446233"><ele>341.5</ele><time>2026-05-03T16:01:18.481Z</time></trkpt><trkpt lat="39.2825517" lon="16.2448883"><ele>330.0</ele><time>2026-05-03T16:01:19.482Z</time></trkpt><trkpt lat="39.28234" lon="16.24516"><ele>331.5</ele><time>2026-05-03T16:01:20.483Z</time></trkpt><trkpt lat="39.28213" lon="16.245445"><ele>333.0</ele><time>2026-05-03T16:01:21.481Z</time></trkpt><trkpt lat="39.2819217" lon="16.2457333"><ele>333.0</ele><time>2026-05-03T16:01:22.482Z</time></trkpt><trkpt lat="39.2817133" lon="16.2460233"><ele>333.0</ele><time>2026-05-03T16:01:23.482Z</time></trkpt><trkpt lat="39.2815017" lon="16.2463167"><ele>344.0</ele><time>2026-05-03T16:01:24.482Z</time></trkpt><trkpt lat="39.2812883" lon="16.2466083"><ele>355.0</ele><time>2026-05-03T16:01:25.482Z</time></trkpt><trkpt lat="39.2810733" lon="16.2469017"><ele>355.0</ele><time>2026-05-03T16:01:26.482Z</time></trkpt><trkpt lat="39.2808583" lon="16.2471967"><ele>355.0</ele><time>2026-05-03T16:01:27.482Z</time></trkpt><trkpt lat="39.280645" lon="16.2474917"><ele>359.0</ele><time>2026-05-03T16:01:28.481Z</time></trkpt><trkpt lat="39.2804333" lon="16.2477867"><ele>363.0</ele><time>2026-05-03T16:01:29.482Z</time></trkpt><trkpt lat="39.28022" lon="16.248075"><ele>351.0</ele><time>2026-05-03T16:01:30.482Z</time></trkpt><trkpt lat="39.280005" lon="16.2483517"><ele>339.0</ele><time>2026-05-03T16:01:31.482Z</time></trkpt><trkpt lat="39.2797833" lon="16.2486067"><ele>335.5</ele><time>2026-05-03T16:01:32.483Z</time></trkpt><trkpt lat="39.2795567" lon="16.248825"><ele>332.0</ele><time>2026-05-03T16:01:33.482Z</time></trkpt><trkpt lat="39.2793217" lon="16.2490033"><ele>332.0</ele><time>2026-05-03T16:01:34.483Z</time></trkpt><trkpt lat="39.2790767" lon="16.2491467"><ele>332.0</ele><time>2026-05-03T16:01:35.482Z</time></trkpt><trkpt lat="39.2788267" lon="16.2492567"><ele>342.0</ele><time>2026-05-03T16:01:36.482Z</time></trkpt><trkpt lat="39.27857" lon="16.2493333"><ele>352.0</ele><time>2026-05-03T16:01:37.483Z</time></trkpt><trkpt lat="39.2783067" lon="16.249385"><ele>351.0</ele><time>2026-05-03T16:01:38.486Z</time></trkpt><trkpt lat="39.27804" lon="16.249405"><ele>350.0</ele><time>2026-05-03T16:01:39.481Z</time></trkpt><trkpt lat="39.2777717" lon="16.2493917"><ele>350.0</ele><time>2026-05-03T16:01:40.482Z</time></trkpt><trkpt lat="39.2775133" lon="16.2493433"><ele>350.0</ele><time>2026-05-03T16:01:41.483Z</time></trkpt><trkpt lat="39.2772617" lon="16.2492583"><ele>337.5</ele><time>2026-05-03T16:01:42.482Z</time></trkpt><trkpt lat="39.2770167" lon="16.249145"><ele>325.0</ele><time>2026-05-03T16:01:43.482Z</time></trkpt><trkpt lat="39.2767733" lon="16.249005"><ele>336.0</ele><time>2026-05-03T16:01:44.483Z</time></trkpt><trkpt lat="39.2765317" lon="16.248845"><ele>347.0</ele><time>2026-05-03T16:01:45.482Z</time></trkpt><trkpt lat="39.27629" lon="16.2486783"><ele>347.0</ele><time>2026-05-03T16:01:46.482Z</time></trkpt><trkpt lat="39.276045" lon="16.2485083"><ele>347.0</ele><time>2026-05-03T16:01:47.482Z</time></trkpt><trkpt lat="39.2757967" lon="16.248345"><ele>338.0</ele><time>2026-05-03T16:01:48.482Z</time></trkpt><trkpt lat="39.2755417" lon="16.2481917"><ele>329.0</ele><time>2026-05-03T16:01:49.481Z</time></trkpt><trkpt lat="39.2752833" lon="16.2480517"><ele>341.0</ele><time>2026-05-03T16:01:50.482Z</time></trkpt><trkpt lat="39.2750183" lon="16.247925"><ele>353.0</ele><time>2026-05-03T16:01:51.482Z</time></trkpt><trkpt lat="39.27475" lon="16.2478083"><ele>353.0</ele><time>2026-05-03T16:01:52.482Z</time></trkpt><trkpt lat="39.2744783" lon="16.2477033"><ele>353.0</ele><time>2026-05-03T16:01:53.482Z</time></trkpt><trkpt lat="39.2742067" lon="16.247605"><ele>343.5</ele><time>2026-05-03T16:01:54.482Z</time></trkpt><trkpt lat="39.2739317" lon="16.24751"><ele>334.0</ele><time>2026-05-03T16:01:55.483Z</time></trkpt><trkpt lat="39.2736533" lon="16.24742"><ele>334.0</ele><time>2026-05-03T16:01:56.482Z</time></trkpt><trkpt lat="39.2733717" lon="16.2473317"><ele>334.0</ele><time>2026-05-03T16:01:57.481Z</time></trkpt><trkpt lat="39.273095" lon="16.2472433"><ele>342.0</ele><time>2026-05-03T16:01:58.482Z</time></trkpt><trkpt lat="39.27282" lon="16.247155"><ele>350.0</ele><time>2026-05-03T16:01:59.483Z</time></trkpt><trkpt lat="39.2725517" lon="16.2470683"><ele>350.0</ele><time>2026-05-03T16:02:00.481Z</time></trkpt><trkpt lat="39.2722867" lon="16.246985"><ele>350.0</ele><time>2026-05-03T16:02:01.481Z</time></trkpt><trkpt lat="39.272025" lon="16.246905"><ele>358.0</ele><time>2026-05-03T16:02:02.483Z</time></trkpt><trkpt lat="39.27177" lon="16.2468233"><ele>366.0</ele><time>2026-05-03T16:02:03.481Z</time></trkpt><trkpt lat="39.2715217" lon="16.2467433"><ele>356.0</ele><time>2026-05-03T16:02:04.481Z</time></trkpt><trkpt lat="39.2712833" lon="16.2466667"><ele>346.0</ele><time>2026-05-03T16:02:05.482Z</time></trkpt><trkpt lat="39.2710467" lon="16.2465983"><ele>346.0</ele><time>2026-05-03T16:02:06.482Z</time></trkpt><trkpt lat="39.2708167" lon="16.2465417"><ele>346.0</ele><time>2026-05-03T16:02:07.483Z</time></trkpt><trkpt lat="39.2705883" lon="16.2465017"><ele>344.5</ele><time>2026-05-03T16:02:08.481Z</time></trkpt><trkpt lat="39.27036" lon="16.2464833"><ele>343.0</ele><time>2026-05-03T16:02:09.481Z</time></trkpt><trkpt lat="39.2701333" lon="16.2464883"><ele>343.0</ele><time>2026-05-03T16:02:10.483Z</time></trkpt><trkpt lat="39.2699083" lon="16.2465133"><ele>343.0</ele><time>2026-05-03T16:02:11.481Z</time></trkpt><trkpt lat="39.2696817" lon="16.2465633"><ele>349.5</ele><time>2026-05-03T16:02:12.482Z</time></trkpt><trkpt lat="39.2694583" lon="16.24664"><ele>356.0</ele><time>2026-05-03T16:02:13.483Z</time></trkpt><trkpt lat="39.2692367" lon="16.2467433"><ele>356.0</ele><time>2026-05-03T16:02:14.482Z</time></trkpt><trkpt lat="39.2690167" lon="16.2468733"><ele>356.0</ele><time>2026-05-03T16:02:15.482Z</time></trkpt><trkpt lat="39.2687967" lon="16.2470317"><ele>363.0</ele><time>2026-05-03T16:02:16.482Z</time></trkpt><trkpt lat="39.26858" lon="16.2472167"><ele>370.0</ele><time>2026-05-03T16:02:17.482Z</time></trkpt><trkpt lat="39.268355" lon="16.2474183"><ele>370.0</ele><time>2026-05-03T16:02:18.48Z</time></trkpt><trkpt lat="39.2681317" lon="16.247635"><ele>370.0</ele><time>2026-05-03T16:02:19.48Z</time></trkpt><trkpt lat="39.26791" lon="16.247855"><ele>374.0</ele><time>2026-05-03T16:02:20.482Z</time></trkpt><trkpt lat="39.2676883" lon="16.2480733"><ele>378.0</ele><time>2026-05-03T16:02:21.483Z</time></trkpt><trkpt lat="39.2674633" lon="16.24829"><ele>394.5</ele><time>2026-05-03T16:02:22.485Z</time></trkpt><trkpt lat="39.26723" lon="16.2485"><ele>411.0</ele><time>2026-05-03T16:02:23.482Z</time></trkpt><trkpt lat="39.2669883" lon="16.2486917"><ele>411.0</ele><time>2026-05-03T16:02:24.482Z</time></trkpt><trkpt lat="39.2667333" lon="16.2488583"><ele>411.0</ele><time>2026-05-03T16:02:25.482Z</time></trkpt><trkpt lat="39.26647" lon="16.249005"><ele>391.5</ele><time>2026-05-03T16:02:26.483Z</time></trkpt><trkpt lat="39.266195" lon="16.24914"><ele>372.0</ele><time>2026-05-03T16:02:27.482Z</time></trkpt><trkpt lat="39.2659133" lon="16.249265"><ele>372.0</ele><time>2026-05-03T16:02:28.483Z</time></trkpt><trkpt lat="39.26563" lon="16.249385"><ele>372.0</ele><time>2026-05-03T16:02:29.481Z</time></trkpt><trkpt lat="39.2653467" lon="16.2495033"><ele>391.5</ele><time>2026-05-03T16:02:30.482Z</time></trkpt><trkpt lat="39.265065" lon="16.2496217"><ele>411.0</ele><time>2026-05-03T16:02:31.481Z</time></trkpt><trkpt lat="39.264785" lon="16.2497383"><ele>406.0</ele><time>2026-05-03T16:02:32.483Z</time></trkpt><trkpt lat="39.2645067" lon="16.2498567"><ele>401.0</ele><time>2026-05-03T16:02:33.481Z</time></trkpt><trkpt lat="39.2642317" lon="16.2499733"><ele>401.0</ele><time>2026-05-03T16:02:34.482Z</time></trkpt><trkpt lat="39.2639567" lon="16.2500783"><ele>401.0</ele><time>2026-05-03T16:02:35.482Z</time></trkpt><trkpt lat="39.26368" lon="16.2501883"><ele>400.5</ele><time>2026-05-03T16:02:36.482Z</time></trkpt><trkpt lat="39.263405" lon="16.2503033"><ele>400.0</ele><time>2026-05-03T16:02:37.482Z</time></trkpt><trkpt lat="39.2631317" lon="16.2504367"><ele>398.0</ele><time>2026-05-03T16:02:38.482Z</time></trkpt><trkpt lat="39.2628667" lon="16.2505883"><ele>396.0</ele><time>2026-05-03T16:02:39.483Z</time></trkpt><trkpt lat="39.262605" lon="16.2507533"><ele>376.5</ele><time>2026-05-03T16:02:40.482Z</time></trkpt><trkpt lat="39.262355" lon="16.2509283"><ele>357.0</ele><time>2026-05-03T16:02:41.482Z</time></trkpt><trkpt lat="39.2621083" lon="16.25111"><ele>357.0</ele><time>2026-05-03T16:02:42.482Z</time></trkpt><trkpt lat="39.2618633" lon="16.2513017"><ele>357.0</ele><time>2026-05-03T16:02:43.481Z</time></trkpt><trkpt lat="39.2616267" lon="16.2515017"><ele>390.0</ele><time>2026-05-03T16:02:44.483Z</time></trkpt><trkpt lat="39.2613933" lon="16.251705"><ele>423.0</ele><time>2026-05-03T16:02:45.481Z</time></trkpt><trkpt lat="39.2611667" lon="16.2519167"><ele>423.0</ele><time>2026-05-03T16:02:46.481Z</time></trkpt><trkpt lat="39.2609417" lon="16.25213"><ele>423.0</ele><time>2026-05-03T16:02:47.481Z</time></trkpt><trkpt lat="39.26072" lon="16.25234"><ele>436.5</ele><time>2026-05-03T16:02:48.482Z</time></trkpt><trkpt lat="39.2605017" lon="16.252555"><ele>450.0</ele><time>2026-05-03T16:02:49.482Z</time></trkpt><trkpt lat="39.26028" lon="16.2527733"><ele>450.0</ele><time>2026-05-03T16:02:50.482Z</time></trkpt><trkpt lat="39.2600583" lon="16.2529883"><ele>450.0</ele><time>2026-05-03T16:02:51.481Z</time></trkpt><trkpt lat="39.2598617" lon="16.2531967"><ele>445.5</ele><time>2026-05-03T16:02:52.482Z</time></trkpt><trkpt lat="39.2597067" lon="16.253535"><ele>441.0</ele><time>2026-05-03T16:02:53.483Z</time></trkpt><trkpt lat="39.2595333" lon="16.253845"><ele>422.5</ele><time>2026-05-03T16:02:54.481Z</time></trkpt><trkpt lat="39.2593683" lon="16.25417"><ele>404.0</ele><time>2026-05-03T16:02:55.482Z</time></trkpt><trkpt lat="39.259205" lon="16.2544867"><ele>396.5</ele><time>2026-05-03T16:02:56.482Z</time></trkpt><trkpt lat="39.2590483" lon="16.2547967"><ele>389.0</ele><time>2026-05-03T16:02:57.482Z</time></trkpt><trkpt lat="39.2588983" lon="16.2551167"><ele>401.5</ele><time>2026-05-03T16:02:58.481Z</time></trkpt><trkpt lat="39.25875" lon="16.2554367"><ele>414.0</ele><time>2026-05-03T16:02:59.482Z</time></trkpt><trkpt lat="39.2586017" lon="16.255745"><ele>414.0</ele><time>2026-05-03T16:03:00.482Z</time></trkpt><trkpt lat="39.2584583" lon="16.25605"><ele>414.0</ele><time>2026-05-03T16:03:01.482Z</time></trkpt><trkpt lat="39.2583133" lon="16.25634"><ele>421.5</ele><time>2026-05-03T16:03:02.483Z</time></trkpt><trkpt lat="39.25818" lon="16.256625"><ele>429.0</ele><time>2026-05-03T16:03:03.482Z</time></trkpt><trkpt lat="39.2580367" lon="16.2569567"><ele>424.5</ele><time>2026-05-03T16:03:04.483Z</time></trkpt><trkpt lat="39.2579033" lon="16.2572867"><ele>420.0</ele><time>2026-05-03T16:03:05.483Z</time></trkpt><trkpt lat="39.257785" lon="16.257615"><ele>420.0</ele><time>2026-05-03T16:03:06.483Z</time></trkpt><trkpt lat="39.2576833" lon="16.2579517"><ele>420.0</ele><time>2026-05-03T16:03:07.483Z</time></trkpt><trkpt lat="39.2575967" lon="16.2582917"><ele>414.0</ele><time>2026-05-03T16:03:08.483Z</time></trkpt><trkpt lat="39.2575217" lon="16.2586333"><ele>408.0</ele><time>2026-05-03T16:03:09.483Z</time></trkpt><trkpt lat="39.2574633" lon="16.2589817"><ele>406.0</ele><time>2026-05-03T16:03:10.483Z</time></trkpt><trkpt lat="39.2574217" lon="16.2593333"><ele>404.0</ele><time>2026-05-03T16:03:11.481Z</time></trkpt><trkpt lat="39.2573933" lon="16.25969"><ele>400.0</ele><time>2026-05-03T16:03:12.482Z</time></trkpt><trkpt lat="39.257375" lon="16.2600517"><ele>396.0</ele><time>2026-05-03T16:03:13.481Z</time></trkpt><trkpt lat="39.2573567" lon="16.2604183"><ele>385.5</ele><time>2026-05-03T16:03:14.483Z</time></trkpt><trkpt lat="39.2573333" lon="16.2607917"><ele>375.0</ele><time>2026-05-03T16:03:15.482Z</time></trkpt><trkpt lat="39.2573083" lon="16.2611683"><ele>372.5</ele><time>2026-05-03T16:03:16.482Z</time></trkpt><trkpt lat="39.2572817" lon="16.2615467"><ele>370.0</ele><time>2026-05-03T16:03:17.482Z</time></trkpt><trkpt lat="39.2572583" lon="16.2619283"><ele>376.0</ele><time>2026-05-03T16:03:18.482Z</time></trkpt><trkpt lat="39.2572367" lon="16.2623083"><ele>382.0</ele><time>2026-05-03T16:03:19.482Z</time></trkpt><trkpt lat="39.257215" lon="16.2626933"><ele>382.0</ele><time>2026-05-03T16:03:20.483Z</time></trkpt><trkpt lat="39.257185" lon="16.26308"><ele>382.0</ele><time>2026-05-03T16:03:21.482Z</time></trkpt><trkpt lat="39.257145" lon="16.2634733"><ele>402.5</ele><time>2026-05-03T16:03:22.481Z</time></trkpt><trkpt lat="39.2571" lon="16.2638683"><ele>423.0</ele><time>2026-05-03T16:03:23.482Z</time></trkpt><trkpt lat="39.2570467" lon="16.2642633"><ele>431.0</ele><time>2026-05-03T16:03:24.482Z</time></trkpt><trkpt lat="39.2569883" lon="16.2646583"><ele>439.0</ele><time>2026-05-03T16:03:25.482Z</time></trkpt><trkpt lat="39.2569233" lon="16.265055"><ele>439.0</ele><time>2026-05-03T16:03:26.482Z</time></trkpt><trkpt lat="39.2568483" lon="16.2654517"><ele>439.0</ele><time>2026-05-03T16:03:27.482Z</time></trkpt><trkpt lat="39.256765" lon="16.2658467"><ele>434.5</ele><time>2026-05-03T16:03:28.482Z</time></trkpt><trkpt lat="39.2566717" lon="16.2662367"><ele>430.0</ele><time>2026-05-03T16:03:29.482Z</time></trkpt><trkpt lat="39.2565717" lon="16.26662"><ele>423.5</ele><time>2026-05-03T16:03:30.481Z</time></trkpt><trkpt lat="39.2564683" lon="16.266995"><ele>417.0</ele><time>2026-05-03T16:03:31.483Z</time></trkpt><trkpt lat="39.2563583" lon="16.267365"><ele>437.0</ele><time>2026-05-03T16:03:32.485Z</time></trkpt><trkpt lat="39.2562467" lon="16.2677283"><ele>457.0</ele><time>2026-05-03T16:03:33.482Z</time></trkpt><trkpt lat="39.2561367" lon="16.26809"><ele>448.5</ele><time>2026-05-03T16:03:34.481Z</time></trkpt><trkpt lat="39.2560583" lon="16.2684383"><ele>440.0</ele><time>2026-05-03T16:03:35.483Z</time></trkpt><trkpt lat="39.25594" lon="16.2687767"><ele>436.0</ele><time>2026-05-03T16:03:36.481Z</time></trkpt><trkpt lat="39.2558183" lon="16.2691167"><ele>432.0</ele><time>2026-05-03T16:03:37.482Z</time></trkpt><trkpt lat="39.2556983" lon="16.2694633"><ele>436.0</ele><time>2026-05-03T16:03:38.481Z</time></trkpt><trkpt lat="39.255575" lon="16.269805"><ele>440.0</ele><time>2026-05-03T16:03:39.482Z</time></trkpt><trkpt lat="39.2554433" lon="16.2701367"><ele>440.0</ele><time>2026-05-03T16:03:40.481Z</time></trkpt><trkpt lat="39.2553033" lon="16.2704683"><ele>440.0</ele><time>2026-05-03T16:03:41.482Z</time></trkpt><trkpt lat="39.2551517" lon="16.2707967"><ele>435.5</ele><time>2026-05-03T16:03:42.481Z</time></trkpt><trkpt lat="39.2549967" lon="16.2711183"><ele>431.0</ele><time>2026-05-03T16:03:43.481Z</time></trkpt><trkpt lat="39.25484" lon="16.2714383"><ele>430.5</ele><time>2026-05-03T16:03:44.481Z</time></trkpt><trkpt lat="39.2546817" lon="16.2717617"><ele>430.0</ele><time>2026-05-03T16:03:45.482Z</time></trkpt><trkpt lat="39.2545267" lon="16.2720867"><ele>432.5</ele><time>2026-05-03T16:03:46.481Z</time></trkpt><trkpt lat="39.25437" lon="16.2724117"><ele>435.0</ele><time>2026-05-03T16:03:47.482Z</time></trkpt><trkpt lat="39.2542133" lon="16.2727383"><ele>435.0</ele><time>2026-05-03T16:03:48.482Z</time></trkpt><trkpt lat="39.2540567" lon="16.2730633"><ele>435.0</ele><time>2026-05-03T16:03:49.483Z</time></trkpt><trkpt lat="39.2538983" lon="16.2733867"><ele>450.0</ele><time>2026-05-03T16:03:50.482Z</time></trkpt><trkpt lat="39.2537433" lon="16.2737083"><ele>465.0</ele><time>2026-05-03T16:03:51.482Z</time></trkpt><trkpt lat="39.25359" lon="16.2740317"><ele>465.0</ele><time>2026-05-03T16:03:52.482Z</time></trkpt><trkpt lat="39.2534383" lon="16.27435"><ele>465.0</ele><time>2026-05-03T16:03:53.482Z</time></trkpt><trkpt lat="39.2532867" lon="16.2746633"><ele>459.5</ele><time>2026-05-03T16:03:54.483Z</time></trkpt><trkpt lat="39.253135" lon="16.274975"><ele>454.0</ele><time>2026-05-03T16:03:55.482Z</time></trkpt><trkpt lat="39.252985" lon="16.275285"><ele>464.0</ele><time>2026-05-03T16:03:56.483Z</time></trkpt><trkpt lat="39.2528233" lon="16.275595"><ele>474.0</ele><time>2026-05-03T16:03:57.482Z</time></trkpt><trkpt lat="39.2526667" lon="16.275885"><ele>474.0</ele><time>2026-05-03T16:03:58.482Z</time></trkpt><trkpt lat="39.2524783" lon="16.27618"><ele>474.0</ele><time>2026-05-03T16:03:59.483Z</time></trkpt><trkpt lat="39.2522817" lon="16.2764667"><ele>477.5</ele><time>2026-05-03T16:04:00.481Z</time></trkpt><trkpt lat="39.2520833" lon="16.27675"><ele>481.0</ele><time>2026-05-03T16:04:01.482Z</time></trkpt><trkpt lat="39.25188" lon="16.277035"><ele>482.0</ele><time>2026-05-03T16:04:02.482Z</time></trkpt><trkpt lat="39.2516667" lon="16.277315"><ele>483.0</ele><time>2026-05-03T16:04:03.482Z</time></trkpt><trkpt lat="39.251445" lon="16.2775883"><ele>483.0</ele><time>2026-05-03T16:04:04.482Z</time></trkpt><trkpt lat="39.25122" lon="16.2778467"><ele>483.0</ele><time>2026-05-03T16:04:05.482Z</time></trkpt><trkpt lat="39.2509883" lon="16.278095"><ele>487.5</ele><time>2026-05-03T16:04:06.482Z</time></trkpt><trkpt lat="39.2507533" lon="16.2783333"><ele>492.0</ele><time>2026-05-03T16:04:07.482Z</time></trkpt><trkpt lat="39.2505083" lon="16.2785567"><ele>492.0</ele><time>2026-05-03T16:04:08.482Z</time></trkpt><trkpt lat="39.2502567" lon="16.278765"><ele>492.0</ele><time>2026-05-03T16:04:09.481Z</time></trkpt><trkpt lat="39.25" lon="16.278965"><ele>492.0</ele><time>2026-05-03T16:04:10.482Z</time></trkpt><trkpt lat="39.2497383" lon="16.279155"><ele>492.0</ele><time>2026-05-03T16:04:11.485Z</time></trkpt><trkpt lat="39.2494717" lon="16.2793417"><ele>492.0</ele><time>2026-05-03T16:04:12.482Z</time></trkpt><trkpt lat="39.249205" lon="16.2795283"><ele>492.0</ele><time>2026-05-03T16:04:13.482Z</time></trkpt><trkpt lat="39.2489367" lon="16.279715"><ele>490.5</ele><time>2026-05-03T16:04:14.483Z</time></trkpt><trkpt lat="39.2486783" lon="16.27991"><ele>489.0</ele><time>2026-05-03T16:04:15.482Z</time></trkpt><trkpt lat="39.2484233" lon="16.280115"><ele>489.0</ele><time>2026-05-03T16:04:16.481Z</time></trkpt><trkpt lat="39.2481667" lon="16.2803233"><ele>489.0</ele><time>2026-05-03T16:04:17.482Z</time></trkpt><trkpt lat="39.247915" lon="16.280545"><ele>493.5</ele><time>2026-05-03T16:04:18.481Z</time></trkpt><trkpt lat="39.2476683" lon="16.280775"><ele>498.0</ele><time>2026-05-03T16:04:19.482Z</time></trkpt><trkpt lat="39.24742" lon="16.281015"><ele>501.5</ele><time>2026-05-03T16:04:20.482Z</time></trkpt><trkpt lat="39.2471733" lon="16.281255"><ele>505.0</ele><time>2026-05-03T16:04:21.483Z</time></trkpt><trkpt lat="39.2469283" lon="16.2814883"><ele>505.0</ele><time>2026-05-03T16:04:22.481Z</time></trkpt><trkpt lat="39.246685" lon="16.281715"><ele>505.0</ele><time>2026-05-03T16:04:23.483Z</time></trkpt><trkpt lat="39.24644" lon="16.2819383"><ele>510.0</ele><time>2026-05-03T16:04:24.481Z</time></trkpt><trkpt lat="39.2462017" lon="16.2821567"><ele>515.0</ele><time>2026-05-03T16:04:25.482Z</time></trkpt><trkpt lat="39.2459683" lon="16.282365"><ele>515.0</ele><time>2026-05-03T16:04:26.481Z</time></trkpt><trkpt lat="39.2457283" lon="16.28258"><ele>515.0</ele><time>2026-05-03T16:04:27.481Z</time></trkpt><trkpt lat="39.2454767" lon="16.28279"><ele>514.0</ele><time>2026-05-03T16:04:28.482Z</time></trkpt><trkpt lat="39.24523" lon="16.283015"><ele>513.0</ele><time>2026-05-03T16:04:29.481Z</time></trkpt><trkpt lat="39.244985" lon="16.2832317"><ele>519.5</ele><time>2026-05-03T16:04:30.482Z</time></trkpt><trkpt lat="39.2447417" lon="16.2834583"><ele>526.0</ele><time>2026-05-03T16:04:31.482Z</time></trkpt><trkpt lat="39.2444967" lon="16.28369"><ele>521.5</ele><time>2026-05-03T16:04:32.481Z</time></trkpt><trkpt lat="39.24426" lon="16.2839333"><ele>517.0</ele><time>2026-05-03T16:04:33.481Z</time></trkpt><trkpt lat="39.2440267" lon="16.28418"><ele>524.0</ele><time>2026-05-03T16:04:34.482Z</time></trkpt><trkpt lat="39.2437967" lon="16.2844317"><ele>531.0</ele><time>2026-05-03T16:04:35.481Z</time></trkpt><trkpt lat="39.2435683" lon="16.2846817"><ele>527.0</ele><time>2026-05-03T16:04:36.483Z</time></trkpt><trkpt lat="39.2433567" lon="16.2849433"><ele>523.0</ele><time>2026-05-03T16:04:37.481Z</time></trkpt><trkpt lat="39.2431567" lon="16.2852583"><ele>525.5</ele><time>2026-05-03T16:04:38.482Z</time></trkpt><trkpt lat="39.2429633" lon="16.2855767"><ele>528.0</ele><time>2026-05-03T16:04:39.482Z</time></trkpt><trkpt lat="39.2427633" lon="16.2858833"><ele>529.5</ele><time>2026-05-03T16:04:40.481Z</time></trkpt><trkpt lat="39.242565" lon="16.2861917"><ele>531.0</ele><time>2026-05-03T16:04:41.481Z</time></trkpt><trkpt lat="39.2423717" lon="16.2864933"><ele>529.0</ele><time>2026-05-03T16:04:42.482Z</time></trkpt><trkpt lat="39.24218" lon="16.286785"><ele>527.0</ele><time>2026-05-03T16:04:43.481Z</time></trkpt><trkpt lat="39.241985" lon="16.2870733"><ele>528.5</ele><time>2026-05-03T16:04:44.484Z</time></trkpt><trkpt lat="39.2417933" lon="16.2873583"><ele>530.0</ele><time>2026-05-03T16:04:45.482Z</time></trkpt><trkpt lat="39.241605" lon="16.2876383"><ele>529.5</ele><time>2026-05-03T16:04:46.482Z</time></trkpt><trkpt lat="39.2414217" lon="16.2879167"><ele>529.0</ele><time>2026-05-03T16:04:47.482Z</time></trkpt><trkpt lat="39.241235" lon="16.2881967"><ele>533.5</ele><time>2026-05-03T16:04:48.482Z</time></trkpt><trkpt lat="39.2410417" lon="16.28848"><ele>538.0</ele><time>2026-05-03T16:04:49.483Z</time></trkpt><trkpt lat="39.240835" lon="16.2887567"><ele>533.5</ele><time>2026-05-03T16:04:50.483Z</time></trkpt><trkpt lat="39.2406117" lon="16.2890283"><ele>529.0</ele><time>2026-05-03T16:04:51.481Z</time></trkpt><trkpt lat="39.2403767" lon="16.2892933"><ele>529.0</ele><time>2026-05-03T16:04:52.483Z</time></trkpt><trkpt lat="39.2401333" lon="16.28955"><ele>529.0</ele><time>2026-05-03T16:04:53.484Z</time></trkpt><trkpt lat="39.239885" lon="16.2898017"><ele>532.0</ele><time>2026-05-03T16:04:54.483Z</time></trkpt><trkpt lat="39.23963" lon="16.2900533"><ele>535.0</ele><time>2026-05-03T16:04:55.482Z</time></trkpt><trkpt lat="39.2393783" lon="16.2903067"><ele>535.0</ele><time>2026-05-03T16:04:56.482Z</time></trkpt><trkpt lat="39.2391317" lon="16.2905617"><ele>535.0</ele><time>2026-05-03T16:04:57.483Z</time></trkpt><trkpt lat="39.238895" lon="16.290815"><ele>534.5</ele><time>2026-05-03T16:04:58.483Z</time></trkpt><trkpt lat="39.23867" lon="16.2910683"><ele>534.0</ele><time>2026-05-03T16:04:59.482Z</time></trkpt><trkpt lat="39.2384517" lon="16.2913233"><ele>530.5</ele><time>2026-05-03T16:05:00.482Z</time></trkpt><trkpt lat="39.23824" lon="16.291585"><ele>527.0</ele><time>2026-05-03T16:05:01.482Z</time></trkpt><trkpt lat="39.238035" lon="16.2918533"><ele>527.0</ele><time>2026-05-03T16:05:02.482Z</time></trkpt><trkpt lat="39.2378367" lon="16.2921267"><ele>527.0</ele><time>2026-05-03T16:05:03.482Z</time></trkpt><trkpt lat="39.23764" lon="16.2924"><ele>527.5</ele><time>2026-05-03T16:05:04.482Z</time></trkpt><trkpt lat="39.2374383" lon="16.29267"><ele>528.0</ele><time>2026-05-03T16:05:05.481Z</time></trkpt><trkpt lat="39.237235" lon="16.2929433"><ele>535.0</ele><time>2026-05-03T16:05:06.482Z</time></trkpt><trkpt lat="39.23703" lon="16.2932217"><ele>542.0</ele><time>2026-05-03T16:05:07.482Z</time></trkpt><trkpt lat="39.2368267" lon="16.2935017"><ele>542.0</ele><time>2026-05-03T16:05:08.483Z</time></trkpt><trkpt lat="39.2366217" lon="16.293785"><ele>542.0</ele><time>2026-05-03T16:05:09.482Z</time></trkpt><trkpt lat="39.2364167" lon="16.29407"><ele>542.0</ele><time>2026-05-03T16:05:10.482Z</time></trkpt><trkpt lat="39.2362117" lon="16.2943583"><ele>542.0</ele><time>2026-05-03T16:05:11.481Z</time></trkpt><trkpt lat="39.2360033" lon="16.2946467"><ele>542.0</ele><time>2026-05-03T16:05:12.481Z</time></trkpt><trkpt lat="39.2357933" lon="16.2949367"><ele>542.0</ele><time>2026-05-03T16:05:13.483Z</time></trkpt><trkpt lat="39.2355783" lon="16.2952283"><ele>542.0</ele><time>2026-05-03T16:05:14.482Z</time></trkpt><trkpt lat="39.235365" lon="16.2955217"><ele>542.0</ele><time>2026-05-03T16:05:15.481Z</time></trkpt><trkpt lat="39.23515" lon="16.295815"><ele>543.0</ele><time>2026-05-03T16:05:16.482Z</time></trkpt><trkpt lat="39.2349317" lon="16.2961117"><ele>544.0</ele><time>2026-05-03T16:05:17.482Z</time></trkpt><trkpt lat="39.2347133" lon="16.2964067"><ele>552.5</ele><time>2026-05-03T16:05:18.482Z</time></trkpt><trkpt lat="39.2344967" lon="16.2967"><ele>561.0</ele><time>2026-05-03T16:05:19.482Z</time></trkpt><trkpt lat="39.23428" lon="16.2969917"><ele>559.5</ele><time>2026-05-03T16:05:20.481Z</time></trkpt><trkpt lat="39.2340667" lon="16.2972833"><ele>558.0</ele><time>2026-05-03T16:05:21.482Z</time></trkpt><trkpt lat="39.2338533" lon="16.2975767"><ele>558.0</ele><time>2026-05-03T16:05:22.481Z</time></trkpt><trkpt lat="39.2336433" lon="16.2978683"><ele>558.0</ele><time>2026-05-03T16:05:23.482Z</time></trkpt><trkpt lat="39.2334383" lon="16.29815"><ele>557.5</ele><time>2026-05-03T16:05:24.482Z</time></trkpt><trkpt lat="39.2332383" lon="16.2984217"><ele>557.0</ele><time>2026-05-03T16:05:25.483Z</time></trkpt><trkpt lat="39.2330433" lon="16.298685"><ele>564.5</ele><time>2026-05-03T16:05:26.482Z</time></trkpt><trkpt lat="39.23285" lon="16.2989417"><ele>572.0</ele><time>2026-05-03T16:05:27.482Z</time></trkpt><trkpt lat="39.23266" lon="16.2992"><ele>572.0</ele><time>2026-05-03T16:05:28.483Z</time></trkpt><trkpt lat="39.2324733" lon="16.299465"><ele>572.0</ele><time>2026-05-03T16:05:29.481Z</time></trkpt><trkpt lat="39.2322817" lon="16.2997283"><ele>571.5</ele><time>2026-05-03T16:05:30.482Z</time></trkpt><trkpt lat="39.2320867" lon="16.2999917"><ele>571.0</ele><time>2026-05-03T16:05:31.483Z</time></trkpt><trkpt lat="39.231895" lon="16.3002533"><ele>571.0</ele><time>2026-05-03T16:05:32.482Z</time></trkpt><trkpt lat="39.2317067" lon="16.30052"><ele>571.0</ele><time>2026-05-03T16:05:33.483Z</time></trkpt><trkpt lat="39.2315133" lon="16.3007867"><ele>571.5</ele><time>2026-05-03T16:05:34.482Z</time></trkpt><trkpt lat="39.23132" lon="16.3010567"><ele>572.0</ele><time>2026-05-03T16:05:35.482Z</time></trkpt><trkpt lat="39.2311267" lon="16.30133"><ele>577.0</ele><time>2026-05-03T16:05:36.483Z</time></trkpt><trkpt lat="39.23093" lon="16.3016017"><ele>582.0</ele><time>2026-05-03T16:05:37.483Z</time></trkpt><trkpt lat="39.2307317" lon="16.3018717"><ele>582.5</ele><time>2026-05-03T16:05:38.482Z</time></trkpt><trkpt lat="39.23053" lon="16.3021383"><ele>583.0</ele><time>2026-05-03T16:05:39.482Z</time></trkpt><trkpt lat="39.2303233" lon="16.3023917"><ele>583.0</ele><time>2026-05-03T16:05:40.481Z</time></trkpt><trkpt lat="39.2301067" lon="16.3026267"><ele>583.0</ele><time>2026-05-03T16:05:41.484Z</time></trkpt><trkpt lat="39.2298867" lon="16.3028333"><ele>581.5</ele><time>2026-05-03T16:05:42.481Z</time></trkpt><trkpt lat="39.2296667" lon="16.3030183"><ele>580.0</ele><time>2026-05-03T16:05:43.483Z</time></trkpt><trkpt lat="39.22944" lon="16.3031783"><ele>584.0</ele><time>2026-05-03T16:05:44.483Z</time></trkpt><trkpt lat="39.22921" lon="16.30332"><ele>588.0</ele><time>2026-05-03T16:05:45.482Z</time></trkpt><trkpt lat="39.2289717" lon="16.3034467"><ele>588.0</ele><time>2026-05-03T16:05:46.482Z</time></trkpt><trkpt lat="39.2287317" lon="16.3035567"><ele>588.0</ele><time>2026-05-03T16:05:47.482Z</time></trkpt><trkpt lat="39.2284933" lon="16.3036467"><ele>588.0</ele><time>2026-05-03T16:05:48.482Z</time></trkpt><trkpt lat="39.22826" lon="16.303715"><ele>588.0</ele><time>2026-05-03T16:05:49.482Z</time></trkpt><trkpt lat="39.2280367" lon="16.3037667"><ele>589.0</ele><time>2026-05-03T16:05:50.481Z</time></trkpt><trkpt lat="39.22782" lon="16.303805"><ele>590.0</ele><time>2026-05-03T16:05:51.482Z</time></trkpt><trkpt lat="39.227615" lon="16.3038367"><ele>591.0</ele><time>2026-05-03T16:05:52.482Z</time></trkpt><trkpt lat="39.2274217" lon="16.30386"><ele>593.6666666666666</ele><time>2026-05-03T16:05:53.482Z</time></trkpt><trkpt lat="39.2272367" lon="16.3038833"><ele>596.3333333333333</ele><time>2026-05-03T16:05:54.482Z</time></trkpt><trkpt lat="39.2270617" lon="16.3039033"><ele>599.0</ele><time>2026-05-03T16:05:55.484Z</time></trkpt><trkpt lat="39.2268967" lon="16.3039217"><ele>601.0</ele><time>2026-05-03T16:05:56.481Z</time></trkpt><trkpt lat="39.2267367" lon="16.3039383"><ele>603.0</ele><time>2026-05-03T16:05:57.482Z</time></trkpt><trkpt lat="39.226575" lon="16.3039533"><ele>605.0</ele><time>2026-05-03T16:05:58.483Z</time></trkpt><trkpt lat="39.2264167" lon="16.303975"><ele>606.3333333333333</ele><time>2026-05-03T16:05:59.483Z</time></trkpt><trkpt lat="39.2262567" lon="16.303995"><ele>607.6666666666666</ele><time>2026-05-03T16:06:00.482Z</time></trkpt><trkpt lat="39.2261" lon="16.304015"><ele>609.0</ele><time>2026-05-03T16:06:01.482Z</time></trkpt><trkpt lat="39.22595" lon="16.3040333"><ele>609.0</ele><time>2026-05-03T16:06:02.482Z</time></trkpt><trkpt lat="39.225805" lon="16.3040517"><ele>609.0</ele><time>2026-05-03T16:06:03.483Z</time></trkpt><trkpt lat="39.2256633" lon="16.30407"><ele>609.0</ele><time>2026-05-03T16:06:04.484Z</time></trkpt><trkpt lat="39.2255233" lon="16.3040867"><ele>609.0</ele><time>2026-05-03T16:06:05.482Z</time></trkpt><trkpt lat="39.225385" lon="16.304105"><ele>610.0</ele><time>2026-05-03T16:06:06.482Z</time></trkpt><trkpt lat="39.2252483" lon="16.304125"><ele>611.0</ele><time>2026-05-03T16:06:07.482Z</time></trkpt><trkpt lat="39.2251133" lon="16.3041417"><ele>612.0</ele><time>2026-05-03T16:06:08.483Z</time></trkpt><trkpt lat="39.224975" lon="16.3041567"><ele>613.0</ele><time>2026-05-03T16:06:09.482Z</time></trkpt><trkpt lat="39.2248383" lon="16.3041733"><ele>614.5</ele><time>2026-05-03T16:06:10.482Z</time></trkpt><trkpt lat="39.2247017" lon="16.3041883"><ele>616.0</ele><time>2026-05-03T16:06:11.483Z</time></trkpt><trkpt lat="39.22456" lon="16.3042"><ele>617.5</ele><time>2026-05-03T16:06:12.482Z</time></trkpt><trkpt lat="39.2244183" lon="16.3042183"><ele>619.0</ele><time>2026-05-03T16:06:13.482Z</time></trkpt><trkpt lat="39.2242783" lon="16.3042367"><ele>619.0</ele><time>2026-05-03T16:06:14.483Z</time></trkpt><trkpt lat="39.22414" lon="16.3042667"><ele>619.0</ele><time>2026-05-03T16:06:15.482Z</time></trkpt><trkpt lat="39.22399" lon="16.30429"><ele>619.0</ele><time>2026-05-03T16:06:16.487Z</time></trkpt><trkpt lat="39.2238333" lon="16.3043133"><ele>619.0</ele><time>2026-05-03T16:06:17.482Z</time></trkpt><trkpt lat="39.2236317" lon="16.3043167"><ele>620.0</ele><time>2026-05-03T16:06:18.482Z</time></trkpt><trkpt lat="39.2234633" lon="16.3043117"><ele>621.0</ele><time>2026-05-03T16:06:19.481Z</time></trkpt><trkpt lat="39.2233133" lon="16.30434"><ele>622.0</ele><time>2026-05-03T16:06:20.482Z</time></trkpt><trkpt lat="39.2231417" lon="16.304355"><ele>622.6666666666667</ele><time>2026-05-03T16:06:21.482Z</time></trkpt><trkpt lat="39.2229667" lon="16.30438"><ele>623.3333333333334</ele><time>2026-05-03T16:06:22.482Z</time></trkpt><trkpt lat="39.222785" lon="16.3043983"><ele>624.0</ele><time>2026-05-03T16:06:23.482Z</time></trkpt><trkpt lat="39.2226083" lon="16.3044217"><ele>624.0</ele><time>2026-05-03T16:06:24.482Z</time></trkpt><trkpt lat="39.2224333" lon="16.3044483"><ele>624.0</ele><time>2026-05-03T16:06:25.482Z</time></trkpt><trkpt lat="39.22226" lon="16.3044733"><ele>624.0</ele><time>2026-05-03T16:06:26.481Z</time></trkpt><trkpt lat="39.2220817" lon="16.3045"><ele>623.6666666666666</ele><time>2026-05-03T16:06:27.483Z</time></trkpt><trkpt lat="39.2218983" lon="16.30452"><ele>623.3333333333333</ele><time>2026-05-03T16:06:28.482Z</time></trkpt><trkpt lat="39.2217117" lon="16.30454"><ele>623.0</ele><time>2026-05-03T16:06:29.481Z</time></trkpt><trkpt lat="39.22152" lon="16.3045633"><ele>623.6666666666666</ele><time>2026-05-03T16:06:30.482Z</time></trkpt><trkpt lat="39.221325" lon="16.3045867"><ele>624.3333333333334</ele><time>2026-05-03T16:06:31.485Z</time></trkpt><trkpt lat="39.2211267" lon="16.3046083"><ele>625.0</ele><time>2026-05-03T16:06:32.486Z</time></trkpt><trkpt lat="39.220925" lon="16.3046317"><ele>625.0</ele><time>2026-05-03T16:06:33.482Z</time></trkpt><trkpt lat="39.2207183" lon="16.3046567"><ele>625.0</ele><time>2026-05-03T16:06:34.482Z</time></trkpt><trkpt lat="39.2205083" lon="16.3046833"><ele>625.0</ele><time>2026-05-03T16:06:35.481Z</time></trkpt><trkpt lat="39.2202933" lon="16.3047083"><ele>624.6666666666667</ele><time>2026-05-03T16:06:36.482Z</time></trkpt><trkpt lat="39.2200817" lon="16.304735"><ele>624.3333333333334</ele><time>2026-05-03T16:06:37.48Z</time></trkpt><trkpt lat="39.2198683" lon="16.3047617"><ele>624.0</ele><time>2026-05-03T16:06:38.482Z</time></trkpt><trkpt lat="39.2196583" lon="16.3047867"><ele>626.0</ele><time>2026-05-03T16:06:39.482Z</time></trkpt><trkpt lat="39.21945" lon="16.30481"><ele>628.0</ele><time>2026-05-03T16:06:40.482Z</time></trkpt><trkpt lat="39.219245" lon="16.3048333"><ele>630.0</ele><time>2026-05-03T16:06:41.481Z</time></trkpt><trkpt lat="39.2190433" lon="16.3048567"><ele>631.6666666666666</ele><time>2026-05-03T16:06:42.482Z</time></trkpt><trkpt lat="39.2188483" lon="16.3048833"><ele>633.3333333333333</ele><time>2026-05-03T16:06:43.483Z</time></trkpt><trkpt lat="39.2186583" lon="16.30491"><ele>635.0</ele><time>2026-05-03T16:06:44.481Z</time></trkpt><trkpt lat="39.2184733" lon="16.3049367"><ele>635.0</ele><time>2026-05-03T16:06:45.481Z</time></trkpt><trkpt lat="39.2182917" lon="16.3049617"><ele>635.0</ele><time>2026-05-03T16:06:46.482Z</time></trkpt><trkpt lat="39.2181117" lon="16.3049883"><ele>635.0</ele><time>2026-05-03T16:06:47.482Z</time></trkpt><trkpt lat="39.2179333" lon="16.3050183"><ele>636.0</ele><time>2026-05-03T16:06:48.482Z</time></trkpt><trkpt lat="39.21776" lon="16.3050517"><ele>637.0</ele><time>2026-05-03T16:06:49.482Z</time></trkpt><trkpt lat="39.217585" lon="16.3050883"><ele>638.0</ele><time>2026-05-03T16:06:50.482Z</time></trkpt><trkpt lat="39.21741" lon="16.30513"><ele>640.3333333333333</ele><time>2026-05-03T16:06:51.482Z</time></trkpt><trkpt lat="39.217235" lon="16.3051683"><ele>642.6666666666666</ele><time>2026-05-03T16:06:52.482Z</time></trkpt><trkpt lat="39.2170567" lon="16.30521"><ele>645.0</ele><time>2026-05-03T16:06:53.482Z</time></trkpt><trkpt lat="39.2168767" lon="16.3052533"><ele>645.0</ele><time>2026-05-03T16:06:54.481Z</time></trkpt><trkpt lat="39.2166933" lon="16.305305"><ele>645.0</ele><time>2026-05-03T16:06:55.481Z</time></trkpt><trkpt lat="39.21651" lon="16.3053583"><ele>645.0</ele><time>2026-05-03T16:06:56.482Z</time></trkpt><trkpt lat="39.2163217" lon="16.3054117"><ele>644.3333333333334</ele><time>2026-05-03T16:06:57.481Z</time></trkpt><trkpt lat="39.2161383" lon="16.305465"><ele>643.6666666666667</ele><time>2026-05-03T16:06:58.481Z</time></trkpt><trkpt lat="39.2159583" lon="16.30552"><ele>643.0</ele><time>2026-05-03T16:06:59.481Z</time></trkpt><trkpt lat="39.2157783" lon="16.3055817"><ele>640.6666666666667</ele><time>2026-05-03T16:07:00.481Z</time></trkpt><trkpt lat="39.2156" lon="16.3056483"><ele>638.3333333333334</ele><time>2026-05-03T16:07:01.482Z</time></trkpt><trkpt lat="39.21542" lon="16.30572"><ele>636.0</ele><time>2026-05-03T16:07:02.482Z</time></trkpt><trkpt lat="39.2152417" lon="16.3057917"><ele>636.0</ele><time>2026-05-03T16:07:03.482Z</time></trkpt><trkpt lat="39.2150667" lon="16.305865"><ele>636.0</ele><time>2026-05-03T16:07:04.482Z</time></trkpt><trkpt lat="39.214895" lon="16.3059367"><ele>636.0</ele><time>2026-05-03T16:07:05.481Z</time></trkpt><trkpt lat="39.214715" lon="16.3060117"><ele>633.6666666666666</ele><time>2026-05-03T16:07:06.482Z</time></trkpt><trkpt lat="39.2145383" lon="16.3060867"><ele>631.3333333333333</ele><time>2026-05-03T16:07:07.482Z</time></trkpt><trkpt lat="39.2143617" lon="16.3061617"><ele>629.0</ele><time>2026-05-03T16:07:08.483Z</time></trkpt><trkpt lat="39.214185" lon="16.3062367"><ele>629.0</ele><time>2026-05-03T16:07:09.482Z</time></trkpt><trkpt lat="39.214005" lon="16.3063133"><ele>629.0</ele><time>2026-05-03T16:07:10.481Z</time></trkpt><trkpt lat="39.2138183" lon="16.306395"><ele>629.0</ele><time>2026-05-03T16:07:11.483Z</time></trkpt><trkpt lat="39.2136217" lon="16.3064783"><ele>629.6666666666666</ele><time>2026-05-03T16:07:12.481Z</time></trkpt><trkpt lat="39.2134183" lon="16.3065617"><ele>630.3333333333334</ele><time>2026-05-03T16:07:13.482Z</time></trkpt><trkpt lat="39.21321" lon="16.3066483"><ele>631.0</ele><time>2026-05-03T16:07:14.482Z</time></trkpt><trkpt lat="39.213" lon="16.306735"><ele>632.6666666666667</ele><time>2026-05-03T16:07:15.483Z</time></trkpt><trkpt lat="39.2127983" lon="16.3068167"><ele>634.3333333333334</ele><time>2026-05-03T16:07:16.481Z</time></trkpt><trkpt lat="39.2125967" lon="16.3068983"><ele>636.0</ele><time>2026-05-03T16:07:17.483Z</time></trkpt><trkpt lat="39.2123983" lon="16.3069817"><ele>637.6666666666666</ele><time>2026-05-03T16:07:18.483Z</time></trkpt><trkpt lat="39.212205" lon="16.3070583"><ele>639.3333333333333</ele><time>2026-05-03T16:07:19.483Z</time></trkpt><trkpt lat="39.21202" lon="16.30713"><ele>641.0</ele><time>2026-05-03T16:07:20.482Z</time></trkpt><trkpt lat="39.2118383" lon="16.3072033"><ele>639.6666666666666</ele><time>2026-05-03T16:07:21.483Z</time></trkpt><trkpt lat="39.2116533" lon="16.3072833"><ele>638.3333333333334</ele><time>2026-05-03T16:07:22.482Z</time></trkpt><trkpt lat="39.2114533" lon="16.307365"><ele>637.0</ele><time>2026-05-03T16:07:23.481Z</time></trkpt><trkpt lat="39.2112367" lon="16.3074483"><ele>636.5</ele><time>2026-05-03T16:07:24.482Z</time></trkpt><trkpt lat="39.2110017" lon="16.307535"><ele>636.0</ele><time>2026-05-03T16:07:25.482Z</time></trkpt><trkpt lat="39.2107517" lon="16.3076333"><ele>636.0</ele><time>2026-05-03T16:07:26.483Z</time></trkpt><trkpt lat="39.2104833" lon="16.3077483"><ele>636.0</ele><time>2026-05-03T16:07:27.482Z</time></trkpt><trkpt lat="39.2102033" lon="16.3078717"><ele>636.0</ele><time>2026-05-03T16:07:28.481Z</time></trkpt><trkpt lat="39.209905" lon="16.3080017"><ele>636.0</ele><time>2026-05-03T16:07:29.483Z</time></trkpt><trkpt lat="39.209595" lon="16.3081317"><ele>634.0</ele><time>2026-05-03T16:07:30.483Z</time></trkpt><trkpt lat="39.209275" lon="16.30826"><ele>632.0</ele><time>2026-05-03T16:07:31.484Z</time></trkpt><trkpt lat="39.2089617" lon="16.30839"><ele>629.5</ele><time>2026-05-03T16:07:32.483Z</time></trkpt><trkpt lat="39.2086467" lon="16.3085117"><ele>627.0</ele><time>2026-05-03T16:07:33.483Z</time></trkpt><trkpt lat="39.2083333" lon="16.3086383"><ele>624.5</ele><time>2026-05-03T16:07:34.481Z</time></trkpt><trkpt lat="39.2080317" lon="16.308765"><ele>622.0</ele><time>2026-05-03T16:07:35.484Z</time></trkpt><trkpt lat="39.2077517" lon="16.3088717"><ele>622.5</ele><time>2026-05-03T16:07:36.481Z</time></trkpt><trkpt lat="39.20747" lon="16.308985"><ele>623.0</ele><time>2026-05-03T16:07:37.483Z</time></trkpt><trkpt lat="39.2071867" lon="16.3090933"><ele>621.5</ele><time>2026-05-03T16:07:38.482Z</time></trkpt><trkpt lat="39.2069033" lon="16.3092017"><ele>620.0</ele><time>2026-05-03T16:07:39.48Z</time></trkpt><trkpt lat="39.20662" lon="16.3093067"><ele>620.0</ele><time>2026-05-03T16:07:40.483Z</time></trkpt><trkpt lat="39.2063367" lon="16.3094183"><ele>620.0</ele><time>2026-05-03T16:07:41.481Z</time></trkpt><trkpt lat="39.2060517" lon="16.30953"><ele>620.0</ele><time>2026-05-03T16:07:42.481Z</time></trkpt><trkpt lat="39.2057683" lon="16.3096467"><ele>620.0</ele><time>2026-05-03T16:07:43.482Z</time></trkpt><trkpt lat="39.2054833" lon="16.309765"><ele>620.5</ele><time>2026-05-03T16:07:44.483Z</time></trkpt><trkpt lat="39.2052" lon="16.309885"><ele>621.0</ele><time>2026-05-03T16:07:45.482Z</time></trkpt><trkpt lat="39.2049133" lon="16.310005"><ele>620.5</ele><time>2026-05-03T16:07:46.481Z</time></trkpt><trkpt lat="39.204625" lon="16.310125"><ele>620.0</ele><time>2026-05-03T16:07:47.482Z</time></trkpt><trkpt lat="39.2043333" lon="16.3102467"><ele>620.0</ele><time>2026-05-03T16:07:48.482Z</time></trkpt><trkpt lat="39.20404" lon="16.31037"><ele>620.0</ele><time>2026-05-03T16:07:49.482Z</time></trkpt><trkpt lat="39.203745" lon="16.3104883"><ele>620.5</ele><time>2026-05-03T16:07:50.483Z</time></trkpt><trkpt lat="39.20345" lon="16.3106083"><ele>621.0</ele><time>2026-05-03T16:07:51.482Z</time></trkpt><trkpt lat="39.2031583" lon="16.3107267"><ele>620.0</ele><time>2026-05-03T16:07:52.482Z</time></trkpt><trkpt lat="39.20287" lon="16.310845"><ele>619.0</ele><time>2026-05-03T16:07:53.483Z</time></trkpt><trkpt lat="39.202585" lon="16.3109633"><ele>618.5</ele><time>2026-05-03T16:07:54.481Z</time></trkpt><trkpt lat="39.2023" lon="16.3110717"><ele>618.0</ele><time>2026-05-03T16:07:55.483Z</time></trkpt><trkpt lat="39.202015" lon="16.3111867"><ele>618.0</ele><time>2026-05-03T16:07:56.482Z</time></trkpt><trkpt lat="39.2017433" lon="16.3113017"><ele>618.0</ele><time>2026-05-03T16:07:57.482Z</time></trkpt><trkpt lat="39.201475" lon="16.3114067"><ele>619.0</ele><time>2026-05-03T16:07:58.481Z</time></trkpt><trkpt lat="39.2012217" lon="16.3115133"><ele>620.0</ele><time>2026-05-03T16:07:59.483Z</time></trkpt><trkpt lat="39.2009733" lon="16.3116217"><ele>620.0</ele><time>2026-05-03T16:08:00.484Z</time></trkpt><trkpt lat="39.20072" lon="16.3117233"><ele>620.0</ele><time>2026-05-03T16:08:01.482Z</time></trkpt><trkpt lat="39.2004633" lon="16.311825"><ele>620.5</ele><time>2026-05-03T16:08:02.482Z</time></trkpt><trkpt lat="39.2002033" lon="16.311935"><ele>621.0</ele><time>2026-05-03T16:08:03.482Z</time></trkpt><trkpt lat="39.1999367" lon="16.3120433"><ele>621.0</ele><time>2026-05-03T16:08:04.483Z</time></trkpt><trkpt lat="39.1996567" lon="16.3121517"><ele>621.0</ele><time>2026-05-03T16:08:05.481Z</time></trkpt><trkpt lat="39.1993783" lon="16.3122583"><ele>621.0</ele><time>2026-05-03T16:08:06.482Z</time></trkpt><trkpt lat="39.1990983" lon="16.3123683"><ele>621.0</ele><time>2026-05-03T16:08:07.481Z</time></trkpt><trkpt lat="39.1988067" lon="16.3124633"><ele>621.0</ele><time>2026-05-03T16:08:08.482Z</time></trkpt><trkpt lat="39.1985117" lon="16.3125467"><ele>621.0</ele><time>2026-05-03T16:08:09.482Z</time></trkpt><trkpt lat="39.1981883" lon="16.3126183"><ele>619.0</ele><time>2026-05-03T16:08:10.482Z</time></trkpt><trkpt lat="39.1978667" lon="16.3126483"><ele>617.0</ele><time>2026-05-03T16:08:11.482Z</time></trkpt><trkpt lat="39.197555" lon="16.3126883"><ele>613.5</ele><time>2026-05-03T16:08:12.481Z</time></trkpt><trkpt lat="39.197245" lon="16.3127083"><ele>610.0</ele><time>2026-05-03T16:08:13.482Z</time></trkpt><trkpt lat="39.19694" lon="16.31269"><ele>610.0</ele><time>2026-05-03T16:08:14.482Z</time></trkpt><trkpt lat="39.1966267" lon="16.3126383"><ele>610.0</ele><time>2026-05-03T16:08:15.481Z</time></trkpt><trkpt lat="39.1963583" lon="16.31255"><ele>606.5</ele><time>2026-05-03T16:08:16.481Z</time></trkpt><trkpt lat="39.1960617" lon="16.3124533"><ele>603.0</ele><time>2026-05-03T16:08:17.483Z</time></trkpt><trkpt lat="39.1957467" lon="16.3123417"><ele>605.5</ele><time>2026-05-03T16:08:18.483Z</time></trkpt><trkpt lat="39.1954367" lon="16.3122"><ele>608.0</ele><time>2026-05-03T16:08:19.481Z</time></trkpt><trkpt lat="39.195125" lon="16.31203"><ele>605.0</ele><time>2026-05-03T16:08:20.482Z</time></trkpt><trkpt lat="39.1948117" lon="16.3118467"><ele>602.0</ele><time>2026-05-03T16:08:21.482Z</time></trkpt><trkpt lat="39.1945017" lon="16.3116533"><ele>602.0</ele><time>2026-05-03T16:08:22.482Z</time></trkpt><trkpt lat="39.1941967" lon="16.3114467"><ele>602.0</ele><time>2026-05-03T16:08:23.481Z</time></trkpt><trkpt lat="39.1938933" lon="16.3112283"><ele>598.5</ele><time>2026-05-03T16:08:24.482Z</time></trkpt><trkpt lat="39.1935983" lon="16.3110083"><ele>595.0</ele><time>2026-05-03T16:08:25.482Z</time></trkpt><trkpt lat="39.1933083" lon="16.3107967"><ele>591.0</ele><time>2026-05-03T16:08:26.482Z</time></trkpt><trkpt lat="39.19302" lon="16.3105917"><ele>587.0</ele><time>2026-05-03T16:08:27.482Z</time></trkpt><trkpt lat="39.1927417" lon="16.3103917"><ele>587.0</ele><time>2026-05-03T16:08:28.482Z</time></trkpt><trkpt lat="39.19247" lon="16.3101967"><ele>587.0</ele><time>2026-05-03T16:08:29.482Z</time></trkpt><trkpt lat="39.19221" lon="16.310005"><ele>585.0</ele><time>2026-05-03T16:08:30.481Z</time></trkpt><trkpt lat="39.1919567" lon="16.309825"><ele>583.0</ele><time>2026-05-03T16:08:31.482Z</time></trkpt><trkpt lat="39.1917" lon="16.3096333"><ele>584.5</ele><time>2026-05-03T16:08:32.481Z</time></trkpt><trkpt lat="39.1914383" lon="16.30944"><ele>586.0</ele><time>2026-05-03T16:08:33.482Z</time></trkpt><trkpt lat="39.1911733" lon="16.3092433"><ele>586.0</ele><time>2026-05-03T16:08:34.482Z</time></trkpt><trkpt lat="39.1909083" lon="16.3090433"><ele>586.0</ele><time>2026-05-03T16:08:35.482Z</time></trkpt><trkpt lat="39.1906433" lon="16.3088417"><ele>589.5</ele><time>2026-05-03T16:08:36.482Z</time></trkpt><trkpt lat="39.1903817" lon="16.3086383"><ele>593.0</ele><time>2026-05-03T16:08:37.482Z</time></trkpt><trkpt lat="39.1901217" lon="16.308435"><ele>593.0</ele><time>2026-05-03T16:08:38.482Z</time></trkpt><trkpt lat="39.189855" lon="16.3082317"><ele>593.0</ele><time>2026-05-03T16:08:39.483Z</time></trkpt><trkpt lat="39.1895867" lon="16.3080283"><ele>588.5</ele><time>2026-05-03T16:08:40.482Z</time></trkpt><trkpt lat="39.1893217" lon="16.3078217"><ele>584.0</ele><time>2026-05-03T16:08:41.48Z</time></trkpt><trkpt lat="39.18905" lon="16.3076183"><ele>582.5</ele><time>2026-05-03T16:08:42.482Z</time></trkpt><trkpt lat="39.1887733" lon="16.30742"><ele>581.0</ele><time>2026-05-03T16:08:43.482Z</time></trkpt><trkpt lat="39.1885017" lon="16.307215"><ele>581.0</ele><time>2026-05-03T16:08:44.481Z</time></trkpt><trkpt lat="39.188225" lon="16.3070117"><ele>581.0</ele><time>2026-05-03T16:08:45.481Z</time></trkpt><trkpt lat="39.1879517" lon="16.306805"><ele>581.5</ele><time>2026-05-03T16:08:46.482Z</time></trkpt><trkpt lat="39.1876783" lon="16.3066"><ele>582.0</ele><time>2026-05-03T16:08:47.482Z</time></trkpt><trkpt lat="39.1874067" lon="16.306395"><ele>576.5</ele><time>2026-05-03T16:08:48.482Z</time></trkpt><trkpt lat="39.1871317" lon="16.30619"><ele>571.0</ele><time>2026-05-03T16:08:49.482Z</time></trkpt><trkpt lat="39.1868517" lon="16.30598"><ele>571.0</ele><time>2026-05-03T16:08:50.482Z</time></trkpt><trkpt lat="39.1865717" lon="16.30577"><ele>571.0</ele><time>2026-05-03T16:08:51.482Z</time></trkpt><trkpt lat="39.186285" lon="16.3055633"><ele>573.0</ele><time>2026-05-03T16:08:52.482Z</time></trkpt><trkpt lat="39.1859967" lon="16.3053517"><ele>575.0</ele><time>2026-05-03T16:08:53.482Z</time></trkpt><trkpt lat="39.185705" lon="16.305135"><ele>576.5</ele><time>2026-05-03T16:08:54.482Z</time></trkpt><trkpt lat="39.18541" lon="16.3049167"><ele>578.0</ele><time>2026-05-03T16:08:55.482Z</time></trkpt><trkpt lat="39.18511" lon="16.3046983"><ele>572.5</ele><time>2026-05-03T16:08:56.482Z</time></trkpt><trkpt lat="39.18481" lon="16.3044817"><ele>567.0</ele><time>2026-05-03T16:08:57.482Z</time></trkpt><trkpt lat="39.1845067" lon="16.304265"><ele>567.0</ele><time>2026-05-03T16:08:58.481Z</time></trkpt><trkpt lat="39.184205" lon="16.30405"><ele>567.0</ele><time>2026-05-03T16:08:59.482Z</time></trkpt><trkpt lat="39.183905" lon="16.303835"><ele>568.0</ele><time>2026-05-03T16:09:00.482Z</time></trkpt><trkpt lat="39.183605" lon="16.30362"><ele>569.0</ele><time>2026-05-03T16:09:01.481Z</time></trkpt><trkpt lat="39.1833083" lon="16.3034"><ele>566.0</ele><time>2026-05-03T16:09:02.481Z</time></trkpt><trkpt lat="39.1830183" lon="16.30317"><ele>563.0</ele><time>2026-05-03T16:09:03.481Z</time></trkpt><trkpt lat="39.1827383" lon="16.30293"><ele>563.0</ele><time>2026-05-03T16:09:04.482Z</time></trkpt><trkpt lat="39.1824583" lon="16.3026833"><ele>563.0</ele><time>2026-05-03T16:09:05.481Z</time></trkpt><trkpt lat="39.1821883" lon="16.3024383"><ele>565.5</ele><time>2026-05-03T16:09:06.481Z</time></trkpt><trkpt lat="39.1819267" lon="16.302195"><ele>568.0</ele><time>2026-05-03T16:09:07.482Z</time></trkpt><trkpt lat="39.1816767" lon="16.3019517"><ele>556.5</ele><time>2026-05-03T16:09:08.482Z</time></trkpt><trkpt lat="39.1814383" lon="16.30171"><ele>545.0</ele><time>2026-05-03T16:09:09.482Z</time></trkpt><trkpt lat="39.1812067" lon="16.3014667"><ele>552.5</ele><time>2026-05-03T16:09:10.481Z</time></trkpt><trkpt lat="39.1809817" lon="16.3012183"><ele>560.0</ele><time>2026-05-03T16:09:11.482Z</time></trkpt><trkpt lat="39.1807617" lon="16.3009617"><ele>555.5</ele><time>2026-05-03T16:09:12.482Z</time></trkpt><trkpt lat="39.1805367" lon="16.3007067"><ele>551.0</ele><time>2026-05-03T16:09:13.482Z</time></trkpt><trkpt lat="39.1803117" lon="16.3004483"><ele>551.0</ele><time>2026-05-03T16:09:14.481Z</time></trkpt><trkpt lat="39.1800883" lon="16.3001733"><ele>551.0</ele><time>2026-05-03T16:09:15.481Z</time></trkpt><trkpt lat="39.179865" lon="16.29989"><ele>549.5</ele><time>2026-05-03T16:09:16.482Z</time></trkpt><trkpt lat="39.1796433" lon="16.2995933"><ele>548.0</ele><time>2026-05-03T16:09:17.481Z</time></trkpt><trkpt lat="39.1794217" lon="16.2992883"><ele>548.0</ele><time>2026-05-03T16:09:18.48Z</time></trkpt><trkpt lat="39.1792067" lon="16.2989867"><ele>548.0</ele><time>2026-05-03T16:09:19.482Z</time></trkpt><trkpt lat="39.1789933" lon="16.2986933"><ele>548.5</ele><time>2026-05-03T16:09:20.482Z</time></trkpt><trkpt lat="39.1787833" lon="16.298405"><ele>549.0</ele><time>2026-05-03T16:09:21.481Z</time></trkpt><trkpt lat="39.1785767" lon="16.2981183"><ele>553.5</ele><time>2026-05-03T16:09:22.482Z</time></trkpt><trkpt lat="39.1783767" lon="16.2978317"><ele>558.0</ele><time>2026-05-03T16:09:23.483Z</time></trkpt><trkpt lat="39.1781883" lon="16.29755"><ele>544.5</ele><time>2026-05-03T16:09:24.481Z</time></trkpt><trkpt lat="39.178015" lon="16.29727"><ele>531.0</ele><time>2026-05-03T16:09:25.482Z</time></trkpt><trkpt lat="39.1778533" lon="16.2969867"><ele>526.5</ele><time>2026-05-03T16:09:26.482Z</time></trkpt><trkpt lat="39.1776983" lon="16.29671"><ele>522.0</ele><time>2026-05-03T16:09:27.481Z</time></trkpt><trkpt lat="39.1775567" lon="16.2964583"><ele>524.0</ele><time>2026-05-03T16:09:28.482Z</time></trkpt><trkpt lat="39.177425" lon="16.2962333"><ele>526.0</ele><time>2026-05-03T16:09:29.482Z</time></trkpt><trkpt lat="39.1773033" lon="16.2960217"><ele>528.0</ele><time>2026-05-03T16:09:30.481Z</time></trkpt><trkpt lat="39.17719" lon="16.295825"><ele>528.0</ele><time>2026-05-03T16:09:31.481Z</time></trkpt><trkpt lat="39.1770833" lon="16.295635"><ele>528.0</ele><time>2026-05-03T16:09:32.482Z</time></trkpt><trkpt lat="39.1769783" lon="16.2954517"><ele>528.0</ele><time>2026-05-03T16:09:33.481Z</time></trkpt><trkpt lat="39.1768683" lon="16.2952783"><ele>536.0</ele><time>2026-05-03T16:09:34.481Z</time></trkpt><trkpt lat="39.176755" lon="16.295115"><ele>544.0</ele><time>2026-05-03T16:09:35.481Z</time></trkpt><trkpt lat="39.1766417" lon="16.2949367"><ele>552.0</ele><time>2026-05-03T16:09:36.482Z</time></trkpt><trkpt lat="39.1765283" lon="16.29476"><ele>555.0</ele><time>2026-05-03T16:09:37.482Z</time></trkpt><trkpt lat="39.1764217" lon="16.2946"><ele>558.0</ele><time>2026-05-03T16:09:38.483Z</time></trkpt><trkpt lat="39.1763083" lon="16.2944283"><ele>561.0</ele><time>2026-05-03T16:09:39.482Z</time></trkpt><trkpt lat="39.1761967" lon="16.2942567"><ele>561.0</ele><time>2026-05-03T16:09:40.482Z</time></trkpt><trkpt lat="39.1760833" lon="16.2940817"><ele>561.0</ele><time>2026-05-03T16:09:41.482Z</time></trkpt><trkpt lat="39.1759717" lon="16.293915"><ele>561.0</ele><time>2026-05-03T16:09:42.482Z</time></trkpt><trkpt lat="39.17586" lon="16.293745"><ele>561.3333333333334</ele><time>2026-05-03T16:09:43.483Z</time></trkpt><trkpt lat="39.175715" lon="16.2936467"><ele>561.6666666666667</ele><time>2026-05-03T16:09:44.483Z</time></trkpt><trkpt lat="39.1754967" lon="16.29369"><ele>562.0</ele><time>2026-05-03T16:09:45.483Z</time></trkpt><trkpt lat="39.1752767" lon="16.2936883"><ele>562.0</ele><time>2026-05-03T16:09:46.484Z</time></trkpt><trkpt lat="39.1750617" lon="16.2936367"><ele>562.0</ele><time>2026-05-03T16:09:47.483Z</time></trkpt><trkpt lat="39.1748117" lon="16.29361"><ele>558.6666666666667</ele><time>2026-05-03T16:09:48.483Z</time></trkpt><trkpt lat="39.1745917" lon="16.2935833"><ele>555.3333333333334</ele><time>2026-05-03T16:09:49.482Z</time></trkpt><trkpt lat="39.17437" lon="16.29357"><ele>552.0</ele><time>2026-05-03T16:09:50.482Z</time></trkpt><trkpt lat="39.1741567" lon="16.29356"><ele>550.6666666666666</ele><time>2026-05-03T16:09:51.482Z</time></trkpt><trkpt lat="39.17396" lon="16.2935583"><ele>549.3333333333333</ele><time>2026-05-03T16:09:52.481Z</time></trkpt><trkpt lat="39.173765" lon="16.2935633"><ele>548.0</ele><time>2026-05-03T16:09:53.482Z</time></trkpt><trkpt lat="39.17357" lon="16.2935733"><ele>548.0</ele><time>2026-05-03T16:09:54.482Z</time></trkpt><trkpt lat="39.1733783" lon="16.2935767"><ele>548.0</ele><time>2026-05-03T16:09:55.481Z</time></trkpt><trkpt lat="39.1731967" lon="16.2935533"><ele>548.0</ele><time>2026-05-03T16:09:56.483Z</time></trkpt><trkpt lat="39.17301" lon="16.2935183"><ele>548.3333333333333</ele><time>2026-05-03T16:09:57.482Z</time></trkpt><trkpt lat="39.1728383" lon="16.2934683"><ele>548.6666666666666</ele><time>2026-05-03T16:09:58.482Z</time></trkpt><trkpt lat="39.172675" lon="16.29342"><ele>549.0</ele><time>2026-05-03T16:09:59.482Z</time></trkpt><trkpt lat="39.1725133" lon="16.2933633"><ele>542.6666666666666</ele><time>2026-05-03T16:10:00.482Z</time></trkpt><trkpt lat="39.1723517" lon="16.2933067"><ele>536.3333333333333</ele><time>2026-05-03T16:10:01.483Z</time></trkpt><trkpt lat="39.1721767" lon="16.29326"><ele>530.0</ele><time>2026-05-03T16:10:02.482Z</time></trkpt><trkpt lat="39.1719933" lon="16.2931567"><ele>528.0</ele><time>2026-05-03T16:10:03.481Z</time></trkpt><trkpt lat="39.1718083" lon="16.293045"><ele>526.0</ele><time>2026-05-03T16:10:04.482Z</time></trkpt><trkpt lat="39.1716283" lon="16.2929183"><ele>524.0</ele><time>2026-05-03T16:10:05.483Z</time></trkpt><trkpt lat="39.17144" lon="16.2927933"><ele>524.0</ele><time>2026-05-03T16:10:06.482Z</time></trkpt><trkpt lat="39.171255" lon="16.29269"><ele>524.0</ele><time>2026-05-03T16:10:07.481Z</time></trkpt><trkpt lat="39.17107" lon="16.2925967"><ele>524.0</ele><time>2026-05-03T16:10:08.483Z</time></trkpt><trkpt lat="39.1708833" lon="16.2925233"><ele>524.0</ele><time>2026-05-03T16:10:09.482Z</time></trkpt><trkpt lat="39.1706917" lon="16.2924467"><ele>524.0</ele><time>2026-05-03T16:10:10.482Z</time></trkpt><trkpt lat="39.1705" lon="16.2923883"><ele>524.0</ele><time>2026-05-03T16:10:11.482Z</time></trkpt><trkpt lat="39.17031" lon="16.2923467"><ele>523.3333333333333</ele><time>2026-05-03T16:10:12.482Z</time></trkpt><trkpt lat="39.17012" lon="16.2923283"><ele>522.6666666666666</ele><time>2026-05-03T16:10:13.481Z</time></trkpt><trkpt lat="39.1699317" lon="16.2923367"><ele>522.0</ele><time>2026-05-03T16:10:14.483Z</time></trkpt><trkpt lat="39.1697467" lon="16.2923683"><ele>525.6666666666666</ele><time>2026-05-03T16:10:15.482Z</time></trkpt><trkpt lat="39.1695667" lon="16.2924167"><ele>529.3333333333333</ele><time>2026-05-03T16:10:16.481Z</time></trkpt><trkpt lat="39.169395" lon="16.2924817"><ele>533.0</ele><time>2026-05-03T16:10:17.482Z</time></trkpt><trkpt lat="39.169225" lon="16.292555"><ele>533.0</ele><time>2026-05-03T16:10:18.483Z</time></trkpt><trkpt lat="39.169055" lon="16.29264"><ele>533.0</ele><time>2026-05-03T16:10:19.482Z</time></trkpt><trkpt lat="39.16888" lon="16.2927317"><ele>533.0</ele><time>2026-05-03T16:10:20.483Z</time></trkpt><trkpt lat="39.1687067" lon="16.29282"><ele>535.3333333333333</ele><time>2026-05-03T16:10:21.481Z</time></trkpt><trkpt lat="39.1685433" lon="16.2929017"><ele>537.6666666666666</ele><time>2026-05-03T16:10:22.481Z</time></trkpt><trkpt lat="39.1683883" lon="16.29298"><ele>540.0</ele><time>2026-05-03T16:10:23.482Z</time></trkpt><trkpt lat="39.1682383" lon="16.29305"><ele>529.0</ele><time>2026-05-03T16:10:24.482Z</time></trkpt><trkpt lat="39.168085" lon="16.2931017"><ele>518.0</ele><time>2026-05-03T16:10:25.482Z</time></trkpt><trkpt lat="39.1679317" lon="16.2931383"><ele>507.0</ele><time>2026-05-03T16:10:26.482Z</time></trkpt><trkpt lat="39.1677783" lon="16.2931667"><ele>507.0</ele><time>2026-05-03T16:10:27.482Z</time></trkpt><trkpt lat="39.16762" lon="16.2931817"><ele>507.0</ele><time>2026-05-03T16:10:28.481Z</time></trkpt><trkpt lat="39.16746" lon="16.2931867"><ele>507.0</ele><time>2026-05-03T16:10:29.481Z</time></trkpt><trkpt lat="39.1673033" lon="16.2931833"><ele>504.66666666666663</ele><time>2026-05-03T16:10:30.48Z</time></trkpt><trkpt lat="39.16714" lon="16.2931683"><ele>502.3333333333333</ele><time>2026-05-03T16:10:31.48Z</time></trkpt><trkpt lat="39.166975" lon="16.2931417"><ele>500.0</ele><time>2026-05-03T16:10:32.482Z</time></trkpt><trkpt lat="39.1668133" lon="16.2931017"><ele>501.66666666666663</ele><time>2026-05-03T16:10:33.482Z</time></trkpt><trkpt lat="39.166655" lon="16.2930467"><ele>503.33333333333337</ele><time>2026-05-03T16:10:34.482Z</time></trkpt><trkpt lat="39.1665017" lon="16.2929767"><ele>505.0</ele><time>2026-05-03T16:10:35.482Z</time></trkpt><trkpt lat="39.1663517" lon="16.2928933"><ele>505.0</ele><time>2026-05-03T16:10:36.481Z</time></trkpt><trkpt lat="39.1662067" lon="16.2928"><ele>505.0</ele><time>2026-05-03T16:10:37.482Z</time></trkpt><trkpt lat="39.1660683" lon="16.2926967"><ele>505.0</ele><time>2026-05-03T16:10:38.481Z</time></trkpt><trkpt lat="39.1659333" lon="16.2925817"><ele>505.0</ele><time>2026-05-03T16:10:39.481Z</time></trkpt><trkpt lat="39.1658033" lon="16.29245"><ele>505.0</ele><time>2026-05-03T16:10:40.482Z</time></trkpt><trkpt lat="39.1656767" lon="16.29231"><ele>505.0</ele><time>2026-05-03T16:10:41.481Z</time></trkpt><trkpt lat="39.16555" lon="16.2921533"><ele>504.0</ele><time>2026-05-03T16:10:42.481Z</time></trkpt><trkpt lat="39.16542" lon="16.2919783"><ele>503.0</ele><time>2026-05-03T16:10:43.481Z</time></trkpt><trkpt lat="39.16529" lon="16.29179"><ele>502.0</ele><time>2026-05-03T16:10:44.482Z</time></trkpt><trkpt lat="39.1651617" lon="16.2915883"><ele>506.33333333333337</ele><time>2026-05-03T16:10:45.481Z</time></trkpt><trkpt lat="39.16503" lon="16.2913817"><ele>510.66666666666663</ele><time>2026-05-03T16:10:46.482Z</time></trkpt><trkpt lat="39.1648967" lon="16.2911717"><ele>515.0</ele><time>2026-05-03T16:10:47.483Z</time></trkpt><trkpt lat="39.1647617" lon="16.2909483"><ele>515.0</ele><time>2026-05-03T16:10:48.482Z</time></trkpt><trkpt lat="39.16462" lon="16.2907233"><ele>515.0</ele><time>2026-05-03T16:10:49.483Z</time></trkpt><trkpt lat="39.16451" lon="16.290465"><ele>506.5</ele><time>2026-05-03T16:10:50.483Z</time></trkpt><trkpt lat="39.1643867" lon="16.2902117"><ele>498.0</ele><time>2026-05-03T16:10:51.483Z</time></trkpt><trkpt lat="39.1642667" lon="16.28995"><ele>489.5</ele><time>2026-05-03T16:10:52.481Z</time></trkpt><trkpt lat="39.1640983" lon="16.2897383"><ele>481.0</ele><time>2026-05-03T16:10:53.482Z</time></trkpt><trkpt lat="39.1639533" lon="16.2894983"><ele>469.5</ele><time>2026-05-03T16:10:54.481Z</time></trkpt><trkpt lat="39.1638117" lon="16.2892517"><ele>458.0</ele><time>2026-05-03T16:10:55.481Z</time></trkpt><trkpt lat="39.163675" lon="16.2890083"><ele>468.5</ele><time>2026-05-03T16:10:56.482Z</time></trkpt><trkpt lat="39.163545" lon="16.2887617"><ele>479.0</ele><time>2026-05-03T16:10:57.48Z</time></trkpt><trkpt lat="39.1634133" lon="16.2885283"><ele>479.0</ele><time>2026-05-03T16:10:58.482Z</time></trkpt><trkpt lat="39.1632783" lon="16.288315"><ele>479.0</ele><time>2026-05-03T16:10:59.482Z</time></trkpt><trkpt lat="39.16314" lon="16.2881283"><ele>479.0</ele><time>2026-05-03T16:11:00.482Z</time></trkpt><trkpt lat="39.1629967" lon="16.2879567"><ele>483.0</ele><time>2026-05-03T16:11:01.482Z</time></trkpt><trkpt lat="39.1628533" lon="16.2878"><ele>487.0</ele><time>2026-05-03T16:11:02.482Z</time></trkpt><trkpt lat="39.1627133" lon="16.2876567"><ele>491.0</ele><time>2026-05-03T16:11:03.481Z</time></trkpt><trkpt lat="39.16257" lon="16.2875267"><ele>491.0</ele><time>2026-05-03T16:11:04.482Z</time></trkpt><trkpt lat="39.1624183" lon="16.2874033"><ele>491.0</ele><time>2026-05-03T16:11:05.482Z</time></trkpt><trkpt lat="39.162255" lon="16.2872917"><ele>491.0</ele><time>2026-05-03T16:11:06.482Z</time></trkpt><trkpt lat="39.16208" lon="16.28719"><ele>490.3333333333333</ele><time>2026-05-03T16:11:07.481Z</time></trkpt><trkpt lat="39.1618933" lon="16.2871"><ele>489.66666666666663</ele><time>2026-05-03T16:11:08.482Z</time></trkpt><trkpt lat="39.1616983" lon="16.287025"><ele>489.0</ele><time>2026-05-03T16:11:09.482Z</time></trkpt><trkpt lat="39.16149" lon="16.286965"><ele>489.0</ele><time>2026-05-03T16:11:10.481Z</time></trkpt><trkpt lat="39.1612633" lon="16.2869133"><ele>489.0</ele><time>2026-05-03T16:11:11.481Z</time></trkpt><trkpt lat="39.1610267" lon="16.2868617"><ele>489.0</ele><time>2026-05-03T16:11:12.482Z</time></trkpt><trkpt lat="39.1607917" lon="16.2868067"><ele>489.0</ele><time>2026-05-03T16:11:13.482Z</time></trkpt><trkpt lat="39.16056" lon="16.2867517"><ele>485.5</ele><time>2026-05-03T16:11:14.483Z</time></trkpt><trkpt lat="39.16033" lon="16.2867"><ele>482.0</ele><time>2026-05-03T16:11:15.481Z</time></trkpt><trkpt lat="39.1601" lon="16.28665"><ele>480.5</ele><time>2026-05-03T16:11:16.482Z</time></trkpt><trkpt lat="39.159865" lon="16.2866083"><ele>479.0</ele><time>2026-05-03T16:11:17.481Z</time></trkpt><trkpt lat="39.1596267" lon="16.286585"><ele>479.0</ele><time>2026-05-03T16:11:18.481Z</time></trkpt><trkpt lat="39.159385" lon="16.2865883"><ele>479.0</ele><time>2026-05-03T16:11:19.481Z</time></trkpt><trkpt lat="39.1591467" lon="16.286615"><ele>480.5</ele><time>2026-05-03T16:11:20.481Z</time></trkpt><trkpt lat="39.15891" lon="16.2866633"><ele>482.0</ele><time>2026-05-03T16:11:21.48Z</time></trkpt><trkpt lat="39.1586817" lon="16.2867317"><ele>482.0</ele><time>2026-05-03T16:11:22.482Z</time></trkpt><trkpt lat="39.1584583" lon="16.2868183"><ele>482.0</ele><time>2026-05-03T16:11:23.483Z</time></trkpt><trkpt lat="39.1582383" lon="16.286925"><ele>498.0</ele><time>2026-05-03T16:11:24.482Z</time></trkpt><trkpt lat="39.1580217" lon="16.2870483"><ele>514.0</ele><time>2026-05-03T16:11:25.481Z</time></trkpt><trkpt lat="39.15781" lon="16.2871933"><ele>495.5</ele><time>2026-05-03T16:11:26.482Z</time></trkpt><trkpt lat="39.1575983" lon="16.2873483"><ele>477.0</ele><time>2026-05-03T16:11:27.482Z</time></trkpt><trkpt lat="39.1573817" lon="16.287505"><ele>488.0</ele><time>2026-05-03T16:11:28.481Z</time></trkpt><trkpt lat="39.1571667" lon="16.2876517"><ele>499.0</ele><time>2026-05-03T16:11:29.481Z</time></trkpt><trkpt lat="39.1569533" lon="16.2877883"><ele>499.0</ele><time>2026-05-03T16:11:30.483Z</time></trkpt><trkpt lat="39.1567383" lon="16.2879217"><ele>499.0</ele><time>2026-05-03T16:11:31.482Z</time></trkpt><trkpt lat="39.1565233" lon="16.2880567"><ele>490.0</ele><time>2026-05-03T16:11:32.483Z</time></trkpt><trkpt lat="39.1563067" lon="16.2881917"><ele>481.0</ele><time>2026-05-03T16:11:33.482Z</time></trkpt><trkpt lat="39.15609" lon="16.2883283"><ele>481.0</ele><time>2026-05-03T16:11:34.481Z</time></trkpt><trkpt lat="39.1558733" lon="16.2884633"><ele>481.0</ele><time>2026-05-03T16:11:35.482Z</time></trkpt><trkpt lat="39.1551267" lon="16.2882817"><ele>472.0</ele><time>2026-05-03T16:11:38.483Z</time></trkpt><trkpt lat="39.1549517" lon="16.2881"><ele>463.0</ele><time>2026-05-03T16:11:39.483Z</time></trkpt><trkpt lat="39.154725" lon="16.2879283"><ele>454.5</ele><time>2026-05-03T16:11:40.481Z</time></trkpt><trkpt lat="39.1544933" lon="16.2877633"><ele>446.0</ele><time>2026-05-03T16:11:41.481Z</time></trkpt><trkpt lat="39.154255" lon="16.2875917"><ele>441.0</ele><time>2026-05-03T16:11:42.483Z</time></trkpt><trkpt lat="39.1540183" lon="16.2873917"><ele>436.0</ele><time>2026-05-03T16:11:43.481Z</time></trkpt><trkpt lat="39.1537983" lon="16.2871633"><ele>450.5</ele><time>2026-05-03T16:11:44.482Z</time></trkpt><trkpt lat="39.153595" lon="16.2869217"><ele>465.0</ele><time>2026-05-03T16:11:45.481Z</time></trkpt><trkpt lat="39.1534" lon="16.2866667"><ele>471.0</ele><time>2026-05-03T16:11:46.482Z</time></trkpt><trkpt lat="39.1532083" lon="16.2864167"><ele>477.0</ele><time>2026-05-03T16:11:47.481Z</time></trkpt><trkpt lat="39.1530167" lon="16.2861633"><ele>465.0</ele><time>2026-05-03T16:11:48.481Z</time></trkpt><trkpt lat="39.1528233" lon="16.2859067"><ele>453.0</ele><time>2026-05-03T16:11:49.481Z</time></trkpt><trkpt lat="39.1526283" lon="16.285655"><ele>449.5</ele><time>2026-05-03T16:11:50.483Z</time></trkpt><trkpt lat="39.1524167" lon="16.2854017"><ele>446.0</ele><time>2026-05-03T16:11:51.484Z</time></trkpt><trkpt lat="39.15222" lon="16.2851517"><ele>415.0</ele><time>2026-05-03T16:11:52.483Z</time></trkpt><trkpt lat="39.15202" lon="16.284445"><ele>415.0</ele><time>2026-05-03T16:11:54.482Z</time></trkpt><trkpt lat="39.151985" lon="16.2841133"><ele>415.0</ele><time>2026-05-03T16:11:55.482Z</time></trkpt><trkpt lat="39.15179" lon="16.2838917"><ele>412.0</ele><time>2026-05-03T16:11:56.481Z</time></trkpt><trkpt lat="39.1515467" lon="16.28371"><ele>409.0</ele><time>2026-05-03T16:11:57.481Z</time></trkpt><trkpt lat="39.1512833" lon="16.2835483"><ele>388.5</ele><time>2026-05-03T16:11:58.482Z</time></trkpt><trkpt lat="39.1510017" lon="16.283405"><ele>368.0</ele><time>2026-05-03T16:11:59.482Z</time></trkpt><trkpt lat="39.15071" lon="16.2832717"><ele>346.0</ele><time>2026-05-03T16:12:00.482Z</time></trkpt><trkpt lat="39.1504067" lon="16.2831267"><ele>324.0</ele><time>2026-05-03T16:12:01.48Z</time></trkpt><trkpt lat="39.1500983" lon="16.2829783"><ele>309.0</ele><time>2026-05-03T16:12:02.481Z</time></trkpt><trkpt lat="39.1497933" lon="16.28283"><ele>294.0</ele><time>2026-05-03T16:12:03.481Z</time></trkpt><trkpt lat="39.1494917" lon="16.2826867"><ele>294.0</ele><time>2026-05-03T16:12:04.481Z</time></trkpt><trkpt lat="39.1492033" lon="16.2825483"><ele>294.0</ele><time>2026-05-03T16:12:05.482Z</time></trkpt><trkpt lat="39.1489283" lon="16.2824183"><ele>310.0</ele><time>2026-05-03T16:12:06.482Z</time></trkpt><trkpt lat="39.1486683" lon="16.282295"><ele>326.0</ele><time>2026-05-03T16:12:07.481Z</time></trkpt><trkpt lat="39.14842" lon="16.2821733"><ele>362.0</ele><time>2026-05-03T16:12:08.483Z</time></trkpt><trkpt lat="39.14819" lon="16.2820467"><ele>398.0</ele><time>2026-05-03T16:12:09.481Z</time></trkpt><trkpt lat="39.1479733" lon="16.28191"><ele>398.0</ele><time>2026-05-03T16:12:10.482Z</time></trkpt><trkpt lat="39.147775" lon="16.2817583"><ele>398.0</ele><time>2026-05-03T16:12:11.482Z</time></trkpt><trkpt lat="39.1475917" lon="16.2815983"><ele>395.0</ele><time>2026-05-03T16:12:12.481Z</time></trkpt><trkpt lat="39.1474217" lon="16.28143"><ele>392.0</ele><time>2026-05-03T16:12:13.482Z</time></trkpt><trkpt lat="39.1472667" lon="16.281255"><ele>389.0</ele><time>2026-05-03T16:12:14.482Z</time></trkpt><trkpt lat="39.1471233" lon="16.2810717"><ele>395.0</ele><time>2026-05-03T16:12:15.481Z</time></trkpt><trkpt lat="39.146995" lon="16.2808783"><ele>401.0</ele><time>2026-05-03T16:12:16.482Z</time></trkpt><trkpt lat="39.14688" lon="16.28068"><ele>407.0</ele><time>2026-05-03T16:12:17.482Z</time></trkpt><trkpt lat="39.1467767" lon="16.280475"><ele>407.66666666666663</ele><time>2026-05-03T16:12:18.482Z</time></trkpt><trkpt lat="39.14668" lon="16.2802583"><ele>408.33333333333337</ele><time>2026-05-03T16:12:19.482Z</time></trkpt><trkpt lat="39.1465817" lon="16.28004"><ele>409.0</ele><time>2026-05-03T16:12:20.482Z</time></trkpt><trkpt lat="39.1464833" lon="16.27982"><ele>408.0</ele><time>2026-05-03T16:12:21.482Z</time></trkpt><trkpt lat="39.1463817" lon="16.2796017"><ele>407.0</ele><time>2026-05-03T16:12:22.482Z</time></trkpt><trkpt lat="39.14628" lon="16.2793833"><ele>406.0</ele><time>2026-05-03T16:12:23.483Z</time></trkpt><trkpt lat="39.1461783" lon="16.279165"><ele>406.0</ele><time>2026-05-03T16:12:24.483Z</time></trkpt><trkpt lat="39.1460783" lon="16.2789433"><ele>406.0</ele><time>2026-05-03T16:12:25.482Z</time></trkpt><trkpt lat="39.1459817" lon="16.2787167"><ele>406.0</ele><time>2026-05-03T16:12:26.482Z</time></trkpt><trkpt lat="39.1458817" lon="16.278485"><ele>412.6666666666667</ele><time>2026-05-03T16:12:27.481Z</time></trkpt><trkpt lat="39.145775" lon="16.2782483"><ele>419.33333333333337</ele><time>2026-05-03T16:12:28.482Z</time></trkpt><trkpt lat="39.1456633" lon="16.277995"><ele>426.0</ele><time>2026-05-03T16:12:29.482Z</time></trkpt><trkpt lat="39.1455467" lon="16.2777383"><ele>431.5</ele><time>2026-05-03T16:12:30.481Z</time></trkpt><trkpt lat="39.1454267" lon="16.2774817"><ele>437.0</ele><time>2026-05-03T16:12:31.482Z</time></trkpt><trkpt lat="39.1453083" lon="16.2772283"><ele>392.0</ele><time>2026-05-03T16:12:32.483Z</time></trkpt><trkpt lat="39.1436117" lon="16.2749917"><ele>392.0</ele><time>2026-05-03T16:12:44.482Z</time></trkpt><trkpt lat="39.1433983" lon="16.2748517"><ele>392.0</ele><time>2026-05-03T16:12:45.482Z</time></trkpt><trkpt lat="39.1431817" lon="16.2747333"><ele>393.5</ele><time>2026-05-03T16:12:46.483Z</time></trkpt><trkpt lat="39.1429567" lon="16.27463"><ele>395.0</ele><time>2026-05-03T16:12:47.483Z</time></trkpt><trkpt lat="39.1427233" lon="16.2745433"><ele>395.0</ele><time>2026-05-03T16:12:48.482Z</time></trkpt><trkpt lat="39.1425017" lon="16.2744833"><ele>395.0</ele><time>2026-05-03T16:12:49.482Z</time></trkpt><trkpt lat="39.142285" lon="16.2744467"><ele>395.0</ele><time>2026-05-03T16:12:50.483Z</time></trkpt><trkpt lat="39.14207" lon="16.2744217"><ele>396.0</ele><time>2026-05-03T16:12:51.482Z</time></trkpt><trkpt lat="39.1418517" lon="16.2744167"><ele>397.0</ele><time>2026-05-03T16:12:52.482Z</time></trkpt><trkpt lat="39.141635" lon="16.2744283"><ele>398.0</ele><time>2026-05-03T16:12:53.482Z</time></trkpt><trkpt lat="39.1414183" lon="16.2744467"><ele>403.66666666666663</ele><time>2026-05-03T16:12:54.482Z</time></trkpt><trkpt lat="39.1412" lon="16.27447"><ele>409.33333333333337</ele><time>2026-05-03T16:12:55.482Z</time></trkpt><trkpt lat="39.1409733" lon="16.2744967"><ele>415.0</ele><time>2026-05-03T16:12:56.482Z</time></trkpt><trkpt lat="39.14074" lon="16.2745217"><ele>412.0</ele><time>2026-05-03T16:12:57.482Z</time></trkpt><trkpt lat="39.140505" lon="16.2745417"><ele>409.0</ele><time>2026-05-03T16:12:58.481Z</time></trkpt><trkpt lat="39.1402667" lon="16.274555"><ele>409.0</ele><time>2026-05-03T16:12:59.482Z</time></trkpt><trkpt lat="39.1400267" lon="16.27456"><ele>409.0</ele><time>2026-05-03T16:13:00.482Z</time></trkpt><trkpt lat="39.1397883" lon="16.274545"><ele>396.5</ele><time>2026-05-03T16:13:01.482Z</time></trkpt><trkpt lat="39.1395533" lon="16.2745117"><ele>384.0</ele><time>2026-05-03T16:13:02.481Z</time></trkpt><trkpt lat="39.1393217" lon="16.27445"><ele>384.0</ele><time>2026-05-03T16:13:03.481Z</time></trkpt><trkpt lat="39.139085" lon="16.2743617"><ele>384.0</ele><time>2026-05-03T16:13:04.481Z</time></trkpt><trkpt lat="39.13884" lon="16.274245"><ele>375.0</ele><time>2026-05-03T16:13:05.482Z</time></trkpt><trkpt lat="39.1385867" lon="16.2741083"><ele>366.0</ele><time>2026-05-03T16:13:06.481Z</time></trkpt><trkpt lat="39.1383267" lon="16.273955"><ele>368.5</ele><time>2026-05-03T16:13:07.482Z</time></trkpt><trkpt lat="39.1380533" lon="16.2737967"><ele>371.0</ele><time>2026-05-03T16:13:08.483Z</time></trkpt><trkpt lat="39.13777" lon="16.2736367"><ele>371.0</ele><time>2026-05-03T16:13:09.482Z</time></trkpt><trkpt lat="39.137475" lon="16.2734717"><ele>371.0</ele><time>2026-05-03T16:13:10.482Z</time></trkpt><trkpt lat="39.1371667" lon="16.27329"><ele>362.0</ele><time>2026-05-03T16:13:11.482Z</time></trkpt><trkpt lat="39.1368467" lon="16.2731"><ele>353.0</ele><time>2026-05-03T16:13:12.482Z</time></trkpt><trkpt lat="39.1365233" lon="16.27291"><ele>353.0</ele><time>2026-05-03T16:13:13.481Z</time></trkpt><trkpt lat="39.1362033" lon="16.272725"><ele>353.0</ele><time>2026-05-03T16:13:14.481Z</time></trkpt><trkpt lat="39.135885" lon="16.2725417"><ele>353.5</ele><time>2026-05-03T16:13:15.482Z</time></trkpt><trkpt lat="39.135585" lon="16.2723633"><ele>354.0</ele><time>2026-05-03T16:13:16.481Z</time></trkpt><trkpt lat="39.1352983" lon="16.2721917"><ele>353.5</ele><time>2026-05-03T16:13:17.481Z</time></trkpt><trkpt lat="39.1350317" lon="16.27202"><ele>353.0</ele><time>2026-05-03T16:13:18.482Z</time></trkpt><trkpt lat="39.1347817" lon="16.2718383"><ele>353.0</ele><time>2026-05-03T16:13:19.483Z</time></trkpt><trkpt lat="39.134545" lon="16.2716317"><ele>353.0</ele><time>2026-05-03T16:13:20.483Z</time></trkpt><trkpt lat="39.1343217" lon="16.2714017"><ele>359.0</ele><time>2026-05-03T16:13:21.482Z</time></trkpt><trkpt lat="39.1341067" lon="16.27115"><ele>365.0</ele><time>2026-05-03T16:13:22.482Z</time></trkpt><trkpt lat="39.1339" lon="16.270875"><ele>354.5</ele><time>2026-05-03T16:13:23.482Z</time></trkpt><trkpt lat="39.1336917" lon="16.2705933"><ele>344.0</ele><time>2026-05-03T16:13:24.481Z</time></trkpt><trkpt lat="39.1334767" lon="16.2703183"><ele>344.0</ele><time>2026-05-03T16:13:25.48Z</time></trkpt><trkpt lat="39.1332533" lon="16.2700583"><ele>344.0</ele><time>2026-05-03T16:13:26.482Z</time></trkpt><trkpt lat="39.13302" lon="16.2698233"><ele>346.5</ele><time>2026-05-03T16:13:27.482Z</time></trkpt><trkpt lat="39.1327717" lon="16.2696317"><ele>349.0</ele><time>2026-05-03T16:13:28.481Z</time></trkpt><trkpt lat="39.1325183" lon="16.269475"><ele>350.5</ele><time>2026-05-03T16:13:29.481Z</time></trkpt><trkpt lat="39.1322683" lon="16.26934"><ele>352.0</ele><time>2026-05-03T16:13:30.482Z</time></trkpt><trkpt lat="39.13202" lon="16.2692017"><ele>352.0</ele><time>2026-05-03T16:13:31.482Z</time></trkpt><trkpt lat="39.131775" lon="16.2690483"><ele>352.0</ele><time>2026-05-03T16:13:32.481Z</time></trkpt><trkpt lat="39.1315383" lon="16.268865"><ele>349.5</ele><time>2026-05-03T16:13:33.481Z</time></trkpt><trkpt lat="39.13131" lon="16.26865"><ele>347.0</ele><time>2026-05-03T16:13:34.482Z</time></trkpt><trkpt lat="39.1310983" lon="16.2684017"><ele>347.0</ele><time>2026-05-03T16:13:35.482Z</time></trkpt><trkpt lat="39.1308933" lon="16.2681183"><ele>347.0</ele><time>2026-05-03T16:13:36.481Z</time></trkpt><trkpt lat="39.1306983" lon="16.2678217"><ele>348.5</ele><time>2026-05-03T16:13:37.481Z</time></trkpt><trkpt lat="39.130505" lon="16.267515"><ele>350.0</ele><time>2026-05-03T16:13:38.482Z</time></trkpt><trkpt lat="39.1303233" lon="16.26723"><ele>350.0</ele><time>2026-05-03T16:13:39.481Z</time></trkpt><trkpt lat="39.1301167" lon="16.2669467"><ele>350.0</ele><time>2026-05-03T16:13:40.482Z</time></trkpt><trkpt lat="39.1299" lon="16.26668"><ele>357.0</ele><time>2026-05-03T16:13:41.48Z</time></trkpt><trkpt lat="39.1296683" lon="16.266465"><ele>364.0</ele><time>2026-05-03T16:13:42.482Z</time></trkpt><trkpt lat="39.1294217" lon="16.2662833"><ele>364.0</ele><time>2026-05-03T16:13:43.482Z</time></trkpt><trkpt lat="39.12916" lon="16.2661317"><ele>364.0</ele><time>2026-05-03T16:13:44.483Z</time></trkpt><trkpt lat="39.1288783" lon="16.2660017"><ele>352.0</ele><time>2026-05-03T16:13:45.482Z</time></trkpt><trkpt lat="39.1285933" lon="16.26588"><ele>340.0</ele><time>2026-05-03T16:13:46.482Z</time></trkpt><trkpt lat="39.1283067" lon="16.2657567"><ele>343.0</ele><time>2026-05-03T16:13:47.483Z</time></trkpt><trkpt lat="39.1280183" lon="16.2656333"><ele>346.0</ele><time>2026-05-03T16:13:48.482Z</time></trkpt><trkpt lat="39.1277367" lon="16.2654967"><ele>346.0</ele><time>2026-05-03T16:13:49.481Z</time></trkpt><trkpt lat="39.12746" lon="16.26534"><ele>346.0</ele><time>2026-05-03T16:13:50.482Z</time></trkpt><trkpt lat="39.1272033" lon="16.265155"><ele>340.0</ele><time>2026-05-03T16:13:51.482Z</time></trkpt><trkpt lat="39.1269583" lon="16.264945"><ele>334.0</ele><time>2026-05-03T16:13:52.482Z</time></trkpt><trkpt lat="39.1267367" lon="16.2647067"><ele>326.5</ele><time>2026-05-03T16:13:53.482Z</time></trkpt><trkpt lat="39.1265367" lon="16.2644517"><ele>319.0</ele><time>2026-05-03T16:13:54.481Z</time></trkpt><trkpt lat="39.1263583" lon="16.26416"><ele>323.0</ele><time>2026-05-03T16:13:55.482Z</time></trkpt><trkpt lat="39.12621" lon="16.2638367"><ele>327.0</ele><time>2026-05-03T16:13:56.482Z</time></trkpt><trkpt lat="39.1260867" lon="16.2634933"><ele>327.0</ele><time>2026-05-03T16:13:57.481Z</time></trkpt><trkpt lat="39.1259883" lon="16.2631333"><ele>327.0</ele><time>2026-05-03T16:13:58.481Z</time></trkpt><trkpt lat="39.125905" lon="16.2627617"><ele>334.5</ele><time>2026-05-03T16:13:59.481Z</time></trkpt><trkpt lat="39.1258233" lon="16.2623917"><ele>342.0</ele><time>2026-05-03T16:14:00.481Z</time></trkpt><trkpt lat="39.1257367" lon="16.262015"><ele>327.0</ele><time>2026-05-03T16:14:01.482Z</time></trkpt><trkpt lat="39.12565" lon="16.261635"><ele>312.0</ele><time>2026-05-03T16:14:02.483Z</time></trkpt><trkpt lat="39.1255633" lon="16.261255"><ele>311.0</ele><time>2026-05-03T16:14:03.483Z</time></trkpt><trkpt lat="39.1254717" lon="16.260885"><ele>310.0</ele><time>2026-05-03T16:14:04.483Z</time></trkpt><trkpt lat="39.1254083" lon="16.2605367"><ele>310.0</ele><time>2026-05-03T16:14:05.482Z</time></trkpt><trkpt lat="39.1252983" lon="16.2602"><ele>310.0</ele><time>2026-05-03T16:14:06.484Z</time></trkpt><trkpt lat="39.125145" lon="16.2598717"><ele>310.0</ele><time>2026-05-03T16:14:07.483Z</time></trkpt><trkpt lat="39.1249867" lon="16.2595433"><ele>310.0</ele><time>2026-05-03T16:14:08.482Z</time></trkpt><trkpt lat="39.1248117" lon="16.2592133"><ele>314.0</ele><time>2026-05-03T16:14:09.481Z</time></trkpt><trkpt lat="39.1246383" lon="16.25888"><ele>318.0</ele><time>2026-05-03T16:14:10.483Z</time></trkpt><trkpt lat="39.12446" lon="16.2585483"><ele>318.0</ele><time>2026-05-03T16:14:11.482Z</time></trkpt><trkpt lat="39.124275" lon="16.258225"><ele>318.0</ele><time>2026-05-03T16:14:12.483Z</time></trkpt><trkpt lat="39.12408" lon="16.2579117"><ele>315.0</ele><time>2026-05-03T16:14:13.481Z</time></trkpt><trkpt lat="39.1238683" lon="16.2576167"><ele>312.0</ele><time>2026-05-03T16:14:14.482Z</time></trkpt><trkpt lat="39.1236367" lon="16.2573417"><ele>315.0</ele><time>2026-05-03T16:14:15.482Z</time></trkpt><trkpt lat="39.1233917" lon="16.2570883"><ele>318.0</ele><time>2026-05-03T16:14:16.481Z</time></trkpt><trkpt lat="39.1231317" lon="16.2568683"><ele>303.5</ele><time>2026-05-03T16:14:17.483Z</time></trkpt><trkpt lat="39.1228633" lon="16.256675"><ele>289.0</ele><time>2026-05-03T16:14:18.482Z</time></trkpt><trkpt lat="39.1225983" lon="16.2565"><ele>291.0</ele><time>2026-05-03T16:14:19.482Z</time></trkpt><trkpt lat="39.12234" lon="16.25635"><ele>293.0</ele><time>2026-05-03T16:14:20.482Z</time></trkpt><trkpt lat="39.1220717" lon="16.2562283"><ele>293.0</ele><time>2026-05-03T16:14:21.482Z</time></trkpt><trkpt lat="39.1217967" lon="16.2561317"><ele>293.0</ele><time>2026-05-03T16:14:22.481Z</time></trkpt><trkpt lat="39.1215133" lon="16.2560533"><ele>299.5</ele><time>2026-05-03T16:14:23.482Z</time></trkpt><trkpt lat="39.1212233" lon="16.2559983"><ele>306.0</ele><time>2026-05-03T16:14:24.482Z</time></trkpt><trkpt lat="39.1209267" lon="16.255975"><ele>306.5</ele><time>2026-05-03T16:14:25.482Z</time></trkpt><trkpt lat="39.12063" lon="16.255965"><ele>307.0</ele><time>2026-05-03T16:14:26.483Z</time></trkpt><trkpt lat="39.1203267" lon="16.2559633"><ele>307.0</ele><time>2026-05-03T16:14:27.482Z</time></trkpt><trkpt lat="39.12002" lon="16.2559567"><ele>307.0</ele><time>2026-05-03T16:14:28.483Z</time></trkpt><trkpt lat="39.1197133" lon="16.2559433"><ele>304.0</ele><time>2026-05-03T16:14:29.483Z</time></trkpt><trkpt lat="39.1194033" lon="16.2559117"><ele>301.0</ele><time>2026-05-03T16:14:30.481Z</time></trkpt><trkpt lat="39.1190933" lon="16.2558633"><ele>291.5</ele><time>2026-05-03T16:14:31.482Z</time></trkpt><trkpt lat="39.1187883" lon="16.25579"><ele>282.0</ele><time>2026-05-03T16:14:32.483Z</time></trkpt><trkpt lat="39.1184883" lon="16.2556933"><ele>283.5</ele><time>2026-05-03T16:14:33.482Z</time></trkpt><trkpt lat="39.1181967" lon="16.255585"><ele>285.0</ele><time>2026-05-03T16:14:34.482Z</time></trkpt><trkpt lat="39.1179067" lon="16.2554883"><ele>285.0</ele><time>2026-05-03T16:14:35.482Z</time></trkpt><trkpt lat="39.1176133" lon="16.2554083"><ele>285.0</ele><time>2026-05-03T16:14:36.483Z</time></trkpt><trkpt lat="39.1173133" lon="16.2553533"><ele>290.0</ele><time>2026-05-03T16:14:37.482Z</time></trkpt><trkpt lat="39.117005" lon="16.255325"><ele>295.0</ele><time>2026-05-03T16:14:38.483Z</time></trkpt><trkpt lat="39.11669" lon="16.2553183"><ele>295.0</ele><time>2026-05-03T16:14:39.482Z</time></trkpt><trkpt lat="39.1163667" lon="16.2553083"><ele>295.0</ele><time>2026-05-03T16:14:40.483Z</time></trkpt><trkpt lat="39.1160417" lon="16.2552983"><ele>291.5</ele><time>2026-05-03T16:14:41.483Z</time></trkpt><trkpt lat="39.1157133" lon="16.2552833"><ele>288.0</ele><time>2026-05-03T16:14:42.481Z</time></trkpt><trkpt lat="39.1153817" lon="16.2552733"><ele>288.0</ele><time>2026-05-03T16:14:43.482Z</time></trkpt><trkpt lat="39.1150483" lon="16.2552567"><ele>288.0</ele><time>2026-05-03T16:14:44.482Z</time></trkpt><trkpt lat="39.114725" lon="16.2552267"><ele>283.0</ele><time>2026-05-03T16:14:45.482Z</time></trkpt><trkpt lat="39.1144217" lon="16.2551983"><ele>278.0</ele><time>2026-05-03T16:14:46.482Z</time></trkpt><trkpt lat="39.1141117" lon="16.2550867"><ele>266.0</ele><time>2026-05-03T16:14:47.481Z</time></trkpt><trkpt lat="39.11381" lon="16.254985"><ele>254.0</ele><time>2026-05-03T16:14:48.482Z</time></trkpt><trkpt lat="39.1135233" lon="16.2548567"><ele>256.5</ele><time>2026-05-03T16:14:49.482Z</time></trkpt><trkpt lat="39.113245" lon="16.2546983"><ele>259.0</ele><time>2026-05-03T16:14:50.481Z</time></trkpt><trkpt lat="39.112975" lon="16.254515"><ele>259.0</ele><time>2026-05-03T16:14:51.481Z</time></trkpt><trkpt lat="39.1127033" lon="16.2543267"><ele>259.0</ele><time>2026-05-03T16:14:52.482Z</time></trkpt><trkpt lat="39.1124333" lon="16.25414"><ele>263.0</ele><time>2026-05-03T16:14:53.48Z</time></trkpt><trkpt lat="39.1121633" lon="16.2539433"><ele>267.0</ele><time>2026-05-03T16:14:54.481Z</time></trkpt><trkpt lat="39.1119017" lon="16.2537367"><ele>267.0</ele><time>2026-05-03T16:14:55.482Z</time></trkpt><trkpt lat="39.111655" lon="16.253505"><ele>267.0</ele><time>2026-05-03T16:14:56.482Z</time></trkpt><trkpt lat="39.1114283" lon="16.2532433"><ele>256.5</ele><time>2026-05-03T16:14:57.482Z</time></trkpt><trkpt lat="39.1112083" lon="16.252955"><ele>246.0</ele><time>2026-05-03T16:14:58.482Z</time></trkpt><trkpt lat="39.1109967" lon="16.2526617"><ele>246.0</ele><time>2026-05-03T16:14:59.482Z</time></trkpt><trkpt lat="39.11079" lon="16.2523767"><ele>246.0</ele><time>2026-05-03T16:15:00.481Z</time></trkpt><trkpt lat="39.11058" lon="16.2521033"><ele>239.5</ele><time>2026-05-03T16:15:01.482Z</time></trkpt><trkpt lat="39.1103667" lon="16.25185"><ele>233.0</ele><time>2026-05-03T16:15:02.482Z</time></trkpt><trkpt lat="39.1101433" lon="16.251625"><ele>241.0</ele><time>2026-05-03T16:15:03.481Z</time></trkpt><trkpt lat="39.1099017" lon="16.25143"><ele>249.0</ele><time>2026-05-03T16:15:04.481Z</time></trkpt><trkpt lat="39.1096417" lon="16.2512567"><ele>249.0</ele><time>2026-05-03T16:15:05.481Z</time></trkpt><trkpt lat="39.109365" lon="16.2510967"><ele>249.0</ele><time>2026-05-03T16:15:06.481Z</time></trkpt><trkpt lat="39.109085" lon="16.2509583"><ele>244.0</ele><time>2026-05-03T16:15:07.48Z</time></trkpt><trkpt lat="39.1088" lon="16.250795"><ele>239.0</ele><time>2026-05-03T16:15:08.482Z</time></trkpt><trkpt lat="39.1085183" lon="16.250645"><ele>240.0</ele><time>2026-05-03T16:15:09.482Z</time></trkpt><trkpt lat="39.1082267" lon="16.25049"><ele>241.0</ele><time>2026-05-03T16:15:10.482Z</time></trkpt><trkpt lat="39.1079333" lon="16.2503367"><ele>241.0</ele><time>2026-05-03T16:15:11.482Z</time></trkpt><trkpt lat="39.107625" lon="16.2501767"><ele>241.0</ele><time>2026-05-03T16:15:12.482Z</time></trkpt><trkpt lat="39.107335" lon="16.2500233"><ele>238.5</ele><time>2026-05-03T16:15:13.482Z</time></trkpt><trkpt lat="39.10704" lon="16.249865"><ele>236.0</ele><time>2026-05-03T16:15:14.482Z</time></trkpt><trkpt lat="39.1067533" lon="16.2496917"><ele>230.5</ele><time>2026-05-03T16:15:15.48Z</time></trkpt><trkpt lat="39.106485" lon="16.2495033"><ele>225.0</ele><time>2026-05-03T16:15:16.48Z</time></trkpt><trkpt lat="39.1062233" lon="16.2493067"><ele>225.0</ele><time>2026-05-03T16:15:17.481Z</time></trkpt><trkpt lat="39.10596" lon="16.2490783"><ele>225.0</ele><time>2026-05-03T16:15:18.481Z</time></trkpt><trkpt lat="39.1057217" lon="16.248865"><ele>220.5</ele><time>2026-05-03T16:15:19.482Z</time></trkpt><trkpt lat="39.1055083" lon="16.2486317"><ele>216.0</ele><time>2026-05-03T16:15:20.481Z</time></trkpt><trkpt lat="39.1052933" lon="16.2483883"><ele>216.0</ele><time>2026-05-03T16:15:21.481Z</time></trkpt><trkpt lat="39.1050783" lon="16.2481267"><ele>216.0</ele><time>2026-05-03T16:15:22.482Z</time></trkpt><trkpt lat="39.1049" lon="16.247845"><ele>211.0</ele><time>2026-05-03T16:15:23.482Z</time></trkpt><trkpt lat="39.10473" lon="16.2475433"><ele>206.0</ele><time>2026-05-03T16:15:24.482Z</time></trkpt><trkpt lat="39.104565" lon="16.24723"><ele>202.0</ele><time>2026-05-03T16:15:25.482Z</time></trkpt><trkpt lat="39.1043983" lon="16.2469133"><ele>198.0</ele><time>2026-05-03T16:15:26.481Z</time></trkpt><trkpt lat="39.1042333" lon="16.2465967"><ele>190.5</ele><time>2026-05-03T16:15:27.482Z</time></trkpt><trkpt lat="39.1040617" lon="16.2462733"><ele>183.0</ele><time>2026-05-03T16:15:28.482Z</time></trkpt><trkpt lat="39.1038867" lon="16.2459483"><ele>183.0</ele><time>2026-05-03T16:15:29.482Z</time></trkpt><trkpt lat="39.1036983" lon="16.2456333"><ele>183.0</ele><time>2026-05-03T16:15:30.481Z</time></trkpt><trkpt lat="39.1035" lon="16.2453233"><ele>181.5</ele><time>2026-05-03T16:15:31.481Z</time></trkpt><trkpt lat="39.1032933" lon="16.2450233"><ele>180.0</ele><time>2026-05-03T16:15:32.482Z</time></trkpt><trkpt lat="39.1030783" lon="16.244725"><ele>185.5</ele><time>2026-05-03T16:15:33.482Z</time></trkpt><trkpt lat="39.10286" lon="16.2444267"><ele>191.0</ele><time>2026-05-03T16:15:34.481Z</time></trkpt><trkpt lat="39.1026433" lon="16.244125"><ele>197.5</ele><time>2026-05-03T16:15:35.482Z</time></trkpt><trkpt lat="39.1024217" lon="16.2438233"><ele>204.0</ele><time>2026-05-03T16:15:36.483Z</time></trkpt><trkpt lat="39.102205" lon="16.2435133"><ele>206.0</ele><time>2026-05-03T16:15:37.483Z</time></trkpt><trkpt lat="39.1019883" lon="16.2431967"><ele>208.0</ele><time>2026-05-03T16:15:38.483Z</time></trkpt><trkpt lat="39.10177" lon="16.24288"><ele>215.5</ele><time>2026-05-03T16:15:39.482Z</time></trkpt><trkpt lat="39.10155" lon="16.2425567"><ele>223.0</ele><time>2026-05-03T16:15:40.483Z</time></trkpt><trkpt lat="39.1013233" lon="16.24223"><ele>227.5</ele><time>2026-05-03T16:15:41.482Z</time></trkpt><trkpt lat="39.1010967" lon="16.2419"><ele>232.0</ele><time>2026-05-03T16:15:42.482Z</time></trkpt><trkpt lat="39.1008683" lon="16.2415717"><ele>235.0</ele><time>2026-05-03T16:15:43.483Z</time></trkpt><trkpt lat="39.1006417" lon="16.2412433"><ele>238.0</ele><time>2026-05-03T16:15:44.482Z</time></trkpt><trkpt lat="39.096715" lon="16.23665"><ele>204.0</ele><time>2026-05-03T16:15:58.483Z</time></trkpt><trkpt lat="39.09645" lon="16.2363517"><ele>170.0</ele><time>2026-05-03T16:15:59.482Z</time></trkpt><trkpt lat="39.096205" lon="16.236045"><ele>170.0</ele><time>2026-05-03T16:16:00.481Z</time></trkpt><trkpt lat="39.0959517" lon="16.23571"><ele>170.0</ele><time>2026-05-03T16:16:01.482Z</time></trkpt><trkpt lat="39.0956967" lon="16.2353767"><ele>170.0</ele><time>2026-05-03T16:16:02.481Z</time></trkpt><trkpt lat="39.095435" lon="16.2350583"><ele>170.0</ele><time>2026-05-03T16:16:03.481Z</time></trkpt><trkpt lat="39.0951633" lon="16.234755"><ele>170.0</ele><time>2026-05-03T16:16:04.483Z</time></trkpt><trkpt lat="39.094885" lon="16.234465"><ele>170.0</ele><time>2026-05-03T16:16:05.481Z</time></trkpt><trkpt lat="39.0945967" lon="16.23419"><ele>169.5</ele><time>2026-05-03T16:16:06.482Z</time></trkpt><trkpt lat="39.0943017" lon="16.2339267"><ele>169.0</ele><time>2026-05-03T16:16:07.481Z</time></trkpt><trkpt lat="39.0940017" lon="16.2336733"><ele>166.0</ele><time>2026-05-03T16:16:08.482Z</time></trkpt><trkpt lat="39.0937" lon="16.23343"><ele>163.0</ele><time>2026-05-03T16:16:09.48Z</time></trkpt><trkpt lat="39.0934017" lon="16.233195"><ele>161.0</ele><time>2026-05-03T16:16:10.481Z</time></trkpt><trkpt lat="39.0931067" lon="16.23296"><ele>159.0</ele><time>2026-05-03T16:16:11.482Z</time></trkpt><trkpt lat="39.0928167" lon="16.2327183"><ele>159.0</ele><time>2026-05-03T16:16:12.481Z</time></trkpt><trkpt lat="39.0925317" lon="16.2324617"><ele>159.0</ele><time>2026-05-03T16:16:13.481Z</time></trkpt><trkpt lat="39.092255" lon="16.23219"><ele>159.5</ele><time>2026-05-03T16:16:14.486Z</time></trkpt><trkpt lat="39.0919933" lon="16.231905"><ele>160.0</ele><time>2026-05-03T16:16:15.482Z</time></trkpt><trkpt lat="39.0917417" lon="16.2316033"><ele>158.0</ele><time>2026-05-03T16:16:16.481Z</time></trkpt><trkpt lat="39.0915" lon="16.2312833"><ele>156.0</ele><time>2026-05-03T16:16:17.48Z</time></trkpt><trkpt lat="39.09127" lon="16.230945"><ele>155.5</ele><time>2026-05-03T16:16:18.48Z</time></trkpt><trkpt lat="39.09105" lon="16.2305917"><ele>155.0</ele><time>2026-05-03T16:16:19.482Z</time></trkpt><trkpt lat="39.0908467" lon="16.23022"><ele>156.0</ele><time>2026-05-03T16:16:20.482Z</time></trkpt><trkpt lat="39.0906567" lon="16.22983"><ele>157.0</ele><time>2026-05-03T16:16:21.482Z</time></trkpt><trkpt lat="39.0904817" lon="16.2294283"><ele>157.0</ele><time>2026-05-03T16:16:22.48Z</time></trkpt><trkpt lat="39.0903183" lon="16.2290167"><ele>157.0</ele><time>2026-05-03T16:16:23.481Z</time></trkpt><trkpt lat="39.0901733" lon="16.2285917"><ele>157.0</ele><time>2026-05-03T16:16:24.482Z</time></trkpt><trkpt lat="39.0900433" lon="16.2281583"><ele>157.0</ele><time>2026-05-03T16:16:25.481Z</time></trkpt><trkpt lat="39.089925" lon="16.2277167"><ele>154.5</ele><time>2026-05-03T16:16:26.482Z</time></trkpt><trkpt lat="39.089815" lon="16.2272667"><ele>152.0</ele><time>2026-05-03T16:16:27.482Z</time></trkpt><trkpt lat="39.0897133" lon="16.22681"><ele>152.0</ele><time>2026-05-03T16:16:28.481Z</time></trkpt><trkpt lat="39.0896117" lon="16.2263567"><ele>152.0</ele><time>2026-05-03T16:16:29.481Z</time></trkpt><trkpt lat="39.0895033" lon="16.2259083"><ele>152.0</ele><time>2026-05-03T16:16:30.481Z</time></trkpt><trkpt lat="39.0893833" lon="16.2254667"><ele>152.0</ele><time>2026-05-03T16:16:31.482Z</time></trkpt><trkpt lat="39.0892467" lon="16.2250367"><ele>150.5</ele><time>2026-05-03T16:16:32.482Z</time></trkpt><trkpt lat="39.0890917" lon="16.22462"><ele>149.0</ele><time>2026-05-03T16:16:33.482Z</time></trkpt><trkpt lat="39.0889183" lon="16.224215"><ele>148.5</ele><time>2026-05-03T16:16:34.481Z</time></trkpt><trkpt lat="39.0887267" lon="16.223825"><ele>148.0</ele><time>2026-05-03T16:16:35.481Z</time></trkpt><trkpt lat="39.0885183" lon="16.2234533"><ele>147.0</ele><time>2026-05-03T16:16:36.483Z</time></trkpt><trkpt lat="39.0882933" lon="16.2231"><ele>146.0</ele><time>2026-05-03T16:16:37.483Z</time></trkpt><trkpt lat="39.0880533" lon="16.22276"><ele>146.0</ele><time>2026-05-03T16:16:38.482Z</time></trkpt><trkpt lat="39.0877983" lon="16.22243"><ele>146.0</ele><time>2026-05-03T16:16:39.482Z</time></trkpt><trkpt lat="39.0875367" lon="16.2221067"><ele>147.5</ele><time>2026-05-03T16:16:40.482Z</time></trkpt><trkpt lat="39.08727" lon="16.221785"><ele>149.0</ele><time>2026-05-03T16:16:41.482Z</time></trkpt><trkpt lat="39.0870017" lon="16.2214583"><ele>149.0</ele><time>2026-05-03T16:16:42.482Z</time></trkpt><trkpt lat="39.0867367" lon="16.2211317"><ele>149.0</ele><time>2026-05-03T16:16:43.482Z</time></trkpt><trkpt lat="39.0864717" lon="16.2208067"><ele>147.5</ele><time>2026-05-03T16:16:44.482Z</time></trkpt><trkpt lat="39.0862017" lon="16.2204883"><ele>146.0</ele><time>2026-05-03T16:16:45.481Z</time></trkpt><trkpt lat="39.0859283" lon="16.22017"><ele>145.5</ele><time>2026-05-03T16:16:46.481Z</time></trkpt><trkpt lat="39.0856533" lon="16.21985"><ele>145.0</ele><time>2026-05-03T16:16:47.482Z</time></trkpt><trkpt lat="39.08538" lon="16.2195267"><ele>144.5</ele><time>2026-05-03T16:16:48.482Z</time></trkpt><trkpt lat="39.0851067" lon="16.2191983"><ele>144.0</ele><time>2026-05-03T16:16:49.482Z</time></trkpt><trkpt lat="39.0848367" lon="16.218865"><ele>143.5</ele><time>2026-05-03T16:16:50.482Z</time></trkpt><trkpt lat="39.0845683" lon="16.2185233"><ele>143.0</ele><time>2026-05-03T16:16:51.482Z</time></trkpt><trkpt lat="39.0843017" lon="16.218175"><ele>144.0</ele><time>2026-05-03T16:16:52.481Z</time></trkpt><trkpt lat="39.08404" lon="16.2178167"><ele>145.0</ele><time>2026-05-03T16:16:53.481Z</time></trkpt><trkpt lat="39.0837883" lon="16.2174483"><ele>143.5</ele><time>2026-05-03T16:16:54.482Z</time></trkpt><trkpt lat="39.0835467" lon="16.2170717"><ele>142.0</ele><time>2026-05-03T16:16:55.482Z</time></trkpt><trkpt lat="39.0833133" lon="16.2166833"><ele>149.5</ele><time>2026-05-03T16:16:56.481Z</time></trkpt><trkpt lat="39.0830867" lon="16.2162883"><ele>157.0</ele><time>2026-05-03T16:16:57.481Z</time></trkpt><trkpt lat="39.0828667" lon="16.2158883"><ele>151.5</ele><time>2026-05-03T16:16:58.481Z</time></trkpt><trkpt lat="39.0826533" lon="16.215485"><ele>146.0</ele><time>2026-05-03T16:16:59.483Z</time></trkpt><trkpt lat="39.08245" lon="16.2150767"><ele>150.0</ele><time>2026-05-03T16:17:00.482Z</time></trkpt><trkpt lat="39.0822617" lon="16.2146583"><ele>154.0</ele><time>2026-05-03T16:17:01.481Z</time></trkpt><trkpt lat="39.0820833" lon="16.214235"><ele>150.0</ele><time>2026-05-03T16:17:02.482Z</time></trkpt><trkpt lat="39.0819133" lon="16.2138067"><ele>146.0</ele><time>2026-05-03T16:17:03.482Z</time></trkpt><trkpt lat="39.0817517" lon="16.213375"><ele>155.0</ele><time>2026-05-03T16:17:04.48Z</time></trkpt><trkpt lat="39.0815983" lon="16.2129383"><ele>164.0</ele><time>2026-05-03T16:17:05.48Z</time></trkpt><trkpt lat="39.08145" lon="16.2124933"><ele>162.0</ele><time>2026-05-03T16:17:06.48Z</time></trkpt><trkpt lat="39.0813133" lon="16.2120417"><ele>160.0</ele><time>2026-05-03T16:17:07.482Z</time></trkpt><trkpt lat="39.0811883" lon="16.211585"><ele>156.5</ele><time>2026-05-03T16:17:08.482Z</time></trkpt><trkpt lat="39.081075" lon="16.2111167"><ele>153.0</ele><time>2026-05-03T16:17:09.482Z</time></trkpt><trkpt lat="39.08097" lon="16.2106433"><ele>149.5</ele><time>2026-05-03T16:17:10.482Z</time></trkpt><trkpt lat="39.0808717" lon="16.2101767"><ele>146.0</ele><time>2026-05-03T16:17:11.48Z</time></trkpt><trkpt lat="39.080775" lon="16.2097233"><ele>154.5</ele><time>2026-05-03T16:17:12.481Z</time></trkpt><trkpt lat="39.0806933" lon="16.209255"><ele>163.0</ele><time>2026-05-03T16:17:13.481Z</time></trkpt><trkpt lat="39.0806283" lon="16.20875"><ele>163.0</ele><time>2026-05-03T16:17:14.482Z</time></trkpt><trkpt lat="39.0805417" lon="16.2083383"><ele>163.0</ele><time>2026-05-03T16:17:15.482Z</time></trkpt><trkpt lat="39.0804533" lon="16.2079133"><ele>153.5</ele><time>2026-05-03T16:17:16.482Z</time></trkpt><trkpt lat="39.0803517" lon="16.2074867"><ele>144.0</ele><time>2026-05-03T16:17:17.481Z</time></trkpt><trkpt lat="39.0802667" lon="16.2070567"><ele>140.0</ele><time>2026-05-03T16:17:18.482Z</time></trkpt><trkpt lat="39.0802017" lon="16.20662"><ele>136.0</ele><time>2026-05-03T16:17:19.482Z</time></trkpt><trkpt lat="39.080155" lon="16.2061817"><ele>134.0</ele><time>2026-05-03T16:17:20.481Z</time></trkpt><trkpt lat="39.0801267" lon="16.2057367"><ele>132.0</ele><time>2026-05-03T16:17:21.481Z</time></trkpt><trkpt lat="39.0801183" lon="16.2052867"><ele>130.5</ele><time>2026-05-03T16:17:22.482Z</time></trkpt><trkpt lat="39.0801283" lon="16.2048333"><ele>129.0</ele><time>2026-05-03T16:17:23.482Z</time></trkpt><trkpt lat="39.0801533" lon="16.204375"><ele>132.5</ele><time>2026-05-03T16:17:24.482Z</time></trkpt><trkpt lat="39.0801983" lon="16.2039133"><ele>136.0</ele><time>2026-05-03T16:17:25.481Z</time></trkpt><trkpt lat="39.0802617" lon="16.2034517"><ele>140.0</ele><time>2026-05-03T16:17:26.482Z</time></trkpt><trkpt lat="39.0803367" lon="16.2029917"><ele>144.0</ele><time>2026-05-03T16:17:27.481Z</time></trkpt><trkpt lat="39.0804167" lon="16.2025433"><ele>144.5</ele><time>2026-05-03T16:17:28.482Z</time></trkpt><trkpt lat="39.0805" lon="16.20211"><ele>145.0</ele><time>2026-05-03T16:17:29.481Z</time></trkpt><trkpt lat="39.0805733" lon="16.2016833"><ele>145.0</ele><time>2026-05-03T16:17:30.483Z</time></trkpt><trkpt lat="39.0806367" lon="16.20126"><ele>145.0</ele><time>2026-05-03T16:17:31.481Z</time></trkpt><trkpt lat="39.080685" lon="16.200835"><ele>143.5</ele><time>2026-05-03T16:17:32.483Z</time></trkpt><trkpt lat="39.08072" lon="16.2004067"><ele>142.0</ele><time>2026-05-03T16:17:33.481Z</time></trkpt><trkpt lat="39.0807367" lon="16.1999717"><ele>142.0</ele><time>2026-05-03T16:17:34.481Z</time></trkpt><trkpt lat="39.0807367" lon="16.1995367"><ele>142.0</ele><time>2026-05-03T16:17:35.482Z</time></trkpt><trkpt lat="39.08071" lon="16.199105"><ele>138.5</ele><time>2026-05-03T16:17:36.482Z</time></trkpt><trkpt lat="39.0806667" lon="16.1986833"><ele>135.0</ele><time>2026-05-03T16:17:37.482Z</time></trkpt><trkpt lat="39.0806089" lon="16.19827"><ele>131.0</ele><time>2026-05-03T16:17:38.482Z</time></trkpt><trkpt lat="39.0805348" lon="16.1978653"><ele>127.0</ele><time>2026-05-03T16:17:39.481Z</time></trkpt><trkpt lat="39.0804471" lon="16.1974686"><ele>123.0</ele><time>2026-05-03T16:17:40.481Z</time></trkpt><trkpt lat="39.0803451" lon="16.1970832"><ele>119.0</ele><time>2026-05-03T16:17:41.481Z</time></trkpt><trkpt lat="39.08023" lon="16.1967087"><ele>117.5</ele><time>2026-05-03T16:17:42.481Z</time></trkpt><trkpt lat="39.0800999" lon="16.1963417"><ele>116.0</ele><time>2026-05-03T16:17:43.482Z</time></trkpt><trkpt lat="39.079954" lon="16.1959867"><ele>119.0</ele><time>2026-05-03T16:17:44.481Z</time></trkpt><trkpt lat="39.0797922" lon="16.195637"><ele>122.0</ele><time>2026-05-03T16:17:45.481Z</time></trkpt><trkpt lat="39.0796226" lon="16.1952952"><ele>122.0</ele><time>2026-05-03T16:17:46.482Z</time></trkpt><trkpt lat="39.0794408" lon="16.1949678"><ele>122.0</ele><time>2026-05-03T16:17:47.481Z</time></trkpt><trkpt lat="39.07925" lon="16.1946547"><ele>119.0</ele><time>2026-05-03T16:17:48.481Z</time></trkpt><trkpt lat="39.0790504" lon="16.1943571"><ele>116.0</ele><time>2026-05-03T16:17:49.481Z</time></trkpt><trkpt lat="39.0788382" lon="16.1940728"><ele>112.5</ele><time>2026-05-03T16:17:50.482Z</time></trkpt><trkpt lat="39.0786134" lon="16.1938015"><ele>109.0</ele><time>2026-05-03T16:17:51.482Z</time></trkpt><trkpt lat="39.0783778" lon="16.1935442"><ele>110.0</ele><time>2026-05-03T16:17:52.482Z</time></trkpt><trkpt lat="39.0781352" lon="16.1933019"><ele>111.0</ele><time>2026-05-03T16:17:53.481Z</time></trkpt><trkpt lat="39.0778895" lon="16.193072"><ele>111.0</ele><time>2026-05-03T16:17:54.483Z</time></trkpt><trkpt lat="39.0776419" lon="16.1928516"><ele>111.0</ele><time>2026-05-03T16:17:55.482Z</time></trkpt><trkpt lat="39.0773957" lon="16.1926371"><ele>111.5</ele><time>2026-05-03T16:17:56.483Z</time></trkpt><trkpt lat="39.0771514" lon="16.1924203"><ele>112.0</ele><time>2026-05-03T16:17:57.48Z</time></trkpt><trkpt lat="39.076899" lon="16.1921984"><ele>112.0</ele><time>2026-05-03T16:17:58.48Z</time></trkpt><trkpt lat="39.0766398" lon="16.1919741"><ele>112.0</ele><time>2026-05-03T16:17:59.481Z</time></trkpt><trkpt lat="39.0763795" lon="16.1917489"><ele>110.0</ele><time>2026-05-03T16:18:00.482Z</time></trkpt><trkpt lat="39.0761232" lon="16.1915265"><ele>108.0</ele><time>2026-05-03T16:18:01.482Z</time></trkpt><trkpt lat="39.0758686" lon="16.1913102"><ele>112.0</ele><time>2026-05-03T16:18:02.482Z</time></trkpt><trkpt lat="39.0756154" lon="16.1911021"><ele>116.0</ele><time>2026-05-03T16:18:03.481Z</time></trkpt><trkpt lat="39.0753617" lon="16.1909083"><ele>116.0</ele><time>2026-05-03T16:18:04.481Z</time></trkpt><trkpt lat="39.0751033" lon="16.1907217"><ele>116.0</ele><time>2026-05-03T16:18:05.481Z</time></trkpt><trkpt lat="39.0748383" lon="16.190545"><ele>113.0</ele><time>2026-05-03T16:18:06.48Z</time></trkpt><trkpt lat="39.0745717" lon="16.19038"><ele>110.0</ele><time>2026-05-03T16:18:07.481Z</time></trkpt><trkpt lat="39.074305" lon="16.190225"><ele>116.0</ele><time>2026-05-03T16:18:08.482Z</time></trkpt><trkpt lat="39.07404" lon="16.1900767"><ele>122.0</ele><time>2026-05-03T16:18:09.481Z</time></trkpt><trkpt lat="39.0737833" lon="16.189915"><ele>114.5</ele><time>2026-05-03T16:18:10.481Z</time></trkpt><trkpt lat="39.0735483" lon="16.1897367"><ele>107.0</ele><time>2026-05-03T16:18:11.482Z</time></trkpt><trkpt lat="39.0733317" lon="16.1895317"><ele>121.0</ele><time>2026-05-03T16:18:12.481Z</time></trkpt><trkpt lat="39.07313" lon="16.1892967"><ele>135.0</ele><time>2026-05-03T16:18:13.481Z</time></trkpt><trkpt lat="39.0729483" lon="16.189035"><ele>126.5</ele><time>2026-05-03T16:18:14.482Z</time></trkpt><trkpt lat="39.07278" lon="16.1887617"><ele>118.0</ele><time>2026-05-03T16:18:15.481Z</time></trkpt><trkpt lat="39.0726217" lon="16.1884817"><ele>118.0</ele><time>2026-05-03T16:18:16.482Z</time></trkpt><trkpt lat="39.0724667" lon="16.188205"><ele>118.0</ele><time>2026-05-03T16:18:17.481Z</time></trkpt><trkpt lat="39.0723117" lon="16.1879417"><ele>129.0</ele><time>2026-05-03T16:18:18.482Z</time></trkpt><trkpt lat="39.07216" lon="16.1876933"><ele>140.0</ele><time>2026-05-03T16:18:19.48Z</time></trkpt><trkpt lat="39.0720017" lon="16.18747"><ele>127.0</ele><time>2026-05-03T16:18:20.481Z</time></trkpt><trkpt lat="39.07184" lon="16.1872617"><ele>114.0</ele><time>2026-05-03T16:18:21.481Z</time></trkpt><trkpt lat="39.0716783" lon="16.187055"><ele>118.5</ele><time>2026-05-03T16:18:22.482Z</time></trkpt><trkpt lat="39.0715133" lon="16.1868483"><ele>123.0</ele><time>2026-05-03T16:18:23.481Z</time></trkpt><trkpt lat="39.071345" lon="16.1866417"><ele>114.0</ele><time>2026-05-03T16:18:24.482Z</time></trkpt><trkpt lat="39.071175" lon="16.186435"><ele>105.0</ele><time>2026-05-03T16:18:25.481Z</time></trkpt><trkpt lat="39.071025" lon="16.1862233"><ele>105.0</ele><time>2026-05-03T16:18:26.482Z</time></trkpt><trkpt lat="39.0707483" lon="16.1861367"><ele>105.0</ele><time>2026-05-03T16:18:27.481Z</time></trkpt><trkpt lat="39.0702867" lon="16.1863067"><ele>105.0</ele><time>2026-05-03T16:18:28.48Z</time></trkpt><trkpt lat="39.0700333" lon="16.1862617"><ele>105.0</ele><time>2026-05-03T16:18:29.482Z</time></trkpt><trkpt lat="39.0697917" lon="16.1861967"><ele>110.0</ele><time>2026-05-03T16:18:30.482Z</time></trkpt><trkpt lat="39.0695517" lon="16.1861233"><ele>115.0</ele><time>2026-05-03T16:18:31.482Z</time></trkpt><trkpt lat="39.0693083" lon="16.1860017"><ele>118.5</ele><time>2026-05-03T16:18:32.482Z</time></trkpt><trkpt lat="39.0690667" lon="16.1858583"><ele>122.0</ele><time>2026-05-03T16:18:33.482Z</time></trkpt><trkpt lat="39.0688233" lon="16.185665"><ele>122.0</ele><time>2026-05-03T16:18:34.481Z</time></trkpt><trkpt lat="39.0685533" lon="16.18542"><ele>122.0</ele><time>2026-05-03T16:18:35.482Z</time></trkpt><trkpt lat="39.0683483" lon="16.1851517"><ele>126.5</ele><time>2026-05-03T16:18:36.482Z</time></trkpt><trkpt lat="39.0681517" lon="16.18486"><ele>131.0</ele><time>2026-05-03T16:18:37.482Z</time></trkpt><trkpt lat="39.0680067" lon="16.18452"><ele>131.0</ele><time>2026-05-03T16:18:38.481Z</time></trkpt><trkpt lat="39.0679417" lon="16.1840417"><ele>131.0</ele><time>2026-05-03T16:18:39.482Z</time></trkpt><trkpt lat="39.0678533" lon="16.1836733"><ele>131.0</ele><time>2026-05-03T16:18:40.48Z</time></trkpt><trkpt lat="39.067775" lon="16.1833183"><ele>131.0</ele><time>2026-05-03T16:18:41.482Z</time></trkpt><trkpt lat="39.06769" lon="16.1829683"><ele>131.0</ele><time>2026-05-03T16:18:42.48Z</time></trkpt><trkpt lat="39.06759" lon="16.1826317"><ele>131.0</ele><time>2026-05-03T16:18:43.481Z</time></trkpt><trkpt lat="39.067475" lon="16.1823133"><ele>129.5</ele><time>2026-05-03T16:18:44.481Z</time></trkpt><trkpt lat="39.06734" lon="16.182015"><ele>128.0</ele><time>2026-05-03T16:18:45.48Z</time></trkpt><trkpt lat="39.0671833" lon="16.18174"><ele>125.0</ele><time>2026-05-03T16:18:46.481Z</time></trkpt><trkpt lat="39.0670017" lon="16.1814883"><ele>122.0</ele><time>2026-05-03T16:18:47.482Z</time></trkpt><trkpt lat="39.0668033" lon="16.18124"><ele>123.0</ele><time>2026-05-03T16:18:48.481Z</time></trkpt><trkpt lat="39.066595" lon="16.1809867"><ele>124.0</ele><time>2026-05-03T16:18:49.481Z</time></trkpt><trkpt lat="39.06638" lon="16.18073"><ele>124.5</ele><time>2026-05-03T16:18:50.481Z</time></trkpt><trkpt lat="39.06616" lon="16.180475"><ele>125.0</ele><time>2026-05-03T16:18:51.48Z</time></trkpt><trkpt lat="39.0659433" lon="16.1802"><ele>128.5</ele><time>2026-05-03T16:18:52.481Z</time></trkpt><trkpt lat="39.06573" lon="16.179915"><ele>132.0</ele><time>2026-05-03T16:18:53.481Z</time></trkpt><trkpt lat="39.0655133" lon="16.179635"><ele>132.0</ele><time>2026-05-03T16:18:54.482Z</time></trkpt><trkpt lat="39.0652967" lon="16.1793383"><ele>132.0</ele><time>2026-05-03T16:18:55.48Z</time></trkpt><trkpt lat="39.06509" lon="16.1790233"><ele>136.5</ele><time>2026-05-03T16:18:56.48Z</time></trkpt><trkpt lat="39.0648967" lon="16.178695"><ele>141.0</ele><time>2026-05-03T16:18:57.482Z</time></trkpt><trkpt lat="39.0647133" lon="16.178355"><ele>139.5</ele><time>2026-05-03T16:18:58.481Z</time></trkpt><trkpt lat="39.064545" lon="16.1780017"><ele>138.0</ele><time>2026-05-03T16:18:59.481Z</time></trkpt><trkpt lat="39.06439" lon="16.1776367"><ele>138.5</ele><time>2026-05-03T16:19:00.482Z</time></trkpt><trkpt lat="39.0642633" lon="16.1772417"><ele>139.0</ele><time>2026-05-03T16:19:01.48Z</time></trkpt><trkpt lat="39.0641267" lon="16.17686"><ele>144.0</ele><time>2026-05-03T16:19:02.482Z</time></trkpt><trkpt lat="39.064015" lon="16.176465"><ele>149.0</ele><time>2026-05-03T16:19:03.481Z</time></trkpt><trkpt lat="39.0639033" lon="16.1760417"><ele>148.0</ele><time>2026-05-03T16:19:04.48Z</time></trkpt><trkpt lat="39.0637883" lon="16.175635"><ele>147.0</ele><time>2026-05-03T16:19:05.48Z</time></trkpt><trkpt lat="39.0636767" lon="16.175215"><ele>146.0</ele><time>2026-05-03T16:19:06.482Z</time></trkpt><trkpt lat="39.06356" lon="16.1748083"><ele>145.0</ele><time>2026-05-03T16:19:07.481Z</time></trkpt><trkpt lat="39.063425" lon="16.1744"><ele>142.5</ele><time>2026-05-03T16:19:08.481Z</time></trkpt><trkpt lat="39.06329" lon="16.173995"><ele>140.0</ele><time>2026-05-03T16:19:09.481Z</time></trkpt><trkpt lat="39.063145" lon="16.1735933"><ele>146.0</ele><time>2026-05-03T16:19:10.482Z</time></trkpt><trkpt lat="39.0629983" lon="16.1731933"><ele>152.0</ele><time>2026-05-03T16:19:11.482Z</time></trkpt><trkpt lat="39.0628483" lon="16.172795"><ele>152.0</ele><time>2026-05-03T16:19:12.48Z</time></trkpt><trkpt lat="39.0626974" lon="16.1724014"><ele>152.0</ele><time>2026-05-03T16:19:13.48Z</time></trkpt><trkpt lat="39.0625562" lon="16.1720051"><ele>157.0</ele><time>2026-05-03T16:19:14.481Z</time></trkpt><trkpt lat="39.0624272" lon="16.1716036"><ele>162.0</ele><time>2026-05-03T16:19:15.481Z</time></trkpt><trkpt lat="39.0623094" lon="16.1711987"><ele>162.0</ele><time>2026-05-03T16:19:16.481Z</time></trkpt><trkpt lat="39.062209" lon="16.1707879"><ele>162.0</ele><time>2026-05-03T16:19:17.48Z</time></trkpt><trkpt lat="39.0621206" lon="16.1703718"><ele>162.0</ele><time>2026-05-03T16:19:18.481Z</time></trkpt><trkpt lat="39.0620437" lon="16.1699515"><ele>162.0</ele><time>2026-05-03T16:19:19.482Z</time></trkpt><trkpt lat="39.0619701" lon="16.1695281"><ele>161.0</ele><time>2026-05-03T16:19:20.489Z</time></trkpt><trkpt lat="39.0618935" lon="16.1691086"><ele>160.0</ele><time>2026-05-03T16:19:21.482Z</time></trkpt><trkpt lat="39.0618118" lon="16.1686922"><ele>158.0</ele><time>2026-05-03T16:19:22.482Z</time></trkpt><trkpt lat="39.061719" lon="16.168282"><ele>156.0</ele><time>2026-05-03T16:19:23.481Z</time></trkpt><trkpt lat="39.0616134" lon="16.167878"><ele>157.5</ele><time>2026-05-03T16:19:24.48Z</time></trkpt><trkpt lat="39.0614942" lon="16.1674792"><ele>159.0</ele><time>2026-05-03T16:19:25.48Z</time></trkpt><trkpt lat="39.0613614" lon="16.1670832"><ele>159.0</ele><time>2026-05-03T16:19:26.481Z</time></trkpt><trkpt lat="39.0612164" lon="16.1666913"><ele>159.0</ele><time>2026-05-03T16:19:27.481Z</time></trkpt><trkpt lat="39.0610607" lon="16.1663001"><ele>160.5</ele><time>2026-05-03T16:19:28.481Z</time></trkpt><trkpt lat="39.0609012" lon="16.1659074"><ele>162.0</ele><time>2026-05-03T16:19:29.481Z</time></trkpt><trkpt lat="39.0607421" lon="16.1655126"><ele>162.0</ele><time>2026-05-03T16:19:30.481Z</time></trkpt><trkpt lat="39.0605905" lon="16.1651098"><ele>162.0</ele><time>2026-05-03T16:19:31.482Z</time></trkpt><trkpt lat="39.0604488" lon="16.164698"><ele>158.0</ele><time>2026-05-03T16:19:32.482Z</time></trkpt><trkpt lat="39.0603161" lon="16.1642833"><ele>154.0</ele><time>2026-05-03T16:19:33.482Z</time></trkpt><trkpt lat="39.0601883" lon="16.1638661"><ele>152.5</ele><time>2026-05-03T16:19:34.481Z</time></trkpt><trkpt lat="39.0600627" lon="16.1634436"><ele>151.0</ele><time>2026-05-03T16:19:35.48Z</time></trkpt><trkpt lat="39.0599337" lon="16.1630205"><ele>155.0</ele><time>2026-05-03T16:19:36.482Z</time></trkpt><trkpt lat="39.0598061" lon="16.1625984"><ele>159.0</ele><time>2026-05-03T16:19:37.481Z</time></trkpt><trkpt lat="39.0596795" lon="16.1621776"><ele>159.0</ele><time>2026-05-03T16:19:38.481Z</time></trkpt><trkpt lat="39.0595529" lon="16.1617582"><ele>159.0</ele><time>2026-05-03T16:19:39.48Z</time></trkpt><trkpt lat="39.0594291" lon="16.1613419"><ele>152.0</ele><time>2026-05-03T16:19:40.482Z</time></trkpt><trkpt lat="39.0593033" lon="16.1609305"><ele>145.0</ele><time>2026-05-03T16:19:41.481Z</time></trkpt><trkpt lat="39.0591786" lon="16.1605266"><ele>146.0</ele><time>2026-05-03T16:19:42.481Z</time></trkpt><trkpt lat="39.0590563" lon="16.1601243"><ele>147.0</ele><time>2026-05-03T16:19:43.482Z</time></trkpt><trkpt lat="39.0589334" lon="16.1597215"><ele>147.5</ele><time>2026-05-03T16:19:44.482Z</time></trkpt><trkpt lat="39.0588091" lon="16.1593272"><ele>148.0</ele><time>2026-05-03T16:19:45.482Z</time></trkpt><trkpt lat="39.0586856" lon="16.1589517"><ele>148.0</ele><time>2026-05-03T16:19:46.481Z</time></trkpt><trkpt lat="39.0585569" lon="16.1585874"><ele>148.0</ele><time>2026-05-03T16:19:47.48Z</time></trkpt><trkpt lat="39.0584147" lon="16.158225"><ele>155.0</ele><time>2026-05-03T16:19:48.482Z</time></trkpt><trkpt lat="39.0582541" lon="16.1578681"><ele>162.0</ele><time>2026-05-03T16:19:49.48Z</time></trkpt><trkpt lat="39.0580785" lon="16.1575177"><ele>155.0</ele><time>2026-05-03T16:19:50.481Z</time></trkpt><trkpt lat="39.0578893" lon="16.1571727"><ele>148.0</ele><time>2026-05-03T16:19:51.482Z</time></trkpt><trkpt lat="39.0576845" lon="16.1568365"><ele>153.0</ele><time>2026-05-03T16:19:52.481Z</time></trkpt><trkpt lat="39.0574639" lon="16.1565096"><ele>158.0</ele><time>2026-05-03T16:19:53.482Z</time></trkpt><trkpt lat="39.0572274" lon="16.1561957"><ele>158.0</ele><time>2026-05-03T16:19:54.482Z</time></trkpt><trkpt lat="39.0569748" lon="16.1558955"><ele>158.0</ele><time>2026-05-03T16:19:55.481Z</time></trkpt><trkpt lat="39.0567064" lon="16.1556092"><ele>154.0</ele><time>2026-05-03T16:19:56.482Z</time></trkpt><trkpt lat="39.0564237" lon="16.1553397"><ele>150.0</ele><time>2026-05-03T16:19:57.483Z</time></trkpt><trkpt lat="39.0561315" lon="16.1550887"><ele>148.0</ele><time>2026-05-03T16:19:58.481Z</time></trkpt><trkpt lat="39.0558259" lon="16.1548601"><ele>146.0</ele><time>2026-05-03T16:19:59.482Z</time></trkpt><trkpt lat="39.0555132" lon="16.1546454"><ele>146.0</ele><time>2026-05-03T16:20:00.482Z</time></trkpt><trkpt lat="39.0551966" lon="16.1544424"><ele>146.0</ele><time>2026-05-03T16:20:01.482Z</time></trkpt><trkpt lat="39.0548765" lon="16.1542456"><ele>144.0</ele><time>2026-05-03T16:20:02.482Z</time></trkpt><trkpt lat="39.0545529" lon="16.1540505"><ele>142.0</ele><time>2026-05-03T16:20:03.482Z</time></trkpt><trkpt lat="39.054232" lon="16.1538571"><ele>147.5</ele><time>2026-05-03T16:20:04.482Z</time></trkpt><trkpt lat="39.053913" lon="16.1536639"><ele>153.0</ele><time>2026-05-03T16:20:05.481Z</time></trkpt><trkpt lat="39.0535936" lon="16.153471"><ele>149.5</ele><time>2026-05-03T16:20:06.482Z</time></trkpt><trkpt lat="39.0532759" lon="16.1532798"><ele>146.0</ele><time>2026-05-03T16:20:07.481Z</time></trkpt><trkpt lat="39.0529597" lon="16.1530866"><ele>146.0</ele><time>2026-05-03T16:20:08.482Z</time></trkpt><trkpt lat="39.0526448" lon="16.152896"><ele>146.0</ele><time>2026-05-03T16:20:09.481Z</time></trkpt><trkpt lat="39.0523315" lon="16.1527097"><ele>145.5</ele><time>2026-05-03T16:20:10.481Z</time></trkpt><trkpt lat="39.0520182" lon="16.1525147"><ele>145.0</ele><time>2026-05-03T16:20:11.482Z</time></trkpt><trkpt lat="39.0517031" lon="16.1523062"><ele>148.0</ele><time>2026-05-03T16:20:12.48Z</time></trkpt><trkpt lat="39.0513911" lon="16.1520884"><ele>151.0</ele><time>2026-05-03T16:20:13.482Z</time></trkpt><trkpt lat="39.0510855" lon="16.1518581"><ele>150.5</ele><time>2026-05-03T16:20:14.482Z</time></trkpt><trkpt lat="39.0507853" lon="16.1516143"><ele>150.0</ele><time>2026-05-03T16:20:15.481Z</time></trkpt><trkpt lat="39.0504904" lon="16.1513572"><ele>150.0</ele><time>2026-05-03T16:20:16.482Z</time></trkpt><trkpt lat="39.0502029" lon="16.1510861"><ele>150.0</ele><time>2026-05-03T16:20:17.482Z</time></trkpt><trkpt lat="39.049921" lon="16.1508086"><ele>151.5</ele><time>2026-05-03T16:20:18.481Z</time></trkpt><trkpt lat="39.049645" lon="16.1505217"><ele>153.0</ele><time>2026-05-03T16:20:19.482Z</time></trkpt><trkpt lat="39.0493683" lon="16.1502333"><ele>153.0</ele><time>2026-05-03T16:20:20.482Z</time></trkpt><trkpt lat="39.04909" lon="16.1499483"><ele>153.0</ele><time>2026-05-03T16:20:21.481Z</time></trkpt><trkpt lat="39.0488117" lon="16.1496667"><ele>153.0</ele><time>2026-05-03T16:20:22.482Z</time></trkpt><trkpt lat="39.0485317" lon="16.1493833"><ele>153.0</ele><time>2026-05-03T16:20:23.481Z</time></trkpt><trkpt lat="39.0482583" lon="16.149105"><ele>152.5</ele><time>2026-05-03T16:20:24.482Z</time></trkpt><trkpt lat="39.047985" lon="16.14883"><ele>152.0</ele><time>2026-05-03T16:20:25.48Z</time></trkpt><trkpt lat="39.0477133" lon="16.1485517"><ele>153.5</ele><time>2026-05-03T16:20:26.481Z</time></trkpt><trkpt lat="39.0474367" lon="16.14828"><ele>155.0</ele><time>2026-05-03T16:20:27.48Z</time></trkpt><trkpt lat="39.0471533" lon="16.1480267"><ele>150.5</ele><time>2026-05-03T16:20:28.48Z</time></trkpt><trkpt lat="39.04686" lon="16.1477967"><ele>146.0</ele><time>2026-05-03T16:20:29.482Z</time></trkpt><trkpt lat="39.04656" lon="16.1475867"><ele>147.5</ele><time>2026-05-03T16:20:30.481Z</time></trkpt><trkpt lat="39.0462517" lon="16.1473917"><ele>149.0</ele><time>2026-05-03T16:20:31.482Z</time></trkpt><trkpt lat="39.04594" lon="16.1472033"><ele>151.5</ele><time>2026-05-03T16:20:32.483Z</time></trkpt><trkpt lat="39.045625" lon="16.1470217"><ele>154.0</ele><time>2026-05-03T16:20:33.482Z</time></trkpt><trkpt lat="39.0453083" lon="16.1468367"><ele>154.0</ele><time>2026-05-03T16:20:34.482Z</time></trkpt><trkpt lat="39.0449933" lon="16.146645"><ele>154.0</ele><time>2026-05-03T16:20:35.481Z</time></trkpt><trkpt lat="39.0446817" lon="16.1464417"><ele>153.0</ele><time>2026-05-03T16:20:36.482Z</time></trkpt><trkpt lat="39.044375" lon="16.14623"><ele>152.0</ele><time>2026-05-03T16:20:37.482Z</time></trkpt><trkpt lat="39.044075" lon="16.1460033"><ele>152.0</ele><time>2026-05-03T16:20:38.481Z</time></trkpt><trkpt lat="39.043785" lon="16.1457533"><ele>152.0</ele><time>2026-05-03T16:20:39.481Z</time></trkpt><trkpt lat="39.0435033" lon="16.14548"><ele>150.0</ele><time>2026-05-03T16:20:40.48Z</time></trkpt><trkpt lat="39.0432317" lon="16.14518"><ele>148.0</ele><time>2026-05-03T16:20:41.481Z</time></trkpt><trkpt lat="39.04297" lon="16.1448583"><ele>148.0</ele><time>2026-05-03T16:20:42.481Z</time></trkpt><trkpt lat="39.0427233" lon="16.1445217"><ele>148.0</ele><time>2026-05-03T16:20:43.482Z</time></trkpt><trkpt lat="39.04249" lon="16.1441683"><ele>154.5</ele><time>2026-05-03T16:20:44.482Z</time></trkpt><trkpt lat="39.04227" lon="16.1437933"><ele>161.0</ele><time>2026-05-03T16:20:45.48Z</time></trkpt><trkpt lat="39.0420683" lon="16.1434033"><ele>152.5</ele><time>2026-05-03T16:20:46.48Z</time></trkpt><trkpt lat="39.041885" lon="16.1429967"><ele>144.0</ele><time>2026-05-03T16:20:47.481Z</time></trkpt><trkpt lat="39.0417183" lon="16.14258"><ele>158.0</ele><time>2026-05-03T16:20:48.481Z</time></trkpt><trkpt lat="39.0415567" lon="16.1421633"><ele>172.0</ele><time>2026-05-03T16:20:49.481Z</time></trkpt><trkpt lat="39.0413967" lon="16.14175"><ele>163.5</ele><time>2026-05-03T16:20:50.482Z</time></trkpt><trkpt lat="39.0412283" lon="16.1413467"><ele>155.0</ele><time>2026-05-03T16:20:51.481Z</time></trkpt><trkpt lat="39.0410483" lon="16.1409517"><ele>151.5</ele><time>2026-05-03T16:20:52.481Z</time></trkpt><trkpt lat="39.0408483" lon="16.14057"><ele>148.0</ele><time>2026-05-03T16:20:53.481Z</time></trkpt><trkpt lat="39.04063" lon="16.1402017"><ele>137.0</ele><time>2026-05-03T16:20:54.481Z</time></trkpt><trkpt lat="39.040395" lon="16.1398517"><ele>126.0</ele><time>2026-05-03T16:20:55.48Z</time></trkpt><trkpt lat="39.0401467" lon="16.1395133"><ele>127.0</ele><time>2026-05-03T16:20:56.482Z</time></trkpt><trkpt lat="39.0398833" lon="16.139195"><ele>128.0</ele><time>2026-05-03T16:20:57.48Z</time></trkpt><trkpt lat="39.0396117" lon="16.138885"><ele>128.0</ele><time>2026-05-03T16:20:58.481Z</time></trkpt><trkpt lat="39.0393317" lon="16.13858"><ele>128.0</ele><time>2026-05-03T16:20:59.481Z</time></trkpt><trkpt lat="39.03905" lon="16.13828"><ele>130.5</ele><time>2026-05-03T16:21:00.482Z</time></trkpt><trkpt lat="39.038765" lon="16.1379867"><ele>133.0</ele><time>2026-05-03T16:21:01.48Z</time></trkpt><trkpt lat="39.03848" lon="16.1376933"><ele>130.5</ele><time>2026-05-03T16:21:02.482Z</time></trkpt><trkpt lat="39.038195" lon="16.1374067"><ele>128.0</ele><time>2026-05-03T16:21:03.482Z</time></trkpt><trkpt lat="39.0379033" lon="16.13713"><ele>128.0</ele><time>2026-05-03T16:21:04.482Z</time></trkpt><trkpt lat="39.0376" lon="16.13687"><ele>128.0</ele><time>2026-05-03T16:21:05.481Z</time></trkpt><trkpt lat="39.0372867" lon="16.1366267"><ele>124.0</ele><time>2026-05-03T16:21:06.482Z</time></trkpt><trkpt lat="39.036965" lon="16.1364"><ele>120.0</ele><time>2026-05-03T16:21:07.48Z</time></trkpt><trkpt lat="39.03664" lon="16.1361833"><ele>105.5</ele><time>2026-05-03T16:21:08.482Z</time></trkpt><trkpt lat="39.0363083" lon="16.1359717"><ele>91.0</ele><time>2026-05-03T16:21:09.482Z</time></trkpt><trkpt lat="39.0359733" lon="16.1357683"><ele>87.5</ele><time>2026-05-03T16:21:10.481Z</time></trkpt><trkpt lat="39.03564" lon="16.1355667"><ele>84.0</ele><time>2026-05-03T16:21:11.481Z</time></trkpt><trkpt lat="39.0353067" lon="16.1353617"><ele>84.0</ele><time>2026-05-03T16:21:12.481Z</time></trkpt><trkpt lat="39.0349717" lon="16.1351567"><ele>84.0</ele><time>2026-05-03T16:21:13.481Z</time></trkpt><trkpt lat="39.0346383" lon="16.1349483"><ele>89.0</ele><time>2026-05-03T16:21:14.481Z</time></trkpt><trkpt lat="39.0343033" lon="16.1347417"><ele>94.0</ele><time>2026-05-03T16:21:15.482Z</time></trkpt><trkpt lat="39.03397" lon="16.1345333"><ele>106.0</ele><time>2026-05-03T16:21:16.482Z</time></trkpt><trkpt lat="39.03364" lon="16.1343233"><ele>118.0</ele><time>2026-05-03T16:21:17.482Z</time></trkpt><trkpt lat="39.03332" lon="16.1341017"><ele>114.0</ele><time>2026-05-03T16:21:18.481Z</time></trkpt><trkpt lat="39.0330133" lon="16.13387"><ele>110.0</ele><time>2026-05-03T16:21:19.481Z</time></trkpt><trkpt lat="39.03272" lon="16.13362"><ele>109.5</ele><time>2026-05-03T16:21:20.482Z</time></trkpt><trkpt lat="39.0324383" lon="16.133345"><ele>109.0</ele><time>2026-05-03T16:21:21.482Z</time></trkpt><trkpt lat="39.0321717" lon="16.13305"><ele>109.0</ele><time>2026-05-03T16:21:22.481Z</time></trkpt><trkpt lat="39.03192" lon="16.1327367"><ele>109.0</ele><time>2026-05-03T16:21:23.483Z</time></trkpt><trkpt lat="39.0316817" lon="16.1324"><ele>116.5</ele><time>2026-05-03T16:21:24.481Z</time></trkpt><trkpt lat="39.0314567" lon="16.132045"><ele>124.0</ele><time>2026-05-03T16:21:25.481Z</time></trkpt><trkpt lat="39.0312433" lon="16.131675"><ele>116.5</ele><time>2026-05-03T16:21:26.481Z</time></trkpt><trkpt lat="39.031035" lon="16.131295"><ele>109.0</ele><time>2026-05-03T16:21:27.481Z</time></trkpt><trkpt lat="39.03083" lon="16.1309"><ele>112.5</ele><time>2026-05-03T16:21:28.482Z</time></trkpt><trkpt lat="39.03063" lon="16.1305133"><ele>116.0</ele><time>2026-05-03T16:21:29.481Z</time></trkpt><trkpt lat="39.0304317" lon="16.1301317"><ele>109.0</ele><time>2026-05-03T16:21:30.482Z</time></trkpt><trkpt lat="39.0302317" lon="16.1297567"><ele>102.0</ele><time>2026-05-03T16:21:31.482Z</time></trkpt><trkpt lat="39.0300317" lon="16.12938"><ele>109.0</ele><time>2026-05-03T16:21:32.482Z</time></trkpt><trkpt lat="39.0298283" lon="16.1290083"><ele>116.0</ele><time>2026-05-03T16:21:33.482Z</time></trkpt><trkpt lat="39.0296233" lon="16.1286433"><ele>116.0</ele><time>2026-05-03T16:21:34.482Z</time></trkpt><trkpt lat="39.0294133" lon="16.128285"><ele>116.0</ele><time>2026-05-03T16:21:35.482Z</time></trkpt><trkpt lat="39.0292" lon="16.12793"><ele>114.5</ele><time>2026-05-03T16:21:36.481Z</time></trkpt><trkpt lat="39.0289767" lon="16.1275883"><ele>113.0</ele><time>2026-05-03T16:21:37.482Z</time></trkpt><trkpt lat="39.0287517" lon="16.12726"><ele>113.0</ele><time>2026-05-03T16:21:38.482Z</time></trkpt><trkpt lat="39.0285317" lon="16.1269417"><ele>113.0</ele><time>2026-05-03T16:21:39.48Z</time></trkpt><trkpt lat="39.0283183" lon="16.1266467"><ele>124.5</ele><time>2026-05-03T16:21:40.482Z</time></trkpt><trkpt lat="39.0281083" lon="16.126355"><ele>136.0</ele><time>2026-05-03T16:21:41.482Z</time></trkpt><trkpt lat="39.027905" lon="16.126065"><ele>136.0</ele><time>2026-05-03T16:21:42.48Z</time></trkpt><trkpt lat="39.0277017" lon="16.1257783"><ele>136.0</ele><time>2026-05-03T16:21:43.482Z</time></trkpt><trkpt lat="39.0222417" lon="16.1224333"><ele>95.5</ele><time>2026-05-03T16:21:58.481Z</time></trkpt><trkpt lat="39.0218867" lon="16.1222733"><ele>55.0</ele><time>2026-05-03T16:21:59.482Z</time></trkpt><trkpt lat="39.0215283" lon="16.12213"><ele>55.0</ele><time>2026-05-03T16:22:00.481Z</time></trkpt><trkpt lat="39.021165" lon="16.122015"><ele>55.0</ele><time>2026-05-03T16:22:01.482Z</time></trkpt><trkpt lat="39.020805" lon="16.12192"><ele>55.5</ele><time>2026-05-03T16:22:02.482Z</time></trkpt><trkpt lat="39.0204417" lon="16.12185"><ele>56.0</ele><time>2026-05-03T16:22:03.481Z</time></trkpt><trkpt lat="39.0200833" lon="16.12181"><ele>56.0</ele><time>2026-05-03T16:22:04.481Z</time></trkpt><trkpt lat="39.0197267" lon="16.1217883"><ele>56.0</ele><time>2026-05-03T16:22:05.481Z</time></trkpt><trkpt lat="39.01937" lon="16.1217917"><ele>55.0</ele><time>2026-05-03T16:22:06.481Z</time></trkpt><trkpt lat="39.0190117" lon="16.1218183"><ele>54.0</ele><time>2026-05-03T16:22:07.481Z</time></trkpt><trkpt lat="39.0186567" lon="16.1218667"><ele>48.5</ele><time>2026-05-03T16:22:08.482Z</time></trkpt><trkpt lat="39.0183033" lon="16.1219367"><ele>43.0</ele><time>2026-05-03T16:22:09.481Z</time></trkpt><trkpt lat="39.017965" lon="16.1220267"><ele>43.0</ele><time>2026-05-03T16:22:10.48Z</time></trkpt><trkpt lat="39.0176367" lon="16.1221367"><ele>43.0</ele><time>2026-05-03T16:22:11.481Z</time></trkpt><trkpt lat="39.0173117" lon="16.1222717"><ele>43.5</ele><time>2026-05-03T16:22:12.48Z</time></trkpt><trkpt lat="39.0169867" lon="16.1224317"><ele>44.0</ele><time>2026-05-03T16:22:13.481Z</time></trkpt><trkpt lat="39.0166617" lon="16.12261"><ele>35.5</ele><time>2026-05-03T16:22:14.481Z</time></trkpt><trkpt lat="39.0163383" lon="16.1228133"><ele>27.0</ele><time>2026-05-03T16:22:15.48Z</time></trkpt><trkpt lat="39.0160117" lon="16.12303"><ele>32.0</ele><time>2026-05-03T16:22:16.482Z</time></trkpt><trkpt lat="39.0156817" lon="16.12324"><ele>37.0</ele><time>2026-05-03T16:22:17.48Z</time></trkpt><trkpt lat="39.01535" lon="16.1234383"><ele>37.0</ele><time>2026-05-03T16:22:18.481Z</time></trkpt><trkpt lat="39.0150133" lon="16.12362"><ele>37.0</ele><time>2026-05-03T16:22:19.481Z</time></trkpt><trkpt lat="39.01467" lon="16.1237867"><ele>35.0</ele><time>2026-05-03T16:22:20.482Z</time></trkpt><trkpt lat="39.0143217" lon="16.1239417"><ele>33.0</ele><time>2026-05-03T16:22:21.48Z</time></trkpt><trkpt lat="39.0139717" lon="16.124095"><ele>29.5</ele><time>2026-05-03T16:22:22.481Z</time></trkpt><trkpt lat="39.0136217" lon="16.1242533"><ele>26.0</ele><time>2026-05-03T16:22:23.48Z</time></trkpt><trkpt lat="39.013275" lon="16.1244267"><ele>18.5</ele><time>2026-05-03T16:22:24.48Z</time></trkpt><trkpt lat="39.0129367" lon="16.1246217"><ele>11.0</ele><time>2026-05-03T16:22:25.48Z</time></trkpt><trkpt lat="39.0126083" lon="16.1248367"><ele>12.5</ele><time>2026-05-03T16:22:26.481Z</time></trkpt><trkpt lat="39.0122867" lon="16.1250717"><ele>14.0</ele><time>2026-05-03T16:22:27.481Z</time></trkpt><trkpt lat="39.011975" lon="16.1253283"><ele>14.0</ele><time>2026-05-03T16:22:28.481Z</time></trkpt><trkpt lat="39.0116733" lon="16.12561"><ele>14.0</ele><time>2026-05-03T16:22:29.48Z</time></trkpt><trkpt lat="39.0113817" lon="16.1259133"><ele>13.0</ele><time>2026-05-03T16:22:30.481Z</time></trkpt><trkpt lat="39.0110983" lon="16.1262333"><ele>12.0</ele><time>2026-05-03T16:22:31.482Z</time></trkpt><trkpt lat="39.010825" lon="16.1265717"><ele>10.0</ele><time>2026-05-03T16:22:32.482Z</time></trkpt><trkpt lat="39.0105567" lon="16.1269367"><ele>8.0</ele><time>2026-05-03T16:22:33.481Z</time></trkpt><trkpt lat="39.0102933" lon="16.1273283"><ele>6.5</ele><time>2026-05-03T16:22:34.481Z</time></trkpt><trkpt lat="39.010015" lon="16.12777"><ele>5.0</ele><time>2026-05-03T16:22:35.481Z</time></trkpt><trkpt lat="39.0098117" lon="16.128175"><ele>7.0</ele><time>2026-05-03T16:22:36.481Z</time></trkpt><trkpt lat="39.0096017" lon="16.1285667"><ele>9.0</ele><time>2026-05-03T16:22:37.482Z</time></trkpt><trkpt lat="39.0094033" lon="16.1289783"><ele>6.5</ele><time>2026-05-03T16:22:38.483Z</time></trkpt><trkpt lat="39.009245" lon="16.1294217"><ele>4.0</ele><time>2026-05-03T16:22:39.48Z</time></trkpt><trkpt lat="39.009075" lon="16.12985"><ele>4.5</ele><time>2026-05-03T16:22:40.481Z</time></trkpt><trkpt lat="39.00889" lon="16.1302733"><ele>5.0</ele><time>2026-05-03T16:22:41.481Z</time></trkpt><trkpt lat="39.0086867" lon="16.130685"><ele>5.5</ele><time>2026-05-03T16:22:42.481Z</time></trkpt><trkpt lat="39.0084683" lon="16.13108"><ele>6.0</ele><time>2026-05-03T16:22:43.481Z</time></trkpt><trkpt lat="39.0082283" lon="16.13146"><ele>7.5</ele><time>2026-05-03T16:22:44.481Z</time></trkpt><trkpt lat="39.0079683" lon="16.13182"><ele>9.0</ele><time>2026-05-03T16:22:45.482Z</time></trkpt><trkpt lat="39.0076867" lon="16.1321583"><ele>8.0</ele><time>2026-05-03T16:22:46.481Z</time></trkpt><trkpt lat="39.0073917" lon="16.132475"><ele>7.0</ele><time>2026-05-03T16:22:47.481Z</time></trkpt><trkpt lat="39.007085" lon="16.13277"><ele>7.0</ele><time>2026-05-03T16:22:48.482Z</time></trkpt><trkpt lat="39.0067683" lon="16.1330417"><ele>7.0</ele><time>2026-05-03T16:22:49.482Z</time></trkpt><trkpt lat="39.00644" lon="16.1332867"><ele>7.0</ele><time>2026-05-03T16:22:50.482Z</time></trkpt><trkpt lat="39.0061017" lon="16.1335033"><ele>7.0</ele><time>2026-05-03T16:22:51.481Z</time></trkpt><trkpt lat="39.00576" lon="16.1336867"><ele>6.0</ele><time>2026-05-03T16:22:52.48Z</time></trkpt><trkpt lat="39.0054183" lon="16.1338583"><ele>5.0</ele><time>2026-05-03T16:22:53.481Z</time></trkpt><trkpt lat="39.0050733" lon="16.13398"><ele>5.5</ele><time>2026-05-03T16:22:54.481Z</time></trkpt><trkpt lat="39.004735" lon="16.134105"><ele>6.0</ele><time>2026-05-03T16:22:55.482Z</time></trkpt><trkpt lat="39.0043833" lon="16.1342083"><ele>5.0</ele><time>2026-05-03T16:22:56.482Z</time></trkpt><trkpt lat="39.0040333" lon="16.13429"><ele>4.0</ele><time>2026-05-03T16:22:57.481Z</time></trkpt><trkpt lat="39.0036833" lon="16.134375"><ele>4.0</ele><time>2026-05-03T16:22:58.48Z</time></trkpt><trkpt lat="39.003335" lon="16.1344617"><ele>4.0</ele><time>2026-05-03T16:22:59.481Z</time></trkpt><trkpt lat="39.00298" lon="16.1345483"><ele>4.5</ele><time>2026-05-03T16:23:00.481Z</time></trkpt><trkpt lat="39.0026217" lon="16.1346383"><ele>5.0</ele><time>2026-05-03T16:23:01.482Z</time></trkpt><trkpt lat="39.0022567" lon="16.1347317"><ele>5.0</ele><time>2026-05-03T16:23:02.481Z</time></trkpt><trkpt lat="39.0018917" lon="16.1348317"><ele>5.0</ele><time>2026-05-03T16:23:03.482Z</time></trkpt><trkpt lat="39.0015117" lon="16.1348967"><ele>4.5</ele><time>2026-05-03T16:23:04.483Z</time></trkpt><trkpt lat="39.001135" lon="16.13499"><ele>4.0</ele><time>2026-05-03T16:23:05.482Z</time></trkpt><trkpt lat="39.0007383" lon="16.1350817"><ele>5.0</ele><time>2026-05-03T16:23:06.482Z</time></trkpt><trkpt lat="39.0003433" lon="16.135175"><ele>6.0</ele><time>2026-05-03T16:23:07.481Z</time></trkpt><trkpt lat="38.99996" lon="16.1352767"><ele>6.0</ele><time>2026-05-03T16:23:08.482Z</time></trkpt><trkpt lat="38.99958" lon="16.1353783"><ele>6.0</ele><time>2026-05-03T16:23:09.483Z</time></trkpt><trkpt lat="38.9992" lon="16.1354717"><ele>6.0</ele><time>2026-05-03T16:23:10.48Z</time></trkpt><trkpt lat="38.99882" lon="16.1355567"><ele>6.0</ele><time>2026-05-03T16:23:11.48Z</time></trkpt><trkpt lat="38.9984417" lon="16.1356483"><ele>6.0</ele><time>2026-05-03T16:23:12.481Z</time></trkpt><trkpt lat="38.9980717" lon="16.1357417"><ele>6.0</ele><time>2026-05-03T16:23:13.48Z</time></trkpt><trkpt lat="38.9977" lon="16.1358367"><ele>6.5</ele><time>2026-05-03T16:23:14.481Z</time></trkpt><trkpt lat="38.99733" lon="16.1359333"><ele>7.0</ele><time>2026-05-03T16:23:15.481Z</time></trkpt><trkpt lat="38.9969617" lon="16.1360233"><ele>8.0</ele><time>2026-05-03T16:23:16.482Z</time></trkpt><trkpt lat="38.9965983" lon="16.1361133"><ele>9.0</ele><time>2026-05-03T16:23:17.482Z</time></trkpt><trkpt lat="38.9962317" lon="16.1362"><ele>9.0</ele><time>2026-05-03T16:23:18.481Z</time></trkpt><trkpt lat="38.9958667" lon="16.1362983"><ele>9.0</ele><time>2026-05-03T16:23:19.481Z</time></trkpt><trkpt lat="38.9955067" lon="16.13641"><ele>10.5</ele><time>2026-05-03T16:23:20.482Z</time></trkpt><trkpt lat="38.9951483" lon="16.136535"><ele>12.0</ele><time>2026-05-03T16:23:21.48Z</time></trkpt><trkpt lat="38.9947917" lon="16.136665"><ele>16.5</ele><time>2026-05-03T16:23:22.481Z</time></trkpt><trkpt lat="38.994435" lon="16.13681"><ele>21.0</ele><time>2026-05-03T16:23:23.482Z</time></trkpt><trkpt lat="38.9940767" lon="16.1369733"><ele>21.0</ele><time>2026-05-03T16:23:24.482Z</time></trkpt><trkpt lat="38.9937333" lon="16.1371617"><ele>21.0</ele><time>2026-05-03T16:23:25.48Z</time></trkpt><trkpt lat="38.9933683" lon="16.1373183"><ele>19.0</ele><time>2026-05-03T16:23:26.482Z</time></trkpt><trkpt lat="38.99301" lon="16.137495"><ele>17.0</ele><time>2026-05-03T16:23:27.48Z</time></trkpt><trkpt lat="38.992645" lon="16.1376583"><ele>17.0</ele><time>2026-05-03T16:23:28.48Z</time></trkpt><trkpt lat="38.9922983" lon="16.1378383"><ele>17.0</ele><time>2026-05-03T16:23:29.482Z</time></trkpt><trkpt lat="38.9919633" lon="16.1380117"><ele>17.5</ele><time>2026-05-03T16:23:30.48Z</time></trkpt><trkpt lat="38.9916417" lon="16.13819"><ele>18.0</ele><time>2026-05-03T16:23:31.481Z</time></trkpt><trkpt lat="38.99131" lon="16.1383633"><ele>18.0</ele><time>2026-05-03T16:23:32.482Z</time></trkpt><trkpt lat="38.9909717" lon="16.1385383"><ele>18.0</ele><time>2026-05-03T16:23:33.481Z</time></trkpt><trkpt lat="38.9906333" lon="16.1387067"><ele>16.5</ele><time>2026-05-03T16:23:34.481Z</time></trkpt><trkpt lat="38.9903083" lon="16.13887"><ele>15.0</ele><time>2026-05-03T16:23:35.48Z</time></trkpt><trkpt lat="38.9900033" lon="16.1390267"><ele>19.5</ele><time>2026-05-03T16:23:36.481Z</time></trkpt><trkpt lat="38.989725" lon="16.1391767"><ele>24.0</ele><time>2026-05-03T16:23:37.482Z</time></trkpt><trkpt lat="38.989475" lon="16.13931"><ele>24.0</ele><time>2026-05-03T16:23:38.481Z</time></trkpt><trkpt lat="38.9892483" lon="16.1394333"><ele>24.0</ele><time>2026-05-03T16:23:39.482Z</time></trkpt><trkpt lat="38.9890367" lon="16.1395617"><ele>23.0</ele><time>2026-05-03T16:23:40.482Z</time></trkpt><trkpt lat="38.9888367" lon="16.139695"><ele>22.0</ele><time>2026-05-03T16:23:41.481Z</time></trkpt><trkpt lat="38.988645" lon="16.1398333"><ele>21.0</ele><time>2026-05-03T16:23:42.481Z</time></trkpt><trkpt lat="38.98845" lon="16.1399817"><ele>24.333333333333336</ele><time>2026-05-03T16:23:43.481Z</time></trkpt><trkpt lat="38.988255" lon="16.140135"><ele>27.666666666666668</ele><time>2026-05-03T16:23:44.482Z</time></trkpt><trkpt lat="38.9880733" lon="16.1402867"><ele>31.0</ele><time>2026-05-03T16:23:45.481Z</time></trkpt><trkpt lat="38.9879" lon="16.14044"><ele>31.0</ele><time>2026-05-03T16:23:46.48Z</time></trkpt><trkpt lat="38.98774" lon="16.1405983"><ele>31.0</ele><time>2026-05-03T16:23:47.482Z</time></trkpt><trkpt lat="38.9875767" lon="16.1407667"><ele>31.0</ele><time>2026-05-03T16:23:48.481Z</time></trkpt><trkpt lat="38.9874067" lon="16.1409433"><ele>34.0</ele><time>2026-05-03T16:23:49.481Z</time></trkpt><trkpt lat="38.98723" lon="16.14113"><ele>37.0</ele><time>2026-05-03T16:23:50.481Z</time></trkpt><trkpt lat="38.9870467" lon="16.1413217"><ele>37.0</ele><time>2026-05-03T16:23:51.48Z</time></trkpt><trkpt lat="38.986865" lon="16.1415117"><ele>37.0</ele><time>2026-05-03T16:23:52.481Z</time></trkpt><trkpt lat="38.9866917" lon="16.1416967"><ele>35.0</ele><time>2026-05-03T16:23:53.482Z</time></trkpt><trkpt lat="38.986525" lon="16.1418717"><ele>33.0</ele><time>2026-05-03T16:23:54.486Z</time></trkpt><trkpt lat="38.98636" lon="16.14204"><ele>31.0</ele><time>2026-05-03T16:23:55.481Z</time></trkpt><trkpt lat="38.9862" lon="16.1422017"><ele>31.0</ele><time>2026-05-03T16:23:56.481Z</time></trkpt><trkpt lat="38.98604" lon="16.142355"><ele>31.0</ele><time>2026-05-03T16:23:57.481Z</time></trkpt><trkpt lat="38.9858783" lon="16.1425083"><ele>31.0</ele><time>2026-05-03T16:23:58.482Z</time></trkpt><trkpt lat="38.9857083" lon="16.1426617"><ele>30.666666666666668</ele><time>2026-05-03T16:23:59.481Z</time></trkpt><trkpt lat="38.9855333" lon="16.1428133"><ele>30.333333333333336</ele><time>2026-05-03T16:24:00.483Z</time></trkpt><trkpt lat="38.9853517" lon="16.1429583"><ele>30.0</ele><time>2026-05-03T16:24:01.481Z</time></trkpt><trkpt lat="38.9851617" lon="16.1431"><ele>30.333333333333336</ele><time>2026-05-03T16:24:02.481Z</time></trkpt><trkpt lat="38.9849667" lon="16.1432383"><ele>30.666666666666668</ele><time>2026-05-03T16:24:03.481Z</time></trkpt><trkpt lat="38.9847717" lon="16.1433717"><ele>31.0</ele><time>2026-05-03T16:24:04.481Z</time></trkpt><trkpt lat="38.9845767" lon="16.1434933"><ele>31.0</ele><time>2026-05-03T16:24:05.482Z</time></trkpt><trkpt lat="38.98438" lon="16.1436083"><ele>31.0</ele><time>2026-05-03T16:24:06.481Z</time></trkpt><trkpt lat="38.9841783" lon="16.1437167"><ele>31.0</ele><time>2026-05-03T16:24:07.48Z</time></trkpt><trkpt lat="38.9839733" lon="16.1438183"><ele>31.333333333333336</ele><time>2026-05-03T16:24:08.482Z</time></trkpt><trkpt lat="38.9837717" lon="16.1439083"><ele>31.666666666666664</ele><time>2026-05-03T16:24:09.481Z</time></trkpt><trkpt lat="38.9835767" lon="16.1439883"><ele>32.0</ele><time>2026-05-03T16:24:10.481Z</time></trkpt><trkpt lat="38.983385" lon="16.1440583"><ele>31.0</ele><time>2026-05-03T16:24:11.48Z</time></trkpt><trkpt lat="38.9832" lon="16.14412"><ele>30.0</ele><time>2026-05-03T16:24:12.48Z</time></trkpt><trkpt lat="38.98302" lon="16.1441767"><ele>29.0</ele><time>2026-05-03T16:24:13.481Z</time></trkpt><trkpt lat="38.982845" lon="16.1442283"><ele>29.0</ele><time>2026-05-03T16:24:14.481Z</time></trkpt><trkpt lat="38.9826717" lon="16.144275"><ele>29.0</ele><time>2026-05-03T16:24:15.481Z</time></trkpt><trkpt lat="38.982495" lon="16.14432"><ele>29.0</ele><time>2026-05-03T16:24:16.48Z</time></trkpt><trkpt lat="38.9823133" lon="16.14436"><ele>28.0</ele><time>2026-05-03T16:24:17.482Z</time></trkpt><trkpt lat="38.9821283" lon="16.1443933"><ele>27.0</ele><time>2026-05-03T16:24:18.482Z</time></trkpt><trkpt lat="38.9819383" lon="16.1444217"><ele>26.0</ele><time>2026-05-03T16:24:19.482Z</time></trkpt><trkpt lat="38.9817483" lon="16.1444467"><ele>24.333333333333332</ele><time>2026-05-03T16:24:20.481Z</time></trkpt><trkpt lat="38.9815583" lon="16.1444683"><ele>22.666666666666664</ele><time>2026-05-03T16:24:21.482Z</time></trkpt><trkpt lat="38.9813683" lon="16.144485"><ele>21.0</ele><time>2026-05-03T16:24:22.481Z</time></trkpt><trkpt lat="38.9811717" lon="16.1445"><ele>21.0</ele><time>2026-05-03T16:24:23.481Z</time></trkpt><trkpt lat="38.98097" lon="16.1445133"><ele>21.0</ele><time>2026-05-03T16:24:24.482Z</time></trkpt><trkpt lat="38.9807667" lon="16.1445333"><ele>21.0</ele><time>2026-05-03T16:24:25.48Z</time></trkpt><trkpt lat="38.9805617" lon="16.1445583"><ele>20.666666666666668</ele><time>2026-05-03T16:24:26.481Z</time></trkpt><trkpt lat="38.9803567" lon="16.1445917"><ele>20.333333333333336</ele><time>2026-05-03T16:24:27.48Z</time></trkpt><trkpt lat="38.9801517" lon="16.14463"><ele>20.0</ele><time>2026-05-03T16:24:28.481Z</time></trkpt><trkpt lat="38.9799483" lon="16.1446733"><ele>19.333333333333336</ele><time>2026-05-03T16:24:29.481Z</time></trkpt><trkpt lat="38.9797483" lon="16.1447233"><ele>18.666666666666668</ele><time>2026-05-03T16:24:30.482Z</time></trkpt><trkpt lat="38.9795517" lon="16.14478"><ele>18.0</ele><time>2026-05-03T16:24:31.482Z</time></trkpt><trkpt lat="38.9793583" lon="16.144845"><ele>21.666666666666664</ele><time>2026-05-03T16:24:32.481Z</time></trkpt><trkpt lat="38.9791683" lon="16.1449167"><ele>25.333333333333332</ele><time>2026-05-03T16:24:33.481Z</time></trkpt><trkpt lat="38.9789767" lon="16.1449933"><ele>29.0</ele><time>2026-05-03T16:24:34.48Z</time></trkpt><trkpt lat="38.9787883" lon="16.14508"><ele>29.0</ele><time>2026-05-03T16:24:35.481Z</time></trkpt><trkpt lat="38.9785983" lon="16.1451767"><ele>29.0</ele><time>2026-05-03T16:24:36.482Z</time></trkpt><trkpt lat="38.97841" lon="16.1452817"><ele>29.0</ele><time>2026-05-03T16:24:37.481Z</time></trkpt><trkpt lat="38.9782233" lon="16.145395"><ele>28.666666666666664</ele><time>2026-05-03T16:24:38.482Z</time></trkpt><trkpt lat="38.97804" lon="16.1455183"><ele>28.333333333333336</ele><time>2026-05-03T16:24:39.481Z</time></trkpt><trkpt lat="38.97786" lon="16.1456483"><ele>28.0</ele><time>2026-05-03T16:24:40.481Z</time></trkpt><trkpt lat="38.977685" lon="16.1457883"><ele>28.333333333333336</ele><time>2026-05-03T16:24:41.481Z</time></trkpt><trkpt lat="38.9775117" lon="16.1459383"><ele>28.666666666666664</ele><time>2026-05-03T16:24:42.481Z</time></trkpt><trkpt lat="38.9773383" lon="16.146095"><ele>29.0</ele><time>2026-05-03T16:24:43.482Z</time></trkpt><trkpt lat="38.977165" lon="16.1462583"><ele>29.0</ele><time>2026-05-03T16:24:44.482Z</time></trkpt><trkpt lat="38.9769933" lon="16.1464317"><ele>29.0</ele><time>2026-05-03T16:24:45.481Z</time></trkpt><trkpt lat="38.976825" lon="16.1466167"><ele>29.0</ele><time>2026-05-03T16:24:46.481Z</time></trkpt><trkpt lat="38.97666" lon="16.1468183"><ele>27.0</ele><time>2026-05-03T16:24:47.481Z</time></trkpt><trkpt lat="38.9764933" lon="16.147035"><ele>25.0</ele><time>2026-05-03T16:24:48.481Z</time></trkpt><trkpt lat="38.9763283" lon="16.1472617"><ele>28.5</ele><time>2026-05-03T16:24:49.481Z</time></trkpt><trkpt lat="38.97617" lon="16.1474917"><ele>32.0</ele><time>2026-05-03T16:24:50.482Z</time></trkpt><trkpt lat="38.9760217" lon="16.1477283"><ele>32.0</ele><time>2026-05-03T16:24:51.48Z</time></trkpt><trkpt lat="38.9758817" lon="16.1479733"><ele>32.0</ele><time>2026-05-03T16:24:52.482Z</time></trkpt><trkpt lat="38.9757467" lon="16.14823"><ele>32.0</ele><time>2026-05-03T16:24:53.482Z</time></trkpt><trkpt lat="38.9756083" lon="16.1485033"><ele>32.0</ele><time>2026-05-03T16:24:54.482Z</time></trkpt><trkpt lat="38.9754633" lon="16.1487917"><ele>32.0</ele><time>2026-05-03T16:24:55.481Z</time></trkpt><trkpt lat="38.9753117" lon="16.14909"><ele>32.0</ele><time>2026-05-03T16:24:56.482Z</time></trkpt><trkpt lat="38.975155" lon="16.1494"><ele>25.0</ele><time>2026-05-03T16:24:57.482Z</time></trkpt><trkpt lat="38.9749867" lon="16.149715"><ele>18.0</ele><time>2026-05-03T16:24:58.482Z</time></trkpt><trkpt lat="38.9748083" lon="16.1500267"><ele>18.0</ele><time>2026-05-03T16:24:59.481Z</time></trkpt><trkpt lat="38.974615" lon="16.1503383"><ele>18.0</ele><time>2026-05-03T16:25:00.481Z</time></trkpt><trkpt lat="38.9744083" lon="16.1506467"><ele>15.5</ele><time>2026-05-03T16:25:01.481Z</time></trkpt><trkpt lat="38.9741833" lon="16.1509483"><ele>13.0</ele><time>2026-05-03T16:25:02.481Z</time></trkpt><trkpt lat="38.97394" lon="16.1512433"><ele>13.0</ele><time>2026-05-03T16:25:03.481Z</time></trkpt><trkpt lat="38.9736717" lon="16.1515267"><ele>13.0</ele><time>2026-05-03T16:25:04.481Z</time></trkpt><trkpt lat="38.973385" lon="16.1518017"><ele>13.5</ele><time>2026-05-03T16:25:05.481Z</time></trkpt><trkpt lat="38.9730833" lon="16.15206"><ele>14.0</ele><time>2026-05-03T16:25:06.481Z</time></trkpt><trkpt lat="38.9727717" lon="16.1522933"><ele>15.0</ele><time>2026-05-03T16:25:07.482Z</time></trkpt><trkpt lat="38.972445" lon="16.152505"><ele>16.0</ele><time>2026-05-03T16:25:08.481Z</time></trkpt><trkpt lat="38.9721133" lon="16.15269"><ele>16.0</ele><time>2026-05-03T16:25:09.481Z</time></trkpt><trkpt lat="38.9717817" lon="16.1528517"><ele>16.0</ele><time>2026-05-03T16:25:10.482Z</time></trkpt><trkpt lat="38.97145" lon="16.152995"><ele>16.0</ele><time>2026-05-03T16:25:11.481Z</time></trkpt><trkpt lat="38.97112" lon="16.1531333"><ele>16.0</ele><time>2026-05-03T16:25:12.48Z</time></trkpt><trkpt lat="38.9707967" lon="16.15327"><ele>16.0</ele><time>2026-05-03T16:25:13.481Z</time></trkpt><trkpt lat="38.9704733" lon="16.1534083"><ele>16.0</ele><time>2026-05-03T16:25:14.482Z</time></trkpt><trkpt lat="38.9701533" lon="16.1535433"><ele>15.5</ele><time>2026-05-03T16:25:15.481Z</time></trkpt><trkpt lat="38.9698367" lon="16.153675"><ele>15.0</ele><time>2026-05-03T16:25:16.481Z</time></trkpt><trkpt lat="38.9695233" lon="16.153805"><ele>15.0</ele><time>2026-05-03T16:25:17.482Z</time></trkpt><trkpt lat="38.969215" lon="16.153935"><ele>15.0</ele><time>2026-05-03T16:25:18.481Z</time></trkpt><trkpt lat="38.968905" lon="16.1540567"><ele>15.0</ele><time>2026-05-03T16:25:19.481Z</time></trkpt><trkpt lat="38.9686" lon="16.1541833"><ele>15.0</ele><time>2026-05-03T16:25:20.483Z</time></trkpt><trkpt lat="38.9682983" lon="16.1543083"><ele>13.5</ele><time>2026-05-03T16:25:21.48Z</time></trkpt><trkpt lat="38.967995" lon="16.1544283"><ele>12.0</ele><time>2026-05-03T16:25:22.482Z</time></trkpt><trkpt lat="38.9676883" lon="16.1545433"><ele>11.0</ele><time>2026-05-03T16:25:23.482Z</time></trkpt><trkpt lat="38.96738" lon="16.154655"><ele>10.0</ele><time>2026-05-03T16:25:24.482Z</time></trkpt><trkpt lat="38.967065" lon="16.15476"><ele>10.0</ele><time>2026-05-03T16:25:25.481Z</time></trkpt><trkpt lat="38.9667483" lon="16.1548617"><ele>10.0</ele><time>2026-05-03T16:25:26.481Z</time></trkpt><trkpt lat="38.966425" lon="16.1549517"><ele>13.0</ele><time>2026-05-03T16:25:27.48Z</time></trkpt><trkpt lat="38.9660983" lon="16.1550333"><ele>16.0</ele><time>2026-05-03T16:25:28.482Z</time></trkpt><trkpt lat="38.9657683" lon="16.1551083"><ele>16.0</ele><time>2026-05-03T16:25:29.481Z</time></trkpt><trkpt lat="38.9654333" lon="16.155175"><ele>16.0</ele><time>2026-05-03T16:25:30.481Z</time></trkpt><trkpt lat="38.9650983" lon="16.15523"><ele>15.5</ele><time>2026-05-03T16:25:31.48Z</time></trkpt><trkpt lat="38.9647683" lon="16.1552733"><ele>15.0</ele><time>2026-05-03T16:25:32.482Z</time></trkpt><trkpt lat="38.9644433" lon="16.155305"><ele>15.0</ele><time>2026-05-03T16:25:33.481Z</time></trkpt><trkpt lat="38.9641317" lon="16.155325"><ele>15.0</ele><time>2026-05-03T16:25:34.482Z</time></trkpt><trkpt lat="38.96383" lon="16.1553383"><ele>15.0</ele><time>2026-05-03T16:25:35.48Z</time></trkpt><trkpt lat="38.9635367" lon="16.1553517"><ele>15.0</ele><time>2026-05-03T16:25:36.487Z</time></trkpt><trkpt lat="38.96325" lon="16.155365"><ele>16.0</ele><time>2026-05-03T16:25:37.481Z</time></trkpt><trkpt lat="38.9629667" lon="16.1553767"><ele>17.0</ele><time>2026-05-03T16:25:38.481Z</time></trkpt><trkpt lat="38.962685" lon="16.1553867"><ele>15.5</ele><time>2026-05-03T16:25:39.482Z</time></trkpt><trkpt lat="38.9624083" lon="16.15539"><ele>14.0</ele><time>2026-05-03T16:25:40.481Z</time></trkpt><trkpt lat="38.9621333" lon="16.15539"><ele>14.0</ele><time>2026-05-03T16:25:41.481Z</time></trkpt><trkpt lat="38.961855" lon="16.15539"><ele>14.0</ele><time>2026-05-03T16:25:42.481Z</time></trkpt><trkpt lat="38.96157" lon="16.1553933"><ele>12.5</ele><time>2026-05-03T16:25:43.481Z</time></trkpt><trkpt lat="38.96128" lon="16.1553967"><ele>11.0</ele><time>2026-05-03T16:25:44.481Z</time></trkpt><trkpt lat="38.9609833" lon="16.1554033"><ele>10.5</ele><time>2026-05-03T16:25:45.481Z</time></trkpt><trkpt lat="38.960675" lon="16.1554117"><ele>10.0</ele><time>2026-05-03T16:25:46.482Z</time></trkpt><trkpt lat="38.9603583" lon="16.15542"><ele>10.0</ele><time>2026-05-03T16:25:47.48Z</time></trkpt><trkpt lat="38.9600367" lon="16.1554367"><ele>10.0</ele><time>2026-05-03T16:25:48.48Z</time></trkpt><trkpt lat="38.95971" lon="16.15546"><ele>9.5</ele><time>2026-05-03T16:25:49.481Z</time></trkpt><trkpt lat="38.959375" lon="16.15549"><ele>9.0</ele><time>2026-05-03T16:25:50.481Z</time></trkpt><trkpt lat="38.959035" lon="16.155525"><ele>9.0</ele><time>2026-05-03T16:25:51.482Z</time></trkpt><trkpt lat="38.9586933" lon="16.15557"><ele>9.0</ele><time>2026-05-03T16:25:52.482Z</time></trkpt><trkpt lat="38.9583467" lon="16.15563"><ele>9.0</ele><time>2026-05-03T16:25:53.482Z</time></trkpt><trkpt lat="38.9579983" lon="16.1557033"><ele>9.0</ele><time>2026-05-03T16:25:54.481Z</time></trkpt><trkpt lat="38.9576483" lon="16.15579"><ele>11.5</ele><time>2026-05-03T16:25:55.482Z</time></trkpt><trkpt lat="38.957295" lon="16.15589"><ele>14.0</ele><time>2026-05-03T16:25:56.482Z</time></trkpt><trkpt lat="38.95694" lon="16.1560017"><ele>15.5</ele><time>2026-05-03T16:25:57.48Z</time></trkpt><trkpt lat="38.9565867" lon="16.1561317"><ele>17.0</ele><time>2026-05-03T16:25:58.481Z</time></trkpt><trkpt lat="38.9562367" lon="16.1562733"><ele>17.0</ele><time>2026-05-03T16:25:59.481Z</time></trkpt><trkpt lat="38.955885" lon="16.1564317"><ele>17.0</ele><time>2026-05-03T16:26:00.481Z</time></trkpt><trkpt lat="38.9555367" lon="16.1566083"><ele>20.0</ele><time>2026-05-03T16:26:01.48Z</time></trkpt><trkpt lat="38.9551917" lon="16.1567967"><ele>23.0</ele><time>2026-05-03T16:26:02.481Z</time></trkpt><trkpt lat="38.9548483" lon="16.1570017"><ele>23.0</ele><time>2026-05-03T16:26:03.482Z</time></trkpt><trkpt lat="38.9545117" lon="16.1572233"><ele>23.0</ele><time>2026-05-03T16:26:04.481Z</time></trkpt><trkpt lat="38.9541833" lon="16.1574667"><ele>24.0</ele><time>2026-05-03T16:26:05.481Z</time></trkpt><trkpt lat="38.9538633" lon="16.15773"><ele>25.0</ele><time>2026-05-03T16:26:06.481Z</time></trkpt><trkpt lat="38.9535533" lon="16.1580117"><ele>29.0</ele><time>2026-05-03T16:26:07.482Z</time></trkpt><trkpt lat="38.9532617" lon="16.1583117"><ele>33.0</ele><time>2026-05-03T16:26:08.481Z</time></trkpt><trkpt lat="38.9529883" lon="16.1586283"><ele>33.0</ele><time>2026-05-03T16:26:09.482Z</time></trkpt><trkpt lat="38.9527333" lon="16.158965"><ele>33.0</ele><time>2026-05-03T16:26:10.481Z</time></trkpt><trkpt lat="38.9524933" lon="16.159315"><ele>33.0</ele><time>2026-05-03T16:26:11.481Z</time></trkpt><trkpt lat="38.952265" lon="16.15968"><ele>33.0</ele><time>2026-05-03T16:26:12.482Z</time></trkpt><trkpt lat="38.95205" lon="16.16006"><ele>33.5</ele><time>2026-05-03T16:26:13.482Z</time></trkpt><trkpt lat="38.95186" lon="16.1604583"><ele>34.0</ele><time>2026-05-03T16:26:14.482Z</time></trkpt><trkpt lat="38.9516867" lon="16.1608733"><ele>34.0</ele><time>2026-05-03T16:26:15.48Z</time></trkpt><trkpt lat="38.95153" lon="16.1613017"><ele>34.0</ele><time>2026-05-03T16:26:16.481Z</time></trkpt><trkpt lat="38.9513883" lon="16.1617433"><ele>35.5</ele><time>2026-05-03T16:26:17.482Z</time></trkpt><trkpt lat="38.9512667" lon="16.162195"><ele>37.0</ele><time>2026-05-03T16:26:18.48Z</time></trkpt><trkpt lat="38.9511683" lon="16.1626567"><ele>37.0</ele><time>2026-05-03T16:26:19.481Z</time></trkpt><trkpt lat="38.9510933" lon="16.1631217"><ele>37.0</ele><time>2026-05-03T16:26:20.481Z</time></trkpt><trkpt lat="38.9510333" lon="16.1635883"><ele>37.0</ele><time>2026-05-03T16:26:21.482Z</time></trkpt><trkpt lat="38.9509883" lon="16.1640483"><ele>37.0</ele><time>2026-05-03T16:26:22.481Z</time></trkpt><trkpt lat="38.9509533" lon="16.1644933"><ele>36.0</ele><time>2026-05-03T16:26:23.482Z</time></trkpt><trkpt lat="38.9509233" lon="16.1649317"><ele>35.0</ele><time>2026-05-03T16:26:24.481Z</time></trkpt><trkpt lat="38.9508983" lon="16.1653683"><ele>31.5</ele><time>2026-05-03T16:26:25.48Z</time></trkpt><trkpt lat="38.950875" lon="16.1658017"><ele>28.0</ele><time>2026-05-03T16:26:26.482Z</time></trkpt><trkpt lat="38.9508517" lon="16.1662317"><ele>17.0</ele><time>2026-05-03T16:26:27.482Z</time></trkpt><trkpt lat="38.95083" lon="16.1666583"><ele>6.0</ele><time>2026-05-03T16:26:28.482Z</time></trkpt><trkpt lat="38.9508083" lon="16.1670833"><ele>7.0</ele><time>2026-05-03T16:26:29.482Z</time></trkpt><trkpt lat="38.9507883" lon="16.16751"><ele>8.0</ele><time>2026-05-03T16:26:30.48Z</time></trkpt><trkpt lat="38.9507667" lon="16.1679383"><ele>7.0</ele><time>2026-05-03T16:26:31.481Z</time></trkpt><trkpt lat="38.9507467" lon="16.168365"><ele>6.0</ele><time>2026-05-03T16:26:32.483Z</time></trkpt><trkpt lat="38.950725" lon="16.168795"><ele>6.5</ele><time>2026-05-03T16:26:33.481Z</time></trkpt><trkpt lat="38.950705" lon="16.1692267"><ele>7.0</ele><time>2026-05-03T16:26:34.48Z</time></trkpt><trkpt lat="38.9506833" lon="16.16966"><ele>7.5</ele><time>2026-05-03T16:26:35.48Z</time></trkpt><trkpt lat="38.9506617" lon="16.17009"><ele>8.0</ele><time>2026-05-03T16:26:36.48Z</time></trkpt><trkpt lat="38.95064" lon="16.1705217"><ele>8.0</ele><time>2026-05-03T16:26:37.481Z</time></trkpt><trkpt lat="38.9506167" lon="16.1709533"><ele>8.0</ele><time>2026-05-03T16:26:38.482Z</time></trkpt><trkpt lat="38.9505967" lon="16.1713833"><ele>9.0</ele><time>2026-05-03T16:26:39.483Z</time></trkpt><trkpt lat="38.9505783" lon="16.171815"><ele>10.0</ele><time>2026-05-03T16:26:40.481Z</time></trkpt><trkpt lat="38.9505583" lon="16.1722467"><ele>11.5</ele><time>2026-05-03T16:26:41.482Z</time></trkpt><trkpt lat="38.950535" lon="16.172675"><ele>13.0</ele><time>2026-05-03T16:26:42.481Z</time></trkpt><trkpt lat="38.9505083" lon="16.1730983"><ele>14.0</ele><time>2026-05-03T16:26:43.48Z</time></trkpt><trkpt lat="38.9504817" lon="16.1735183"><ele>15.0</ele><time>2026-05-03T16:26:44.482Z</time></trkpt><trkpt lat="38.95046" lon="16.1739283"><ele>15.0</ele><time>2026-05-03T16:26:45.48Z</time></trkpt><trkpt lat="38.95044" lon="16.174335"><ele>15.0</ele><time>2026-05-03T16:26:46.481Z</time></trkpt><trkpt lat="38.9504217" lon="16.174735"><ele>16.5</ele><time>2026-05-03T16:26:47.482Z</time></trkpt><trkpt lat="38.9503983" lon="16.1751317"><ele>18.0</ele><time>2026-05-03T16:26:48.48Z</time></trkpt><trkpt lat="38.950355" lon="16.1755383"><ele>18.5</ele><time>2026-05-03T16:26:49.482Z</time></trkpt><trkpt lat="38.9503283" lon="16.17594"><ele>19.0</ele><time>2026-05-03T16:26:50.482Z</time></trkpt><trkpt lat="38.9503083" lon="16.17634"><ele>20.5</ele><time>2026-05-03T16:26:51.481Z</time></trkpt><trkpt lat="38.95028" lon="16.176765"><ele>22.0</ele><time>2026-05-03T16:26:52.481Z</time></trkpt><trkpt lat="38.9502417" lon="16.177195"><ele>22.0</ele><time>2026-05-03T16:26:53.481Z</time></trkpt><trkpt lat="38.950195" lon="16.1776233"><ele>22.0</ele><time>2026-05-03T16:26:54.481Z</time></trkpt><trkpt lat="38.95014" lon="16.1780517"><ele>22.0</ele><time>2026-05-03T16:26:55.481Z</time></trkpt><trkpt lat="38.9500733" lon="16.1784783"><ele>22.0</ele><time>2026-05-03T16:26:56.482Z</time></trkpt><trkpt lat="38.95" lon="16.1788967"><ele>16.0</ele><time>2026-05-03T16:26:57.481Z</time></trkpt><trkpt lat="38.9499183" lon="16.17931"><ele>10.0</ele><time>2026-05-03T16:26:58.482Z</time></trkpt><trkpt lat="38.9498333" lon="16.1797133"><ele>10.5</ele><time>2026-05-03T16:26:59.48Z</time></trkpt><trkpt lat="38.949745" lon="16.1801"><ele>11.0</ele><time>2026-05-03T16:27:00.481Z</time></trkpt><trkpt lat="38.9496517" lon="16.1804717"><ele>10.5</ele><time>2026-05-03T16:27:01.481Z</time></trkpt><trkpt lat="38.949555" lon="16.1808283"><ele>10.0</ele><time>2026-05-03T16:27:02.481Z</time></trkpt><trkpt lat="38.949455" lon="16.181165"><ele>10.0</ele><time>2026-05-03T16:27:03.481Z</time></trkpt><trkpt lat="38.94935" lon="16.1814933"><ele>10.0</ele><time>2026-05-03T16:27:04.481Z</time></trkpt><trkpt lat="38.949245" lon="16.1818183"><ele>6.5</ele><time>2026-05-03T16:27:05.482Z</time></trkpt><trkpt lat="38.9491333" lon="16.18214"><ele>3.0</ele><time>2026-05-03T16:27:06.482Z</time></trkpt><trkpt lat="38.9490167" lon="16.1824617"><ele>3.0</ele><time>2026-05-03T16:27:07.482Z</time></trkpt><trkpt lat="38.9488933" lon="16.1827783"><ele>3.0</ele><time>2026-05-03T16:27:08.481Z</time></trkpt><trkpt lat="38.9487633" lon="16.183085"><ele>3.0</ele><time>2026-05-03T16:27:09.481Z</time></trkpt><trkpt lat="38.9486283" lon="16.1833883"><ele>3.0</ele><time>2026-05-03T16:27:10.482Z</time></trkpt><trkpt lat="38.9484917" lon="16.1836883"><ele>3.5</ele><time>2026-05-03T16:27:11.481Z</time></trkpt><trkpt lat="38.9483483" lon="16.1839833"><ele>4.0</ele><time>2026-05-03T16:27:12.48Z</time></trkpt><trkpt lat="38.948205" lon="16.1842767"><ele>3.0</ele><time>2026-05-03T16:27:13.482Z</time></trkpt><trkpt lat="38.9480583" lon="16.1845683"><ele>2.0</ele><time>2026-05-03T16:27:14.481Z</time></trkpt><trkpt lat="38.9479083" lon="16.1848533"><ele>1.5</ele><time>2026-05-03T16:27:15.481Z</time></trkpt><trkpt lat="38.9477583" lon="16.1851283"><ele>1.0</ele><time>2026-05-03T16:27:16.481Z</time></trkpt><trkpt lat="38.9476017" lon="16.1853967"><ele>1.5</ele><time>2026-05-03T16:27:17.481Z</time></trkpt><trkpt lat="38.9474417" lon="16.185655"><ele>2.0</ele><time>2026-05-03T16:27:18.481Z</time></trkpt><trkpt lat="38.94728" lon="16.1859067"><ele>2.0</ele><time>2026-05-03T16:27:19.481Z</time></trkpt><trkpt lat="38.9471133" lon="16.1861517"><ele>2.0</ele><time>2026-05-03T16:27:20.482Z</time></trkpt><trkpt lat="38.946945" lon="16.1863933"><ele>2.0</ele><time>2026-05-03T16:27:21.482Z</time></trkpt><trkpt lat="38.9467783" lon="16.1866367"><ele>2.0</ele><time>2026-05-03T16:27:22.482Z</time></trkpt><trkpt lat="38.9466083" lon="16.186885"><ele>2.0</ele><time>2026-05-03T16:27:23.481Z</time></trkpt><trkpt lat="38.9464383" lon="16.1871417"><ele>2.0</ele><time>2026-05-03T16:27:24.481Z</time></trkpt><trkpt lat="38.9462667" lon="16.1874033"><ele>1.5</ele><time>2026-05-03T16:27:25.482Z</time></trkpt><trkpt lat="38.94609" lon="16.1876683"><ele>1.0</ele><time>2026-05-03T16:27:26.482Z</time></trkpt><trkpt lat="38.9459133" lon="16.1879367"><ele>1.5</ele><time>2026-05-03T16:27:27.481Z</time></trkpt><trkpt lat="38.9457333" lon="16.1882083"><ele>2.0</ele><time>2026-05-03T16:27:28.482Z</time></trkpt><trkpt lat="38.94555" lon="16.188485"><ele>2.0</ele><time>2026-05-03T16:27:29.483Z</time></trkpt><trkpt lat="38.9453617" lon="16.18877"><ele>2.0</ele><time>2026-05-03T16:27:30.48Z</time></trkpt><trkpt lat="38.9451717" lon="16.1890633"><ele>1.5</ele><time>2026-05-03T16:27:31.481Z</time></trkpt><trkpt lat="38.9449783" lon="16.189365"><ele>1.0</ele><time>2026-05-03T16:27:32.482Z</time></trkpt><trkpt lat="38.94478" lon="16.1896767"><ele>1.5</ele><time>2026-05-03T16:27:33.48Z</time></trkpt><trkpt lat="38.9445817" lon="16.1899983"><ele>2.0</ele><time>2026-05-03T16:27:34.481Z</time></trkpt><trkpt lat="38.9443883" lon="16.190325"><ele>2.0</ele><time>2026-05-03T16:27:35.481Z</time></trkpt><trkpt lat="38.9442" lon="16.1906617"><ele>2.0</ele><time>2026-05-03T16:27:36.48Z</time></trkpt><trkpt lat="38.944015" lon="16.1910033"><ele>2.0</ele><time>2026-05-03T16:27:37.481Z</time></trkpt><trkpt lat="38.9438317" lon="16.191355"><ele>2.0</ele><time>2026-05-03T16:27:38.481Z</time></trkpt><trkpt lat="38.9436533" lon="16.1917133"><ele>2.0</ele><time>2026-05-03T16:27:39.481Z</time></trkpt><trkpt lat="38.9434783" lon="16.1920783"><ele>2.0</ele><time>2026-05-03T16:27:40.481Z</time></trkpt><trkpt lat="38.9433067" lon="16.1924483"><ele>1.5</ele><time>2026-05-03T16:27:41.481Z</time></trkpt><trkpt lat="38.9431383" lon="16.1928233"><ele>1.0</ele><time>2026-05-03T16:27:42.481Z</time></trkpt><trkpt lat="38.94298" lon="16.193205"><ele>1.0</ele><time>2026-05-03T16:27:43.481Z</time></trkpt><trkpt lat="38.9428267" lon="16.193585"><ele>1.0</ele><time>2026-05-03T16:27:44.481Z</time></trkpt><trkpt lat="38.9426867" lon="16.1939667"><ele>1.5</ele><time>2026-05-03T16:27:45.482Z</time></trkpt><trkpt lat="38.94255" lon="16.1943483"><ele>2.0</ele><time>2026-05-03T16:27:46.481Z</time></trkpt><trkpt lat="38.9424217" lon="16.1947267"><ele>2.0</ele><time>2026-05-03T16:27:47.482Z</time></trkpt><trkpt lat="38.9423017" lon="16.1951017"><ele>2.0</ele><time>2026-05-03T16:27:48.482Z</time></trkpt><trkpt lat="38.942185" lon="16.195475"><ele>2.0</ele><time>2026-05-03T16:27:49.482Z</time></trkpt><trkpt lat="38.9420717" lon="16.1958483"><ele>2.0</ele><time>2026-05-03T16:27:50.481Z</time></trkpt><trkpt lat="38.9419617" lon="16.1962217"><ele>1.5</ele><time>2026-05-03T16:27:51.48Z</time></trkpt><trkpt lat="38.9418567" lon="16.196595"><ele>1.0</ele><time>2026-05-03T16:27:52.481Z</time></trkpt><trkpt lat="38.94175" lon="16.1969683"><ele>2.0</ele><time>2026-05-03T16:27:53.481Z</time></trkpt><trkpt lat="38.941645" lon="16.1973433"><ele>3.0</ele><time>2026-05-03T16:27:54.481Z</time></trkpt><trkpt lat="38.94154" lon="16.1977183"><ele>3.0</ele><time>2026-05-03T16:27:55.482Z</time></trkpt><trkpt lat="38.941435" lon="16.1980917"><ele>3.0</ele><time>2026-05-03T16:27:56.481Z</time></trkpt><trkpt lat="38.94133" lon="16.198465"><ele>3.0</ele><time>2026-05-03T16:27:57.481Z</time></trkpt><trkpt lat="38.941225" lon="16.198835"><ele>3.0</ele><time>2026-05-03T16:27:58.48Z</time></trkpt><trkpt lat="38.94112" lon="16.199205"><ele>2.5</ele><time>2026-05-03T16:27:59.482Z</time></trkpt><trkpt lat="38.9410133" lon="16.1995733"><ele>2.0</ele><time>2026-05-03T16:28:00.482Z</time></trkpt><trkpt lat="38.9409033" lon="16.19995"><ele>2.0</ele><time>2026-05-03T16:28:01.482Z</time></trkpt><trkpt lat="38.9407883" lon="16.2003333"><ele>2.0</ele><time>2026-05-03T16:28:02.483Z</time></trkpt><trkpt lat="38.94067" lon="16.2007217"><ele>2.5</ele><time>2026-05-03T16:28:03.481Z</time></trkpt><trkpt lat="38.9405483" lon="16.201115"><ele>3.0</ele><time>2026-05-03T16:28:04.482Z</time></trkpt><trkpt lat="38.9404283" lon="16.2015133"><ele>3.0</ele><time>2026-05-03T16:28:05.482Z</time></trkpt><trkpt lat="38.9403067" lon="16.2019117"><ele>3.0</ele><time>2026-05-03T16:28:06.481Z</time></trkpt><trkpt lat="38.9401817" lon="16.2023067"><ele>3.0</ele><time>2026-05-03T16:28:07.481Z</time></trkpt><trkpt lat="38.940055" lon="16.2026983"><ele>3.0</ele><time>2026-05-03T16:28:08.483Z</time></trkpt><trkpt lat="38.939925" lon="16.2030883"><ele>3.5</ele><time>2026-05-03T16:28:09.481Z</time></trkpt><trkpt lat="38.9397983" lon="16.203475"><ele>4.0</ele><time>2026-05-03T16:28:10.481Z</time></trkpt><trkpt lat="38.9396717" lon="16.2038617"><ele>4.0</ele><time>2026-05-03T16:28:11.482Z</time></trkpt><trkpt lat="38.9395417" lon="16.2042433"><ele>4.0</ele><time>2026-05-03T16:28:12.482Z</time></trkpt><trkpt lat="38.9394133" lon="16.2046233"><ele>4.0</ele><time>2026-05-03T16:28:13.481Z</time></trkpt><trkpt lat="38.9392833" lon="16.2050017"><ele>4.0</ele><time>2026-05-03T16:28:14.482Z</time></trkpt><trkpt lat="38.939155" lon="16.2053767"><ele>5.5</ele><time>2026-05-03T16:28:15.481Z</time></trkpt><trkpt lat="38.93903" lon="16.2057533"><ele>7.0</ele><time>2026-05-03T16:28:16.481Z</time></trkpt><trkpt lat="38.938905" lon="16.2061283"><ele>6.5</ele><time>2026-05-03T16:28:17.481Z</time></trkpt><trkpt lat="38.9387767" lon="16.2065033"><ele>6.0</ele><time>2026-05-03T16:28:18.481Z</time></trkpt><trkpt lat="38.9386483" lon="16.2068767"><ele>6.0</ele><time>2026-05-03T16:28:19.482Z</time></trkpt><trkpt lat="38.93852" lon="16.20725"><ele>6.0</ele><time>2026-05-03T16:28:20.482Z</time></trkpt><trkpt lat="38.9383933" lon="16.207625"><ele>6.5</ele><time>2026-05-03T16:28:21.481Z</time></trkpt><trkpt lat="38.938265" lon="16.208"><ele>7.0</ele><time>2026-05-03T16:28:22.482Z</time></trkpt><trkpt lat="38.9381383" lon="16.2083733"><ele>6.0</ele><time>2026-05-03T16:28:23.482Z</time></trkpt><trkpt lat="38.93801" lon="16.2087483"><ele>5.0</ele><time>2026-05-03T16:28:24.481Z</time></trkpt><trkpt lat="38.93788" lon="16.2091233"><ele>5.0</ele><time>2026-05-03T16:28:25.482Z</time></trkpt><trkpt lat="38.93775" lon="16.2094983"><ele>5.0</ele><time>2026-05-03T16:28:26.482Z</time></trkpt><trkpt lat="38.93762" lon="16.209875"><ele>4.0</ele><time>2026-05-03T16:28:27.48Z</time></trkpt><trkpt lat="38.9374933" lon="16.2102533"><ele>3.0</ele><time>2026-05-03T16:28:28.481Z</time></trkpt><trkpt lat="38.9373667" lon="16.2106283"><ele>3.0</ele><time>2026-05-03T16:28:29.48Z</time></trkpt><trkpt lat="38.9372383" lon="16.211005"><ele>3.0</ele><time>2026-05-03T16:28:30.48Z</time></trkpt><trkpt lat="38.9371083" lon="16.21138"><ele>3.0</ele><time>2026-05-03T16:28:31.483Z</time></trkpt><trkpt lat="38.9369767" lon="16.2117583"><ele>3.0</ele><time>2026-05-03T16:28:32.481Z</time></trkpt><trkpt lat="38.936845" lon="16.2121417"><ele>2.0</ele><time>2026-05-03T16:28:33.482Z</time></trkpt><trkpt lat="38.9367133" lon="16.2125283"><ele>1.0</ele><time>2026-05-03T16:28:34.482Z</time></trkpt><trkpt lat="38.9365833" lon="16.2129167"><ele>1.0</ele><time>2026-05-03T16:28:35.484Z</time></trkpt><trkpt lat="38.93645" lon="16.2133083"><ele>1.0</ele><time>2026-05-03T16:28:36.483Z</time></trkpt><trkpt lat="38.936315" lon="16.2137017"><ele>1.5</ele><time>2026-05-03T16:28:37.484Z</time></trkpt><trkpt lat="38.9361783" lon="16.2141"><ele>2.0</ele><time>2026-05-03T16:28:38.483Z</time></trkpt><trkpt lat="38.9360383" lon="16.2145033"><ele>2.5</ele><time>2026-05-03T16:28:39.484Z</time></trkpt><trkpt lat="38.935895" lon="16.214915"><ele>3.0</ele><time>2026-05-03T16:28:40.483Z</time></trkpt><trkpt lat="38.93575" lon="16.215335"><ele>3.5</ele><time>2026-05-03T16:28:41.483Z</time></trkpt><trkpt lat="38.9356033" lon="16.2157583"><ele>4.0</ele><time>2026-05-03T16:28:42.482Z</time></trkpt><trkpt lat="38.9354567" lon="16.21619"><ele>4.5</ele><time>2026-05-03T16:28:43.481Z</time></trkpt><trkpt lat="38.9353067" lon="16.21663"><ele>5.0</ele><time>2026-05-03T16:28:44.48Z</time></trkpt><trkpt lat="38.935155" lon="16.217075"><ele>4.5</ele><time>2026-05-03T16:28:45.481Z</time></trkpt><trkpt lat="38.9350017" lon="16.21753"><ele>4.0</ele><time>2026-05-03T16:28:46.481Z</time></trkpt><trkpt lat="38.9348467" lon="16.2179917"><ele>4.0</ele><time>2026-05-03T16:28:47.481Z</time></trkpt><trkpt lat="38.9346867" lon="16.2184583"><ele>4.0</ele><time>2026-05-03T16:28:48.481Z</time></trkpt><trkpt lat="38.9345233" lon="16.2189333"><ele>4.5</ele><time>2026-05-03T16:28:49.481Z</time></trkpt><trkpt lat="38.9343617" lon="16.21941"><ele>5.0</ele><time>2026-05-03T16:28:50.483Z</time></trkpt><trkpt lat="38.9342" lon="16.2198833"><ele>5.5</ele><time>2026-05-03T16:28:51.482Z</time></trkpt><trkpt lat="38.9340383" lon="16.2203567"><ele>6.0</ele><time>2026-05-03T16:28:52.482Z</time></trkpt><trkpt lat="38.93388" lon="16.2208267"><ele>6.0</ele><time>2026-05-03T16:28:53.482Z</time></trkpt><trkpt lat="38.9337233" lon="16.2212883"><ele>6.0</ele><time>2026-05-03T16:28:54.483Z</time></trkpt><trkpt lat="38.9335683" lon="16.221745"><ele>6.0</ele><time>2026-05-03T16:28:55.481Z</time></trkpt><trkpt lat="38.933415" lon="16.2221917"><ele>6.0</ele><time>2026-05-03T16:28:56.481Z</time></trkpt><trkpt lat="38.9332667" lon="16.22262"><ele>6.5</ele><time>2026-05-03T16:28:57.48Z</time></trkpt><trkpt lat="38.933125" lon="16.2230367"><ele>7.0</ele><time>2026-05-03T16:28:58.482Z</time></trkpt><trkpt lat="38.9329867" lon="16.2234417"><ele>7.0</ele><time>2026-05-03T16:28:59.482Z</time></trkpt><trkpt lat="38.932855" lon="16.2238317"><ele>7.0</ele><time>2026-05-03T16:29:00.481Z</time></trkpt><trkpt lat="38.9327317" lon="16.2242"><ele>6.5</ele><time>2026-05-03T16:29:01.481Z</time></trkpt><trkpt lat="38.932615" lon="16.2245533"><ele>6.0</ele><time>2026-05-03T16:29:02.481Z</time></trkpt><trkpt lat="38.932505" lon="16.2248983"><ele>7.5</ele><time>2026-05-03T16:29:03.481Z</time></trkpt><trkpt lat="38.9324017" lon="16.225235"><ele>9.0</ele><time>2026-05-03T16:29:04.483Z</time></trkpt><trkpt lat="38.9323017" lon="16.225565"><ele>10.0</ele><time>2026-05-03T16:29:05.483Z</time></trkpt><trkpt lat="38.932205" lon="16.2258917"><ele>11.0</ele><time>2026-05-03T16:29:06.481Z</time></trkpt><trkpt lat="38.9321133" lon="16.2262133"><ele>11.0</ele><time>2026-05-03T16:29:07.481Z</time></trkpt><trkpt lat="38.9320233" lon="16.22653"><ele>11.0</ele><time>2026-05-03T16:29:08.481Z</time></trkpt><trkpt lat="38.9319367" lon="16.2268483"><ele>11.0</ele><time>2026-05-03T16:29:09.482Z</time></trkpt><trkpt lat="38.931845" lon="16.22718"><ele>11.0</ele><time>2026-05-03T16:29:10.482Z</time></trkpt><trkpt lat="38.9317517" lon="16.2275167"><ele>11.5</ele><time>2026-05-03T16:29:11.481Z</time></trkpt><trkpt lat="38.9316567" lon="16.2278567"><ele>12.0</ele><time>2026-05-03T16:29:12.481Z</time></trkpt><trkpt lat="38.931565" lon="16.2281983"><ele>12.5</ele><time>2026-05-03T16:29:13.482Z</time></trkpt><trkpt lat="38.9314783" lon="16.2285367"><ele>13.0</ele><time>2026-05-03T16:29:14.482Z</time></trkpt><trkpt lat="38.9313933" lon="16.2288717"><ele>13.5</ele><time>2026-05-03T16:29:15.48Z</time></trkpt><trkpt lat="38.9313067" lon="16.229205"><ele>14.0</ele><time>2026-05-03T16:29:16.481Z</time></trkpt><trkpt lat="38.9312183" lon="16.22954"><ele>15.0</ele><time>2026-05-03T16:29:17.482Z</time></trkpt><trkpt lat="38.931135" lon="16.2298817"><ele>16.0</ele><time>2026-05-03T16:29:18.481Z</time></trkpt><trkpt lat="38.9310517" lon="16.2302333"><ele>16.0</ele><time>2026-05-03T16:29:19.482Z</time></trkpt><trkpt lat="38.93097" lon="16.2305917"><ele>16.0</ele><time>2026-05-03T16:29:20.482Z</time></trkpt><trkpt lat="38.9308883" lon="16.2309533"><ele>15.5</ele><time>2026-05-03T16:29:21.48Z</time></trkpt><trkpt lat="38.9308033" lon="16.2313133"><ele>15.0</ele><time>2026-05-03T16:29:22.481Z</time></trkpt><trkpt lat="38.9307183" lon="16.2316767"><ele>16.0</ele><time>2026-05-03T16:29:23.482Z</time></trkpt><trkpt lat="38.9306333" lon="16.2320433"><ele>17.0</ele><time>2026-05-03T16:29:24.482Z</time></trkpt><trkpt lat="38.9305517" lon="16.23241"><ele>17.5</ele><time>2026-05-03T16:29:25.483Z</time></trkpt><trkpt lat="38.9304717" lon="16.232775"><ele>18.0</ele><time>2026-05-03T16:29:26.483Z</time></trkpt><trkpt lat="38.9303933" lon="16.23313"><ele>19.0</ele><time>2026-05-03T16:29:27.482Z</time></trkpt><trkpt lat="38.930325" lon="16.233465"><ele>20.0</ele><time>2026-05-03T16:29:28.481Z</time></trkpt><trkpt lat="38.9302583" lon="16.23378"><ele>20.0</ele><time>2026-05-03T16:29:29.482Z</time></trkpt><trkpt lat="38.930195" lon="16.23408"><ele>20.0</ele><time>2026-05-03T16:29:30.482Z</time></trkpt><trkpt lat="38.9301333" lon="16.2343717"><ele>20.0</ele><time>2026-05-03T16:29:31.483Z</time></trkpt><trkpt lat="38.9300733" lon="16.2346517"><ele>20.0</ele><time>2026-05-03T16:29:32.484Z</time></trkpt><trkpt lat="38.9300183" lon="16.2349117"><ele>20.0</ele><time>2026-05-03T16:29:33.483Z</time></trkpt><trkpt lat="38.9299667" lon="16.2351417"><ele>20.333333333333336</ele><time>2026-05-03T16:29:34.482Z</time></trkpt><trkpt lat="38.9299167" lon="16.23535"><ele>20.666666666666668</ele><time>2026-05-03T16:29:35.481Z</time></trkpt><trkpt lat="38.9298633" lon="16.23553"><ele>21.0</ele><time>2026-05-03T16:29:36.482Z</time></trkpt><trkpt lat="38.9298033" lon="16.235685"><ele>21.200000000000003</ele><time>2026-05-03T16:29:37.482Z</time></trkpt><trkpt lat="38.9297483" lon="16.2358233"><ele>21.400000000000002</ele><time>2026-05-03T16:29:38.483Z</time></trkpt><trkpt lat="38.9297067" lon="16.2359583"><ele>21.6</ele><time>2026-05-03T16:29:39.483Z</time></trkpt><trkpt lat="38.92968" lon="16.2360867"><ele>21.8</ele><time>2026-05-03T16:29:40.485Z</time></trkpt><trkpt lat="38.9296583" lon="16.2362067"><ele>22.0</ele><time>2026-05-03T16:29:41.483Z</time></trkpt><trkpt lat="38.9296383" lon="16.236325"><ele>22.0</ele><time>2026-05-03T16:29:42.485Z</time></trkpt><trkpt lat="38.9296167" lon="16.2364333"><ele>22.0</ele><time>2026-05-03T16:29:43.482Z</time></trkpt><trkpt lat="38.929595" lon="16.23653"><ele>22.0</ele><time>2026-05-03T16:29:44.484Z</time></trkpt><trkpt lat="38.92957" lon="16.2366117"><ele>22.0</ele><time>2026-05-03T16:29:45.483Z</time></trkpt><trkpt lat="38.929515" lon="16.2367267"><ele>22.0</ele><time>2026-05-03T16:29:47.482Z</time></trkpt><trkpt lat="38.9294433" lon="16.2367633"><ele>22.0</ele><time>2026-05-03T16:29:49.485Z</time></trkpt><trkpt lat="38.9293683" lon="16.2367617"><ele>22.5</ele><time>2026-05-03T16:29:52.482Z</time></trkpt><trkpt lat="38.9293033" lon="16.23677"><ele>23.0</ele><time>2026-05-03T16:29:55.482Z</time></trkpt><trkpt lat="38.9293233" lon="16.2368583"><ele>23.5</ele><time>2026-05-03T16:42:20.482Z</time></trkpt><trkpt lat="38.9293133" lon="16.2369667"><ele>24.0</ele><time>2026-05-03T16:42:23.482Z</time></trkpt><trkpt lat="38.9292917" lon="16.2370833"><ele>24.500000000000004</ele><time>2026-05-03T16:42:26.482Z</time></trkpt><trkpt lat="38.929275" lon="16.2372417"><ele>25.0</ele><time>2026-05-03T16:42:28.481Z</time></trkpt><trkpt lat="38.9293017" lon="16.237375"><ele>25.000000000000004</ele><time>2026-05-03T16:42:30.481Z</time></trkpt><trkpt lat="38.9293083" lon="16.2374633"><ele>25.0</ele><time>2026-05-03T16:42:31.483Z</time></trkpt><trkpt lat="38.9293283" lon="16.2375467"><ele>25.0</ele><time>2026-05-03T16:42:32.482Z</time></trkpt><trkpt lat="38.92935" lon="16.2377"><ele>25.0</ele><time>2026-05-03T16:42:34.481Z</time></trkpt><trkpt lat="38.92934" lon="16.2378"><ele>25.000000000000004</ele><time>2026-05-03T16:42:35.482Z</time></trkpt><trkpt lat="38.9293317" lon="16.237905"><ele>25.0</ele><time>2026-05-03T16:42:36.481Z</time></trkpt><trkpt lat="38.92933" lon="16.2380217"><ele>25.0</ele><time>2026-05-03T16:42:37.481Z</time></trkpt><trkpt lat="38.9293133" lon="16.2381517"><ele>25.0</ele><time>2026-05-03T16:42:38.483Z</time></trkpt><trkpt lat="38.9293083" lon="16.238285"><ele>25.0</ele><time>2026-05-03T16:42:39.482Z</time></trkpt><trkpt lat="38.9292667" lon="16.23843"><ele>25.0</ele><time>2026-05-03T16:42:40.481Z</time></trkpt><trkpt lat="38.9292233" lon="16.2385767"><ele>25.0</ele><time>2026-05-03T16:42:41.482Z</time></trkpt><trkpt lat="38.929175" lon="16.23874"><ele>25.0</ele><time>2026-05-03T16:42:42.481Z</time></trkpt><trkpt lat="38.9291367" lon="16.2389117"><ele>25.0</ele><time>2026-05-03T16:42:43.481Z</time></trkpt><trkpt lat="38.9290967" lon="16.23909"><ele>25.0</ele><time>2026-05-03T16:42:44.482Z</time></trkpt><trkpt lat="38.929055" lon="16.2392783"><ele>25.0</ele><time>2026-05-03T16:42:45.483Z</time></trkpt><trkpt lat="38.9290083" lon="16.23947"><ele>25.333333333333336</ele><time>2026-05-03T16:42:46.482Z</time></trkpt><trkpt lat="38.9289583" lon="16.23967"><ele>25.666666666666664</ele><time>2026-05-03T16:42:47.482Z</time></trkpt><trkpt lat="38.9289033" lon="16.23989"><ele>26.0</ele><time>2026-05-03T16:42:48.482Z</time></trkpt><trkpt lat="38.9288433" lon="16.2401233"><ele>26.0</ele><time>2026-05-03T16:42:49.482Z</time></trkpt><trkpt lat="38.9287817" lon="16.240365"><ele>26.0</ele><time>2026-05-03T16:42:50.482Z</time></trkpt><trkpt lat="38.9287083" lon="16.2406083"><ele>26.0</ele><time>2026-05-03T16:42:51.483Z</time></trkpt><trkpt lat="38.9286517" lon="16.24082"><ele>26.666666666666664</ele><time>2026-05-03T16:42:52.482Z</time></trkpt><trkpt lat="38.92858" lon="16.2410683"><ele>27.333333333333336</ele><time>2026-05-03T16:42:53.48Z</time></trkpt><trkpt lat="38.928505" lon="16.241355"><ele>28.0</ele><time>2026-05-03T16:42:54.481Z</time></trkpt><trkpt lat="38.9284217" lon="16.2416533"><ele>27.5</ele><time>2026-05-03T16:42:55.481Z</time></trkpt><trkpt lat="38.92834" lon="16.2419567"><ele>27.0</ele><time>2026-05-03T16:42:56.481Z</time></trkpt><trkpt lat="38.9282583" lon="16.242265"><ele>28.0</ele><time>2026-05-03T16:42:57.482Z</time></trkpt><trkpt lat="38.9281717" lon="16.2425717"><ele>29.0</ele><time>2026-05-03T16:42:58.482Z</time></trkpt><trkpt lat="38.9280867" lon="16.2428783"><ele>29.5</ele><time>2026-05-03T16:42:59.482Z</time></trkpt><trkpt lat="38.9280017" lon="16.24319"><ele>30.0</ele><time>2026-05-03T16:43:00.481Z</time></trkpt><trkpt lat="38.927915" lon="16.2435067"><ele>30.0</ele><time>2026-05-03T16:43:01.483Z</time></trkpt><trkpt lat="38.9278267" lon="16.2438267"><ele>30.0</ele><time>2026-05-03T16:43:02.481Z</time></trkpt><trkpt lat="38.927735" lon="16.2441533"><ele>30.0</ele><time>2026-05-03T16:43:03.482Z</time></trkpt><trkpt lat="38.927645" lon="16.244485"><ele>30.0</ele><time>2026-05-03T16:43:04.481Z</time></trkpt><trkpt lat="38.9275533" lon="16.24482"><ele>30.0</ele><time>2026-05-03T16:43:05.482Z</time></trkpt><trkpt lat="38.92746" lon="16.2451617"><ele>30.0</ele><time>2026-05-03T16:43:06.482Z</time></trkpt><trkpt lat="38.927365" lon="16.2455067"><ele>29.5</ele><time>2026-05-03T16:43:07.481Z</time></trkpt><trkpt lat="38.9272683" lon="16.2458567"><ele>29.0</ele><time>2026-05-03T16:43:08.483Z</time></trkpt><trkpt lat="38.9271717" lon="16.2462117"><ele>29.0</ele><time>2026-05-03T16:43:09.482Z</time></trkpt><trkpt lat="38.9270717" lon="16.2465717"><ele>29.0</ele><time>2026-05-03T16:43:10.483Z</time></trkpt><trkpt lat="38.9269717" lon="16.2469367"><ele>29.5</ele><time>2026-05-03T16:43:11.481Z</time></trkpt><trkpt lat="38.9268683" lon="16.2473117"><ele>30.0</ele><time>2026-05-03T16:43:12.482Z</time></trkpt><trkpt lat="38.9267633" lon="16.2476983"><ele>30.5</ele><time>2026-05-03T16:43:13.482Z</time></trkpt><trkpt lat="38.9266533" lon="16.2480917"><ele>31.0</ele><time>2026-05-03T16:43:14.484Z</time></trkpt><trkpt lat="38.926545" lon="16.2484833"><ele>31.0</ele><time>2026-05-03T16:43:15.482Z</time></trkpt><trkpt lat="38.9264317" lon="16.2488733"><ele>31.0</ele><time>2026-05-03T16:43:16.482Z</time></trkpt><trkpt lat="38.9263167" lon="16.2492667"><ele>32.5</ele><time>2026-05-03T16:43:17.481Z</time></trkpt><trkpt lat="38.9262033" lon="16.249665"><ele>34.0</ele><time>2026-05-03T16:43:18.482Z</time></trkpt><trkpt lat="38.9260883" lon="16.2500683"><ele>35.0</ele><time>2026-05-03T16:43:19.482Z</time></trkpt><trkpt lat="38.9259733" lon="16.2504783"><ele>36.0</ele><time>2026-05-03T16:43:20.483Z</time></trkpt><trkpt lat="38.9258567" lon="16.25089"><ele>36.5</ele><time>2026-05-03T16:43:21.482Z</time></trkpt><trkpt lat="38.92574" lon="16.2513033"><ele>37.0</ele><time>2026-05-03T16:43:22.481Z</time></trkpt><trkpt lat="38.925625" lon="16.2517183"><ele>37.0</ele><time>2026-05-03T16:43:23.482Z</time></trkpt><trkpt lat="38.9255083" lon="16.252135"><ele>37.0</ele><time>2026-05-03T16:43:24.482Z</time></trkpt><trkpt lat="38.9253917" lon="16.2525533"><ele>37.0</ele><time>2026-05-03T16:43:25.481Z</time></trkpt><trkpt lat="38.9252733" lon="16.25297"><ele>37.0</ele><time>2026-05-03T16:43:26.483Z</time></trkpt><trkpt lat="38.9251517" lon="16.2533917"><ele>36.0</ele><time>2026-05-03T16:43:27.481Z</time></trkpt><trkpt lat="38.9250333" lon="16.253815"><ele>35.0</ele><time>2026-05-03T16:43:28.481Z</time></trkpt><trkpt lat="38.9249117" lon="16.2542433"><ele>35.0</ele><time>2026-05-03T16:43:29.482Z</time></trkpt><trkpt lat="38.9247867" lon="16.25467"><ele>35.0</ele><time>2026-05-03T16:43:30.483Z</time></trkpt><trkpt lat="38.9246633" lon="16.25509"><ele>35.0</ele><time>2026-05-03T16:43:31.482Z</time></trkpt><trkpt lat="38.9245433" lon="16.2555"><ele>35.0</ele><time>2026-05-03T16:43:32.482Z</time></trkpt><trkpt lat="38.924425" lon="16.2559033"><ele>34.5</ele><time>2026-05-03T16:43:33.483Z</time></trkpt><trkpt lat="38.92431" lon="16.2563017"><ele>34.0</ele><time>2026-05-03T16:43:34.483Z</time></trkpt><trkpt lat="38.9241967" lon="16.2566983"><ele>32.0</ele><time>2026-05-03T16:43:35.481Z</time></trkpt><trkpt lat="38.9240817" lon="16.2570883"><ele>30.0</ele><time>2026-05-03T16:43:36.483Z</time></trkpt><trkpt lat="38.923965" lon="16.2574783"><ele>30.0</ele><time>2026-05-03T16:43:37.482Z</time></trkpt><trkpt lat="38.9238383" lon="16.2578633"><ele>30.0</ele><time>2026-05-03T16:43:38.483Z</time></trkpt><trkpt lat="38.9237017" lon="16.258245"><ele>31.0</ele><time>2026-05-03T16:43:39.483Z</time></trkpt><trkpt lat="38.9235567" lon="16.2586183"><ele>32.0</ele><time>2026-05-03T16:43:40.482Z</time></trkpt><trkpt lat="38.9234" lon="16.2589867"><ele>31.5</ele><time>2026-05-03T16:43:41.482Z</time></trkpt><trkpt lat="38.923235" lon="16.2593433"><ele>31.0</ele><time>2026-05-03T16:43:42.483Z</time></trkpt><trkpt lat="38.92306" lon="16.25969"><ele>32.0</ele><time>2026-05-03T16:43:43.482Z</time></trkpt><trkpt lat="38.922875" lon="16.2600267"><ele>33.0</ele><time>2026-05-03T16:43:44.482Z</time></trkpt><trkpt lat="38.9226833" lon="16.2603567"><ele>31.0</ele><time>2026-05-03T16:43:45.482Z</time></trkpt><trkpt lat="38.9224883" lon="16.26068"><ele>29.0</ele><time>2026-05-03T16:43:46.481Z</time></trkpt><trkpt lat="38.92228" lon="16.2609917"><ele>29.0</ele><time>2026-05-03T16:43:47.482Z</time></trkpt><trkpt lat="38.9220633" lon="16.2612917"><ele>29.0</ele><time>2026-05-03T16:43:48.481Z</time></trkpt><trkpt lat="38.921835" lon="16.26158"><ele>29.5</ele><time>2026-05-03T16:43:49.482Z</time></trkpt><trkpt lat="38.9215967" lon="16.2618617"><ele>30.0</ele><time>2026-05-03T16:43:50.483Z</time></trkpt><trkpt lat="38.9213483" lon="16.2621333"><ele>29.5</ele><time>2026-05-03T16:43:51.482Z</time></trkpt><trkpt lat="38.9210933" lon="16.2623967"><ele>29.0</ele><time>2026-05-03T16:43:52.482Z</time></trkpt><trkpt lat="38.9208383" lon="16.262655"><ele>29.0</ele><time>2026-05-03T16:43:53.481Z</time></trkpt><trkpt lat="38.9205717" lon="16.2629033"><ele>29.0</ele><time>2026-05-03T16:43:54.483Z</time></trkpt><trkpt lat="38.9203" lon="16.2631467"><ele>28.5</ele><time>2026-05-03T16:43:55.482Z</time></trkpt><trkpt lat="38.9200233" lon="16.2633867"><ele>28.0</ele><time>2026-05-03T16:43:56.481Z</time></trkpt><trkpt lat="38.9197433" lon="16.263625"><ele>28.0</ele><time>2026-05-03T16:43:57.481Z</time></trkpt><trkpt lat="38.91946" lon="16.263865"><ele>28.0</ele><time>2026-05-03T16:43:58.482Z</time></trkpt><trkpt lat="38.919175" lon="16.2641067"><ele>28.0</ele><time>2026-05-03T16:43:59.481Z</time></trkpt><trkpt lat="38.9188917" lon="16.26435"><ele>28.0</ele><time>2026-05-03T16:44:00.482Z</time></trkpt><trkpt lat="38.9186083" lon="16.2645917"><ele>27.5</ele><time>2026-05-03T16:44:01.482Z</time></trkpt><trkpt lat="38.918325" lon="16.26483"><ele>27.0</ele><time>2026-05-03T16:44:02.483Z</time></trkpt><trkpt lat="38.9180433" lon="16.2650683"><ele>27.0</ele><time>2026-05-03T16:44:03.482Z</time></trkpt><trkpt lat="38.91776" lon="16.2653083"><ele>27.0</ele><time>2026-05-03T16:44:04.483Z</time></trkpt><trkpt lat="38.9174783" lon="16.2655517"><ele>28.0</ele><time>2026-05-03T16:44:05.481Z</time></trkpt><trkpt lat="38.917195" lon="16.2657917"><ele>29.0</ele><time>2026-05-03T16:44:06.482Z</time></trkpt><trkpt lat="38.9169133" lon="16.2660333"><ele>28.5</ele><time>2026-05-03T16:44:07.485Z</time></trkpt><trkpt lat="38.9166283" lon="16.2662733"><ele>28.0</ele><time>2026-05-03T16:44:08.482Z</time></trkpt><trkpt lat="38.9163367" lon="16.2665217"><ele>28.0</ele><time>2026-05-03T16:44:09.482Z</time></trkpt><trkpt lat="38.9160483" lon="16.2667767"><ele>28.0</ele><time>2026-05-03T16:44:10.481Z</time></trkpt><trkpt lat="38.9157567" lon="16.26703"><ele>28.0</ele><time>2026-05-03T16:44:11.482Z</time></trkpt><trkpt lat="38.9154683" lon="16.2672883"><ele>28.0</ele><time>2026-05-03T16:44:12.481Z</time></trkpt><trkpt lat="38.9151767" lon="16.2675433"><ele>27.0</ele><time>2026-05-03T16:44:13.482Z</time></trkpt><trkpt lat="38.9148917" lon="16.2678017"><ele>26.0</ele><time>2026-05-03T16:44:14.482Z</time></trkpt><trkpt lat="38.9146033" lon="16.2680567"><ele>26.0</ele><time>2026-05-03T16:44:15.481Z</time></trkpt><trkpt lat="38.9143183" lon="16.26831"><ele>26.0</ele><time>2026-05-03T16:44:16.481Z</time></trkpt><trkpt lat="38.9140317" lon="16.2685617"><ele>26.0</ele><time>2026-05-03T16:44:17.482Z</time></trkpt><trkpt lat="38.9137467" lon="16.26881"><ele>26.0</ele><time>2026-05-03T16:44:18.482Z</time></trkpt><trkpt lat="38.91348" lon="16.2690517"><ele>26.0</ele><time>2026-05-03T16:44:19.481Z</time></trkpt><trkpt lat="38.9132283" lon="16.26928"><ele>26.0</ele><time>2026-05-03T16:44:20.482Z</time></trkpt><trkpt lat="38.9129867" lon="16.2694933"><ele>26.0</ele><time>2026-05-03T16:44:21.481Z</time></trkpt><trkpt lat="38.9127517" lon="16.2696967"><ele>26.0</ele><time>2026-05-03T16:44:22.482Z</time></trkpt><trkpt lat="38.9125217" lon="16.2698983"><ele>25.0</ele><time>2026-05-03T16:44:23.484Z</time></trkpt><trkpt lat="38.9122917" lon="16.270095"><ele>24.0</ele><time>2026-05-03T16:44:24.482Z</time></trkpt><trkpt lat="38.9120683" lon="16.27029"><ele>24.0</ele><time>2026-05-03T16:44:25.483Z</time></trkpt><trkpt lat="38.911845" lon="16.270485"><ele>24.0</ele><time>2026-05-03T16:44:26.483Z</time></trkpt><trkpt lat="38.91163" lon="16.2706767"><ele>24.5</ele><time>2026-05-03T16:44:27.484Z</time></trkpt><trkpt lat="38.9114133" lon="16.2708683"><ele>25.0</ele><time>2026-05-03T16:44:28.483Z</time></trkpt><trkpt lat="38.9111967" lon="16.2710533"><ele>25.0</ele><time>2026-05-03T16:44:29.481Z</time></trkpt><trkpt lat="38.910975" lon="16.2712433"><ele>25.0</ele><time>2026-05-03T16:44:30.482Z</time></trkpt><trkpt lat="38.9107467" lon="16.27144"><ele>25.0</ele><time>2026-05-03T16:44:31.483Z</time></trkpt><trkpt lat="38.9105133" lon="16.27164"><ele>25.0</ele><time>2026-05-03T16:44:32.483Z</time></trkpt><trkpt lat="38.910275" lon="16.2718483"><ele>25.0</ele><time>2026-05-03T16:44:33.482Z</time></trkpt><trkpt lat="38.91003" lon="16.2720617"><ele>25.0</ele><time>2026-05-03T16:44:34.481Z</time></trkpt><trkpt lat="38.9097783" lon="16.27228"><ele>25.0</ele><time>2026-05-03T16:44:35.481Z</time></trkpt><trkpt lat="38.909525" lon="16.2725"><ele>25.0</ele><time>2026-05-03T16:44:36.481Z</time></trkpt><trkpt lat="38.9092667" lon="16.2727217"><ele>25.5</ele><time>2026-05-03T16:44:37.482Z</time></trkpt><trkpt lat="38.9090067" lon="16.2729517"><ele>26.0</ele><time>2026-05-03T16:44:38.482Z</time></trkpt><trkpt lat="38.908745" lon="16.273185"><ele>26.0</ele><time>2026-05-03T16:44:39.481Z</time></trkpt><trkpt lat="38.90848" lon="16.273415"><ele>26.0</ele><time>2026-05-03T16:44:40.483Z</time></trkpt><trkpt lat="38.90821" lon="16.2736467"><ele>25.5</ele><time>2026-05-03T16:44:41.481Z</time></trkpt><trkpt lat="38.90794" lon="16.2738783"><ele>25.0</ele><time>2026-05-03T16:44:42.481Z</time></trkpt><trkpt lat="38.90767" lon="16.2741083"><ele>25.5</ele><time>2026-05-03T16:44:43.481Z</time></trkpt><trkpt lat="38.9074" lon="16.27434"><ele>26.0</ele><time>2026-05-03T16:44:44.483Z</time></trkpt><trkpt lat="38.9071283" lon="16.2745733"><ele>26.5</ele><time>2026-05-03T16:44:45.482Z</time></trkpt><trkpt lat="38.9068567" lon="16.274805"><ele>27.0</ele><time>2026-05-03T16:44:46.483Z</time></trkpt><trkpt lat="38.9065883" lon="16.2750317"><ele>25.0</ele><time>2026-05-03T16:44:47.482Z</time></trkpt><trkpt lat="38.9063217" lon="16.2752617"><ele>23.0</ele><time>2026-05-03T16:44:48.481Z</time></trkpt><trkpt lat="38.906055" lon="16.2754917"><ele>22.0</ele><time>2026-05-03T16:44:49.482Z</time></trkpt><trkpt lat="38.90579" lon="16.27572"><ele>21.0</ele><time>2026-05-03T16:44:50.482Z</time></trkpt><trkpt lat="38.9055267" lon="16.2759467"><ele>21.0</ele><time>2026-05-03T16:44:51.482Z</time></trkpt><trkpt lat="38.9052667" lon="16.276165"><ele>21.0</ele><time>2026-05-03T16:44:52.482Z</time></trkpt><trkpt lat="38.9050117" lon="16.27638"><ele>21.0</ele><time>2026-05-03T16:44:53.482Z</time></trkpt><trkpt lat="38.9047567" lon="16.276585"><ele>21.0</ele><time>2026-05-03T16:44:54.481Z</time></trkpt><trkpt lat="38.9045033" lon="16.2767783"><ele>21.0</ele><time>2026-05-03T16:44:55.481Z</time></trkpt><trkpt lat="38.9042483" lon="16.2769567"><ele>21.0</ele><time>2026-05-03T16:44:56.482Z</time></trkpt><trkpt lat="38.9039917" lon="16.27712"><ele>20.0</ele><time>2026-05-03T16:44:57.481Z</time></trkpt><trkpt lat="38.9037333" lon="16.2772717"><ele>19.0</ele><time>2026-05-03T16:44:58.481Z</time></trkpt><trkpt lat="38.903475" lon="16.2774133"><ele>19.0</ele><time>2026-05-03T16:44:59.483Z</time></trkpt><trkpt lat="38.9032117" lon="16.2775417"><ele>19.0</ele><time>2026-05-03T16:45:00.481Z</time></trkpt><trkpt lat="38.9029433" lon="16.2776533"><ele>19.0</ele><time>2026-05-03T16:45:01.481Z</time></trkpt><trkpt lat="38.9026767" lon="16.2777567"><ele>19.0</ele><time>2026-05-03T16:45:02.482Z</time></trkpt><trkpt lat="38.9024067" lon="16.27785"><ele>19.0</ele><time>2026-05-03T16:45:03.482Z</time></trkpt><trkpt lat="38.90213" lon="16.277935"><ele>19.0</ele><time>2026-05-03T16:45:04.484Z</time></trkpt><trkpt lat="38.9018467" lon="16.278015"><ele>19.0</ele><time>2026-05-03T16:45:05.481Z</time></trkpt><trkpt lat="38.9015533" lon="16.2780833"><ele>19.0</ele><time>2026-05-03T16:45:06.482Z</time></trkpt><trkpt lat="38.9012533" lon="16.2781433"><ele>19.0</ele><time>2026-05-03T16:45:07.483Z</time></trkpt><trkpt lat="38.900945" lon="16.2781967"><ele>19.0</ele><time>2026-05-03T16:45:08.482Z</time></trkpt><trkpt lat="38.9006317" lon="16.2782483"><ele>19.0</ele><time>2026-05-03T16:45:09.482Z</time></trkpt><trkpt lat="38.9003033" lon="16.2782917"><ele>19.0</ele><time>2026-05-03T16:45:10.482Z</time></trkpt><trkpt lat="38.89997" lon="16.2783367"><ele>19.0</ele><time>2026-05-03T16:45:11.481Z</time></trkpt><trkpt lat="38.899635" lon="16.278385"><ele>19.0</ele><time>2026-05-03T16:45:12.482Z</time></trkpt><trkpt lat="38.8992967" lon="16.2784333"><ele>18.5</ele><time>2026-05-03T16:45:13.482Z</time></trkpt><trkpt lat="38.8989567" lon="16.278485"><ele>18.0</ele><time>2026-05-03T16:45:14.483Z</time></trkpt><trkpt lat="38.8986117" lon="16.2785367"><ele>19.0</ele><time>2026-05-03T16:45:15.482Z</time></trkpt><trkpt lat="38.8982667" lon="16.2785933"><ele>20.0</ele><time>2026-05-03T16:45:16.482Z</time></trkpt><trkpt lat="38.8979183" lon="16.27865"><ele>19.5</ele><time>2026-05-03T16:45:17.481Z</time></trkpt><trkpt lat="38.8975717" lon="16.2787033"><ele>19.0</ele><time>2026-05-03T16:45:18.481Z</time></trkpt><trkpt lat="38.8972233" lon="16.2787567"><ele>19.0</ele><time>2026-05-03T16:45:19.481Z</time></trkpt><trkpt lat="38.8968767" lon="16.27881"><ele>19.0</ele><time>2026-05-03T16:45:20.483Z</time></trkpt><trkpt lat="38.8965283" lon="16.2788617"><ele>19.0</ele><time>2026-05-03T16:45:21.484Z</time></trkpt><trkpt lat="38.89618" lon="16.278915"><ele>19.0</ele><time>2026-05-03T16:45:22.483Z</time></trkpt><trkpt lat="38.89583" lon="16.2789667"><ele>19.0</ele><time>2026-05-03T16:45:23.482Z</time></trkpt><trkpt lat="38.89548" lon="16.2790167"><ele>19.0</ele><time>2026-05-03T16:45:24.481Z</time></trkpt><trkpt lat="38.8951283" lon="16.279065"><ele>18.5</ele><time>2026-05-03T16:45:25.48Z</time></trkpt><trkpt lat="38.8947767" lon="16.2791183"><ele>18.0</ele><time>2026-05-03T16:45:26.482Z</time></trkpt><trkpt lat="38.894425" lon="16.2791717"><ele>18.5</ele><time>2026-05-03T16:45:27.48Z</time></trkpt><trkpt lat="38.8940733" lon="16.2792233"><ele>19.0</ele><time>2026-05-03T16:45:28.481Z</time></trkpt><trkpt lat="38.8937217" lon="16.2792767"><ele>19.5</ele><time>2026-05-03T16:45:29.48Z</time></trkpt><trkpt lat="38.89337" lon="16.2793283"><ele>20.0</ele><time>2026-05-03T16:45:30.481Z</time></trkpt><trkpt lat="38.893015" lon="16.27938"><ele>20.0</ele><time>2026-05-03T16:45:31.481Z</time></trkpt><trkpt lat="38.8926583" lon="16.279435"><ele>20.0</ele><time>2026-05-03T16:45:32.481Z</time></trkpt><trkpt lat="38.8923017" lon="16.27949"><ele>20.0</ele><time>2026-05-03T16:45:33.48Z</time></trkpt><trkpt lat="38.8919433" lon="16.2795467"><ele>20.0</ele><time>2026-05-03T16:45:34.48Z</time></trkpt><trkpt lat="38.8915817" lon="16.2796"><ele>20.0</ele><time>2026-05-03T16:45:35.48Z</time></trkpt><trkpt lat="38.8912183" lon="16.2796533"><ele>20.0</ele><time>2026-05-03T16:45:36.481Z</time></trkpt><trkpt lat="38.8908533" lon="16.2797083"><ele>19.5</ele><time>2026-05-03T16:45:37.481Z</time></trkpt><trkpt lat="38.89049" lon="16.2797617"><ele>19.0</ele><time>2026-05-03T16:45:38.482Z</time></trkpt><trkpt lat="38.8901267" lon="16.2798167"><ele>19.0</ele><time>2026-05-03T16:45:39.481Z</time></trkpt><trkpt lat="38.8897617" lon="16.2798717"><ele>19.0</ele><time>2026-05-03T16:45:40.482Z</time></trkpt><trkpt lat="38.8893967" lon="16.2799267"><ele>19.5</ele><time>2026-05-03T16:45:41.481Z</time></trkpt><trkpt lat="38.8890333" lon="16.279985"><ele>20.0</ele><time>2026-05-03T16:45:42.481Z</time></trkpt><trkpt lat="38.88867" lon="16.2800433"><ele>20.0</ele><time>2026-05-03T16:45:43.482Z</time></trkpt><trkpt lat="38.8883067" lon="16.2801"><ele>20.0</ele><time>2026-05-03T16:45:44.483Z</time></trkpt><trkpt lat="38.8879417" lon="16.2801583"><ele>19.5</ele><time>2026-05-03T16:45:45.481Z</time></trkpt><trkpt lat="38.8875767" lon="16.2802183"><ele>19.0</ele><time>2026-05-03T16:45:46.482Z</time></trkpt><trkpt lat="38.8872117" lon="16.2802767"><ele>19.0</ele><time>2026-05-03T16:45:47.481Z</time></trkpt><trkpt lat="38.8868433" lon="16.280335"><ele>19.0</ele><time>2026-05-03T16:45:48.483Z</time></trkpt><trkpt lat="38.8864767" lon="16.2803917"><ele>19.0</ele><time>2026-05-03T16:45:49.48Z</time></trkpt><trkpt lat="38.88611" lon="16.2804467"><ele>19.0</ele><time>2026-05-03T16:45:50.481Z</time></trkpt><trkpt lat="38.8857417" lon="16.2804983"><ele>19.0</ele><time>2026-05-03T16:45:51.481Z</time></trkpt><trkpt lat="38.8853733" lon="16.28055"><ele>19.0</ele><time>2026-05-03T16:45:52.483Z</time></trkpt><trkpt lat="38.8850067" lon="16.2806"><ele>19.0</ele><time>2026-05-03T16:45:53.481Z</time></trkpt><trkpt lat="38.8846383" lon="16.280655"><ele>19.0</ele><time>2026-05-03T16:45:54.481Z</time></trkpt><trkpt lat="38.8842733" lon="16.2807133"><ele>18.5</ele><time>2026-05-03T16:45:55.481Z</time></trkpt><trkpt lat="38.8839067" lon="16.28077"><ele>18.0</ele><time>2026-05-03T16:45:56.482Z</time></trkpt><trkpt lat="38.88354" lon="16.2808233"><ele>19.0</ele><time>2026-05-03T16:45:57.481Z</time></trkpt><trkpt lat="38.8831733" lon="16.2808783"><ele>20.0</ele><time>2026-05-03T16:45:58.48Z</time></trkpt><trkpt lat="38.8828083" lon="16.2809333"><ele>19.5</ele><time>2026-05-03T16:45:59.481Z</time></trkpt><trkpt lat="38.882445" lon="16.2809917"><ele>19.0</ele><time>2026-05-03T16:46:00.482Z</time></trkpt><trkpt lat="38.8820833" lon="16.2810483"><ele>19.5</ele><time>2026-05-03T16:46:01.482Z</time></trkpt><trkpt lat="38.8817183" lon="16.2811017"><ele>20.0</ele><time>2026-05-03T16:46:02.482Z</time></trkpt><trkpt lat="38.8813567" lon="16.2811517"><ele>20.0</ele><time>2026-05-03T16:46:03.482Z</time></trkpt><trkpt lat="38.8809933" lon="16.2811967"><ele>20.0</ele><time>2026-05-03T16:46:04.48Z</time></trkpt><trkpt lat="38.8806333" lon="16.2812367"><ele>19.5</ele><time>2026-05-03T16:46:05.48Z</time></trkpt><trkpt lat="38.8802717" lon="16.2812733"><ele>19.0</ele><time>2026-05-03T16:46:06.481Z</time></trkpt><trkpt lat="38.8799117" lon="16.2813033"><ele>19.0</ele><time>2026-05-03T16:46:07.481Z</time></trkpt><trkpt lat="38.8795483" lon="16.281325"><ele>19.0</ele><time>2026-05-03T16:46:08.483Z</time></trkpt><trkpt lat="38.8791833" lon="16.2813417"><ele>19.5</ele><time>2026-05-03T16:46:09.481Z</time></trkpt><trkpt lat="38.8788167" lon="16.2813567"><ele>20.0</ele><time>2026-05-03T16:46:10.48Z</time></trkpt><trkpt lat="38.8784483" lon="16.2813683"><ele>20.0</ele><time>2026-05-03T16:46:11.48Z</time></trkpt><trkpt lat="38.8780783" lon="16.28138"><ele>20.0</ele><time>2026-05-03T16:46:12.481Z</time></trkpt><trkpt lat="38.8777083" lon="16.2813917"><ele>20.0</ele><time>2026-05-03T16:46:13.481Z</time></trkpt><trkpt lat="38.8773383" lon="16.2814017"><ele>20.0</ele><time>2026-05-03T16:46:14.481Z</time></trkpt><trkpt lat="38.8769683" lon="16.28141"><ele>19.5</ele><time>2026-05-03T16:46:15.48Z</time></trkpt><trkpt lat="38.8765967" lon="16.2814183"><ele>19.0</ele><time>2026-05-03T16:46:16.483Z</time></trkpt><trkpt lat="38.8762267" lon="16.2814267"><ele>19.0</ele><time>2026-05-03T16:46:17.48Z</time></trkpt><trkpt lat="38.875855" lon="16.28143"><ele>19.0</ele><time>2026-05-03T16:46:18.481Z</time></trkpt><trkpt lat="38.8754867" lon="16.281435"><ele>19.0</ele><time>2026-05-03T16:46:19.48Z</time></trkpt><trkpt lat="38.8751167" lon="16.2814417"><ele>19.0</ele><time>2026-05-03T16:46:20.482Z</time></trkpt><trkpt lat="38.8747483" lon="16.2814517"><ele>23.0</ele><time>2026-05-03T16:46:21.481Z</time></trkpt><trkpt lat="38.8743783" lon="16.2814617"><ele>27.0</ele><time>2026-05-03T16:46:22.481Z</time></trkpt><trkpt lat="38.8740067" lon="16.28147"><ele>27.0</ele><time>2026-05-03T16:46:23.481Z</time></trkpt><trkpt lat="38.8736333" lon="16.28148"><ele>27.0</ele><time>2026-05-03T16:46:24.481Z</time></trkpt><trkpt lat="38.87326" lon="16.2814917"><ele>27.0</ele><time>2026-05-03T16:46:25.481Z</time></trkpt><trkpt lat="38.87289" lon="16.2815017"><ele>27.0</ele><time>2026-05-03T16:46:26.481Z</time></trkpt><trkpt lat="38.8725183" lon="16.2815117"><ele>28.0</ele><time>2026-05-03T16:46:27.481Z</time></trkpt><trkpt lat="38.87215" lon="16.2815217"><ele>29.0</ele><time>2026-05-03T16:46:28.481Z</time></trkpt><trkpt lat="38.8717833" lon="16.28153"><ele>29.5</ele><time>2026-05-03T16:46:29.481Z</time></trkpt><trkpt lat="38.87142" lon="16.28153"><ele>30.0</ele><time>2026-05-03T16:46:30.481Z</time></trkpt><trkpt lat="38.87106" lon="16.281525"><ele>31.5</ele><time>2026-05-03T16:46:31.481Z</time></trkpt><trkpt lat="38.870705" lon="16.2815117"><ele>33.0</ele><time>2026-05-03T16:46:32.48Z</time></trkpt><trkpt lat="38.8703483" lon="16.28149"><ele>33.0</ele><time>2026-05-03T16:46:33.481Z</time></trkpt><trkpt lat="38.8699917" lon="16.2814467"><ele>33.0</ele><time>2026-05-03T16:46:34.481Z</time></trkpt><trkpt lat="38.8696433" lon="16.2813783"><ele>32.5</ele><time>2026-05-03T16:46:35.481Z</time></trkpt><trkpt lat="38.8693" lon="16.2812817"><ele>32.0</ele><time>2026-05-03T16:46:36.481Z</time></trkpt><trkpt lat="38.8689633" lon="16.2811667"><ele>31.5</ele><time>2026-05-03T16:46:37.48Z</time></trkpt><trkpt lat="38.8686317" lon="16.2810283"><ele>31.0</ele><time>2026-05-03T16:46:38.482Z</time></trkpt><trkpt lat="38.8683117" lon="16.2808717"><ele>31.0</ele><time>2026-05-03T16:46:39.481Z</time></trkpt><trkpt lat="38.868" lon="16.2806917"><ele>31.0</ele><time>2026-05-03T16:46:40.481Z</time></trkpt><trkpt lat="38.8676933" lon="16.2804917"><ele>30.5</ele><time>2026-05-03T16:46:41.482Z</time></trkpt><trkpt lat="38.867395" lon="16.280265"><ele>30.0</ele><time>2026-05-03T16:46:42.481Z</time></trkpt><trkpt lat="38.8670983" lon="16.28002"><ele>29.5</ele><time>2026-05-03T16:46:43.48Z</time></trkpt><trkpt lat="38.8668083" lon="16.2797533"><ele>29.0</ele><time>2026-05-03T16:46:44.482Z</time></trkpt><trkpt lat="38.8665283" lon="16.27948"><ele>29.0</ele><time>2026-05-03T16:46:45.482Z</time></trkpt><trkpt lat="38.8662483" lon="16.2791967"><ele>29.0</ele><time>2026-05-03T16:46:46.482Z</time></trkpt><trkpt lat="38.8659667" lon="16.27891"><ele>29.5</ele><time>2026-05-03T16:46:47.482Z</time></trkpt><trkpt lat="38.86568" lon="16.2786217"><ele>30.0</ele><time>2026-05-03T16:46:48.481Z</time></trkpt><trkpt lat="38.8653917" lon="16.2783317"><ele>29.5</ele><time>2026-05-03T16:46:49.482Z</time></trkpt><trkpt lat="38.8651033" lon="16.2780433"><ele>29.0</ele><time>2026-05-03T16:46:50.481Z</time></trkpt><trkpt lat="38.8648133" lon="16.2777583"><ele>29.0</ele><time>2026-05-03T16:46:51.481Z</time></trkpt><trkpt lat="38.86452" lon="16.2774783"><ele>29.0</ele><time>2026-05-03T16:46:52.482Z</time></trkpt><trkpt lat="38.86422" lon="16.27721"><ele>27.5</ele><time>2026-05-03T16:46:53.482Z</time></trkpt><trkpt lat="38.8639083" lon="16.2769533"><ele>26.0</ele><time>2026-05-03T16:46:54.482Z</time></trkpt><trkpt lat="38.863585" lon="16.276705"><ele>25.5</ele><time>2026-05-03T16:46:55.48Z</time></trkpt><trkpt lat="38.8632567" lon="16.2764783"><ele>25.0</ele><time>2026-05-03T16:46:56.48Z</time></trkpt><trkpt lat="38.862925" lon="16.276275"><ele>23.0</ele><time>2026-05-03T16:46:57.48Z</time></trkpt><trkpt lat="38.8625883" lon="16.2760867"><ele>21.0</ele><time>2026-05-03T16:46:58.482Z</time></trkpt><trkpt lat="38.8622483" lon="16.275915"><ele>21.0</ele><time>2026-05-03T16:46:59.482Z</time></trkpt><trkpt lat="38.8619" lon="16.2757567"><ele>21.0</ele><time>2026-05-03T16:47:00.481Z</time></trkpt><trkpt lat="38.8615483" lon="16.275615"><ele>19.0</ele><time>2026-05-03T16:47:01.48Z</time></trkpt><trkpt lat="38.861195" lon="16.2754867"><ele>17.0</ele><time>2026-05-03T16:47:02.481Z</time></trkpt><trkpt lat="38.8608383" lon="16.275375"><ele>17.0</ele><time>2026-05-03T16:47:03.481Z</time></trkpt><trkpt lat="38.8604783" lon="16.2752733"><ele>17.0</ele><time>2026-05-03T16:47:04.481Z</time></trkpt><trkpt lat="38.8601167" lon="16.2751767"><ele>18.0</ele><time>2026-05-03T16:47:05.481Z</time></trkpt><trkpt lat="38.8597583" lon="16.2750833"><ele>19.0</ele><time>2026-05-03T16:47:06.481Z</time></trkpt><trkpt lat="38.8594017" lon="16.2749883"><ele>18.0</ele><time>2026-05-03T16:47:07.481Z</time></trkpt><trkpt lat="38.8590483" lon="16.2748867"><ele>17.0</ele><time>2026-05-03T16:47:08.483Z</time></trkpt><trkpt lat="38.858695" lon="16.274775"><ele>17.0</ele><time>2026-05-03T16:47:09.48Z</time></trkpt><trkpt lat="38.858345" lon="16.27465"><ele>17.0</ele><time>2026-05-03T16:47:10.481Z</time></trkpt><trkpt lat="38.858" lon="16.2745167"><ele>17.0</ele><time>2026-05-03T16:47:11.48Z</time></trkpt><trkpt lat="38.8576617" lon="16.274365"><ele>17.0</ele><time>2026-05-03T16:47:12.481Z</time></trkpt><trkpt lat="38.8573283" lon="16.2741933"><ele>17.0</ele><time>2026-05-03T16:47:13.48Z</time></trkpt><trkpt lat="38.8570033" lon="16.274005"><ele>17.0</ele><time>2026-05-03T16:47:14.481Z</time></trkpt><trkpt lat="38.8566817" lon="16.2738017"><ele>17.0</ele><time>2026-05-03T16:47:15.48Z</time></trkpt><trkpt lat="38.8563683" lon="16.273585"><ele>17.0</ele><time>2026-05-03T16:47:16.481Z</time></trkpt><trkpt lat="38.85606" lon="16.27336"><ele>18.0</ele><time>2026-05-03T16:47:17.48Z</time></trkpt><trkpt lat="38.8557533" lon="16.2731267"><ele>19.0</ele><time>2026-05-03T16:47:18.482Z</time></trkpt><trkpt lat="38.85545" lon="16.27289"><ele>19.5</ele><time>2026-05-03T16:47:19.481Z</time></trkpt><trkpt lat="38.85515" lon="16.27265"><ele>20.0</ele><time>2026-05-03T16:47:20.482Z</time></trkpt><trkpt lat="38.8548517" lon="16.2724067"><ele>19.5</ele><time>2026-05-03T16:47:21.481Z</time></trkpt><trkpt lat="38.8545533" lon="16.2721617"><ele>19.0</ele><time>2026-05-03T16:47:22.482Z</time></trkpt><trkpt lat="38.854255" lon="16.271915"><ele>19.0</ele><time>2026-05-03T16:47:23.481Z</time></trkpt><trkpt lat="38.85396" lon="16.2716633"><ele>19.0</ele><time>2026-05-03T16:47:24.481Z</time></trkpt><trkpt lat="38.853665" lon="16.2714133"><ele>20.0</ele><time>2026-05-03T16:47:25.482Z</time></trkpt><trkpt lat="38.8533633" lon="16.2711683"><ele>21.0</ele><time>2026-05-03T16:47:26.482Z</time></trkpt><trkpt lat="38.8530633" lon="16.2709217"><ele>21.0</ele><time>2026-05-03T16:47:27.481Z</time></trkpt><trkpt lat="38.8527617" lon="16.270675"><ele>21.0</ele><time>2026-05-03T16:47:28.48Z</time></trkpt><trkpt lat="38.8524617" lon="16.2704267"><ele>22.0</ele><time>2026-05-03T16:47:29.483Z</time></trkpt><trkpt lat="38.85216" lon="16.27018"><ele>23.0</ele><time>2026-05-03T16:47:30.481Z</time></trkpt><trkpt lat="38.8518567" lon="16.2699333"><ele>21.5</ele><time>2026-05-03T16:47:31.485Z</time></trkpt><trkpt lat="38.8515517" lon="16.269685"><ele>20.0</ele><time>2026-05-03T16:47:32.482Z</time></trkpt><trkpt lat="38.8512467" lon="16.2694367"><ele>20.5</ele><time>2026-05-03T16:47:33.482Z</time></trkpt><trkpt lat="38.85094" lon="16.26919"><ele>21.0</ele><time>2026-05-03T16:47:34.481Z</time></trkpt><trkpt lat="38.850635" lon="16.2689417"><ele>21.0</ele><time>2026-05-03T16:47:35.481Z</time></trkpt><trkpt lat="38.8503283" lon="16.2686933"><ele>21.0</ele><time>2026-05-03T16:47:36.481Z</time></trkpt><trkpt lat="38.8500217" lon="16.2684433"><ele>21.5</ele><time>2026-05-03T16:47:37.481Z</time></trkpt><trkpt lat="38.8497167" lon="16.2681933"><ele>22.0</ele><time>2026-05-03T16:47:38.482Z</time></trkpt><trkpt lat="38.8494117" lon="16.2679467"><ele>23.0</ele><time>2026-05-03T16:47:39.48Z</time></trkpt><trkpt lat="38.8491083" lon="16.2677"><ele>24.0</ele><time>2026-05-03T16:47:40.482Z</time></trkpt><trkpt lat="38.8488083" lon="16.2674567"><ele>23.5</ele><time>2026-05-03T16:47:41.481Z</time></trkpt><trkpt lat="38.84851" lon="16.2672133"><ele>23.0</ele><time>2026-05-03T16:47:42.481Z</time></trkpt><trkpt lat="38.8482167" lon="16.2669733"><ele>24.0</ele><time>2026-05-03T16:47:43.482Z</time></trkpt><trkpt lat="38.8479283" lon="16.2667383"><ele>25.0</ele><time>2026-05-03T16:47:44.481Z</time></trkpt><trkpt lat="38.84764" lon="16.2665067"><ele>25.5</ele><time>2026-05-03T16:47:45.482Z</time></trkpt><trkpt lat="38.8473583" lon="16.2662817"><ele>26.0</ele><time>2026-05-03T16:47:46.48Z</time></trkpt><trkpt lat="38.8470783" lon="16.2660583"><ele>26.0</ele><time>2026-05-03T16:47:47.483Z</time></trkpt><trkpt lat="38.8467983" lon="16.2658383"><ele>26.0</ele><time>2026-05-03T16:47:48.481Z</time></trkpt><trkpt lat="38.8465167" lon="16.26562"><ele>26.5</ele><time>2026-05-03T16:47:49.482Z</time></trkpt><trkpt lat="38.8462317" lon="16.2654067"><ele>27.0</ele><time>2026-05-03T16:47:50.484Z</time></trkpt><trkpt lat="38.8459417" lon="16.2651983"><ele>27.0</ele><time>2026-05-03T16:47:51.481Z</time></trkpt><trkpt lat="38.8456467" lon="16.2649933"><ele>27.0</ele><time>2026-05-03T16:47:52.48Z</time></trkpt><trkpt lat="38.8453517" lon="16.2647933"><ele>28.0</ele><time>2026-05-03T16:47:53.482Z</time></trkpt><trkpt lat="38.845055" lon="16.2646017"><ele>29.0</ele><time>2026-05-03T16:47:54.481Z</time></trkpt><trkpt lat="38.8447567" lon="16.2644167"><ele>29.0</ele><time>2026-05-03T16:47:55.482Z</time></trkpt><trkpt lat="38.8444533" lon="16.2642367"><ele>29.0</ele><time>2026-05-03T16:47:56.483Z</time></trkpt><trkpt lat="38.8441483" lon="16.2640617"><ele>28.0</ele><time>2026-05-03T16:47:57.481Z</time></trkpt><trkpt lat="38.8438383" lon="16.263895"><ele>27.0</ele><time>2026-05-03T16:47:58.481Z</time></trkpt><trkpt lat="38.8435283" lon="16.263735"><ele>28.0</ele><time>2026-05-03T16:47:59.481Z</time></trkpt><trkpt lat="38.8432133" lon="16.2635817"><ele>29.0</ele><time>2026-05-03T16:48:00.481Z</time></trkpt><trkpt lat="38.8428983" lon="16.2634317"><ele>29.5</ele><time>2026-05-03T16:48:01.482Z</time></trkpt><trkpt lat="38.8425833" lon="16.26328"><ele>30.0</ele><time>2026-05-03T16:48:02.48Z</time></trkpt><trkpt lat="38.8422717" lon="16.2631233"><ele>30.0</ele><time>2026-05-03T16:48:03.481Z</time></trkpt><trkpt lat="38.8419617" lon="16.2629667"><ele>30.0</ele><time>2026-05-03T16:48:04.481Z</time></trkpt><trkpt lat="38.8416533" lon="16.2628067"><ele>31.0</ele><time>2026-05-03T16:48:05.48Z</time></trkpt><trkpt lat="38.8413483" lon="16.262645"><ele>32.0</ele><time>2026-05-03T16:48:06.481Z</time></trkpt><trkpt lat="38.8410433" lon="16.2624817"><ele>32.0</ele><time>2026-05-03T16:48:07.481Z</time></trkpt><trkpt lat="38.84074" lon="16.262315"><ele>32.0</ele><time>2026-05-03T16:48:08.481Z</time></trkpt><trkpt lat="38.84044" lon="16.26214"><ele>31.0</ele><time>2026-05-03T16:48:09.482Z</time></trkpt><trkpt lat="38.8401433" lon="16.2619533"><ele>30.0</ele><time>2026-05-03T16:48:10.48Z</time></trkpt><trkpt lat="38.8398533" lon="16.2617583"><ele>31.0</ele><time>2026-05-03T16:48:11.482Z</time></trkpt><trkpt lat="38.8395621" lon="16.2615611"><ele>32.0</ele><time>2026-05-03T16:48:12.481Z</time></trkpt><trkpt lat="38.8392739" lon="16.2613575"><ele>32.0</ele><time>2026-05-03T16:48:13.481Z</time></trkpt><trkpt lat="38.8389898" lon="16.2611449"><ele>32.0</ele><time>2026-05-03T16:48:14.481Z</time></trkpt><trkpt lat="38.8387073" lon="16.2609233"><ele>32.0</ele><time>2026-05-03T16:48:15.481Z</time></trkpt><trkpt lat="38.8384241" lon="16.2607011"><ele>32.0</ele><time>2026-05-03T16:48:16.481Z</time></trkpt><trkpt lat="38.8381405" lon="16.2604742"><ele>31.5</ele><time>2026-05-03T16:48:17.481Z</time></trkpt><trkpt lat="38.8378573" lon="16.2602394"><ele>31.0</ele><time>2026-05-03T16:48:18.481Z</time></trkpt><trkpt lat="38.837576" lon="16.26"><ele>29.0</ele><time>2026-05-03T16:48:19.481Z</time></trkpt><trkpt lat="38.8372961" lon="16.2597576"><ele>27.0</ele><time>2026-05-03T16:48:20.481Z</time></trkpt><trkpt lat="38.837016" lon="16.2595218"><ele>28.0</ele><time>2026-05-03T16:48:21.48Z</time></trkpt><trkpt lat="38.8367388" lon="16.2592886"><ele>29.0</ele><time>2026-05-03T16:48:22.48Z</time></trkpt><trkpt lat="38.8364595" lon="16.2590642"><ele>29.0</ele><time>2026-05-03T16:48:23.481Z</time></trkpt><trkpt lat="38.8361817" lon="16.2588464"><ele>29.0</ele><time>2026-05-03T16:48:24.482Z</time></trkpt><trkpt lat="38.8359033" lon="16.2586362"><ele>29.0</ele><time>2026-05-03T16:48:25.481Z</time></trkpt><trkpt lat="38.8356248" lon="16.2584321"><ele>29.0</ele><time>2026-05-03T16:48:26.481Z</time></trkpt><trkpt lat="38.8353461" lon="16.2582321"><ele>29.0</ele><time>2026-05-03T16:48:27.482Z</time></trkpt><trkpt lat="38.8350657" lon="16.2580349"><ele>29.0</ele><time>2026-05-03T16:48:28.481Z</time></trkpt><trkpt lat="38.8347844" lon="16.2578397"><ele>29.0</ele><time>2026-05-03T16:48:29.48Z</time></trkpt><trkpt lat="38.834501" lon="16.2576461"><ele>29.0</ele><time>2026-05-03T16:48:30.481Z</time></trkpt><trkpt lat="38.8342156" lon="16.2574497"><ele>28.5</ele><time>2026-05-03T16:48:31.481Z</time></trkpt><trkpt lat="38.8339288" lon="16.2572527"><ele>28.0</ele><time>2026-05-03T16:48:32.481Z</time></trkpt><trkpt lat="38.8336401" lon="16.2570554"><ele>27.0</ele><time>2026-05-03T16:48:33.48Z</time></trkpt><trkpt lat="38.833348" lon="16.2568587"><ele>26.0</ele><time>2026-05-03T16:48:34.481Z</time></trkpt><trkpt lat="38.8330547" lon="16.2566617"><ele>26.0</ele><time>2026-05-03T16:48:35.482Z</time></trkpt><trkpt lat="38.8327591" lon="16.2564594"><ele>26.0</ele><time>2026-05-03T16:48:36.481Z</time></trkpt><trkpt lat="38.8324608" lon="16.2562544"><ele>26.0</ele><time>2026-05-03T16:48:37.481Z</time></trkpt><trkpt lat="38.8321608" lon="16.2560493"><ele>26.0</ele><time>2026-05-03T16:48:38.481Z</time></trkpt><trkpt lat="38.83186" lon="16.2558482"><ele>25.5</ele><time>2026-05-03T16:48:39.481Z</time></trkpt><trkpt lat="38.8315588" lon="16.2556435"><ele>25.0</ele><time>2026-05-03T16:48:40.48Z</time></trkpt><trkpt lat="38.8312567" lon="16.2554427"><ele>25.5</ele><time>2026-05-03T16:48:41.481Z</time></trkpt><trkpt lat="38.8309567" lon="16.2552384"><ele>26.0</ele><time>2026-05-03T16:48:42.481Z</time></trkpt><trkpt lat="38.8306563" lon="16.255039"><ele>26.0</ele><time>2026-05-03T16:48:43.482Z</time></trkpt><trkpt lat="38.83036" lon="16.25484"><ele>26.0</ele><time>2026-05-03T16:48:44.482Z</time></trkpt><trkpt lat="38.830065" lon="16.25464"><ele>25.5</ele><time>2026-05-03T16:48:45.482Z</time></trkpt><trkpt lat="38.8297717" lon="16.2544417"><ele>25.0</ele><time>2026-05-03T16:48:46.481Z</time></trkpt><trkpt lat="38.8294817" lon="16.2542417"><ele>26.5</ele><time>2026-05-03T16:48:47.481Z</time></trkpt><trkpt lat="38.8291967" lon="16.2540433"><ele>28.0</ele><time>2026-05-03T16:48:48.481Z</time></trkpt><trkpt lat="38.8289133" lon="16.25384"><ele>25.5</ele><time>2026-05-03T16:48:49.481Z</time></trkpt><trkpt lat="38.8286317" lon="16.253635"><ele>23.0</ele><time>2026-05-03T16:48:50.483Z</time></trkpt><trkpt lat="38.8283533" lon="16.2534233"><ele>23.0</ele><time>2026-05-03T16:48:51.481Z</time></trkpt><trkpt lat="38.8280767" lon="16.25321"><ele>23.0</ele><time>2026-05-03T16:48:52.482Z</time></trkpt><trkpt lat="38.8278" lon="16.2529917"><ele>24.0</ele><time>2026-05-03T16:48:53.481Z</time></trkpt><trkpt lat="38.827525" lon="16.25277"><ele>25.0</ele><time>2026-05-03T16:48:54.482Z</time></trkpt><trkpt lat="38.8272533" lon="16.25254"><ele>25.0</ele><time>2026-05-03T16:48:55.481Z</time></trkpt><trkpt lat="38.826985" lon="16.2523083"><ele>25.0</ele><time>2026-05-03T16:48:56.481Z</time></trkpt><trkpt lat="38.82672" lon="16.2520683"><ele>23.0</ele><time>2026-05-03T16:48:57.48Z</time></trkpt><trkpt lat="38.82646" lon="16.2518233"><ele>21.0</ele><time>2026-05-03T16:48:58.48Z</time></trkpt><trkpt lat="38.8262017" lon="16.251575"><ele>20.0</ele><time>2026-05-03T16:48:59.481Z</time></trkpt><trkpt lat="38.825945" lon="16.2513133"><ele>19.0</ele><time>2026-05-03T16:49:00.481Z</time></trkpt><trkpt lat="38.8256933" lon="16.2510417"><ele>19.0</ele><time>2026-05-03T16:49:01.481Z</time></trkpt><trkpt lat="38.8254483" lon="16.25076"><ele>19.0</ele><time>2026-05-03T16:49:02.482Z</time></trkpt><trkpt lat="38.8252083" lon="16.2504733"><ele>19.0</ele><time>2026-05-03T16:49:03.481Z</time></trkpt><trkpt lat="38.824975" lon="16.2501767"><ele>19.0</ele><time>2026-05-03T16:49:04.48Z</time></trkpt><trkpt lat="38.8247467" lon="16.2498733"><ele>18.5</ele><time>2026-05-03T16:49:05.481Z</time></trkpt><trkpt lat="38.8245233" lon="16.2495633"><ele>18.0</ele><time>2026-05-03T16:49:06.481Z</time></trkpt><trkpt lat="38.82431" lon="16.24924"><ele>18.5</ele><time>2026-05-03T16:49:07.482Z</time></trkpt><trkpt lat="38.8241033" lon="16.2489067"><ele>19.0</ele><time>2026-05-03T16:49:08.481Z</time></trkpt><trkpt lat="38.82391" lon="16.248565"><ele>19.0</ele><time>2026-05-03T16:49:09.481Z</time></trkpt><trkpt lat="38.8237233" lon="16.2482183"><ele>19.0</ele><time>2026-05-03T16:49:10.481Z</time></trkpt><trkpt lat="38.8235433" lon="16.247865"><ele>19.0</ele><time>2026-05-03T16:49:11.481Z</time></trkpt><trkpt lat="38.82337" lon="16.247505"><ele>19.0</ele><time>2026-05-03T16:49:12.482Z</time></trkpt><trkpt lat="38.8232033" lon="16.2471383"><ele>19.5</ele><time>2026-05-03T16:49:13.481Z</time></trkpt><trkpt lat="38.82304" lon="16.246775"><ele>20.0</ele><time>2026-05-03T16:49:14.481Z</time></trkpt><trkpt lat="38.8228783" lon="16.2464083"><ele>20.0</ele><time>2026-05-03T16:49:15.48Z</time></trkpt><trkpt lat="38.8227217" lon="16.2460383"><ele>20.0</ele><time>2026-05-03T16:49:16.48Z</time></trkpt><trkpt lat="38.8225683" lon="16.2456633"><ele>20.0</ele><time>2026-05-03T16:49:17.481Z</time></trkpt><trkpt lat="38.822415" lon="16.2452867"><ele>20.0</ele><time>2026-05-03T16:49:18.484Z</time></trkpt><trkpt lat="38.8222633" lon="16.2449117"><ele>20.0</ele><time>2026-05-03T16:49:19.485Z</time></trkpt><trkpt lat="38.8221117" lon="16.2445317"><ele>20.0</ele><time>2026-05-03T16:49:20.483Z</time></trkpt><trkpt lat="38.8219583" lon="16.2441483"><ele>21.0</ele><time>2026-05-03T16:49:21.484Z</time></trkpt><trkpt lat="38.8218" lon="16.24376"><ele>22.0</ele><time>2026-05-03T16:49:22.483Z</time></trkpt><trkpt lat="38.8216383" lon="16.24337"><ele>22.0</ele><time>2026-05-03T16:49:23.485Z</time></trkpt><trkpt lat="38.821475" lon="16.2429783"><ele>22.0</ele><time>2026-05-03T16:49:24.482Z</time></trkpt><trkpt lat="38.8213083" lon="16.2425883"><ele>21.0</ele><time>2026-05-03T16:49:25.481Z</time></trkpt><trkpt lat="38.821135" lon="16.2422017"><ele>20.0</ele><time>2026-05-03T16:49:26.481Z</time></trkpt><trkpt lat="38.8209583" lon="16.241815"><ele>19.5</ele><time>2026-05-03T16:49:27.481Z</time></trkpt><trkpt lat="38.8207733" lon="16.241435"><ele>19.0</ele><time>2026-05-03T16:49:28.482Z</time></trkpt><trkpt lat="38.8205817" lon="16.24106"><ele>19.0</ele><time>2026-05-03T16:49:29.482Z</time></trkpt><trkpt lat="38.8203817" lon="16.240695"><ele>19.0</ele><time>2026-05-03T16:49:30.48Z</time></trkpt><trkpt lat="38.820175" lon="16.2403417"><ele>17.5</ele><time>2026-05-03T16:49:31.481Z</time></trkpt><trkpt lat="38.81996" lon="16.2400017"><ele>16.0</ele><time>2026-05-03T16:49:32.481Z</time></trkpt><trkpt lat="38.8197367" lon="16.2396733"><ele>15.5</ele><time>2026-05-03T16:49:33.48Z</time></trkpt><trkpt lat="38.8195067" lon="16.2393533"><ele>15.0</ele><time>2026-05-03T16:49:34.482Z</time></trkpt><trkpt lat="38.8192683" lon="16.2390417"><ele>14.5</ele><time>2026-05-03T16:49:35.481Z</time></trkpt><trkpt lat="38.8190217" lon="16.2387367"><ele>14.0</ele><time>2026-05-03T16:49:36.481Z</time></trkpt><trkpt lat="38.8187667" lon="16.2384433"><ele>14.0</ele><time>2026-05-03T16:49:37.481Z</time></trkpt><trkpt lat="38.8185067" lon="16.2381617"><ele>14.0</ele><time>2026-05-03T16:49:38.482Z</time></trkpt><trkpt lat="38.81824" lon="16.237895"><ele>15.5</ele><time>2026-05-03T16:49:39.482Z</time></trkpt><trkpt lat="38.8179667" lon="16.23764"><ele>17.0</ele><time>2026-05-03T16:49:40.48Z</time></trkpt><trkpt lat="38.8176883" lon="16.237395"><ele>17.5</ele><time>2026-05-03T16:49:41.48Z</time></trkpt><trkpt lat="38.8174033" lon="16.2371583"><ele>18.0</ele><time>2026-05-03T16:49:42.482Z</time></trkpt><trkpt lat="38.81711" lon="16.23693"><ele>19.5</ele><time>2026-05-03T16:49:43.48Z</time></trkpt><trkpt lat="38.8168083" lon="16.23671"><ele>21.0</ele><time>2026-05-03T16:49:44.481Z</time></trkpt><trkpt lat="38.8165" lon="16.2364983"><ele>20.0</ele><time>2026-05-03T16:49:45.482Z</time></trkpt><trkpt lat="38.8161867" lon="16.2362933"><ele>19.0</ele><time>2026-05-03T16:49:46.481Z</time></trkpt><trkpt lat="38.8158683" lon="16.236095"><ele>19.0</ele><time>2026-05-03T16:49:47.481Z</time></trkpt><trkpt lat="38.8155483" lon="16.23591"><ele>19.0</ele><time>2026-05-03T16:49:48.48Z</time></trkpt><trkpt lat="38.815225" lon="16.2357383"><ele>16.5</ele><time>2026-05-03T16:49:49.483Z</time></trkpt><trkpt lat="38.8149017" lon="16.2355767"><ele>14.0</ele><time>2026-05-03T16:49:50.481Z</time></trkpt><trkpt lat="38.81458" lon="16.2354217"><ele>16.0</ele><time>2026-05-03T16:49:51.481Z</time></trkpt><trkpt lat="38.8142567" lon="16.2352717"><ele>18.0</ele><time>2026-05-03T16:49:52.481Z</time></trkpt><trkpt lat="38.8139317" lon="16.2351217"><ele>18.0</ele><time>2026-05-03T16:49:53.481Z</time></trkpt><trkpt lat="38.81361" lon="16.2349717"><ele>18.0</ele><time>2026-05-03T16:49:54.482Z</time></trkpt><trkpt lat="38.8132917" lon="16.2348267"><ele>14.5</ele><time>2026-05-03T16:49:55.48Z</time></trkpt><trkpt lat="38.8129783" lon="16.234685"><ele>11.0</ele><time>2026-05-03T16:49:56.482Z</time></trkpt><trkpt lat="38.8126667" lon="16.2345433"><ele>12.0</ele><time>2026-05-03T16:49:57.481Z</time></trkpt><trkpt lat="38.81236" lon="16.2344"><ele>13.0</ele><time>2026-05-03T16:49:58.48Z</time></trkpt><trkpt lat="38.8120567" lon="16.234255"><ele>15.0</ele><time>2026-05-03T16:49:59.482Z</time></trkpt><trkpt lat="38.8117583" lon="16.2341133"><ele>17.0</ele><time>2026-05-03T16:50:00.482Z</time></trkpt><trkpt lat="38.81146" lon="16.2339783"><ele>16.5</ele><time>2026-05-03T16:50:01.48Z</time></trkpt><trkpt lat="38.8111583" lon="16.2338467"><ele>16.0</ele><time>2026-05-03T16:50:02.481Z</time></trkpt><trkpt lat="38.81085" lon="16.2337083"><ele>16.0</ele><time>2026-05-03T16:50:03.48Z</time></trkpt><trkpt lat="38.81054" lon="16.233565"><ele>16.0</ele><time>2026-05-03T16:50:04.482Z</time></trkpt><trkpt lat="38.8102267" lon="16.2334217"><ele>16.0</ele><time>2026-05-03T16:50:05.48Z</time></trkpt><trkpt lat="38.8099117" lon="16.233275"><ele>16.0</ele><time>2026-05-03T16:50:06.481Z</time></trkpt><trkpt lat="38.8095917" lon="16.2331283"><ele>14.5</ele><time>2026-05-03T16:50:07.481Z</time></trkpt><trkpt lat="38.8092717" lon="16.2329817"><ele>13.0</ele><time>2026-05-03T16:50:08.482Z</time></trkpt><trkpt lat="38.80895" lon="16.232835"><ele>13.0</ele><time>2026-05-03T16:50:09.48Z</time></trkpt><trkpt lat="38.8086333" lon="16.2326917"><ele>13.0</ele><time>2026-05-03T16:50:10.481Z</time></trkpt><trkpt lat="38.8083167" lon="16.232545"><ele>12.0</ele><time>2026-05-03T16:50:11.48Z</time></trkpt><trkpt lat="38.808" lon="16.2324017"><ele>11.0</ele><time>2026-05-03T16:50:12.481Z</time></trkpt><trkpt lat="38.8076833" lon="16.2322567"><ele>12.5</ele><time>2026-05-03T16:50:13.482Z</time></trkpt><trkpt lat="38.807365" lon="16.2321117"><ele>14.0</ele><time>2026-05-03T16:50:14.482Z</time></trkpt><trkpt lat="38.8070483" lon="16.2319683"><ele>16.5</ele><time>2026-05-03T16:50:15.481Z</time></trkpt><trkpt lat="38.8067267" lon="16.2318217"><ele>19.0</ele><time>2026-05-03T16:50:16.482Z</time></trkpt><trkpt lat="38.806405" lon="16.231675"><ele>19.0</ele><time>2026-05-03T16:50:17.481Z</time></trkpt><trkpt lat="38.8060867" lon="16.2315283"><ele>19.0</ele><time>2026-05-03T16:50:18.48Z</time></trkpt><trkpt lat="38.8057683" lon="16.2313817"><ele>18.5</ele><time>2026-05-03T16:50:19.482Z</time></trkpt><trkpt lat="38.8054517" lon="16.2312383"><ele>18.0</ele><time>2026-05-03T16:50:20.482Z</time></trkpt><trkpt lat="38.8051333" lon="16.2310933"><ele>18.0</ele><time>2026-05-03T16:50:21.48Z</time></trkpt><trkpt lat="38.8048133" lon="16.2309483"><ele>18.0</ele><time>2026-05-03T16:50:22.48Z</time></trkpt><trkpt lat="38.8044917" lon="16.2308017"><ele>18.5</ele><time>2026-05-03T16:50:23.481Z</time></trkpt><trkpt lat="38.8041683" lon="16.230655"><ele>19.0</ele><time>2026-05-03T16:50:24.481Z</time></trkpt><trkpt lat="38.8038417" lon="16.2305067"><ele>17.5</ele><time>2026-05-03T16:50:25.481Z</time></trkpt><trkpt lat="38.803515" lon="16.23036"><ele>16.0</ele><time>2026-05-03T16:50:26.482Z</time></trkpt><trkpt lat="38.80319" lon="16.2302117"><ele>16.0</ele><time>2026-05-03T16:50:27.482Z</time></trkpt><trkpt lat="38.8028667" lon="16.2300617"><ele>16.0</ele><time>2026-05-03T16:50:28.481Z</time></trkpt><trkpt lat="38.8025433" lon="16.2299133"><ele>15.0</ele><time>2026-05-03T16:50:29.481Z</time></trkpt><trkpt lat="38.8022233" lon="16.2297633"><ele>14.0</ele><time>2026-05-03T16:50:30.48Z</time></trkpt><trkpt lat="38.8019033" lon="16.2296117"><ele>15.5</ele><time>2026-05-03T16:50:31.481Z</time></trkpt><trkpt lat="38.8015833" lon="16.22946"><ele>17.0</ele><time>2026-05-03T16:50:32.481Z</time></trkpt><trkpt lat="38.8012683" lon="16.229305"><ele>17.0</ele><time>2026-05-03T16:50:33.485Z</time></trkpt><trkpt lat="38.800955" lon="16.22914"><ele>17.0</ele><time>2026-05-03T16:50:34.481Z</time></trkpt><trkpt lat="38.8006433" lon="16.2289617"><ele>17.5</ele><time>2026-05-03T16:50:35.481Z</time></trkpt><trkpt lat="38.8003333" lon="16.2287717"><ele>18.0</ele><time>2026-05-03T16:50:36.481Z</time></trkpt><trkpt lat="38.8000217" lon="16.22857"><ele>18.0</ele><time>2026-05-03T16:50:37.481Z</time></trkpt><trkpt lat="38.799725" lon="16.2283733"><ele>18.0</ele><time>2026-05-03T16:50:38.484Z</time></trkpt><trkpt lat="38.7994367" lon="16.2281333"><ele>15.5</ele><time>2026-05-03T16:50:39.481Z</time></trkpt><trkpt lat="38.799145" lon="16.2278833"><ele>13.0</ele><time>2026-05-03T16:50:40.482Z</time></trkpt><trkpt lat="38.79886" lon="16.2276267"><ele>13.0</ele><time>2026-05-03T16:50:41.48Z</time></trkpt><trkpt lat="38.7985817" lon="16.2273683"><ele>13.0</ele><time>2026-05-03T16:50:42.481Z</time></trkpt><trkpt lat="38.7983067" lon="16.227105"><ele>13.0</ele><time>2026-05-03T16:50:43.481Z</time></trkpt><trkpt lat="38.79803" lon="16.22685"><ele>13.0</ele><time>2026-05-03T16:50:44.483Z</time></trkpt><trkpt lat="38.79775" lon="16.2265967"><ele>13.0</ele><time>2026-05-03T16:50:45.48Z</time></trkpt><trkpt lat="38.7974683" lon="16.2263467"><ele>13.0</ele><time>2026-05-03T16:50:46.481Z</time></trkpt><trkpt lat="38.7971833" lon="16.2261"><ele>13.0</ele><time>2026-05-03T16:50:47.481Z</time></trkpt><trkpt lat="38.7968967" lon="16.2258617"><ele>13.0</ele><time>2026-05-03T16:50:48.481Z</time></trkpt><trkpt lat="38.7966033" lon="16.225635"><ele>12.5</ele><time>2026-05-03T16:50:49.481Z</time></trkpt><trkpt lat="38.7963033" lon="16.225415"><ele>12.0</ele><time>2026-05-03T16:50:50.482Z</time></trkpt><trkpt lat="38.7959983" lon="16.2252083"><ele>14.5</ele><time>2026-05-03T16:50:51.481Z</time></trkpt><trkpt lat="38.795685" lon="16.2250167"><ele>17.0</ele><time>2026-05-03T16:50:52.481Z</time></trkpt><trkpt lat="38.7953633" lon="16.224845"><ele>15.0</ele><time>2026-05-03T16:50:53.48Z</time></trkpt><trkpt lat="38.795035" lon="16.2246883"><ele>13.0</ele><time>2026-05-03T16:50:54.481Z</time></trkpt><trkpt lat="38.7947033" lon="16.2245483"><ele>13.0</ele><time>2026-05-03T16:50:55.48Z</time></trkpt><trkpt lat="38.7943683" lon="16.224425"><ele>13.0</ele><time>2026-05-03T16:50:56.482Z</time></trkpt><trkpt lat="38.7940267" lon="16.2243117"><ele>13.0</ele><time>2026-05-03T16:50:57.481Z</time></trkpt><trkpt lat="38.7936817" lon="16.2242133"><ele>13.0</ele><time>2026-05-03T16:50:58.481Z</time></trkpt><trkpt lat="38.793335" lon="16.2241183"><ele>13.5</ele><time>2026-05-03T16:50:59.481Z</time></trkpt><trkpt lat="38.792985" lon="16.224025"><ele>14.0</ele><time>2026-05-03T16:51:00.482Z</time></trkpt><trkpt lat="38.7926333" lon="16.223935"><ele>12.0</ele><time>2026-05-03T16:51:01.481Z</time></trkpt><trkpt lat="38.7922817" lon="16.2238383"><ele>10.0</ele><time>2026-05-03T16:51:02.481Z</time></trkpt><trkpt lat="38.791935" lon="16.22373"><ele>10.5</ele><time>2026-05-03T16:51:03.481Z</time></trkpt><trkpt lat="38.79159" lon="16.2236067"><ele>11.0</ele><time>2026-05-03T16:51:04.481Z</time></trkpt><trkpt lat="38.7912517" lon="16.2234667"><ele>10.0</ele><time>2026-05-03T16:51:05.48Z</time></trkpt><trkpt lat="38.7909217" lon="16.2233083"><ele>9.0</ele><time>2026-05-03T16:51:06.482Z</time></trkpt><trkpt lat="38.7905983" lon="16.2231267"><ele>9.0</ele><time>2026-05-03T16:51:07.481Z</time></trkpt><trkpt lat="38.7902817" lon="16.2229267"><ele>9.0</ele><time>2026-05-03T16:51:08.482Z</time></trkpt><trkpt lat="38.78997" lon="16.222715"><ele>10.0</ele><time>2026-05-03T16:51:09.484Z</time></trkpt><trkpt lat="38.7896667" lon="16.2224867"><ele>11.0</ele><time>2026-05-03T16:51:10.48Z</time></trkpt><trkpt lat="38.7893683" lon="16.2222467"><ele>11.0</ele><time>2026-05-03T16:51:11.482Z</time></trkpt><trkpt lat="38.78907" lon="16.2220017"><ele>11.0</ele><time>2026-05-03T16:51:12.481Z</time></trkpt><trkpt lat="38.7887717" lon="16.2217517"><ele>9.5</ele><time>2026-05-03T16:51:13.481Z</time></trkpt><trkpt lat="38.7884767" lon="16.2215"><ele>8.0</ele><time>2026-05-03T16:51:14.482Z</time></trkpt><trkpt lat="38.788185" lon="16.22125"><ele>8.0</ele><time>2026-05-03T16:51:15.481Z</time></trkpt><trkpt lat="38.7878933" lon="16.2210033"><ele>8.0</ele><time>2026-05-03T16:51:16.48Z</time></trkpt><trkpt lat="38.7876" lon="16.2207617"><ele>8.0</ele><time>2026-05-03T16:51:17.482Z</time></trkpt><trkpt lat="38.7873033" lon="16.2205167"><ele>8.0</ele><time>2026-05-03T16:51:18.481Z</time></trkpt><trkpt lat="38.7870067" lon="16.2202733"><ele>8.0</ele><time>2026-05-03T16:51:19.48Z</time></trkpt><trkpt lat="38.7867083" lon="16.2200333"><ele>8.0</ele><time>2026-05-03T16:51:20.482Z</time></trkpt><trkpt lat="38.7864053" lon="16.219802"><ele>8.0</ele><time>2026-05-03T16:51:21.481Z</time></trkpt><trkpt lat="38.7860959" lon="16.2195741"><ele>8.0</ele><time>2026-05-03T16:51:22.481Z</time></trkpt><trkpt lat="38.7857794" lon="16.2193565"><ele>9.5</ele><time>2026-05-03T16:51:23.481Z</time></trkpt><trkpt lat="38.7854573" lon="16.2191546"><ele>11.0</ele><time>2026-05-03T16:51:24.481Z</time></trkpt><trkpt lat="38.7851279" lon="16.2189687"><ele>8.0</ele><time>2026-05-03T16:51:25.482Z</time></trkpt><trkpt lat="38.7847921" lon="16.2188071"><ele>5.0</ele><time>2026-05-03T16:51:26.481Z</time></trkpt><trkpt lat="38.7844498" lon="16.2186611"><ele>6.0</ele><time>2026-05-03T16:51:27.48Z</time></trkpt><trkpt lat="38.7841026" lon="16.218523"><ele>7.0</ele><time>2026-05-03T16:51:28.482Z</time></trkpt><trkpt lat="38.7837526" lon="16.2183899"><ele>7.5</ele><time>2026-05-03T16:51:29.48Z</time></trkpt><trkpt lat="38.7833994" lon="16.2182579"><ele>8.0</ele><time>2026-05-03T16:51:30.482Z</time></trkpt><trkpt lat="38.7830443" lon="16.218128"><ele>8.0</ele><time>2026-05-03T16:51:31.482Z</time></trkpt><trkpt lat="38.7826878" lon="16.2179933"><ele>8.0</ele><time>2026-05-03T16:51:32.482Z</time></trkpt><trkpt lat="38.7823308" lon="16.2178515"><ele>8.0</ele><time>2026-05-03T16:51:33.482Z</time></trkpt><trkpt lat="38.7819712" lon="16.2177082"><ele>8.0</ele><time>2026-05-03T16:51:34.481Z</time></trkpt><trkpt lat="38.7816095" lon="16.2175646"><ele>7.5</ele><time>2026-05-03T16:51:35.482Z</time></trkpt><trkpt lat="38.7812471" lon="16.2174222"><ele>7.0</ele><time>2026-05-03T16:51:36.481Z</time></trkpt><trkpt lat="38.7808862" lon="16.2172827"><ele>6.5</ele><time>2026-05-03T16:51:37.481Z</time></trkpt><trkpt lat="38.7805247" lon="16.217143"><ele>6.0</ele><time>2026-05-03T16:51:38.482Z</time></trkpt><trkpt lat="38.7801648" lon="16.2170055"><ele>6.0</ele><time>2026-05-03T16:51:39.48Z</time></trkpt><trkpt lat="38.7798083" lon="16.216869"><ele>6.0</ele><time>2026-05-03T16:51:40.48Z</time></trkpt><trkpt lat="38.7794557" lon="16.2167233"><ele>6.5</ele><time>2026-05-03T16:51:41.482Z</time></trkpt><trkpt lat="38.7791056" lon="16.2165767"><ele>7.0</ele><time>2026-05-03T16:51:42.481Z</time></trkpt><trkpt lat="38.778757" lon="16.2164296"><ele>7.0</ele><time>2026-05-03T16:51:43.481Z</time></trkpt><trkpt lat="38.7784099" lon="16.216285"><ele>7.0</ele><time>2026-05-03T16:51:44.482Z</time></trkpt><trkpt lat="38.7780632" lon="16.2161428"><ele>7.0</ele><time>2026-05-03T16:51:45.481Z</time></trkpt><trkpt lat="38.7777188" lon="16.2160008"><ele>7.0</ele><time>2026-05-03T16:51:46.481Z</time></trkpt><trkpt lat="38.7773732" lon="16.2158539"><ele>6.5</ele><time>2026-05-03T16:51:47.481Z</time></trkpt><trkpt lat="38.7770281" lon="16.2157089"><ele>6.0</ele><time>2026-05-03T16:51:48.48Z</time></trkpt><trkpt lat="38.7766806" lon="16.2155677"><ele>5.5</ele><time>2026-05-03T16:51:49.482Z</time></trkpt><trkpt lat="38.7763347" lon="16.2154303"><ele>5.0</ele><time>2026-05-03T16:51:50.482Z</time></trkpt><trkpt lat="38.7759909" lon="16.2152926"><ele>5.0</ele><time>2026-05-03T16:51:51.482Z</time></trkpt><trkpt lat="38.7756507" lon="16.2151572"><ele>5.0</ele><time>2026-05-03T16:51:52.48Z</time></trkpt><trkpt lat="38.7753082" lon="16.2150209"><ele>5.0</ele><time>2026-05-03T16:51:53.483Z</time></trkpt><trkpt lat="38.7749683" lon="16.2148833"><ele>5.0</ele><time>2026-05-03T16:51:54.481Z</time></trkpt><trkpt lat="38.7746283" lon="16.2147483"><ele>6.5</ele><time>2026-05-03T16:51:55.482Z</time></trkpt><trkpt lat="38.7742933" lon="16.2146133"><ele>8.0</ele><time>2026-05-03T16:51:56.483Z</time></trkpt><trkpt lat="38.7739617" lon="16.2144833"><ele>8.0</ele><time>2026-05-03T16:51:57.48Z</time></trkpt><trkpt lat="38.773635" lon="16.214355"><ele>8.0</ele><time>2026-05-03T16:51:58.481Z</time></trkpt><trkpt lat="38.7733133" lon="16.214225"><ele>8.5</ele><time>2026-05-03T16:51:59.481Z</time></trkpt><trkpt lat="38.7730033" lon="16.2140767"><ele>9.0</ele><time>2026-05-03T16:52:00.482Z</time></trkpt><trkpt lat="38.772705" lon="16.2138983"><ele>8.5</ele><time>2026-05-03T16:52:01.482Z</time></trkpt><trkpt lat="38.7724217" lon="16.2136867"><ele>8.0</ele><time>2026-05-03T16:52:02.481Z</time></trkpt><trkpt lat="38.772155" lon="16.21344"><ele>8.0</ele><time>2026-05-03T16:52:03.48Z</time></trkpt><trkpt lat="38.7719017" lon="16.21317"><ele>8.0</ele><time>2026-05-03T16:52:04.481Z</time></trkpt><trkpt lat="38.7716617" lon="16.2128767"><ele>8.0</ele><time>2026-05-03T16:52:05.482Z</time></trkpt><trkpt lat="38.7714383" lon="16.21256"><ele>8.0</ele><time>2026-05-03T16:52:06.482Z</time></trkpt><trkpt lat="38.77123" lon="16.2122167"><ele>8.0</ele><time>2026-05-03T16:52:07.481Z</time></trkpt><trkpt lat="38.7710367" lon="16.211855"><ele>8.0</ele><time>2026-05-03T16:52:08.482Z</time></trkpt><trkpt lat="38.7708483" lon="16.211485"><ele>8.5</ele><time>2026-05-03T16:52:09.482Z</time></trkpt><trkpt lat="38.7706583" lon="16.2111183"><ele>9.0</ele><time>2026-05-03T16:52:10.482Z</time></trkpt><trkpt lat="38.7704667" lon="16.2107483"><ele>9.0</ele><time>2026-05-03T16:52:11.482Z</time></trkpt><trkpt lat="38.770275" lon="16.2103783"><ele>9.0</ele><time>2026-05-03T16:52:12.481Z</time></trkpt><trkpt lat="38.7700833" lon="16.2100117"><ele>10.0</ele><time>2026-05-03T16:52:13.482Z</time></trkpt><trkpt lat="38.769885" lon="16.20965"><ele>11.0</ele><time>2026-05-03T16:52:14.482Z</time></trkpt><trkpt lat="38.76968" lon="16.2093"><ele>9.5</ele><time>2026-05-03T16:52:15.482Z</time></trkpt><trkpt lat="38.7694667" lon="16.2089633"><ele>8.0</ele><time>2026-05-03T16:52:16.48Z</time></trkpt><trkpt lat="38.7692417" lon="16.2086417"><ele>8.0</ele><time>2026-05-03T16:52:17.48Z</time></trkpt><trkpt lat="38.7690083" lon="16.2083283"><ele>8.0</ele><time>2026-05-03T16:52:18.481Z</time></trkpt><trkpt lat="38.7687733" lon="16.2080233"><ele>8.0</ele><time>2026-05-03T16:52:19.48Z</time></trkpt><trkpt lat="38.7685333" lon="16.2077267"><ele>8.0</ele><time>2026-05-03T16:52:20.482Z</time></trkpt><trkpt lat="38.768285" lon="16.2074467"><ele>7.5</ele><time>2026-05-03T16:52:21.482Z</time></trkpt><trkpt lat="38.7680217" lon="16.2071867"><ele>7.0</ele><time>2026-05-03T16:52:22.481Z</time></trkpt><trkpt lat="38.7677467" lon="16.2069417"><ele>7.5</ele><time>2026-05-03T16:52:23.481Z</time></trkpt><trkpt lat="38.767465" lon="16.2067067"><ele>8.0</ele><time>2026-05-03T16:52:24.482Z</time></trkpt><trkpt lat="38.7671783" lon="16.2064717"><ele>8.0</ele><time>2026-05-03T16:52:25.481Z</time></trkpt><trkpt lat="38.76689" lon="16.206235"><ele>8.0</ele><time>2026-05-03T16:52:26.482Z</time></trkpt><trkpt lat="38.766605" lon="16.2059983"><ele>17.0</ele><time>2026-05-03T16:52:27.48Z</time></trkpt><trkpt lat="38.7663183" lon="16.2057683"><ele>26.0</ele><time>2026-05-03T16:52:28.482Z</time></trkpt><trkpt lat="38.7660278" lon="16.2055501"><ele>26.0</ele><time>2026-05-03T16:52:29.481Z</time></trkpt><trkpt lat="38.7657284" lon="16.2053492"><ele>26.0</ele><time>2026-05-03T16:52:30.483Z</time></trkpt><trkpt lat="38.7654205" lon="16.2051641"><ele>22.5</ele><time>2026-05-03T16:52:31.481Z</time></trkpt><trkpt lat="38.7651093" lon="16.2049873"><ele>19.0</ele><time>2026-05-03T16:52:32.481Z</time></trkpt><trkpt lat="38.7647986" lon="16.2048148"><ele>19.0</ele><time>2026-05-03T16:52:33.48Z</time></trkpt><trkpt lat="38.7644879" lon="16.204647"><ele>19.0</ele><time>2026-05-03T16:52:34.48Z</time></trkpt><trkpt lat="38.764179" lon="16.2044743"><ele>29.5</ele><time>2026-05-03T16:52:35.481Z</time></trkpt><trkpt lat="38.763879" lon="16.2042971"><ele>40.0</ele><time>2026-05-03T16:52:36.48Z</time></trkpt><trkpt lat="38.7635956" lon="16.2041038"><ele>39.0</ele><time>2026-05-03T16:52:37.481Z</time></trkpt><trkpt lat="38.7633326" lon="16.2038795"><ele>38.0</ele><time>2026-05-03T16:52:38.482Z</time></trkpt><trkpt lat="38.7630838" lon="16.203631"><ele>38.0</ele><time>2026-05-03T16:52:39.48Z</time></trkpt><trkpt lat="38.7628396" lon="16.2033841"><ele>38.0</ele><time>2026-05-03T16:52:40.481Z</time></trkpt><trkpt lat="38.7625895" lon="16.2031567"><ele>34.5</ele><time>2026-05-03T16:52:41.482Z</time></trkpt><trkpt lat="38.7623261" lon="16.2029642"><ele>31.0</ele><time>2026-05-03T16:52:42.48Z</time></trkpt><trkpt lat="38.7620467" lon="16.2028059"><ele>42.5</ele><time>2026-05-03T16:52:43.482Z</time></trkpt><trkpt lat="38.7617542" lon="16.2026786"><ele>54.0</ele><time>2026-05-03T16:52:44.482Z</time></trkpt><trkpt lat="38.7614507" lon="16.2025731"><ele>54.0</ele><time>2026-05-03T16:52:45.481Z</time></trkpt><trkpt lat="38.7611417" lon="16.2024776"><ele>54.0</ele><time>2026-05-03T16:52:46.481Z</time></trkpt><trkpt lat="38.7608382" lon="16.2023832"><ele>47.0</ele><time>2026-05-03T16:52:47.481Z</time></trkpt><trkpt lat="38.7605379" lon="16.2022839"><ele>40.0</ele><time>2026-05-03T16:52:48.483Z</time></trkpt><trkpt lat="38.7602396" lon="16.2021844"><ele>44.0</ele><time>2026-05-03T16:52:49.484Z</time></trkpt><trkpt lat="38.7599469" lon="16.2020786"><ele>48.0</ele><time>2026-05-03T16:52:50.484Z</time></trkpt><trkpt lat="38.7596589" lon="16.2019658"><ele>48.0</ele><time>2026-05-03T16:52:51.482Z</time></trkpt><trkpt lat="38.7593751" lon="16.2018424"><ele>48.0</ele><time>2026-05-03T16:52:52.484Z</time></trkpt><trkpt lat="38.759091" lon="16.2017065"><ele>48.5</ele><time>2026-05-03T16:52:53.483Z</time></trkpt><trkpt lat="38.7588078" lon="16.2015641"><ele>49.0</ele><time>2026-05-03T16:52:54.483Z</time></trkpt><trkpt lat="38.7585493" lon="16.2013925"><ele>59.0</ele><time>2026-05-03T16:52:55.483Z</time></trkpt><trkpt lat="38.7582853" lon="16.2012048"><ele>69.0</ele><time>2026-05-03T16:52:56.484Z</time></trkpt><trkpt lat="38.7580235" lon="16.2010049"><ele>69.0</ele><time>2026-05-03T16:52:57.481Z</time></trkpt><trkpt lat="38.7577649" lon="16.2008012"><ele>69.0</ele><time>2026-05-03T16:52:58.482Z</time></trkpt><trkpt lat="38.7575135" lon="16.2005898"><ele>69.0</ele><time>2026-05-03T16:52:59.481Z</time></trkpt><trkpt lat="38.7572663" lon="16.2003751"><ele>69.0</ele><time>2026-05-03T16:53:00.48Z</time></trkpt><trkpt lat="38.7570216" lon="16.2001653"><ele>69.0</ele><time>2026-05-03T16:53:01.482Z</time></trkpt><trkpt lat="38.7567767" lon="16.199965"><ele>69.0</ele><time>2026-05-03T16:53:02.481Z</time></trkpt><trkpt lat="38.7565283" lon="16.1997733"><ele>69.0</ele><time>2026-05-03T16:53:03.481Z</time></trkpt><trkpt lat="38.75628" lon="16.199595"><ele>69.0</ele><time>2026-05-03T16:53:04.481Z</time></trkpt><trkpt lat="38.7560133" lon="16.1993717"><ele>77.5</ele><time>2026-05-03T16:53:05.48Z</time></trkpt><trkpt lat="38.755775" lon="16.199175"><ele>86.0</ele><time>2026-05-03T16:53:06.482Z</time></trkpt><trkpt lat="38.75554" lon="16.1990017"><ele>86.5</ele><time>2026-05-03T16:53:07.48Z</time></trkpt><trkpt lat="38.75533" lon="16.1988167"><ele>87.0</ele><time>2026-05-03T16:53:08.482Z</time></trkpt><trkpt lat="38.75513" lon="16.1986133"><ele>87.0</ele><time>2026-05-03T16:53:09.481Z</time></trkpt><trkpt lat="38.7549317" lon="16.1983783"><ele>87.0</ele><time>2026-05-03T16:53:10.48Z</time></trkpt><trkpt lat="38.7547483" lon="16.1981233"><ele>81.5</ele><time>2026-05-03T16:53:11.481Z</time></trkpt><trkpt lat="38.7545783" lon="16.1978517"><ele>76.0</ele><time>2026-05-03T16:53:12.48Z</time></trkpt><trkpt lat="38.754425" lon="16.1975517"><ele>87.5</ele><time>2026-05-03T16:53:13.481Z</time></trkpt><trkpt lat="38.7542917" lon="16.19723"><ele>99.0</ele><time>2026-05-03T16:53:14.481Z</time></trkpt><trkpt lat="38.7541667" lon="16.19691"><ele>99.0</ele><time>2026-05-03T16:53:15.481Z</time></trkpt><trkpt lat="38.7540433" lon="16.1965867"><ele>99.0</ele><time>2026-05-03T16:53:16.481Z</time></trkpt><trkpt lat="38.7539133" lon="16.1962667"><ele>92.5</ele><time>2026-05-03T16:53:17.482Z</time></trkpt><trkpt lat="38.7537833" lon="16.1959483"><ele>86.0</ele><time>2026-05-03T16:53:18.482Z</time></trkpt><trkpt lat="38.75365" lon="16.1956283"><ele>95.5</ele><time>2026-05-03T16:53:19.481Z</time></trkpt><trkpt lat="38.7535183" lon="16.19531"><ele>105.0</ele><time>2026-05-03T16:53:20.482Z</time></trkpt><trkpt lat="38.7533867" lon="16.194995"><ele>99.5</ele><time>2026-05-03T16:53:21.481Z</time></trkpt><trkpt lat="38.753245" lon="16.19469"><ele>94.0</ele><time>2026-05-03T16:53:22.481Z</time></trkpt><trkpt lat="38.7530867" lon="16.1944067"><ele>94.0</ele><time>2026-05-03T16:53:23.482Z</time></trkpt><trkpt lat="38.7529083" lon="16.194145"><ele>94.0</ele><time>2026-05-03T16:53:24.482Z</time></trkpt><trkpt lat="38.7527133" lon="16.1939017"><ele>103.0</ele><time>2026-05-03T16:53:25.48Z</time></trkpt><trkpt lat="38.7525" lon="16.19368"><ele>112.0</ele><time>2026-05-03T16:53:26.482Z</time></trkpt><trkpt lat="38.752275" lon="16.1934833"><ele>112.0</ele><time>2026-05-03T16:53:27.481Z</time></trkpt><trkpt lat="38.7520333" lon="16.1933067"><ele>112.0</ele><time>2026-05-03T16:53:28.481Z</time></trkpt><trkpt lat="38.7517867" lon="16.1931517"><ele>110.0</ele><time>2026-05-03T16:53:29.481Z</time></trkpt><trkpt lat="38.751535" lon="16.19301"><ele>108.0</ele><time>2026-05-03T16:53:30.482Z</time></trkpt><trkpt lat="38.7512833" lon="16.19287"><ele>113.0</ele><time>2026-05-03T16:53:31.481Z</time></trkpt><trkpt lat="38.751035" lon="16.192725"><ele>118.0</ele><time>2026-05-03T16:53:32.483Z</time></trkpt><trkpt lat="38.7507883" lon="16.1925717"><ele>118.0</ele><time>2026-05-03T16:53:33.48Z</time></trkpt><trkpt lat="38.7505517" lon="16.1924033"><ele>118.0</ele><time>2026-05-03T16:53:34.481Z</time></trkpt><trkpt lat="38.7503283" lon="16.192215"><ele>118.0</ele><time>2026-05-03T16:53:35.481Z</time></trkpt><trkpt lat="38.75012" lon="16.192005"><ele>118.0</ele><time>2026-05-03T16:53:36.481Z</time></trkpt><trkpt lat="38.749925" lon="16.1917817"><ele>118.0</ele><time>2026-05-03T16:53:37.48Z</time></trkpt><trkpt lat="38.7497383" lon="16.191555"><ele>118.0</ele><time>2026-05-03T16:53:38.48Z</time></trkpt><trkpt lat="38.7495517" lon="16.1913283"><ele>121.0</ele><time>2026-05-03T16:53:39.481Z</time></trkpt><trkpt lat="38.7493667" lon="16.19111"><ele>124.0</ele><time>2026-05-03T16:53:40.481Z</time></trkpt><trkpt lat="38.7491817" lon="16.1908983"><ele>124.0</ele><time>2026-05-03T16:53:41.481Z</time></trkpt><trkpt lat="38.7490083" lon="16.1907083"><ele>124.0</ele><time>2026-05-03T16:53:42.481Z</time></trkpt><trkpt lat="38.748845" lon="16.1905417"><ele>124.0</ele><time>2026-05-03T16:53:43.48Z</time></trkpt><trkpt lat="38.7486883" lon="16.1904"><ele>125.33333333333334</ele><time>2026-05-03T16:53:44.482Z</time></trkpt><trkpt lat="38.748535" lon="16.190275"><ele>126.66666666666666</ele><time>2026-05-03T16:53:45.48Z</time></trkpt><trkpt lat="38.7483783" lon="16.1901667"><ele>128.0</ele><time>2026-05-03T16:53:46.482Z</time></trkpt><trkpt lat="38.7482133" lon="16.1900633"><ele>128.0</ele><time>2026-05-03T16:53:47.482Z</time></trkpt><trkpt lat="38.7480433" lon="16.18997"><ele>128.0</ele><time>2026-05-03T16:53:48.481Z</time></trkpt><trkpt lat="38.747865" lon="16.189885"><ele>128.0</ele><time>2026-05-03T16:53:49.482Z</time></trkpt><trkpt lat="38.7476867" lon="16.18981"><ele>128.66666666666666</ele><time>2026-05-03T16:53:50.482Z</time></trkpt><trkpt lat="38.7475033" lon="16.1897433"><ele>129.33333333333334</ele><time>2026-05-03T16:53:51.481Z</time></trkpt><trkpt lat="38.7473233" lon="16.1896817"><ele>130.0</ele><time>2026-05-03T16:53:52.482Z</time></trkpt><trkpt lat="38.7471533" lon="16.1896233"><ele>130.0</ele><time>2026-05-03T16:53:53.481Z</time></trkpt><trkpt lat="38.746985" lon="16.189565"><ele>130.0</ele><time>2026-05-03T16:53:54.483Z</time></trkpt><trkpt lat="38.7468183" lon="16.189505"><ele>130.0</ele><time>2026-05-03T16:53:55.481Z</time></trkpt><trkpt lat="38.7466517" lon="16.189445"><ele>132.33333333333334</ele><time>2026-05-03T16:53:56.482Z</time></trkpt><trkpt lat="38.746485" lon="16.1893883"><ele>134.66666666666666</ele><time>2026-05-03T16:53:57.482Z</time></trkpt><trkpt lat="38.74632" lon="16.18933"><ele>137.0</ele><time>2026-05-03T16:53:58.481Z</time></trkpt><trkpt lat="38.746155" lon="16.1892683"><ele>140.0</ele><time>2026-05-03T16:53:59.481Z</time></trkpt><trkpt lat="38.74599" lon="16.1891967"><ele>143.0</ele><time>2026-05-03T16:54:00.482Z</time></trkpt><trkpt lat="38.7458183" lon="16.189125"><ele>146.0</ele><time>2026-05-03T16:54:01.481Z</time></trkpt><trkpt lat="38.7456317" lon="16.1890517"><ele>143.66666666666666</ele><time>2026-05-03T16:54:02.482Z</time></trkpt><trkpt lat="38.7454283" lon="16.1889683"><ele>141.33333333333334</ele><time>2026-05-03T16:54:03.481Z</time></trkpt><trkpt lat="38.74521" lon="16.1888733"><ele>139.0</ele><time>2026-05-03T16:54:04.481Z</time></trkpt><trkpt lat="38.7449817" lon="16.1887617"><ele>139.0</ele><time>2026-05-03T16:54:05.481Z</time></trkpt><trkpt lat="38.7447417" lon="16.1886433"><ele>139.0</ele><time>2026-05-03T16:54:06.482Z</time></trkpt><trkpt lat="38.7444917" lon="16.1885117"><ele>142.5</ele><time>2026-05-03T16:54:07.48Z</time></trkpt><trkpt lat="38.7442333" lon="16.1883667"><ele>146.0</ele><time>2026-05-03T16:54:08.482Z</time></trkpt><trkpt lat="38.743965" lon="16.1882117"><ele>146.5</ele><time>2026-05-03T16:54:09.481Z</time></trkpt><trkpt lat="38.7436933" lon="16.1880467"><ele>147.0</ele><time>2026-05-03T16:54:10.481Z</time></trkpt><trkpt lat="38.7434167" lon="16.18787"><ele>147.0</ele><time>2026-05-03T16:54:11.481Z</time></trkpt><trkpt lat="38.743135" lon="16.18768"><ele>147.0</ele><time>2026-05-03T16:54:12.481Z</time></trkpt><trkpt lat="38.742845" lon="16.187475"><ele>145.5</ele><time>2026-05-03T16:54:13.481Z</time></trkpt><trkpt lat="38.74255" lon="16.1872633"><ele>144.0</ele><time>2026-05-03T16:54:14.482Z</time></trkpt><trkpt lat="38.7422467" lon="16.1870433"><ele>144.0</ele><time>2026-05-03T16:54:15.48Z</time></trkpt><trkpt lat="38.74194" lon="16.1868167"><ele>144.0</ele><time>2026-05-03T16:54:16.481Z</time></trkpt><trkpt lat="38.7416383" lon="16.1865917"><ele>145.0</ele><time>2026-05-03T16:54:17.481Z</time></trkpt><trkpt lat="38.741345" lon="16.1863817"><ele>146.0</ele><time>2026-05-03T16:54:18.481Z</time></trkpt><trkpt lat="38.7410617" lon="16.18618"><ele>154.0</ele><time>2026-05-03T16:54:19.481Z</time></trkpt><trkpt lat="38.740785" lon="16.1859783"><ele>162.0</ele><time>2026-05-03T16:54:20.482Z</time></trkpt><trkpt lat="38.7405183" lon="16.1857667"><ele>165.5</ele><time>2026-05-03T16:54:21.48Z</time></trkpt><trkpt lat="38.74027" lon="16.185535"><ele>169.0</ele><time>2026-05-03T16:54:22.481Z</time></trkpt><trkpt lat="38.7400383" lon="16.1852667"><ele>169.0</ele><time>2026-05-03T16:54:23.48Z</time></trkpt><trkpt lat="38.7398267" lon="16.184965"><ele>169.0</ele><time>2026-05-03T16:54:24.482Z</time></trkpt><trkpt lat="38.7396317" lon="16.1846317"><ele>171.0</ele><time>2026-05-03T16:54:25.481Z</time></trkpt><trkpt lat="38.73945" lon="16.18428"><ele>173.0</ele><time>2026-05-03T16:54:26.482Z</time></trkpt><trkpt lat="38.7392867" lon="16.1839133"><ele>173.0</ele><time>2026-05-03T16:54:27.482Z</time></trkpt><trkpt lat="38.739135" lon="16.1835417"><ele>173.0</ele><time>2026-05-03T16:54:28.482Z</time></trkpt><trkpt lat="38.738985" lon="16.183185"><ele>167.0</ele><time>2026-05-03T16:54:29.48Z</time></trkpt><trkpt lat="38.7388233" lon="16.1828467"><ele>161.0</ele><time>2026-05-03T16:54:30.482Z</time></trkpt><trkpt lat="38.73864" lon="16.1825233"><ele>166.5</ele><time>2026-05-03T16:54:31.48Z</time></trkpt><trkpt lat="38.7384317" lon="16.1822183"><ele>172.0</ele><time>2026-05-03T16:54:32.482Z</time></trkpt><trkpt lat="38.7382033" lon="16.181935"><ele>172.0</ele><time>2026-05-03T16:54:33.481Z</time></trkpt><trkpt lat="38.737955" lon="16.18167"><ele>172.0</ele><time>2026-05-03T16:54:34.481Z</time></trkpt><trkpt lat="38.7376933" lon="16.1814167"><ele>174.0</ele><time>2026-05-03T16:54:35.482Z</time></trkpt><trkpt lat="38.737425" lon="16.1811633"><ele>176.0</ele><time>2026-05-03T16:54:36.482Z</time></trkpt><trkpt lat="38.737165" lon="16.180895"><ele>179.5</ele><time>2026-05-03T16:54:37.48Z</time></trkpt><trkpt lat="38.736915" lon="16.1806067"><ele>183.0</ele><time>2026-05-03T16:54:38.482Z</time></trkpt><trkpt lat="38.73667" lon="16.1803067"><ele>183.0</ele><time>2026-05-03T16:54:39.483Z</time></trkpt><trkpt lat="38.7364367" lon="16.1799917"><ele>183.0</ele><time>2026-05-03T16:54:40.482Z</time></trkpt><trkpt lat="38.7362133" lon="16.17966"><ele>185.0</ele><time>2026-05-03T16:54:41.48Z</time></trkpt><trkpt lat="38.7360017" lon="16.1793167"><ele>187.0</ele><time>2026-05-03T16:54:42.482Z</time></trkpt><trkpt lat="38.7358" lon="16.1789567"><ele>187.0</ele><time>2026-05-03T16:54:43.48Z</time></trkpt><trkpt lat="38.7356133" lon="16.1785867"><ele>187.0</ele><time>2026-05-03T16:54:44.483Z</time></trkpt><trkpt lat="38.73544" lon="16.1782067"><ele>181.5</ele><time>2026-05-03T16:54:45.481Z</time></trkpt><trkpt lat="38.73528" lon="16.1778183"><ele>176.0</ele><time>2026-05-03T16:54:46.481Z</time></trkpt><trkpt lat="38.7351383" lon="16.17742"><ele>187.5</ele><time>2026-05-03T16:54:47.481Z</time></trkpt><trkpt lat="38.7350067" lon="16.17702"><ele>199.0</ele><time>2026-05-03T16:54:48.48Z</time></trkpt><trkpt lat="38.7348883" lon="16.17661"><ele>191.0</ele><time>2026-05-03T16:54:49.481Z</time></trkpt><trkpt lat="38.7347783" lon="16.1761983"><ele>183.0</ele><time>2026-05-03T16:54:50.483Z</time></trkpt><trkpt lat="38.7346767" lon="16.175785"><ele>174.5</ele><time>2026-05-03T16:54:51.481Z</time></trkpt><trkpt lat="38.73458" lon="16.1753683"><ele>166.0</ele><time>2026-05-03T16:54:52.481Z</time></trkpt><trkpt lat="38.73448" lon="16.1749533"><ele>186.0</ele><time>2026-05-03T16:54:53.481Z</time></trkpt><trkpt lat="38.734375" lon="16.1745417"><ele>206.0</ele><time>2026-05-03T16:54:54.481Z</time></trkpt><trkpt lat="38.73427" lon="16.1741283"><ele>196.5</ele><time>2026-05-03T16:54:55.481Z</time></trkpt><trkpt lat="38.734165" lon="16.1737167"><ele>187.0</ele><time>2026-05-03T16:54:56.481Z</time></trkpt><trkpt lat="38.734065" lon="16.1733083"><ele>181.5</ele><time>2026-05-03T16:54:57.48Z</time></trkpt><trkpt lat="38.7339667" lon="16.1729067"><ele>176.0</ele><time>2026-05-03T16:54:58.482Z</time></trkpt><trkpt lat="38.7338667" lon="16.17251"><ele>170.0</ele><time>2026-05-03T16:54:59.48Z</time></trkpt><trkpt lat="38.73376" lon="16.1721183"><ele>164.0</ele><time>2026-05-03T16:55:00.48Z</time></trkpt><trkpt lat="38.73364" lon="16.171735"><ele>172.5</ele><time>2026-05-03T16:55:01.481Z</time></trkpt><trkpt lat="38.7335067" lon="16.1713617"><ele>181.0</ele><time>2026-05-03T16:55:02.481Z</time></trkpt><trkpt lat="38.7333667" lon="16.1709917"><ele>173.0</ele><time>2026-05-03T16:55:03.48Z</time></trkpt><trkpt lat="38.7332167" lon="16.1706283"><ele>165.0</ele><time>2026-05-03T16:55:04.482Z</time></trkpt><trkpt lat="38.7330533" lon="16.1702733"><ele>165.0</ele><time>2026-05-03T16:55:05.481Z</time></trkpt><trkpt lat="38.7328767" lon="16.169925"><ele>165.0</ele><time>2026-05-03T16:55:06.482Z</time></trkpt><trkpt lat="38.7326833" lon="16.169585"><ele>166.5</ele><time>2026-05-03T16:55:07.481Z</time></trkpt><trkpt lat="38.7324783" lon="16.1692533"><ele>168.0</ele><time>2026-05-03T16:55:08.48Z</time></trkpt><trkpt lat="38.7322633" lon="16.1689283"><ele>168.0</ele><time>2026-05-03T16:55:09.481Z</time></trkpt><trkpt lat="38.7320383" lon="16.1686117"><ele>168.0</ele><time>2026-05-03T16:55:10.481Z</time></trkpt><trkpt lat="38.7318017" lon="16.1683017"><ele>177.5</ele><time>2026-05-03T16:55:11.482Z</time></trkpt><trkpt lat="38.7315517" lon="16.1680017"><ele>187.0</ele><time>2026-05-03T16:55:12.481Z</time></trkpt><trkpt lat="38.731295" lon="16.1677117"><ele>197.5</ele><time>2026-05-03T16:55:13.48Z</time></trkpt><trkpt lat="38.73103" lon="16.1674383"><ele>208.0</ele><time>2026-05-03T16:55:14.481Z</time></trkpt><trkpt lat="38.73076" lon="16.1671783"><ele>208.0</ele><time>2026-05-03T16:55:15.481Z</time></trkpt><trkpt lat="38.7304867" lon="16.1669267"><ele>208.0</ele><time>2026-05-03T16:55:16.482Z</time></trkpt><trkpt lat="38.7302133" lon="16.16668"><ele>212.0</ele><time>2026-05-03T16:55:17.481Z</time></trkpt><trkpt lat="38.7299417" lon="16.16643"><ele>216.0</ele><time>2026-05-03T16:55:18.48Z</time></trkpt><trkpt lat="38.7296683" lon="16.1661783"><ele>216.0</ele><time>2026-05-03T16:55:19.481Z</time></trkpt><trkpt lat="38.7293967" lon="16.165925"><ele>216.0</ele><time>2026-05-03T16:55:20.482Z</time></trkpt><trkpt lat="38.7291233" lon="16.1656717"><ele>219.0</ele><time>2026-05-03T16:55:21.481Z</time></trkpt><trkpt lat="38.7288483" lon="16.1654217"><ele>222.0</ele><time>2026-05-03T16:55:22.482Z</time></trkpt><trkpt lat="38.7285733" lon="16.16517"><ele>225.0</ele><time>2026-05-03T16:55:23.48Z</time></trkpt><trkpt lat="38.7283" lon="16.1649167"><ele>228.0</ele><time>2026-05-03T16:55:24.481Z</time></trkpt><trkpt lat="38.7280283" lon="16.1646617"><ele>228.0</ele><time>2026-05-03T16:55:25.481Z</time></trkpt><trkpt lat="38.727755" lon="16.1644033"><ele>228.0</ele><time>2026-05-03T16:55:26.482Z</time></trkpt><trkpt lat="38.7274783" lon="16.1641467"><ele>229.5</ele><time>2026-05-03T16:55:27.481Z</time></trkpt><trkpt lat="38.7271983" lon="16.1638933"><ele>231.0</ele><time>2026-05-03T16:55:28.481Z</time></trkpt><trkpt lat="38.7269183" lon="16.1636383"><ele>229.5</ele><time>2026-05-03T16:55:29.48Z</time></trkpt><trkpt lat="38.726645" lon="16.1633783"><ele>228.0</ele><time>2026-05-03T16:55:30.481Z</time></trkpt><trkpt lat="38.72637" lon="16.1631217"><ele>228.0</ele><time>2026-05-03T16:55:31.48Z</time></trkpt><trkpt lat="38.7260967" lon="16.1628633"><ele>228.0</ele><time>2026-05-03T16:55:32.481Z</time></trkpt><trkpt lat="38.725825" lon="16.1626033"><ele>228.0</ele><time>2026-05-03T16:55:33.48Z</time></trkpt><trkpt lat="38.7255483" lon="16.1623467"><ele>228.0</ele><time>2026-05-03T16:55:34.481Z</time></trkpt><trkpt lat="38.72527" lon="16.1620917"><ele>246.5</ele><time>2026-05-03T16:55:35.481Z</time></trkpt><trkpt lat="38.72499" lon="16.1618367"><ele>265.0</ele><time>2026-05-03T16:55:36.48Z</time></trkpt><trkpt lat="38.72471" lon="16.1615833"><ele>268.5</ele><time>2026-05-03T16:55:37.482Z</time></trkpt><trkpt lat="38.7244333" lon="16.16133"><ele>272.0</ele><time>2026-05-03T16:55:38.481Z</time></trkpt><trkpt lat="38.7241583" lon="16.1610767"><ele>272.0</ele><time>2026-05-03T16:55:39.48Z</time></trkpt><trkpt lat="38.7238817" lon="16.1608317"><ele>272.0</ele><time>2026-05-03T16:55:40.48Z</time></trkpt><trkpt lat="38.7236033" lon="16.1605917"><ele>273.5</ele><time>2026-05-03T16:55:41.48Z</time></trkpt><trkpt lat="38.7233267" lon="16.1603533"><ele>275.0</ele><time>2026-05-03T16:55:42.48Z</time></trkpt><trkpt lat="38.7230533" lon="16.1601117"><ele>275.0</ele><time>2026-05-03T16:55:43.48Z</time></trkpt><trkpt lat="38.722785" lon="16.1598717"><ele>275.0</ele><time>2026-05-03T16:55:44.481Z</time></trkpt><trkpt lat="38.72252" lon="16.159625"><ele>276.0</ele><time>2026-05-03T16:55:45.481Z</time></trkpt><trkpt lat="38.722265" lon="16.1593633"><ele>277.0</ele><time>2026-05-03T16:55:46.48Z</time></trkpt><trkpt lat="38.722015" lon="16.1590967"><ele>281.0</ele><time>2026-05-03T16:55:47.48Z</time></trkpt><trkpt lat="38.7217717" lon="16.158815"><ele>285.0</ele><time>2026-05-03T16:55:48.48Z</time></trkpt><trkpt lat="38.721535" lon="16.15853"><ele>285.0</ele><time>2026-05-03T16:55:49.48Z</time></trkpt><trkpt lat="38.7212983" lon="16.1582383"><ele>285.0</ele><time>2026-05-03T16:55:50.48Z</time></trkpt><trkpt lat="38.721065" lon="16.1579433"><ele>291.5</ele><time>2026-05-03T16:55:51.481Z</time></trkpt><trkpt lat="38.7208333" lon="16.15765"><ele>298.0</ele><time>2026-05-03T16:55:52.481Z</time></trkpt><trkpt lat="38.7206" lon="16.1573533"><ele>306.0</ele><time>2026-05-03T16:55:53.481Z</time></trkpt><trkpt lat="38.7203683" lon="16.1570583"><ele>314.0</ele><time>2026-05-03T16:55:54.48Z</time></trkpt><trkpt lat="38.7201367" lon="16.156765"><ele>305.0</ele><time>2026-05-03T16:55:55.48Z</time></trkpt><trkpt lat="38.7199083" lon="16.1564783"><ele>296.0</ele><time>2026-05-03T16:55:56.482Z</time></trkpt><trkpt lat="38.7196833" lon="16.1561967"><ele>296.0</ele><time>2026-05-03T16:55:57.481Z</time></trkpt><trkpt lat="38.7194533" lon="16.1559217"><ele>296.0</ele><time>2026-05-03T16:55:58.482Z</time></trkpt><trkpt lat="38.7192117" lon="16.155665"><ele>294.0</ele><time>2026-05-03T16:55:59.48Z</time></trkpt><trkpt lat="38.7189583" lon="16.155435"><ele>292.0</ele><time>2026-05-03T16:56:00.481Z</time></trkpt><trkpt lat="38.7186867" lon="16.1552483"><ele>301.0</ele><time>2026-05-03T16:56:01.481Z</time></trkpt><trkpt lat="38.7184017" lon="16.1550883"><ele>310.0</ele><time>2026-05-03T16:56:02.481Z</time></trkpt><trkpt lat="38.718105" lon="16.1549517"><ele>300.0</ele><time>2026-05-03T16:56:03.481Z</time></trkpt><trkpt lat="38.7177967" lon="16.15484"><ele>290.0</ele><time>2026-05-03T16:56:04.481Z</time></trkpt><trkpt lat="38.7174783" lon="16.1547533"><ele>290.0</ele><time>2026-05-03T16:56:05.48Z</time></trkpt><trkpt lat="38.7171517" lon="16.1546833"><ele>290.0</ele><time>2026-05-03T16:56:06.48Z</time></trkpt><trkpt lat="38.7168267" lon="16.1546083"><ele>298.0</ele><time>2026-05-03T16:56:07.481Z</time></trkpt><trkpt lat="38.7164983" lon="16.1545317"><ele>306.0</ele><time>2026-05-03T16:56:08.482Z</time></trkpt><trkpt lat="38.7161683" lon="16.154455"><ele>312.5</ele><time>2026-05-03T16:56:09.481Z</time></trkpt><trkpt lat="38.7158383" lon="16.1543767"><ele>319.0</ele><time>2026-05-03T16:56:10.48Z</time></trkpt><trkpt lat="38.7155083" lon="16.1543033"><ele>323.5</ele><time>2026-05-03T16:56:11.481Z</time></trkpt><trkpt lat="38.71518" lon="16.1542317"><ele>328.0</ele><time>2026-05-03T16:56:12.483Z</time></trkpt><trkpt lat="38.714855" lon="16.1541533"><ele>328.0</ele><time>2026-05-03T16:56:13.481Z</time></trkpt><trkpt lat="38.7145283" lon="16.1540783"><ele>328.0</ele><time>2026-05-03T16:56:14.482Z</time></trkpt><trkpt lat="38.7142033" lon="16.1540067"><ele>326.0</ele><time>2026-05-03T16:56:15.48Z</time></trkpt><trkpt lat="38.7138783" lon="16.15394"><ele>324.0</ele><time>2026-05-03T16:56:16.481Z</time></trkpt><trkpt lat="38.71355" lon="16.1538867"><ele>328.0</ele><time>2026-05-03T16:56:17.481Z</time></trkpt><trkpt lat="38.7132217" lon="16.1538417"><ele>332.0</ele><time>2026-05-03T16:56:18.481Z</time></trkpt><trkpt lat="38.7128933" lon="16.1538083"><ele>337.0</ele><time>2026-05-03T16:56:19.48Z</time></trkpt><trkpt lat="38.712565" lon="16.1537817"><ele>342.0</ele><time>2026-05-03T16:56:20.481Z</time></trkpt><trkpt lat="38.7122367" lon="16.1537633"><ele>351.5</ele><time>2026-05-03T16:56:21.481Z</time></trkpt><trkpt lat="38.7119067" lon="16.1537533"><ele>361.0</ele><time>2026-05-03T16:56:22.481Z</time></trkpt><trkpt lat="38.7115783" lon="16.153745"><ele>361.0</ele><time>2026-05-03T16:56:23.48Z</time></trkpt><trkpt lat="38.711245" lon="16.1537367"><ele>361.0</ele><time>2026-05-03T16:56:24.481Z</time></trkpt><trkpt lat="38.7109117" lon="16.15373"><ele>363.5</ele><time>2026-05-03T16:56:25.481Z</time></trkpt><trkpt lat="38.7105767" lon="16.1537333"><ele>366.0</ele><time>2026-05-03T16:56:26.481Z</time></trkpt><trkpt lat="38.7102433" lon="16.1537367"><ele>364.0</ele><time>2026-05-03T16:56:27.482Z</time></trkpt><trkpt lat="38.7099083" lon="16.153735"><ele>362.0</ele><time>2026-05-03T16:56:28.48Z</time></trkpt><trkpt lat="38.7095733" lon="16.1537333"><ele>362.5</ele><time>2026-05-03T16:56:29.481Z</time></trkpt><trkpt lat="38.7092417" lon="16.15373"><ele>363.0</ele><time>2026-05-03T16:56:30.481Z</time></trkpt><trkpt lat="38.708915" lon="16.1537317"><ele>363.0</ele><time>2026-05-03T16:56:31.481Z</time></trkpt><trkpt lat="38.7085883" lon="16.1537317"><ele>363.0</ele><time>2026-05-03T16:56:32.481Z</time></trkpt><trkpt lat="38.7082617" lon="16.1537317"><ele>364.5</ele><time>2026-05-03T16:56:33.481Z</time></trkpt><trkpt lat="38.7079333" lon="16.153735"><ele>366.0</ele><time>2026-05-03T16:56:34.482Z</time></trkpt><trkpt lat="38.7076017" lon="16.153745"><ele>371.0</ele><time>2026-05-03T16:56:35.482Z</time></trkpt><trkpt lat="38.7072667" lon="16.1537517"><ele>376.0</ele><time>2026-05-03T16:56:36.481Z</time></trkpt><trkpt lat="38.7069317" lon="16.1537583"><ele>376.0</ele><time>2026-05-03T16:56:37.481Z</time></trkpt><trkpt lat="38.7065967" lon="16.1537583"><ele>376.0</ele><time>2026-05-03T16:56:38.481Z</time></trkpt><trkpt lat="38.7062633" lon="16.1537617"><ele>374.0</ele><time>2026-05-03T16:56:39.481Z</time></trkpt><trkpt lat="38.7059317" lon="16.153765"><ele>372.0</ele><time>2026-05-03T16:56:40.482Z</time></trkpt><trkpt lat="38.7056017" lon="16.1537717"><ele>372.0</ele><time>2026-05-03T16:56:41.482Z</time></trkpt><trkpt lat="38.7052717" lon="16.1537783"><ele>372.0</ele><time>2026-05-03T16:56:42.482Z</time></trkpt><trkpt lat="38.704945" lon="16.1537967"><ele>370.5</ele><time>2026-05-03T16:56:43.481Z</time></trkpt><trkpt lat="38.7046167" lon="16.1538317"><ele>369.0</ele><time>2026-05-03T16:56:44.482Z</time></trkpt><trkpt lat="38.704295" lon="16.153895"><ele>369.0</ele><time>2026-05-03T16:56:45.481Z</time></trkpt><trkpt lat="38.70398" lon="16.1539867"><ele>369.0</ele><time>2026-05-03T16:56:46.48Z</time></trkpt><trkpt lat="38.70367" lon="16.1541"><ele>363.5</ele><time>2026-05-03T16:56:47.48Z</time></trkpt><trkpt lat="38.703365" lon="16.1542283"><ele>358.0</ele><time>2026-05-03T16:56:48.481Z</time></trkpt><trkpt lat="38.7030617" lon="16.1543767"><ele>358.0</ele><time>2026-05-03T16:56:49.481Z</time></trkpt><trkpt lat="38.7027683" lon="16.1545417"><ele>358.0</ele><time>2026-05-03T16:56:50.48Z</time></trkpt><trkpt lat="38.7024783" lon="16.154725"><ele>351.5</ele><time>2026-05-03T16:56:51.481Z</time></trkpt><trkpt lat="38.70219" lon="16.1549067"><ele>345.0</ele><time>2026-05-03T16:56:52.482Z</time></trkpt><trkpt lat="38.7019017" lon="16.1550783"><ele>343.5</ele><time>2026-05-03T16:56:53.481Z</time></trkpt><trkpt lat="38.70161" lon="16.15523"><ele>342.0</ele><time>2026-05-03T16:56:54.48Z</time></trkpt><trkpt lat="38.701305" lon="16.1553517"><ele>344.5</ele><time>2026-05-03T16:56:55.481Z</time></trkpt><trkpt lat="38.7009933" lon="16.155445"><ele>347.0</ele><time>2026-05-03T16:56:56.482Z</time></trkpt><trkpt lat="38.7006717" lon="16.155515"><ele>347.0</ele><time>2026-05-03T16:56:57.482Z</time></trkpt><trkpt lat="38.7003483" lon="16.1555633"><ele>347.0</ele><time>2026-05-03T16:56:58.481Z</time></trkpt><trkpt lat="38.700025" lon="16.1555833"><ele>344.5</ele><time>2026-05-03T16:56:59.481Z</time></trkpt><trkpt lat="38.699705" lon="16.1555733"><ele>342.0</ele><time>2026-05-03T16:57:00.48Z</time></trkpt><trkpt lat="38.6993833" lon="16.1555367"><ele>339.5</ele><time>2026-05-03T16:57:01.481Z</time></trkpt><trkpt lat="38.69907" lon="16.1554767"><ele>337.0</ele><time>2026-05-03T16:57:02.483Z</time></trkpt><trkpt lat="38.698755" lon="16.1554167"><ele>334.5</ele><time>2026-05-03T16:57:03.481Z</time></trkpt><trkpt lat="38.69844" lon="16.155375"><ele>332.0</ele><time>2026-05-03T16:57:04.48Z</time></trkpt><trkpt lat="38.6981233" lon="16.1553633"><ele>332.0</ele><time>2026-05-03T16:57:05.48Z</time></trkpt><trkpt lat="38.6978017" lon="16.1553817"><ele>332.0</ele><time>2026-05-03T16:57:06.482Z</time></trkpt><trkpt lat="38.6974833" lon="16.1554267"><ele>330.0</ele><time>2026-05-03T16:57:07.482Z</time></trkpt><trkpt lat="38.697165" lon="16.1554917"><ele>328.0</ele><time>2026-05-03T16:57:08.482Z</time></trkpt><trkpt lat="38.696845" lon="16.1555717"><ele>328.0</ele><time>2026-05-03T16:57:09.481Z</time></trkpt><trkpt lat="38.6965233" lon="16.1556567"><ele>328.0</ele><time>2026-05-03T16:57:10.481Z</time></trkpt><trkpt lat="38.6962017" lon="16.155745"><ele>326.5</ele><time>2026-05-03T16:57:11.481Z</time></trkpt><trkpt lat="38.69588" lon="16.1558333"><ele>325.0</ele><time>2026-05-03T16:57:12.482Z</time></trkpt><trkpt lat="38.6955533" lon="16.1559183"><ele>324.0</ele><time>2026-05-03T16:57:13.481Z</time></trkpt><trkpt lat="38.6952267" lon="16.1560067"><ele>323.0</ele><time>2026-05-03T16:57:14.482Z</time></trkpt><trkpt lat="38.6949017" lon="16.1561"><ele>323.0</ele><time>2026-05-03T16:57:15.481Z</time></trkpt><trkpt lat="38.6945767" lon="16.156195"><ele>323.0</ele><time>2026-05-03T16:57:16.481Z</time></trkpt><trkpt lat="38.69425" lon="16.15629"><ele>322.5</ele><time>2026-05-03T16:57:17.481Z</time></trkpt><trkpt lat="38.6939217" lon="16.1563833"><ele>322.0</ele><time>2026-05-03T16:57:18.48Z</time></trkpt><trkpt lat="38.6935933" lon="16.156475"><ele>318.0</ele><time>2026-05-03T16:57:19.48Z</time></trkpt><trkpt lat="38.6932683" lon="16.1565667"><ele>314.0</ele><time>2026-05-03T16:57:20.481Z</time></trkpt><trkpt lat="38.6929417" lon="16.156655"><ele>311.5</ele><time>2026-05-03T16:57:21.482Z</time></trkpt><trkpt lat="38.692615" lon="16.1567433"><ele>309.0</ele><time>2026-05-03T16:57:22.48Z</time></trkpt><trkpt lat="38.69229" lon="16.1568283"><ele>309.0</ele><time>2026-05-03T16:57:23.481Z</time></trkpt><trkpt lat="38.691965" lon="16.156915"><ele>309.0</ele><time>2026-05-03T16:57:24.48Z</time></trkpt><trkpt lat="38.6916417" lon="16.1570117"><ele>308.0</ele><time>2026-05-03T16:57:25.481Z</time></trkpt><trkpt lat="38.6913183" lon="16.1571217"><ele>307.0</ele><time>2026-05-03T16:57:26.481Z</time></trkpt><trkpt lat="38.691" lon="16.1572483"><ele>306.0</ele><time>2026-05-03T16:57:27.483Z</time></trkpt><trkpt lat="38.6906867" lon="16.1573867"><ele>305.0</ele><time>2026-05-03T16:57:28.481Z</time></trkpt><trkpt lat="38.6903767" lon="16.1575467"><ele>307.5</ele><time>2026-05-03T16:57:29.481Z</time></trkpt><trkpt lat="38.6900717" lon="16.1577233"><ele>310.0</ele><time>2026-05-03T16:57:30.48Z</time></trkpt><trkpt lat="38.6897717" lon="16.157915"><ele>310.0</ele><time>2026-05-03T16:57:31.481Z</time></trkpt><trkpt lat="38.6894783" lon="16.158125"><ele>310.0</ele><time>2026-05-03T16:57:32.482Z</time></trkpt><trkpt lat="38.6891883" lon="16.15835"><ele>303.5</ele><time>2026-05-03T16:57:33.48Z</time></trkpt><trkpt lat="38.6889017" lon="16.15859"><ele>297.0</ele><time>2026-05-03T16:57:34.481Z</time></trkpt><trkpt lat="38.68862" lon="16.158835"><ele>295.5</ele><time>2026-05-03T16:57:35.482Z</time></trkpt><trkpt lat="38.6883417" lon="16.1590917"><ele>294.0</ele><time>2026-05-03T16:57:36.481Z</time></trkpt><trkpt lat="38.688065" lon="16.1593533"><ele>294.0</ele><time>2026-05-03T16:57:37.48Z</time></trkpt><trkpt lat="38.6877917" lon="16.1596167"><ele>294.0</ele><time>2026-05-03T16:57:38.481Z</time></trkpt><trkpt lat="38.6875217" lon="16.159885"><ele>293.0</ele><time>2026-05-03T16:57:39.481Z</time></trkpt><trkpt lat="38.6872517" lon="16.16016"><ele>292.0</ele><time>2026-05-03T16:57:40.48Z</time></trkpt><trkpt lat="38.6869833" lon="16.16044"><ele>284.5</ele><time>2026-05-03T16:57:41.483Z</time></trkpt><trkpt lat="38.6867133" lon="16.1607167"><ele>277.0</ele><time>2026-05-03T16:57:42.481Z</time></trkpt><trkpt lat="38.6864383" lon="16.1609917"><ele>277.0</ele><time>2026-05-03T16:57:43.482Z</time></trkpt><trkpt lat="38.6861667" lon="16.1612717"><ele>277.0</ele><time>2026-05-03T16:57:44.483Z</time></trkpt><trkpt lat="38.6858917" lon="16.1615483"><ele>273.5</ele><time>2026-05-03T16:57:45.481Z</time></trkpt><trkpt lat="38.6856183" lon="16.1618283"><ele>270.0</ele><time>2026-05-03T16:57:46.482Z</time></trkpt><trkpt lat="38.685345" lon="16.1621117"><ele>274.5</ele><time>2026-05-03T16:57:47.481Z</time></trkpt><trkpt lat="38.68507" lon="16.1623983"><ele>279.0</ele><time>2026-05-03T16:57:48.481Z</time></trkpt><trkpt lat="38.6847983" lon="16.16269"><ele>279.0</ele><time>2026-05-03T16:57:49.482Z</time></trkpt><trkpt lat="38.68453" lon="16.162985"><ele>279.0</ele><time>2026-05-03T16:57:50.482Z</time></trkpt><trkpt lat="38.6842683" lon="16.1632917"><ele>276.5</ele><time>2026-05-03T16:57:51.483Z</time></trkpt><trkpt lat="38.6840233" lon="16.163615"><ele>274.0</ele><time>2026-05-03T16:57:52.48Z</time></trkpt><trkpt lat="38.68379" lon="16.1639567"><ele>265.5</ele><time>2026-05-03T16:57:53.482Z</time></trkpt><trkpt lat="38.683575" lon="16.1643117"><ele>257.0</ele><time>2026-05-03T16:57:54.482Z</time></trkpt><trkpt lat="38.6833717" lon="16.1646733"><ele>256.0</ele><time>2026-05-03T16:57:55.48Z</time></trkpt><trkpt lat="38.6831767" lon="16.1650467"><ele>255.0</ele><time>2026-05-03T16:57:56.482Z</time></trkpt><trkpt lat="38.6829967" lon="16.16543"><ele>252.5</ele><time>2026-05-03T16:57:57.481Z</time></trkpt><trkpt lat="38.6828317" lon="16.1658233"><ele>250.0</ele><time>2026-05-03T16:57:58.482Z</time></trkpt><trkpt lat="38.6826817" lon="16.166225"><ele>254.0</ele><time>2026-05-03T16:57:59.48Z</time></trkpt><trkpt lat="38.6825333" lon="16.1666267"><ele>258.0</ele><time>2026-05-03T16:58:00.481Z</time></trkpt><trkpt lat="38.6823883" lon="16.1670233"><ele>254.0</ele><time>2026-05-03T16:58:01.482Z</time></trkpt><trkpt lat="38.682235" lon="16.167415"><ele>250.0</ele><time>2026-05-03T16:58:02.482Z</time></trkpt><trkpt lat="38.6820783" lon="16.167805"><ele>253.0</ele><time>2026-05-03T16:58:03.481Z</time></trkpt><trkpt lat="38.6819217" lon="16.16819"><ele>256.0</ele><time>2026-05-03T16:58:04.481Z</time></trkpt><trkpt lat="38.6817633" lon="16.1685733"><ele>256.0</ele><time>2026-05-03T16:58:05.481Z</time></trkpt><trkpt lat="38.681595" lon="16.168955"><ele>256.0</ele><time>2026-05-03T16:58:06.481Z</time></trkpt><trkpt lat="38.6814283" lon="16.16934"><ele>251.0</ele><time>2026-05-03T16:58:07.481Z</time></trkpt><trkpt lat="38.6812517" lon="16.1697217"><ele>246.0</ele><time>2026-05-03T16:58:08.482Z</time></trkpt><trkpt lat="38.6810683" lon="16.1700983"><ele>239.5</ele><time>2026-05-03T16:58:09.481Z</time></trkpt><trkpt lat="38.6808767" lon="16.1704717"><ele>233.0</ele><time>2026-05-03T16:58:10.481Z</time></trkpt><trkpt lat="38.68068" lon="16.1708417"><ele>230.5</ele><time>2026-05-03T16:58:11.482Z</time></trkpt><trkpt lat="38.6804783" lon="16.1712083"><ele>228.0</ele><time>2026-05-03T16:58:12.481Z</time></trkpt><trkpt lat="38.6802717" lon="16.1715717"><ele>225.0</ele><time>2026-05-03T16:58:13.481Z</time></trkpt><trkpt lat="38.6800583" lon="16.1719283"><ele>222.0</ele><time>2026-05-03T16:58:14.481Z</time></trkpt><trkpt lat="38.6798383" lon="16.1722817"><ele>225.0</ele><time>2026-05-03T16:58:15.481Z</time></trkpt><trkpt lat="38.67961" lon="16.1726267"><ele>228.0</ele><time>2026-05-03T16:58:16.481Z</time></trkpt><trkpt lat="38.6793783" lon="16.1729667"><ele>214.0</ele><time>2026-05-03T16:58:17.48Z</time></trkpt><trkpt lat="38.6791417" lon="16.1733"><ele>200.0</ele><time>2026-05-03T16:58:18.481Z</time></trkpt><trkpt lat="38.6788967" lon="16.1736267"><ele>200.0</ele><time>2026-05-03T16:58:19.482Z</time></trkpt><trkpt lat="38.6786483" lon="16.1739467"><ele>200.0</ele><time>2026-05-03T16:58:20.482Z</time></trkpt><trkpt lat="38.678395" lon="16.1742617"><ele>199.0</ele><time>2026-05-03T16:58:21.481Z</time></trkpt><trkpt lat="38.67814" lon="16.1745717"><ele>198.0</ele><time>2026-05-03T16:58:22.481Z</time></trkpt><trkpt lat="38.6778783" lon="16.17488"><ele>207.0</ele><time>2026-05-03T16:58:23.48Z</time></trkpt><trkpt lat="38.677615" lon="16.1751883"><ele>216.0</ele><time>2026-05-03T16:58:24.481Z</time></trkpt><trkpt lat="38.67735" lon="16.1754967"><ele>214.5</ele><time>2026-05-03T16:58:25.482Z</time></trkpt><trkpt lat="38.6770833" lon="16.1758033"><ele>213.0</ele><time>2026-05-03T16:58:26.482Z</time></trkpt><trkpt lat="38.6768133" lon="16.1761117"><ele>215.0</ele><time>2026-05-03T16:58:27.481Z</time></trkpt><trkpt lat="38.67654" lon="16.1764117"><ele>217.0</ele><time>2026-05-03T16:58:28.482Z</time></trkpt><trkpt lat="38.67626" lon="16.1767033"><ele>220.0</ele><time>2026-05-03T16:58:29.482Z</time></trkpt><trkpt lat="38.675975" lon="16.1769833"><ele>223.0</ele><time>2026-05-03T16:58:30.481Z</time></trkpt><trkpt lat="38.675685" lon="16.1772567"><ele>220.0</ele><time>2026-05-03T16:58:31.482Z</time></trkpt><trkpt lat="38.675395" lon="16.177525"><ele>217.0</ele><time>2026-05-03T16:58:32.481Z</time></trkpt><trkpt lat="38.675105" lon="16.1777867"><ele>217.0</ele><time>2026-05-03T16:58:33.48Z</time></trkpt><trkpt lat="38.674815" lon="16.1780483"><ele>217.0</ele><time>2026-05-03T16:58:34.481Z</time></trkpt><trkpt lat="38.6745283" lon="16.1783133"><ele>217.5</ele><time>2026-05-03T16:58:35.48Z</time></trkpt><trkpt lat="38.6742433" lon="16.17858"><ele>218.0</ele><time>2026-05-03T16:58:36.481Z</time></trkpt><trkpt lat="38.6739583" lon="16.1788483"><ele>211.0</ele><time>2026-05-03T16:58:37.48Z</time></trkpt><trkpt lat="38.6736733" lon="16.1791167"><ele>204.0</ele><time>2026-05-03T16:58:38.481Z</time></trkpt><trkpt lat="38.6733867" lon="16.1793833"><ele>204.0</ele><time>2026-05-03T16:58:39.481Z</time></trkpt><trkpt lat="38.6731017" lon="16.17965"><ele>204.0</ele><time>2026-05-03T16:58:40.481Z</time></trkpt><trkpt lat="38.672815" lon="16.1799083"><ele>197.5</ele><time>2026-05-03T16:58:41.481Z</time></trkpt><trkpt lat="38.6725283" lon="16.18017"><ele>191.0</ele><time>2026-05-03T16:58:42.481Z</time></trkpt><trkpt lat="38.6722417" lon="16.1804317"><ele>195.5</ele><time>2026-05-03T16:58:43.482Z</time></trkpt><trkpt lat="38.6719533" lon="16.18069"><ele>200.0</ele><time>2026-05-03T16:58:44.481Z</time></trkpt><trkpt lat="38.6716667" lon="16.1809517"><ele>200.0</ele><time>2026-05-03T16:58:45.482Z</time></trkpt><trkpt lat="38.6713783" lon="16.1812183"><ele>200.0</ele><time>2026-05-03T16:58:46.481Z</time></trkpt><trkpt lat="38.6710883" lon="16.1814833"><ele>198.5</ele><time>2026-05-03T16:58:47.481Z</time></trkpt><trkpt lat="38.6707983" lon="16.18175"><ele>197.0</ele><time>2026-05-03T16:58:48.48Z</time></trkpt><trkpt lat="38.6705067" lon="16.1820183"><ele>196.5</ele><time>2026-05-03T16:58:49.482Z</time></trkpt><trkpt lat="38.6702133" lon="16.182285"><ele>196.0</ele><time>2026-05-03T16:58:50.482Z</time></trkpt><trkpt lat="38.6699233" lon="16.1825517"><ele>196.0</ele><time>2026-05-03T16:58:51.482Z</time></trkpt><trkpt lat="38.6696333" lon="16.1828167"><ele>196.0</ele><time>2026-05-03T16:58:52.481Z</time></trkpt><trkpt lat="38.6693417" lon="16.1830833"><ele>190.0</ele><time>2026-05-03T16:58:53.483Z</time></trkpt><trkpt lat="38.66905" lon="16.1833467"><ele>184.0</ele><time>2026-05-03T16:58:54.48Z</time></trkpt><trkpt lat="38.668755" lon="16.183605"><ele>181.0</ele><time>2026-05-03T16:58:55.48Z</time></trkpt><trkpt lat="38.6684583" lon="16.1838517"><ele>178.0</ele><time>2026-05-03T16:58:56.482Z</time></trkpt><trkpt lat="38.66816" lon="16.18409"><ele>178.0</ele><time>2026-05-03T16:58:57.481Z</time></trkpt><trkpt lat="38.6678583" lon="16.184315"><ele>178.0</ele><time>2026-05-03T16:58:58.486Z</time></trkpt><trkpt lat="38.6675517" lon="16.1845283"><ele>180.5</ele><time>2026-05-03T16:58:59.482Z</time></trkpt><trkpt lat="38.66724" lon="16.1847317"><ele>183.0</ele><time>2026-05-03T16:59:00.481Z</time></trkpt><trkpt lat="38.6669233" lon="16.1849267"><ele>176.0</ele><time>2026-05-03T16:59:01.481Z</time></trkpt><trkpt lat="38.6666067" lon="16.1851083"><ele>169.0</ele><time>2026-05-03T16:59:02.482Z</time></trkpt><trkpt lat="38.6662933" lon="16.185285"><ele>167.0</ele><time>2026-05-03T16:59:03.48Z</time></trkpt><trkpt lat="38.6659633" lon="16.1854383"><ele>165.0</ele><time>2026-05-03T16:59:04.481Z</time></trkpt><trkpt lat="38.6656117" lon="16.185595"><ele>163.5</ele><time>2026-05-03T16:59:05.481Z</time></trkpt><trkpt lat="38.6652983" lon="16.1857667"><ele>162.0</ele><time>2026-05-03T16:59:06.481Z</time></trkpt><trkpt lat="38.6649833" lon="16.185915"><ele>165.5</ele><time>2026-05-03T16:59:07.482Z</time></trkpt><trkpt lat="38.6646633" lon="16.1860633"><ele>169.0</ele><time>2026-05-03T16:59:08.482Z</time></trkpt><trkpt lat="38.6643417" lon="16.1862117"><ele>176.0</ele><time>2026-05-03T16:59:09.483Z</time></trkpt><trkpt lat="38.6640267" lon="16.1863567"><ele>183.0</ele><time>2026-05-03T16:59:10.481Z</time></trkpt><trkpt lat="38.6637117" lon="16.1865067"><ele>177.0</ele><time>2026-05-03T16:59:11.482Z</time></trkpt><trkpt lat="38.6621133" lon="16.18728"><ele>176.0</ele><time>2026-05-03T16:59:16.48Z</time></trkpt><trkpt lat="38.6617833" lon="16.1874383"><ele>175.0</ele><time>2026-05-03T16:59:17.481Z</time></trkpt><trkpt lat="38.6614633" lon="16.1876083"><ele>175.0</ele><time>2026-05-03T16:59:18.481Z</time></trkpt><trkpt lat="38.6611367" lon="16.1877583"><ele>175.0</ele><time>2026-05-03T16:59:19.48Z</time></trkpt><trkpt lat="38.6608117" lon="16.1879033"><ele>175.0</ele><time>2026-05-03T16:59:20.483Z</time></trkpt><trkpt lat="38.6604883" lon="16.1880483"><ele>175.0</ele><time>2026-05-03T16:59:21.48Z</time></trkpt><trkpt lat="38.66017" lon="16.1881883"><ele>168.5</ele><time>2026-05-03T16:59:22.482Z</time></trkpt><trkpt lat="38.6598417" lon="16.188305"><ele>162.0</ele><time>2026-05-03T16:59:23.481Z</time></trkpt><trkpt lat="38.6595217" lon="16.1884233"><ele>163.0</ele><time>2026-05-03T16:59:24.482Z</time></trkpt><trkpt lat="38.6591967" lon="16.1885333"><ele>164.0</ele><time>2026-05-03T16:59:25.48Z</time></trkpt><trkpt lat="38.65887" lon="16.18864"><ele>163.5</ele><time>2026-05-03T16:59:26.481Z</time></trkpt><trkpt lat="38.658545" lon="16.188745"><ele>163.0</ele><time>2026-05-03T16:59:27.48Z</time></trkpt><trkpt lat="38.6582167" lon="16.1888317"><ele>163.0</ele><time>2026-05-03T16:59:28.482Z</time></trkpt><trkpt lat="38.657885" lon="16.1889067"><ele>163.0</ele><time>2026-05-03T16:59:29.481Z</time></trkpt><trkpt lat="38.6575483" lon="16.18897"><ele>163.5</ele><time>2026-05-03T16:59:30.481Z</time></trkpt><trkpt lat="38.6572083" lon="16.1890167"><ele>164.0</ele><time>2026-05-03T16:59:31.481Z</time></trkpt><trkpt lat="38.6568683" lon="16.1890483"><ele>167.5</ele><time>2026-05-03T16:59:32.482Z</time></trkpt><trkpt lat="38.6565267" lon="16.18907"><ele>171.0</ele><time>2026-05-03T16:59:33.481Z</time></trkpt><trkpt lat="38.6561833" lon="16.1890817"><ele>175.5</ele><time>2026-05-03T16:59:34.481Z</time></trkpt><trkpt lat="38.655845" lon="16.189095"><ele>180.0</ele><time>2026-05-03T16:59:35.482Z</time></trkpt><trkpt lat="38.650875" lon="16.1876217"><ele>164.0</ele><time>2026-05-03T16:59:50.481Z</time></trkpt><trkpt lat="38.6505317" lon="16.1874167"><ele>148.0</ele><time>2026-05-03T16:59:51.481Z</time></trkpt><trkpt lat="38.6502183" lon="16.1872283"><ele>147.5</ele><time>2026-05-03T16:59:52.481Z</time></trkpt><trkpt lat="38.6499133" lon="16.1870333"><ele>147.0</ele><time>2026-05-03T16:59:53.481Z</time></trkpt><trkpt lat="38.6496067" lon="16.18683"><ele>147.0</ele><time>2026-05-03T16:59:54.482Z</time></trkpt><trkpt lat="38.649305" lon="16.1866233"><ele>147.0</ele><time>2026-05-03T16:59:55.481Z</time></trkpt><trkpt lat="38.6490033" lon="16.1864167"><ele>147.0</ele><time>2026-05-03T16:59:56.482Z</time></trkpt><trkpt lat="38.6487" lon="16.1862083"><ele>147.0</ele><time>2026-05-03T16:59:57.481Z</time></trkpt><trkpt lat="38.6483933" lon="16.186"><ele>145.5</ele><time>2026-05-03T16:59:58.482Z</time></trkpt><trkpt lat="38.6480883" lon="16.18579"><ele>144.0</ele><time>2026-05-03T16:59:59.481Z</time></trkpt><trkpt lat="38.6477817" lon="16.1855783"><ele>144.0</ele><time>2026-05-03T17:00:00.481Z</time></trkpt><trkpt lat="38.647475" lon="16.1853667"><ele>144.0</ele><time>2026-05-03T17:00:01.481Z</time></trkpt><trkpt lat="38.6471683" lon="16.185155"><ele>143.5</ele><time>2026-05-03T17:00:02.481Z</time></trkpt><trkpt lat="38.6468583" lon="16.18494"><ele>143.0</ele><time>2026-05-03T17:00:03.481Z</time></trkpt><trkpt lat="38.6465467" lon="16.1847217"><ele>142.5</ele><time>2026-05-03T17:00:04.482Z</time></trkpt><trkpt lat="38.646235" lon="16.184505"><ele>142.0</ele><time>2026-05-03T17:00:05.481Z</time></trkpt><trkpt lat="38.64592" lon="16.1842883"><ele>141.5</ele><time>2026-05-03T17:00:06.482Z</time></trkpt><trkpt lat="38.6456033" lon="16.18407"><ele>141.0</ele><time>2026-05-03T17:00:07.482Z</time></trkpt><trkpt lat="38.645285" lon="16.1838533"><ele>141.0</ele><time>2026-05-03T17:00:08.482Z</time></trkpt><trkpt lat="38.6449667" lon="16.1836333"><ele>141.0</ele><time>2026-05-03T17:00:09.48Z</time></trkpt><trkpt lat="38.6446483" lon="16.1834117"><ele>141.0</ele><time>2026-05-03T17:00:10.481Z</time></trkpt><trkpt lat="38.64433" lon="16.1831917"><ele>141.0</ele><time>2026-05-03T17:00:11.482Z</time></trkpt><trkpt lat="38.6440117" lon="16.1829717"><ele>141.0</ele><time>2026-05-03T17:00:12.481Z</time></trkpt><trkpt lat="38.6436933" lon="16.1827483"><ele>141.0</ele><time>2026-05-03T17:00:13.482Z</time></trkpt><trkpt lat="38.643375" lon="16.182525"><ele>141.0</ele><time>2026-05-03T17:00:14.482Z</time></trkpt><trkpt lat="38.64306" lon="16.1822933"><ele>141.0</ele><time>2026-05-03T17:00:15.48Z</time></trkpt><trkpt lat="38.64275" lon="16.18206"><ele>140.0</ele><time>2026-05-03T17:00:16.481Z</time></trkpt><trkpt lat="38.642445" lon="16.1818233"><ele>139.0</ele><time>2026-05-03T17:00:17.482Z</time></trkpt><trkpt lat="38.6421417" lon="16.18158"><ele>138.5</ele><time>2026-05-03T17:00:18.483Z</time></trkpt><trkpt lat="38.6418417" lon="16.18133"><ele>138.0</ele><time>2026-05-03T17:00:19.483Z</time></trkpt><trkpt lat="38.641545" lon="16.1810783"><ele>138.0</ele><time>2026-05-03T17:00:20.484Z</time></trkpt><trkpt lat="38.6412533" lon="16.18082"><ele>138.0</ele><time>2026-05-03T17:00:21.485Z</time></trkpt><trkpt lat="38.64096" lon="16.1805533"><ele>138.0</ele><time>2026-05-03T17:00:22.483Z</time></trkpt><trkpt lat="38.6406717" lon="16.1802883"><ele>138.0</ele><time>2026-05-03T17:00:23.484Z</time></trkpt><trkpt lat="38.640385" lon="16.18002"><ele>137.5</ele><time>2026-05-03T17:00:24.483Z</time></trkpt><trkpt lat="38.640105" lon="16.1797483"><ele>137.0</ele><time>2026-05-03T17:00:25.484Z</time></trkpt><trkpt lat="38.6398267" lon="16.1794717"><ele>137.0</ele><time>2026-05-03T17:00:26.484Z</time></trkpt><trkpt lat="38.6395517" lon="16.1791917"><ele>137.0</ele><time>2026-05-03T17:00:27.483Z</time></trkpt><trkpt lat="38.6392783" lon="16.178905"><ele>136.5</ele><time>2026-05-03T17:00:28.482Z</time></trkpt><trkpt lat="38.6390083" lon="16.1786117"><ele>136.0</ele><time>2026-05-03T17:00:29.484Z</time></trkpt><trkpt lat="38.6387417" lon="16.178315"><ele>135.5</ele><time>2026-05-03T17:00:30.483Z</time></trkpt><trkpt lat="38.6384767" lon="16.178015"><ele>135.0</ele><time>2026-05-03T17:00:31.482Z</time></trkpt><trkpt lat="38.638215" lon="16.1777133"><ele>135.0</ele><time>2026-05-03T17:00:32.485Z</time></trkpt><trkpt lat="38.637955" lon="16.177405"><ele>135.0</ele><time>2026-05-03T17:00:33.483Z</time></trkpt><trkpt lat="38.6376983" lon="16.1770917"><ele>134.5</ele><time>2026-05-03T17:00:34.483Z</time></trkpt><trkpt lat="38.637445" lon="16.1767733"><ele>134.0</ele><time>2026-05-03T17:00:35.483Z</time></trkpt><trkpt lat="38.6371933" lon="16.1764483"><ele>133.0</ele><time>2026-05-03T17:00:36.482Z</time></trkpt><trkpt lat="38.6369433" lon="16.17612"><ele>132.0</ele><time>2026-05-03T17:00:37.482Z</time></trkpt><trkpt lat="38.636695" lon="16.1757867"><ele>132.0</ele><time>2026-05-03T17:00:38.484Z</time></trkpt><trkpt lat="38.6364483" lon="16.1754483"><ele>132.0</ele><time>2026-05-03T17:00:39.482Z</time></trkpt><trkpt lat="38.6362033" lon="16.1751033"><ele>132.0</ele><time>2026-05-03T17:00:40.483Z</time></trkpt><trkpt lat="38.6359617" lon="16.1747567"><ele>132.0</ele><time>2026-05-03T17:00:41.483Z</time></trkpt><trkpt lat="38.6357217" lon="16.17441"><ele>132.0</ele><time>2026-05-03T17:00:42.483Z</time></trkpt><trkpt lat="38.6354867" lon="16.1740567"><ele>132.0</ele><time>2026-05-03T17:00:43.483Z</time></trkpt><trkpt lat="38.6352567" lon="16.1737"><ele>131.5</ele><time>2026-05-03T17:00:44.483Z</time></trkpt><trkpt lat="38.63503" lon="16.1733417"><ele>131.0</ele><time>2026-05-03T17:00:45.481Z</time></trkpt><trkpt lat="38.6348067" lon="16.1729783"><ele>131.0</ele><time>2026-05-03T17:00:46.481Z</time></trkpt><trkpt lat="38.6345883" lon="16.1726117"><ele>131.0</ele><time>2026-05-03T17:00:47.482Z</time></trkpt><trkpt lat="38.6343733" lon="16.1722433"><ele>131.5</ele><time>2026-05-03T17:00:48.482Z</time></trkpt><trkpt lat="38.63416" lon="16.1718733"><ele>132.0</ele><time>2026-05-03T17:00:49.482Z</time></trkpt><trkpt lat="38.63395" lon="16.1715033"><ele>132.0</ele><time>2026-05-03T17:00:50.482Z</time></trkpt><trkpt lat="38.6337417" lon="16.1711317"><ele>132.0</ele><time>2026-05-03T17:00:51.482Z</time></trkpt><trkpt lat="38.6335383" lon="16.1707583"><ele>130.5</ele><time>2026-05-03T17:00:52.482Z</time></trkpt><trkpt lat="38.6333367" lon="16.1703833"><ele>129.0</ele><time>2026-05-03T17:00:53.485Z</time></trkpt><trkpt lat="38.633135" lon="16.1700067"><ele>129.0</ele><time>2026-05-03T17:00:54.482Z</time></trkpt><trkpt lat="38.6329383" lon="16.1696283"><ele>129.0</ele><time>2026-05-03T17:00:55.481Z</time></trkpt><trkpt lat="38.6327383" lon="16.16925"><ele>129.0</ele><time>2026-05-03T17:00:56.482Z</time></trkpt><trkpt lat="38.6325367" lon="16.1688767"><ele>129.0</ele><time>2026-05-03T17:00:57.48Z</time></trkpt><trkpt lat="38.6323317" lon="16.1685067"><ele>129.0</ele><time>2026-05-03T17:00:58.481Z</time></trkpt><trkpt lat="38.632125" lon="16.16814"><ele>129.0</ele><time>2026-05-03T17:00:59.482Z</time></trkpt><trkpt lat="38.6319117" lon="16.1677783"><ele>129.0</ele><time>2026-05-03T17:01:00.481Z</time></trkpt><trkpt lat="38.6317" lon="16.1674167"><ele>129.0</ele><time>2026-05-03T17:01:01.481Z</time></trkpt><trkpt lat="38.6314817" lon="16.1670583"><ele>129.0</ele><time>2026-05-03T17:01:02.481Z</time></trkpt><trkpt lat="38.63126" lon="16.1667083"><ele>129.0</ele><time>2026-05-03T17:01:03.481Z</time></trkpt><trkpt lat="38.6310317" lon="16.1663617"><ele>129.5</ele><time>2026-05-03T17:01:04.481Z</time></trkpt><trkpt lat="38.6307983" lon="16.1660217"><ele>130.0</ele><time>2026-05-03T17:01:05.481Z</time></trkpt><trkpt lat="38.63056" lon="16.1656883"><ele>129.0</ele><time>2026-05-03T17:01:06.481Z</time></trkpt><trkpt lat="38.6303133" lon="16.1653617"><ele>128.0</ele><time>2026-05-03T17:01:07.481Z</time></trkpt><trkpt lat="38.63006" lon="16.165045"><ele>126.5</ele><time>2026-05-03T17:01:08.482Z</time></trkpt><trkpt lat="38.6298017" lon="16.1647367"><ele>125.0</ele><time>2026-05-03T17:01:09.483Z</time></trkpt><trkpt lat="38.6295367" lon="16.164435"><ele>125.5</ele><time>2026-05-03T17:01:10.482Z</time></trkpt><trkpt lat="38.62927" lon="16.16414"><ele>126.0</ele><time>2026-05-03T17:01:11.48Z</time></trkpt><trkpt lat="38.6290033" lon="16.1638517"><ele>125.0</ele><time>2026-05-03T17:01:12.481Z</time></trkpt><trkpt lat="38.6287317" lon="16.1635783"><ele>124.0</ele><time>2026-05-03T17:01:13.48Z</time></trkpt><trkpt lat="38.628455" lon="16.163315"><ele>123.0</ele><time>2026-05-03T17:01:14.481Z</time></trkpt><trkpt lat="38.6281767" lon="16.16306"><ele>122.0</ele><time>2026-05-03T17:01:15.482Z</time></trkpt><trkpt lat="38.6278933" lon="16.1628133"><ele>122.5</ele><time>2026-05-03T17:01:16.48Z</time></trkpt><trkpt lat="38.6276067" lon="16.1625767"><ele>123.0</ele><time>2026-05-03T17:01:17.481Z</time></trkpt><trkpt lat="38.6273167" lon="16.1623483"><ele>122.5</ele><time>2026-05-03T17:01:18.48Z</time></trkpt><trkpt lat="38.6270233" lon="16.16213"><ele>122.0</ele><time>2026-05-03T17:01:19.482Z</time></trkpt><trkpt lat="38.626725" lon="16.16192"><ele>122.0</ele><time>2026-05-03T17:01:20.481Z</time></trkpt><trkpt lat="38.62642" lon="16.1617183"><ele>122.0</ele><time>2026-05-03T17:01:21.481Z</time></trkpt><trkpt lat="38.6261117" lon="16.1615233"><ele>121.0</ele><time>2026-05-03T17:01:22.48Z</time></trkpt><trkpt lat="38.6258" lon="16.161335"><ele>120.0</ele><time>2026-05-03T17:01:23.481Z</time></trkpt><trkpt lat="38.625485" lon="16.161155"><ele>121.5</ele><time>2026-05-03T17:01:24.481Z</time></trkpt><trkpt lat="38.6251633" lon="16.1609833"><ele>123.0</ele><time>2026-05-03T17:01:25.48Z</time></trkpt><trkpt lat="38.624835" lon="16.1608233"><ele>121.5</ele><time>2026-05-03T17:01:26.482Z</time></trkpt><trkpt lat="38.6245067" lon="16.1606717"><ele>120.0</ele><time>2026-05-03T17:01:27.48Z</time></trkpt><trkpt lat="38.6241767" lon="16.16053"><ele>120.0</ele><time>2026-05-03T17:01:28.481Z</time></trkpt><trkpt lat="38.6238483" lon="16.1603967"><ele>120.0</ele><time>2026-05-03T17:01:29.482Z</time></trkpt><trkpt lat="38.6235167" lon="16.1602717"><ele>122.0</ele><time>2026-05-03T17:01:30.481Z</time></trkpt><trkpt lat="38.6231833" lon="16.16015"><ele>124.0</ele><time>2026-05-03T17:01:31.481Z</time></trkpt><trkpt lat="38.622855" lon="16.1600333"><ele>124.5</ele><time>2026-05-03T17:01:32.482Z</time></trkpt><trkpt lat="38.6225283" lon="16.1599167"><ele>125.0</ele><time>2026-05-03T17:01:33.48Z</time></trkpt><trkpt lat="38.6222067" lon="16.1598"><ele>119.5</ele><time>2026-05-03T17:01:34.481Z</time></trkpt><trkpt lat="38.6218833" lon="16.15968"><ele>114.0</ele><time>2026-05-03T17:01:35.481Z</time></trkpt><trkpt lat="38.62156" lon="16.1595567"><ele>114.0</ele><time>2026-05-03T17:01:36.481Z</time></trkpt><trkpt lat="38.621235" lon="16.15943"><ele>114.0</ele><time>2026-05-03T17:01:37.481Z</time></trkpt><trkpt lat="38.62091" lon="16.1592967"><ele>115.0</ele><time>2026-05-03T17:01:38.481Z</time></trkpt><trkpt lat="38.620585" lon="16.1591533"><ele>116.0</ele><time>2026-05-03T17:01:39.481Z</time></trkpt><trkpt lat="38.6202617" lon="16.1590033"><ele>116.0</ele><time>2026-05-03T17:01:40.48Z</time></trkpt><trkpt lat="38.6199367" lon="16.158845"><ele>116.0</ele><time>2026-05-03T17:01:41.482Z</time></trkpt><trkpt lat="38.6196167" lon="16.1586783"><ele>116.5</ele><time>2026-05-03T17:01:42.481Z</time></trkpt><trkpt lat="38.6193017" lon="16.1585017"><ele>117.0</ele><time>2026-05-03T17:01:43.481Z</time></trkpt><trkpt lat="38.6189917" lon="16.1583133"><ele>116.0</ele><time>2026-05-03T17:01:44.48Z</time></trkpt><trkpt lat="38.618685" lon="16.1581167"><ele>115.0</ele><time>2026-05-03T17:01:45.481Z</time></trkpt><trkpt lat="38.61838" lon="16.1579117"><ele>115.0</ele><time>2026-05-03T17:01:46.48Z</time></trkpt><trkpt lat="38.61808" lon="16.157695"><ele>115.0</ele><time>2026-05-03T17:01:47.482Z</time></trkpt><trkpt lat="38.61778" lon="16.1574717"><ele>115.5</ele><time>2026-05-03T17:01:48.481Z</time></trkpt><trkpt lat="38.617485" lon="16.15724"><ele>116.0</ele><time>2026-05-03T17:01:49.481Z</time></trkpt><trkpt lat="38.6171933" lon="16.1569983"><ele>115.0</ele><time>2026-05-03T17:01:50.48Z</time></trkpt><trkpt lat="38.616905" lon="16.1567483"><ele>114.0</ele><time>2026-05-03T17:01:51.481Z</time></trkpt><trkpt lat="38.6166233" lon="16.1564883"><ele>114.0</ele><time>2026-05-03T17:01:52.48Z</time></trkpt><trkpt lat="38.616345" lon="16.1562183"><ele>114.0</ele><time>2026-05-03T17:01:53.481Z</time></trkpt><trkpt lat="38.6160733" lon="16.15594"><ele>114.0</ele><time>2026-05-03T17:01:54.481Z</time></trkpt><trkpt lat="38.6158033" lon="16.155655"><ele>114.0</ele><time>2026-05-03T17:01:55.481Z</time></trkpt><trkpt lat="38.615535" lon="16.1553667"><ele>115.0</ele><time>2026-05-03T17:01:56.481Z</time></trkpt><trkpt lat="38.61527" lon="16.1550767"><ele>116.0</ele><time>2026-05-03T17:01:57.48Z</time></trkpt><trkpt lat="38.615005" lon="16.154785"><ele>116.0</ele><time>2026-05-03T17:01:58.481Z</time></trkpt><trkpt lat="38.61474" lon="16.1544917"><ele>116.0</ele><time>2026-05-03T17:01:59.481Z</time></trkpt><trkpt lat="38.614475" lon="16.1541967"><ele>115.5</ele><time>2026-05-03T17:02:00.482Z</time></trkpt><trkpt lat="38.6142083" lon="16.1539"><ele>115.0</ele><time>2026-05-03T17:02:01.481Z</time></trkpt><trkpt lat="38.61394" lon="16.1536083"><ele>115.0</ele><time>2026-05-03T17:02:02.481Z</time></trkpt><trkpt lat="38.61367" lon="16.15332"><ele>115.0</ele><time>2026-05-03T17:02:03.484Z</time></trkpt><trkpt lat="38.6133967" lon="16.1530367"><ele>114.5</ele><time>2026-05-03T17:02:04.482Z</time></trkpt><trkpt lat="38.61312" lon="16.1527533"><ele>114.0</ele><time>2026-05-03T17:02:05.483Z</time></trkpt><trkpt lat="38.6128433" lon="16.152475"><ele>113.0</ele><time>2026-05-03T17:02:06.481Z</time></trkpt><trkpt lat="38.6125617" lon="16.1522"><ele>112.0</ele><time>2026-05-03T17:02:07.481Z</time></trkpt><trkpt lat="38.6122783" lon="16.1519283"><ele>112.0</ele><time>2026-05-03T17:02:08.48Z</time></trkpt><trkpt lat="38.6119933" lon="16.1516617"><ele>112.0</ele><time>2026-05-03T17:02:09.481Z</time></trkpt><trkpt lat="38.6117033" lon="16.1514"><ele>111.0</ele><time>2026-05-03T17:02:10.481Z</time></trkpt><trkpt lat="38.6114133" lon="16.1511417"><ele>110.0</ele><time>2026-05-03T17:02:11.483Z</time></trkpt><trkpt lat="38.61112" lon="16.1508883"><ele>111.0</ele><time>2026-05-03T17:02:12.482Z</time></trkpt><trkpt lat="38.6108233" lon="16.15064"><ele>112.0</ele><time>2026-05-03T17:02:13.482Z</time></trkpt><trkpt lat="38.6105267" lon="16.150395"><ele>111.5</ele><time>2026-05-03T17:02:14.483Z</time></trkpt><trkpt lat="38.610225" lon="16.1501533"><ele>111.0</ele><time>2026-05-03T17:02:15.482Z</time></trkpt><trkpt lat="38.609925" lon="16.1499167"><ele>112.0</ele><time>2026-05-03T17:02:16.481Z</time></trkpt><trkpt lat="38.6096233" lon="16.149685"><ele>113.0</ele><time>2026-05-03T17:02:17.483Z</time></trkpt><trkpt lat="38.6093183" lon="16.1494567"><ele>113.0</ele><time>2026-05-03T17:02:18.483Z</time></trkpt><trkpt lat="38.6090117" lon="16.1492317"><ele>113.0</ele><time>2026-05-03T17:02:19.483Z</time></trkpt><trkpt lat="38.6087033" lon="16.1490033"><ele>115.0</ele><time>2026-05-03T17:02:20.483Z</time></trkpt><trkpt lat="38.608395" lon="16.1487767"><ele>117.0</ele><time>2026-05-03T17:02:21.483Z</time></trkpt><trkpt lat="38.6080883" lon="16.1485483"><ele>114.5</ele><time>2026-05-03T17:02:22.482Z</time></trkpt><trkpt lat="38.60778" lon="16.1483183"><ele>112.0</ele><time>2026-05-03T17:02:23.481Z</time></trkpt><trkpt lat="38.6074733" lon="16.1480883"><ele>112.0</ele><time>2026-05-03T17:02:24.482Z</time></trkpt><trkpt lat="38.6071667" lon="16.1478583"><ele>112.0</ele><time>2026-05-03T17:02:25.482Z</time></trkpt><trkpt lat="38.6068583" lon="16.1476283"><ele>112.0</ele><time>2026-05-03T17:02:26.482Z</time></trkpt><trkpt lat="38.60655" lon="16.1474"><ele>112.0</ele><time>2026-05-03T17:02:27.481Z</time></trkpt><trkpt lat="38.6062417" lon="16.1471683"><ele>114.5</ele><time>2026-05-03T17:02:28.482Z</time></trkpt><trkpt lat="38.6059383" lon="16.1469367"><ele>117.0</ele><time>2026-05-03T17:02:29.482Z</time></trkpt><trkpt lat="38.605635" lon="16.1467"><ele>116.5</ele><time>2026-05-03T17:02:30.482Z</time></trkpt><trkpt lat="38.6053333" lon="16.146455"><ele>116.0</ele><time>2026-05-03T17:02:31.482Z</time></trkpt><trkpt lat="38.60504" lon="16.1461983"><ele>116.0</ele><time>2026-05-03T17:02:32.482Z</time></trkpt><trkpt lat="38.6047517" lon="16.14593"><ele>116.0</ele><time>2026-05-03T17:02:33.481Z</time></trkpt><trkpt lat="38.6044717" lon="16.1456517"><ele>113.0</ele><time>2026-05-03T17:02:34.482Z</time></trkpt><trkpt lat="38.604195" lon="16.1453667"><ele>110.0</ele><time>2026-05-03T17:02:35.482Z</time></trkpt><trkpt lat="38.6039233" lon="16.1450783"><ele>110.5</ele><time>2026-05-03T17:02:36.481Z</time></trkpt><trkpt lat="38.6036533" lon="16.1447867"><ele>111.0</ele><time>2026-05-03T17:02:37.482Z</time></trkpt><trkpt lat="38.603385" lon="16.14449"><ele>111.0</ele><time>2026-05-03T17:02:38.483Z</time></trkpt><trkpt lat="38.603115" lon="16.1441967"><ele>111.0</ele><time>2026-05-03T17:02:39.483Z</time></trkpt><trkpt lat="38.602845" lon="16.1439033"><ele>109.5</ele><time>2026-05-03T17:02:40.482Z</time></trkpt><trkpt lat="38.6025733" lon="16.1436167"><ele>108.0</ele><time>2026-05-03T17:02:41.483Z</time></trkpt><trkpt lat="38.6022967" lon="16.14333"><ele>108.0</ele><time>2026-05-03T17:02:42.483Z</time></trkpt><trkpt lat="38.6020183" lon="16.1430517"><ele>108.0</ele><time>2026-05-03T17:02:43.482Z</time></trkpt><trkpt lat="38.6017333" lon="16.1427833"><ele>108.0</ele><time>2026-05-03T17:02:44.482Z</time></trkpt><trkpt lat="38.601445" lon="16.1425217"><ele>108.0</ele><time>2026-05-03T17:02:45.483Z</time></trkpt><trkpt lat="38.60115" lon="16.1422733"><ele>108.0</ele><time>2026-05-03T17:02:46.483Z</time></trkpt><trkpt lat="38.6008533" lon="16.1420317"><ele>108.0</ele><time>2026-05-03T17:02:47.481Z</time></trkpt><trkpt lat="38.6005517" lon="16.141795"><ele>106.5</ele><time>2026-05-03T17:02:48.482Z</time></trkpt><trkpt lat="38.6002467" lon="16.1415583"><ele>105.0</ele><time>2026-05-03T17:02:49.482Z</time></trkpt><trkpt lat="38.599945" lon="16.141325"><ele>107.5</ele><time>2026-05-03T17:02:50.483Z</time></trkpt><trkpt lat="38.5996417" lon="16.1410867"><ele>110.0</ele><time>2026-05-03T17:02:51.481Z</time></trkpt><trkpt lat="38.59934" lon="16.14085"><ele>116.0</ele><time>2026-05-03T17:02:52.482Z</time></trkpt><trkpt lat="38.5990367" lon="16.1406133"><ele>122.0</ele><time>2026-05-03T17:02:53.481Z</time></trkpt><trkpt lat="38.5987333" lon="16.1403767"><ele>117.0</ele><time>2026-05-03T17:02:54.482Z</time></trkpt><trkpt lat="38.59843" lon="16.1401433"><ele>112.0</ele><time>2026-05-03T17:02:55.482Z</time></trkpt><trkpt lat="38.5981283" lon="16.1399067"><ele>112.5</ele><time>2026-05-03T17:02:56.482Z</time></trkpt><trkpt lat="38.5978283" lon="16.1396733"><ele>113.0</ele><time>2026-05-03T17:02:57.483Z</time></trkpt><trkpt lat="38.5975317" lon="16.1394417"><ele>113.0</ele><time>2026-05-03T17:02:58.482Z</time></trkpt><trkpt lat="38.597235" lon="16.1392083"><ele>113.0</ele><time>2026-05-03T17:02:59.482Z</time></trkpt><trkpt lat="38.59694" lon="16.1389783"><ele>110.5</ele><time>2026-05-03T17:03:00.482Z</time></trkpt><trkpt lat="38.5966433" lon="16.1387483"><ele>108.0</ele><time>2026-05-03T17:03:01.482Z</time></trkpt><trkpt lat="38.5963433" lon="16.138525"><ele>109.0</ele><time>2026-05-03T17:03:02.483Z</time></trkpt><trkpt lat="38.5960367" lon="16.1383067"><ele>110.0</ele><time>2026-05-03T17:03:03.482Z</time></trkpt><trkpt lat="38.5957267" lon="16.1381033"><ele>110.0</ele><time>2026-05-03T17:03:04.483Z</time></trkpt><trkpt lat="38.5954183" lon="16.137915"><ele>110.0</ele><time>2026-05-03T17:03:05.482Z</time></trkpt><trkpt lat="38.5951167" lon="16.1377517"><ele>106.5</ele><time>2026-05-03T17:03:06.482Z</time></trkpt><trkpt lat="38.594815" lon="16.137605"><ele>103.0</ele><time>2026-05-03T17:03:07.481Z</time></trkpt><trkpt lat="38.59451" lon="16.1374717"><ele>103.0</ele><time>2026-05-03T17:03:08.483Z</time></trkpt><trkpt lat="38.594195" lon="16.137355"><ele>103.0</ele><time>2026-05-03T17:03:09.482Z</time></trkpt><trkpt lat="38.5938733" lon="16.1372433"><ele>105.0</ele><time>2026-05-03T17:03:10.481Z</time></trkpt><trkpt lat="38.5935467" lon="16.1371417"><ele>107.0</ele><time>2026-05-03T17:03:11.482Z</time></trkpt><trkpt lat="38.593215" lon="16.1370467"><ele>107.0</ele><time>2026-05-03T17:03:12.483Z</time></trkpt><trkpt lat="38.59288" lon="16.1369583"><ele>107.0</ele><time>2026-05-03T17:03:13.481Z</time></trkpt><trkpt lat="38.5925417" lon="16.13688"><ele>106.0</ele><time>2026-05-03T17:03:14.482Z</time></trkpt><trkpt lat="38.5922" lon="16.13681"><ele>105.0</ele><time>2026-05-03T17:03:15.483Z</time></trkpt><trkpt lat="38.591855" lon="16.136745"><ele>104.0</ele><time>2026-05-03T17:03:16.481Z</time></trkpt><trkpt lat="38.5915067" lon="16.1366833"><ele>103.0</ele><time>2026-05-03T17:03:17.483Z</time></trkpt><trkpt lat="38.5911583" lon="16.13662"><ele>102.5</ele><time>2026-05-03T17:03:18.483Z</time></trkpt><trkpt lat="38.5908067" lon="16.1365533"><ele>102.0</ele><time>2026-05-03T17:03:19.483Z</time></trkpt><trkpt lat="38.590455" lon="16.136485"><ele>110.0</ele><time>2026-05-03T17:03:20.483Z</time></trkpt><trkpt lat="38.5901017" lon="16.136415"><ele>118.0</ele><time>2026-05-03T17:03:21.484Z</time></trkpt><trkpt lat="38.5897483" lon="16.1363383"><ele>113.0</ele><time>2026-05-03T17:03:22.482Z</time></trkpt><trkpt lat="38.589395" lon="16.1362533"><ele>108.0</ele><time>2026-05-03T17:03:23.483Z</time></trkpt><trkpt lat="38.5890417" lon="16.1361617"><ele>108.0</ele><time>2026-05-03T17:03:24.482Z</time></trkpt><trkpt lat="38.5886917" lon="16.1360633"><ele>108.0</ele><time>2026-05-03T17:03:25.484Z</time></trkpt><trkpt lat="38.5883467" lon="16.13596"><ele>106.0</ele><time>2026-05-03T17:03:26.484Z</time></trkpt><trkpt lat="38.5880017" lon="16.1358483"><ele>104.0</ele><time>2026-05-03T17:03:27.483Z</time></trkpt><trkpt lat="38.5876583" lon="16.1357283"><ele>107.5</ele><time>2026-05-03T17:03:28.483Z</time></trkpt><trkpt lat="38.5873183" lon="16.1356"><ele>111.0</ele><time>2026-05-03T17:03:29.483Z</time></trkpt><trkpt lat="38.5869817" lon="16.1354617"><ele>111.0</ele><time>2026-05-03T17:03:30.481Z</time></trkpt><trkpt lat="38.58665" lon="16.1353067"><ele>111.0</ele><time>2026-05-03T17:03:31.482Z</time></trkpt><trkpt lat="38.5863217" lon="16.1351333"><ele>113.0</ele><time>2026-05-03T17:03:32.482Z</time></trkpt><trkpt lat="38.586" lon="16.1349417"><ele>115.0</ele><time>2026-05-03T17:03:33.481Z</time></trkpt><trkpt lat="38.5856833" lon="16.1347367"><ele>115.0</ele><time>2026-05-03T17:03:34.482Z</time></trkpt><trkpt lat="38.5853717" lon="16.1345217"><ele>115.0</ele><time>2026-05-03T17:03:35.482Z</time></trkpt><trkpt lat="38.5850617" lon="16.1343"><ele>109.5</ele><time>2026-05-03T17:03:36.482Z</time></trkpt><trkpt lat="38.5847583" lon="16.1340683"><ele>104.0</ele><time>2026-05-03T17:03:37.482Z</time></trkpt><trkpt lat="38.58446" lon="16.1338267"><ele>103.0</ele><time>2026-05-03T17:03:38.482Z</time></trkpt><trkpt lat="38.584165" lon="16.1335767"><ele>102.0</ele><time>2026-05-03T17:03:39.482Z</time></trkpt><trkpt lat="38.5838783" lon="16.133315"><ele>99.5</ele><time>2026-05-03T17:03:40.481Z</time></trkpt><trkpt lat="38.5836" lon="16.1330433"><ele>97.0</ele><time>2026-05-03T17:03:41.482Z</time></trkpt><trkpt lat="38.5833267" lon="16.1327583"><ele>97.0</ele><time>2026-05-03T17:03:42.481Z</time></trkpt><trkpt lat="38.5830617" lon="16.1324667"><ele>97.0</ele><time>2026-05-03T17:03:43.482Z</time></trkpt><trkpt lat="38.5828067" lon="16.132165"><ele>97.0</ele><time>2026-05-03T17:03:44.482Z</time></trkpt><trkpt lat="38.5825583" lon="16.1318533"><ele>97.0</ele><time>2026-05-03T17:03:45.482Z</time></trkpt><trkpt lat="38.582315" lon="16.1315317"><ele>97.0</ele><time>2026-05-03T17:03:46.482Z</time></trkpt><trkpt lat="38.5820833" lon="16.1312017"><ele>97.0</ele><time>2026-05-03T17:03:47.483Z</time></trkpt><trkpt lat="38.58186" lon="16.130865"><ele>96.5</ele><time>2026-05-03T17:03:48.486Z</time></trkpt><trkpt lat="38.5816467" lon="16.1305233"><ele>96.0</ele><time>2026-05-03T17:03:49.483Z</time></trkpt><trkpt lat="38.58144" lon="16.1301767"><ele>100.0</ele><time>2026-05-03T17:03:50.483Z</time></trkpt><trkpt lat="38.58124" lon="16.129825"><ele>104.0</ele><time>2026-05-03T17:03:51.483Z</time></trkpt><trkpt lat="38.5810483" lon="16.12947"><ele>104.0</ele><time>2026-05-03T17:03:52.483Z</time></trkpt><trkpt lat="38.5808617" lon="16.12911"><ele>104.0</ele><time>2026-05-03T17:03:53.484Z</time></trkpt><trkpt lat="38.5806817" lon="16.1287433"><ele>106.5</ele><time>2026-05-03T17:03:54.482Z</time></trkpt><trkpt lat="38.5805083" lon="16.1283683"><ele>109.0</ele><time>2026-05-03T17:03:55.483Z</time></trkpt><trkpt lat="38.58034" lon="16.1279867"><ele>109.0</ele><time>2026-05-03T17:03:56.483Z</time></trkpt><trkpt lat="38.5801733" lon="16.1276"><ele>109.0</ele><time>2026-05-03T17:03:57.483Z</time></trkpt><trkpt lat="38.5800083" lon="16.1272133"><ele>109.0</ele><time>2026-05-03T17:03:58.483Z</time></trkpt><trkpt lat="38.57984" lon="16.126825"><ele>109.0</ele><time>2026-05-03T17:03:59.483Z</time></trkpt><trkpt lat="38.5796733" lon="16.1264317"><ele>105.5</ele><time>2026-05-03T17:04:00.482Z</time></trkpt><trkpt lat="38.579505" lon="16.1260367"><ele>102.0</ele><time>2026-05-03T17:04:01.482Z</time></trkpt><trkpt lat="38.5793383" lon="16.1256383"><ele>102.0</ele><time>2026-05-03T17:04:02.482Z</time></trkpt><trkpt lat="38.5791667" lon="16.12524"><ele>102.0</ele><time>2026-05-03T17:04:03.481Z</time></trkpt><trkpt lat="38.578995" lon="16.12484"><ele>105.0</ele><time>2026-05-03T17:04:04.483Z</time></trkpt><trkpt lat="38.5788233" lon="16.1244383"><ele>108.0</ele><time>2026-05-03T17:04:05.483Z</time></trkpt><trkpt lat="38.5786467" lon="16.1240383"><ele>108.0</ele><time>2026-05-03T17:04:06.482Z</time></trkpt><trkpt lat="38.57847" lon="16.1236367"><ele>108.0</ele><time>2026-05-03T17:04:07.483Z</time></trkpt><trkpt lat="38.578295" lon="16.1232333"><ele>111.0</ele><time>2026-05-03T17:04:08.483Z</time></trkpt><trkpt lat="38.5781183" lon="16.1228283"><ele>114.0</ele><time>2026-05-03T17:04:09.483Z</time></trkpt><trkpt lat="38.57795" lon="16.12242"><ele>113.5</ele><time>2026-05-03T17:04:10.482Z</time></trkpt><trkpt lat="38.5777767" lon="16.12201"><ele>113.0</ele><time>2026-05-03T17:04:11.482Z</time></trkpt><trkpt lat="38.577605" lon="16.121605"><ele>115.0</ele><time>2026-05-03T17:04:12.481Z</time></trkpt><trkpt lat="38.5774317" lon="16.1211983"><ele>117.0</ele><time>2026-05-03T17:04:13.482Z</time></trkpt><trkpt lat="38.57726" lon="16.12079"><ele>92.0</ele><time>2026-05-03T17:04:14.483Z</time></trkpt><trkpt lat="38.5748717" lon="16.1110667"><ele>93.5</ele><time>2026-05-03T17:04:36.482Z</time></trkpt><trkpt lat="38.574805" lon="16.1106083"><ele>95.0</ele><time>2026-05-03T17:04:37.482Z</time></trkpt><trkpt lat="38.5747367" lon="16.1101483"><ele>101.5</ele><time>2026-05-03T17:04:38.482Z</time></trkpt><trkpt lat="38.5746783" lon="16.1096817"><ele>108.0</ele><time>2026-05-03T17:04:39.482Z</time></trkpt><trkpt lat="38.5746217" lon="16.10922"><ele>108.0</ele><time>2026-05-03T17:04:40.484Z</time></trkpt><trkpt lat="38.574565" lon="16.1087567"><ele>108.0</ele><time>2026-05-03T17:04:41.483Z</time></trkpt><trkpt lat="38.5745" lon="16.1083083"><ele>98.5</ele><time>2026-05-03T17:04:42.483Z</time></trkpt><trkpt lat="38.574465" lon="16.10784"><ele>89.0</ele><time>2026-05-03T17:04:43.482Z</time></trkpt><trkpt lat="38.5744267" lon="16.1073783"><ele>89.0</ele><time>2026-05-03T17:04:44.484Z</time></trkpt><trkpt lat="38.57439" lon="16.1069233"><ele>89.0</ele><time>2026-05-03T17:04:45.482Z</time></trkpt><trkpt lat="38.5743567" lon="16.106465"><ele>90.5</ele><time>2026-05-03T17:04:46.483Z</time></trkpt><trkpt lat="38.57432" lon="16.10601"><ele>92.0</ele><time>2026-05-03T17:04:47.481Z</time></trkpt><trkpt lat="38.5742833" lon="16.105555"><ele>92.0</ele><time>2026-05-03T17:04:48.481Z</time></trkpt><trkpt lat="38.5742433" lon="16.1051017"><ele>92.0</ele><time>2026-05-03T17:04:49.483Z</time></trkpt><trkpt lat="38.5742" lon="16.10465"><ele>90.5</ele><time>2026-05-03T17:04:50.483Z</time></trkpt><trkpt lat="38.57416" lon="16.1042017"><ele>89.0</ele><time>2026-05-03T17:04:51.482Z</time></trkpt><trkpt lat="38.57412" lon="16.1037517"><ele>88.0</ele><time>2026-05-03T17:04:52.482Z</time></trkpt><trkpt lat="38.57408" lon="16.1033017"><ele>87.0</ele><time>2026-05-03T17:04:53.483Z</time></trkpt><trkpt lat="38.5740417" lon="16.1028533"><ele>86.5</ele><time>2026-05-03T17:04:54.482Z</time></trkpt><trkpt lat="38.5740017" lon="16.1024067"><ele>86.0</ele><time>2026-05-03T17:04:55.482Z</time></trkpt><trkpt lat="38.5739617" lon="16.10196"><ele>94.0</ele><time>2026-05-03T17:04:56.482Z</time></trkpt><trkpt lat="38.5739217" lon="16.101515"><ele>102.0</ele><time>2026-05-03T17:04:57.482Z</time></trkpt><trkpt lat="38.5738783" lon="16.101075"><ele>106.5</ele><time>2026-05-03T17:04:58.483Z</time></trkpt><trkpt lat="38.5738367" lon="16.1006317"><ele>111.0</ele><time>2026-05-03T17:04:59.481Z</time></trkpt><trkpt lat="38.573795" lon="16.1001867"><ele>105.5</ele><time>2026-05-03T17:05:00.481Z</time></trkpt><trkpt lat="38.5737567" lon="16.099745"><ele>100.0</ele><time>2026-05-03T17:05:01.482Z</time></trkpt><trkpt lat="38.5737133" lon="16.099305"><ele>91.0</ele><time>2026-05-03T17:05:02.482Z</time></trkpt><trkpt lat="38.57367" lon="16.098865"><ele>82.0</ele><time>2026-05-03T17:05:03.482Z</time></trkpt><trkpt lat="38.5736233" lon="16.09843"><ele>83.5</ele><time>2026-05-03T17:05:04.482Z</time></trkpt><trkpt lat="38.5735767" lon="16.097995"><ele>85.0</ele><time>2026-05-03T17:05:05.481Z</time></trkpt><trkpt lat="38.5735283" lon="16.097565"><ele>86.0</ele><time>2026-05-03T17:05:06.482Z</time></trkpt><trkpt lat="38.5734767" lon="16.0971333"><ele>87.0</ele><time>2026-05-03T17:05:07.482Z</time></trkpt><trkpt lat="38.57342" lon="16.0967033"><ele>88.5</ele><time>2026-05-03T17:05:08.482Z</time></trkpt><trkpt lat="38.573355" lon="16.0962733"><ele>90.0</ele><time>2026-05-03T17:05:09.481Z</time></trkpt><trkpt lat="38.5732833" lon="16.0958467"><ele>93.0</ele><time>2026-05-03T17:05:10.482Z</time></trkpt><trkpt lat="38.5732" lon="16.0954217"><ele>96.0</ele><time>2026-05-03T17:05:11.482Z</time></trkpt><trkpt lat="38.5731067" lon="16.095005"><ele>97.0</ele><time>2026-05-03T17:05:12.481Z</time></trkpt><trkpt lat="38.5729983" lon="16.0945917"><ele>98.0</ele><time>2026-05-03T17:05:13.481Z</time></trkpt><trkpt lat="38.5728767" lon="16.0941867"><ele>98.0</ele><time>2026-05-03T17:05:14.482Z</time></trkpt><trkpt lat="38.5727433" lon="16.0937883"><ele>98.0</ele><time>2026-05-03T17:05:15.482Z</time></trkpt><trkpt lat="38.5726" lon="16.093395"><ele>103.0</ele><time>2026-05-03T17:05:16.481Z</time></trkpt><trkpt lat="38.5724533" lon="16.0930017"><ele>108.0</ele><time>2026-05-03T17:05:17.481Z</time></trkpt><trkpt lat="38.5723083" lon="16.0926083"><ele>86.0</ele><time>2026-05-03T17:05:18.483Z</time></trkpt><trkpt lat="38.571865" lon="16.0914233"><ele>86.0</ele><time>2026-05-03T17:05:21.482Z</time></trkpt><trkpt lat="38.5715923" lon="16.0911242"><ele>86.0</ele><time>2026-05-03T17:05:22.483Z</time></trkpt><trkpt lat="38.571369" lon="16.0907838"><ele>89.0</ele><time>2026-05-03T17:05:23.483Z</time></trkpt><trkpt lat="38.5711312" lon="16.0904516"><ele>92.0</ele><time>2026-05-03T17:05:24.483Z</time></trkpt><trkpt lat="38.570884" lon="16.0901293"><ele>96.5</ele><time>2026-05-03T17:05:25.482Z</time></trkpt><trkpt lat="38.5706293" lon="16.0898124"><ele>101.0</ele><time>2026-05-03T17:05:26.483Z</time></trkpt><trkpt lat="38.5703646" lon="16.0895042"><ele>93.5</ele><time>2026-05-03T17:05:27.481Z</time></trkpt><trkpt lat="38.5700899" lon="16.0892031"><ele>86.0</ele><time>2026-05-03T17:05:28.482Z</time></trkpt><trkpt lat="38.569812" lon="16.0889078"><ele>86.0</ele><time>2026-05-03T17:05:29.482Z</time></trkpt><trkpt lat="38.5695316" lon="16.0886182"><ele>86.0</ele><time>2026-05-03T17:05:30.482Z</time></trkpt><trkpt lat="38.5692514" lon="16.0883337"><ele>86.5</ele><time>2026-05-03T17:05:31.482Z</time></trkpt><trkpt lat="38.568972" lon="16.0880548"><ele>87.0</ele><time>2026-05-03T17:05:32.483Z</time></trkpt><trkpt lat="38.5686948" lon="16.0877769"><ele>89.0</ele><time>2026-05-03T17:05:33.481Z</time></trkpt><trkpt lat="38.5684184" lon="16.0874965"><ele>91.0</ele><time>2026-05-03T17:05:34.482Z</time></trkpt><trkpt lat="38.5681453" lon="16.0872139"><ele>91.0</ele><time>2026-05-03T17:05:35.482Z</time></trkpt><trkpt lat="38.5678771" lon="16.086927"><ele>91.0</ele><time>2026-05-03T17:05:36.482Z</time></trkpt><trkpt lat="38.5676169" lon="16.0866329"><ele>92.0</ele><time>2026-05-03T17:05:37.482Z</time></trkpt><trkpt lat="38.5673621" lon="16.0863321"><ele>93.0</ele><time>2026-05-03T17:05:38.483Z</time></trkpt><trkpt lat="38.5671149" lon="16.0860232"><ele>88.5</ele><time>2026-05-03T17:05:39.482Z</time></trkpt><trkpt lat="38.5668772" lon="16.0857003"><ele>84.0</ele><time>2026-05-03T17:05:40.481Z</time></trkpt><trkpt lat="38.5666488" lon="16.0853592"><ele>84.0</ele><time>2026-05-03T17:05:41.482Z</time></trkpt><trkpt lat="38.5664373" lon="16.0849992"><ele>84.0</ele><time>2026-05-03T17:05:42.483Z</time></trkpt><trkpt lat="38.5662368" lon="16.0846281"><ele>82.0</ele><time>2026-05-03T17:05:43.482Z</time></trkpt><trkpt lat="38.5660428" lon="16.0842502"><ele>80.0</ele><time>2026-05-03T17:05:44.482Z</time></trkpt><trkpt lat="38.5658545" lon="16.0838667"><ele>80.0</ele><time>2026-05-03T17:05:45.482Z</time></trkpt><trkpt lat="38.5656734" lon="16.0834782"><ele>80.0</ele><time>2026-05-03T17:05:46.482Z</time></trkpt><trkpt lat="38.5654959" lon="16.0830876"><ele>80.5</ele><time>2026-05-03T17:05:47.483Z</time></trkpt><trkpt lat="38.5653241" lon="16.0826914"><ele>81.0</ele><time>2026-05-03T17:05:48.483Z</time></trkpt><trkpt lat="38.5651549" lon="16.0822898"><ele>81.0</ele><time>2026-05-03T17:05:49.484Z</time></trkpt><trkpt lat="38.5649849" lon="16.0818874"><ele>81.0</ele><time>2026-05-03T17:05:50.485Z</time></trkpt><trkpt lat="38.5648153" lon="16.0814885"><ele>78.5</ele><time>2026-05-03T17:05:51.482Z</time></trkpt><trkpt lat="38.564648" lon="16.0810857"><ele>76.0</ele><time>2026-05-03T17:05:52.484Z</time></trkpt><trkpt lat="38.5644833" lon="16.0806767"><ele>76.0</ele><time>2026-05-03T17:05:53.483Z</time></trkpt><trkpt lat="38.5643183" lon="16.08027"><ele>76.0</ele><time>2026-05-03T17:05:54.481Z</time></trkpt><trkpt lat="38.564155" lon="16.079865"><ele>77.0</ele><time>2026-05-03T17:05:55.482Z</time></trkpt><trkpt lat="38.563995" lon="16.079455"><ele>78.0</ele><time>2026-05-03T17:05:56.482Z</time></trkpt><trkpt lat="38.5638417" lon="16.0790417"><ele>79.0</ele><time>2026-05-03T17:05:57.483Z</time></trkpt><trkpt lat="38.5636983" lon="16.07862"><ele>80.0</ele><time>2026-05-03T17:05:58.482Z</time></trkpt><trkpt lat="38.56356" lon="16.0781983"><ele>80.0</ele><time>2026-05-03T17:05:59.481Z</time></trkpt><trkpt lat="38.5634233" lon="16.0777733"><ele>80.0</ele><time>2026-05-03T17:06:00.483Z</time></trkpt><trkpt lat="38.5632833" lon="16.0773517"><ele>81.5</ele><time>2026-05-03T17:06:01.482Z</time></trkpt><trkpt lat="38.5631333" lon="16.076935"><ele>83.0</ele><time>2026-05-03T17:06:02.482Z</time></trkpt><trkpt lat="38.562975" lon="16.0765283"><ele>82.5</ele><time>2026-05-03T17:06:03.483Z</time></trkpt><trkpt lat="38.5628067" lon="16.0761283"><ele>82.0</ele><time>2026-05-03T17:06:04.483Z</time></trkpt><trkpt lat="38.5626267" lon="16.0757367"><ele>82.0</ele><time>2026-05-03T17:06:05.481Z</time></trkpt><trkpt lat="38.5624433" lon="16.0753533"><ele>82.0</ele><time>2026-05-03T17:06:06.482Z</time></trkpt><trkpt lat="38.56225" lon="16.0749783"><ele>83.0</ele><time>2026-05-03T17:06:07.482Z</time></trkpt><trkpt lat="38.562045" lon="16.07461"><ele>84.0</ele><time>2026-05-03T17:06:08.482Z</time></trkpt><trkpt lat="38.561825" lon="16.0742567"><ele>84.5</ele><time>2026-05-03T17:06:09.482Z</time></trkpt><trkpt lat="38.56159" lon="16.0739133"><ele>85.0</ele><time>2026-05-03T17:06:10.483Z</time></trkpt><trkpt lat="38.561345" lon="16.07358"><ele>85.5</ele><time>2026-05-03T17:06:11.482Z</time></trkpt><trkpt lat="38.56109" lon="16.0732567"><ele>86.0</ele><time>2026-05-03T17:06:12.483Z</time></trkpt><trkpt lat="38.5608267" lon="16.0729467"><ele>86.0</ele><time>2026-05-03T17:06:13.482Z</time></trkpt><trkpt lat="38.5605533" lon="16.0726483"><ele>86.0</ele><time>2026-05-03T17:06:14.482Z</time></trkpt><trkpt lat="38.5602683" lon="16.0723617"><ele>83.0</ele><time>2026-05-03T17:06:15.482Z</time></trkpt><trkpt lat="38.559975" lon="16.0720867"><ele>80.0</ele><time>2026-05-03T17:06:16.482Z</time></trkpt><trkpt lat="38.5596717" lon="16.0718283"><ele>81.5</ele><time>2026-05-03T17:06:17.481Z</time></trkpt><trkpt lat="38.5593617" lon="16.0715883"><ele>83.0</ele><time>2026-05-03T17:06:18.481Z</time></trkpt><trkpt lat="38.5590417" lon="16.07137"><ele>83.0</ele><time>2026-05-03T17:06:19.482Z</time></trkpt><trkpt lat="38.5587133" lon="16.0711667"><ele>83.0</ele><time>2026-05-03T17:06:20.482Z</time></trkpt><trkpt lat="38.5583767" lon="16.0709767"><ele>77.5</ele><time>2026-05-03T17:06:21.482Z</time></trkpt><trkpt lat="38.558035" lon="16.0708033"><ele>72.0</ele><time>2026-05-03T17:06:22.482Z</time></trkpt><trkpt lat="38.5576883" lon="16.07065"><ele>71.0</ele><time>2026-05-03T17:06:23.481Z</time></trkpt><trkpt lat="38.5573367" lon="16.0705133"><ele>70.0</ele><time>2026-05-03T17:06:24.481Z</time></trkpt><trkpt lat="38.5569833" lon="16.0703967"><ele>69.0</ele><time>2026-05-03T17:06:25.481Z</time></trkpt><trkpt lat="38.5566267" lon="16.0702967"><ele>68.0</ele><time>2026-05-03T17:06:26.481Z</time></trkpt><trkpt lat="38.556265" lon="16.0702117"><ele>68.5</ele><time>2026-05-03T17:06:27.482Z</time></trkpt><trkpt lat="38.5559033" lon="16.070145"><ele>69.0</ele><time>2026-05-03T17:06:28.483Z</time></trkpt><trkpt lat="38.5555383" lon="16.0700917"><ele>69.5</ele><time>2026-05-03T17:06:29.482Z</time></trkpt><trkpt lat="38.555175" lon="16.07005"><ele>70.0</ele><time>2026-05-03T17:06:30.482Z</time></trkpt><trkpt lat="38.55481" lon="16.070015"><ele>70.0</ele><time>2026-05-03T17:06:31.482Z</time></trkpt><trkpt lat="38.5544467" lon="16.0699767"><ele>70.0</ele><time>2026-05-03T17:06:32.483Z</time></trkpt><trkpt lat="38.5540833" lon="16.0699333"><ele>74.5</ele><time>2026-05-03T17:06:33.482Z</time></trkpt><trkpt lat="38.55372" lon="16.069885"><ele>79.0</ele><time>2026-05-03T17:06:34.482Z</time></trkpt><trkpt lat="38.553355" lon="16.0698283"><ele>86.0</ele><time>2026-05-03T17:06:35.481Z</time></trkpt><trkpt lat="38.5529933" lon="16.06976"><ele>93.0</ele><time>2026-05-03T17:06:36.482Z</time></trkpt><trkpt lat="38.552635" lon="16.0696733"><ele>94.5</ele><time>2026-05-03T17:06:37.482Z</time></trkpt><trkpt lat="38.5522783" lon="16.0695733"><ele>96.0</ele><time>2026-05-03T17:06:38.482Z</time></trkpt><trkpt lat="38.5519233" lon="16.0694533"><ele>93.0</ele><time>2026-05-03T17:06:39.482Z</time></trkpt><trkpt lat="38.551575" lon="16.0693117"><ele>90.0</ele><time>2026-05-03T17:06:40.483Z</time></trkpt><trkpt lat="38.55123" lon="16.06915"><ele>91.0</ele><time>2026-05-03T17:06:41.481Z</time></trkpt><trkpt lat="38.5508917" lon="16.0689717"><ele>92.0</ele><time>2026-05-03T17:06:42.482Z</time></trkpt><trkpt lat="38.5505567" lon="16.0687833"><ele>84.0</ele><time>2026-05-03T17:06:43.482Z</time></trkpt><trkpt lat="38.5502267" lon="16.0685817"><ele>76.0</ele><time>2026-05-03T17:06:44.483Z</time></trkpt><trkpt lat="38.5498933" lon="16.068375"><ele>79.5</ele><time>2026-05-03T17:06:45.482Z</time></trkpt><trkpt lat="38.54956" lon="16.06817"><ele>83.0</ele><time>2026-05-03T17:06:46.481Z</time></trkpt><trkpt lat="38.5492267" lon="16.0679617"><ele>85.5</ele><time>2026-05-03T17:06:47.482Z</time></trkpt><trkpt lat="38.5488967" lon="16.067755"><ele>88.0</ele><time>2026-05-03T17:06:48.481Z</time></trkpt><trkpt lat="38.5485617" lon="16.0675467"><ele>87.0</ele><time>2026-05-03T17:06:49.481Z</time></trkpt><trkpt lat="38.5482283" lon="16.06734"><ele>86.0</ele><time>2026-05-03T17:06:50.483Z</time></trkpt><trkpt lat="38.5478917" lon="16.0671317"><ele>83.0</ele><time>2026-05-03T17:06:51.482Z</time></trkpt><trkpt lat="38.547555" lon="16.0669233"><ele>80.0</ele><time>2026-05-03T17:06:52.482Z</time></trkpt><trkpt lat="38.54722" lon="16.0667133"><ele>80.0</ele><time>2026-05-03T17:06:53.481Z</time></trkpt><trkpt lat="38.546885" lon="16.0665"><ele>80.0</ele><time>2026-05-03T17:06:54.481Z</time></trkpt><trkpt lat="38.54655" lon="16.06629"><ele>80.0</ele><time>2026-05-03T17:06:55.482Z</time></trkpt><trkpt lat="38.5462183" lon="16.0660733"><ele>80.0</ele><time>2026-05-03T17:06:56.482Z</time></trkpt><trkpt lat="38.54589" lon="16.0658583"><ele>72.0</ele><time>2026-05-03T17:06:57.481Z</time></trkpt><trkpt lat="38.5455617" lon="16.0656417"><ele>64.0</ele><time>2026-05-03T17:06:58.483Z</time></trkpt><trkpt lat="38.54524" lon="16.065425"><ele>64.0</ele><time>2026-05-03T17:06:59.481Z</time></trkpt><trkpt lat="38.5449217" lon="16.0652033"><ele>64.0</ele><time>2026-05-03T17:07:00.481Z</time></trkpt><trkpt lat="38.5446067" lon="16.0649717"><ele>63.0</ele><time>2026-05-03T17:07:01.482Z</time></trkpt><trkpt lat="38.544295" lon="16.0647333"><ele>62.0</ele><time>2026-05-03T17:07:02.483Z</time></trkpt><trkpt lat="38.54399" lon="16.0644883"><ele>63.0</ele><time>2026-05-03T17:07:03.482Z</time></trkpt><trkpt lat="38.5436883" lon="16.0642367"><ele>64.0</ele><time>2026-05-03T17:07:04.482Z</time></trkpt><trkpt lat="38.54339" lon="16.063975"><ele>64.0</ele><time>2026-05-03T17:07:05.482Z</time></trkpt><trkpt lat="38.543095" lon="16.0637033"><ele>64.0</ele><time>2026-05-03T17:07:06.482Z</time></trkpt><trkpt lat="38.5428033" lon="16.0634283"><ele>62.5</ele><time>2026-05-03T17:07:07.482Z</time></trkpt><trkpt lat="38.5425117" lon="16.0631433"><ele>61.0</ele><time>2026-05-03T17:07:08.481Z</time></trkpt><trkpt lat="38.5422167" lon="16.0628617"><ele>60.5</ele><time>2026-05-03T17:07:09.482Z</time></trkpt><trkpt lat="38.541925" lon="16.062575"><ele>60.0</ele><time>2026-05-03T17:07:10.482Z</time></trkpt><trkpt lat="38.5416333" lon="16.0622867"><ele>60.0</ele><time>2026-05-03T17:07:11.482Z</time></trkpt><trkpt lat="38.5413433" lon="16.0619967"><ele>60.0</ele><time>2026-05-03T17:07:12.481Z</time></trkpt><trkpt lat="38.5410533" lon="16.061705"><ele>59.5</ele><time>2026-05-03T17:07:13.482Z</time></trkpt><trkpt lat="38.5407617" lon="16.0614117"><ele>59.0</ele><time>2026-05-03T17:07:14.482Z</time></trkpt><trkpt lat="38.54047" lon="16.0611183"><ele>58.5</ele><time>2026-05-03T17:07:15.481Z</time></trkpt><trkpt lat="38.54018" lon="16.0608233"><ele>58.0</ele><time>2026-05-03T17:07:16.481Z</time></trkpt><trkpt lat="38.5398867" lon="16.0605317"><ele>58.0</ele><time>2026-05-03T17:07:17.482Z</time></trkpt><trkpt lat="38.539595" lon="16.0602417"><ele>58.0</ele><time>2026-05-03T17:07:18.481Z</time></trkpt><trkpt lat="38.5393017" lon="16.05995"><ele>58.5</ele><time>2026-05-03T17:07:19.483Z</time></trkpt><trkpt lat="38.5390067" lon="16.0596583"><ele>59.0</ele><time>2026-05-03T17:07:20.483Z</time></trkpt><trkpt lat="38.5387133" lon="16.05937"><ele>59.0</ele><time>2026-05-03T17:07:21.483Z</time></trkpt><trkpt lat="38.53842" lon="16.05908"><ele>59.0</ele><time>2026-05-03T17:07:22.482Z</time></trkpt><trkpt lat="38.5381267" lon="16.05879"><ele>58.0</ele><time>2026-05-03T17:07:23.482Z</time></trkpt><trkpt lat="38.537835" lon="16.0585033"><ele>57.0</ele><time>2026-05-03T17:07:24.481Z</time></trkpt><trkpt lat="38.5375433" lon="16.0582133"><ele>57.0</ele><time>2026-05-03T17:07:25.483Z</time></trkpt><trkpt lat="38.5372533" lon="16.0579217"><ele>57.0</ele><time>2026-05-03T17:07:26.483Z</time></trkpt><trkpt lat="38.536965" lon="16.05763"><ele>56.5</ele><time>2026-05-03T17:07:27.482Z</time></trkpt><trkpt lat="38.53668" lon="16.057335"><ele>56.0</ele><time>2026-05-03T17:07:28.482Z</time></trkpt><trkpt lat="38.5363967" lon="16.05704"><ele>56.0</ele><time>2026-05-03T17:07:29.482Z</time></trkpt><trkpt lat="38.5361133" lon="16.0567433"><ele>56.0</ele><time>2026-05-03T17:07:30.482Z</time></trkpt><trkpt lat="38.5358283" lon="16.0564433"><ele>56.0</ele><time>2026-05-03T17:07:31.481Z</time></trkpt><trkpt lat="38.5355467" lon="16.0561417"><ele>56.0</ele><time>2026-05-03T17:07:32.483Z</time></trkpt><trkpt lat="38.5352633" lon="16.0558433"><ele>57.0</ele><time>2026-05-03T17:07:33.482Z</time></trkpt><trkpt lat="38.5349783" lon="16.055545"><ele>58.0</ele><time>2026-05-03T17:07:34.483Z</time></trkpt><trkpt lat="38.534695" lon="16.0552467"><ele>60.5</ele><time>2026-05-03T17:07:35.482Z</time></trkpt><trkpt lat="38.5344083" lon="16.0549517"><ele>63.0</ele><time>2026-05-03T17:07:36.482Z</time></trkpt><trkpt lat="38.5341217" lon="16.05466"><ele>63.0</ele><time>2026-05-03T17:07:37.481Z</time></trkpt><trkpt lat="38.53383" lon="16.0543733"><ele>63.0</ele><time>2026-05-03T17:07:38.482Z</time></trkpt><trkpt lat="38.53353" lon="16.0541017"><ele>62.5</ele><time>2026-05-03T17:07:39.481Z</time></trkpt><trkpt lat="38.5332217" lon="16.0538433"><ele>62.0</ele><time>2026-05-03T17:07:40.482Z</time></trkpt><trkpt lat="38.5329033" lon="16.0536033"><ele>65.0</ele><time>2026-05-03T17:07:41.482Z</time></trkpt><trkpt lat="38.5325767" lon="16.053385"><ele>68.0</ele><time>2026-05-03T17:07:42.482Z</time></trkpt><trkpt lat="38.5322417" lon="16.0531867"><ele>62.0</ele><time>2026-05-03T17:07:43.482Z</time></trkpt><trkpt lat="38.5318967" lon="16.0530083"><ele>56.0</ele><time>2026-05-03T17:07:44.483Z</time></trkpt><trkpt lat="38.5315467" lon="16.0528467"><ele>54.0</ele><time>2026-05-03T17:07:45.482Z</time></trkpt><trkpt lat="38.5311933" lon="16.0527"><ele>52.0</ele><time>2026-05-03T17:07:46.482Z</time></trkpt><trkpt lat="38.5308367" lon="16.0525683"><ele>52.0</ele><time>2026-05-03T17:07:47.482Z</time></trkpt><trkpt lat="38.5304767" lon="16.0524583"><ele>52.0</ele><time>2026-05-03T17:07:48.482Z</time></trkpt><trkpt lat="38.530115" lon="16.05237"><ele>52.5</ele><time>2026-05-03T17:07:49.481Z</time></trkpt><trkpt lat="38.52975" lon="16.0523017"><ele>53.0</ele><time>2026-05-03T17:07:50.483Z</time></trkpt><trkpt lat="38.5293883" lon="16.0522533"><ele>53.0</ele><time>2026-05-03T17:07:51.482Z</time></trkpt><trkpt lat="38.529025" lon="16.0522233"><ele>53.0</ele><time>2026-05-03T17:07:52.482Z</time></trkpt><trkpt lat="38.528665" lon="16.05222"><ele>51.5</ele><time>2026-05-03T17:07:53.481Z</time></trkpt><trkpt lat="38.5283017" lon="16.052235"><ele>50.0</ele><time>2026-05-03T17:07:54.482Z</time></trkpt><trkpt lat="38.5279417" lon="16.0522683"><ele>52.0</ele><time>2026-05-03T17:07:55.481Z</time></trkpt><trkpt lat="38.5275817" lon="16.0523133"><ele>54.0</ele><time>2026-05-03T17:07:56.481Z</time></trkpt><trkpt lat="38.5272267" lon="16.05237"><ele>54.0</ele><time>2026-05-03T17:07:57.483Z</time></trkpt><trkpt lat="38.5268733" lon="16.0524317"><ele>54.0</ele><time>2026-05-03T17:07:58.482Z</time></trkpt><trkpt lat="38.5265233" lon="16.0525"><ele>53.5</ele><time>2026-05-03T17:07:59.481Z</time></trkpt><trkpt lat="38.526175" lon="16.05257"><ele>53.0</ele><time>2026-05-03T17:08:00.481Z</time></trkpt><trkpt lat="38.5258267" lon="16.0526367"><ele>53.0</ele><time>2026-05-03T17:08:01.483Z</time></trkpt><trkpt lat="38.52548" lon="16.0526983"><ele>53.0</ele><time>2026-05-03T17:08:02.481Z</time></trkpt><trkpt lat="38.5251317" lon="16.05276"><ele>52.5</ele><time>2026-05-03T17:08:03.482Z</time></trkpt><trkpt lat="38.5247917" lon="16.0528167"><ele>52.0</ele><time>2026-05-03T17:08:04.482Z</time></trkpt><trkpt lat="38.5244517" lon="16.0528667"><ele>53.5</ele><time>2026-05-03T17:08:05.481Z</time></trkpt><trkpt lat="38.5241067" lon="16.0529083"><ele>55.0</ele><time>2026-05-03T17:08:06.482Z</time></trkpt><trkpt lat="38.5237617" lon="16.0529367"><ele>59.5</ele><time>2026-05-03T17:08:07.482Z</time></trkpt><trkpt lat="38.52342" lon="16.05295"><ele>64.0</ele><time>2026-05-03T17:08:08.483Z</time></trkpt><trkpt lat="38.523075" lon="16.0529467"><ele>67.0</ele><time>2026-05-03T17:08:09.481Z</time></trkpt><trkpt lat="38.52273" lon="16.0529267"><ele>70.0</ele><time>2026-05-03T17:08:10.483Z</time></trkpt><trkpt lat="38.522385" lon="16.0528933"><ele>63.5</ele><time>2026-05-03T17:08:11.482Z</time></trkpt><trkpt lat="38.52204" lon="16.052845"><ele>57.0</ele><time>2026-05-03T17:08:12.483Z</time></trkpt><trkpt lat="38.5216917" lon="16.0527783"><ele>57.0</ele><time>2026-05-03T17:08:13.481Z</time></trkpt><trkpt lat="38.5213467" lon="16.0527"><ele>57.0</ele><time>2026-05-03T17:08:14.482Z</time></trkpt><trkpt lat="38.5210033" lon="16.0526117"><ele>56.5</ele><time>2026-05-03T17:08:15.482Z</time></trkpt><trkpt lat="38.5206633" lon="16.05251"><ele>56.0</ele><time>2026-05-03T17:08:16.481Z</time></trkpt><trkpt lat="38.5203233" lon="16.0523967"><ele>56.0</ele><time>2026-05-03T17:08:17.482Z</time></trkpt><trkpt lat="38.5199883" lon="16.0522717"><ele>56.0</ele><time>2026-05-03T17:08:18.482Z</time></trkpt><trkpt lat="38.519655" lon="16.0521367"><ele>53.5</ele><time>2026-05-03T17:08:19.481Z</time></trkpt><trkpt lat="38.5193233" lon="16.0519933"><ele>51.0</ele><time>2026-05-03T17:08:20.483Z</time></trkpt><trkpt lat="38.5189933" lon="16.05185"><ele>50.0</ele><time>2026-05-03T17:08:21.482Z</time></trkpt><trkpt lat="38.5186633" lon="16.051695"><ele>49.0</ele><time>2026-05-03T17:08:22.483Z</time></trkpt><trkpt lat="38.518335" lon="16.0515367"><ele>55.0</ele><time>2026-05-03T17:08:23.482Z</time></trkpt><trkpt lat="38.5180067" lon="16.0513717"><ele>61.0</ele><time>2026-05-03T17:08:24.482Z</time></trkpt><trkpt lat="38.5176767" lon="16.0512033"><ele>61.0</ele><time>2026-05-03T17:08:25.481Z</time></trkpt><trkpt lat="38.5173483" lon="16.0510283"><ele>61.0</ele><time>2026-05-03T17:08:26.482Z</time></trkpt><trkpt lat="38.5170217" lon="16.0508517"><ele>62.0</ele><time>2026-05-03T17:08:27.483Z</time></trkpt><trkpt lat="38.5166967" lon="16.0506667"><ele>63.0</ele><time>2026-05-03T17:08:28.482Z</time></trkpt><trkpt lat="38.5163717" lon="16.0504767"><ele>58.0</ele><time>2026-05-03T17:08:29.482Z</time></trkpt><trkpt lat="38.5160483" lon="16.0502883"><ele>53.0</ele><time>2026-05-03T17:08:30.482Z</time></trkpt><trkpt lat="38.515725" lon="16.050095"><ele>51.0</ele><time>2026-05-03T17:08:31.482Z</time></trkpt><trkpt lat="38.5154" lon="16.0499"><ele>49.0</ele><time>2026-05-03T17:08:32.483Z</time></trkpt><trkpt lat="38.5150783" lon="16.0497"><ele>49.0</ele><time>2026-05-03T17:08:33.482Z</time></trkpt><trkpt lat="38.5147583" lon="16.0494867"><ele>49.0</ele><time>2026-05-03T17:08:34.482Z</time></trkpt><trkpt lat="38.5144467" lon="16.04927"><ele>48.0</ele><time>2026-05-03T17:08:35.482Z</time></trkpt><trkpt lat="38.5141433" lon="16.0490467"><ele>47.0</ele><time>2026-05-03T17:08:36.482Z</time></trkpt><trkpt lat="38.513845" lon="16.0488117"><ele>46.5</ele><time>2026-05-03T17:08:37.483Z</time></trkpt><trkpt lat="38.5135533" lon="16.0485733"><ele>46.0</ele><time>2026-05-03T17:08:38.483Z</time></trkpt><trkpt lat="38.513265" lon="16.0483233"><ele>46.0</ele><time>2026-05-03T17:08:39.482Z</time></trkpt><trkpt lat="38.5129817" lon="16.0480667"><ele>46.0</ele><time>2026-05-03T17:08:40.483Z</time></trkpt><trkpt lat="38.5127033" lon="16.0478"><ele>46.0</ele><time>2026-05-03T17:08:41.481Z</time></trkpt><trkpt lat="38.5124283" lon="16.047525"><ele>46.0</ele><time>2026-05-03T17:08:42.482Z</time></trkpt><trkpt lat="38.5121583" lon="16.04724"><ele>46.0</ele><time>2026-05-03T17:08:43.482Z</time></trkpt><trkpt lat="38.5118933" lon="16.04695"><ele>46.0</ele><time>2026-05-03T17:08:44.484Z</time></trkpt><trkpt lat="38.5116317" lon="16.0466533"><ele>45.5</ele><time>2026-05-03T17:08:45.482Z</time></trkpt><trkpt lat="38.511375" lon="16.04635"><ele>45.0</ele><time>2026-05-03T17:08:46.482Z</time></trkpt><trkpt lat="38.5111183" lon="16.046045"><ele>45.0</ele><time>2026-05-03T17:08:47.482Z</time></trkpt><trkpt lat="38.510865" lon="16.0457367"><ele>45.0</ele><time>2026-05-03T17:08:48.483Z</time></trkpt><trkpt lat="38.5106133" lon="16.0454267"><ele>45.0</ele><time>2026-05-03T17:08:49.481Z</time></trkpt><trkpt lat="38.5103617" lon="16.0451133"><ele>45.0</ele><time>2026-05-03T17:08:50.483Z</time></trkpt><trkpt lat="38.510115" lon="16.0447967"><ele>45.0</ele><time>2026-05-03T17:08:51.482Z</time></trkpt><trkpt lat="38.5098683" lon="16.0444767"><ele>45.0</ele><time>2026-05-03T17:08:52.481Z</time></trkpt><trkpt lat="38.50963" lon="16.0441517"><ele>44.5</ele><time>2026-05-03T17:08:53.482Z</time></trkpt><trkpt lat="38.5093933" lon="16.0438217"><ele>44.0</ele><time>2026-05-03T17:08:54.482Z</time></trkpt><trkpt lat="38.5091583" lon="16.0434883"><ele>43.5</ele><time>2026-05-03T17:08:55.482Z</time></trkpt><trkpt lat="38.508925" lon="16.043155"><ele>43.0</ele><time>2026-05-03T17:08:56.483Z</time></trkpt><trkpt lat="38.5086933" lon="16.0428217"><ele>43.0</ele><time>2026-05-03T17:08:57.485Z</time></trkpt><trkpt lat="38.5084617" lon="16.042485"><ele>43.0</ele><time>2026-05-03T17:08:58.482Z</time></trkpt><trkpt lat="38.50823" lon="16.0421483"><ele>43.0</ele><time>2026-05-03T17:08:59.483Z</time></trkpt><trkpt lat="38.5080033" lon="16.0418083"><ele>43.0</ele><time>2026-05-03T17:09:00.482Z</time></trkpt><trkpt lat="38.5077817" lon="16.041465"><ele>42.5</ele><time>2026-05-03T17:09:01.481Z</time></trkpt><trkpt lat="38.5075633" lon="16.0411183"><ele>42.0</ele><time>2026-05-03T17:09:02.483Z</time></trkpt><trkpt lat="38.5073483" lon="16.040775"><ele>42.0</ele><time>2026-05-03T17:09:03.482Z</time></trkpt><trkpt lat="38.507135" lon="16.0404283"><ele>42.0</ele><time>2026-05-03T17:09:04.481Z</time></trkpt><trkpt lat="38.5069233" lon="16.04008"><ele>41.0</ele><time>2026-05-03T17:09:05.481Z</time></trkpt><trkpt lat="38.5067117" lon="16.0397317"><ele>40.0</ele><time>2026-05-03T17:09:06.482Z</time></trkpt><trkpt lat="38.506495" lon="16.039385"><ele>40.0</ele><time>2026-05-03T17:09:07.481Z</time></trkpt><trkpt lat="38.5062767" lon="16.0390367"><ele>40.0</ele><time>2026-05-03T17:09:08.483Z</time></trkpt><trkpt lat="38.5060617" lon="16.0386867"><ele>40.0</ele><time>2026-05-03T17:09:09.483Z</time></trkpt><trkpt lat="38.5058483" lon="16.0383367"><ele>40.0</ele><time>2026-05-03T17:09:10.482Z</time></trkpt><trkpt lat="38.5056367" lon="16.037985"><ele>40.0</ele><time>2026-05-03T17:09:11.483Z</time></trkpt><trkpt lat="38.5054233" lon="16.0376317"><ele>40.0</ele><time>2026-05-03T17:09:12.482Z</time></trkpt><trkpt lat="38.5052117" lon="16.03728"><ele>40.0</ele><time>2026-05-03T17:09:13.482Z</time></trkpt><trkpt lat="38.5049983" lon="16.0369267"><ele>40.0</ele><time>2026-05-03T17:09:14.481Z</time></trkpt><trkpt lat="38.50478" lon="16.0365767"><ele>39.5</ele><time>2026-05-03T17:09:15.482Z</time></trkpt><trkpt lat="38.5045617" lon="16.0362233"><ele>39.0</ele><time>2026-05-03T17:09:16.482Z</time></trkpt><trkpt lat="38.50434" lon="16.03587"><ele>39.0</ele><time>2026-05-03T17:09:17.481Z</time></trkpt><trkpt lat="38.50412" lon="16.0355167"><ele>39.0</ele><time>2026-05-03T17:09:18.482Z</time></trkpt><trkpt lat="38.5039" lon="16.0351583"><ele>39.5</ele><time>2026-05-03T17:09:19.482Z</time></trkpt><trkpt lat="38.5036817" lon="16.034795"><ele>40.0</ele><time>2026-05-03T17:09:20.482Z</time></trkpt><trkpt lat="38.5034617" lon="16.0344317"><ele>39.5</ele><time>2026-05-03T17:09:21.482Z</time></trkpt><trkpt lat="38.50324" lon="16.0340667"><ele>39.0</ele><time>2026-05-03T17:09:22.483Z</time></trkpt><trkpt lat="38.5030217" lon="16.0337"><ele>39.0</ele><time>2026-05-03T17:09:23.481Z</time></trkpt><trkpt lat="38.502805" lon="16.03333"><ele>39.0</ele><time>2026-05-03T17:09:24.482Z</time></trkpt><trkpt lat="38.5025917" lon="16.0329583"><ele>39.0</ele><time>2026-05-03T17:09:25.481Z</time></trkpt><trkpt lat="38.50238" lon="16.0325817"><ele>39.0</ele><time>2026-05-03T17:09:26.481Z</time></trkpt><trkpt lat="38.5021717" lon="16.0322033"><ele>39.0</ele><time>2026-05-03T17:09:27.482Z</time></trkpt><trkpt lat="38.5019667" lon="16.03182"><ele>39.0</ele><time>2026-05-03T17:09:28.482Z</time></trkpt><trkpt lat="38.5017733" lon="16.0314283"><ele>39.0</ele><time>2026-05-03T17:09:29.481Z</time></trkpt><trkpt lat="38.5015867" lon="16.0310267"><ele>39.0</ele><time>2026-05-03T17:09:30.483Z</time></trkpt><trkpt lat="38.5014267" lon="16.030625"><ele>40.0</ele><time>2026-05-03T17:09:31.482Z</time></trkpt><trkpt lat="38.5012733" lon="16.0301967"><ele>41.0</ele><time>2026-05-03T17:09:32.483Z</time></trkpt><trkpt lat="38.5011133" lon="16.02981"><ele>39.5</ele><time>2026-05-03T17:09:33.482Z</time></trkpt><trkpt lat="38.5009633" lon="16.0293983"><ele>38.0</ele><time>2026-05-03T17:09:34.481Z</time></trkpt><trkpt lat="38.5008267" lon="16.0289717"><ele>38.0</ele><time>2026-05-03T17:09:35.482Z</time></trkpt><trkpt lat="38.500705" lon="16.0285383"><ele>38.0</ele><time>2026-05-03T17:09:36.483Z</time></trkpt><trkpt lat="38.5005917" lon="16.0281017"><ele>37.5</ele><time>2026-05-03T17:09:37.482Z</time></trkpt><trkpt lat="38.5004883" lon="16.0276633"><ele>37.0</ele><time>2026-05-03T17:09:38.483Z</time></trkpt><trkpt lat="38.5003917" lon="16.027225"><ele>37.0</ele><time>2026-05-03T17:09:39.482Z</time></trkpt><trkpt lat="38.5002983" lon="16.0267817"><ele>37.0</ele><time>2026-05-03T17:09:40.481Z</time></trkpt><trkpt lat="38.5002133" lon="16.026335"><ele>36.5</ele><time>2026-05-03T17:09:41.482Z</time></trkpt><trkpt lat="38.50013" lon="16.02589"><ele>36.0</ele><time>2026-05-03T17:09:42.482Z</time></trkpt><trkpt lat="38.50005" lon="16.0254433"><ele>35.5</ele><time>2026-05-03T17:09:43.481Z</time></trkpt><trkpt lat="38.4999683" lon="16.0249967"><ele>35.0</ele><time>2026-05-03T17:09:44.483Z</time></trkpt><trkpt lat="38.4998867" lon="16.0245517"><ele>35.5</ele><time>2026-05-03T17:09:45.481Z</time></trkpt><trkpt lat="38.499805" lon="16.02411"><ele>36.0</ele><time>2026-05-03T17:09:46.481Z</time></trkpt><trkpt lat="38.4997217" lon="16.02367"><ele>36.0</ele><time>2026-05-03T17:09:47.481Z</time></trkpt><trkpt lat="38.4996367" lon="16.023235"><ele>36.0</ele><time>2026-05-03T17:09:48.482Z</time></trkpt><trkpt lat="38.499545" lon="16.0228"><ele>34.0</ele><time>2026-05-03T17:09:49.481Z</time></trkpt><trkpt lat="38.49945" lon="16.022365"><ele>32.0</ele><time>2026-05-03T17:09:50.483Z</time></trkpt><trkpt lat="38.49935" lon="16.02193"><ele>33.0</ele><time>2026-05-03T17:09:51.482Z</time></trkpt><trkpt lat="38.4992467" lon="16.0214967"><ele>34.0</ele><time>2026-05-03T17:09:52.482Z</time></trkpt><trkpt lat="38.4991367" lon="16.0210667"><ele>34.0</ele><time>2026-05-03T17:09:53.481Z</time></trkpt><trkpt lat="38.4990217" lon="16.0206417"><ele>34.0</ele><time>2026-05-03T17:09:54.482Z</time></trkpt><trkpt lat="38.4989" lon="16.02022"><ele>34.0</ele><time>2026-05-03T17:09:55.481Z</time></trkpt><trkpt lat="38.4987733" lon="16.019805"><ele>34.0</ele><time>2026-05-03T17:09:56.483Z</time></trkpt><trkpt lat="38.4986417" lon="16.0193933"><ele>32.5</ele><time>2026-05-03T17:09:57.482Z</time></trkpt><trkpt lat="38.4985083" lon="16.0189883"><ele>31.0</ele><time>2026-05-03T17:09:58.482Z</time></trkpt><trkpt lat="38.4983683" lon="16.0185867"><ele>30.5</ele><time>2026-05-03T17:09:59.482Z</time></trkpt><trkpt lat="38.4982217" lon="16.0181933"><ele>30.0</ele><time>2026-05-03T17:10:00.482Z</time></trkpt><trkpt lat="38.49807" lon="16.017805"><ele>32.0</ele><time>2026-05-03T17:10:01.482Z</time></trkpt><trkpt lat="38.4979133" lon="16.0174183"><ele>34.0</ele><time>2026-05-03T17:10:02.483Z</time></trkpt><trkpt lat="38.4977533" lon="16.0170383"><ele>34.0</ele><time>2026-05-03T17:10:03.481Z</time></trkpt><trkpt lat="38.4975883" lon="16.016665"><ele>34.0</ele><time>2026-05-03T17:10:04.482Z</time></trkpt><trkpt lat="38.4974183" lon="16.0162983"><ele>33.5</ele><time>2026-05-03T17:10:05.481Z</time></trkpt><trkpt lat="38.49724" lon="16.0159383"><ele>33.0</ele><time>2026-05-03T17:10:06.482Z</time></trkpt><trkpt lat="38.4970583" lon="16.0155817"><ele>35.0</ele><time>2026-05-03T17:10:07.481Z</time></trkpt><trkpt lat="38.4968683" lon="16.01523"><ele>37.0</ele><time>2026-05-03T17:10:08.482Z</time></trkpt><trkpt lat="38.4966683" lon="16.014885"><ele>37.0</ele><time>2026-05-03T17:10:09.482Z</time></trkpt><trkpt lat="38.4964583" lon="16.014545"><ele>37.0</ele><time>2026-05-03T17:10:10.481Z</time></trkpt><trkpt lat="38.4962383" lon="16.0142133"><ele>39.0</ele><time>2026-05-03T17:10:11.483Z</time></trkpt><trkpt lat="38.49601" lon="16.013885"><ele>41.0</ele><time>2026-05-03T17:10:12.482Z</time></trkpt><trkpt lat="38.4957733" lon="16.0135633"><ele>43.0</ele><time>2026-05-03T17:10:13.483Z</time></trkpt><trkpt lat="38.4955283" lon="16.0132533"><ele>45.0</ele><time>2026-05-03T17:10:14.482Z</time></trkpt><trkpt lat="38.4952767" lon="16.012955"><ele>45.0</ele><time>2026-05-03T17:10:15.482Z</time></trkpt><trkpt lat="38.4950133" lon="16.01267"><ele>45.0</ele><time>2026-05-03T17:10:16.481Z</time></trkpt><trkpt lat="38.49474" lon="16.012395"><ele>44.5</ele><time>2026-05-03T17:10:17.482Z</time></trkpt><trkpt lat="38.4944617" lon="16.01213"><ele>44.0</ele><time>2026-05-03T17:10:18.481Z</time></trkpt><trkpt lat="38.4941717" lon="16.011875"><ele>44.0</ele><time>2026-05-03T17:10:19.481Z</time></trkpt><trkpt lat="38.4938717" lon="16.0116383"><ele>44.0</ele><time>2026-05-03T17:10:20.483Z</time></trkpt><trkpt lat="38.4935683" lon="16.011415"><ele>40.0</ele><time>2026-05-03T17:10:21.481Z</time></trkpt><trkpt lat="38.4932567" lon="16.01121"><ele>36.0</ele><time>2026-05-03T17:10:22.481Z</time></trkpt><trkpt lat="38.4929383" lon="16.01101"><ele>35.0</ele><time>2026-05-03T17:10:23.482Z</time></trkpt><trkpt lat="38.4926217" lon="16.0108117"><ele>34.0</ele><time>2026-05-03T17:10:24.483Z</time></trkpt><trkpt lat="38.4923033" lon="16.0106167"><ele>33.0</ele><time>2026-05-03T17:10:25.482Z</time></trkpt><trkpt lat="38.491985" lon="16.0104217"><ele>32.0</ele><time>2026-05-03T17:10:26.482Z</time></trkpt><trkpt lat="38.4916683" lon="16.010225"><ele>32.0</ele><time>2026-05-03T17:10:27.482Z</time></trkpt><trkpt lat="38.491355" lon="16.010025"><ele>32.0</ele><time>2026-05-03T17:10:28.482Z</time></trkpt><trkpt lat="38.4910433" lon="16.0098267"><ele>31.5</ele><time>2026-05-03T17:10:29.481Z</time></trkpt><trkpt lat="38.4907333" lon="16.00963"><ele>31.0</ele><time>2026-05-03T17:10:30.482Z</time></trkpt><trkpt lat="38.490425" lon="16.0094283"><ele>32.0</ele><time>2026-05-03T17:10:31.482Z</time></trkpt><trkpt lat="38.49012" lon="16.0092183"><ele>33.0</ele><time>2026-05-03T17:10:32.483Z</time></trkpt><trkpt lat="38.4898183" lon="16.0089967"><ele>32.5</ele><time>2026-05-03T17:10:33.482Z</time></trkpt><trkpt lat="38.4895133" lon="16.008765"><ele>32.0</ele><time>2026-05-03T17:10:34.482Z</time></trkpt><trkpt lat="38.4892283" lon="16.0084867"><ele>31.5</ele><time>2026-05-03T17:10:35.483Z</time></trkpt><trkpt lat="38.4889583" lon="16.00818"><ele>31.0</ele><time>2026-05-03T17:10:36.482Z</time></trkpt><trkpt lat="38.4886867" lon="16.007925"><ele>30.5</ele><time>2026-05-03T17:10:37.481Z</time></trkpt><trkpt lat="38.48843" lon="16.0076417"><ele>30.0</ele><time>2026-05-03T17:10:38.482Z</time></trkpt><trkpt lat="38.4881867" lon="16.00733"><ele>30.0</ele><time>2026-05-03T17:10:39.48Z</time></trkpt><trkpt lat="38.4879483" lon="16.0070117"><ele>30.0</ele><time>2026-05-03T17:10:40.483Z</time></trkpt><trkpt lat="38.48772" lon="16.00669"><ele>30.5</ele><time>2026-05-03T17:10:41.481Z</time></trkpt><trkpt lat="38.4874983" lon="16.006365"><ele>31.0</ele><time>2026-05-03T17:10:42.482Z</time></trkpt><trkpt lat="38.48728" lon="16.0060383"><ele>31.0</ele><time>2026-05-03T17:10:43.482Z</time></trkpt><trkpt lat="38.4870617" lon="16.0057117"><ele>31.0</ele><time>2026-05-03T17:10:44.483Z</time></trkpt><trkpt lat="38.48684" lon="16.0053883"><ele>31.0</ele><time>2026-05-03T17:10:45.482Z</time></trkpt><trkpt lat="38.486615" lon="16.00507"><ele>31.0</ele><time>2026-05-03T17:10:46.481Z</time></trkpt><trkpt lat="38.4863817" lon="16.0047583"><ele>30.5</ele><time>2026-05-03T17:10:47.482Z</time></trkpt><trkpt lat="38.4861417" lon="16.0044567"><ele>30.0</ele><time>2026-05-03T17:10:48.481Z</time></trkpt><trkpt lat="38.4859" lon="16.0041667"><ele>30.5</ele><time>2026-05-03T17:10:49.482Z</time></trkpt><trkpt lat="38.4856533" lon="16.0038917"><ele>31.0</ele><time>2026-05-03T17:10:50.483Z</time></trkpt><trkpt lat="38.4854" lon="16.0036283"><ele>31.5</ele><time>2026-05-03T17:10:51.482Z</time></trkpt><trkpt lat="38.4851417" lon="16.0033833"><ele>32.0</ele><time>2026-05-03T17:10:52.482Z</time></trkpt><trkpt lat="38.4848817" lon="16.0031533"><ele>33.0</ele><time>2026-05-03T17:10:53.482Z</time></trkpt><trkpt lat="38.4846183" lon="16.0029383"><ele>34.0</ele><time>2026-05-03T17:10:54.481Z</time></trkpt><trkpt lat="38.48436" lon="16.0027383"><ele>36.5</ele><time>2026-05-03T17:10:55.482Z</time></trkpt><trkpt lat="38.4841" lon="16.00257"><ele>39.0</ele><time>2026-05-03T17:10:56.482Z</time></trkpt><trkpt lat="38.4838467" lon="16.0024033"><ele>44.0</ele><time>2026-05-03T17:10:57.482Z</time></trkpt><trkpt lat="38.48361" lon="16.0022567"><ele>49.0</ele><time>2026-05-03T17:10:58.481Z</time></trkpt><trkpt lat="38.483375" lon="16.00212"><ele>49.0</ele><time>2026-05-03T17:10:59.482Z</time></trkpt><trkpt lat="38.4831517" lon="16.00201"><ele>49.0</ele><time>2026-05-03T17:11:00.482Z</time></trkpt><trkpt lat="38.4829367" lon="16.0019067"><ele>50.0</ele><time>2026-05-03T17:11:01.482Z</time></trkpt><trkpt lat="38.4827233" lon="16.001805"><ele>51.0</ele><time>2026-05-03T17:11:02.482Z</time></trkpt><trkpt lat="38.48251" lon="16.00171"><ele>51.66666666666667</ele><time>2026-05-03T17:11:03.483Z</time></trkpt><trkpt lat="38.482295" lon="16.0016233"><ele>52.333333333333336</ele><time>2026-05-03T17:11:04.481Z</time></trkpt><trkpt lat="38.4820917" lon="16.00155"><ele>53.0</ele><time>2026-05-03T17:11:05.481Z</time></trkpt><trkpt lat="38.481895" lon="16.0014767"><ele>53.0</ele><time>2026-05-03T17:11:06.482Z</time></trkpt><trkpt lat="38.48171" lon="16.0014167"><ele>53.0</ele><time>2026-05-03T17:11:07.482Z</time></trkpt><trkpt lat="38.4815233" lon="16.0013517"><ele>53.0</ele><time>2026-05-03T17:11:08.482Z</time></trkpt><trkpt lat="38.4813433" lon="16.0012833"><ele>50.66666666666667</ele><time>2026-05-03T17:11:09.482Z</time></trkpt><trkpt lat="38.4811733" lon="16.0012133"><ele>48.333333333333336</ele><time>2026-05-03T17:11:10.481Z</time></trkpt><trkpt lat="38.4810133" lon="16.0011267"><ele>46.0</ele><time>2026-05-03T17:11:11.482Z</time></trkpt><trkpt lat="38.480855" lon="16.00102"><ele>46.0</ele><time>2026-05-03T17:11:12.482Z</time></trkpt><trkpt lat="38.4807017" lon="16.0009"><ele>46.0</ele><time>2026-05-03T17:11:13.482Z</time></trkpt><trkpt lat="38.4805517" lon="16.00077"><ele>46.0</ele><time>2026-05-03T17:11:14.483Z</time></trkpt><trkpt lat="38.4804017" lon="16.0006233"><ele>42.66666666666667</ele><time>2026-05-03T17:11:15.481Z</time></trkpt><trkpt lat="38.480265" lon="16.0004483"><ele>39.333333333333336</ele><time>2026-05-03T17:11:16.481Z</time></trkpt><trkpt lat="38.48013" lon="16.0002567"><ele>36.0</ele><time>2026-05-03T17:11:17.482Z</time></trkpt><trkpt lat="38.480005" lon="16.0000383"><ele>36.0</ele><time>2026-05-03T17:11:18.481Z</time></trkpt><trkpt lat="38.4798833" lon="15.999825"><ele>36.0</ele><time>2026-05-03T17:11:19.482Z</time></trkpt><trkpt lat="38.4797767" lon="15.9996133"><ele>36.0</ele><time>2026-05-03T17:11:20.483Z</time></trkpt><trkpt lat="38.47968" lon="15.99941"><ele>35.666666666666664</ele><time>2026-05-03T17:11:21.482Z</time></trkpt><trkpt lat="38.4795767" lon="15.9992217"><ele>35.33333333333333</ele><time>2026-05-03T17:11:22.482Z</time></trkpt><trkpt lat="38.479465" lon="15.9990533"><ele>35.0</ele><time>2026-05-03T17:11:23.482Z</time></trkpt><trkpt lat="38.4793433" lon="15.9989"><ele>35.0</ele><time>2026-05-03T17:11:24.483Z</time></trkpt><trkpt lat="38.47921" lon="15.998755"><ele>35.0</ele><time>2026-05-03T17:11:25.481Z</time></trkpt><trkpt lat="38.4790717" lon="15.99862"><ele>35.0</ele><time>2026-05-03T17:11:26.481Z</time></trkpt><trkpt lat="38.4789383" lon="15.9984967"><ele>35.0</ele><time>2026-05-03T17:11:27.482Z</time></trkpt><trkpt lat="38.47881" lon="15.9983867"><ele>35.0</ele><time>2026-05-03T17:11:28.482Z</time></trkpt><trkpt lat="38.4787017" lon="15.9982667"><ele>35.0</ele><time>2026-05-03T17:11:29.481Z</time></trkpt><trkpt lat="38.4785867" lon="15.9981583"><ele>35.0</ele><time>2026-05-03T17:11:30.482Z</time></trkpt><trkpt lat="38.4784817" lon="15.998055"><ele>34.25</ele><time>2026-05-03T17:11:31.481Z</time></trkpt><trkpt lat="38.478385" lon="15.9979483"><ele>33.5</ele><time>2026-05-03T17:11:32.483Z</time></trkpt><trkpt lat="38.4782933" lon="15.99785"><ele>32.75</ele><time>2026-05-03T17:11:33.481Z</time></trkpt><trkpt lat="38.4782033" lon="15.99776"><ele>32.0</ele><time>2026-05-03T17:11:34.482Z</time></trkpt><trkpt lat="38.4781133" lon="15.9976783"><ele>31.999999999999996</ele><time>2026-05-03T17:11:35.481Z</time></trkpt><trkpt lat="38.4780367" lon="15.9976"><ele>32.0</ele><time>2026-05-03T17:11:36.482Z</time></trkpt><trkpt lat="38.477975" lon="15.9975217"><ele>32.0</ele><time>2026-05-03T17:11:37.486Z</time></trkpt><trkpt lat="38.4779333" lon="15.9974467"><ele>32.0</ele><time>2026-05-03T17:11:38.482Z</time></trkpt><trkpt lat="38.4779133" lon="15.9973617"><ele>31.999999999999996</ele><time>2026-05-03T17:11:39.48Z</time></trkpt><trkpt lat="38.4779117" lon="15.997265"><ele>32.0</ele><time>2026-05-03T17:11:40.482Z</time></trkpt><trkpt lat="38.4779333" lon="15.99717"><ele>32.33333333333333</ele><time>2026-05-03T17:11:41.482Z</time></trkpt><trkpt lat="38.4779817" lon="15.997085"><ele>32.666666666666664</ele><time>2026-05-03T17:11:42.482Z</time></trkpt><trkpt lat="38.4780433" lon="15.9970217"><ele>33.0</ele><time>2026-05-03T17:11:43.481Z</time></trkpt><trkpt lat="38.4781317" lon="15.9969867"><ele>33.333333333333336</ele><time>2026-05-03T17:11:44.482Z</time></trkpt><trkpt lat="38.4781883" lon="15.9969167"><ele>33.66666666666667</ele><time>2026-05-03T17:11:45.481Z</time></trkpt><trkpt lat="38.4782467" lon="15.9968583"><ele>34.0</ele><time>2026-05-03T17:11:46.483Z</time></trkpt><trkpt lat="38.4783017" lon="15.996805"><ele>34.0</ele><time>2026-05-03T17:11:47.482Z</time></trkpt><trkpt lat="38.4783483" lon="15.99675"><ele>34.0</ele><time>2026-05-03T17:11:48.483Z</time></trkpt><trkpt lat="38.4784233" lon="15.9966717"><ele>34.0</ele><time>2026-05-03T17:11:50.482Z</time></trkpt><trkpt lat="38.4784283" lon="15.996555"><ele>34.0</ele><time>2026-05-03T17:11:53.482Z</time></trkpt><trkpt lat="38.47836" lon="15.9963867"><ele>34.0</ele><time>2026-05-03T17:11:55.481Z</time></trkpt><trkpt lat="38.47832" lon="15.9962533"><ele>34.25</ele><time>2026-05-03T17:11:56.481Z</time></trkpt><trkpt lat="38.4782783" lon="15.9960967"><ele>34.5</ele><time>2026-05-03T17:11:57.481Z</time></trkpt><trkpt lat="38.478245" lon="15.9959433"><ele>34.75</ele><time>2026-05-03T17:11:58.481Z</time></trkpt><trkpt lat="38.4782083" lon="15.99579"><ele>35.0</ele><time>2026-05-03T17:11:59.482Z</time></trkpt><trkpt lat="38.478095" lon="15.9954833"><ele>35.0</ele><time>2026-05-03T17:12:00.482Z</time></trkpt><trkpt lat="38.47808" lon="15.9953783"><ele>35.0</ele><time>2026-05-03T17:12:01.482Z</time></trkpt><trkpt lat="38.4780667" lon="15.9952767"><ele>35.0</ele><time>2026-05-03T17:12:02.481Z</time></trkpt><trkpt lat="38.478025" lon="15.99515"><ele>35.0</ele><time>2026-05-03T17:12:04.482Z</time></trkpt><trkpt lat="38.4779483" lon="15.9950667"><ele>35.0</ele><time>2026-05-03T17:12:06.481Z</time></trkpt><trkpt lat="38.47787" lon="15.9950167"><ele>34.33333333333333</ele><time>2026-05-03T17:12:08.481Z</time></trkpt><trkpt lat="38.477805" lon="15.9950067"><ele>33.666666666666664</ele><time>2026-05-03T17:12:10.481Z</time></trkpt><trkpt lat="38.477705" lon="15.9950517"><ele>33.0</ele><time>2026-05-03T17:12:12.482Z</time></trkpt><trkpt lat="38.477635" lon="15.9950817"><ele>32.333333333333336</ele><time>2026-05-03T17:12:13.482Z</time></trkpt><trkpt lat="38.47757" lon="15.99513"><ele>31.666666666666668</ele><time>2026-05-03T17:12:14.482Z</time></trkpt><trkpt lat="38.477505" lon="15.995195"><ele>31.0</ele><time>2026-05-03T17:12:15.482Z</time></trkpt><trkpt lat="38.4774283" lon="15.9952683"><ele>31.0</ele><time>2026-05-03T17:12:16.481Z</time></trkpt><trkpt lat="38.4773367" lon="15.995355"><ele>31.0</ele><time>2026-05-03T17:12:17.483Z</time></trkpt><trkpt lat="38.4772283" lon="15.99545"><ele>31.0</ele><time>2026-05-03T17:12:18.482Z</time></trkpt><trkpt lat="38.47711" lon="15.9955467"><ele>31.0</ele><time>2026-05-03T17:12:19.483Z</time></trkpt><trkpt lat="38.476985" lon="15.995645"><ele>31.333333333333336</ele><time>2026-05-03T17:12:20.481Z</time></trkpt><trkpt lat="38.4768533" lon="15.9957533"><ele>31.666666666666664</ele><time>2026-05-03T17:12:21.482Z</time></trkpt><trkpt lat="38.47671" lon="15.99587"><ele>32.0</ele><time>2026-05-03T17:12:22.482Z</time></trkpt><trkpt lat="38.4765583" lon="15.9959983"><ele>32.0</ele><time>2026-05-03T17:12:23.483Z</time></trkpt><trkpt lat="38.4764017" lon="15.9961417"><ele>32.0</ele><time>2026-05-03T17:12:24.481Z</time></trkpt><trkpt lat="38.4762383" lon="15.9963"><ele>32.0</ele><time>2026-05-03T17:12:25.482Z</time></trkpt><trkpt lat="38.4760867" lon="15.9964717"><ele>33.33333333333333</ele><time>2026-05-03T17:12:26.483Z</time></trkpt><trkpt lat="38.47595" lon="15.9966467"><ele>34.666666666666664</ele><time>2026-05-03T17:12:27.483Z</time></trkpt><trkpt lat="38.4758217" lon="15.99683"><ele>36.0</ele><time>2026-05-03T17:12:28.481Z</time></trkpt><trkpt lat="38.4756967" lon="15.9970217"><ele>36.0</ele><time>2026-05-03T17:12:29.482Z</time></trkpt><trkpt lat="38.4755733" lon="15.9972067"><ele>36.0</ele><time>2026-05-03T17:12:30.481Z</time></trkpt><trkpt lat="38.4754633" lon="15.9973717"><ele>36.0</ele><time>2026-05-03T17:12:31.481Z</time></trkpt><trkpt lat="38.475375" lon="15.9975"><ele>36.0</ele><time>2026-05-03T17:12:32.482Z</time></trkpt><trkpt lat="38.4753017" lon="15.9976067"><ele>36.0</ele><time>2026-05-03T17:12:33.483Z</time></trkpt><trkpt lat="38.4752333" lon="15.997705"><ele>36.0</ele><time>2026-05-03T17:12:34.481Z</time></trkpt><trkpt lat="38.4751717" lon="15.9977917"><ele>36.0</ele><time>2026-05-03T17:12:35.482Z</time></trkpt><trkpt lat="38.475115" lon="15.9978733"><ele>36.0</ele><time>2026-05-03T17:12:36.481Z</time></trkpt><trkpt lat="38.4750583" lon="15.9979533"><ele>36.0</ele><time>2026-05-03T17:12:37.482Z</time></trkpt><trkpt lat="38.4749983" lon="15.99804"><ele>36.0</ele><time>2026-05-03T17:12:38.482Z</time></trkpt><trkpt lat="38.4749317" lon="15.9981333"><ele>36.0</ele><time>2026-05-03T17:12:39.482Z</time></trkpt><trkpt lat="38.4748617" lon="15.998235"><ele>36.0</ele><time>2026-05-03T17:12:40.482Z</time></trkpt><trkpt lat="38.47479" lon="15.9983417"><ele>36.0</ele><time>2026-05-03T17:12:41.482Z</time></trkpt><trkpt lat="38.4747167" lon="15.998455"><ele>36.0</ele><time>2026-05-03T17:12:42.482Z</time></trkpt><trkpt lat="38.4746367" lon="15.9985733"><ele>36.0</ele><time>2026-05-03T17:12:43.482Z</time></trkpt><trkpt lat="38.47455" lon="15.9986967"><ele>36.0</ele><time>2026-05-03T17:12:44.481Z</time></trkpt><trkpt lat="38.4744633" lon="15.998825"><ele>36.0</ele><time>2026-05-03T17:12:45.482Z</time></trkpt><trkpt lat="38.4743783" lon="15.9989583"><ele>36.0</ele><time>2026-05-03T17:12:46.482Z</time></trkpt><trkpt lat="38.474295" lon="15.9990867"><ele>36.0</ele><time>2026-05-03T17:12:47.482Z</time></trkpt><trkpt lat="38.4742117" lon="15.9992083"><ele>36.0</ele><time>2026-05-03T17:12:48.481Z</time></trkpt><trkpt lat="38.47413" lon="15.9993283"><ele>36.0</ele><time>2026-05-03T17:12:49.482Z</time></trkpt><trkpt lat="38.4740483" lon="15.9994533"><ele>35.75</ele><time>2026-05-03T17:12:50.482Z</time></trkpt><trkpt lat="38.4739633" lon="15.9995783"><ele>35.5</ele><time>2026-05-03T17:12:51.481Z</time></trkpt><trkpt lat="38.4738783" lon="15.999705"><ele>35.25</ele><time>2026-05-03T17:12:52.482Z</time></trkpt><trkpt lat="38.4737917" lon="15.99983"><ele>35.0</ele><time>2026-05-03T17:12:53.483Z</time></trkpt><trkpt lat="38.4737083" lon="15.9999533"><ele>35.75</ele><time>2026-05-03T17:12:54.481Z</time></trkpt><trkpt lat="38.4736283" lon="16.0000717"><ele>36.5</ele><time>2026-05-03T17:12:55.483Z</time></trkpt><trkpt lat="38.4735483" lon="16.00019"><ele>37.25</ele><time>2026-05-03T17:12:56.482Z</time></trkpt><trkpt lat="38.47347" lon="16.0003067"><ele>38.0</ele><time>2026-05-03T17:12:57.482Z</time></trkpt><trkpt lat="38.47339" lon="16.00043"><ele>38.0</ele><time>2026-05-03T17:12:58.482Z</time></trkpt><trkpt lat="38.4733067" lon="16.0005583"><ele>38.0</ele><time>2026-05-03T17:12:59.483Z</time></trkpt><trkpt lat="38.4732167" lon="16.0006933"><ele>38.0</ele><time>2026-05-03T17:13:00.482Z</time></trkpt><trkpt lat="38.47312" lon="16.0008433"><ele>38.0</ele><time>2026-05-03T17:13:01.482Z</time></trkpt><trkpt lat="38.4730067" lon="16.00102"><ele>39.0</ele><time>2026-05-03T17:13:02.482Z</time></trkpt><trkpt lat="38.4728733" lon="16.0012217"><ele>40.0</ele><time>2026-05-03T17:13:03.482Z</time></trkpt><trkpt lat="38.4727317" lon="16.001425"><ele>41.0</ele><time>2026-05-03T17:13:04.481Z</time></trkpt><trkpt lat="38.4725917" lon="16.0016217"><ele>41.0</ele><time>2026-05-03T17:13:05.482Z</time></trkpt><trkpt lat="38.4724533" lon="16.00182"><ele>41.0</ele><time>2026-05-03T17:13:06.481Z</time></trkpt><trkpt lat="38.4723233" lon="16.0020117"><ele>41.0</ele><time>2026-05-03T17:13:07.482Z</time></trkpt><trkpt lat="38.4721967" lon="16.0021967"><ele>40.666666666666664</ele><time>2026-05-03T17:13:08.482Z</time></trkpt><trkpt lat="38.4720733" lon="16.0023817"><ele>40.333333333333336</ele><time>2026-05-03T17:13:09.482Z</time></trkpt><trkpt lat="38.4719533" lon="16.00256"><ele>40.0</ele><time>2026-05-03T17:13:10.482Z</time></trkpt><trkpt lat="38.4718417" lon="16.0027233"><ele>40.0</ele><time>2026-05-03T17:13:11.481Z</time></trkpt><trkpt lat="38.471735" lon="16.0028733"><ele>40.0</ele><time>2026-05-03T17:13:12.482Z</time></trkpt><trkpt lat="38.4716283" lon="16.00302"><ele>40.0</ele><time>2026-05-03T17:13:13.482Z</time></trkpt><trkpt lat="38.4715133" lon="16.00317"><ele>40.0</ele><time>2026-05-03T17:13:14.483Z</time></trkpt><trkpt lat="38.4713933" lon="16.003325"><ele>40.0</ele><time>2026-05-03T17:13:15.482Z</time></trkpt><trkpt lat="38.47127" lon="16.003485"><ele>40.0</ele><time>2026-05-03T17:13:16.481Z</time></trkpt><trkpt lat="38.4711467" lon="16.0036467"><ele>40.0</ele><time>2026-05-03T17:13:17.482Z</time></trkpt><trkpt lat="38.47103" lon="16.00381"><ele>40.0</ele><time>2026-05-03T17:13:18.482Z</time></trkpt><trkpt lat="38.4709167" lon="16.0039683"><ele>40.0</ele><time>2026-05-03T17:13:19.482Z</time></trkpt><trkpt lat="38.4708067" lon="16.0041133"><ele>40.333333333333336</ele><time>2026-05-03T17:13:20.481Z</time></trkpt><trkpt lat="38.4707" lon="16.0042567"><ele>40.666666666666664</ele><time>2026-05-03T17:13:21.481Z</time></trkpt><trkpt lat="38.4705883" lon="16.0044017"><ele>41.0</ele><time>2026-05-03T17:13:22.482Z</time></trkpt><trkpt lat="38.470475" lon="16.00455"><ele>41.33333333333333</ele><time>2026-05-03T17:13:23.482Z</time></trkpt><trkpt lat="38.47036" lon="16.0047033"><ele>41.666666666666664</ele><time>2026-05-03T17:13:24.482Z</time></trkpt><trkpt lat="38.470245" lon="16.00486"><ele>42.0</ele><time>2026-05-03T17:13:25.482Z</time></trkpt><trkpt lat="38.4701333" lon="16.0050167"><ele>42.0</ele><time>2026-05-03T17:13:26.482Z</time></trkpt><trkpt lat="38.4700233" lon="16.0051683"><ele>42.0</ele><time>2026-05-03T17:13:27.482Z</time></trkpt><trkpt lat="38.4699117" lon="16.0053183"><ele>42.0</ele><time>2026-05-03T17:13:28.481Z</time></trkpt><trkpt lat="38.469795" lon="16.0054783"><ele>42.0</ele><time>2026-05-03T17:13:29.482Z</time></trkpt><trkpt lat="38.4696717" lon="16.00565"><ele>42.0</ele><time>2026-05-03T17:13:30.483Z</time></trkpt><trkpt lat="38.46954" lon="16.00583"><ele>42.0</ele><time>2026-05-03T17:13:31.481Z</time></trkpt><trkpt lat="38.4693817" lon="16.0060283"><ele>42.333333333333336</ele><time>2026-05-03T17:13:32.483Z</time></trkpt><trkpt lat="38.4692517" lon="16.0062217"><ele>42.66666666666667</ele><time>2026-05-03T17:13:33.482Z</time></trkpt><trkpt lat="38.4691083" lon="16.0064267"><ele>43.0</ele><time>2026-05-03T17:13:34.482Z</time></trkpt><trkpt lat="38.4689783" lon="16.0066083"><ele>43.333333333333336</ele><time>2026-05-03T17:13:35.481Z</time></trkpt><trkpt lat="38.4688483" lon="16.0067783"><ele>43.666666666666664</ele><time>2026-05-03T17:13:36.482Z</time></trkpt><trkpt lat="38.4687167" lon="16.0069583"><ele>44.0</ele><time>2026-05-03T17:13:37.482Z</time></trkpt><trkpt lat="38.4685833" lon="16.007135"><ele>44.666666666666664</ele><time>2026-05-03T17:13:38.483Z</time></trkpt><trkpt lat="38.4684533" lon="16.0073217"><ele>45.333333333333336</ele><time>2026-05-03T17:13:39.482Z</time></trkpt><trkpt lat="38.4683233" lon="16.00749"><ele>46.0</ele><time>2026-05-03T17:13:40.481Z</time></trkpt><trkpt lat="38.4682017" lon="16.0076433"><ele>46.0</ele><time>2026-05-03T17:13:41.481Z</time></trkpt><trkpt lat="38.4680917" lon="16.00779"><ele>46.0</ele><time>2026-05-03T17:13:42.483Z</time></trkpt><trkpt lat="38.4679833" lon="16.007935"><ele>46.0</ele><time>2026-05-03T17:13:43.481Z</time></trkpt><trkpt lat="38.4678733" lon="16.0080783"><ele>46.0</ele><time>2026-05-03T17:13:44.482Z</time></trkpt><trkpt lat="38.4677617" lon="16.0082217"><ele>46.0</ele><time>2026-05-03T17:13:45.482Z</time></trkpt><trkpt lat="38.4676517" lon="16.008365"><ele>46.0</ele><time>2026-05-03T17:13:46.483Z</time></trkpt><trkpt lat="38.4675417" lon="16.0085033"><ele>45.75</ele><time>2026-05-03T17:13:47.482Z</time></trkpt><trkpt lat="38.4674367" lon="16.0086383"><ele>45.5</ele><time>2026-05-03T17:13:48.481Z</time></trkpt><trkpt lat="38.467335" lon="16.00877"><ele>45.25</ele><time>2026-05-03T17:13:49.481Z</time></trkpt><trkpt lat="38.467235" lon="16.0089"><ele>45.0</ele><time>2026-05-03T17:13:50.482Z</time></trkpt><trkpt lat="38.46714" lon="16.0090267"><ele>45.25</ele><time>2026-05-03T17:13:51.481Z</time></trkpt><trkpt lat="38.467045" lon="16.00915"><ele>45.5</ele><time>2026-05-03T17:13:52.483Z</time></trkpt><trkpt lat="38.4669517" lon="16.0092767"><ele>45.75</ele><time>2026-05-03T17:13:53.481Z</time></trkpt><trkpt lat="38.4668683" lon="16.009395"><ele>46.0</ele><time>2026-05-03T17:13:54.482Z</time></trkpt><trkpt lat="38.466795" lon="16.009495"><ele>46.5</ele><time>2026-05-03T17:13:55.482Z</time></trkpt><trkpt lat="38.4667317" lon="16.0095817"><ele>47.0</ele><time>2026-05-03T17:13:56.483Z</time></trkpt><trkpt lat="38.466675" lon="16.0096567"><ele>47.5</ele><time>2026-05-03T17:13:57.482Z</time></trkpt><trkpt lat="38.466615" lon="16.0097133"><ele>48.0</ele><time>2026-05-03T17:13:58.482Z</time></trkpt><trkpt lat="38.4665533" lon="16.009745"><ele>48.49999999999999</ele><time>2026-05-03T17:13:59.482Z</time></trkpt><trkpt lat="38.4664833" lon="16.009765"><ele>49.0</ele><time>2026-05-03T17:14:00.481Z</time></trkpt><trkpt lat="38.4664017" lon="16.009785"><ele>48.99999999999999</ele><time>2026-05-03T17:14:01.481Z</time></trkpt><trkpt lat="38.4663167" lon="16.00981"><ele>49.0</ele><time>2026-05-03T17:14:02.483Z</time></trkpt><trkpt lat="38.4662417" lon="16.0098517"><ele>49.0</ele><time>2026-05-03T17:14:03.481Z</time></trkpt><trkpt lat="38.466175" lon="16.0099167"><ele>49.0</ele><time>2026-05-03T17:14:04.482Z</time></trkpt><trkpt lat="38.4661183" lon="16.0100017"><ele>48.99999999999999</ele><time>2026-05-03T17:14:05.481Z</time></trkpt><trkpt lat="38.4660717" lon="16.0101"><ele>49.0</ele><time>2026-05-03T17:14:06.481Z</time></trkpt><trkpt lat="38.4660683" lon="16.01022"><ele>49.400000000000006</ele><time>2026-05-03T17:14:07.482Z</time></trkpt><trkpt lat="38.4660617" lon="16.0103333"><ele>49.8</ele><time>2026-05-03T17:14:08.482Z</time></trkpt><trkpt lat="38.4660483" lon="16.0104217"><ele>50.2</ele><time>2026-05-03T17:14:09.482Z</time></trkpt><trkpt lat="38.4660233" lon="16.01054"><ele>50.599999999999994</ele><time>2026-05-03T17:14:10.482Z</time></trkpt><trkpt lat="38.4659617" lon="16.01065"><ele>51.0</ele><time>2026-05-03T17:14:11.482Z</time></trkpt><trkpt lat="38.46588" lon="16.0107617"><ele>50.75</ele><time>2026-05-03T17:14:12.482Z</time></trkpt><trkpt lat="38.465795" lon="16.0108833"><ele>50.5</ele><time>2026-05-03T17:14:13.482Z</time></trkpt><trkpt lat="38.465695" lon="16.0110167"><ele>50.25</ele><time>2026-05-03T17:14:14.482Z</time></trkpt><trkpt lat="38.465575" lon="16.0111667"><ele>50.0</ele><time>2026-05-03T17:14:15.482Z</time></trkpt><trkpt lat="38.4654617" lon="16.0113233"><ele>50.0</ele><time>2026-05-03T17:14:16.482Z</time></trkpt><trkpt lat="38.46534" lon="16.0114883"><ele>50.0</ele><time>2026-05-03T17:14:17.483Z</time></trkpt><trkpt lat="38.4652167" lon="16.01165"><ele>50.0</ele><time>2026-05-03T17:14:18.482Z</time></trkpt><trkpt lat="38.4650983" lon="16.011815"><ele>50.0</ele><time>2026-05-03T17:14:19.481Z</time></trkpt><trkpt lat="38.4649817" lon="16.0119783"><ele>50.0</ele><time>2026-05-03T17:14:20.482Z</time></trkpt><trkpt lat="38.4648683" lon="16.0121367"><ele>50.0</ele><time>2026-05-03T17:14:21.482Z</time></trkpt><trkpt lat="38.4647517" lon="16.0122933"><ele>50.0</ele><time>2026-05-03T17:14:22.481Z</time></trkpt><trkpt lat="38.46463" lon="16.012455"><ele>50.0</ele><time>2026-05-03T17:14:23.481Z</time></trkpt><trkpt lat="38.4645017" lon="16.0126217"><ele>50.0</ele><time>2026-05-03T17:14:24.482Z</time></trkpt><trkpt lat="38.4643667" lon="16.0127983"><ele>51.66666666666667</ele><time>2026-05-03T17:14:25.481Z</time></trkpt><trkpt lat="38.4642217" lon="16.0129833"><ele>53.33333333333333</ele><time>2026-05-03T17:14:26.482Z</time></trkpt><trkpt lat="38.4640717" lon="16.013175"><ele>55.0</ele><time>2026-05-03T17:14:27.482Z</time></trkpt><trkpt lat="38.4639167" lon="16.0133783"><ele>64.0</ele><time>2026-05-03T17:14:28.482Z</time></trkpt><trkpt lat="38.4637467" lon="16.013595"><ele>73.0</ele><time>2026-05-03T17:14:29.481Z</time></trkpt><trkpt lat="38.4635617" lon="16.013825"><ele>73.0</ele><time>2026-05-03T17:14:30.482Z</time></trkpt><trkpt lat="38.46336" lon="16.0140667"><ele>73.0</ele><time>2026-05-03T17:14:31.482Z</time></trkpt><trkpt lat="38.4631533" lon="16.0143133"><ele>71.0</ele><time>2026-05-03T17:14:32.482Z</time></trkpt><trkpt lat="38.46295" lon="16.0145667"><ele>69.0</ele><time>2026-05-03T17:14:33.482Z</time></trkpt><trkpt lat="38.4627417" lon="16.014825"><ele>74.5</ele><time>2026-05-03T17:14:34.482Z</time></trkpt><trkpt lat="38.46253" lon="16.0150883"><ele>80.0</ele><time>2026-05-03T17:14:35.482Z</time></trkpt><trkpt lat="38.4623117" lon="16.0153517"><ele>78.5</ele><time>2026-05-03T17:14:36.483Z</time></trkpt><trkpt lat="38.4620917" lon="16.01561"><ele>77.0</ele><time>2026-05-03T17:14:37.482Z</time></trkpt><trkpt lat="38.4618767" lon="16.0158617"><ele>74.5</ele><time>2026-05-03T17:14:38.482Z</time></trkpt><trkpt lat="38.4616783" lon="16.0161017"><ele>72.0</ele><time>2026-05-03T17:14:39.481Z</time></trkpt><trkpt lat="38.4614917" lon="16.0163317"><ele>72.0</ele><time>2026-05-03T17:14:40.482Z</time></trkpt><trkpt lat="38.4613083" lon="16.0165683"><ele>72.0</ele><time>2026-05-03T17:14:41.481Z</time></trkpt><trkpt lat="38.4611283" lon="16.01682"><ele>66.5</ele><time>2026-05-03T17:14:42.481Z</time></trkpt><trkpt lat="38.460945" lon="16.0170833"><ele>61.0</ele><time>2026-05-03T17:14:43.482Z</time></trkpt><trkpt lat="38.4607567" lon="16.017365"><ele>61.0</ele><time>2026-05-03T17:14:44.483Z</time></trkpt><trkpt lat="38.4605617" lon="16.01766"><ele>61.0</ele><time>2026-05-03T17:14:45.482Z</time></trkpt><trkpt lat="38.4603533" lon="16.0179533"><ele>61.0</ele><time>2026-05-03T17:14:46.482Z</time></trkpt><trkpt lat="38.460135" lon="16.0182533"><ele>61.0</ele><time>2026-05-03T17:14:47.481Z</time></trkpt><trkpt lat="38.4599033" lon="16.0185617"><ele>61.0</ele><time>2026-05-03T17:14:48.484Z</time></trkpt><trkpt lat="38.459665" lon="16.01888"><ele>61.0</ele><time>2026-05-03T17:14:49.481Z</time></trkpt><trkpt lat="38.459425" lon="16.0192083"><ele>61.5</ele><time>2026-05-03T17:14:50.483Z</time></trkpt><trkpt lat="38.4591783" lon="16.0195417"><ele>62.0</ele><time>2026-05-03T17:14:51.482Z</time></trkpt><trkpt lat="38.4589317" lon="16.01987"><ele>62.0</ele><time>2026-05-03T17:14:52.481Z</time></trkpt><trkpt lat="38.4586783" lon="16.0201833"><ele>62.0</ele><time>2026-05-03T17:14:53.483Z</time></trkpt><trkpt lat="38.45839" lon="16.0204817"><ele>62.0</ele><time>2026-05-03T17:14:54.48Z</time></trkpt><trkpt lat="38.45816" lon="16.0207967"><ele>62.0</ele><time>2026-05-03T17:14:55.481Z</time></trkpt><trkpt lat="38.457945" lon="16.0211567"><ele>64.0</ele><time>2026-05-03T17:14:56.482Z</time></trkpt><trkpt lat="38.4577333" lon="16.02153"><ele>66.0</ele><time>2026-05-03T17:14:57.482Z</time></trkpt><trkpt lat="38.4575083" lon="16.0218783"><ele>66.0</ele><time>2026-05-03T17:14:58.482Z</time></trkpt><trkpt lat="38.457285" lon="16.02221"><ele>66.0</ele><time>2026-05-03T17:14:59.481Z</time></trkpt><trkpt lat="38.457065" lon="16.02253"><ele>67.0</ele><time>2026-05-03T17:15:00.481Z</time></trkpt><trkpt lat="38.4568483" lon="16.02284"><ele>68.0</ele><time>2026-05-03T17:15:01.481Z</time></trkpt><trkpt lat="38.4566383" lon="16.0231417"><ele>68.0</ele><time>2026-05-03T17:15:02.484Z</time></trkpt><trkpt lat="38.4564317" lon="16.0234383"><ele>68.0</ele><time>2026-05-03T17:15:03.481Z</time></trkpt><trkpt lat="38.456225" lon="16.0237283"><ele>68.0</ele><time>2026-05-03T17:15:04.481Z</time></trkpt><trkpt lat="38.4560233" lon="16.0240133"><ele>68.0</ele><time>2026-05-03T17:15:05.481Z</time></trkpt><trkpt lat="38.455825" lon="16.024295"><ele>68.5</ele><time>2026-05-03T17:15:06.482Z</time></trkpt><trkpt lat="38.45563" lon="16.024575"><ele>69.0</ele><time>2026-05-03T17:15:07.484Z</time></trkpt><trkpt lat="38.45544" lon="16.024845"><ele>69.5</ele><time>2026-05-03T17:15:08.482Z</time></trkpt><trkpt lat="38.45526" lon="16.0250967"><ele>70.0</ele><time>2026-05-03T17:15:09.481Z</time></trkpt><trkpt lat="38.455085" lon="16.025335"><ele>70.0</ele><time>2026-05-03T17:15:10.482Z</time></trkpt><trkpt lat="38.454915" lon="16.0255683"><ele>70.0</ele><time>2026-05-03T17:15:11.482Z</time></trkpt><trkpt lat="38.4547467" lon="16.0258"><ele>72.0</ele><time>2026-05-03T17:15:12.481Z</time></trkpt><trkpt lat="38.4545817" lon="16.0260283"><ele>74.0</ele><time>2026-05-03T17:15:13.482Z</time></trkpt><trkpt lat="38.4544217" lon="16.0262567"><ele>74.0</ele><time>2026-05-03T17:15:14.482Z</time></trkpt><trkpt lat="38.4542633" lon="16.0264833"><ele>74.0</ele><time>2026-05-03T17:15:15.483Z</time></trkpt><trkpt lat="38.4541017" lon="16.0267083"><ele>74.5</ele><time>2026-05-03T17:15:16.481Z</time></trkpt><trkpt lat="38.4539417" lon="16.026935"><ele>75.0</ele><time>2026-05-03T17:15:17.481Z</time></trkpt><trkpt lat="38.4537833" lon="16.0271583"><ele>75.0</ele><time>2026-05-03T17:15:18.482Z</time></trkpt><trkpt lat="38.45363" lon="16.0273733"><ele>75.0</ele><time>2026-05-03T17:15:19.481Z</time></trkpt><trkpt lat="38.4534833" lon="16.0275783"><ele>75.0</ele><time>2026-05-03T17:15:20.483Z</time></trkpt><trkpt lat="38.45335" lon="16.0277717"><ele>75.0</ele><time>2026-05-03T17:15:21.482Z</time></trkpt><trkpt lat="38.453235" lon="16.0279483"><ele>75.0</ele><time>2026-05-03T17:15:22.482Z</time></trkpt><trkpt lat="38.453135" lon="16.0281017"><ele>75.0</ele><time>2026-05-03T17:15:23.483Z</time></trkpt><trkpt lat="38.4530433" lon="16.0282283"><ele>75.2</ele><time>2026-05-03T17:15:24.482Z</time></trkpt><trkpt lat="38.4529533" lon="16.0283217"><ele>75.4</ele><time>2026-05-03T17:15:25.482Z</time></trkpt><trkpt lat="38.45286" lon="16.0283867"><ele>75.6</ele><time>2026-05-03T17:15:26.481Z</time></trkpt><trkpt lat="38.4527667" lon="16.0284367"><ele>75.8</ele><time>2026-05-03T17:15:27.481Z</time></trkpt><trkpt lat="38.4526717" lon="16.0284867"><ele>76.0</ele><time>2026-05-03T17:15:28.482Z</time></trkpt><trkpt lat="38.4525867" lon="16.0285533"><ele>76.0</ele><time>2026-05-03T17:15:29.482Z</time></trkpt><trkpt lat="38.452525" lon="16.0286517"><ele>76.0</ele><time>2026-05-03T17:15:30.481Z</time></trkpt><trkpt lat="38.452505" lon="16.02878"><ele>76.0</ele><time>2026-05-03T17:15:31.482Z</time></trkpt><trkpt lat="38.45253" lon="16.0289117"><ele>76.0</ele><time>2026-05-03T17:15:32.482Z</time></trkpt><trkpt lat="38.4525967" lon="16.0290217"><ele>76.0</ele><time>2026-05-03T17:15:33.481Z</time></trkpt><trkpt lat="38.4526917" lon="16.0291"><ele>76.0</ele><time>2026-05-03T17:15:34.482Z</time></trkpt><trkpt lat="38.4528033" lon="16.0291383"><ele>76.0</ele><time>2026-05-03T17:15:35.482Z</time></trkpt><trkpt lat="38.4529183" lon="16.0291517"><ele>76.0</ele><time>2026-05-03T17:15:36.481Z</time></trkpt><trkpt lat="38.453045" lon="16.029165"><ele>76.0</ele><time>2026-05-03T17:15:37.481Z</time></trkpt><trkpt lat="38.4531733" lon="16.0292283"><ele>76.0</ele><time>2026-05-03T17:15:38.482Z</time></trkpt><trkpt lat="38.4533033" lon="16.029295"><ele>76.0</ele><time>2026-05-03T17:15:39.482Z</time></trkpt><trkpt lat="38.4534533" lon="16.0293717"><ele>76.0</ele><time>2026-05-03T17:15:40.484Z</time></trkpt><trkpt lat="38.4535783" lon="16.0295433"><ele>76.0</ele><time>2026-05-03T17:15:41.483Z</time></trkpt><trkpt lat="38.453705" lon="16.0296767"><ele>76.0</ele><time>2026-05-03T17:15:42.482Z</time></trkpt><trkpt lat="38.4538033" lon="16.0298083"><ele>76.0</ele><time>2026-05-03T17:15:43.481Z</time></trkpt><trkpt lat="38.4539017" lon="16.029935"><ele>76.0</ele><time>2026-05-03T17:15:44.483Z</time></trkpt><trkpt lat="38.4540133" lon="16.03005"><ele>75.25</ele><time>2026-05-03T17:15:45.482Z</time></trkpt><trkpt lat="38.4541183" lon="16.03017"><ele>74.5</ele><time>2026-05-03T17:15:46.482Z</time></trkpt><trkpt lat="38.4542033" lon="16.0303117"><ele>73.75</ele><time>2026-05-03T17:15:47.481Z</time></trkpt><trkpt lat="38.454265" lon="16.0304767"><ele>73.0</ele><time>2026-05-03T17:15:48.481Z</time></trkpt><trkpt lat="38.4543017" lon="16.030655"><ele>73.75</ele><time>2026-05-03T17:15:49.482Z</time></trkpt><trkpt lat="38.454325" lon="16.0308433"><ele>74.5</ele><time>2026-05-03T17:15:50.482Z</time></trkpt><trkpt lat="38.4543467" lon="16.0310217"><ele>75.25</ele><time>2026-05-03T17:15:51.482Z</time></trkpt><trkpt lat="38.4543733" lon="16.0311867"><ele>76.0</ele><time>2026-05-03T17:15:52.482Z</time></trkpt><trkpt lat="38.4544217" lon="16.031325"><ele>76.0</ele><time>2026-05-03T17:15:53.482Z</time></trkpt><trkpt lat="38.4544983" lon="16.0314333"><ele>76.0</ele><time>2026-05-03T17:15:54.482Z</time></trkpt><trkpt lat="38.4546017" lon="16.0315017"><ele>76.0</ele><time>2026-05-03T17:15:55.481Z</time></trkpt><trkpt lat="38.4547217" lon="16.031525"><ele>76.0</ele><time>2026-05-03T17:15:56.482Z</time></trkpt><trkpt lat="38.4548517" lon="16.0315067"><ele>77.0</ele><time>2026-05-03T17:15:57.481Z</time></trkpt><trkpt lat="38.4549933" lon="16.0314567"><ele>78.0</ele><time>2026-05-03T17:15:58.481Z</time></trkpt><trkpt lat="38.4551467" lon="16.031385"><ele>79.0</ele><time>2026-05-03T17:15:59.482Z</time></trkpt><trkpt lat="38.4552983" lon="16.0313167"><ele>79.0</ele><time>2026-05-03T17:16:00.482Z</time></trkpt><trkpt lat="38.4554417" lon="16.0312533"><ele>79.0</ele><time>2026-05-03T17:16:01.481Z</time></trkpt><trkpt lat="38.4555817" lon="16.0311667"><ele>79.0</ele><time>2026-05-03T17:16:02.482Z</time></trkpt><trkpt lat="38.45571" lon="16.0310783"><ele>81.0</ele><time>2026-05-03T17:16:03.481Z</time></trkpt><trkpt lat="38.4558267" lon="16.0309783"><ele>83.0</ele><time>2026-05-03T17:16:04.482Z</time></trkpt><trkpt lat="38.4559233" lon="16.0308867"><ele>85.0</ele><time>2026-05-03T17:16:05.481Z</time></trkpt><trkpt lat="38.45602" lon="16.0308333"><ele>87.0</ele><time>2026-05-03T17:16:06.482Z</time></trkpt><trkpt lat="38.4561067" lon="16.03081"><ele>87.0</ele><time>2026-05-03T17:16:07.481Z</time></trkpt><trkpt lat="38.456185" lon="16.0308267"><ele>87.0</ele><time>2026-05-03T17:16:08.482Z</time></trkpt><trkpt lat="38.4562417" lon="16.030895"><ele>87.0</ele><time>2026-05-03T17:16:09.485Z</time></trkpt><trkpt lat="38.45625" lon="16.0310017"><ele>87.0</ele><time>2026-05-03T17:16:10.482Z</time></trkpt><trkpt lat="38.4561617" lon="16.0311317"><ele>87.0</ele><time>2026-05-03T17:16:11.481Z</time></trkpt><trkpt lat="38.4560533" lon="16.0312667"><ele>87.0</ele><time>2026-05-03T17:16:12.482Z</time></trkpt><trkpt lat="38.4559317" lon="16.03142"><ele>87.0</ele><time>2026-05-03T17:16:13.481Z</time></trkpt><trkpt lat="38.45583" lon="16.031585"><ele>87.0</ele><time>2026-05-03T17:16:14.482Z</time></trkpt><trkpt lat="38.45575" lon="16.03177"><ele>90.0</ele><time>2026-05-03T17:16:15.483Z</time></trkpt><trkpt lat="38.4556783" lon="16.0319717"><ele>93.0</ele><time>2026-05-03T17:16:16.484Z</time></trkpt><trkpt lat="38.455615" lon="16.0321733"><ele>96.0</ele><time>2026-05-03T17:16:17.481Z</time></trkpt><trkpt lat="38.4555483" lon="16.0323667"><ele>96.33333333333334</ele><time>2026-05-03T17:16:18.481Z</time></trkpt><trkpt lat="38.45548" lon="16.0325533"><ele>96.66666666666667</ele><time>2026-05-03T17:16:19.481Z</time></trkpt><trkpt lat="38.4554133" lon="16.0327367"><ele>97.0</ele><time>2026-05-03T17:16:20.481Z</time></trkpt><trkpt lat="38.4553417" lon="16.03292"><ele>97.0</ele><time>2026-05-03T17:16:21.483Z</time></trkpt><trkpt lat="38.4552717" lon="16.0331033"><ele>97.0</ele><time>2026-05-03T17:16:22.482Z</time></trkpt><trkpt lat="38.4552067" lon="16.0332867"><ele>97.0</ele><time>2026-05-03T17:16:23.483Z</time></trkpt><trkpt lat="38.455145" lon="16.0334733"><ele>97.66666666666667</ele><time>2026-05-03T17:16:24.482Z</time></trkpt><trkpt lat="38.4550817" lon="16.0336617"><ele>98.33333333333334</ele><time>2026-05-03T17:16:25.483Z</time></trkpt><trkpt lat="38.4550217" lon="16.0338517"><ele>99.0</ele><time>2026-05-03T17:16:26.483Z</time></trkpt><trkpt lat="38.4549583" lon="16.0340417"><ele>99.66666666666666</ele><time>2026-05-03T17:16:27.482Z</time></trkpt><trkpt lat="38.45488" lon="16.0342217"><ele>100.33333333333333</ele><time>2026-05-03T17:16:28.481Z</time></trkpt><trkpt lat="38.4547833" lon="16.03439"><ele>101.0</ele><time>2026-05-03T17:16:29.481Z</time></trkpt><trkpt lat="38.4546667" lon="16.0345533"><ele>102.0</ele><time>2026-05-03T17:16:30.481Z</time></trkpt><trkpt lat="38.45454" lon="16.0347167"><ele>103.0</ele><time>2026-05-03T17:16:31.483Z</time></trkpt><trkpt lat="38.4544067" lon="16.0348933"><ele>104.0</ele><time>2026-05-03T17:16:32.482Z</time></trkpt><trkpt lat="38.4542783" lon="16.0350867"><ele>104.33333333333333</ele><time>2026-05-03T17:16:33.481Z</time></trkpt><trkpt lat="38.4541483" lon="16.0352683"><ele>104.66666666666666</ele><time>2026-05-03T17:16:34.482Z</time></trkpt><trkpt lat="38.4540267" lon="16.03544"><ele>105.0</ele><time>2026-05-03T17:16:35.482Z</time></trkpt><trkpt lat="38.4539083" lon="16.0356033"><ele>105.0</ele><time>2026-05-03T17:16:36.482Z</time></trkpt><trkpt lat="38.4537883" lon="16.0357633"><ele>105.0</ele><time>2026-05-03T17:16:37.482Z</time></trkpt><trkpt lat="38.4536633" lon="16.03592"><ele>105.0</ele><time>2026-05-03T17:16:38.482Z</time></trkpt><trkpt lat="38.45353" lon="16.03607"><ele>105.0</ele><time>2026-05-03T17:16:39.481Z</time></trkpt><trkpt lat="38.4533917" lon="16.03621"><ele>105.0</ele><time>2026-05-03T17:16:40.481Z</time></trkpt><trkpt lat="38.4532567" lon="16.0363433"><ele>105.0</ele><time>2026-05-03T17:16:41.481Z</time></trkpt><trkpt lat="38.4531383" lon="16.0364817"><ele>105.0</ele><time>2026-05-03T17:16:42.482Z</time></trkpt><trkpt lat="38.4530367" lon="16.036645"><ele>105.0</ele><time>2026-05-03T17:16:43.482Z</time></trkpt><trkpt lat="38.45296" lon="16.036835"><ele>105.0</ele><time>2026-05-03T17:16:44.483Z</time></trkpt><trkpt lat="38.4529017" lon="16.0370367"><ele>105.0</ele><time>2026-05-03T17:16:45.482Z</time></trkpt><trkpt lat="38.4528467" lon="16.03723"><ele>105.0</ele><time>2026-05-03T17:16:46.483Z</time></trkpt><trkpt lat="38.4527883" lon="16.0374017"><ele>105.0</ele><time>2026-05-03T17:16:47.483Z</time></trkpt><trkpt lat="38.4527067" lon="16.0375483"><ele>105.0</ele><time>2026-05-03T17:16:48.482Z</time></trkpt><trkpt lat="38.4526033" lon="16.037665"><ele>105.0</ele><time>2026-05-03T17:16:49.483Z</time></trkpt><trkpt lat="38.452475" lon="16.0377633"><ele>105.0</ele><time>2026-05-03T17:16:50.482Z</time></trkpt><trkpt lat="38.4523333" lon="16.03786"><ele>105.0</ele><time>2026-05-03T17:16:51.482Z</time></trkpt><trkpt lat="38.452195" lon="16.0379533"><ele>105.25</ele><time>2026-05-03T17:16:52.483Z</time></trkpt><trkpt lat="38.4520633" lon="16.03804"><ele>105.5</ele><time>2026-05-03T17:16:53.483Z</time></trkpt><trkpt lat="38.4519383" lon="16.0381233"><ele>105.75</ele><time>2026-05-03T17:16:54.482Z</time></trkpt><trkpt lat="38.4518233" lon="16.0382"><ele>106.0</ele><time>2026-05-03T17:16:55.483Z</time></trkpt><trkpt lat="38.4517133" lon="16.03827"><ele>106.8</ele><time>2026-05-03T17:16:56.483Z</time></trkpt><trkpt lat="38.4516067" lon="16.0383367"><ele>107.6</ele><time>2026-05-03T17:16:57.482Z</time></trkpt><trkpt lat="38.451505" lon="16.0384033"><ele>108.4</ele><time>2026-05-03T17:16:58.482Z</time></trkpt><trkpt lat="38.4514067" lon="16.0384633"><ele>109.2</ele><time>2026-05-03T17:16:59.483Z</time></trkpt><trkpt lat="38.45131" lon="16.0385217"><ele>110.0</ele><time>2026-05-03T17:17:00.484Z</time></trkpt><trkpt lat="38.4512133" lon="16.0385817"><ele>110.6</ele><time>2026-05-03T17:17:01.483Z</time></trkpt><trkpt lat="38.451115" lon="16.0386433"><ele>111.2</ele><time>2026-05-03T17:17:02.484Z</time></trkpt><trkpt lat="38.4510167" lon="16.0387067"><ele>111.80000000000001</ele><time>2026-05-03T17:17:03.482Z</time></trkpt><trkpt lat="38.45092" lon="16.0387683"><ele>112.4</ele><time>2026-05-03T17:17:04.482Z</time></trkpt><trkpt lat="38.4508183" lon="16.0388267"><ele>113.0</ele><time>2026-05-03T17:17:05.482Z</time></trkpt><trkpt lat="38.4507183" lon="16.0388867"><ele>113.0</ele><time>2026-05-03T17:17:06.482Z</time></trkpt><trkpt lat="38.4506167" lon="16.03895"><ele>113.0</ele><time>2026-05-03T17:17:07.482Z</time></trkpt><trkpt lat="38.4505117" lon="16.0390183"><ele>113.0</ele><time>2026-05-03T17:17:08.483Z</time></trkpt><trkpt lat="38.450405" lon="16.0390883"><ele>113.0</ele><time>2026-05-03T17:17:09.481Z</time></trkpt><trkpt lat="38.4502967" lon="16.0391583"><ele>114.0</ele><time>2026-05-03T17:17:10.482Z</time></trkpt><trkpt lat="38.4501883" lon="16.0392267"><ele>115.0</ele><time>2026-05-03T17:17:11.482Z</time></trkpt><trkpt lat="38.4500833" lon="16.0392917"><ele>116.0</ele><time>2026-05-03T17:17:12.482Z</time></trkpt><trkpt lat="38.4499783" lon="16.0393533"><ele>117.0</ele><time>2026-05-03T17:17:13.482Z</time></trkpt><trkpt lat="38.4498783" lon="16.0394117"><ele>117.0</ele><time>2026-05-03T17:17:14.481Z</time></trkpt><trkpt lat="38.4497783" lon="16.0394717"><ele>116.99999999999999</ele><time>2026-05-03T17:17:15.481Z</time></trkpt><trkpt lat="38.4496817" lon="16.0395317"><ele>116.99999999999999</ele><time>2026-05-03T17:17:16.482Z</time></trkpt><trkpt lat="38.4495833" lon="16.03959"><ele>117.0</ele><time>2026-05-03T17:17:17.481Z</time></trkpt><trkpt lat="38.4494883" lon="16.039645"><ele>117.0</ele><time>2026-05-03T17:17:18.482Z</time></trkpt><trkpt lat="38.4493883" lon="16.0397033"><ele>116.6</ele><time>2026-05-03T17:17:19.482Z</time></trkpt><trkpt lat="38.44929" lon="16.0397617"><ele>116.19999999999999</ele><time>2026-05-03T17:17:20.482Z</time></trkpt><trkpt lat="38.4491933" lon="16.0398217"><ele>115.8</ele><time>2026-05-03T17:17:21.482Z</time></trkpt><trkpt lat="38.4490967" lon="16.03988"><ele>115.4</ele><time>2026-05-03T17:17:22.482Z</time></trkpt><trkpt lat="38.4489983" lon="16.0399317"><ele>115.0</ele><time>2026-05-03T17:17:23.482Z</time></trkpt><trkpt lat="38.4489" lon="16.0399817"><ele>115.0</ele><time>2026-05-03T17:17:24.482Z</time></trkpt><trkpt lat="38.4488033" lon="16.0400283"><ele>115.0</ele><time>2026-05-03T17:17:25.481Z</time></trkpt><trkpt lat="38.44871" lon="16.04007"><ele>115.0</ele><time>2026-05-03T17:17:26.482Z</time></trkpt><trkpt lat="38.4486183" lon="16.0401083"><ele>115.0</ele><time>2026-05-03T17:17:27.482Z</time></trkpt><trkpt lat="38.448525" lon="16.0401467"><ele>115.0</ele><time>2026-05-03T17:17:28.482Z</time></trkpt><trkpt lat="38.4484317" lon="16.0401767"><ele>115.4</ele><time>2026-05-03T17:17:29.481Z</time></trkpt><trkpt lat="38.4483367" lon="16.0402"><ele>115.8</ele><time>2026-05-03T17:17:30.482Z</time></trkpt><trkpt lat="38.4482383" lon="16.0402167"><ele>116.19999999999999</ele><time>2026-05-03T17:17:31.483Z</time></trkpt><trkpt lat="38.448135" lon="16.04023"><ele>116.6</ele><time>2026-05-03T17:17:32.482Z</time></trkpt><trkpt lat="38.4480283" lon="16.0402433"><ele>117.0</ele><time>2026-05-03T17:17:33.481Z</time></trkpt><trkpt lat="38.447925" lon="16.0402567"><ele>116.19999999999999</ele><time>2026-05-03T17:17:34.481Z</time></trkpt><trkpt lat="38.4478283" lon="16.0402683"><ele>115.39999999999999</ele><time>2026-05-03T17:17:35.482Z</time></trkpt><trkpt lat="38.4477317" lon="16.04028"><ele>114.60000000000001</ele><time>2026-05-03T17:17:36.481Z</time></trkpt><trkpt lat="38.447635" lon="16.0402967"><ele>113.80000000000001</ele><time>2026-05-03T17:17:37.482Z</time></trkpt><trkpt lat="38.4475417" lon="16.0403133"><ele>113.0</ele><time>2026-05-03T17:17:38.482Z</time></trkpt><trkpt lat="38.4474483" lon="16.0403233"><ele>113.0</ele><time>2026-05-03T17:17:39.482Z</time></trkpt><trkpt lat="38.4473567" lon="16.040335"><ele>113.00000000000001</ele><time>2026-05-03T17:17:40.481Z</time></trkpt><trkpt lat="38.447265" lon="16.0403433"><ele>113.00000000000001</ele><time>2026-05-03T17:17:41.482Z</time></trkpt><trkpt lat="38.447175" lon="16.040355"><ele>113.0</ele><time>2026-05-03T17:17:42.482Z</time></trkpt><trkpt lat="38.4470867" lon="16.040375"><ele>113.0</ele><time>2026-05-03T17:17:43.483Z</time></trkpt><trkpt lat="38.447" lon="16.0403933"><ele>111.99999999999999</ele><time>2026-05-03T17:17:44.481Z</time></trkpt><trkpt lat="38.4469167" lon="16.0404133"><ele>111.0</ele><time>2026-05-03T17:17:45.481Z</time></trkpt><trkpt lat="38.446835" lon="16.0404417"><ele>110.0</ele><time>2026-05-03T17:17:46.481Z</time></trkpt><trkpt lat="38.4467583" lon="16.0404683"><ele>109.0</ele><time>2026-05-03T17:17:47.482Z</time></trkpt><trkpt lat="38.4466917" lon="16.0404983"><ele>107.99999999999999</ele><time>2026-05-03T17:17:48.482Z</time></trkpt><trkpt lat="38.4465833" lon="16.0405617"><ele>107.0</ele><time>2026-05-03T17:17:50.483Z</time></trkpt><trkpt lat="38.4464883" lon="16.040625"><ele>107.0</ele><time>2026-05-03T17:17:52.483Z</time></trkpt><trkpt lat="38.4463983" lon="16.0406867"><ele>106.99999999999999</ele><time>2026-05-03T17:17:54.482Z</time></trkpt><trkpt lat="38.4463367" lon="16.0407383"><ele>106.99999999999999</ele><time>2026-05-03T17:17:55.481Z</time></trkpt><trkpt lat="38.446265" lon="16.040805"><ele>107.0</ele><time>2026-05-03T17:17:56.482Z</time></trkpt><trkpt lat="38.44618" lon="16.0408867"><ele>107.0</ele><time>2026-05-03T17:17:57.481Z</time></trkpt><trkpt lat="38.4460817" lon="16.0409833"><ele>108.33333333333333</ele><time>2026-05-03T17:17:58.483Z</time></trkpt><trkpt lat="38.4459733" lon="16.0410917"><ele>109.66666666666666</ele><time>2026-05-03T17:17:59.481Z</time></trkpt><trkpt lat="38.445855" lon="16.0412167"><ele>111.0</ele><time>2026-05-03T17:18:00.482Z</time></trkpt><trkpt lat="38.44573" lon="16.0413533"><ele>111.0</ele><time>2026-05-03T17:18:01.482Z</time></trkpt><trkpt lat="38.4455917" lon="16.0415033"><ele>111.0</ele><time>2026-05-03T17:18:02.483Z</time></trkpt><trkpt lat="38.4454433" lon="16.0416633"><ele>111.0</ele><time>2026-05-03T17:18:03.481Z</time></trkpt><trkpt lat="38.4452883" lon="16.04182"><ele>112.66666666666666</ele><time>2026-05-03T17:18:04.482Z</time></trkpt><trkpt lat="38.44513" lon="16.0419783"><ele>114.33333333333333</ele><time>2026-05-03T17:18:05.483Z</time></trkpt><trkpt lat="38.444965" lon="16.0421383"><ele>116.0</ele><time>2026-05-03T17:18:06.481Z</time></trkpt><trkpt lat="38.4448033" lon="16.0422983"><ele>115.0</ele><time>2026-05-03T17:18:07.481Z</time></trkpt><trkpt lat="38.4446433" lon="16.042465"><ele>114.0</ele><time>2026-05-03T17:18:08.483Z</time></trkpt><trkpt lat="38.444495" lon="16.0426417"><ele>113.0</ele><time>2026-05-03T17:18:09.481Z</time></trkpt><trkpt lat="38.444365" lon="16.0428383"><ele>113.0</ele><time>2026-05-03T17:18:10.481Z</time></trkpt><trkpt lat="38.4442383" lon="16.0430333"><ele>113.0</ele><time>2026-05-03T17:18:11.483Z</time></trkpt><trkpt lat="38.44413" lon="16.043225"><ele>113.0</ele><time>2026-05-03T17:18:12.482Z</time></trkpt><trkpt lat="38.44402" lon="16.0433917"><ele>115.66666666666666</ele><time>2026-05-03T17:18:13.482Z</time></trkpt><trkpt lat="38.4439" lon="16.04354"><ele>118.33333333333334</ele><time>2026-05-03T17:18:14.483Z</time></trkpt><trkpt lat="38.4437683" lon="16.0436667"><ele>121.0</ele><time>2026-05-03T17:18:15.481Z</time></trkpt><trkpt lat="38.4436217" lon="16.0437717"><ele>121.0</ele><time>2026-05-03T17:18:16.482Z</time></trkpt><trkpt lat="38.4434633" lon="16.0438583"><ele>121.0</ele><time>2026-05-03T17:18:17.48Z</time></trkpt><trkpt lat="38.4432883" lon="16.04392"><ele>121.0</ele><time>2026-05-03T17:18:18.483Z</time></trkpt><trkpt lat="38.4431033" lon="16.0439683"><ele>119.33333333333334</ele><time>2026-05-03T17:18:19.481Z</time></trkpt><trkpt lat="38.4429083" lon="16.0440083"><ele>117.66666666666666</ele><time>2026-05-03T17:18:20.482Z</time></trkpt><trkpt lat="38.4427117" lon="16.044045"><ele>116.0</ele><time>2026-05-03T17:18:21.482Z</time></trkpt><trkpt lat="38.44252" lon="16.044085"><ele>116.0</ele><time>2026-05-03T17:18:22.482Z</time></trkpt><trkpt lat="38.4423433" lon="16.0441267"><ele>116.0</ele><time>2026-05-03T17:18:23.482Z</time></trkpt><trkpt lat="38.442175" lon="16.0441833"><ele>116.0</ele><time>2026-05-03T17:18:24.483Z</time></trkpt><trkpt lat="38.4420167" lon="16.0442617"><ele>122.33333333333333</ele><time>2026-05-03T17:18:25.482Z</time></trkpt><trkpt lat="38.4418583" lon="16.0443667"><ele>128.66666666666666</ele><time>2026-05-03T17:18:26.483Z</time></trkpt><trkpt lat="38.4416983" lon="16.04449"><ele>135.0</ele><time>2026-05-03T17:18:27.482Z</time></trkpt><trkpt lat="38.4415483" lon="16.0446183"><ele>135.0</ele><time>2026-05-03T17:18:28.481Z</time></trkpt><trkpt lat="38.441405" lon="16.0447433"><ele>135.0</ele><time>2026-05-03T17:18:29.481Z</time></trkpt><trkpt lat="38.4412733" lon="16.0448733"><ele>135.0</ele><time>2026-05-03T17:18:30.482Z</time></trkpt><trkpt lat="38.4411667" lon="16.045025"><ele>133.66666666666666</ele><time>2026-05-03T17:18:31.482Z</time></trkpt><trkpt lat="38.4410817" lon="16.0452"><ele>132.33333333333331</ele><time>2026-05-03T17:18:32.483Z</time></trkpt><trkpt lat="38.44101" lon="16.0454"><ele>131.0</ele><time>2026-05-03T17:18:33.482Z</time></trkpt><trkpt lat="38.4409367" lon="16.045615"><ele>130.66666666666666</ele><time>2026-05-03T17:18:34.482Z</time></trkpt><trkpt lat="38.4408533" lon="16.0458333"><ele>130.33333333333334</ele><time>2026-05-03T17:18:35.482Z</time></trkpt><trkpt lat="38.4407533" lon="16.0460533"><ele>130.0</ele><time>2026-05-03T17:18:36.483Z</time></trkpt><trkpt lat="38.4406383" lon="16.0462733"><ele>130.0</ele><time>2026-05-03T17:18:37.482Z</time></trkpt><trkpt lat="38.44051" lon="16.0464983"><ele>130.0</ele><time>2026-05-03T17:18:38.483Z</time></trkpt><trkpt lat="38.4403767" lon="16.04672"><ele>130.0</ele><time>2026-05-03T17:18:39.482Z</time></trkpt><trkpt lat="38.440245" lon="16.04693"><ele>131.0</ele><time>2026-05-03T17:18:40.482Z</time></trkpt><trkpt lat="38.440105" lon="16.04713"><ele>132.0</ele><time>2026-05-03T17:18:41.483Z</time></trkpt><trkpt lat="38.43997" lon="16.0473117"><ele>133.0</ele><time>2026-05-03T17:18:42.482Z</time></trkpt><trkpt lat="38.43984" lon="16.0474817"><ele>134.33333333333334</ele><time>2026-05-03T17:18:43.481Z</time></trkpt><trkpt lat="38.4397033" lon="16.0476367"><ele>135.66666666666666</ele><time>2026-05-03T17:18:44.482Z</time></trkpt><trkpt lat="38.4395583" lon="16.0477817"><ele>137.0</ele><time>2026-05-03T17:18:45.483Z</time></trkpt><trkpt lat="38.4394017" lon="16.0479067"><ele>137.0</ele><time>2026-05-03T17:18:46.482Z</time></trkpt><trkpt lat="38.4392417" lon="16.04802"><ele>137.0</ele><time>2026-05-03T17:18:47.482Z</time></trkpt><trkpt lat="38.43907" lon="16.048115"><ele>137.0</ele><time>2026-05-03T17:18:48.483Z</time></trkpt><trkpt lat="38.4388933" lon="16.0482017"><ele>136.66666666666666</ele><time>2026-05-03T17:18:49.481Z</time></trkpt><trkpt lat="38.4387183" lon="16.0482883"><ele>136.33333333333334</ele><time>2026-05-03T17:18:50.482Z</time></trkpt><trkpt lat="38.43855" lon="16.0483783"><ele>136.0</ele><time>2026-05-03T17:18:51.482Z</time></trkpt><trkpt lat="38.4383883" lon="16.0484717"><ele>136.33333333333334</ele><time>2026-05-03T17:18:52.481Z</time></trkpt><trkpt lat="38.4382367" lon="16.0485783"><ele>136.66666666666666</ele><time>2026-05-03T17:18:53.48Z</time></trkpt><trkpt lat="38.4380867" lon="16.0487"><ele>137.0</ele><time>2026-05-03T17:18:54.48Z</time></trkpt><trkpt lat="38.4379433" lon="16.04884"><ele>137.0</ele><time>2026-05-03T17:18:55.485Z</time></trkpt><trkpt lat="38.437805" lon="16.04899"><ele>137.0</ele><time>2026-05-03T17:18:56.483Z</time></trkpt><trkpt lat="38.437665" lon="16.049135"><ele>137.0</ele><time>2026-05-03T17:18:57.482Z</time></trkpt><trkpt lat="38.4375233" lon="16.0492733"><ele>138.33333333333331</ele><time>2026-05-03T17:18:58.483Z</time></trkpt><trkpt lat="38.4373817" lon="16.0494"><ele>139.66666666666666</ele><time>2026-05-03T17:18:59.482Z</time></trkpt><trkpt lat="38.4372317" lon="16.0495167"><ele>141.0</ele><time>2026-05-03T17:19:00.483Z</time></trkpt><trkpt lat="38.4370733" lon="16.049625"><ele>141.0</ele><time>2026-05-03T17:19:01.483Z</time></trkpt><trkpt lat="38.4369083" lon="16.0497317"><ele>141.0</ele><time>2026-05-03T17:19:02.482Z</time></trkpt><trkpt lat="38.43674" lon="16.0498433"><ele>141.0</ele><time>2026-05-03T17:19:03.48Z</time></trkpt><trkpt lat="38.4365683" lon="16.0499583"><ele>141.66666666666666</ele><time>2026-05-03T17:19:04.484Z</time></trkpt><trkpt lat="38.4364" lon="16.0500817"><ele>142.33333333333331</ele><time>2026-05-03T17:19:05.484Z</time></trkpt><trkpt lat="38.4362317" lon="16.050195"><ele>143.0</ele><time>2026-05-03T17:19:06.482Z</time></trkpt><trkpt lat="38.436075" lon="16.050305"><ele>143.0</ele><time>2026-05-03T17:19:07.482Z</time></trkpt><trkpt lat="38.435935" lon="16.050415"><ele>143.0</ele><time>2026-05-03T17:19:08.482Z</time></trkpt><trkpt lat="38.4358033" lon="16.0505233"><ele>143.0</ele><time>2026-05-03T17:19:09.482Z</time></trkpt><trkpt lat="38.4356817" lon="16.0506267"><ele>143.0</ele><time>2026-05-03T17:19:10.482Z</time></trkpt><trkpt lat="38.435575" lon="16.050725"><ele>143.0</ele><time>2026-05-03T17:19:11.482Z</time></trkpt><trkpt lat="38.4354867" lon="16.0508333"><ele>143.0</ele><time>2026-05-03T17:19:12.483Z</time></trkpt><trkpt lat="38.43542" lon="16.050955"><ele>143.0</ele><time>2026-05-03T17:19:13.482Z</time></trkpt><trkpt lat="38.4353867" lon="16.051105"><ele>144.0</ele><time>2026-05-03T17:19:14.482Z</time></trkpt><trkpt lat="38.4353883" lon="16.051265"><ele>145.0</ele><time>2026-05-03T17:19:15.481Z</time></trkpt><trkpt lat="38.43542" lon="16.051435"><ele>146.0</ele><time>2026-05-03T17:19:16.482Z</time></trkpt><trkpt lat="38.4354633" lon="16.051615"><ele>147.0</ele><time>2026-05-03T17:19:17.482Z</time></trkpt><trkpt lat="38.435515" lon="16.0518033"><ele>147.0</ele><time>2026-05-03T17:19:18.482Z</time></trkpt><trkpt lat="38.4355583" lon="16.0519933"><ele>147.0</ele><time>2026-05-03T17:19:19.481Z</time></trkpt><trkpt lat="38.435605" lon="16.0521783"><ele>147.0</ele><time>2026-05-03T17:19:20.482Z</time></trkpt><trkpt lat="38.4356433" lon="16.05237"><ele>148.0</ele><time>2026-05-03T17:19:21.482Z</time></trkpt><trkpt lat="38.4356767" lon="16.0525633"><ele>149.0</ele><time>2026-05-03T17:19:22.482Z</time></trkpt><trkpt lat="38.4357117" lon="16.052755"><ele>150.0</ele><time>2026-05-03T17:19:23.481Z</time></trkpt><trkpt lat="38.4357283" lon="16.0529617"><ele>150.0</ele><time>2026-05-03T17:19:24.482Z</time></trkpt><trkpt lat="38.4357383" lon="16.0531667"><ele>150.0</ele><time>2026-05-03T17:19:25.482Z</time></trkpt><trkpt lat="38.4357417" lon="16.053375"><ele>150.0</ele><time>2026-05-03T17:19:26.482Z</time></trkpt><trkpt lat="38.4357383" lon="16.0535867"><ele>152.0</ele><time>2026-05-03T17:19:27.48Z</time></trkpt><trkpt lat="38.4357267" lon="16.0537967"><ele>154.0</ele><time>2026-05-03T17:19:28.482Z</time></trkpt><trkpt lat="38.4357133" lon="16.0540017"><ele>156.0</ele><time>2026-05-03T17:19:29.482Z</time></trkpt><trkpt lat="38.435695" lon="16.0542033"><ele>156.33333333333334</ele><time>2026-05-03T17:19:30.481Z</time></trkpt><trkpt lat="38.4356817" lon="16.0544017"><ele>156.66666666666669</ele><time>2026-05-03T17:19:31.482Z</time></trkpt><trkpt lat="38.43567" lon="16.0545933"><ele>157.0</ele><time>2026-05-03T17:19:32.482Z</time></trkpt><trkpt lat="38.4356583" lon="16.0547867"><ele>156.75</ele><time>2026-05-03T17:19:33.482Z</time></trkpt><trkpt lat="38.4356483" lon="16.054975"><ele>156.5</ele><time>2026-05-03T17:19:34.481Z</time></trkpt><trkpt lat="38.4356417" lon="16.0551533"><ele>156.25</ele><time>2026-05-03T17:19:35.482Z</time></trkpt><trkpt lat="38.435635" lon="16.05532"><ele>156.0</ele><time>2026-05-03T17:19:36.481Z</time></trkpt><trkpt lat="38.43562" lon="16.0554783"><ele>156.0</ele><time>2026-05-03T17:19:37.48Z</time></trkpt><trkpt lat="38.43561" lon="16.055635"><ele>156.0</ele><time>2026-05-03T17:19:38.483Z</time></trkpt><trkpt lat="38.4355933" lon="16.055795"><ele>156.0</ele><time>2026-05-03T17:19:39.482Z</time></trkpt><trkpt lat="38.4355717" lon="16.055955"><ele>156.0</ele><time>2026-05-03T17:19:40.482Z</time></trkpt><trkpt lat="38.4355333" lon="16.0561183"><ele>156.75</ele><time>2026-05-03T17:19:41.481Z</time></trkpt><trkpt lat="38.43549" lon="16.0562783"><ele>157.5</ele><time>2026-05-03T17:19:42.482Z</time></trkpt><trkpt lat="38.4354483" lon="16.0564367"><ele>158.25</ele><time>2026-05-03T17:19:43.481Z</time></trkpt><trkpt lat="38.4354017" lon="16.05659"><ele>159.0</ele><time>2026-05-03T17:19:44.482Z</time></trkpt><trkpt lat="38.4353517" lon="16.0567383"><ele>160.0</ele><time>2026-05-03T17:19:45.48Z</time></trkpt><trkpt lat="38.435285" lon="16.0568783"><ele>161.0</ele><time>2026-05-03T17:19:46.482Z</time></trkpt><trkpt lat="38.43521" lon="16.05701"><ele>162.0</ele><time>2026-05-03T17:19:47.481Z</time></trkpt><trkpt lat="38.4351417" lon="16.0571367"><ele>163.0</ele><time>2026-05-03T17:19:48.482Z</time></trkpt><trkpt lat="38.43507" lon="16.057265"><ele>163.0</ele><time>2026-05-03T17:19:49.482Z</time></trkpt><trkpt lat="38.4349917" lon="16.057325"><ele>163.0</ele><time>2026-05-03T17:19:50.482Z</time></trkpt><trkpt lat="38.4348233" lon="16.0574867"><ele>163.0</ele><time>2026-05-03T17:19:51.482Z</time></trkpt><trkpt lat="38.4347633" lon="16.0576283"><ele>163.0</ele><time>2026-05-03T17:19:52.482Z</time></trkpt><trkpt lat="38.434695" lon="16.057765"><ele>164.0</ele><time>2026-05-03T17:19:53.482Z</time></trkpt><trkpt lat="38.4346333" lon="16.0579083"><ele>165.0</ele><time>2026-05-03T17:19:54.482Z</time></trkpt><trkpt lat="38.43458" lon="16.058065"><ele>166.0</ele><time>2026-05-03T17:19:55.481Z</time></trkpt><trkpt lat="38.434535" lon="16.0582133"><ele>167.0</ele><time>2026-05-03T17:19:56.483Z</time></trkpt><trkpt lat="38.4344917" lon="16.05834"><ele>167.5</ele><time>2026-05-03T17:19:57.482Z</time></trkpt><trkpt lat="38.43443" lon="16.0584483"><ele>168.0</ele><time>2026-05-03T17:19:58.483Z</time></trkpt><trkpt lat="38.4343433" lon="16.0585517"><ele>168.5</ele><time>2026-05-03T17:19:59.481Z</time></trkpt><trkpt lat="38.4342483" lon="16.058645"><ele>169.0</ele><time>2026-05-03T17:20:00.482Z</time></trkpt><trkpt lat="38.4341533" lon="16.0587333"><ele>169.0</ele><time>2026-05-03T17:20:01.482Z</time></trkpt><trkpt lat="38.4340683" lon="16.05883"><ele>169.0</ele><time>2026-05-03T17:20:02.482Z</time></trkpt><trkpt lat="38.4339783" lon="16.0589133"><ele>169.0</ele><time>2026-05-03T17:20:03.481Z</time></trkpt><trkpt lat="38.4338883" lon="16.0590017"><ele>169.0</ele><time>2026-05-03T17:20:04.482Z</time></trkpt><trkpt lat="38.433795" lon="16.0590983"><ele>169.0</ele><time>2026-05-03T17:20:05.483Z</time></trkpt><trkpt lat="38.4336867" lon="16.0591833"><ele>169.0</ele><time>2026-05-03T17:20:06.482Z</time></trkpt><trkpt lat="38.4335917" lon="16.05928"><ele>169.0</ele><time>2026-05-03T17:20:07.482Z</time></trkpt><trkpt lat="38.4335017" lon="16.0593833"><ele>169.0</ele><time>2026-05-03T17:20:08.482Z</time></trkpt><trkpt lat="38.4334067" lon="16.0594883"><ele>169.0</ele><time>2026-05-03T17:20:09.481Z</time></trkpt><trkpt lat="38.4333" lon="16.059585"><ele>169.0</ele><time>2026-05-03T17:20:10.481Z</time></trkpt><trkpt lat="38.43319" lon="16.0596833"><ele>169.0</ele><time>2026-05-03T17:20:11.482Z</time></trkpt><trkpt lat="38.43308" lon="16.05979"><ele>169.0</ele><time>2026-05-03T17:20:12.481Z</time></trkpt><trkpt lat="38.4329717" lon="16.0598967"><ele>168.79999999999998</ele><time>2026-05-03T17:20:13.481Z</time></trkpt><trkpt lat="38.4328633" lon="16.059995"><ele>168.6</ele><time>2026-05-03T17:20:14.481Z</time></trkpt><trkpt lat="38.432765" lon="16.0600933"><ele>168.4</ele><time>2026-05-03T17:20:15.481Z</time></trkpt><trkpt lat="38.4326767" lon="16.0601733"><ele>168.2</ele><time>2026-05-03T17:20:16.482Z</time></trkpt><trkpt lat="38.4326183" lon="16.0602417"><ele>168.0</ele><time>2026-05-03T17:20:17.481Z</time></trkpt><trkpt lat="38.4325117" lon="16.0602883"><ele>168.0</ele><time>2026-05-03T17:20:19.481Z</time></trkpt><trkpt lat="38.4324383" lon="16.0602467"><ele>168.0</ele><time>2026-05-03T17:20:20.482Z</time></trkpt><trkpt lat="38.4323533" lon="16.0601767"><ele>168.0</ele><time>2026-05-03T17:20:21.481Z</time></trkpt><trkpt lat="38.432255" lon="16.0601317"><ele>168.0</ele><time>2026-05-03T17:20:22.482Z</time></trkpt><trkpt lat="38.43215" lon="16.06008"><ele>168.0</ele><time>2026-05-03T17:20:23.481Z</time></trkpt><trkpt lat="38.4320317" lon="16.0600133"><ele>167.5</ele><time>2026-05-03T17:20:24.482Z</time></trkpt><trkpt lat="38.431905" lon="16.05994"><ele>167.0</ele><time>2026-05-03T17:20:25.481Z</time></trkpt><trkpt lat="38.4317867" lon="16.05987"><ele>166.5</ele><time>2026-05-03T17:20:26.483Z</time></trkpt><trkpt lat="38.4316767" lon="16.0598117"><ele>166.0</ele><time>2026-05-03T17:20:27.481Z</time></trkpt><trkpt lat="38.4315767" lon="16.0597617"><ele>166.0</ele><time>2026-05-03T17:20:28.482Z</time></trkpt><trkpt lat="38.4314933" lon="16.0597117"><ele>166.0</ele><time>2026-05-03T17:20:29.481Z</time></trkpt><trkpt lat="38.4314233" lon="16.0596767"><ele>166.0</ele><time>2026-05-03T17:20:30.482Z</time></trkpt><trkpt lat="38.4313217" lon="16.0596617"><ele>166.0</ele><time>2026-05-03T17:20:32.482Z</time></trkpt><trkpt lat="38.4312767" lon="16.05979"><ele>166.0</ele><time>2026-05-03T17:20:34.482Z</time></trkpt><trkpt lat="38.4312517" lon="16.0598717"><ele>166.0</ele><time>2026-05-03T17:20:35.481Z</time></trkpt><trkpt lat="38.4312333" lon="16.0599833"><ele>166.5</ele><time>2026-05-03T17:20:36.482Z</time></trkpt><trkpt lat="38.4311917" lon="16.0601333"><ele>167.0</ele><time>2026-05-03T17:20:37.482Z</time></trkpt><trkpt lat="38.431135" lon="16.0602833"><ele>167.5</ele><time>2026-05-03T17:20:38.483Z</time></trkpt><trkpt lat="38.4310867" lon="16.06046"><ele>168.0</ele><time>2026-05-03T17:20:39.481Z</time></trkpt><trkpt lat="38.4310467" lon="16.0606233"><ele>168.0</ele><time>2026-05-03T17:20:40.482Z</time></trkpt><trkpt lat="38.4310067" lon="16.060765"><ele>168.0</ele><time>2026-05-03T17:20:41.482Z</time></trkpt><trkpt lat="38.4309667" lon="16.0608767"><ele>168.0</ele><time>2026-05-03T17:20:42.481Z</time></trkpt><trkpt lat="38.4309317" lon="16.060965"><ele>168.0</ele><time>2026-05-03T17:20:43.481Z</time></trkpt><trkpt lat="38.430915" lon="16.0610467"><ele>168.0</ele><time>2026-05-03T17:20:44.483Z</time></trkpt><trkpt lat="38.430935" lon="16.0612067"><ele>168.16666666666666</ele><time>2026-05-03T17:20:46.482Z</time></trkpt><trkpt lat="38.430975" lon="16.0612933"><ele>168.33333333333334</ele><time>2026-05-03T17:20:47.482Z</time></trkpt><trkpt lat="38.4310333" lon="16.0613833"><ele>168.5</ele><time>2026-05-03T17:20:48.482Z</time></trkpt><trkpt lat="38.43109" lon="16.0614733"><ele>168.66666666666669</ele><time>2026-05-03T17:20:49.483Z</time></trkpt><trkpt lat="38.4311367" lon="16.061545"><ele>168.83333333333334</ele><time>2026-05-03T17:20:50.482Z</time></trkpt><trkpt lat="38.4311683" lon="16.0616167"><ele>169.0</ele><time>2026-05-03T17:20:51.48Z</time></trkpt><trkpt lat="38.43122" lon="16.0617383"><ele>169.16666666666669</ele><time>2026-05-03T17:20:53.482Z</time></trkpt><trkpt lat="38.431245" lon="16.06184"><ele>169.33333333333334</ele><time>2026-05-03T17:20:55.482Z</time></trkpt><trkpt lat="38.431215" lon="16.0619783"><ele>169.5</ele><time>2026-05-03T17:20:57.481Z</time></trkpt><trkpt lat="38.4311767" lon="16.062055"><ele>169.66666666666666</ele><time>2026-05-03T17:20:58.481Z</time></trkpt><trkpt lat="38.4311283" lon="16.0621317"><ele>169.83333333333331</ele><time>2026-05-03T17:20:59.481Z</time></trkpt><trkpt lat="38.4310633" lon="16.0622067"><ele>170.0</ele><time>2026-05-03T17:21:00.482Z</time></trkpt><trkpt lat="38.4309917" lon="16.062285"><ele>170.0</ele><time>2026-05-03T17:21:01.481Z</time></trkpt><trkpt lat="38.4309133" lon="16.0623517"><ele>170.0</ele><time>2026-05-03T17:21:02.482Z</time></trkpt><trkpt lat="38.430845" lon="16.062425"><ele>170.0</ele><time>2026-05-03T17:21:03.481Z</time></trkpt><trkpt lat="38.430775" lon="16.062495"><ele>170.0</ele><time>2026-05-03T17:21:04.481Z</time></trkpt><trkpt lat="38.4307067" lon="16.0625683"><ele>170.0</ele><time>2026-05-03T17:21:05.482Z</time></trkpt><trkpt lat="38.430635" lon="16.0626433"><ele>170.33333333333331</ele><time>2026-05-03T17:21:06.482Z</time></trkpt><trkpt lat="38.4305633" lon="16.06272"><ele>170.66666666666666</ele><time>2026-05-03T17:21:07.482Z</time></trkpt><trkpt lat="38.430495" lon="16.0627933"><ele>171.0</ele><time>2026-05-03T17:21:08.482Z</time></trkpt><trkpt lat="38.4304317" lon="16.0628633"><ele>171.33333333333334</ele><time>2026-05-03T17:21:09.482Z</time></trkpt><trkpt lat="38.4303733" lon="16.0629317"><ele>171.66666666666669</ele><time>2026-05-03T17:21:10.481Z</time></trkpt><trkpt lat="38.4303217" lon="16.0629933"><ele>172.0</ele><time>2026-05-03T17:21:11.482Z</time></trkpt><trkpt lat="38.43027" lon="16.063045"><ele>172.14285714285717</ele><time>2026-05-03T17:21:12.483Z</time></trkpt><trkpt lat="38.4302183" lon="16.0630933"><ele>172.28571428571428</ele><time>2026-05-03T17:21:13.481Z</time></trkpt><trkpt lat="38.4301667" lon="16.063145"><ele>172.42857142857144</ele><time>2026-05-03T17:21:14.482Z</time></trkpt><trkpt lat="38.43011" lon="16.063195"><ele>172.57142857142858</ele><time>2026-05-03T17:21:15.481Z</time></trkpt><trkpt lat="38.4300533" lon="16.0632533"><ele>172.71428571428572</ele><time>2026-05-03T17:21:16.482Z</time></trkpt><trkpt lat="38.4299933" lon="16.0633217"><ele>172.85714285714286</ele><time>2026-05-03T17:21:17.484Z</time></trkpt><trkpt lat="38.4299317" lon="16.0633933"><ele>173.0</ele><time>2026-05-03T17:21:18.481Z</time></trkpt><trkpt lat="38.4298683" lon="16.063465"><ele>173.2</ele><time>2026-05-03T17:21:19.482Z</time></trkpt><trkpt lat="38.4298067" lon="16.0635383"><ele>173.4</ele><time>2026-05-03T17:21:20.482Z</time></trkpt><trkpt lat="38.4297367" lon="16.0636117"><ele>173.6</ele><time>2026-05-03T17:21:21.481Z</time></trkpt><trkpt lat="38.4296633" lon="16.0636917"><ele>173.79999999999998</ele><time>2026-05-03T17:21:22.482Z</time></trkpt><trkpt lat="38.429585" lon="16.06377"><ele>174.0</ele><time>2026-05-03T17:21:23.481Z</time></trkpt><trkpt lat="38.4295067" lon="16.06385"><ele>174.2</ele><time>2026-05-03T17:21:24.482Z</time></trkpt><trkpt lat="38.429435" lon="16.0639317"><ele>174.39999999999998</ele><time>2026-05-03T17:21:25.482Z</time></trkpt><trkpt lat="38.429365" lon="16.064015"><ele>174.6</ele><time>2026-05-03T17:21:26.483Z</time></trkpt><trkpt lat="38.4292917" lon="16.064095"><ele>174.8</ele><time>2026-05-03T17:21:27.481Z</time></trkpt><trkpt lat="38.4292217" lon="16.064165"><ele>175.0</ele><time>2026-05-03T17:21:28.481Z</time></trkpt><trkpt lat="38.429155" lon="16.064225"><ele>175.16666666666669</ele><time>2026-05-03T17:21:29.48Z</time></trkpt><trkpt lat="38.429095" lon="16.0642817"><ele>175.33333333333334</ele><time>2026-05-03T17:21:30.481Z</time></trkpt><trkpt lat="38.42904" lon="16.0643433"><ele>175.5</ele><time>2026-05-03T17:21:31.481Z</time></trkpt><trkpt lat="38.42898" lon="16.0644033"><ele>175.66666666666666</ele><time>2026-05-03T17:21:32.482Z</time></trkpt><trkpt lat="38.428915" lon="16.0644667"><ele>175.83333333333331</ele><time>2026-05-03T17:21:33.482Z</time></trkpt><trkpt lat="38.42884" lon="16.0645283"><ele>176.0</ele><time>2026-05-03T17:21:34.482Z</time></trkpt><trkpt lat="38.4287583" lon="16.06458"><ele>176.4</ele><time>2026-05-03T17:21:35.482Z</time></trkpt><trkpt lat="38.42867" lon="16.0646333"><ele>176.8</ele><time>2026-05-03T17:21:36.481Z</time></trkpt><trkpt lat="38.42858" lon="16.0646867"><ele>177.20000000000002</ele><time>2026-05-03T17:21:37.482Z</time></trkpt><trkpt lat="38.428485" lon="16.06474"><ele>177.60000000000002</ele><time>2026-05-03T17:21:38.481Z</time></trkpt><trkpt lat="38.4283883" lon="16.0647983"><ele>178.0</ele><time>2026-05-03T17:21:39.482Z</time></trkpt><trkpt lat="38.4282817" lon="16.0648583"><ele>178.0</ele><time>2026-05-03T17:21:40.482Z</time></trkpt><trkpt lat="38.4281667" lon="16.0649233"><ele>178.0</ele><time>2026-05-03T17:21:41.482Z</time></trkpt><trkpt lat="38.428045" lon="16.0649917"><ele>178.0</ele><time>2026-05-03T17:21:42.481Z</time></trkpt><trkpt lat="38.4279117" lon="16.065065"><ele>178.0</ele><time>2026-05-03T17:21:43.482Z</time></trkpt><trkpt lat="38.4277767" lon="16.0651367"><ele>178.66666666666669</ele><time>2026-05-03T17:21:44.483Z</time></trkpt><trkpt lat="38.4276417" lon="16.065215"><ele>179.33333333333334</ele><time>2026-05-03T17:21:45.481Z</time></trkpt><trkpt lat="38.4274983" lon="16.0652917"><ele>180.0</ele><time>2026-05-03T17:21:46.482Z</time></trkpt><trkpt lat="38.42736" lon="16.0653733"><ele>180.0</ele><time>2026-05-03T17:21:47.481Z</time></trkpt><trkpt lat="38.427215" lon="16.0654533"><ele>180.0</ele><time>2026-05-03T17:21:48.482Z</time></trkpt><trkpt lat="38.4270683" lon="16.0655317"><ele>180.0</ele><time>2026-05-03T17:21:49.482Z</time></trkpt><trkpt lat="38.4269233" lon="16.065605"><ele>180.25</ele><time>2026-05-03T17:21:50.481Z</time></trkpt><trkpt lat="38.4267883" lon="16.0656833"><ele>180.5</ele><time>2026-05-03T17:21:51.483Z</time></trkpt><trkpt lat="38.4266583" lon="16.06576"><ele>180.75</ele><time>2026-05-03T17:21:52.481Z</time></trkpt><trkpt lat="38.4265233" lon="16.0658333"><ele>181.0</ele><time>2026-05-03T17:21:53.482Z</time></trkpt><trkpt lat="38.4263883" lon="16.0659133"><ele>181.5</ele><time>2026-05-03T17:21:54.482Z</time></trkpt><trkpt lat="38.426255" lon="16.0659933"><ele>182.0</ele><time>2026-05-03T17:21:55.482Z</time></trkpt><trkpt lat="38.4261267" lon="16.06607"><ele>182.5</ele><time>2026-05-03T17:21:56.483Z</time></trkpt><trkpt lat="38.426015" lon="16.06614"><ele>183.0</ele><time>2026-05-03T17:21:57.482Z</time></trkpt><trkpt lat="38.4259133" lon="16.0661983"><ele>183.0</ele><time>2026-05-03T17:21:58.48Z</time></trkpt><trkpt lat="38.42583" lon="16.0662433"><ele>183.0</ele><time>2026-05-03T17:21:59.48Z</time></trkpt><trkpt lat="38.425755" lon="16.066285"><ele>183.0</ele><time>2026-05-03T17:22:00.48Z</time></trkpt><trkpt lat="38.425675" lon="16.0663317"><ele>183.0</ele><time>2026-05-03T17:22:01.482Z</time></trkpt><trkpt lat="38.42558" lon="16.0663867"><ele>183.0</ele><time>2026-05-03T17:22:02.481Z</time></trkpt><trkpt lat="38.42547" lon="16.0664533"><ele>184.75</ele><time>2026-05-03T17:22:03.481Z</time></trkpt><trkpt lat="38.42535" lon="16.0665267"><ele>186.5</ele><time>2026-05-03T17:22:04.482Z</time></trkpt><trkpt lat="38.425215" lon="16.0666033"><ele>188.25</ele><time>2026-05-03T17:22:05.481Z</time></trkpt><trkpt lat="38.42507" lon="16.0666883"><ele>190.0</ele><time>2026-05-03T17:22:06.482Z</time></trkpt><trkpt lat="38.424915" lon="16.066775"><ele>190.33333333333334</ele><time>2026-05-03T17:22:07.481Z</time></trkpt><trkpt lat="38.4247483" lon="16.0668667"><ele>190.66666666666666</ele><time>2026-05-03T17:22:08.482Z</time></trkpt><trkpt lat="38.4245683" lon="16.0669683"><ele>191.0</ele><time>2026-05-03T17:22:09.482Z</time></trkpt><trkpt lat="38.4243833" lon="16.0670783"><ele>190.0</ele><time>2026-05-03T17:22:10.482Z</time></trkpt><trkpt lat="38.4242017" lon="16.0671833"><ele>189.0</ele><time>2026-05-03T17:22:11.481Z</time></trkpt><trkpt lat="38.424025" lon="16.0672833"><ele>188.0</ele><time>2026-05-03T17:22:12.482Z</time></trkpt><trkpt lat="38.4238467" lon="16.067385"><ele>190.0</ele><time>2026-05-03T17:22:13.481Z</time></trkpt><trkpt lat="38.4236683" lon="16.0674833"><ele>192.0</ele><time>2026-05-03T17:22:14.481Z</time></trkpt><trkpt lat="38.4234867" lon="16.0675867"><ele>194.0</ele><time>2026-05-03T17:22:15.481Z</time></trkpt><trkpt lat="38.4233033" lon="16.0676967"><ele>194.0</ele><time>2026-05-03T17:22:16.481Z</time></trkpt><trkpt lat="38.4231117" lon="16.0678083"><ele>194.0</ele><time>2026-05-03T17:22:17.481Z</time></trkpt><trkpt lat="38.4229183" lon="16.067925"><ele>194.0</ele><time>2026-05-03T17:22:18.482Z</time></trkpt><trkpt lat="38.4227183" lon="16.068035"><ele>194.33333333333334</ele><time>2026-05-03T17:22:19.481Z</time></trkpt><trkpt lat="38.422525" lon="16.0681383"><ele>194.66666666666669</ele><time>2026-05-03T17:22:20.482Z</time></trkpt><trkpt lat="38.422345" lon="16.0682367"><ele>195.0</ele><time>2026-05-03T17:22:21.481Z</time></trkpt><trkpt lat="38.42217" lon="16.0683367"><ele>196.0</ele><time>2026-05-03T17:22:22.482Z</time></trkpt><trkpt lat="38.4219933" lon="16.0684283"><ele>197.0</ele><time>2026-05-03T17:22:23.484Z</time></trkpt><trkpt lat="38.42182" lon="16.0685233"><ele>198.0</ele><time>2026-05-03T17:22:24.481Z</time></trkpt><trkpt lat="38.4216517" lon="16.0686217"><ele>198.0</ele><time>2026-05-03T17:22:25.482Z</time></trkpt><trkpt lat="38.4214817" lon="16.0687183"><ele>198.0</ele><time>2026-05-03T17:22:26.483Z</time></trkpt><trkpt lat="38.421315" lon="16.0688167"><ele>198.0</ele><time>2026-05-03T17:22:27.48Z</time></trkpt><trkpt lat="38.4211483" lon="16.06892"><ele>199.66666666666669</ele><time>2026-05-03T17:22:28.481Z</time></trkpt><trkpt lat="38.4209783" lon="16.0690217"><ele>201.33333333333334</ele><time>2026-05-03T17:22:29.482Z</time></trkpt><trkpt lat="38.4208083" lon="16.0691133"><ele>203.0</ele><time>2026-05-03T17:22:30.482Z</time></trkpt><trkpt lat="38.4206367" lon="16.0692067"><ele>204.0</ele><time>2026-05-03T17:22:31.481Z</time></trkpt><trkpt lat="38.4204633" lon="16.069295"><ele>205.0</ele><time>2026-05-03T17:22:32.483Z</time></trkpt><trkpt lat="38.4202967" lon="16.0693867"><ele>206.0</ele><time>2026-05-03T17:22:33.482Z</time></trkpt><trkpt lat="38.4201333" lon="16.0694733"><ele>206.0</ele><time>2026-05-03T17:22:34.481Z</time></trkpt><trkpt lat="38.41997" lon="16.0695617"><ele>206.0</ele><time>2026-05-03T17:22:35.481Z</time></trkpt><trkpt lat="38.4198133" lon="16.069655"><ele>206.0</ele><time>2026-05-03T17:22:36.482Z</time></trkpt><trkpt lat="38.419665" lon="16.069745"><ele>205.33333333333334</ele><time>2026-05-03T17:22:37.482Z</time></trkpt><trkpt lat="38.4195183" lon="16.0698283"><ele>204.66666666666669</ele><time>2026-05-03T17:22:38.481Z</time></trkpt><trkpt lat="38.4193767" lon="16.0699117"><ele>204.0</ele><time>2026-05-03T17:22:39.481Z</time></trkpt><trkpt lat="38.4192433" lon="16.0699917"><ele>204.0</ele><time>2026-05-03T17:22:40.481Z</time></trkpt><trkpt lat="38.41912" lon="16.0700683"><ele>204.0</ele><time>2026-05-03T17:22:41.481Z</time></trkpt><trkpt lat="38.4190067" lon="16.070135"><ele>204.0</ele><time>2026-05-03T17:22:42.482Z</time></trkpt><trkpt lat="38.4189083" lon="16.0702"><ele>204.0</ele><time>2026-05-03T17:22:43.481Z</time></trkpt><trkpt lat="38.4188383" lon="16.0702517"><ele>204.0</ele><time>2026-05-03T17:22:44.482Z</time></trkpt><trkpt lat="38.4187867" lon="16.0703067"><ele>204.0</ele><time>2026-05-03T17:22:45.481Z</time></trkpt><trkpt lat="38.4187517" lon="16.07042"><ele>204.0</ele><time>2026-05-03T17:22:47.481Z</time></trkpt><trkpt lat="38.4188033" lon="16.0705"><ele>204.0</ele><time>2026-05-03T17:22:49.482Z</time></trkpt><trkpt lat="38.4188883" lon="16.0705233"><ele>204.0</ele><time>2026-05-03T17:22:51.481Z</time></trkpt><trkpt lat="38.4189667" lon="16.0705"><ele>204.0</ele><time>2026-05-03T17:22:53.481Z</time></trkpt><trkpt lat="38.4190617" lon="16.0704817"><ele>204.0</ele><time>2026-05-03T17:26:28.481Z</time></trkpt><trkpt lat="38.4191167" lon="16.070375"><ele>204.0</ele><time>2026-05-03T17:26:31.481Z</time></trkpt><trkpt lat="38.419155" lon="16.0702617"><ele>204.0</ele><time>2026-05-03T17:26:33.482Z</time></trkpt><trkpt lat="38.41919" lon="16.07016"><ele>204.0</ele><time>2026-05-03T17:26:35.481Z</time></trkpt><trkpt lat="38.419265" lon="16.070065"><ele>204.0</ele><time>2026-05-03T17:26:37.482Z</time></trkpt><trkpt lat="38.4193233" lon="16.0700233"><ele>204.0</ele><time>2026-05-03T17:26:38.482Z</time></trkpt><trkpt lat="38.4193883" lon="16.0699833"><ele>204.0</ele><time>2026-05-03T17:26:39.48Z</time></trkpt><trkpt lat="38.41946" lon="16.06994"><ele>204.0</ele><time>2026-05-03T17:26:40.482Z</time></trkpt><trkpt lat="38.41954" lon="16.069895"><ele>204.0</ele><time>2026-05-03T17:26:41.482Z</time></trkpt><trkpt lat="38.419625" lon="16.0698517"><ele>204.0</ele><time>2026-05-03T17:26:42.481Z</time></trkpt><trkpt lat="38.41971" lon="16.06981"><ele>204.0</ele><time>2026-05-03T17:26:43.481Z</time></trkpt><trkpt lat="38.41979" lon="16.069765"><ele>204.33333333333334</ele><time>2026-05-03T17:26:44.481Z</time></trkpt><trkpt lat="38.4198617" lon="16.06972"><ele>204.66666666666669</ele><time>2026-05-03T17:26:45.482Z</time></trkpt><trkpt lat="38.41993" lon="16.0696783"><ele>205.0</ele><time>2026-05-03T17:26:46.481Z</time></trkpt><trkpt lat="38.4200417" lon="16.0696417"><ele>205.33333333333334</ele><time>2026-05-03T17:26:48.482Z</time></trkpt><trkpt lat="38.4201367" lon="16.0697033"><ele>205.66666666666669</ele><time>2026-05-03T17:26:50.482Z</time></trkpt><trkpt lat="38.4201867" lon="16.06976"><ele>206.0</ele><time>2026-05-03T17:26:51.482Z</time></trkpt><trkpt lat="38.42024" lon="16.0698167"><ele>206.0</ele><time>2026-05-03T17:26:52.481Z</time></trkpt><trkpt lat="38.42032" lon="16.069895"><ele>206.0</ele><time>2026-05-03T17:26:54.48Z</time></trkpt><trkpt lat="38.42034" lon="16.069995"><ele>206.0</ele><time>2026-05-03T17:29:29.482Z</time></trkpt><trkpt lat="38.42033" lon="16.0699133"><ele>206.0</ele><time>2026-05-03T17:29:37.482Z</time></trkpt><trkpt lat="38.4202417" lon="16.0698467"><ele>206.0</ele><time>2026-05-03T17:29:39.482Z</time></trkpt><trkpt lat="38.42016" lon="16.0697483"><ele>206.00000000000003</ele><time>2026-05-03T17:29:41.482Z</time></trkpt><trkpt lat="38.4201167" lon="16.0696733"><ele>206.0</ele><time>2026-05-03T17:29:43.482Z</time></trkpt><trkpt lat="38.42014" lon="16.0695367"><ele>206.0</ele><time>2026-05-03T17:30:05.481Z</time></trkpt><trkpt lat="38.42021" lon="16.0694883"><ele>206.0</ele><time>2026-05-03T17:30:07.482Z</time></trkpt><trkpt lat="38.4202683" lon="16.0694483"><ele>206.00000000000003</ele><time>2026-05-03T17:30:08.483Z</time></trkpt><trkpt lat="38.420345" lon="16.0694083"><ele>206.0</ele><time>2026-05-03T17:30:09.481Z</time></trkpt><trkpt lat="38.42043" lon="16.0693617"><ele>206.5</ele><time>2026-05-03T17:30:10.482Z</time></trkpt><trkpt lat="38.4205317" lon="16.069305"><ele>207.0</ele><time>2026-05-03T17:30:11.482Z</time></trkpt><trkpt lat="38.4206483" lon="16.069235"><ele>207.5</ele><time>2026-05-03T17:30:12.482Z</time></trkpt><trkpt lat="38.4207717" lon="16.0691717"><ele>208.0</ele><time>2026-05-03T17:30:13.481Z</time></trkpt><trkpt lat="38.4208983" lon="16.0691033"><ele>206.33333333333331</ele><time>2026-05-03T17:30:14.482Z</time></trkpt><trkpt lat="38.4210333" lon="16.069015"><ele>204.66666666666669</ele><time>2026-05-03T17:30:15.482Z</time></trkpt><trkpt lat="38.4211783" lon="16.0689283"><ele>203.0</ele><time>2026-05-03T17:30:16.481Z</time></trkpt><trkpt lat="38.421335" lon="16.0688367"><ele>201.33333333333334</ele><time>2026-05-03T17:30:17.482Z</time></trkpt><trkpt lat="38.4214967" lon="16.06875"><ele>199.66666666666669</ele><time>2026-05-03T17:30:18.482Z</time></trkpt><trkpt lat="38.42166" lon="16.0686633"><ele>198.0</ele><time>2026-05-03T17:30:19.481Z</time></trkpt><trkpt lat="38.42182" lon="16.068575"><ele>198.0</ele><time>2026-05-03T17:30:20.483Z</time></trkpt><trkpt lat="38.4219817" lon="16.06849"><ele>198.0</ele><time>2026-05-03T17:30:21.481Z</time></trkpt><trkpt lat="38.4221433" lon="16.068395"><ele>198.0</ele><time>2026-05-03T17:30:22.482Z</time></trkpt><trkpt lat="38.42231" lon="16.0683017"><ele>197.33333333333331</ele><time>2026-05-03T17:30:23.482Z</time></trkpt><trkpt lat="38.4224683" lon="16.0682083"><ele>196.66666666666666</ele><time>2026-05-03T17:30:24.482Z</time></trkpt><trkpt lat="38.422625" lon="16.06812"><ele>196.0</ele><time>2026-05-03T17:30:25.48Z</time></trkpt><trkpt lat="38.4227767" lon="16.0680333"><ele>196.0</ele><time>2026-05-03T17:30:26.483Z</time></trkpt><trkpt lat="38.4229283" lon="16.0679467"><ele>196.0</ele><time>2026-05-03T17:30:27.48Z</time></trkpt><trkpt lat="38.4230767" lon="16.06786"><ele>196.0</ele><time>2026-05-03T17:30:28.482Z</time></trkpt><trkpt lat="38.423225" lon="16.0677767"><ele>195.33333333333331</ele><time>2026-05-03T17:30:29.482Z</time></trkpt><trkpt lat="38.423375" lon="16.0676933"><ele>194.66666666666669</ele><time>2026-05-03T17:30:30.481Z</time></trkpt><trkpt lat="38.4235217" lon="16.0676083"><ele>194.0</ele><time>2026-05-03T17:30:31.482Z</time></trkpt><trkpt lat="38.42367" lon="16.067525"><ele>192.0</ele><time>2026-05-03T17:30:32.482Z</time></trkpt><trkpt lat="38.42382" lon="16.06744"><ele>190.0</ele><time>2026-05-03T17:30:33.482Z</time></trkpt><trkpt lat="38.4239583" lon="16.0673617"><ele>188.0</ele><time>2026-05-03T17:30:34.481Z</time></trkpt><trkpt lat="38.4240883" lon="16.067285"><ele>188.0</ele><time>2026-05-03T17:30:35.481Z</time></trkpt><trkpt lat="38.4242133" lon="16.0672117"><ele>188.0</ele><time>2026-05-03T17:30:36.482Z</time></trkpt><trkpt lat="38.4243433" lon="16.06714"><ele>188.0</ele><time>2026-05-03T17:30:37.481Z</time></trkpt><trkpt lat="38.4244767" lon="16.067065"><ele>188.0</ele><time>2026-05-03T17:30:38.482Z</time></trkpt><trkpt lat="38.42461" lon="16.0669867"><ele>188.75</ele><time>2026-05-03T17:30:39.481Z</time></trkpt><trkpt lat="38.42474" lon="16.06691"><ele>189.5</ele><time>2026-05-03T17:30:40.482Z</time></trkpt><trkpt lat="38.4248717" lon="16.066835"><ele>190.25</ele><time>2026-05-03T17:30:41.481Z</time></trkpt><trkpt lat="38.424995" lon="16.0667617"><ele>191.0</ele><time>2026-05-03T17:30:42.482Z</time></trkpt><trkpt lat="38.4251167" lon="16.066695"><ele>191.0</ele><time>2026-05-03T17:30:43.484Z</time></trkpt><trkpt lat="38.42523" lon="16.0666317"><ele>191.0</ele><time>2026-05-03T17:30:44.483Z</time></trkpt><trkpt lat="38.42534" lon="16.06657"><ele>191.0</ele><time>2026-05-03T17:30:45.482Z</time></trkpt><trkpt lat="38.4254517" lon="16.0665083"><ele>191.0</ele><time>2026-05-03T17:30:46.482Z</time></trkpt><trkpt lat="38.425565" lon="16.0664433"><ele>189.0</ele><time>2026-05-03T17:30:47.48Z</time></trkpt><trkpt lat="38.4256783" lon="16.06638"><ele>187.0</ele><time>2026-05-03T17:30:48.482Z</time></trkpt><trkpt lat="38.4257833" lon="16.066315"><ele>185.0</ele><time>2026-05-03T17:30:49.482Z</time></trkpt><trkpt lat="38.4258917" lon="16.066255"><ele>183.0</ele><time>2026-05-03T17:30:50.482Z</time></trkpt><trkpt lat="38.426" lon="16.0661983"><ele>183.0</ele><time>2026-05-03T17:30:51.481Z</time></trkpt><trkpt lat="38.426105" lon="16.06614"><ele>183.0</ele><time>2026-05-03T17:30:52.481Z</time></trkpt><trkpt lat="38.4262117" lon="16.06608"><ele>183.0</ele><time>2026-05-03T17:30:53.481Z</time></trkpt><trkpt lat="38.426315" lon="16.06602"><ele>183.0</ele><time>2026-05-03T17:30:54.481Z</time></trkpt><trkpt lat="38.4264167" lon="16.06596"><ele>183.2</ele><time>2026-05-03T17:30:55.481Z</time></trkpt><trkpt lat="38.4265167" lon="16.0659017"><ele>183.4</ele><time>2026-05-03T17:30:56.483Z</time></trkpt><trkpt lat="38.4266167" lon="16.06584"><ele>183.6</ele><time>2026-05-03T17:30:57.481Z</time></trkpt><trkpt lat="38.4267217" lon="16.0657817"><ele>183.79999999999998</ele><time>2026-05-03T17:30:58.482Z</time></trkpt><trkpt lat="38.4268233" lon="16.0657233"><ele>184.0</ele><time>2026-05-03T17:30:59.481Z</time></trkpt><trkpt lat="38.4269267" lon="16.0656633"><ele>183.25</ele><time>2026-05-03T17:31:00.481Z</time></trkpt><trkpt lat="38.4270317" lon="16.0656067"><ele>182.5</ele><time>2026-05-03T17:31:01.482Z</time></trkpt><trkpt lat="38.427135" lon="16.0655483"><ele>181.75</ele><time>2026-05-03T17:31:02.483Z</time></trkpt><trkpt lat="38.4272383" lon="16.06549"><ele>181.0</ele><time>2026-05-03T17:31:03.482Z</time></trkpt><trkpt lat="38.4273433" lon="16.0654317"><ele>180.8</ele><time>2026-05-03T17:31:04.481Z</time></trkpt><trkpt lat="38.4274467" lon="16.0653733"><ele>180.60000000000002</ele><time>2026-05-03T17:31:05.482Z</time></trkpt><trkpt lat="38.42755" lon="16.0653167"><ele>180.4</ele><time>2026-05-03T17:31:06.482Z</time></trkpt><trkpt lat="38.42765" lon="16.0652583"><ele>180.2</ele><time>2026-05-03T17:31:07.482Z</time></trkpt><trkpt lat="38.42775" lon="16.0652017"><ele>180.0</ele><time>2026-05-03T17:31:08.483Z</time></trkpt><trkpt lat="38.4278483" lon="16.06515"><ele>180.0</ele><time>2026-05-03T17:31:09.481Z</time></trkpt><trkpt lat="38.427945" lon="16.0650983"><ele>180.0</ele><time>2026-05-03T17:31:10.482Z</time></trkpt><trkpt lat="38.42804" lon="16.0650467"><ele>180.0</ele><time>2026-05-03T17:31:11.482Z</time></trkpt><trkpt lat="38.4281333" lon="16.064995"><ele>180.0</ele><time>2026-05-03T17:31:12.482Z</time></trkpt><trkpt lat="38.428225" lon="16.0649383"><ele>180.0</ele><time>2026-05-03T17:31:13.485Z</time></trkpt><trkpt lat="38.4283117" lon="16.06488"><ele>179.6</ele><time>2026-05-03T17:31:14.481Z</time></trkpt><trkpt lat="38.4283967" lon="16.0648317"><ele>179.2</ele><time>2026-05-03T17:31:15.482Z</time></trkpt><trkpt lat="38.4284817" lon="16.0647867"><ele>178.8</ele><time>2026-05-03T17:31:16.481Z</time></trkpt><trkpt lat="38.4285717" lon="16.0647367"><ele>178.4</ele><time>2026-05-03T17:31:17.481Z</time></trkpt><trkpt lat="38.4286617" lon="16.0646817"><ele>178.0</ele><time>2026-05-03T17:31:18.482Z</time></trkpt><trkpt lat="38.4287583" lon="16.06462"><ele>177.60000000000002</ele><time>2026-05-03T17:31:19.481Z</time></trkpt><trkpt lat="38.4288583" lon="16.06455"><ele>177.20000000000002</ele><time>2026-05-03T17:31:20.482Z</time></trkpt><trkpt lat="38.4289517" lon="16.0644783"><ele>176.8</ele><time>2026-05-03T17:31:21.48Z</time></trkpt><trkpt lat="38.42904" lon="16.0644"><ele>176.4</ele><time>2026-05-03T17:31:22.483Z</time></trkpt><trkpt lat="38.429125" lon="16.0643167"><ele>176.0</ele><time>2026-05-03T17:31:23.482Z</time></trkpt><trkpt lat="38.4292033" lon="16.0642367"><ele>176.0</ele><time>2026-05-03T17:31:24.481Z</time></trkpt><trkpt lat="38.429275" lon="16.06416"><ele>176.0</ele><time>2026-05-03T17:31:25.481Z</time></trkpt><trkpt lat="38.429345" lon="16.0640917"><ele>176.0</ele><time>2026-05-03T17:31:26.482Z</time></trkpt><trkpt lat="38.4294167" lon="16.0640267"><ele>176.0</ele><time>2026-05-03T17:31:27.481Z</time></trkpt><trkpt lat="38.4294867" lon="16.0639567"><ele>176.0</ele><time>2026-05-03T17:31:28.482Z</time></trkpt><trkpt lat="38.4295517" lon="16.06388"><ele>176.0</ele><time>2026-05-03T17:31:29.482Z</time></trkpt><trkpt lat="38.4296233" lon="16.0638033"><ele>175.66666666666666</ele><time>2026-05-03T17:31:30.482Z</time></trkpt><trkpt lat="38.4296933" lon="16.06373"><ele>175.33333333333331</ele><time>2026-05-03T17:31:31.482Z</time></trkpt><trkpt lat="38.4297583" lon="16.063655"><ele>175.0</ele><time>2026-05-03T17:31:32.483Z</time></trkpt><trkpt lat="38.42982" lon="16.06359"><ele>174.66666666666666</ele><time>2026-05-03T17:31:33.481Z</time></trkpt><trkpt lat="38.4298783" lon="16.063535"><ele>174.33333333333334</ele><time>2026-05-03T17:31:34.483Z</time></trkpt><trkpt lat="38.4299283" lon="16.0634833"><ele>174.0</ele><time>2026-05-03T17:31:35.482Z</time></trkpt><trkpt lat="38.4300183" lon="16.0634"><ele>174.0</ele><time>2026-05-03T17:31:37.481Z</time></trkpt><trkpt lat="38.4300733" lon="16.063345"><ele>174.0</ele><time>2026-05-03T17:31:39.482Z</time></trkpt><trkpt lat="38.4301283" lon="16.06327"><ele>174.0</ele><time>2026-05-03T17:31:42.482Z</time></trkpt><trkpt lat="38.4301717" lon="16.0632117"><ele>174.0</ele><time>2026-05-03T17:31:44.482Z</time></trkpt><trkpt lat="38.43024" lon="16.0631433"><ele>174.0</ele><time>2026-05-03T17:31:46.482Z</time></trkpt><trkpt lat="38.4303167" lon="16.0630717"><ele>174.0</ele><time>2026-05-03T17:31:48.482Z</time></trkpt><trkpt lat="38.4303733" lon="16.0630317"><ele>173.83333333333334</ele><time>2026-05-03T17:31:50.481Z</time></trkpt><trkpt lat="38.430445" lon="16.0629567"><ele>173.66666666666666</ele><time>2026-05-03T17:31:52.482Z</time></trkpt><trkpt lat="38.4304983" lon="16.0629033"><ele>173.5</ele><time>2026-05-03T17:31:53.482Z</time></trkpt><trkpt lat="38.4305583" lon="16.0628283"><ele>173.33333333333331</ele><time>2026-05-03T17:31:54.48Z</time></trkpt><trkpt lat="38.4306183" lon="16.0627583"><ele>173.16666666666666</ele><time>2026-05-03T17:31:55.483Z</time></trkpt><trkpt lat="38.4306833" lon="16.0626917"><ele>173.0</ele><time>2026-05-03T17:31:56.481Z</time></trkpt><trkpt lat="38.4307433" lon="16.0626083"><ele>172.8</ele><time>2026-05-03T17:31:57.482Z</time></trkpt><trkpt lat="38.4308133" lon="16.06252"><ele>172.60000000000002</ele><time>2026-05-03T17:31:58.481Z</time></trkpt><trkpt lat="38.4308883" lon="16.062435"><ele>172.39999999999998</ele><time>2026-05-03T17:31:59.482Z</time></trkpt><trkpt lat="38.4309683" lon="16.0623533"><ele>172.2</ele><time>2026-05-03T17:32:00.483Z</time></trkpt><trkpt lat="38.4310483" lon="16.06228"><ele>172.0</ele><time>2026-05-03T17:32:01.483Z</time></trkpt><trkpt lat="38.431115" lon="16.0622133"><ele>171.66666666666669</ele><time>2026-05-03T17:32:02.483Z</time></trkpt><trkpt lat="38.431185" lon="16.0621483"><ele>171.33333333333334</ele><time>2026-05-03T17:32:03.483Z</time></trkpt><trkpt lat="38.431245" lon="16.0620867"><ele>171.0</ele><time>2026-05-03T17:32:04.482Z</time></trkpt><trkpt lat="38.4312983" lon="16.0620317"><ele>170.66666666666666</ele><time>2026-05-03T17:32:05.481Z</time></trkpt><trkpt lat="38.431395" lon="16.0619233"><ele>170.33333333333331</ele><time>2026-05-03T17:32:07.482Z</time></trkpt><trkpt lat="38.43145" lon="16.0618567"><ele>170.0</ele><time>2026-05-03T17:32:08.483Z</time></trkpt><trkpt lat="38.4315117" lon="16.0617817"><ele>170.5</ele><time>2026-05-03T17:32:09.483Z</time></trkpt><trkpt lat="38.4315733" lon="16.0616983"><ele>171.0</ele><time>2026-05-03T17:32:10.483Z</time></trkpt><trkpt lat="38.4316317" lon="16.0616183"><ele>171.5</ele><time>2026-05-03T17:32:11.484Z</time></trkpt><trkpt lat="38.43169" lon="16.06154"><ele>172.0</ele><time>2026-05-03T17:32:12.482Z</time></trkpt><trkpt lat="38.43175" lon="16.0614667"><ele>172.5</ele><time>2026-05-03T17:32:13.481Z</time></trkpt><trkpt lat="38.4318117" lon="16.061395"><ele>173.0</ele><time>2026-05-03T17:32:14.481Z</time></trkpt><trkpt lat="38.4318717" lon="16.0613217"><ele>173.0</ele><time>2026-05-03T17:32:15.482Z</time></trkpt><trkpt lat="38.431925" lon="16.0612467"><ele>173.0</ele><time>2026-05-03T17:32:16.481Z</time></trkpt><trkpt lat="38.4319767" lon="16.0611733"><ele>173.0</ele><time>2026-05-03T17:32:17.482Z</time></trkpt><trkpt lat="38.4320283" lon="16.0610933"><ele>173.0</ele><time>2026-05-03T17:32:18.482Z</time></trkpt><trkpt lat="38.4320783" lon="16.061015"><ele>173.0</ele><time>2026-05-03T17:32:19.482Z</time></trkpt><trkpt lat="38.4321233" lon="16.0609433"><ele>173.0</ele><time>2026-05-03T17:32:20.481Z</time></trkpt><trkpt lat="38.4321667" lon="16.0608783"><ele>172.83333333333331</ele><time>2026-05-03T17:32:21.481Z</time></trkpt><trkpt lat="38.432215" lon="16.0608183"><ele>172.66666666666666</ele><time>2026-05-03T17:32:22.482Z</time></trkpt><trkpt lat="38.4322567" lon="16.0607533"><ele>172.5</ele><time>2026-05-03T17:32:23.481Z</time></trkpt><trkpt lat="38.4323083" lon="16.06069"><ele>172.33333333333334</ele><time>2026-05-03T17:32:24.483Z</time></trkpt><trkpt lat="38.4323633" lon="16.0606083"><ele>172.16666666666669</ele><time>2026-05-03T17:32:25.482Z</time></trkpt><trkpt lat="38.4324233" lon="16.06053"><ele>172.0</ele><time>2026-05-03T17:32:26.481Z</time></trkpt><trkpt lat="38.4324817" lon="16.0604533"><ele>171.33333333333334</ele><time>2026-05-03T17:32:27.481Z</time></trkpt><trkpt lat="38.4325433" lon="16.0603867"><ele>170.66666666666669</ele><time>2026-05-03T17:32:28.483Z</time></trkpt><trkpt lat="38.4326117" lon="16.0603267"><ele>170.0</ele><time>2026-05-03T17:32:29.482Z</time></trkpt><trkpt lat="38.432675" lon="16.060245"><ele>169.33333333333334</ele><time>2026-05-03T17:32:30.482Z</time></trkpt><trkpt lat="38.4327483" lon="16.0601667"><ele>168.66666666666666</ele><time>2026-05-03T17:32:31.482Z</time></trkpt><trkpt lat="38.4328217" lon="16.0600867"><ele>168.0</ele><time>2026-05-03T17:32:32.482Z</time></trkpt><trkpt lat="38.4329" lon="16.0600067"><ele>168.2</ele><time>2026-05-03T17:32:33.481Z</time></trkpt><trkpt lat="38.4329767" lon="16.05992"><ele>168.4</ele><time>2026-05-03T17:32:34.48Z</time></trkpt><trkpt lat="38.43306" lon="16.0598417"><ele>168.6</ele><time>2026-05-03T17:32:35.483Z</time></trkpt><trkpt lat="38.43315" lon="16.0597683"><ele>168.79999999999998</ele><time>2026-05-03T17:32:36.481Z</time></trkpt><trkpt lat="38.4332367" lon="16.0596867"><ele>169.0</ele><time>2026-05-03T17:32:37.482Z</time></trkpt><trkpt lat="38.4333233" lon="16.0596"><ele>169.0</ele><time>2026-05-03T17:32:38.483Z</time></trkpt><trkpt lat="38.4334067" lon="16.0595117"><ele>169.0</ele><time>2026-05-03T17:32:39.481Z</time></trkpt><trkpt lat="38.4334933" lon="16.059425"><ele>169.0</ele><time>2026-05-03T17:32:40.482Z</time></trkpt><trkpt lat="38.433575" lon="16.059325"><ele>169.0</ele><time>2026-05-03T17:32:41.482Z</time></trkpt><trkpt lat="38.43366" lon="16.059235"><ele>169.0</ele><time>2026-05-03T17:32:42.481Z</time></trkpt><trkpt lat="38.43375" lon="16.0591483"><ele>169.0</ele><time>2026-05-03T17:32:43.483Z</time></trkpt><trkpt lat="38.433835" lon="16.0590583"><ele>169.0</ele><time>2026-05-03T17:32:44.482Z</time></trkpt><trkpt lat="38.4339233" lon="16.0589767"><ele>169.0</ele><time>2026-05-03T17:32:45.482Z</time></trkpt><trkpt lat="38.4340117" lon="16.058895"><ele>169.0</ele><time>2026-05-03T17:32:46.482Z</time></trkpt><trkpt lat="38.4341" lon="16.0588133"><ele>169.0</ele><time>2026-05-03T17:32:47.482Z</time></trkpt><trkpt lat="38.4341867" lon="16.058735"><ele>169.0</ele><time>2026-05-03T17:32:48.481Z</time></trkpt><trkpt lat="38.434265" lon="16.058665"><ele>169.0</ele><time>2026-05-03T17:32:49.482Z</time></trkpt><trkpt lat="38.4343367" lon="16.0585917"><ele>169.0</ele><time>2026-05-03T17:32:50.481Z</time></trkpt><trkpt lat="38.434415" lon="16.0585133"><ele>169.0</ele><time>2026-05-03T17:32:51.482Z</time></trkpt><trkpt lat="38.4344717" lon="16.0584233"><ele>169.0</ele><time>2026-05-03T17:32:52.481Z</time></trkpt><trkpt lat="38.4345083" lon="16.05834"><ele>168.6</ele><time>2026-05-03T17:32:53.481Z</time></trkpt><trkpt lat="38.4345533" lon="16.058235"><ele>168.2</ele><time>2026-05-03T17:32:54.482Z</time></trkpt><trkpt lat="38.434595" lon="16.0581167"><ele>167.79999999999998</ele><time>2026-05-03T17:32:55.482Z</time></trkpt><trkpt lat="38.4346417" lon="16.0579917"><ele>167.39999999999998</ele><time>2026-05-03T17:32:56.482Z</time></trkpt><trkpt lat="38.4347" lon="16.0578683"><ele>167.0</ele><time>2026-05-03T17:32:57.482Z</time></trkpt><trkpt lat="38.434765" lon="16.0577417"><ele>166.39999999999998</ele><time>2026-05-03T17:32:58.481Z</time></trkpt><trkpt lat="38.4348333" lon="16.0576167"><ele>165.79999999999998</ele><time>2026-05-03T17:32:59.482Z</time></trkpt><trkpt lat="38.4349033" lon="16.057495"><ele>165.2</ele><time>2026-05-03T17:33:00.481Z</time></trkpt><trkpt lat="38.434975" lon="16.0573933"><ele>164.6</ele><time>2026-05-03T17:33:01.482Z</time></trkpt><trkpt lat="38.435045" lon="16.0573067"><ele>164.0</ele><time>2026-05-03T17:33:02.482Z</time></trkpt><trkpt lat="38.435105" lon="16.0572317"><ele>163.83333333333331</ele><time>2026-05-03T17:33:03.482Z</time></trkpt><trkpt lat="38.435155" lon="16.0571733"><ele>163.66666666666666</ele><time>2026-05-03T17:33:04.482Z</time></trkpt><trkpt lat="38.4352233" lon="16.0570667"><ele>163.5</ele><time>2026-05-03T17:33:06.481Z</time></trkpt><trkpt lat="38.4352767" lon="16.05697"><ele>163.33333333333334</ele><time>2026-05-03T17:33:08.482Z</time></trkpt><trkpt lat="38.4352967" lon="16.056875"><ele>163.16666666666669</ele><time>2026-05-03T17:33:10.481Z</time></trkpt><trkpt lat="38.4352767" lon="16.0567867"><ele>163.0</ele><time>2026-05-03T17:33:12.481Z</time></trkpt><trkpt lat="38.4352983" lon="16.0567067"><ele>162.5</ele><time>2026-05-03T17:33:14.482Z</time></trkpt><trkpt lat="38.4353383" lon="16.056615"><ele>162.0</ele><time>2026-05-03T17:33:16.482Z</time></trkpt><trkpt lat="38.4353417" lon="16.0565333"><ele>161.5</ele><time>2026-05-03T17:33:18.481Z</time></trkpt><trkpt lat="38.4352867" lon="16.05647"><ele>161.0</ele><time>2026-05-03T17:33:20.482Z</time></trkpt><trkpt lat="38.4352117" lon="16.0564267"><ele>160.5</ele><time>2026-05-03T17:33:22.483Z</time></trkpt><trkpt lat="38.4351483" lon="16.056365"><ele>160.0</ele><time>2026-05-03T17:33:24.482Z</time></trkpt><trkpt lat="38.43508" lon="16.0563033"><ele>160.0</ele><time>2026-05-03T17:33:26.482Z</time></trkpt><trkpt lat="38.4350117" lon="16.05623"><ele>160.0</ele><time>2026-05-03T17:33:29.482Z</time></trkpt><trkpt lat="38.4349567" lon="16.0561617"><ele>160.0</ele><time>2026-05-03T17:33:32.483Z</time></trkpt><trkpt lat="38.4349433" lon="16.05606"><ele>160.0</ele><time>2026-05-03T17:33:36.483Z</time></trkpt><trkpt lat="38.4349617" lon="16.05598"><ele>160.0</ele><time>2026-05-03T17:33:40.481Z</time></trkpt></trkseg></trk></gpx>